<?xml version="1.0" encoding="UTF-8" standalone="no" ?>
<gpx xmlns="http://www.topografix.com/GPX/1/1" xmlns:xsi="http://www.w3.org/2001/XMLSchema-instance" xsi:schemaLocation="http://www.topografix.com/GPX/1/1 http://www.topografix.com/GPX/1/1/gpx.xsd" version="1.1" creator="VisuGPX - https://www.visugpx.com">
  <metadata>
    <name>Saillans 2019 boucle noire</name>
    <desc><![CDATA[Parcours boucle noire de l'excellente rando du Club de Saillans]]></desc>
  </metadata>
  <trk>
    <name><![CDATA[Saillans 🤩]]></name>
    <trkseg>
      <trkpt lat="44.69427" lon="5.18242">
        <ele>252</ele>
        <time>2019-09-01T05:52:50Z</time>
      </trkpt>
      <trkpt lat="44.69428" lon="5.18246">
        <ele>252</ele>
        <time>2019-09-01T05:54:12Z</time>
      </trkpt>
      <trkpt lat="44.69431" lon="5.18247">
        <ele>252</ele>
        <time>2019-09-01T05:54:15Z</time>
      </trkpt>
      <trkpt lat="44.69434" lon="5.18248">
        <ele>252</ele>
        <time>2019-09-01T05:54:18Z</time>
      </trkpt>
      <trkpt lat="44.69438" lon="5.1825">
        <ele>253</ele>
        <time>2019-09-01T05:54:21Z</time>
      </trkpt>
      <trkpt lat="44.69441" lon="5.18252">
        <ele>253</ele>
        <time>2019-09-01T05:54:25Z</time>
      </trkpt>
      <trkpt lat="44.69443" lon="5.18255">
        <ele>253</ele>
        <time>2019-09-01T05:54:28Z</time>
      </trkpt>
      <trkpt lat="44.69445" lon="5.18259">
        <ele>253</ele>
        <time>2019-09-01T05:54:30Z</time>
      </trkpt>
      <trkpt lat="44.69446" lon="5.18265">
        <ele>253</ele>
        <time>2019-09-01T05:54:32Z</time>
      </trkpt>
      <trkpt lat="44.69447" lon="5.18269">
        <ele>254</ele>
        <time>2019-09-01T05:54:34Z</time>
      </trkpt>
      <trkpt lat="44.69447" lon="5.18274">
        <ele>254</ele>
        <time>2019-09-01T05:54:36Z</time>
      </trkpt>
      <trkpt lat="44.69447" lon="5.18279">
        <ele>254</ele>
        <time>2019-09-01T05:54:38Z</time>
      </trkpt>
      <trkpt lat="44.69446" lon="5.18285">
        <ele>254</ele>
        <time>2019-09-01T05:54:40Z</time>
      </trkpt>
      <trkpt lat="44.69446" lon="5.1829">
        <ele>254</ele>
        <time>2019-09-01T05:54:42Z</time>
      </trkpt>
      <trkpt lat="44.69447" lon="5.18295">
        <ele>254</ele>
        <time>2019-09-01T05:54:44Z</time>
      </trkpt>
      <trkpt lat="44.69447" lon="5.18298">
        <ele>254</ele>
        <time>2019-09-01T05:54:46Z</time>
      </trkpt>
      <trkpt lat="44.69447" lon="5.18304">
        <ele>254</ele>
        <time>2019-09-01T05:54:49Z</time>
      </trkpt>
      <trkpt lat="44.69447" lon="5.18308">
        <ele>254</ele>
        <time>2019-09-01T05:54:52Z</time>
      </trkpt>
      <trkpt lat="44.69449" lon="5.18312">
        <ele>254</ele>
        <time>2019-09-01T05:54:54Z</time>
      </trkpt>
      <trkpt lat="44.69451" lon="5.18315">
        <ele>254</ele>
        <time>2019-09-01T05:54:56Z</time>
      </trkpt>
      <trkpt lat="44.69454" lon="5.18317">
        <ele>254</ele>
        <time>2019-09-01T05:54:58Z</time>
      </trkpt>
      <trkpt lat="44.69457" lon="5.18319">
        <ele>254</ele>
        <time>2019-09-01T05:55:00Z</time>
      </trkpt>
      <trkpt lat="44.6946" lon="5.18321">
        <ele>254</ele>
        <time>2019-09-01T05:55:02Z</time>
      </trkpt>
      <trkpt lat="44.69465" lon="5.18325">
        <ele>255</ele>
        <time>2019-09-01T05:55:04Z</time>
      </trkpt>
      <trkpt lat="44.69468" lon="5.18329">
        <ele>255</ele>
        <time>2019-09-01T05:55:06Z</time>
      </trkpt>
      <trkpt lat="44.69471" lon="5.18334">
        <ele>256</ele>
        <time>2019-09-01T05:55:08Z</time>
      </trkpt>
      <trkpt lat="44.69473" lon="5.18339">
        <ele>256</ele>
        <time>2019-09-01T05:55:10Z</time>
      </trkpt>
      <trkpt lat="44.69475" lon="5.18344">
        <ele>256</ele>
        <time>2019-09-01T05:55:12Z</time>
      </trkpt>
      <trkpt lat="44.69478" lon="5.18348">
        <ele>256</ele>
        <time>2019-09-01T05:55:14Z</time>
      </trkpt>
      <trkpt lat="44.6948" lon="5.18353">
        <ele>256</ele>
        <time>2019-09-01T05:55:16Z</time>
      </trkpt>
      <trkpt lat="44.69482" lon="5.18358">
        <ele>256</ele>
        <time>2019-09-01T05:55:18Z</time>
      </trkpt>
      <trkpt lat="44.69483" lon="5.18364">
        <ele>256</ele>
        <time>2019-09-01T05:55:20Z</time>
      </trkpt>
      <trkpt lat="44.69483" lon="5.1837">
        <ele>256</ele>
        <time>2019-09-01T05:55:22Z</time>
      </trkpt>
      <trkpt lat="44.69481" lon="5.18376">
        <ele>256</ele>
        <time>2019-09-01T05:55:24Z</time>
      </trkpt>
      <trkpt lat="44.69479" lon="5.18382">
        <ele>256</ele>
        <time>2019-09-01T05:55:26Z</time>
      </trkpt>
      <trkpt lat="44.69476" lon="5.18388">
        <ele>256</ele>
        <time>2019-09-01T05:55:28Z</time>
      </trkpt>
      <trkpt lat="44.69473" lon="5.18394">
        <ele>256</ele>
        <time>2019-09-01T05:55:30Z</time>
      </trkpt>
      <trkpt lat="44.69472" lon="5.18397">
        <ele>256</ele>
        <time>2019-09-01T05:55:31Z</time>
      </trkpt>
      <trkpt lat="44.6947" lon="5.18403">
        <ele>256</ele>
        <time>2019-09-01T05:55:33Z</time>
      </trkpt>
      <trkpt lat="44.69467" lon="5.18409">
        <ele>256</ele>
        <time>2019-09-01T05:55:35Z</time>
      </trkpt>
      <trkpt lat="44.69465" lon="5.18413">
        <ele>256</ele>
        <time>2019-09-01T05:55:36Z</time>
      </trkpt>
      <trkpt lat="44.69464" lon="5.18417">
        <ele>256</ele>
        <time>2019-09-01T05:55:37Z</time>
      </trkpt>
      <trkpt lat="44.69462" lon="5.18423">
        <ele>256</ele>
        <time>2019-09-01T05:55:39Z</time>
      </trkpt>
      <trkpt lat="44.69461" lon="5.18427">
        <ele>256</ele>
        <time>2019-09-01T05:55:40Z</time>
      </trkpt>
      <trkpt lat="44.69459" lon="5.18431">
        <ele>256</ele>
        <time>2019-09-01T05:55:41Z</time>
      </trkpt>
      <trkpt lat="44.69457" lon="5.18438">
        <ele>256</ele>
        <time>2019-09-01T05:55:43Z</time>
      </trkpt>
      <trkpt lat="44.69456" lon="5.18445">
        <ele>256</ele>
        <time>2019-09-01T05:55:45Z</time>
      </trkpt>
      <trkpt lat="44.69455" lon="5.1845">
        <ele>256</ele>
        <time>2019-09-01T05:55:46Z</time>
      </trkpt>
      <trkpt lat="44.69454" lon="5.18455">
        <ele>256</ele>
        <time>2019-09-01T05:55:47Z</time>
      </trkpt>
      <trkpt lat="44.69454" lon="5.1846">
        <ele>256</ele>
        <time>2019-09-01T05:55:48Z</time>
      </trkpt>
      <trkpt lat="44.69453" lon="5.18464">
        <ele>256</ele>
        <time>2019-09-01T05:55:49Z</time>
      </trkpt>
      <trkpt lat="44.69453" lon="5.1847">
        <ele>256</ele>
        <time>2019-09-01T05:55:50Z</time>
      </trkpt>
      <trkpt lat="44.69453" lon="5.18474">
        <ele>256</ele>
        <time>2019-09-01T05:55:51Z</time>
      </trkpt>
      <trkpt lat="44.69452" lon="5.18479">
        <ele>256</ele>
        <time>2019-09-01T05:55:52Z</time>
      </trkpt>
      <trkpt lat="44.69451" lon="5.18484">
        <ele>256</ele>
        <time>2019-09-01T05:55:53Z</time>
      </trkpt>
      <trkpt lat="44.69451" lon="5.18489">
        <ele>255</ele>
        <time>2019-09-01T05:55:54Z</time>
      </trkpt>
      <trkpt lat="44.69451" lon="5.18494">
        <ele>255</ele>
        <time>2019-09-01T05:55:55Z</time>
      </trkpt>
      <trkpt lat="44.69451" lon="5.18498">
        <ele>255</ele>
        <time>2019-09-01T05:55:56Z</time>
      </trkpt>
      <trkpt lat="44.6945" lon="5.18502">
        <ele>255</ele>
        <time>2019-09-01T05:55:57Z</time>
      </trkpt>
      <trkpt lat="44.6945" lon="5.18508">
        <ele>255</ele>
        <time>2019-09-01T05:55:58Z</time>
      </trkpt>
      <trkpt lat="44.6945" lon="5.18512">
        <ele>255</ele>
        <time>2019-09-01T05:55:59Z</time>
      </trkpt>
      <trkpt lat="44.6945" lon="5.18516">
        <ele>255</ele>
        <time>2019-09-01T05:56:00Z</time>
      </trkpt>
      <trkpt lat="44.6945" lon="5.18524">
        <ele>255</ele>
        <time>2019-09-01T05:56:02Z</time>
      </trkpt>
      <trkpt lat="44.69449" lon="5.18531">
        <ele>255</ele>
        <time>2019-09-01T05:56:04Z</time>
      </trkpt>
      <trkpt lat="44.69449" lon="5.18535">
        <ele>255</ele>
        <time>2019-09-01T05:56:05Z</time>
      </trkpt>
      <trkpt lat="44.69449" lon="5.1854">
        <ele>255</ele>
        <time>2019-09-01T05:56:06Z</time>
      </trkpt>
      <trkpt lat="44.69449" lon="5.18548">
        <ele>255</ele>
        <time>2019-09-01T05:56:08Z</time>
      </trkpt>
      <trkpt lat="44.6945" lon="5.18552">
        <ele>255</ele>
        <time>2019-09-01T05:56:09Z</time>
      </trkpt>
      <trkpt lat="44.6945" lon="5.18559">
        <ele>255</ele>
        <time>2019-09-01T05:56:11Z</time>
      </trkpt>
      <trkpt lat="44.69451" lon="5.18565">
        <ele>255</ele>
        <time>2019-09-01T05:56:13Z</time>
      </trkpt>
      <trkpt lat="44.69451" lon="5.18569">
        <ele>255</ele>
        <time>2019-09-01T05:56:14Z</time>
      </trkpt>
      <trkpt lat="44.69452" lon="5.18573">
        <ele>255</ele>
        <time>2019-09-01T05:56:15Z</time>
      </trkpt>
      <trkpt lat="44.69452" lon="5.18578">
        <ele>255</ele>
        <time>2019-09-01T05:56:16Z</time>
      </trkpt>
      <trkpt lat="44.69452" lon="5.18583">
        <ele>255</ele>
        <time>2019-09-01T05:56:17Z</time>
      </trkpt>
      <trkpt lat="44.69452" lon="5.18587">
        <ele>255</ele>
        <time>2019-09-01T05:56:18Z</time>
      </trkpt>
      <trkpt lat="44.69453" lon="5.18594">
        <ele>255</ele>
        <time>2019-09-01T05:56:20Z</time>
      </trkpt>
      <trkpt lat="44.69454" lon="5.186">
        <ele>255</ele>
        <time>2019-09-01T05:56:22Z</time>
      </trkpt>
      <trkpt lat="44.69455" lon="5.18606">
        <ele>255</ele>
        <time>2019-09-01T05:56:24Z</time>
      </trkpt>
      <trkpt lat="44.69455" lon="5.18613">
        <ele>255</ele>
        <time>2019-09-01T05:56:26Z</time>
      </trkpt>
      <trkpt lat="44.69456" lon="5.1862">
        <ele>255</ele>
        <time>2019-09-01T05:56:28Z</time>
      </trkpt>
      <trkpt lat="44.69457" lon="5.18627">
        <ele>255</ele>
        <time>2019-09-01T05:56:30Z</time>
      </trkpt>
      <trkpt lat="44.69458" lon="5.18632">
        <ele>255</ele>
        <time>2019-09-01T05:56:32Z</time>
      </trkpt>
      <trkpt lat="44.69458" lon="5.18637">
        <ele>255</ele>
        <time>2019-09-01T05:56:33Z</time>
      </trkpt>
      <trkpt lat="44.69458" lon="5.18643">
        <ele>255</ele>
        <time>2019-09-01T05:56:35Z</time>
      </trkpt>
      <trkpt lat="44.69459" lon="5.18647">
        <ele>255</ele>
        <time>2019-09-01T05:56:36Z</time>
      </trkpt>
      <trkpt lat="44.69459" lon="5.18651">
        <ele>255</ele>
        <time>2019-09-01T05:56:37Z</time>
      </trkpt>
      <trkpt lat="44.6946" lon="5.18655">
        <ele>255</ele>
        <time>2019-09-01T05:56:38Z</time>
      </trkpt>
      <trkpt lat="44.69461" lon="5.18662">
        <ele>255</ele>
        <time>2019-09-01T05:56:40Z</time>
      </trkpt>
      <trkpt lat="44.69462" lon="5.18668">
        <ele>255</ele>
        <time>2019-09-01T05:56:42Z</time>
      </trkpt>
      <trkpt lat="44.69463" lon="5.18671">
        <ele>255</ele>
        <time>2019-09-01T05:56:43Z</time>
      </trkpt>
      <trkpt lat="44.69465" lon="5.18678">
        <ele>255</ele>
        <time>2019-09-01T05:56:45Z</time>
      </trkpt>
      <trkpt lat="44.69466" lon="5.18685">
        <ele>255</ele>
        <time>2019-09-01T05:56:47Z</time>
      </trkpt>
      <trkpt lat="44.69468" lon="5.18691">
        <ele>255</ele>
        <time>2019-09-01T05:56:49Z</time>
      </trkpt>
      <trkpt lat="44.69469" lon="5.18695">
        <ele>255</ele>
        <time>2019-09-01T05:56:50Z</time>
      </trkpt>
      <trkpt lat="44.6947" lon="5.18699">
        <ele>255</ele>
        <time>2019-09-01T05:56:51Z</time>
      </trkpt>
      <trkpt lat="44.69472" lon="5.18705">
        <ele>255</ele>
        <time>2019-09-01T05:56:53Z</time>
      </trkpt>
      <trkpt lat="44.69473" lon="5.18709">
        <ele>255</ele>
        <time>2019-09-01T05:56:54Z</time>
      </trkpt>
      <trkpt lat="44.69474" lon="5.18713">
        <ele>255</ele>
        <time>2019-09-01T05:56:55Z</time>
      </trkpt>
      <trkpt lat="44.69476" lon="5.18719">
        <ele>255</ele>
        <time>2019-09-01T05:56:57Z</time>
      </trkpt>
      <trkpt lat="44.69477" lon="5.18723">
        <ele>255</ele>
        <time>2019-09-01T05:56:58Z</time>
      </trkpt>
      <trkpt lat="44.69477" lon="5.18727">
        <ele>255</ele>
        <time>2019-09-01T05:56:59Z</time>
      </trkpt>
      <trkpt lat="44.69478" lon="5.1873">
        <ele>255</ele>
        <time>2019-09-01T05:57:00Z</time>
      </trkpt>
      <trkpt lat="44.69481" lon="5.18737">
        <ele>255</ele>
        <time>2019-09-01T05:57:02Z</time>
      </trkpt>
      <trkpt lat="44.69483" lon="5.18744">
        <ele>255</ele>
        <time>2019-09-01T05:57:04Z</time>
      </trkpt>
      <trkpt lat="44.69484" lon="5.18751">
        <ele>256</ele>
        <time>2019-09-01T05:57:06Z</time>
      </trkpt>
      <trkpt lat="44.69485" lon="5.18755">
        <ele>256</ele>
        <time>2019-09-01T05:57:07Z</time>
      </trkpt>
      <trkpt lat="44.69486" lon="5.18759">
        <ele>256</ele>
        <time>2019-09-01T05:57:08Z</time>
      </trkpt>
      <trkpt lat="44.69487" lon="5.18763">
        <ele>255</ele>
        <time>2019-09-01T05:57:09Z</time>
      </trkpt>
      <trkpt lat="44.69488" lon="5.18767">
        <ele>255</ele>
        <time>2019-09-01T05:57:10Z</time>
      </trkpt>
      <trkpt lat="44.6949" lon="5.18771">
        <ele>255</ele>
        <time>2019-09-01T05:57:11Z</time>
      </trkpt>
      <trkpt lat="44.69491" lon="5.18775">
        <ele>255</ele>
        <time>2019-09-01T05:57:12Z</time>
      </trkpt>
      <trkpt lat="44.69492" lon="5.1878">
        <ele>255</ele>
        <time>2019-09-01T05:57:13Z</time>
      </trkpt>
      <trkpt lat="44.69493" lon="5.18784">
        <ele>255</ele>
        <time>2019-09-01T05:57:14Z</time>
      </trkpt>
      <trkpt lat="44.69495" lon="5.18788">
        <ele>255</ele>
        <time>2019-09-01T05:57:15Z</time>
      </trkpt>
      <trkpt lat="44.69496" lon="5.18792">
        <ele>255</ele>
        <time>2019-09-01T05:57:16Z</time>
      </trkpt>
      <trkpt lat="44.69497" lon="5.18797">
        <ele>255</ele>
        <time>2019-09-01T05:57:17Z</time>
      </trkpt>
      <trkpt lat="44.69499" lon="5.18802">
        <ele>255</ele>
        <time>2019-09-01T05:57:18Z</time>
      </trkpt>
      <trkpt lat="44.695" lon="5.18807">
        <ele>255</ele>
        <time>2019-09-01T05:57:19Z</time>
      </trkpt>
      <trkpt lat="44.69501" lon="5.1881">
        <ele>258</ele>
        <time>2019-09-01T05:57:20Z</time>
      </trkpt>
      <trkpt lat="44.69502" lon="5.18815">
        <ele>258</ele>
        <time>2019-09-01T05:57:21Z</time>
      </trkpt>
      <trkpt lat="44.69503" lon="5.18819">
        <ele>257</ele>
        <time>2019-09-01T05:57:22Z</time>
      </trkpt>
      <trkpt lat="44.69504" lon="5.18824">
        <ele>257</ele>
        <time>2019-09-01T05:57:23Z</time>
      </trkpt>
      <trkpt lat="44.69505" lon="5.18828">
        <ele>257</ele>
        <time>2019-09-01T05:57:24Z</time>
      </trkpt>
      <trkpt lat="44.69505" lon="5.18832">
        <ele>257</ele>
        <time>2019-09-01T05:57:25Z</time>
      </trkpt>
      <trkpt lat="44.69506" lon="5.18836">
        <ele>257</ele>
        <time>2019-09-01T05:57:26Z</time>
      </trkpt>
      <trkpt lat="44.69507" lon="5.1884">
        <ele>257</ele>
        <time>2019-09-01T05:57:27Z</time>
      </trkpt>
      <trkpt lat="44.69507" lon="5.18848">
        <ele>258</ele>
        <time>2019-09-01T05:57:29Z</time>
      </trkpt>
      <trkpt lat="44.69508" lon="5.18853">
        <ele>258</ele>
        <time>2019-09-01T05:57:30Z</time>
      </trkpt>
      <trkpt lat="44.69509" lon="5.18858">
        <ele>258</ele>
        <time>2019-09-01T05:57:31Z</time>
      </trkpt>
      <trkpt lat="44.69509" lon="5.18862">
        <ele>258</ele>
        <time>2019-09-01T05:57:32Z</time>
      </trkpt>
      <trkpt lat="44.6951" lon="5.18866">
        <ele>258</ele>
        <time>2019-09-01T05:57:33Z</time>
      </trkpt>
      <trkpt lat="44.6951" lon="5.18871">
        <ele>259</ele>
        <time>2019-09-01T05:57:34Z</time>
      </trkpt>
      <trkpt lat="44.69511" lon="5.18876">
        <ele>259</ele>
        <time>2019-09-01T05:57:35Z</time>
      </trkpt>
      <trkpt lat="44.69512" lon="5.1888">
        <ele>259</ele>
        <time>2019-09-01T05:57:36Z</time>
      </trkpt>
      <trkpt lat="44.69512" lon="5.18884">
        <ele>259</ele>
        <time>2019-09-01T05:57:37Z</time>
      </trkpt>
      <trkpt lat="44.69512" lon="5.18888">
        <ele>258</ele>
        <time>2019-09-01T05:57:38Z</time>
      </trkpt>
      <trkpt lat="44.69513" lon="5.18892">
        <ele>258</ele>
        <time>2019-09-01T05:57:39Z</time>
      </trkpt>
      <trkpt lat="44.69514" lon="5.189">
        <ele>258</ele>
        <time>2019-09-01T05:57:41Z</time>
      </trkpt>
      <trkpt lat="44.69514" lon="5.18904">
        <ele>258</ele>
        <time>2019-09-01T05:57:42Z</time>
      </trkpt>
      <trkpt lat="44.69515" lon="5.18909">
        <ele>258</ele>
        <time>2019-09-01T05:57:43Z</time>
      </trkpt>
      <trkpt lat="44.69515" lon="5.18913">
        <ele>258</ele>
        <time>2019-09-01T05:57:44Z</time>
      </trkpt>
      <trkpt lat="44.69516" lon="5.18917">
        <ele>258</ele>
        <time>2019-09-01T05:57:45Z</time>
      </trkpt>
      <trkpt lat="44.69517" lon="5.18921">
        <ele>258</ele>
        <time>2019-09-01T05:57:46Z</time>
      </trkpt>
      <trkpt lat="44.69517" lon="5.18925">
        <ele>258</ele>
        <time>2019-09-01T05:57:47Z</time>
      </trkpt>
      <trkpt lat="44.69517" lon="5.18929">
        <ele>259</ele>
        <time>2019-09-01T05:57:48Z</time>
      </trkpt>
      <trkpt lat="44.69519" lon="5.18936">
        <ele>259</ele>
        <time>2019-09-01T05:57:50Z</time>
      </trkpt>
      <trkpt lat="44.6952" lon="5.18941">
        <ele>259</ele>
        <time>2019-09-01T05:57:51Z</time>
      </trkpt>
      <trkpt lat="44.69521" lon="5.18945">
        <ele>259</ele>
        <time>2019-09-01T05:57:52Z</time>
      </trkpt>
      <trkpt lat="44.69521" lon="5.18949">
        <ele>260</ele>
        <time>2019-09-01T05:57:53Z</time>
      </trkpt>
      <trkpt lat="44.69522" lon="5.18954">
        <ele>260</ele>
        <time>2019-09-01T05:57:54Z</time>
      </trkpt>
      <trkpt lat="44.69523" lon="5.18958">
        <ele>260</ele>
        <time>2019-09-01T05:57:55Z</time>
      </trkpt>
      <trkpt lat="44.69524" lon="5.18962">
        <ele>260</ele>
        <time>2019-09-01T05:57:56Z</time>
      </trkpt>
      <trkpt lat="44.69525" lon="5.18966">
        <ele>260</ele>
        <time>2019-09-01T05:57:57Z</time>
      </trkpt>
      <trkpt lat="44.69526" lon="5.18969">
        <ele>260</ele>
        <time>2019-09-01T05:57:58Z</time>
      </trkpt>
      <trkpt lat="44.69528" lon="5.18973">
        <ele>260</ele>
        <time>2019-09-01T05:57:59Z</time>
      </trkpt>
      <trkpt lat="44.69529" lon="5.18977">
        <ele>260</ele>
        <time>2019-09-01T05:58:00Z</time>
      </trkpt>
      <trkpt lat="44.69531" lon="5.1898">
        <ele>260</ele>
        <time>2019-09-01T05:58:01Z</time>
      </trkpt>
      <trkpt lat="44.69533" lon="5.18988">
        <ele>260</ele>
        <time>2019-09-01T05:58:03Z</time>
      </trkpt>
      <trkpt lat="44.69535" lon="5.18991">
        <ele>261</ele>
        <time>2019-09-01T05:58:04Z</time>
      </trkpt>
      <trkpt lat="44.69536" lon="5.18995">
        <ele>261</ele>
        <time>2019-09-01T05:58:05Z</time>
      </trkpt>
      <trkpt lat="44.69538" lon="5.18999">
        <ele>261</ele>
        <time>2019-09-01T05:58:06Z</time>
      </trkpt>
      <trkpt lat="44.69539" lon="5.19003">
        <ele>261</ele>
        <time>2019-09-01T05:58:07Z</time>
      </trkpt>
      <trkpt lat="44.6954" lon="5.19008">
        <ele>261</ele>
        <time>2019-09-01T05:58:08Z</time>
      </trkpt>
      <trkpt lat="44.69542" lon="5.19012">
        <ele>261</ele>
        <time>2019-09-01T05:58:09Z</time>
      </trkpt>
      <trkpt lat="44.69543" lon="5.19016">
        <ele>261</ele>
        <time>2019-09-01T05:58:10Z</time>
      </trkpt>
      <trkpt lat="44.69544" lon="5.1902">
        <ele>261</ele>
        <time>2019-09-01T05:58:11Z</time>
      </trkpt>
      <trkpt lat="44.69545" lon="5.19023">
        <ele>261</ele>
        <time>2019-09-01T05:58:12Z</time>
      </trkpt>
      <trkpt lat="44.69547" lon="5.19031">
        <ele>261</ele>
        <time>2019-09-01T05:58:14Z</time>
      </trkpt>
      <trkpt lat="44.69548" lon="5.19036">
        <ele>261</ele>
        <time>2019-09-01T05:58:15Z</time>
      </trkpt>
      <trkpt lat="44.69549" lon="5.1904">
        <ele>261</ele>
        <time>2019-09-01T05:58:16Z</time>
      </trkpt>
      <trkpt lat="44.6955" lon="5.19045">
        <ele>261</ele>
        <time>2019-09-01T05:58:17Z</time>
      </trkpt>
      <trkpt lat="44.69551" lon="5.19049">
        <ele>261</ele>
        <time>2019-09-01T05:58:18Z</time>
      </trkpt>
      <trkpt lat="44.69552" lon="5.19053">
        <ele>261</ele>
        <time>2019-09-01T05:58:19Z</time>
      </trkpt>
      <trkpt lat="44.69552" lon="5.19057">
        <ele>261</ele>
        <time>2019-09-01T05:58:20Z</time>
      </trkpt>
      <trkpt lat="44.69553" lon="5.19061">
        <ele>262</ele>
        <time>2019-09-01T05:58:21Z</time>
      </trkpt>
      <trkpt lat="44.69554" lon="5.19065">
        <ele>262</ele>
        <time>2019-09-01T05:58:22Z</time>
      </trkpt>
      <trkpt lat="44.69555" lon="5.19069">
        <ele>262</ele>
        <time>2019-09-01T05:58:23Z</time>
      </trkpt>
      <trkpt lat="44.69555" lon="5.19074">
        <ele>262</ele>
        <time>2019-09-01T05:58:24Z</time>
      </trkpt>
      <trkpt lat="44.69556" lon="5.19078">
        <ele>262</ele>
        <time>2019-09-01T05:58:25Z</time>
      </trkpt>
      <trkpt lat="44.69557" lon="5.19084">
        <ele>261</ele>
        <time>2019-09-01T05:58:26Z</time>
      </trkpt>
      <trkpt lat="44.69558" lon="5.19088">
        <ele>261</ele>
        <time>2019-09-01T05:58:27Z</time>
      </trkpt>
      <trkpt lat="44.69558" lon="5.19092">
        <ele>261</ele>
        <time>2019-09-01T05:58:28Z</time>
      </trkpt>
      <trkpt lat="44.69559" lon="5.19097">
        <ele>261</ele>
        <time>2019-09-01T05:58:29Z</time>
      </trkpt>
      <trkpt lat="44.69559" lon="5.19101">
        <ele>261</ele>
        <time>2019-09-01T05:58:30Z</time>
      </trkpt>
      <trkpt lat="44.6956" lon="5.19105">
        <ele>261</ele>
        <time>2019-09-01T05:58:31Z</time>
      </trkpt>
      <trkpt lat="44.6956" lon="5.19109">
        <ele>261</ele>
        <time>2019-09-01T05:58:32Z</time>
      </trkpt>
      <trkpt lat="44.69561" lon="5.19114">
        <ele>261</ele>
        <time>2019-09-01T05:58:33Z</time>
      </trkpt>
      <trkpt lat="44.69561" lon="5.19119">
        <ele>261</ele>
        <time>2019-09-01T05:58:34Z</time>
      </trkpt>
      <trkpt lat="44.69562" lon="5.19123">
        <ele>261</ele>
        <time>2019-09-01T05:58:35Z</time>
      </trkpt>
      <trkpt lat="44.69563" lon="5.19128">
        <ele>261</ele>
        <time>2019-09-01T05:58:36Z</time>
      </trkpt>
      <trkpt lat="44.69564" lon="5.19133">
        <ele>261</ele>
        <time>2019-09-01T05:58:37Z</time>
      </trkpt>
      <trkpt lat="44.69565" lon="5.19138">
        <ele>261</ele>
        <time>2019-09-01T05:58:38Z</time>
      </trkpt>
      <trkpt lat="44.69566" lon="5.19143">
        <ele>261</ele>
        <time>2019-09-01T05:58:39Z</time>
      </trkpt>
      <trkpt lat="44.69567" lon="5.19148">
        <ele>261</ele>
        <time>2019-09-01T05:58:40Z</time>
      </trkpt>
      <trkpt lat="44.69568" lon="5.19152">
        <ele>261</ele>
        <time>2019-09-01T05:58:41Z</time>
      </trkpt>
      <trkpt lat="44.69568" lon="5.19157">
        <ele>261</ele>
        <time>2019-09-01T05:58:42Z</time>
      </trkpt>
      <trkpt lat="44.69569" lon="5.19161">
        <ele>261</ele>
        <time>2019-09-01T05:58:43Z</time>
      </trkpt>
      <trkpt lat="44.6957" lon="5.19165">
        <ele>261</ele>
        <time>2019-09-01T05:58:44Z</time>
      </trkpt>
      <trkpt lat="44.69571" lon="5.19169">
        <ele>261</ele>
        <time>2019-09-01T05:58:45Z</time>
      </trkpt>
      <trkpt lat="44.69572" lon="5.19173">
        <ele>261</ele>
        <time>2019-09-01T05:58:46Z</time>
      </trkpt>
      <trkpt lat="44.69573" lon="5.19178">
        <ele>261</ele>
        <time>2019-09-01T05:58:47Z</time>
      </trkpt>
      <trkpt lat="44.69574" lon="5.19182">
        <ele>261</ele>
        <time>2019-09-01T05:58:48Z</time>
      </trkpt>
      <trkpt lat="44.69576" lon="5.19187">
        <ele>261</ele>
        <time>2019-09-01T05:58:49Z</time>
      </trkpt>
      <trkpt lat="44.69576" lon="5.19191">
        <ele>260</ele>
        <time>2019-09-01T05:58:50Z</time>
      </trkpt>
      <trkpt lat="44.69577" lon="5.19195">
        <ele>260</ele>
        <time>2019-09-01T05:58:51Z</time>
      </trkpt>
      <trkpt lat="44.69578" lon="5.192">
        <ele>260</ele>
        <time>2019-09-01T05:58:52Z</time>
      </trkpt>
      <trkpt lat="44.69578" lon="5.19204">
        <ele>260</ele>
        <time>2019-09-01T05:58:53Z</time>
      </trkpt>
      <trkpt lat="44.69579" lon="5.19208">
        <ele>260</ele>
        <time>2019-09-01T05:58:54Z</time>
      </trkpt>
      <trkpt lat="44.6958" lon="5.19211">
        <ele>260</ele>
        <time>2019-09-01T05:58:55Z</time>
      </trkpt>
      <trkpt lat="44.69581" lon="5.19216">
        <ele>260</ele>
        <time>2019-09-01T05:58:56Z</time>
      </trkpt>
      <trkpt lat="44.69582" lon="5.1922">
        <ele>260</ele>
        <time>2019-09-01T05:58:57Z</time>
      </trkpt>
      <trkpt lat="44.69583" lon="5.19224">
        <ele>260</ele>
        <time>2019-09-01T05:58:58Z</time>
      </trkpt>
      <trkpt lat="44.69584" lon="5.19228">
        <ele>261</ele>
        <time>2019-09-01T05:58:59Z</time>
      </trkpt>
      <trkpt lat="44.69586" lon="5.19235">
        <ele>261</ele>
        <time>2019-09-01T05:59:01Z</time>
      </trkpt>
      <trkpt lat="44.69587" lon="5.19239">
        <ele>260</ele>
        <time>2019-09-01T05:59:02Z</time>
      </trkpt>
      <trkpt lat="44.69588" lon="5.19244">
        <ele>260</ele>
        <time>2019-09-01T05:59:03Z</time>
      </trkpt>
      <trkpt lat="44.69588" lon="5.19248">
        <ele>260</ele>
        <time>2019-09-01T05:59:04Z</time>
      </trkpt>
      <trkpt lat="44.69589" lon="5.19252">
        <ele>260</ele>
        <time>2019-09-01T05:59:05Z</time>
      </trkpt>
      <trkpt lat="44.6959" lon="5.19256">
        <ele>260</ele>
        <time>2019-09-01T05:59:06Z</time>
      </trkpt>
      <trkpt lat="44.69592" lon="5.1926">
        <ele>260</ele>
        <time>2019-09-01T05:59:07Z</time>
      </trkpt>
      <trkpt lat="44.69593" lon="5.19264">
        <ele>260</ele>
        <time>2019-09-01T05:59:08Z</time>
      </trkpt>
      <trkpt lat="44.69594" lon="5.19268">
        <ele>261</ele>
        <time>2019-09-01T05:59:09Z</time>
      </trkpt>
      <trkpt lat="44.69594" lon="5.19272">
        <ele>261</ele>
        <time>2019-09-01T05:59:10Z</time>
      </trkpt>
      <trkpt lat="44.69595" lon="5.19277">
        <ele>261</ele>
        <time>2019-09-01T05:59:11Z</time>
      </trkpt>
      <trkpt lat="44.69596" lon="5.19281">
        <ele>261</ele>
        <time>2019-09-01T05:59:12Z</time>
      </trkpt>
      <trkpt lat="44.69596" lon="5.19285">
        <ele>261</ele>
        <time>2019-09-01T05:59:13Z</time>
      </trkpt>
      <trkpt lat="44.69597" lon="5.1929">
        <ele>261</ele>
        <time>2019-09-01T05:59:14Z</time>
      </trkpt>
      <trkpt lat="44.69598" lon="5.19294">
        <ele>261</ele>
        <time>2019-09-01T05:59:15Z</time>
      </trkpt>
      <trkpt lat="44.696" lon="5.19302">
        <ele>261</ele>
        <time>2019-09-01T05:59:17Z</time>
      </trkpt>
      <trkpt lat="44.69601" lon="5.19309">
        <ele>261</ele>
        <time>2019-09-01T05:59:19Z</time>
      </trkpt>
      <trkpt lat="44.69603" lon="5.19316">
        <ele>261</ele>
        <time>2019-09-01T05:59:21Z</time>
      </trkpt>
      <trkpt lat="44.69603" lon="5.1932">
        <ele>261</ele>
        <time>2019-09-01T05:59:22Z</time>
      </trkpt>
      <trkpt lat="44.69604" lon="5.19324">
        <ele>261</ele>
        <time>2019-09-01T05:59:23Z</time>
      </trkpt>
      <trkpt lat="44.69605" lon="5.19328">
        <ele>261</ele>
        <time>2019-09-01T05:59:24Z</time>
      </trkpt>
      <trkpt lat="44.69606" lon="5.19332">
        <ele>261</ele>
        <time>2019-09-01T05:59:25Z</time>
      </trkpt>
      <trkpt lat="44.69607" lon="5.19336">
        <ele>261</ele>
        <time>2019-09-01T05:59:26Z</time>
      </trkpt>
      <trkpt lat="44.69608" lon="5.1934">
        <ele>261</ele>
        <time>2019-09-01T05:59:27Z</time>
      </trkpt>
      <trkpt lat="44.69609" lon="5.19344">
        <ele>261</ele>
        <time>2019-09-01T05:59:28Z</time>
      </trkpt>
      <trkpt lat="44.6961" lon="5.19348">
        <ele>261</ele>
        <time>2019-09-01T05:59:29Z</time>
      </trkpt>
      <trkpt lat="44.69612" lon="5.19355">
        <ele>261</ele>
        <time>2019-09-01T05:59:31Z</time>
      </trkpt>
      <trkpt lat="44.69613" lon="5.19359">
        <ele>262</ele>
        <time>2019-09-01T05:59:32Z</time>
      </trkpt>
      <trkpt lat="44.69615" lon="5.19364">
        <ele>262</ele>
        <time>2019-09-01T05:59:33Z</time>
      </trkpt>
      <trkpt lat="44.69616" lon="5.19369">
        <ele>262</ele>
        <time>2019-09-01T05:59:34Z</time>
      </trkpt>
      <trkpt lat="44.69616" lon="5.19373">
        <ele>262</ele>
        <time>2019-09-01T05:59:35Z</time>
      </trkpt>
      <trkpt lat="44.69618" lon="5.19376">
        <ele>262</ele>
        <time>2019-09-01T05:59:36Z</time>
      </trkpt>
      <trkpt lat="44.69619" lon="5.1938">
        <ele>262</ele>
        <time>2019-09-01T05:59:37Z</time>
      </trkpt>
      <trkpt lat="44.6962" lon="5.19384">
        <ele>262</ele>
        <time>2019-09-01T05:59:38Z</time>
      </trkpt>
      <trkpt lat="44.69621" lon="5.19388">
        <ele>262</ele>
        <time>2019-09-01T05:59:39Z</time>
      </trkpt>
      <trkpt lat="44.69622" lon="5.19392">
        <ele>262</ele>
        <time>2019-09-01T05:59:40Z</time>
      </trkpt>
      <trkpt lat="44.69625" lon="5.19398">
        <ele>262</ele>
        <time>2019-09-01T05:59:42Z</time>
      </trkpt>
      <trkpt lat="44.69628" lon="5.19404">
        <ele>262</ele>
        <time>2019-09-01T05:59:44Z</time>
      </trkpt>
      <trkpt lat="44.69629" lon="5.19408">
        <ele>262</ele>
        <time>2019-09-01T05:59:45Z</time>
      </trkpt>
      <trkpt lat="44.69631" lon="5.19412">
        <ele>262</ele>
        <time>2019-09-01T05:59:46Z</time>
      </trkpt>
      <trkpt lat="44.69632" lon="5.19416">
        <ele>262</ele>
        <time>2019-09-01T05:59:47Z</time>
      </trkpt>
      <trkpt lat="44.69634" lon="5.1942">
        <ele>262</ele>
        <time>2019-09-01T05:59:48Z</time>
      </trkpt>
      <trkpt lat="44.69636" lon="5.19425">
        <ele>262</ele>
        <time>2019-09-01T05:59:49Z</time>
      </trkpt>
      <trkpt lat="44.69638" lon="5.19429">
        <ele>262</ele>
        <time>2019-09-01T05:59:50Z</time>
      </trkpt>
      <trkpt lat="44.69639" lon="5.19433">
        <ele>262</ele>
        <time>2019-09-01T05:59:51Z</time>
      </trkpt>
      <trkpt lat="44.69641" lon="5.19438">
        <ele>262</ele>
        <time>2019-09-01T05:59:52Z</time>
      </trkpt>
      <trkpt lat="44.69643" lon="5.19442">
        <ele>262</ele>
        <time>2019-09-01T05:59:53Z</time>
      </trkpt>
      <trkpt lat="44.69645" lon="5.19447">
        <ele>262</ele>
        <time>2019-09-01T05:59:54Z</time>
      </trkpt>
      <trkpt lat="44.69647" lon="5.19451">
        <ele>262</ele>
        <time>2019-09-01T05:59:55Z</time>
      </trkpt>
      <trkpt lat="44.69649" lon="5.19455">
        <ele>262</ele>
        <time>2019-09-01T05:59:56Z</time>
      </trkpt>
      <trkpt lat="44.69651" lon="5.19458">
        <ele>262</ele>
        <time>2019-09-01T05:59:57Z</time>
      </trkpt>
      <trkpt lat="44.69656" lon="5.19455">
        <ele>262</ele>
        <time>2019-09-01T05:59:59Z</time>
      </trkpt>
      <trkpt lat="44.6966" lon="5.1945">
        <ele>262</ele>
        <time>2019-09-01T06:00:01Z</time>
      </trkpt>
      <trkpt lat="44.69662" lon="5.19448">
        <ele>262</ele>
        <time>2019-09-01T06:00:02Z</time>
      </trkpt>
      <trkpt lat="44.69665" lon="5.19445">
        <ele>262</ele>
        <time>2019-09-01T06:00:03Z</time>
      </trkpt>
      <trkpt lat="44.69669" lon="5.19443">
        <ele>264</ele>
        <time>2019-09-01T06:00:05Z</time>
      </trkpt>
      <trkpt lat="44.69674" lon="5.19441">
        <ele>264</ele>
        <time>2019-09-01T06:00:07Z</time>
      </trkpt>
      <trkpt lat="44.69676" lon="5.19439">
        <ele>264</ele>
        <time>2019-09-01T06:00:08Z</time>
      </trkpt>
      <trkpt lat="44.69681" lon="5.19437">
        <ele>264</ele>
        <time>2019-09-01T06:00:10Z</time>
      </trkpt>
      <trkpt lat="44.69685" lon="5.19436">
        <ele>264</ele>
        <time>2019-09-01T06:00:12Z</time>
      </trkpt>
      <trkpt lat="44.69689" lon="5.19434">
        <ele>264</ele>
        <time>2019-09-01T06:00:14Z</time>
      </trkpt>
      <trkpt lat="44.69694" lon="5.19432">
        <ele>264</ele>
        <time>2019-09-01T06:00:16Z</time>
      </trkpt>
      <trkpt lat="44.69699" lon="5.1943">
        <ele>264</ele>
        <time>2019-09-01T06:00:18Z</time>
      </trkpt>
      <trkpt lat="44.69704" lon="5.19429">
        <ele>264</ele>
        <time>2019-09-01T06:00:20Z</time>
      </trkpt>
      <trkpt lat="44.69708" lon="5.19427">
        <ele>264</ele>
        <time>2019-09-01T06:00:22Z</time>
      </trkpt>
      <trkpt lat="44.69713" lon="5.19425">
        <ele>264</ele>
        <time>2019-09-01T06:00:24Z</time>
      </trkpt>
      <trkpt lat="44.69715" lon="5.19424">
        <ele>264</ele>
        <time>2019-09-01T06:00:25Z</time>
      </trkpt>
      <trkpt lat="44.6972" lon="5.19423">
        <ele>264</ele>
        <time>2019-09-01T06:00:27Z</time>
      </trkpt>
      <trkpt lat="44.69725" lon="5.19422">
        <ele>264</ele>
        <time>2019-09-01T06:00:29Z</time>
      </trkpt>
      <trkpt lat="44.69729" lon="5.19422">
        <ele>265</ele>
        <time>2019-09-01T06:00:31Z</time>
      </trkpt>
      <trkpt lat="44.69734" lon="5.19422">
        <ele>265</ele>
        <time>2019-09-01T06:00:33Z</time>
      </trkpt>
      <trkpt lat="44.69738" lon="5.19422">
        <ele>265</ele>
        <time>2019-09-01T06:00:35Z</time>
      </trkpt>
      <trkpt lat="44.69742" lon="5.1942">
        <ele>265</ele>
        <time>2019-09-01T06:00:37Z</time>
      </trkpt>
      <trkpt lat="44.69747" lon="5.19418">
        <ele>266</ele>
        <time>2019-09-01T06:00:39Z</time>
      </trkpt>
      <trkpt lat="44.69751" lon="5.19417">
        <ele>266</ele>
        <time>2019-09-01T06:00:41Z</time>
      </trkpt>
      <trkpt lat="44.69756" lon="5.19415">
        <ele>267</ele>
        <time>2019-09-01T06:00:43Z</time>
      </trkpt>
      <trkpt lat="44.6976" lon="5.19412">
        <ele>268</ele>
        <time>2019-09-01T06:00:45Z</time>
      </trkpt>
      <trkpt lat="44.69764" lon="5.1941">
        <ele>268</ele>
        <time>2019-09-01T06:00:47Z</time>
      </trkpt>
      <trkpt lat="44.69769" lon="5.19409">
        <ele>269</ele>
        <time>2019-09-01T06:00:49Z</time>
      </trkpt>
      <trkpt lat="44.69773" lon="5.19406">
        <ele>269</ele>
        <time>2019-09-01T06:00:51Z</time>
      </trkpt>
      <trkpt lat="44.69777" lon="5.19403">
        <ele>270</ele>
        <time>2019-09-01T06:00:53Z</time>
      </trkpt>
      <trkpt lat="44.69781" lon="5.19401">
        <ele>270</ele>
        <time>2019-09-01T06:00:55Z</time>
      </trkpt>
      <trkpt lat="44.69785" lon="5.19398">
        <ele>270</ele>
        <time>2019-09-01T06:00:57Z</time>
      </trkpt>
      <trkpt lat="44.69789" lon="5.19396">
        <ele>271</ele>
        <time>2019-09-01T06:00:59Z</time>
      </trkpt>
      <trkpt lat="44.69793" lon="5.19395">
        <ele>271</ele>
        <time>2019-09-01T06:01:01Z</time>
      </trkpt>
      <trkpt lat="44.69796" lon="5.19392">
        <ele>271</ele>
        <time>2019-09-01T06:01:03Z</time>
      </trkpt>
      <trkpt lat="44.69799" lon="5.19389">
        <ele>271</ele>
        <time>2019-09-01T06:01:05Z</time>
      </trkpt>
      <trkpt lat="44.69802" lon="5.19387">
        <ele>271</ele>
        <time>2019-09-01T06:01:07Z</time>
      </trkpt>
      <trkpt lat="44.69806" lon="5.19384">
        <ele>271</ele>
        <time>2019-09-01T06:01:09Z</time>
      </trkpt>
      <trkpt lat="44.69809" lon="5.19381">
        <ele>272</ele>
        <time>2019-09-01T06:01:11Z</time>
      </trkpt>
      <trkpt lat="44.69812" lon="5.19379">
        <ele>272</ele>
        <time>2019-09-01T06:01:13Z</time>
      </trkpt>
      <trkpt lat="44.69815" lon="5.19376">
        <ele>272</ele>
        <time>2019-09-01T06:01:15Z</time>
      </trkpt>
      <trkpt lat="44.69818" lon="5.19373">
        <ele>272</ele>
        <time>2019-09-01T06:01:17Z</time>
      </trkpt>
      <trkpt lat="44.69821" lon="5.1937">
        <ele>272</ele>
        <time>2019-09-01T06:01:19Z</time>
      </trkpt>
      <trkpt lat="44.69824" lon="5.19368">
        <ele>273</ele>
        <time>2019-09-01T06:01:21Z</time>
      </trkpt>
      <trkpt lat="44.69827" lon="5.19365">
        <ele>273</ele>
        <time>2019-09-01T06:01:23Z</time>
      </trkpt>
      <trkpt lat="44.69829" lon="5.19363">
        <ele>273</ele>
        <time>2019-09-01T06:01:25Z</time>
      </trkpt>
      <trkpt lat="44.69833" lon="5.19359">
        <ele>273</ele>
        <time>2019-09-01T06:01:27Z</time>
      </trkpt>
      <trkpt lat="44.69835" lon="5.19357">
        <ele>281</ele>
        <time>2019-09-01T06:01:29Z</time>
      </trkpt>
      <trkpt lat="44.69839" lon="5.19353">
        <ele>280</ele>
        <time>2019-09-01T06:01:31Z</time>
      </trkpt>
      <trkpt lat="44.69841" lon="5.1935">
        <ele>280</ele>
        <time>2019-09-01T06:01:33Z</time>
      </trkpt>
      <trkpt lat="44.69844" lon="5.19347">
        <ele>280</ele>
        <time>2019-09-01T06:01:35Z</time>
      </trkpt>
      <trkpt lat="44.69846" lon="5.19344">
        <ele>281</ele>
        <time>2019-09-01T06:01:37Z</time>
      </trkpt>
      <trkpt lat="44.69849" lon="5.19342">
        <ele>281</ele>
        <time>2019-09-01T06:01:39Z</time>
      </trkpt>
      <trkpt lat="44.69852" lon="5.19339">
        <ele>281</ele>
        <time>2019-09-01T06:01:41Z</time>
      </trkpt>
      <trkpt lat="44.69855" lon="5.19336">
        <ele>282</ele>
        <time>2019-09-01T06:01:43Z</time>
      </trkpt>
      <trkpt lat="44.69857" lon="5.19333">
        <ele>284</ele>
        <time>2019-09-01T06:01:45Z</time>
      </trkpt>
      <trkpt lat="44.6986" lon="5.19331">
        <ele>285</ele>
        <time>2019-09-01T06:01:47Z</time>
      </trkpt>
      <trkpt lat="44.69864" lon="5.1933">
        <ele>285</ele>
        <time>2019-09-01T06:01:49Z</time>
      </trkpt>
      <trkpt lat="44.69867" lon="5.1933">
        <ele>286</ele>
        <time>2019-09-01T06:01:51Z</time>
      </trkpt>
      <trkpt lat="44.69871" lon="5.19329">
        <ele>287</ele>
        <time>2019-09-01T06:01:54Z</time>
      </trkpt>
      <trkpt lat="44.69874" lon="5.19328">
        <ele>287</ele>
        <time>2019-09-01T06:01:57Z</time>
      </trkpt>
      <trkpt lat="44.69877" lon="5.19327">
        <ele>288</ele>
        <time>2019-09-01T06:01:59Z</time>
      </trkpt>
      <trkpt lat="44.6988" lon="5.19326">
        <ele>288</ele>
        <time>2019-09-01T06:02:01Z</time>
      </trkpt>
      <trkpt lat="44.69883" lon="5.19326">
        <ele>289</ele>
        <time>2019-09-01T06:02:03Z</time>
      </trkpt>
      <trkpt lat="44.69886" lon="5.19325">
        <ele>289</ele>
        <time>2019-09-01T06:02:05Z</time>
      </trkpt>
      <trkpt lat="44.69889" lon="5.19325">
        <ele>290</ele>
        <time>2019-09-01T06:02:07Z</time>
      </trkpt>
      <trkpt lat="44.69892" lon="5.19325">
        <ele>290</ele>
        <time>2019-09-01T06:02:09Z</time>
      </trkpt>
      <trkpt lat="44.69895" lon="5.19324">
        <ele>291</ele>
        <time>2019-09-01T06:02:11Z</time>
      </trkpt>
      <trkpt lat="44.69898" lon="5.19323">
        <ele>291</ele>
        <time>2019-09-01T06:02:13Z</time>
      </trkpt>
      <trkpt lat="44.69901" lon="5.19322">
        <ele>292</ele>
        <time>2019-09-01T06:02:16Z</time>
      </trkpt>
      <trkpt lat="44.69904" lon="5.19322">
        <ele>292</ele>
        <time>2019-09-01T06:02:19Z</time>
      </trkpt>
      <trkpt lat="44.69907" lon="5.19321">
        <ele>292</ele>
        <time>2019-09-01T06:02:21Z</time>
      </trkpt>
      <trkpt lat="44.69911" lon="5.19319">
        <ele>293</ele>
        <time>2019-09-01T06:02:24Z</time>
      </trkpt>
      <trkpt lat="44.69914" lon="5.19318">
        <ele>293</ele>
        <time>2019-09-01T06:02:27Z</time>
      </trkpt>
      <trkpt lat="44.69917" lon="5.19318">
        <ele>301</ele>
        <time>2019-09-01T06:02:29Z</time>
      </trkpt>
      <trkpt lat="44.69921" lon="5.19317">
        <ele>301</ele>
        <time>2019-09-01T06:02:32Z</time>
      </trkpt>
      <trkpt lat="44.69924" lon="5.19316">
        <ele>301</ele>
        <time>2019-09-01T06:02:34Z</time>
      </trkpt>
      <trkpt lat="44.69926" lon="5.19315">
        <ele>302</ele>
        <time>2019-09-01T06:02:36Z</time>
      </trkpt>
      <trkpt lat="44.6993" lon="5.19313">
        <ele>302</ele>
        <time>2019-09-01T06:02:39Z</time>
      </trkpt>
      <trkpt lat="44.69932" lon="5.19311">
        <ele>303</ele>
        <time>2019-09-01T06:02:42Z</time>
      </trkpt>
      <trkpt lat="44.69934" lon="5.19307">
        <ele>304</ele>
        <time>2019-09-01T06:02:45Z</time>
      </trkpt>
      <trkpt lat="44.69935" lon="5.19303">
        <ele>304</ele>
        <time>2019-09-01T06:02:48Z</time>
      </trkpt>
      <trkpt lat="44.69933" lon="5.19299">
        <ele>304</ele>
        <time>2019-09-01T06:02:52Z</time>
      </trkpt>
      <trkpt lat="44.6993" lon="5.19298">
        <ele>304</ele>
        <time>2019-09-01T06:02:56Z</time>
      </trkpt>
      <trkpt lat="44.69927" lon="5.19296">
        <ele>304</ele>
        <time>2019-09-01T06:02:59Z</time>
      </trkpt>
      <trkpt lat="44.69924" lon="5.19294">
        <ele>304</ele>
        <time>2019-09-01T06:03:02Z</time>
      </trkpt>
      <trkpt lat="44.69921" lon="5.19291">
        <ele>304</ele>
        <time>2019-09-01T06:03:05Z</time>
      </trkpt>
      <trkpt lat="44.69918" lon="5.19288">
        <ele>304</ele>
        <time>2019-09-01T06:03:08Z</time>
      </trkpt>
      <trkpt lat="44.69915" lon="5.19284">
        <ele>292</ele>
        <time>2019-09-01T06:03:11Z</time>
      </trkpt>
      <trkpt lat="44.69913" lon="5.19279">
        <ele>293</ele>
        <time>2019-09-01T06:03:14Z</time>
      </trkpt>
      <trkpt lat="44.69912" lon="5.19276">
        <ele>293</ele>
        <time>2019-09-01T06:03:16Z</time>
      </trkpt>
      <trkpt lat="44.69911" lon="5.1927">
        <ele>294</ele>
        <time>2019-09-01T06:03:19Z</time>
      </trkpt>
      <trkpt lat="44.6991" lon="5.19266">
        <ele>295</ele>
        <time>2019-09-01T06:03:21Z</time>
      </trkpt>
      <trkpt lat="44.69911" lon="5.19262">
        <ele>296</ele>
        <time>2019-09-01T06:03:23Z</time>
      </trkpt>
      <trkpt lat="44.69912" lon="5.19258">
        <ele>297</ele>
        <time>2019-09-01T06:03:26Z</time>
      </trkpt>
      <trkpt lat="44.69908" lon="5.19257">
        <ele>296</ele>
        <time>2019-09-01T06:03:52Z</time>
      </trkpt>
      <trkpt lat="44.69907" lon="5.19253">
        <ele>296</ele>
        <time>2019-09-01T06:04:09Z</time>
      </trkpt>
      <trkpt lat="44.69905" lon="5.19249">
        <ele>297</ele>
        <time>2019-09-01T06:04:19Z</time>
      </trkpt>
      <trkpt lat="44.69906" lon="5.19244">
        <ele>297</ele>
        <time>2019-09-01T06:04:21Z</time>
      </trkpt>
      <trkpt lat="44.69906" lon="5.19238">
        <ele>297</ele>
        <time>2019-09-01T06:04:23Z</time>
      </trkpt>
      <trkpt lat="44.69905" lon="5.19231">
        <ele>296</ele>
        <time>2019-09-01T06:04:25Z</time>
      </trkpt>
      <trkpt lat="44.69905" lon="5.19225">
        <ele>296</ele>
        <time>2019-09-01T06:04:27Z</time>
      </trkpt>
      <trkpt lat="44.69905" lon="5.19219">
        <ele>295</ele>
        <time>2019-09-01T06:04:29Z</time>
      </trkpt>
      <trkpt lat="44.69905" lon="5.19213">
        <ele>295</ele>
        <time>2019-09-01T06:04:31Z</time>
      </trkpt>
      <trkpt lat="44.69905" lon="5.19208">
        <ele>296</ele>
        <time>2019-09-01T06:04:33Z</time>
      </trkpt>
      <trkpt lat="44.69906" lon="5.19202">
        <ele>296</ele>
        <time>2019-09-01T06:04:35Z</time>
      </trkpt>
      <trkpt lat="44.69907" lon="5.19196">
        <ele>297</ele>
        <time>2019-09-01T06:04:37Z</time>
      </trkpt>
      <trkpt lat="44.69907" lon="5.19191">
        <ele>298</ele>
        <time>2019-09-01T06:04:39Z</time>
      </trkpt>
      <trkpt lat="44.69909" lon="5.19185">
        <ele>299</ele>
        <time>2019-09-01T06:04:41Z</time>
      </trkpt>
      <trkpt lat="44.69911" lon="5.1918">
        <ele>300</ele>
        <time>2019-09-01T06:04:43Z</time>
      </trkpt>
      <trkpt lat="44.69912" lon="5.19176">
        <ele>302</ele>
        <time>2019-09-01T06:04:45Z</time>
      </trkpt>
      <trkpt lat="44.69913" lon="5.19171">
        <ele>304</ele>
        <time>2019-09-01T06:04:47Z</time>
      </trkpt>
      <trkpt lat="44.69914" lon="5.19165">
        <ele>306</ele>
        <time>2019-09-01T06:04:49Z</time>
      </trkpt>
      <trkpt lat="44.69916" lon="5.19161">
        <ele>305</ele>
        <time>2019-09-01T06:04:51Z</time>
      </trkpt>
      <trkpt lat="44.69917" lon="5.19156">
        <ele>309</ele>
        <time>2019-09-01T06:04:53Z</time>
      </trkpt>
      <trkpt lat="44.69918" lon="5.19152">
        <ele>310</ele>
        <time>2019-09-01T06:04:55Z</time>
      </trkpt>
      <trkpt lat="44.6992" lon="5.19148">
        <ele>310</ele>
        <time>2019-09-01T06:04:57Z</time>
      </trkpt>
      <trkpt lat="44.69921" lon="5.19144">
        <ele>311</ele>
        <time>2019-09-01T06:04:59Z</time>
      </trkpt>
      <trkpt lat="44.69922" lon="5.19139">
        <ele>311</ele>
        <time>2019-09-01T06:05:01Z</time>
      </trkpt>
      <trkpt lat="44.69922" lon="5.19135">
        <ele>312</ele>
        <time>2019-09-01T06:05:03Z</time>
      </trkpt>
      <trkpt lat="44.69923" lon="5.19131">
        <ele>312</ele>
        <time>2019-09-01T06:05:05Z</time>
      </trkpt>
      <trkpt lat="44.69924" lon="5.19127">
        <ele>312</ele>
        <time>2019-09-01T06:05:07Z</time>
      </trkpt>
      <trkpt lat="44.69924" lon="5.19123">
        <ele>312</ele>
        <time>2019-09-01T06:05:09Z</time>
      </trkpt>
      <trkpt lat="44.69927" lon="5.19119">
        <ele>312</ele>
        <time>2019-09-01T06:05:12Z</time>
      </trkpt>
      <trkpt lat="44.6993" lon="5.19115">
        <ele>313</ele>
        <time>2019-09-01T06:05:14Z</time>
      </trkpt>
      <trkpt lat="44.69933" lon="5.19113">
        <ele>313</ele>
        <time>2019-09-01T06:05:16Z</time>
      </trkpt>
      <trkpt lat="44.69936" lon="5.19111">
        <ele>313</ele>
        <time>2019-09-01T06:05:18Z</time>
      </trkpt>
      <trkpt lat="44.69939" lon="5.1911">
        <ele>313</ele>
        <time>2019-09-01T06:05:20Z</time>
      </trkpt>
      <trkpt lat="44.69943" lon="5.19109">
        <ele>313</ele>
        <time>2019-09-01T06:05:22Z</time>
      </trkpt>
      <trkpt lat="44.69946" lon="5.19109">
        <ele>313</ele>
        <time>2019-09-01T06:05:24Z</time>
      </trkpt>
      <trkpt lat="44.69949" lon="5.19108">
        <ele>313</ele>
        <time>2019-09-01T06:05:26Z</time>
      </trkpt>
      <trkpt lat="44.69953" lon="5.19108">
        <ele>314</ele>
        <time>2019-09-01T06:05:28Z</time>
      </trkpt>
      <trkpt lat="44.69956" lon="5.19108">
        <ele>314</ele>
        <time>2019-09-01T06:05:30Z</time>
      </trkpt>
      <trkpt lat="44.6996" lon="5.19107">
        <ele>314</ele>
        <time>2019-09-01T06:05:32Z</time>
      </trkpt>
      <trkpt lat="44.69963" lon="5.19107">
        <ele>314</ele>
        <time>2019-09-01T06:05:34Z</time>
      </trkpt>
      <trkpt lat="44.69966" lon="5.19104">
        <ele>315</ele>
        <time>2019-09-01T06:05:37Z</time>
      </trkpt>
      <trkpt lat="44.69966" lon="5.191">
        <ele>315</ele>
        <time>2019-09-01T06:05:40Z</time>
      </trkpt>
      <trkpt lat="44.69967" lon="5.19096">
        <ele>315</ele>
        <time>2019-09-01T06:05:43Z</time>
      </trkpt>
      <trkpt lat="44.6997" lon="5.19095">
        <ele>315</ele>
        <time>2019-09-01T06:06:34Z</time>
      </trkpt>
      <trkpt lat="44.69968" lon="5.19093">
        <ele>315</ele>
        <time>2019-09-01T06:06:57Z</time>
      </trkpt>
      <trkpt lat="44.69968" lon="5.19089">
        <ele>315</ele>
        <time>2019-09-01T06:11:29Z</time>
      </trkpt>
      <trkpt lat="44.69967" lon="5.19084">
        <ele>315</ele>
        <time>2019-09-01T06:11:33Z</time>
      </trkpt>
      <trkpt lat="44.69966" lon="5.1908">
        <ele>315</ele>
        <time>2019-09-01T06:11:35Z</time>
      </trkpt>
      <trkpt lat="44.69965" lon="5.19076">
        <ele>315</ele>
        <time>2019-09-01T06:11:38Z</time>
      </trkpt>
      <trkpt lat="44.69964" lon="5.1907">
        <ele>315</ele>
        <time>2019-09-01T06:12:09Z</time>
      </trkpt>
      <trkpt lat="44.69963" lon="5.19062">
        <ele>315</ele>
        <time>2019-09-01T06:12:11Z</time>
      </trkpt>
      <trkpt lat="44.69963" lon="5.19058">
        <ele>315</ele>
        <time>2019-09-01T06:12:12Z</time>
      </trkpt>
      <trkpt lat="44.69962" lon="5.19052">
        <ele>315</ele>
        <time>2019-09-01T06:12:13Z</time>
      </trkpt>
      <trkpt lat="44.69962" lon="5.19046">
        <ele>315</ele>
        <time>2019-09-01T06:12:14Z</time>
      </trkpt>
      <trkpt lat="44.69962" lon="5.19039">
        <ele>315</ele>
        <time>2019-09-01T06:12:15Z</time>
      </trkpt>
      <trkpt lat="44.69961" lon="5.19032">
        <ele>315</ele>
        <time>2019-09-01T06:12:16Z</time>
      </trkpt>
      <trkpt lat="44.69962" lon="5.19025">
        <ele>315</ele>
        <time>2019-09-01T06:12:17Z</time>
      </trkpt>
      <trkpt lat="44.69961" lon="5.19017">
        <ele>315</ele>
        <time>2019-09-01T06:12:18Z</time>
      </trkpt>
      <trkpt lat="44.69962" lon="5.19009">
        <ele>315</ele>
        <time>2019-09-01T06:12:19Z</time>
      </trkpt>
      <trkpt lat="44.69961" lon="5.19001">
        <ele>315</ele>
        <time>2019-09-01T06:12:20Z</time>
      </trkpt>
      <trkpt lat="44.69961" lon="5.18992">
        <ele>315</ele>
        <time>2019-09-01T06:12:21Z</time>
      </trkpt>
      <trkpt lat="44.69959" lon="5.18984">
        <ele>315</ele>
        <time>2019-09-01T06:12:22Z</time>
      </trkpt>
      <trkpt lat="44.69958" lon="5.18977">
        <ele>315</ele>
        <time>2019-09-01T06:12:23Z</time>
      </trkpt>
      <trkpt lat="44.69957" lon="5.18969">
        <ele>315</ele>
        <time>2019-09-01T06:12:24Z</time>
      </trkpt>
      <trkpt lat="44.69955" lon="5.18962">
        <ele>315</ele>
        <time>2019-09-01T06:12:25Z</time>
      </trkpt>
      <trkpt lat="44.69953" lon="5.18956">
        <ele>315</ele>
        <time>2019-09-01T06:12:26Z</time>
      </trkpt>
      <trkpt lat="44.69951" lon="5.18949">
        <ele>315</ele>
        <time>2019-09-01T06:12:27Z</time>
      </trkpt>
      <trkpt lat="44.69949" lon="5.18943">
        <ele>315</ele>
        <time>2019-09-01T06:12:28Z</time>
      </trkpt>
      <trkpt lat="44.69947" lon="5.18936">
        <ele>315</ele>
        <time>2019-09-01T06:12:29Z</time>
      </trkpt>
      <trkpt lat="44.69945" lon="5.1893">
        <ele>315</ele>
        <time>2019-09-01T06:12:30Z</time>
      </trkpt>
      <trkpt lat="44.69942" lon="5.18924">
        <ele>315</ele>
        <time>2019-09-01T06:12:31Z</time>
      </trkpt>
      <trkpt lat="44.69941" lon="5.18917">
        <ele>315</ele>
        <time>2019-09-01T06:12:32Z</time>
      </trkpt>
      <trkpt lat="44.69942" lon="5.18911">
        <ele>316</ele>
        <time>2019-09-01T06:12:33Z</time>
      </trkpt>
      <trkpt lat="44.69944" lon="5.18905">
        <ele>316</ele>
        <time>2019-09-01T06:12:34Z</time>
      </trkpt>
      <trkpt lat="44.69948" lon="5.18903">
        <ele>316</ele>
        <time>2019-09-01T06:12:35Z</time>
      </trkpt>
      <trkpt lat="44.69952" lon="5.18902">
        <ele>316</ele>
        <time>2019-09-01T06:12:36Z</time>
      </trkpt>
      <trkpt lat="44.69956" lon="5.18901">
        <ele>316</ele>
        <time>2019-09-01T06:12:37Z</time>
      </trkpt>
      <trkpt lat="44.69958" lon="5.18893">
        <ele>316</ele>
        <time>2019-09-01T06:12:39Z</time>
      </trkpt>
      <trkpt lat="44.69958" lon="5.18887">
        <ele>316</ele>
        <time>2019-09-01T06:12:40Z</time>
      </trkpt>
      <trkpt lat="44.69958" lon="5.1888">
        <ele>316</ele>
        <time>2019-09-01T06:12:41Z</time>
      </trkpt>
      <trkpt lat="44.69959" lon="5.18874">
        <ele>317</ele>
        <time>2019-09-01T06:12:42Z</time>
      </trkpt>
      <trkpt lat="44.69958" lon="5.18869">
        <ele>316</ele>
        <time>2019-09-01T06:12:43Z</time>
      </trkpt>
      <trkpt lat="44.69957" lon="5.18864">
        <ele>316</ele>
        <time>2019-09-01T06:12:44Z</time>
      </trkpt>
      <trkpt lat="44.69957" lon="5.18859">
        <ele>316</ele>
        <time>2019-09-01T06:12:45Z</time>
      </trkpt>
      <trkpt lat="44.69956" lon="5.18855">
        <ele>316</ele>
        <time>2019-09-01T06:12:46Z</time>
      </trkpt>
      <trkpt lat="44.69956" lon="5.18851">
        <ele>316</ele>
        <time>2019-09-01T06:12:47Z</time>
      </trkpt>
      <trkpt lat="44.69955" lon="5.18844">
        <ele>316</ele>
        <time>2019-09-01T06:12:49Z</time>
      </trkpt>
      <trkpt lat="44.69955" lon="5.18838">
        <ele>316</ele>
        <time>2019-09-01T06:12:51Z</time>
      </trkpt>
      <trkpt lat="44.69954" lon="5.18833">
        <ele>316</ele>
        <time>2019-09-01T06:12:53Z</time>
      </trkpt>
      <trkpt lat="44.69954" lon="5.18829">
        <ele>314</ele>
        <time>2019-09-01T06:12:56Z</time>
      </trkpt>
      <trkpt lat="44.69953" lon="5.18823">
        <ele>314</ele>
        <time>2019-09-01T06:12:58Z</time>
      </trkpt>
      <trkpt lat="44.69952" lon="5.18815">
        <ele>314</ele>
        <time>2019-09-01T06:13:00Z</time>
      </trkpt>
      <trkpt lat="44.69952" lon="5.18808">
        <ele>314</ele>
        <time>2019-09-01T06:13:02Z</time>
      </trkpt>
      <trkpt lat="44.69951" lon="5.18804">
        <ele>313</ele>
        <time>2019-09-01T06:13:03Z</time>
      </trkpt>
      <trkpt lat="44.69951" lon="5.18799">
        <ele>313</ele>
        <time>2019-09-01T06:13:04Z</time>
      </trkpt>
      <trkpt lat="44.6995" lon="5.18795">
        <ele>313</ele>
        <time>2019-09-01T06:13:05Z</time>
      </trkpt>
      <trkpt lat="44.6995" lon="5.1879">
        <ele>313</ele>
        <time>2019-09-01T06:13:06Z</time>
      </trkpt>
      <trkpt lat="44.6995" lon="5.18785">
        <ele>313</ele>
        <time>2019-09-01T06:13:07Z</time>
      </trkpt>
      <trkpt lat="44.6995" lon="5.1878">
        <ele>312</ele>
        <time>2019-09-01T06:13:08Z</time>
      </trkpt>
      <trkpt lat="44.69949" lon="5.18775">
        <ele>312</ele>
        <time>2019-09-01T06:13:09Z</time>
      </trkpt>
      <trkpt lat="44.69949" lon="5.1877">
        <ele>312</ele>
        <time>2019-09-01T06:13:10Z</time>
      </trkpt>
      <trkpt lat="44.69948" lon="5.18765">
        <ele>312</ele>
        <time>2019-09-01T06:13:11Z</time>
      </trkpt>
      <trkpt lat="44.69949" lon="5.18759">
        <ele>312</ele>
        <time>2019-09-01T06:13:12Z</time>
      </trkpt>
      <trkpt lat="44.69949" lon="5.18753">
        <ele>312</ele>
        <time>2019-09-01T06:13:13Z</time>
      </trkpt>
      <trkpt lat="44.69952" lon="5.18746">
        <ele>305</ele>
        <time>2019-09-01T06:13:14Z</time>
      </trkpt>
      <trkpt lat="44.69956" lon="5.18742">
        <ele>305</ele>
        <time>2019-09-01T06:13:15Z</time>
      </trkpt>
      <trkpt lat="44.6996" lon="5.18739">
        <ele>305</ele>
        <time>2019-09-01T06:13:16Z</time>
      </trkpt>
      <trkpt lat="44.69964" lon="5.18737">
        <ele>305</ele>
        <time>2019-09-01T06:13:17Z</time>
      </trkpt>
      <trkpt lat="44.69969" lon="5.18738">
        <ele>305</ele>
        <time>2019-09-01T06:13:18Z</time>
      </trkpt>
      <trkpt lat="44.69973" lon="5.18738">
        <ele>305</ele>
        <time>2019-09-01T06:13:19Z</time>
      </trkpt>
      <trkpt lat="44.69978" lon="5.18739">
        <ele>305</ele>
        <time>2019-09-01T06:13:20Z</time>
      </trkpt>
      <trkpt lat="44.69982" lon="5.18739">
        <ele>306</ele>
        <time>2019-09-01T06:13:21Z</time>
      </trkpt>
      <trkpt lat="44.69986" lon="5.18741">
        <ele>306</ele>
        <time>2019-09-01T06:13:22Z</time>
      </trkpt>
      <trkpt lat="44.69989" lon="5.18742">
        <ele>306</ele>
        <time>2019-09-01T06:13:23Z</time>
      </trkpt>
      <trkpt lat="44.69993" lon="5.18744">
        <ele>307</ele>
        <time>2019-09-01T06:13:24Z</time>
      </trkpt>
      <trkpt lat="44.69996" lon="5.18746">
        <ele>308</ele>
        <time>2019-09-01T06:13:25Z</time>
      </trkpt>
      <trkpt lat="44.69999" lon="5.18748">
        <ele>308</ele>
        <time>2019-09-01T06:13:26Z</time>
      </trkpt>
      <trkpt lat="44.70002" lon="5.1875">
        <ele>309</ele>
        <time>2019-09-01T06:13:27Z</time>
      </trkpt>
      <trkpt lat="44.70005" lon="5.18752">
        <ele>309</ele>
        <time>2019-09-01T06:13:28Z</time>
      </trkpt>
      <trkpt lat="44.70008" lon="5.18755">
        <ele>310</ele>
        <time>2019-09-01T06:13:29Z</time>
      </trkpt>
      <trkpt lat="44.70011" lon="5.18757">
        <ele>310</ele>
        <time>2019-09-01T06:13:30Z</time>
      </trkpt>
      <trkpt lat="44.70014" lon="5.18761">
        <ele>310</ele>
        <time>2019-09-01T06:13:31Z</time>
      </trkpt>
      <trkpt lat="44.70015" lon="5.18764">
        <ele>310</ele>
        <time>2019-09-01T06:13:32Z</time>
      </trkpt>
      <trkpt lat="44.70016" lon="5.18769">
        <ele>311</ele>
        <time>2019-09-01T06:13:33Z</time>
      </trkpt>
      <trkpt lat="44.70017" lon="5.18774">
        <ele>311</ele>
        <time>2019-09-01T06:13:34Z</time>
      </trkpt>
      <trkpt lat="44.70018" lon="5.18778">
        <ele>311</ele>
        <time>2019-09-01T06:13:35Z</time>
      </trkpt>
      <trkpt lat="44.70018" lon="5.18782">
        <ele>311</ele>
        <time>2019-09-01T06:13:36Z</time>
      </trkpt>
      <trkpt lat="44.70018" lon="5.1879">
        <ele>312</ele>
        <time>2019-09-01T06:13:38Z</time>
      </trkpt>
      <trkpt lat="44.70018" lon="5.18795">
        <ele>312</ele>
        <time>2019-09-01T06:13:40Z</time>
      </trkpt>
      <trkpt lat="44.70017" lon="5.188">
        <ele>313</ele>
        <time>2019-09-01T06:13:42Z</time>
      </trkpt>
      <trkpt lat="44.70017" lon="5.18804">
        <ele>313</ele>
        <time>2019-09-01T06:13:44Z</time>
      </trkpt>
      <trkpt lat="44.70016" lon="5.18808">
        <ele>313</ele>
        <time>2019-09-01T06:13:46Z</time>
      </trkpt>
      <trkpt lat="44.70016" lon="5.18812">
        <ele>314</ele>
        <time>2019-09-01T06:13:48Z</time>
      </trkpt>
      <trkpt lat="44.70016" lon="5.18816">
        <ele>314</ele>
        <time>2019-09-01T06:13:51Z</time>
      </trkpt>
      <trkpt lat="44.70014" lon="5.18821">
        <ele>315</ele>
        <time>2019-09-01T06:13:59Z</time>
      </trkpt>
      <trkpt lat="44.70012" lon="5.18828">
        <ele>315</ele>
        <time>2019-09-01T06:14:01Z</time>
      </trkpt>
      <trkpt lat="44.70012" lon="5.18832">
        <ele>316</ele>
        <time>2019-09-01T06:14:02Z</time>
      </trkpt>
      <trkpt lat="44.70012" lon="5.18836">
        <ele>318</ele>
        <time>2019-09-01T06:14:03Z</time>
      </trkpt>
      <trkpt lat="44.70013" lon="5.1884">
        <ele>318</ele>
        <time>2019-09-01T06:14:04Z</time>
      </trkpt>
      <trkpt lat="44.70013" lon="5.18845">
        <ele>318</ele>
        <time>2019-09-01T06:14:05Z</time>
      </trkpt>
      <trkpt lat="44.70012" lon="5.18849">
        <ele>318</ele>
        <time>2019-09-01T06:14:06Z</time>
      </trkpt>
      <trkpt lat="44.70012" lon="5.18853">
        <ele>318</ele>
        <time>2019-09-01T06:14:07Z</time>
      </trkpt>
      <trkpt lat="44.70012" lon="5.18858">
        <ele>318</ele>
        <time>2019-09-01T06:14:08Z</time>
      </trkpt>
      <trkpt lat="44.70013" lon="5.18864">
        <ele>318</ele>
        <time>2019-09-01T06:14:09Z</time>
      </trkpt>
      <trkpt lat="44.70013" lon="5.1887">
        <ele>318</ele>
        <time>2019-09-01T06:14:10Z</time>
      </trkpt>
      <trkpt lat="44.70012" lon="5.18876">
        <ele>318</ele>
        <time>2019-09-01T06:14:11Z</time>
      </trkpt>
      <trkpt lat="44.70012" lon="5.18881">
        <ele>318</ele>
        <time>2019-09-01T06:14:12Z</time>
      </trkpt>
      <trkpt lat="44.70012" lon="5.18887">
        <ele>318</ele>
        <time>2019-09-01T06:14:13Z</time>
      </trkpt>
      <trkpt lat="44.70012" lon="5.18893">
        <ele>319</ele>
        <time>2019-09-01T06:14:14Z</time>
      </trkpt>
      <trkpt lat="44.70013" lon="5.18898">
        <ele>319</ele>
        <time>2019-09-01T06:14:15Z</time>
      </trkpt>
      <trkpt lat="44.70013" lon="5.18902">
        <ele>319</ele>
        <time>2019-09-01T06:14:16Z</time>
      </trkpt>
      <trkpt lat="44.70014" lon="5.18907">
        <ele>319</ele>
        <time>2019-09-01T06:14:17Z</time>
      </trkpt>
      <trkpt lat="44.70014" lon="5.18912">
        <ele>319</ele>
        <time>2019-09-01T06:14:18Z</time>
      </trkpt>
      <trkpt lat="44.70014" lon="5.18916">
        <ele>319</ele>
        <time>2019-09-01T06:14:19Z</time>
      </trkpt>
      <trkpt lat="44.70015" lon="5.18921">
        <ele>319</ele>
        <time>2019-09-01T06:14:20Z</time>
      </trkpt>
      <trkpt lat="44.70015" lon="5.18926">
        <ele>319</ele>
        <time>2019-09-01T06:14:21Z</time>
      </trkpt>
      <trkpt lat="44.70016" lon="5.1893">
        <ele>319</ele>
        <time>2019-09-01T06:14:22Z</time>
      </trkpt>
      <trkpt lat="44.70016" lon="5.18935">
        <ele>319</ele>
        <time>2019-09-01T06:14:23Z</time>
      </trkpt>
      <trkpt lat="44.70016" lon="5.1894">
        <ele>319</ele>
        <time>2019-09-01T06:14:24Z</time>
      </trkpt>
      <trkpt lat="44.70016" lon="5.18945">
        <ele>319</ele>
        <time>2019-09-01T06:14:25Z</time>
      </trkpt>
      <trkpt lat="44.70016" lon="5.18951">
        <ele>319</ele>
        <time>2019-09-01T06:14:26Z</time>
      </trkpt>
      <trkpt lat="44.70017" lon="5.18956">
        <ele>319</ele>
        <time>2019-09-01T06:14:27Z</time>
      </trkpt>
      <trkpt lat="44.70017" lon="5.18962">
        <ele>319</ele>
        <time>2019-09-01T06:14:28Z</time>
      </trkpt>
      <trkpt lat="44.70018" lon="5.18967">
        <ele>319</ele>
        <time>2019-09-01T06:14:29Z</time>
      </trkpt>
      <trkpt lat="44.70018" lon="5.18972">
        <ele>319</ele>
        <time>2019-09-01T06:14:30Z</time>
      </trkpt>
      <trkpt lat="44.70019" lon="5.18978">
        <ele>319</ele>
        <time>2019-09-01T06:14:31Z</time>
      </trkpt>
      <trkpt lat="44.70019" lon="5.18984">
        <ele>319</ele>
        <time>2019-09-01T06:14:32Z</time>
      </trkpt>
      <trkpt lat="44.70019" lon="5.18989">
        <ele>319</ele>
        <time>2019-09-01T06:14:33Z</time>
      </trkpt>
      <trkpt lat="44.70019" lon="5.18994">
        <ele>319</ele>
        <time>2019-09-01T06:14:34Z</time>
      </trkpt>
      <trkpt lat="44.7002" lon="5.18999">
        <ele>319</ele>
        <time>2019-09-01T06:14:35Z</time>
      </trkpt>
      <trkpt lat="44.70021" lon="5.19004">
        <ele>319</ele>
        <time>2019-09-01T06:14:36Z</time>
      </trkpt>
      <trkpt lat="44.70022" lon="5.1901">
        <ele>320</ele>
        <time>2019-09-01T06:14:37Z</time>
      </trkpt>
      <trkpt lat="44.70022" lon="5.19015">
        <ele>320</ele>
        <time>2019-09-01T06:14:38Z</time>
      </trkpt>
      <trkpt lat="44.70022" lon="5.19021">
        <ele>320</ele>
        <time>2019-09-01T06:14:39Z</time>
      </trkpt>
      <trkpt lat="44.70022" lon="5.19026">
        <ele>320</ele>
        <time>2019-09-01T06:14:40Z</time>
      </trkpt>
      <trkpt lat="44.70023" lon="5.19031">
        <ele>320</ele>
        <time>2019-09-01T06:14:41Z</time>
      </trkpt>
      <trkpt lat="44.70023" lon="5.19037">
        <ele>320</ele>
        <time>2019-09-01T06:14:42Z</time>
      </trkpt>
      <trkpt lat="44.70024" lon="5.19042">
        <ele>320</ele>
        <time>2019-09-01T06:14:43Z</time>
      </trkpt>
      <trkpt lat="44.70024" lon="5.19047">
        <ele>320</ele>
        <time>2019-09-01T06:14:44Z</time>
      </trkpt>
      <trkpt lat="44.70025" lon="5.19053">
        <ele>320</ele>
        <time>2019-09-01T06:14:45Z</time>
      </trkpt>
      <trkpt lat="44.70026" lon="5.19058">
        <ele>320</ele>
        <time>2019-09-01T06:14:46Z</time>
      </trkpt>
      <trkpt lat="44.70026" lon="5.19063">
        <ele>320</ele>
        <time>2019-09-01T06:14:47Z</time>
      </trkpt>
      <trkpt lat="44.70027" lon="5.19067">
        <ele>320</ele>
        <time>2019-09-01T06:14:48Z</time>
      </trkpt>
      <trkpt lat="44.70027" lon="5.19072">
        <ele>320</ele>
        <time>2019-09-01T06:14:49Z</time>
      </trkpt>
      <trkpt lat="44.70028" lon="5.19076">
        <ele>320</ele>
        <time>2019-09-01T06:14:50Z</time>
      </trkpt>
      <trkpt lat="44.70028" lon="5.19082">
        <ele>320</ele>
        <time>2019-09-01T06:14:52Z</time>
      </trkpt>
      <trkpt lat="44.70029" lon="5.19088">
        <ele>320</ele>
        <time>2019-09-01T06:14:54Z</time>
      </trkpt>
      <trkpt lat="44.7003" lon="5.19092">
        <ele>320</ele>
        <time>2019-09-01T06:14:56Z</time>
      </trkpt>
      <trkpt lat="44.70032" lon="5.19095">
        <ele>320</ele>
        <time>2019-09-01T06:14:58Z</time>
      </trkpt>
      <trkpt lat="44.70037" lon="5.19094">
        <ele>320</ele>
        <time>2019-09-01T06:15:00Z</time>
      </trkpt>
      <trkpt lat="44.70041" lon="5.19093">
        <ele>321</ele>
        <time>2019-09-01T06:15:02Z</time>
      </trkpt>
      <trkpt lat="44.70046" lon="5.19091">
        <ele>321</ele>
        <time>2019-09-01T06:15:04Z</time>
      </trkpt>
      <trkpt lat="44.7005" lon="5.19089">
        <ele>321</ele>
        <time>2019-09-01T06:15:06Z</time>
      </trkpt>
      <trkpt lat="44.70054" lon="5.19088">
        <ele>321</ele>
        <time>2019-09-01T06:15:08Z</time>
      </trkpt>
      <trkpt lat="44.70059" lon="5.19087">
        <ele>321</ele>
        <time>2019-09-01T06:15:10Z</time>
      </trkpt>
      <trkpt lat="44.70063" lon="5.19085">
        <ele>322</ele>
        <time>2019-09-01T06:15:12Z</time>
      </trkpt>
      <trkpt lat="44.70067" lon="5.19083">
        <ele>322</ele>
        <time>2019-09-01T06:15:14Z</time>
      </trkpt>
      <trkpt lat="44.70072" lon="5.19082">
        <ele>322</ele>
        <time>2019-09-01T06:15:16Z</time>
      </trkpt>
      <trkpt lat="44.70077" lon="5.1908">
        <ele>322</ele>
        <time>2019-09-01T06:15:18Z</time>
      </trkpt>
      <trkpt lat="44.70081" lon="5.19077">
        <ele>322</ele>
        <time>2019-09-01T06:15:20Z</time>
      </trkpt>
      <trkpt lat="44.70086" lon="5.19075">
        <ele>324</ele>
        <time>2019-09-01T06:15:22Z</time>
      </trkpt>
      <trkpt lat="44.70091" lon="5.19073">
        <ele>324</ele>
        <time>2019-09-01T06:15:24Z</time>
      </trkpt>
      <trkpt lat="44.70096" lon="5.19071">
        <ele>325</ele>
        <time>2019-09-01T06:15:26Z</time>
      </trkpt>
      <trkpt lat="44.70101" lon="5.19069">
        <ele>325</ele>
        <time>2019-09-01T06:15:28Z</time>
      </trkpt>
      <trkpt lat="44.70106" lon="5.19068">
        <ele>325</ele>
        <time>2019-09-01T06:15:30Z</time>
      </trkpt>
      <trkpt lat="44.7011" lon="5.19066">
        <ele>326</ele>
        <time>2019-09-01T06:15:32Z</time>
      </trkpt>
      <trkpt lat="44.70114" lon="5.19065">
        <ele>326</ele>
        <time>2019-09-01T06:15:34Z</time>
      </trkpt>
      <trkpt lat="44.70118" lon="5.19065">
        <ele>326</ele>
        <time>2019-09-01T06:15:36Z</time>
      </trkpt>
      <trkpt lat="44.70121" lon="5.1907">
        <ele>326</ele>
        <time>2019-09-01T06:15:38Z</time>
      </trkpt>
      <trkpt lat="44.70123" lon="5.19074">
        <ele>327</ele>
        <time>2019-09-01T06:15:39Z</time>
      </trkpt>
      <trkpt lat="44.70125" lon="5.19078">
        <ele>327</ele>
        <time>2019-09-01T06:15:40Z</time>
      </trkpt>
      <trkpt lat="44.70126" lon="5.19083">
        <ele>327</ele>
        <time>2019-09-01T06:15:41Z</time>
      </trkpt>
      <trkpt lat="44.70126" lon="5.19088">
        <ele>326</ele>
        <time>2019-09-01T06:15:42Z</time>
      </trkpt>
      <trkpt lat="44.70127" lon="5.19092">
        <ele>326</ele>
        <time>2019-09-01T06:15:43Z</time>
      </trkpt>
      <trkpt lat="44.70128" lon="5.19096">
        <ele>326</ele>
        <time>2019-09-01T06:15:44Z</time>
      </trkpt>
      <trkpt lat="44.70128" lon="5.191">
        <ele>326</ele>
        <time>2019-09-01T06:15:45Z</time>
      </trkpt>
      <trkpt lat="44.70129" lon="5.19105">
        <ele>326</ele>
        <time>2019-09-01T06:15:46Z</time>
      </trkpt>
      <trkpt lat="44.70129" lon="5.19109">
        <ele>326</ele>
        <time>2019-09-01T06:15:47Z</time>
      </trkpt>
      <trkpt lat="44.7013" lon="5.19117">
        <ele>326</ele>
        <time>2019-09-01T06:15:49Z</time>
      </trkpt>
      <trkpt lat="44.70131" lon="5.1912">
        <ele>326</ele>
        <time>2019-09-01T06:15:50Z</time>
      </trkpt>
      <trkpt lat="44.70132" lon="5.19124">
        <ele>326</ele>
        <time>2019-09-01T06:15:51Z</time>
      </trkpt>
      <trkpt lat="44.70133" lon="5.19129">
        <ele>326</ele>
        <time>2019-09-01T06:15:52Z</time>
      </trkpt>
      <trkpt lat="44.70133" lon="5.19133">
        <ele>326</ele>
        <time>2019-09-01T06:15:53Z</time>
      </trkpt>
      <trkpt lat="44.70134" lon="5.19137">
        <ele>326</ele>
        <time>2019-09-01T06:15:54Z</time>
      </trkpt>
      <trkpt lat="44.70135" lon="5.19141">
        <ele>326</ele>
        <time>2019-09-01T06:15:55Z</time>
      </trkpt>
      <trkpt lat="44.70136" lon="5.19145">
        <ele>326</ele>
        <time>2019-09-01T06:15:56Z</time>
      </trkpt>
      <trkpt lat="44.70136" lon="5.1915">
        <ele>326</ele>
        <time>2019-09-01T06:15:57Z</time>
      </trkpt>
      <trkpt lat="44.70137" lon="5.19155">
        <ele>326</ele>
        <time>2019-09-01T06:15:58Z</time>
      </trkpt>
      <trkpt lat="44.70138" lon="5.1916">
        <ele>326</ele>
        <time>2019-09-01T06:15:59Z</time>
      </trkpt>
      <trkpt lat="44.70139" lon="5.19164">
        <ele>326</ele>
        <time>2019-09-01T06:16:00Z</time>
      </trkpt>
      <trkpt lat="44.7014" lon="5.19168">
        <ele>326</ele>
        <time>2019-09-01T06:16:01Z</time>
      </trkpt>
      <trkpt lat="44.7014" lon="5.19172">
        <ele>326</ele>
        <time>2019-09-01T06:16:02Z</time>
      </trkpt>
      <trkpt lat="44.70141" lon="5.19177">
        <ele>325</ele>
        <time>2019-09-01T06:16:03Z</time>
      </trkpt>
      <trkpt lat="44.70142" lon="5.19182">
        <ele>325</ele>
        <time>2019-09-01T06:16:04Z</time>
      </trkpt>
      <trkpt lat="44.70143" lon="5.19186">
        <ele>325</ele>
        <time>2019-09-01T06:16:05Z</time>
      </trkpt>
      <trkpt lat="44.70144" lon="5.1919">
        <ele>325</ele>
        <time>2019-09-01T06:16:06Z</time>
      </trkpt>
      <trkpt lat="44.70144" lon="5.19194">
        <ele>325</ele>
        <time>2019-09-01T06:16:07Z</time>
      </trkpt>
      <trkpt lat="44.70145" lon="5.19199">
        <ele>325</ele>
        <time>2019-09-01T06:16:08Z</time>
      </trkpt>
      <trkpt lat="44.70146" lon="5.19203">
        <ele>325</ele>
        <time>2019-09-01T06:16:09Z</time>
      </trkpt>
      <trkpt lat="44.70148" lon="5.19207">
        <ele>325</ele>
        <time>2019-09-01T06:16:11Z</time>
      </trkpt>
      <trkpt lat="44.70151" lon="5.19207">
        <ele>325</ele>
        <time>2019-09-01T06:16:13Z</time>
      </trkpt>
      <trkpt lat="44.70156" lon="5.19206">
        <ele>325</ele>
        <time>2019-09-01T06:16:15Z</time>
      </trkpt>
      <trkpt lat="44.7016" lon="5.19202">
        <ele>325</ele>
        <time>2019-09-01T06:16:17Z</time>
      </trkpt>
      <trkpt lat="44.70164" lon="5.192">
        <ele>326</ele>
        <time>2019-09-01T06:16:19Z</time>
      </trkpt>
      <trkpt lat="44.70169" lon="5.19197">
        <ele>329</ele>
        <time>2019-09-01T06:16:21Z</time>
      </trkpt>
      <trkpt lat="44.70173" lon="5.19194">
        <ele>329</ele>
        <time>2019-09-01T06:16:23Z</time>
      </trkpt>
      <trkpt lat="44.70177" lon="5.19191">
        <ele>329</ele>
        <time>2019-09-01T06:16:25Z</time>
      </trkpt>
      <trkpt lat="44.70181" lon="5.19188">
        <ele>329</ele>
        <time>2019-09-01T06:16:27Z</time>
      </trkpt>
      <trkpt lat="44.70185" lon="5.19186">
        <ele>329</ele>
        <time>2019-09-01T06:16:29Z</time>
      </trkpt>
      <trkpt lat="44.70188" lon="5.19183">
        <ele>329</ele>
        <time>2019-09-01T06:16:31Z</time>
      </trkpt>
      <trkpt lat="44.70192" lon="5.19181">
        <ele>329</ele>
        <time>2019-09-01T06:16:33Z</time>
      </trkpt>
      <trkpt lat="44.70195" lon="5.19178">
        <ele>329</ele>
        <time>2019-09-01T06:16:35Z</time>
      </trkpt>
      <trkpt lat="44.70199" lon="5.19175">
        <ele>329</ele>
        <time>2019-09-01T06:16:37Z</time>
      </trkpt>
      <trkpt lat="44.70203" lon="5.19173">
        <ele>330</ele>
        <time>2019-09-01T06:16:39Z</time>
      </trkpt>
      <trkpt lat="44.70207" lon="5.19172">
        <ele>330</ele>
        <time>2019-09-01T06:16:41Z</time>
      </trkpt>
      <trkpt lat="44.7021" lon="5.1917">
        <ele>330</ele>
        <time>2019-09-01T06:16:43Z</time>
      </trkpt>
      <trkpt lat="44.70213" lon="5.19167">
        <ele>330</ele>
        <time>2019-09-01T06:16:45Z</time>
      </trkpt>
      <trkpt lat="44.70217" lon="5.19165">
        <ele>333</ele>
        <time>2019-09-01T06:16:47Z</time>
      </trkpt>
      <trkpt lat="44.7022" lon="5.19163">
        <ele>333</ele>
        <time>2019-09-01T06:16:49Z</time>
      </trkpt>
      <trkpt lat="44.70223" lon="5.19161">
        <ele>333</ele>
        <time>2019-09-01T06:16:51Z</time>
      </trkpt>
      <trkpt lat="44.70227" lon="5.19159">
        <ele>333</ele>
        <time>2019-09-01T06:16:53Z</time>
      </trkpt>
      <trkpt lat="44.7023" lon="5.19157">
        <ele>334</ele>
        <time>2019-09-01T06:16:55Z</time>
      </trkpt>
      <trkpt lat="44.70233" lon="5.19155">
        <ele>334</ele>
        <time>2019-09-01T06:16:57Z</time>
      </trkpt>
      <trkpt lat="44.70237" lon="5.19153">
        <ele>334</ele>
        <time>2019-09-01T06:16:59Z</time>
      </trkpt>
      <trkpt lat="44.7024" lon="5.19151">
        <ele>334</ele>
        <time>2019-09-01T06:17:01Z</time>
      </trkpt>
      <trkpt lat="44.70243" lon="5.19149">
        <ele>334</ele>
        <time>2019-09-01T06:17:03Z</time>
      </trkpt>
      <trkpt lat="44.70247" lon="5.19149">
        <ele>334</ele>
        <time>2019-09-01T06:17:05Z</time>
      </trkpt>
      <trkpt lat="44.7025" lon="5.19149">
        <ele>334</ele>
        <time>2019-09-01T06:17:07Z</time>
      </trkpt>
      <trkpt lat="44.70253" lon="5.19147">
        <ele>336</ele>
        <time>2019-09-01T06:17:09Z</time>
      </trkpt>
      <trkpt lat="44.70256" lon="5.19146">
        <ele>336</ele>
        <time>2019-09-01T06:17:11Z</time>
      </trkpt>
      <trkpt lat="44.7026" lon="5.19146">
        <ele>336</ele>
        <time>2019-09-01T06:17:13Z</time>
      </trkpt>
      <trkpt lat="44.70263" lon="5.19145">
        <ele>336</ele>
        <time>2019-09-01T06:17:15Z</time>
      </trkpt>
      <trkpt lat="44.70266" lon="5.19144">
        <ele>336</ele>
        <time>2019-09-01T06:17:17Z</time>
      </trkpt>
      <trkpt lat="44.7027" lon="5.19143">
        <ele>336</ele>
        <time>2019-09-01T06:17:19Z</time>
      </trkpt>
      <trkpt lat="44.70273" lon="5.19142">
        <ele>336</ele>
        <time>2019-09-01T06:17:21Z</time>
      </trkpt>
      <trkpt lat="44.70277" lon="5.19141">
        <ele>336</ele>
        <time>2019-09-01T06:17:23Z</time>
      </trkpt>
      <trkpt lat="44.7028" lon="5.1914">
        <ele>336</ele>
        <time>2019-09-01T06:17:25Z</time>
      </trkpt>
      <trkpt lat="44.70283" lon="5.19139">
        <ele>336</ele>
        <time>2019-09-01T06:17:27Z</time>
      </trkpt>
      <trkpt lat="44.70287" lon="5.19137">
        <ele>336</ele>
        <time>2019-09-01T06:17:29Z</time>
      </trkpt>
      <trkpt lat="44.7029" lon="5.19135">
        <ele>336</ele>
        <time>2019-09-01T06:17:31Z</time>
      </trkpt>
      <trkpt lat="44.70293" lon="5.19133">
        <ele>336</ele>
        <time>2019-09-01T06:17:33Z</time>
      </trkpt>
      <trkpt lat="44.70296" lon="5.1913">
        <ele>337</ele>
        <time>2019-09-01T06:17:35Z</time>
      </trkpt>
      <trkpt lat="44.70299" lon="5.19128">
        <ele>337</ele>
        <time>2019-09-01T06:17:37Z</time>
      </trkpt>
      <trkpt lat="44.70303" lon="5.19127">
        <ele>337</ele>
        <time>2019-09-01T06:17:39Z</time>
      </trkpt>
      <trkpt lat="44.70305" lon="5.19124">
        <ele>337</ele>
        <time>2019-09-01T06:17:41Z</time>
      </trkpt>
      <trkpt lat="44.70308" lon="5.19121">
        <ele>337</ele>
        <time>2019-09-01T06:17:43Z</time>
      </trkpt>
      <trkpt lat="44.70311" lon="5.19118">
        <ele>338</ele>
        <time>2019-09-01T06:17:45Z</time>
      </trkpt>
      <trkpt lat="44.70314" lon="5.19114">
        <ele>338</ele>
        <time>2019-09-01T06:17:47Z</time>
      </trkpt>
      <trkpt lat="44.70316" lon="5.19111">
        <ele>339</ele>
        <time>2019-09-01T06:17:49Z</time>
      </trkpt>
      <trkpt lat="44.70318" lon="5.19107">
        <ele>339</ele>
        <time>2019-09-01T06:17:51Z</time>
      </trkpt>
      <trkpt lat="44.70321" lon="5.19104">
        <ele>340</ele>
        <time>2019-09-01T06:17:53Z</time>
      </trkpt>
      <trkpt lat="44.70323" lon="5.191">
        <ele>341</ele>
        <time>2019-09-01T06:17:55Z</time>
      </trkpt>
      <trkpt lat="44.70327" lon="5.19097">
        <ele>342</ele>
        <time>2019-09-01T06:17:57Z</time>
      </trkpt>
      <trkpt lat="44.7033" lon="5.19094">
        <ele>343</ele>
        <time>2019-09-01T06:17:59Z</time>
      </trkpt>
      <trkpt lat="44.70333" lon="5.19091">
        <ele>344</ele>
        <time>2019-09-01T06:18:01Z</time>
      </trkpt>
      <trkpt lat="44.70336" lon="5.19087">
        <ele>344</ele>
        <time>2019-09-01T06:18:03Z</time>
      </trkpt>
      <trkpt lat="44.70339" lon="5.19084">
        <ele>344</ele>
        <time>2019-09-01T06:18:05Z</time>
      </trkpt>
      <trkpt lat="44.70342" lon="5.19082">
        <ele>347</ele>
        <time>2019-09-01T06:18:07Z</time>
      </trkpt>
      <trkpt lat="44.70345" lon="5.19078">
        <ele>348</ele>
        <time>2019-09-01T06:18:09Z</time>
      </trkpt>
      <trkpt lat="44.70348" lon="5.19075">
        <ele>348</ele>
        <time>2019-09-01T06:18:11Z</time>
      </trkpt>
      <trkpt lat="44.70351" lon="5.19072">
        <ele>348</ele>
        <time>2019-09-01T06:18:13Z</time>
      </trkpt>
      <trkpt lat="44.70354" lon="5.19069">
        <ele>349</ele>
        <time>2019-09-01T06:18:15Z</time>
      </trkpt>
      <trkpt lat="44.70356" lon="5.19066">
        <ele>349</ele>
        <time>2019-09-01T06:18:17Z</time>
      </trkpt>
      <trkpt lat="44.7036" lon="5.19063">
        <ele>349</ele>
        <time>2019-09-01T06:18:19Z</time>
      </trkpt>
      <trkpt lat="44.70363" lon="5.19061">
        <ele>349</ele>
        <time>2019-09-01T06:18:21Z</time>
      </trkpt>
      <trkpt lat="44.70366" lon="5.19058">
        <ele>350</ele>
        <time>2019-09-01T06:18:23Z</time>
      </trkpt>
      <trkpt lat="44.70369" lon="5.19055">
        <ele>350</ele>
        <time>2019-09-01T06:18:25Z</time>
      </trkpt>
      <trkpt lat="44.70372" lon="5.19052">
        <ele>350</ele>
        <time>2019-09-01T06:18:27Z</time>
      </trkpt>
      <trkpt lat="44.70375" lon="5.1905">
        <ele>350</ele>
        <time>2019-09-01T06:18:29Z</time>
      </trkpt>
      <trkpt lat="44.70378" lon="5.19047">
        <ele>350</ele>
        <time>2019-09-01T06:18:31Z</time>
      </trkpt>
      <trkpt lat="44.70381" lon="5.19045">
        <ele>350</ele>
        <time>2019-09-01T06:18:33Z</time>
      </trkpt>
      <trkpt lat="44.70384" lon="5.19042">
        <ele>350</ele>
        <time>2019-09-01T06:18:35Z</time>
      </trkpt>
      <trkpt lat="44.70387" lon="5.19039">
        <ele>351</ele>
        <time>2019-09-01T06:18:37Z</time>
      </trkpt>
      <trkpt lat="44.7039" lon="5.19037">
        <ele>351</ele>
        <time>2019-09-01T06:18:39Z</time>
      </trkpt>
      <trkpt lat="44.70393" lon="5.19034">
        <ele>351</ele>
        <time>2019-09-01T06:18:41Z</time>
      </trkpt>
      <trkpt lat="44.70395" lon="5.19031">
        <ele>351</ele>
        <time>2019-09-01T06:18:43Z</time>
      </trkpt>
      <trkpt lat="44.70398" lon="5.19028">
        <ele>352</ele>
        <time>2019-09-01T06:18:45Z</time>
      </trkpt>
      <trkpt lat="44.70401" lon="5.19025">
        <ele>352</ele>
        <time>2019-09-01T06:18:47Z</time>
      </trkpt>
      <trkpt lat="44.70404" lon="5.19022">
        <ele>352</ele>
        <time>2019-09-01T06:18:49Z</time>
      </trkpt>
      <trkpt lat="44.70406" lon="5.1902">
        <ele>353</ele>
        <time>2019-09-01T06:18:51Z</time>
      </trkpt>
      <trkpt lat="44.70409" lon="5.19016">
        <ele>353</ele>
        <time>2019-09-01T06:18:53Z</time>
      </trkpt>
      <trkpt lat="44.70412" lon="5.19014">
        <ele>354</ele>
        <time>2019-09-01T06:18:55Z</time>
      </trkpt>
      <trkpt lat="44.70414" lon="5.1901">
        <ele>354</ele>
        <time>2019-09-01T06:18:57Z</time>
      </trkpt>
      <trkpt lat="44.70418" lon="5.19007">
        <ele>353</ele>
        <time>2019-09-01T06:18:59Z</time>
      </trkpt>
      <trkpt lat="44.7042" lon="5.19004">
        <ele>354</ele>
        <time>2019-09-01T06:19:01Z</time>
      </trkpt>
      <trkpt lat="44.70423" lon="5.19001">
        <ele>353</ele>
        <time>2019-09-01T06:19:03Z</time>
      </trkpt>
      <trkpt lat="44.70426" lon="5.18998">
        <ele>356</ele>
        <time>2019-09-01T06:19:05Z</time>
      </trkpt>
      <trkpt lat="44.70429" lon="5.18996">
        <ele>356</ele>
        <time>2019-09-01T06:19:07Z</time>
      </trkpt>
      <trkpt lat="44.70432" lon="5.18995">
        <ele>356</ele>
        <time>2019-09-01T06:19:09Z</time>
      </trkpt>
      <trkpt lat="44.70435" lon="5.18993">
        <ele>356</ele>
        <time>2019-09-01T06:19:11Z</time>
      </trkpt>
      <trkpt lat="44.70438" lon="5.1899">
        <ele>355</ele>
        <time>2019-09-01T06:19:14Z</time>
      </trkpt>
      <trkpt lat="44.70441" lon="5.18988">
        <ele>355</ele>
        <time>2019-09-01T06:19:16Z</time>
      </trkpt>
      <trkpt lat="44.70445" lon="5.18986">
        <ele>355</ele>
        <time>2019-09-01T06:19:18Z</time>
      </trkpt>
      <trkpt lat="44.70448" lon="5.18986">
        <ele>355</ele>
        <time>2019-09-01T06:19:20Z</time>
      </trkpt>
      <trkpt lat="44.7045" lon="5.18983">
        <ele>355</ele>
        <time>2019-09-01T06:19:22Z</time>
      </trkpt>
      <trkpt lat="44.70452" lon="5.18981">
        <ele>355</ele>
        <time>2019-09-01T06:19:24Z</time>
      </trkpt>
      <trkpt lat="44.70455" lon="5.18978">
        <ele>355</ele>
        <time>2019-09-01T06:19:26Z</time>
      </trkpt>
      <trkpt lat="44.70457" lon="5.18975">
        <ele>355</ele>
        <time>2019-09-01T06:19:28Z</time>
      </trkpt>
      <trkpt lat="44.70461" lon="5.18972">
        <ele>355</ele>
        <time>2019-09-01T06:19:30Z</time>
      </trkpt>
      <trkpt lat="44.70463" lon="5.18969">
        <ele>355</ele>
        <time>2019-09-01T06:19:32Z</time>
      </trkpt>
      <trkpt lat="44.70466" lon="5.18966">
        <ele>355</ele>
        <time>2019-09-01T06:19:34Z</time>
      </trkpt>
      <trkpt lat="44.70469" lon="5.18963">
        <ele>355</ele>
        <time>2019-09-01T06:19:36Z</time>
      </trkpt>
      <trkpt lat="44.70472" lon="5.1896">
        <ele>355</ele>
        <time>2019-09-01T06:19:38Z</time>
      </trkpt>
      <trkpt lat="44.70475" lon="5.18957">
        <ele>355</ele>
        <time>2019-09-01T06:19:40Z</time>
      </trkpt>
      <trkpt lat="44.70478" lon="5.18953">
        <ele>355</ele>
        <time>2019-09-01T06:19:42Z</time>
      </trkpt>
      <trkpt lat="44.70481" lon="5.1895">
        <ele>355</ele>
        <time>2019-09-01T06:19:44Z</time>
      </trkpt>
      <trkpt lat="44.70483" lon="5.18947">
        <ele>356</ele>
        <time>2019-09-01T06:19:46Z</time>
      </trkpt>
      <trkpt lat="44.70486" lon="5.18944">
        <ele>356</ele>
        <time>2019-09-01T06:19:48Z</time>
      </trkpt>
      <trkpt lat="44.70489" lon="5.18941">
        <ele>356</ele>
        <time>2019-09-01T06:19:50Z</time>
      </trkpt>
      <trkpt lat="44.70492" lon="5.18938">
        <ele>356</ele>
        <time>2019-09-01T06:19:52Z</time>
      </trkpt>
      <trkpt lat="44.70495" lon="5.18935">
        <ele>356</ele>
        <time>2019-09-01T06:19:54Z</time>
      </trkpt>
      <trkpt lat="44.70498" lon="5.18931">
        <ele>357</ele>
        <time>2019-09-01T06:19:56Z</time>
      </trkpt>
      <trkpt lat="44.70501" lon="5.18927">
        <ele>356</ele>
        <time>2019-09-01T06:19:58Z</time>
      </trkpt>
      <trkpt lat="44.70504" lon="5.18924">
        <ele>357</ele>
        <time>2019-09-01T06:20:00Z</time>
      </trkpt>
      <trkpt lat="44.70507" lon="5.1892">
        <ele>357</ele>
        <time>2019-09-01T06:20:02Z</time>
      </trkpt>
      <trkpt lat="44.70509" lon="5.18917">
        <ele>357</ele>
        <time>2019-09-01T06:20:04Z</time>
      </trkpt>
      <trkpt lat="44.70512" lon="5.18914">
        <ele>358</ele>
        <time>2019-09-01T06:20:06Z</time>
      </trkpt>
      <trkpt lat="44.70515" lon="5.18909">
        <ele>358</ele>
        <time>2019-09-01T06:20:09Z</time>
      </trkpt>
      <trkpt lat="44.70517" lon="5.18906">
        <ele>358</ele>
        <time>2019-09-01T06:20:11Z</time>
      </trkpt>
      <trkpt lat="44.7052" lon="5.18903">
        <ele>358</ele>
        <time>2019-09-01T06:20:13Z</time>
      </trkpt>
      <trkpt lat="44.70523" lon="5.189">
        <ele>358</ele>
        <time>2019-09-01T06:20:15Z</time>
      </trkpt>
      <trkpt lat="44.70525" lon="5.18896">
        <ele>358</ele>
        <time>2019-09-01T06:20:17Z</time>
      </trkpt>
      <trkpt lat="44.70528" lon="5.18893">
        <ele>358</ele>
        <time>2019-09-01T06:20:19Z</time>
      </trkpt>
      <trkpt lat="44.70531" lon="5.1889">
        <ele>358</ele>
        <time>2019-09-01T06:20:21Z</time>
      </trkpt>
      <trkpt lat="44.70533" lon="5.18886">
        <ele>358</ele>
        <time>2019-09-01T06:20:23Z</time>
      </trkpt>
      <trkpt lat="44.70536" lon="5.18883">
        <ele>358</ele>
        <time>2019-09-01T06:20:25Z</time>
      </trkpt>
      <trkpt lat="44.7054" lon="5.1888">
        <ele>358</ele>
        <time>2019-09-01T06:20:27Z</time>
      </trkpt>
      <trkpt lat="44.70543" lon="5.18877">
        <ele>358</ele>
        <time>2019-09-01T06:20:29Z</time>
      </trkpt>
      <trkpt lat="44.70547" lon="5.18874">
        <ele>358</ele>
        <time>2019-09-01T06:20:31Z</time>
      </trkpt>
      <trkpt lat="44.7055" lon="5.18872">
        <ele>358</ele>
        <time>2019-09-01T06:20:33Z</time>
      </trkpt>
      <trkpt lat="44.70554" lon="5.18869">
        <ele>359</ele>
        <time>2019-09-01T06:20:35Z</time>
      </trkpt>
      <trkpt lat="44.70558" lon="5.18867">
        <ele>359</ele>
        <time>2019-09-01T06:20:37Z</time>
      </trkpt>
      <trkpt lat="44.70563" lon="5.18865">
        <ele>359</ele>
        <time>2019-09-01T06:20:39Z</time>
      </trkpt>
      <trkpt lat="44.70567" lon="5.18863">
        <ele>360</ele>
        <time>2019-09-01T06:20:41Z</time>
      </trkpt>
      <trkpt lat="44.70571" lon="5.18861">
        <ele>360</ele>
        <time>2019-09-01T06:20:43Z</time>
      </trkpt>
      <trkpt lat="44.70575" lon="5.18859">
        <ele>360</ele>
        <time>2019-09-01T06:20:45Z</time>
      </trkpt>
      <trkpt lat="44.70579" lon="5.18856">
        <ele>361</ele>
        <time>2019-09-01T06:20:47Z</time>
      </trkpt>
      <trkpt lat="44.70583" lon="5.18854">
        <ele>361</ele>
        <time>2019-09-01T06:20:49Z</time>
      </trkpt>
      <trkpt lat="44.70587" lon="5.1885">
        <ele>364</ele>
        <time>2019-09-01T06:20:51Z</time>
      </trkpt>
      <trkpt lat="44.70591" lon="5.18848">
        <ele>364</ele>
        <time>2019-09-01T06:20:53Z</time>
      </trkpt>
      <trkpt lat="44.70595" lon="5.18845">
        <ele>364</ele>
        <time>2019-09-01T06:20:55Z</time>
      </trkpt>
      <trkpt lat="44.70599" lon="5.18843">
        <ele>364</ele>
        <time>2019-09-01T06:20:57Z</time>
      </trkpt>
      <trkpt lat="44.70603" lon="5.1884">
        <ele>364</ele>
        <time>2019-09-01T06:20:59Z</time>
      </trkpt>
      <trkpt lat="44.70607" lon="5.18838">
        <ele>364</ele>
        <time>2019-09-01T06:21:01Z</time>
      </trkpt>
      <trkpt lat="44.70611" lon="5.18835">
        <ele>365</ele>
        <time>2019-09-01T06:21:03Z</time>
      </trkpt>
      <trkpt lat="44.70615" lon="5.18832">
        <ele>365</ele>
        <time>2019-09-01T06:21:05Z</time>
      </trkpt>
      <trkpt lat="44.70619" lon="5.1883">
        <ele>366</ele>
        <time>2019-09-01T06:21:07Z</time>
      </trkpt>
      <trkpt lat="44.70622" lon="5.18827">
        <ele>366</ele>
        <time>2019-09-01T06:21:09Z</time>
      </trkpt>
      <trkpt lat="44.70626" lon="5.18825">
        <ele>366</ele>
        <time>2019-09-01T06:21:11Z</time>
      </trkpt>
      <trkpt lat="44.7063" lon="5.18822">
        <ele>366</ele>
        <time>2019-09-01T06:21:13Z</time>
      </trkpt>
      <trkpt lat="44.70634" lon="5.1882">
        <ele>366</ele>
        <time>2019-09-01T06:21:15Z</time>
      </trkpt>
      <trkpt lat="44.70638" lon="5.18817">
        <ele>366</ele>
        <time>2019-09-01T06:21:17Z</time>
      </trkpt>
      <trkpt lat="44.70642" lon="5.18815">
        <ele>367</ele>
        <time>2019-09-01T06:21:19Z</time>
      </trkpt>
      <trkpt lat="44.70645" lon="5.18812">
        <ele>367</ele>
        <time>2019-09-01T06:21:21Z</time>
      </trkpt>
      <trkpt lat="44.70649" lon="5.1881">
        <ele>367</ele>
        <time>2019-09-01T06:21:23Z</time>
      </trkpt>
      <trkpt lat="44.70653" lon="5.18807">
        <ele>367</ele>
        <time>2019-09-01T06:21:25Z</time>
      </trkpt>
      <trkpt lat="44.70656" lon="5.18805">
        <ele>367</ele>
        <time>2019-09-01T06:21:27Z</time>
      </trkpt>
      <trkpt lat="44.70661" lon="5.18802">
        <ele>367</ele>
        <time>2019-09-01T06:21:29Z</time>
      </trkpt>
      <trkpt lat="44.70664" lon="5.188">
        <ele>367</ele>
        <time>2019-09-01T06:21:31Z</time>
      </trkpt>
      <trkpt lat="44.70668" lon="5.18797">
        <ele>374</ele>
        <time>2019-09-01T06:21:33Z</time>
      </trkpt>
      <trkpt lat="44.70672" lon="5.18795">
        <ele>374</ele>
        <time>2019-09-01T06:21:35Z</time>
      </trkpt>
      <trkpt lat="44.70675" lon="5.18792">
        <ele>374</ele>
        <time>2019-09-01T06:21:37Z</time>
      </trkpt>
      <trkpt lat="44.70678" lon="5.1879">
        <ele>374</ele>
        <time>2019-09-01T06:21:39Z</time>
      </trkpt>
      <trkpt lat="44.70682" lon="5.18788">
        <ele>374</ele>
        <time>2019-09-01T06:21:41Z</time>
      </trkpt>
      <trkpt lat="44.70685" lon="5.18786">
        <ele>375</ele>
        <time>2019-09-01T06:21:43Z</time>
      </trkpt>
      <trkpt lat="44.70689" lon="5.18785">
        <ele>375</ele>
        <time>2019-09-01T06:21:45Z</time>
      </trkpt>
      <trkpt lat="44.70693" lon="5.18784">
        <ele>375</ele>
        <time>2019-09-01T06:21:47Z</time>
      </trkpt>
      <trkpt lat="44.70698" lon="5.18783">
        <ele>376</ele>
        <time>2019-09-01T06:21:49Z</time>
      </trkpt>
      <trkpt lat="44.70701" lon="5.18783">
        <ele>376</ele>
        <time>2019-09-01T06:21:51Z</time>
      </trkpt>
      <trkpt lat="44.70705" lon="5.18782">
        <ele>376</ele>
        <time>2019-09-01T06:21:53Z</time>
      </trkpt>
      <trkpt lat="44.70709" lon="5.18782">
        <ele>376</ele>
        <time>2019-09-01T06:21:55Z</time>
      </trkpt>
      <trkpt lat="44.70712" lon="5.18782">
        <ele>377</ele>
        <time>2019-09-01T06:21:57Z</time>
      </trkpt>
      <trkpt lat="44.70716" lon="5.18782">
        <ele>377</ele>
        <time>2019-09-01T06:21:59Z</time>
      </trkpt>
      <trkpt lat="44.70719" lon="5.1878">
        <ele>377</ele>
        <time>2019-09-01T06:22:01Z</time>
      </trkpt>
      <trkpt lat="44.70723" lon="5.1878">
        <ele>378</ele>
        <time>2019-09-01T06:22:03Z</time>
      </trkpt>
      <trkpt lat="44.70726" lon="5.1878">
        <ele>378</ele>
        <time>2019-09-01T06:22:05Z</time>
      </trkpt>
      <trkpt lat="44.7073" lon="5.18781">
        <ele>378</ele>
        <time>2019-09-01T06:22:07Z</time>
      </trkpt>
      <trkpt lat="44.70734" lon="5.18781">
        <ele>378</ele>
        <time>2019-09-01T06:22:09Z</time>
      </trkpt>
      <trkpt lat="44.70737" lon="5.18782">
        <ele>379</ele>
        <time>2019-09-01T06:22:11Z</time>
      </trkpt>
      <trkpt lat="44.70741" lon="5.18782">
        <ele>379</ele>
        <time>2019-09-01T06:22:13Z</time>
      </trkpt>
      <trkpt lat="44.70745" lon="5.18782">
        <ele>379</ele>
        <time>2019-09-01T06:22:15Z</time>
      </trkpt>
      <trkpt lat="44.70749" lon="5.18782">
        <ele>379</ele>
        <time>2019-09-01T06:22:17Z</time>
      </trkpt>
      <trkpt lat="44.70753" lon="5.18782">
        <ele>388</ele>
        <time>2019-09-01T06:22:19Z</time>
      </trkpt>
      <trkpt lat="44.70757" lon="5.18782">
        <ele>388</ele>
        <time>2019-09-01T06:22:21Z</time>
      </trkpt>
      <trkpt lat="44.70761" lon="5.18782">
        <ele>388</ele>
        <time>2019-09-01T06:22:23Z</time>
      </trkpt>
      <trkpt lat="44.70765" lon="5.18783">
        <ele>388</ele>
        <time>2019-09-01T06:22:25Z</time>
      </trkpt>
      <trkpt lat="44.70769" lon="5.18783">
        <ele>389</ele>
        <time>2019-09-01T06:22:28Z</time>
      </trkpt>
      <trkpt lat="44.70773" lon="5.18783">
        <ele>389</ele>
        <time>2019-09-01T06:22:30Z</time>
      </trkpt>
      <trkpt lat="44.70777" lon="5.18784">
        <ele>389</ele>
        <time>2019-09-01T06:22:32Z</time>
      </trkpt>
      <trkpt lat="44.70781" lon="5.18783">
        <ele>389</ele>
        <time>2019-09-01T06:22:34Z</time>
      </trkpt>
      <trkpt lat="44.70785" lon="5.18784">
        <ele>390</ele>
        <time>2019-09-01T06:22:36Z</time>
      </trkpt>
      <trkpt lat="44.70789" lon="5.18784">
        <ele>390</ele>
        <time>2019-09-01T06:22:38Z</time>
      </trkpt>
      <trkpt lat="44.70792" lon="5.18784">
        <ele>391</ele>
        <time>2019-09-01T06:22:40Z</time>
      </trkpt>
      <trkpt lat="44.70795" lon="5.18785">
        <ele>391</ele>
        <time>2019-09-01T06:22:42Z</time>
      </trkpt>
      <trkpt lat="44.70799" lon="5.18786">
        <ele>391</ele>
        <time>2019-09-01T06:22:44Z</time>
      </trkpt>
      <trkpt lat="44.70803" lon="5.18787">
        <ele>391</ele>
        <time>2019-09-01T06:22:46Z</time>
      </trkpt>
      <trkpt lat="44.70806" lon="5.18788">
        <ele>392</ele>
        <time>2019-09-01T06:22:48Z</time>
      </trkpt>
      <trkpt lat="44.7081" lon="5.18791">
        <ele>392</ele>
        <time>2019-09-01T06:22:50Z</time>
      </trkpt>
      <trkpt lat="44.70814" lon="5.18792">
        <ele>392</ele>
        <time>2019-09-01T06:22:52Z</time>
      </trkpt>
      <trkpt lat="44.70818" lon="5.18794">
        <ele>392</ele>
        <time>2019-09-01T06:22:54Z</time>
      </trkpt>
      <trkpt lat="44.70822" lon="5.18796">
        <ele>393</ele>
        <time>2019-09-01T06:22:56Z</time>
      </trkpt>
      <trkpt lat="44.70825" lon="5.18799">
        <ele>393</ele>
        <time>2019-09-01T06:22:58Z</time>
      </trkpt>
      <trkpt lat="44.70829" lon="5.18801">
        <ele>393</ele>
        <time>2019-09-01T06:23:00Z</time>
      </trkpt>
      <trkpt lat="44.70833" lon="5.18803">
        <ele>393</ele>
        <time>2019-09-01T06:23:02Z</time>
      </trkpt>
      <trkpt lat="44.70836" lon="5.18806">
        <ele>397</ele>
        <time>2019-09-01T06:23:04Z</time>
      </trkpt>
      <trkpt lat="44.7084" lon="5.18807">
        <ele>397</ele>
        <time>2019-09-01T06:23:06Z</time>
      </trkpt>
      <trkpt lat="44.70843" lon="5.18808">
        <ele>397</ele>
        <time>2019-09-01T06:23:08Z</time>
      </trkpt>
      <trkpt lat="44.70847" lon="5.18809">
        <ele>397</ele>
        <time>2019-09-01T06:23:10Z</time>
      </trkpt>
      <trkpt lat="44.70849" lon="5.1881">
        <ele>396</ele>
        <time>2019-09-01T06:23:12Z</time>
      </trkpt>
      <trkpt lat="44.70853" lon="5.18811">
        <ele>396</ele>
        <time>2019-09-01T06:23:14Z</time>
      </trkpt>
      <trkpt lat="44.70856" lon="5.18813">
        <ele>396</ele>
        <time>2019-09-01T06:23:16Z</time>
      </trkpt>
      <trkpt lat="44.70859" lon="5.18814">
        <ele>396</ele>
        <time>2019-09-01T06:23:18Z</time>
      </trkpt>
      <trkpt lat="44.70862" lon="5.18814">
        <ele>396</ele>
        <time>2019-09-01T06:23:20Z</time>
      </trkpt>
      <trkpt lat="44.70866" lon="5.18813">
        <ele>396</ele>
        <time>2019-09-01T06:23:22Z</time>
      </trkpt>
      <trkpt lat="44.70869" lon="5.18811">
        <ele>396</ele>
        <time>2019-09-01T06:23:24Z</time>
      </trkpt>
      <trkpt lat="44.70872" lon="5.18808">
        <ele>396</ele>
        <time>2019-09-01T06:23:26Z</time>
      </trkpt>
      <trkpt lat="44.70876" lon="5.18805">
        <ele>396</ele>
        <time>2019-09-01T06:23:28Z</time>
      </trkpt>
      <trkpt lat="44.7088" lon="5.18802">
        <ele>396</ele>
        <time>2019-09-01T06:23:30Z</time>
      </trkpt>
      <trkpt lat="44.70884" lon="5.18799">
        <ele>396</ele>
        <time>2019-09-01T06:23:32Z</time>
      </trkpt>
      <trkpt lat="44.70887" lon="5.18796">
        <ele>396</ele>
        <time>2019-09-01T06:23:34Z</time>
      </trkpt>
      <trkpt lat="44.70892" lon="5.18792">
        <ele>396</ele>
        <time>2019-09-01T06:23:36Z</time>
      </trkpt>
      <trkpt lat="44.70894" lon="5.1879">
        <ele>397</ele>
        <time>2019-09-01T06:23:37Z</time>
      </trkpt>
      <trkpt lat="44.70896" lon="5.18787">
        <ele>397</ele>
        <time>2019-09-01T06:23:38Z</time>
      </trkpt>
      <trkpt lat="44.70898" lon="5.18784">
        <ele>397</ele>
        <time>2019-09-01T06:23:39Z</time>
      </trkpt>
      <trkpt lat="44.709" lon="5.18781">
        <ele>397</ele>
        <time>2019-09-01T06:23:40Z</time>
      </trkpt>
      <trkpt lat="44.70902" lon="5.18778">
        <ele>397</ele>
        <time>2019-09-01T06:23:41Z</time>
      </trkpt>
      <trkpt lat="44.70906" lon="5.18773">
        <ele>398</ele>
        <time>2019-09-01T06:23:43Z</time>
      </trkpt>
      <trkpt lat="44.70909" lon="5.1877">
        <ele>398</ele>
        <time>2019-09-01T06:23:44Z</time>
      </trkpt>
      <trkpt lat="44.70912" lon="5.18765">
        <ele>399</ele>
        <time>2019-09-01T06:23:46Z</time>
      </trkpt>
      <trkpt lat="44.70915" lon="5.18762">
        <ele>399</ele>
        <time>2019-09-01T06:23:47Z</time>
      </trkpt>
      <trkpt lat="44.70917" lon="5.1876">
        <ele>397</ele>
        <time>2019-09-01T06:23:48Z</time>
      </trkpt>
      <trkpt lat="44.70919" lon="5.18757">
        <ele>398</ele>
        <time>2019-09-01T06:23:49Z</time>
      </trkpt>
      <trkpt lat="44.70922" lon="5.18754">
        <ele>398</ele>
        <time>2019-09-01T06:23:50Z</time>
      </trkpt>
      <trkpt lat="44.70924" lon="5.1875">
        <ele>398</ele>
        <time>2019-09-01T06:23:51Z</time>
      </trkpt>
      <trkpt lat="44.70927" lon="5.18748">
        <ele>400</ele>
        <time>2019-09-01T06:23:52Z</time>
      </trkpt>
      <trkpt lat="44.70931" lon="5.18745">
        <ele>399</ele>
        <time>2019-09-01T06:23:54Z</time>
      </trkpt>
      <trkpt lat="44.70935" lon="5.18743">
        <ele>399</ele>
        <time>2019-09-01T06:23:56Z</time>
      </trkpt>
      <trkpt lat="44.70939" lon="5.18738">
        <ele>398</ele>
        <time>2019-09-01T06:23:58Z</time>
      </trkpt>
      <trkpt lat="44.70942" lon="5.18736">
        <ele>398</ele>
        <time>2019-09-01T06:23:59Z</time>
      </trkpt>
      <trkpt lat="44.70945" lon="5.18733">
        <ele>398</ele>
        <time>2019-09-01T06:24:00Z</time>
      </trkpt>
      <trkpt lat="44.70947" lon="5.1873">
        <ele>398</ele>
        <time>2019-09-01T06:24:01Z</time>
      </trkpt>
      <trkpt lat="44.7095" lon="5.18728">
        <ele>398</ele>
        <time>2019-09-01T06:24:02Z</time>
      </trkpt>
      <trkpt lat="44.70953" lon="5.18727">
        <ele>397</ele>
        <time>2019-09-01T06:24:03Z</time>
      </trkpt>
      <trkpt lat="44.70956" lon="5.18725">
        <ele>397</ele>
        <time>2019-09-01T06:24:04Z</time>
      </trkpt>
      <trkpt lat="44.70961" lon="5.18723">
        <ele>397</ele>
        <time>2019-09-01T06:24:06Z</time>
      </trkpt>
      <trkpt lat="44.70964" lon="5.18722">
        <ele>397</ele>
        <time>2019-09-01T06:24:07Z</time>
      </trkpt>
      <trkpt lat="44.70968" lon="5.18717">
        <ele>397</ele>
        <time>2019-09-01T06:24:09Z</time>
      </trkpt>
      <trkpt lat="44.70972" lon="5.18713">
        <ele>397</ele>
        <time>2019-09-01T06:24:11Z</time>
      </trkpt>
      <trkpt lat="44.70976" lon="5.18708">
        <ele>397</ele>
        <time>2019-09-01T06:24:13Z</time>
      </trkpt>
      <trkpt lat="44.70978" lon="5.18705">
        <ele>397</ele>
        <time>2019-09-01T06:24:14Z</time>
      </trkpt>
      <trkpt lat="44.70981" lon="5.18702">
        <ele>398</ele>
        <time>2019-09-01T06:24:15Z</time>
      </trkpt>
      <trkpt lat="44.70984" lon="5.18698">
        <ele>398</ele>
        <time>2019-09-01T06:24:16Z</time>
      </trkpt>
      <trkpt lat="44.70988" lon="5.18695">
        <ele>398</ele>
        <time>2019-09-01T06:24:17Z</time>
      </trkpt>
      <trkpt lat="44.70992" lon="5.18689">
        <ele>399</ele>
        <time>2019-09-01T06:24:18Z</time>
      </trkpt>
      <trkpt lat="44.70996" lon="5.18683">
        <ele>399</ele>
        <time>2019-09-01T06:24:19Z</time>
      </trkpt>
      <trkpt lat="44.71" lon="5.18679">
        <ele>398</ele>
        <time>2019-09-01T06:24:20Z</time>
      </trkpt>
      <trkpt lat="44.71005" lon="5.18674">
        <ele>399</ele>
        <time>2019-09-01T06:24:21Z</time>
      </trkpt>
      <trkpt lat="44.71009" lon="5.1867">
        <ele>399</ele>
        <time>2019-09-01T06:24:22Z</time>
      </trkpt>
      <trkpt lat="44.71013" lon="5.18666">
        <ele>403</ele>
        <time>2019-09-01T06:24:23Z</time>
      </trkpt>
      <trkpt lat="44.71017" lon="5.18661">
        <ele>403</ele>
        <time>2019-09-01T06:24:24Z</time>
      </trkpt>
      <trkpt lat="44.7102" lon="5.18657">
        <ele>403</ele>
        <time>2019-09-01T06:24:25Z</time>
      </trkpt>
      <trkpt lat="44.71024" lon="5.18652">
        <ele>403</ele>
        <time>2019-09-01T06:24:26Z</time>
      </trkpt>
      <trkpt lat="44.71027" lon="5.18647">
        <ele>403</ele>
        <time>2019-09-01T06:24:27Z</time>
      </trkpt>
      <trkpt lat="44.7103" lon="5.18643">
        <ele>403</ele>
        <time>2019-09-01T06:24:28Z</time>
      </trkpt>
      <trkpt lat="44.71033" lon="5.18639">
        <ele>403</ele>
        <time>2019-09-01T06:24:29Z</time>
      </trkpt>
      <trkpt lat="44.71036" lon="5.18636">
        <ele>404</ele>
        <time>2019-09-01T06:24:30Z</time>
      </trkpt>
      <trkpt lat="44.71038" lon="5.18631">
        <ele>404</ele>
        <time>2019-09-01T06:24:31Z</time>
      </trkpt>
      <trkpt lat="44.71041" lon="5.18627">
        <ele>404</ele>
        <time>2019-09-01T06:24:32Z</time>
      </trkpt>
      <trkpt lat="44.71045" lon="5.18623">
        <ele>404</ele>
        <time>2019-09-01T06:24:33Z</time>
      </trkpt>
      <trkpt lat="44.71048" lon="5.18619">
        <ele>405</ele>
        <time>2019-09-01T06:24:34Z</time>
      </trkpt>
      <trkpt lat="44.71051" lon="5.18616">
        <ele>405</ele>
        <time>2019-09-01T06:24:35Z</time>
      </trkpt>
      <trkpt lat="44.71054" lon="5.18613">
        <ele>405</ele>
        <time>2019-09-01T06:24:36Z</time>
      </trkpt>
      <trkpt lat="44.71057" lon="5.1861">
        <ele>405</ele>
        <time>2019-09-01T06:24:37Z</time>
      </trkpt>
      <trkpt lat="44.7106" lon="5.18607">
        <ele>406</ele>
        <time>2019-09-01T06:24:38Z</time>
      </trkpt>
      <trkpt lat="44.71064" lon="5.18605">
        <ele>406</ele>
        <time>2019-09-01T06:24:39Z</time>
      </trkpt>
      <trkpt lat="44.71068" lon="5.18602">
        <ele>407</ele>
        <time>2019-09-01T06:24:40Z</time>
      </trkpt>
      <trkpt lat="44.71072" lon="5.18598">
        <ele>407</ele>
        <time>2019-09-01T06:24:41Z</time>
      </trkpt>
      <trkpt lat="44.71076" lon="5.18595">
        <ele>408</ele>
        <time>2019-09-01T06:24:42Z</time>
      </trkpt>
      <trkpt lat="44.71079" lon="5.18595">
        <ele>408</ele>
        <time>2019-09-01T06:24:43Z</time>
      </trkpt>
      <trkpt lat="44.71082" lon="5.186">
        <ele>407</ele>
        <time>2019-09-01T06:24:44Z</time>
      </trkpt>
      <trkpt lat="44.71085" lon="5.18604">
        <ele>409</ele>
        <time>2019-09-01T06:24:45Z</time>
      </trkpt>
      <trkpt lat="44.71087" lon="5.18608">
        <ele>408</ele>
        <time>2019-09-01T06:24:46Z</time>
      </trkpt>
      <trkpt lat="44.7109" lon="5.18611">
        <ele>408</ele>
        <time>2019-09-01T06:24:47Z</time>
      </trkpt>
      <trkpt lat="44.71093" lon="5.18613">
        <ele>408</ele>
        <time>2019-09-01T06:24:48Z</time>
      </trkpt>
      <trkpt lat="44.71096" lon="5.18616">
        <ele>407</ele>
        <time>2019-09-01T06:24:49Z</time>
      </trkpt>
      <trkpt lat="44.71099" lon="5.18617">
        <ele>407</ele>
        <time>2019-09-01T06:24:50Z</time>
      </trkpt>
      <trkpt lat="44.71101" lon="5.18618">
        <ele>407</ele>
        <time>2019-09-01T06:24:51Z</time>
      </trkpt>
      <trkpt lat="44.71104" lon="5.18619">
        <ele>407</ele>
        <time>2019-09-01T06:24:52Z</time>
      </trkpt>
      <trkpt lat="44.71107" lon="5.18621">
        <ele>407</ele>
        <time>2019-09-01T06:24:53Z</time>
      </trkpt>
      <trkpt lat="44.7111" lon="5.18623">
        <ele>407</ele>
        <time>2019-09-01T06:24:54Z</time>
      </trkpt>
      <trkpt lat="44.71112" lon="5.18624">
        <ele>407</ele>
        <time>2019-09-01T06:24:55Z</time>
      </trkpt>
      <trkpt lat="44.71117" lon="5.18627">
        <ele>407</ele>
        <time>2019-09-01T06:24:57Z</time>
      </trkpt>
      <trkpt lat="44.71122" lon="5.1863">
        <ele>407</ele>
        <time>2019-09-01T06:24:59Z</time>
      </trkpt>
      <trkpt lat="44.71127" lon="5.18633">
        <ele>407</ele>
        <time>2019-09-01T06:25:01Z</time>
      </trkpt>
      <trkpt lat="44.71131" lon="5.18637">
        <ele>407</ele>
        <time>2019-09-01T06:25:03Z</time>
      </trkpt>
      <trkpt lat="44.71133" lon="5.18641">
        <ele>407</ele>
        <time>2019-09-01T06:25:04Z</time>
      </trkpt>
      <trkpt lat="44.71136" lon="5.18644">
        <ele>407</ele>
        <time>2019-09-01T06:25:05Z</time>
      </trkpt>
      <trkpt lat="44.71138" lon="5.18648">
        <ele>407</ele>
        <time>2019-09-01T06:25:06Z</time>
      </trkpt>
      <trkpt lat="44.7114" lon="5.18652">
        <ele>407</ele>
        <time>2019-09-01T06:25:07Z</time>
      </trkpt>
      <trkpt lat="44.71142" lon="5.18654">
        <ele>407</ele>
        <time>2019-09-01T06:25:08Z</time>
      </trkpt>
      <trkpt lat="44.71144" lon="5.18657">
        <ele>407</ele>
        <time>2019-09-01T06:25:09Z</time>
      </trkpt>
      <trkpt lat="44.71147" lon="5.1866">
        <ele>407</ele>
        <time>2019-09-01T06:25:10Z</time>
      </trkpt>
      <trkpt lat="44.7115" lon="5.18663">
        <ele>407</ele>
        <time>2019-09-01T06:25:11Z</time>
      </trkpt>
      <trkpt lat="44.71152" lon="5.18667">
        <ele>401</ele>
        <time>2019-09-01T06:25:12Z</time>
      </trkpt>
      <trkpt lat="44.71154" lon="5.18672">
        <ele>401</ele>
        <time>2019-09-01T06:25:13Z</time>
      </trkpt>
      <trkpt lat="44.71156" lon="5.18677">
        <ele>401</ele>
        <time>2019-09-01T06:25:14Z</time>
      </trkpt>
      <trkpt lat="44.71158" lon="5.18683">
        <ele>400</ele>
        <time>2019-09-01T06:25:15Z</time>
      </trkpt>
      <trkpt lat="44.71162" lon="5.18689">
        <ele>400</ele>
        <time>2019-09-01T06:25:16Z</time>
      </trkpt>
      <trkpt lat="44.71166" lon="5.18695">
        <ele>399</ele>
        <time>2019-09-01T06:25:17Z</time>
      </trkpt>
      <trkpt lat="44.7117" lon="5.18701">
        <ele>400</ele>
        <time>2019-09-01T06:25:18Z</time>
      </trkpt>
      <trkpt lat="44.71174" lon="5.18706">
        <ele>399</ele>
        <time>2019-09-01T06:25:19Z</time>
      </trkpt>
      <trkpt lat="44.71177" lon="5.1871">
        <ele>399</ele>
        <time>2019-09-01T06:25:20Z</time>
      </trkpt>
      <trkpt lat="44.71179" lon="5.18712">
        <ele>399</ele>
        <time>2019-09-01T06:25:21Z</time>
      </trkpt>
      <trkpt lat="44.71183" lon="5.18713">
        <ele>398</ele>
        <time>2019-09-01T06:25:22Z</time>
      </trkpt>
      <trkpt lat="44.71189" lon="5.1871">
        <ele>399</ele>
        <time>2019-09-01T06:25:24Z</time>
      </trkpt>
      <trkpt lat="44.71191" lon="5.18706">
        <ele>399</ele>
        <time>2019-09-01T06:25:25Z</time>
      </trkpt>
      <trkpt lat="44.71193" lon="5.18701">
        <ele>399</ele>
        <time>2019-09-01T06:25:26Z</time>
      </trkpt>
      <trkpt lat="44.71195" lon="5.18696">
        <ele>399</ele>
        <time>2019-09-01T06:25:27Z</time>
      </trkpt>
      <trkpt lat="44.71196" lon="5.18693">
        <ele>399</ele>
        <time>2019-09-01T06:25:28Z</time>
      </trkpt>
      <trkpt lat="44.71198" lon="5.18691">
        <ele>399</ele>
        <time>2019-09-01T06:25:29Z</time>
      </trkpt>
      <trkpt lat="44.71202" lon="5.18686">
        <ele>399</ele>
        <time>2019-09-01T06:25:31Z</time>
      </trkpt>
      <trkpt lat="44.71206" lon="5.18681">
        <ele>399</ele>
        <time>2019-09-01T06:25:33Z</time>
      </trkpt>
      <trkpt lat="44.71208" lon="5.18678">
        <ele>399</ele>
        <time>2019-09-01T06:25:34Z</time>
      </trkpt>
      <trkpt lat="44.71211" lon="5.18672">
        <ele>399</ele>
        <time>2019-09-01T06:25:36Z</time>
      </trkpt>
      <trkpt lat="44.71213" lon="5.18669">
        <ele>399</ele>
        <time>2019-09-01T06:25:37Z</time>
      </trkpt>
      <trkpt lat="44.71215" lon="5.18665">
        <ele>406</ele>
        <time>2019-09-01T06:25:38Z</time>
      </trkpt>
      <trkpt lat="44.71217" lon="5.18659">
        <ele>406</ele>
        <time>2019-09-01T06:25:40Z</time>
      </trkpt>
      <trkpt lat="44.71219" lon="5.18656">
        <ele>406</ele>
        <time>2019-09-01T06:25:41Z</time>
      </trkpt>
      <trkpt lat="44.71221" lon="5.18653">
        <ele>406</ele>
        <time>2019-09-01T06:25:42Z</time>
      </trkpt>
      <trkpt lat="44.71222" lon="5.18649">
        <ele>406</ele>
        <time>2019-09-01T06:25:43Z</time>
      </trkpt>
      <trkpt lat="44.71225" lon="5.18644">
        <ele>406</ele>
        <time>2019-09-01T06:25:45Z</time>
      </trkpt>
      <trkpt lat="44.71228" lon="5.1864">
        <ele>406</ele>
        <time>2019-09-01T06:25:47Z</time>
      </trkpt>
      <trkpt lat="44.71231" lon="5.18634">
        <ele>407</ele>
        <time>2019-09-01T06:25:49Z</time>
      </trkpt>
      <trkpt lat="44.71234" lon="5.18628">
        <ele>407</ele>
        <time>2019-09-01T06:25:51Z</time>
      </trkpt>
      <trkpt lat="44.71238" lon="5.18622">
        <ele>408</ele>
        <time>2019-09-01T06:25:53Z</time>
      </trkpt>
      <trkpt lat="44.7124" lon="5.18618">
        <ele>408</ele>
        <time>2019-09-01T06:25:54Z</time>
      </trkpt>
      <trkpt lat="44.71242" lon="5.18614">
        <ele>408</ele>
        <time>2019-09-01T06:25:55Z</time>
      </trkpt>
      <trkpt lat="44.71244" lon="5.18609">
        <ele>408</ele>
        <time>2019-09-01T06:25:56Z</time>
      </trkpt>
      <trkpt lat="44.71247" lon="5.18604">
        <ele>409</ele>
        <time>2019-09-01T06:25:57Z</time>
      </trkpt>
      <trkpt lat="44.7125" lon="5.18599">
        <ele>409</ele>
        <time>2019-09-01T06:25:58Z</time>
      </trkpt>
      <trkpt lat="44.71251" lon="5.18595">
        <ele>405</ele>
        <time>2019-09-01T06:25:59Z</time>
      </trkpt>
      <trkpt lat="44.71253" lon="5.1859">
        <ele>406</ele>
        <time>2019-09-01T06:26:00Z</time>
      </trkpt>
      <trkpt lat="44.71255" lon="5.18586">
        <ele>407</ele>
        <time>2019-09-01T06:26:01Z</time>
      </trkpt>
      <trkpt lat="44.71258" lon="5.18581">
        <ele>409</ele>
        <time>2019-09-01T06:26:02Z</time>
      </trkpt>
      <trkpt lat="44.7126" lon="5.18577">
        <ele>409</ele>
        <time>2019-09-01T06:26:03Z</time>
      </trkpt>
      <trkpt lat="44.71262" lon="5.18574">
        <ele>409</ele>
        <time>2019-09-01T06:26:04Z</time>
      </trkpt>
      <trkpt lat="44.71265" lon="5.18569">
        <ele>410</ele>
        <time>2019-09-01T06:26:05Z</time>
      </trkpt>
      <trkpt lat="44.71267" lon="5.18565">
        <ele>410</ele>
        <time>2019-09-01T06:26:06Z</time>
      </trkpt>
      <trkpt lat="44.71271" lon="5.18561">
        <ele>410</ele>
        <time>2019-09-01T06:26:07Z</time>
      </trkpt>
      <trkpt lat="44.71274" lon="5.18555">
        <ele>410</ele>
        <time>2019-09-01T06:26:08Z</time>
      </trkpt>
      <trkpt lat="44.71277" lon="5.1855">
        <ele>410</ele>
        <time>2019-09-01T06:26:09Z</time>
      </trkpt>
      <trkpt lat="44.71284" lon="5.18548">
        <ele>410</ele>
        <time>2019-09-01T06:26:10Z</time>
      </trkpt>
      <trkpt lat="44.7129" lon="5.18549">
        <ele>409</ele>
        <time>2019-09-01T06:26:11Z</time>
      </trkpt>
      <trkpt lat="44.71298" lon="5.18549">
        <ele>409</ele>
        <time>2019-09-01T06:26:12Z</time>
      </trkpt>
      <trkpt lat="44.71304" lon="5.18549">
        <ele>408</ele>
        <time>2019-09-01T06:26:13Z</time>
      </trkpt>
      <trkpt lat="44.7131" lon="5.18549">
        <ele>408</ele>
        <time>2019-09-01T06:26:14Z</time>
      </trkpt>
      <trkpt lat="44.71316" lon="5.18549">
        <ele>407</ele>
        <time>2019-09-01T06:26:15Z</time>
      </trkpt>
      <trkpt lat="44.71323" lon="5.18548">
        <ele>407</ele>
        <time>2019-09-01T06:26:16Z</time>
      </trkpt>
      <trkpt lat="44.71329" lon="5.18547">
        <ele>407</ele>
        <time>2019-09-01T06:26:17Z</time>
      </trkpt>
      <trkpt lat="44.71334" lon="5.18545">
        <ele>403</ele>
        <time>2019-09-01T06:26:18Z</time>
      </trkpt>
      <trkpt lat="44.7134" lon="5.18541">
        <ele>403</ele>
        <time>2019-09-01T06:26:19Z</time>
      </trkpt>
      <trkpt lat="44.71345" lon="5.18538">
        <ele>404</ele>
        <time>2019-09-01T06:26:20Z</time>
      </trkpt>
      <trkpt lat="44.7135" lon="5.18536">
        <ele>404</ele>
        <time>2019-09-01T06:26:21Z</time>
      </trkpt>
      <trkpt lat="44.71355" lon="5.18534">
        <ele>404</ele>
        <time>2019-09-01T06:26:22Z</time>
      </trkpt>
      <trkpt lat="44.7136" lon="5.18534">
        <ele>404</ele>
        <time>2019-09-01T06:26:23Z</time>
      </trkpt>
      <trkpt lat="44.71364" lon="5.18534">
        <ele>404</ele>
        <time>2019-09-01T06:26:24Z</time>
      </trkpt>
      <trkpt lat="44.71368" lon="5.18533">
        <ele>404</ele>
        <time>2019-09-01T06:26:25Z</time>
      </trkpt>
      <trkpt lat="44.71371" lon="5.18533">
        <ele>404</ele>
        <time>2019-09-01T06:26:26Z</time>
      </trkpt>
      <trkpt lat="44.71376" lon="5.18533">
        <ele>404</ele>
        <time>2019-09-01T06:26:27Z</time>
      </trkpt>
      <trkpt lat="44.7138" lon="5.18532">
        <ele>404</ele>
        <time>2019-09-01T06:26:28Z</time>
      </trkpt>
      <trkpt lat="44.71384" lon="5.18531">
        <ele>404</ele>
        <time>2019-09-01T06:26:29Z</time>
      </trkpt>
      <trkpt lat="44.71388" lon="5.18531">
        <ele>404</ele>
        <time>2019-09-01T06:26:30Z</time>
      </trkpt>
      <trkpt lat="44.71392" lon="5.1853">
        <ele>404</ele>
        <time>2019-09-01T06:26:31Z</time>
      </trkpt>
      <trkpt lat="44.71399" lon="5.18532">
        <ele>404</ele>
        <time>2019-09-01T06:26:32Z</time>
      </trkpt>
      <trkpt lat="44.71404" lon="5.18533">
        <ele>404</ele>
        <time>2019-09-01T06:26:33Z</time>
      </trkpt>
      <trkpt lat="44.71409" lon="5.18533">
        <ele>405</ele>
        <time>2019-09-01T06:26:34Z</time>
      </trkpt>
      <trkpt lat="44.71414" lon="5.18532">
        <ele>405</ele>
        <time>2019-09-01T06:26:35Z</time>
      </trkpt>
      <trkpt lat="44.7142" lon="5.18533">
        <ele>401</ele>
        <time>2019-09-01T06:26:36Z</time>
      </trkpt>
      <trkpt lat="44.71426" lon="5.18535">
        <ele>401</ele>
        <time>2019-09-01T06:26:37Z</time>
      </trkpt>
      <trkpt lat="44.71431" lon="5.18536">
        <ele>401</ele>
        <time>2019-09-01T06:26:38Z</time>
      </trkpt>
      <trkpt lat="44.71436" lon="5.18538">
        <ele>400</ele>
        <time>2019-09-01T06:26:39Z</time>
      </trkpt>
      <trkpt lat="44.71441" lon="5.18541">
        <ele>400</ele>
        <time>2019-09-01T06:26:40Z</time>
      </trkpt>
      <trkpt lat="44.71445" lon="5.18543">
        <ele>399</ele>
        <time>2019-09-01T06:26:41Z</time>
      </trkpt>
      <trkpt lat="44.71448" lon="5.18546">
        <ele>399</ele>
        <time>2019-09-01T06:26:42Z</time>
      </trkpt>
      <trkpt lat="44.71453" lon="5.18547">
        <ele>398</ele>
        <time>2019-09-01T06:26:43Z</time>
      </trkpt>
      <trkpt lat="44.71457" lon="5.18549">
        <ele>398</ele>
        <time>2019-09-01T06:26:44Z</time>
      </trkpt>
      <trkpt lat="44.71461" lon="5.18551">
        <ele>398</ele>
        <time>2019-09-01T06:26:45Z</time>
      </trkpt>
      <trkpt lat="44.71465" lon="5.18552">
        <ele>398</ele>
        <time>2019-09-01T06:26:46Z</time>
      </trkpt>
      <trkpt lat="44.71468" lon="5.18553">
        <ele>397</ele>
        <time>2019-09-01T06:26:47Z</time>
      </trkpt>
      <trkpt lat="44.71472" lon="5.18553">
        <ele>397</ele>
        <time>2019-09-01T06:26:48Z</time>
      </trkpt>
      <trkpt lat="44.71475" lon="5.18552">
        <ele>397</ele>
        <time>2019-09-01T06:26:50Z</time>
      </trkpt>
      <trkpt lat="44.71478" lon="5.18549">
        <ele>397</ele>
        <time>2019-09-01T06:26:52Z</time>
      </trkpt>
      <trkpt lat="44.71482" lon="5.18545">
        <ele>397</ele>
        <time>2019-09-01T06:26:54Z</time>
      </trkpt>
      <trkpt lat="44.71482" lon="5.1854">
        <ele>397</ele>
        <time>2019-09-01T06:26:55Z</time>
      </trkpt>
      <trkpt lat="44.71484" lon="5.18535">
        <ele>397</ele>
        <time>2019-09-01T06:26:56Z</time>
      </trkpt>
      <trkpt lat="44.71485" lon="5.18531">
        <ele>397</ele>
        <time>2019-09-01T06:26:57Z</time>
      </trkpt>
      <trkpt lat="44.71486" lon="5.18527">
        <ele>397</ele>
        <time>2019-09-01T06:26:58Z</time>
      </trkpt>
      <trkpt lat="44.71487" lon="5.18522">
        <ele>397</ele>
        <time>2019-09-01T06:26:59Z</time>
      </trkpt>
      <trkpt lat="44.71488" lon="5.18516">
        <ele>397</ele>
        <time>2019-09-01T06:27:00Z</time>
      </trkpt>
      <trkpt lat="44.7149" lon="5.1851">
        <ele>397</ele>
        <time>2019-09-01T06:27:01Z</time>
      </trkpt>
      <trkpt lat="44.71492" lon="5.18502">
        <ele>396</ele>
        <time>2019-09-01T06:27:02Z</time>
      </trkpt>
      <trkpt lat="44.71494" lon="5.18495">
        <ele>398</ele>
        <time>2019-09-01T06:27:03Z</time>
      </trkpt>
      <trkpt lat="44.71496" lon="5.18487">
        <ele>399</ele>
        <time>2019-09-01T06:27:04Z</time>
      </trkpt>
      <trkpt lat="44.71499" lon="5.1848">
        <ele>400</ele>
        <time>2019-09-01T06:27:05Z</time>
      </trkpt>
      <trkpt lat="44.71502" lon="5.18472">
        <ele>393</ele>
        <time>2019-09-01T06:27:06Z</time>
      </trkpt>
      <trkpt lat="44.71505" lon="5.18464">
        <ele>393</ele>
        <time>2019-09-01T06:27:07Z</time>
      </trkpt>
      <trkpt lat="44.71508" lon="5.18454">
        <ele>393</ele>
        <time>2019-09-01T06:27:08Z</time>
      </trkpt>
      <trkpt lat="44.71511" lon="5.18444">
        <ele>393</ele>
        <time>2019-09-01T06:27:09Z</time>
      </trkpt>
      <trkpt lat="44.71514" lon="5.18434">
        <ele>393</ele>
        <time>2019-09-01T06:27:10Z</time>
      </trkpt>
      <trkpt lat="44.71516" lon="5.18424">
        <ele>393</ele>
        <time>2019-09-01T06:27:11Z</time>
      </trkpt>
      <trkpt lat="44.71519" lon="5.18414">
        <ele>395</ele>
        <time>2019-09-01T06:27:12Z</time>
      </trkpt>
      <trkpt lat="44.71521" lon="5.18405">
        <ele>395</ele>
        <time>2019-09-01T06:27:13Z</time>
      </trkpt>
      <trkpt lat="44.71522" lon="5.18398">
        <ele>395</ele>
        <time>2019-09-01T06:27:14Z</time>
      </trkpt>
      <trkpt lat="44.71523" lon="5.18392">
        <ele>395</ele>
        <time>2019-09-01T06:27:15Z</time>
      </trkpt>
      <trkpt lat="44.71524" lon="5.18388">
        <ele>395</ele>
        <time>2019-09-01T06:27:16Z</time>
      </trkpt>
      <trkpt lat="44.71525" lon="5.18381">
        <ele>395</ele>
        <time>2019-09-01T06:27:18Z</time>
      </trkpt>
      <trkpt lat="44.71527" lon="5.18374">
        <ele>395</ele>
        <time>2019-09-01T06:27:20Z</time>
      </trkpt>
      <trkpt lat="44.7153" lon="5.18371">
        <ele>395</ele>
        <time>2019-09-01T06:27:21Z</time>
      </trkpt>
      <trkpt lat="44.71534" lon="5.1837">
        <ele>395</ele>
        <time>2019-09-01T06:27:23Z</time>
      </trkpt>
      <trkpt lat="44.71538" lon="5.18368">
        <ele>395</ele>
        <time>2019-09-01T06:27:27Z</time>
      </trkpt>
      <trkpt lat="44.7154" lon="5.18372">
        <ele>395</ele>
        <time>2019-09-01T06:27:29Z</time>
      </trkpt>
      <trkpt lat="44.71542" lon="5.18377">
        <ele>395</ele>
        <time>2019-09-01T06:27:31Z</time>
      </trkpt>
      <trkpt lat="44.71544" lon="5.18382">
        <ele>394</ele>
        <time>2019-09-01T06:27:33Z</time>
      </trkpt>
      <trkpt lat="44.71547" lon="5.18386">
        <ele>394</ele>
        <time>2019-09-01T06:27:35Z</time>
      </trkpt>
      <trkpt lat="44.71549" lon="5.18389">
        <ele>394</ele>
        <time>2019-09-01T06:27:37Z</time>
      </trkpt>
      <trkpt lat="44.71552" lon="5.18393">
        <ele>394</ele>
        <time>2019-09-01T06:27:40Z</time>
      </trkpt>
      <trkpt lat="44.71556" lon="5.18394">
        <ele>394</ele>
        <time>2019-09-01T06:27:43Z</time>
      </trkpt>
      <trkpt lat="44.71558" lon="5.18391">
        <ele>394</ele>
        <time>2019-09-01T06:27:46Z</time>
      </trkpt>
      <trkpt lat="44.71561" lon="5.18389">
        <ele>394</ele>
        <time>2019-09-01T06:27:48Z</time>
      </trkpt>
      <trkpt lat="44.71563" lon="5.18384">
        <ele>394</ele>
        <time>2019-09-01T06:27:51Z</time>
      </trkpt>
      <trkpt lat="44.71566" lon="5.1838">
        <ele>394</ele>
        <time>2019-09-01T06:27:54Z</time>
      </trkpt>
      <trkpt lat="44.71569" lon="5.18377">
        <ele>394</ele>
        <time>2019-09-01T06:27:56Z</time>
      </trkpt>
      <trkpt lat="44.71573" lon="5.18375">
        <ele>394</ele>
        <time>2019-09-01T06:27:58Z</time>
      </trkpt>
      <trkpt lat="44.71576" lon="5.18372">
        <ele>394</ele>
        <time>2019-09-01T06:27:59Z</time>
      </trkpt>
      <trkpt lat="44.7158" lon="5.18369">
        <ele>394</ele>
        <time>2019-09-01T06:28:00Z</time>
      </trkpt>
      <trkpt lat="44.71585" lon="5.18365">
        <ele>398</ele>
        <time>2019-09-01T06:28:01Z</time>
      </trkpt>
      <trkpt lat="44.71589" lon="5.18363">
        <ele>399</ele>
        <time>2019-09-01T06:28:02Z</time>
      </trkpt>
      <trkpt lat="44.71593" lon="5.18361">
        <ele>399</ele>
        <time>2019-09-01T06:28:03Z</time>
      </trkpt>
      <trkpt lat="44.71596" lon="5.1836">
        <ele>399</ele>
        <time>2019-09-01T06:28:04Z</time>
      </trkpt>
      <trkpt lat="44.71599" lon="5.18364">
        <ele>399</ele>
        <time>2019-09-01T06:28:06Z</time>
      </trkpt>
      <trkpt lat="44.716" lon="5.1837">
        <ele>399</ele>
        <time>2019-09-01T06:28:08Z</time>
      </trkpt>
      <trkpt lat="44.71601" lon="5.18374">
        <ele>399</ele>
        <time>2019-09-01T06:28:09Z</time>
      </trkpt>
      <trkpt lat="44.71602" lon="5.18381">
        <ele>398</ele>
        <time>2019-09-01T06:28:11Z</time>
      </trkpt>
      <trkpt lat="44.71602" lon="5.18387">
        <ele>398</ele>
        <time>2019-09-01T06:28:13Z</time>
      </trkpt>
      <trkpt lat="44.71602" lon="5.18393">
        <ele>397</ele>
        <time>2019-09-01T06:28:16Z</time>
      </trkpt>
      <trkpt lat="44.71601" lon="5.18397">
        <ele>397</ele>
        <time>2019-09-01T06:28:20Z</time>
      </trkpt>
      <trkpt lat="44.716" lon="5.18401">
        <ele>396</ele>
        <time>2019-09-01T06:28:24Z</time>
      </trkpt>
      <trkpt lat="44.71598" lon="5.18408">
        <ele>395</ele>
        <time>2019-09-01T06:28:51Z</time>
      </trkpt>
      <trkpt lat="44.71596" lon="5.18412">
        <ele>394</ele>
        <time>2019-09-01T06:28:52Z</time>
      </trkpt>
      <trkpt lat="44.71594" lon="5.18417">
        <ele>391</ele>
        <time>2019-09-01T06:28:53Z</time>
      </trkpt>
      <trkpt lat="44.7159" lon="5.18422">
        <ele>390</ele>
        <time>2019-09-01T06:28:54Z</time>
      </trkpt>
      <trkpt lat="44.71585" lon="5.18429">
        <ele>391</ele>
        <time>2019-09-01T06:28:55Z</time>
      </trkpt>
      <trkpt lat="44.7158" lon="5.18437">
        <ele>390</ele>
        <time>2019-09-01T06:28:56Z</time>
      </trkpt>
      <trkpt lat="44.71577" lon="5.18446">
        <ele>390</ele>
        <time>2019-09-01T06:28:57Z</time>
      </trkpt>
      <trkpt lat="44.71576" lon="5.18455">
        <ele>390</ele>
        <time>2019-09-01T06:28:58Z</time>
      </trkpt>
      <trkpt lat="44.71575" lon="5.18462">
        <ele>389</ele>
        <time>2019-09-01T06:28:59Z</time>
      </trkpt>
      <trkpt lat="44.71574" lon="5.18468">
        <ele>389</ele>
        <time>2019-09-01T06:29:00Z</time>
      </trkpt>
      <trkpt lat="44.71575" lon="5.18473">
        <ele>389</ele>
        <time>2019-09-01T06:29:01Z</time>
      </trkpt>
      <trkpt lat="44.71577" lon="5.18476">
        <ele>388</ele>
        <time>2019-09-01T06:29:02Z</time>
      </trkpt>
      <trkpt lat="44.71579" lon="5.18479">
        <ele>388</ele>
        <time>2019-09-01T06:29:03Z</time>
      </trkpt>
      <trkpt lat="44.71581" lon="5.18483">
        <ele>387</ele>
        <time>2019-09-01T06:29:04Z</time>
      </trkpt>
      <trkpt lat="44.71584" lon="5.18487">
        <ele>388</ele>
        <time>2019-09-01T06:29:05Z</time>
      </trkpt>
      <trkpt lat="44.71586" lon="5.18491">
        <ele>387</ele>
        <time>2019-09-01T06:29:06Z</time>
      </trkpt>
      <trkpt lat="44.71588" lon="5.18495">
        <ele>386</ele>
        <time>2019-09-01T06:29:07Z</time>
      </trkpt>
      <trkpt lat="44.7159" lon="5.185">
        <ele>384</ele>
        <time>2019-09-01T06:29:08Z</time>
      </trkpt>
      <trkpt lat="44.71592" lon="5.18506">
        <ele>384</ele>
        <time>2019-09-01T06:29:09Z</time>
      </trkpt>
      <trkpt lat="44.71595" lon="5.18511">
        <ele>384</ele>
        <time>2019-09-01T06:29:10Z</time>
      </trkpt>
      <trkpt lat="44.71598" lon="5.18516">
        <ele>384</ele>
        <time>2019-09-01T06:29:11Z</time>
      </trkpt>
      <trkpt lat="44.71602" lon="5.18521">
        <ele>384</ele>
        <time>2019-09-01T06:29:12Z</time>
      </trkpt>
      <trkpt lat="44.71606" lon="5.18526">
        <ele>384</ele>
        <time>2019-09-01T06:29:13Z</time>
      </trkpt>
      <trkpt lat="44.7161" lon="5.18531">
        <ele>384</ele>
        <time>2019-09-01T06:29:14Z</time>
      </trkpt>
      <trkpt lat="44.71613" lon="5.18535">
        <ele>384</ele>
        <time>2019-09-01T06:29:15Z</time>
      </trkpt>
      <trkpt lat="44.71616" lon="5.18536">
        <ele>384</ele>
        <time>2019-09-01T06:29:16Z</time>
      </trkpt>
      <trkpt lat="44.71622" lon="5.18537">
        <ele>385</ele>
        <time>2019-09-01T06:29:18Z</time>
      </trkpt>
      <trkpt lat="44.71626" lon="5.18541">
        <ele>385</ele>
        <time>2019-09-01T06:29:19Z</time>
      </trkpt>
      <trkpt lat="44.71629" lon="5.18549">
        <ele>384</ele>
        <time>2019-09-01T06:29:20Z</time>
      </trkpt>
      <trkpt lat="44.71632" lon="5.18558">
        <ele>384</ele>
        <time>2019-09-01T06:29:21Z</time>
      </trkpt>
      <trkpt lat="44.71635" lon="5.18565">
        <ele>384</ele>
        <time>2019-09-01T06:29:22Z</time>
      </trkpt>
      <trkpt lat="44.71638" lon="5.18566">
        <ele>384</ele>
        <time>2019-09-01T06:29:25Z</time>
      </trkpt>
      <trkpt lat="44.71641" lon="5.18564">
        <ele>384</ele>
        <time>2019-09-01T06:29:26Z</time>
      </trkpt>
      <trkpt lat="44.71644" lon="5.18562">
        <ele>384</ele>
        <time>2019-09-01T06:29:27Z</time>
      </trkpt>
      <trkpt lat="44.71647" lon="5.18561">
        <ele>384</ele>
        <time>2019-09-01T06:29:28Z</time>
      </trkpt>
      <trkpt lat="44.71649" lon="5.18566">
        <ele>384</ele>
        <time>2019-09-01T06:29:29Z</time>
      </trkpt>
      <trkpt lat="44.7165" lon="5.18572">
        <ele>383</ele>
        <time>2019-09-01T06:29:30Z</time>
      </trkpt>
      <trkpt lat="44.71651" lon="5.18582">
        <ele>383</ele>
        <time>2019-09-01T06:29:31Z</time>
      </trkpt>
      <trkpt lat="44.71652" lon="5.1859">
        <ele>380</ele>
        <time>2019-09-01T06:29:32Z</time>
      </trkpt>
      <trkpt lat="44.71654" lon="5.18594">
        <ele>379</ele>
        <time>2019-09-01T06:29:33Z</time>
      </trkpt>
      <trkpt lat="44.71657" lon="5.18601">
        <ele>379</ele>
        <time>2019-09-01T06:29:35Z</time>
      </trkpt>
      <trkpt lat="44.71659" lon="5.18605">
        <ele>379</ele>
        <time>2019-09-01T06:29:36Z</time>
      </trkpt>
      <trkpt lat="44.71661" lon="5.18611">
        <ele>378</ele>
        <time>2019-09-01T06:29:37Z</time>
      </trkpt>
      <trkpt lat="44.71664" lon="5.18617">
        <ele>378</ele>
        <time>2019-09-01T06:29:38Z</time>
      </trkpt>
      <trkpt lat="44.71666" lon="5.18621">
        <ele>377</ele>
        <time>2019-09-01T06:29:39Z</time>
      </trkpt>
      <trkpt lat="44.71668" lon="5.18628">
        <ele>377</ele>
        <time>2019-09-01T06:29:41Z</time>
      </trkpt>
      <trkpt lat="44.7167" lon="5.18632">
        <ele>377</ele>
        <time>2019-09-01T06:29:42Z</time>
      </trkpt>
      <trkpt lat="44.71673" lon="5.18635">
        <ele>376</ele>
        <time>2019-09-01T06:29:44Z</time>
      </trkpt>
      <trkpt lat="44.71677" lon="5.1864">
        <ele>376</ele>
        <time>2019-09-01T06:29:46Z</time>
      </trkpt>
      <trkpt lat="44.71678" lon="5.18645">
        <ele>375</ele>
        <time>2019-09-01T06:29:47Z</time>
      </trkpt>
      <trkpt lat="44.7168" lon="5.18648">
        <ele>375</ele>
        <time>2019-09-01T06:29:48Z</time>
      </trkpt>
      <trkpt lat="44.71683" lon="5.1865">
        <ele>375</ele>
        <time>2019-09-01T06:29:49Z</time>
      </trkpt>
      <trkpt lat="44.71686" lon="5.18652">
        <ele>375</ele>
        <time>2019-09-01T06:29:50Z</time>
      </trkpt>
      <trkpt lat="44.71689" lon="5.18654">
        <ele>375</ele>
        <time>2019-09-01T06:29:51Z</time>
      </trkpt>
      <trkpt lat="44.71692" lon="5.18655">
        <ele>376</ele>
        <time>2019-09-01T06:29:52Z</time>
      </trkpt>
      <trkpt lat="44.71696" lon="5.18657">
        <ele>376</ele>
        <time>2019-09-01T06:29:53Z</time>
      </trkpt>
      <trkpt lat="44.71699" lon="5.1866">
        <ele>376</ele>
        <time>2019-09-01T06:29:54Z</time>
      </trkpt>
      <trkpt lat="44.71703" lon="5.18665">
        <ele>376</ele>
        <time>2019-09-01T06:29:55Z</time>
      </trkpt>
      <trkpt lat="44.71705" lon="5.18668">
        <ele>370</ele>
        <time>2019-09-01T06:29:56Z</time>
      </trkpt>
      <trkpt lat="44.71707" lon="5.18673">
        <ele>370</ele>
        <time>2019-09-01T06:29:57Z</time>
      </trkpt>
      <trkpt lat="44.71711" lon="5.1868">
        <ele>370</ele>
        <time>2019-09-01T06:29:58Z</time>
      </trkpt>
      <trkpt lat="44.71714" lon="5.18686">
        <ele>370</ele>
        <time>2019-09-01T06:29:59Z</time>
      </trkpt>
      <trkpt lat="44.71717" lon="5.18693">
        <ele>369</ele>
        <time>2019-09-01T06:30:00Z</time>
      </trkpt>
      <trkpt lat="44.71719" lon="5.187">
        <ele>369</ele>
        <time>2019-09-01T06:30:01Z</time>
      </trkpt>
      <trkpt lat="44.71719" lon="5.18707">
        <ele>368</ele>
        <time>2019-09-01T06:30:02Z</time>
      </trkpt>
      <trkpt lat="44.7172" lon="5.18716">
        <ele>368</ele>
        <time>2019-09-01T06:30:03Z</time>
      </trkpt>
      <trkpt lat="44.71721" lon="5.18724">
        <ele>367</ele>
        <time>2019-09-01T06:30:04Z</time>
      </trkpt>
      <trkpt lat="44.71724" lon="5.18731">
        <ele>366</ele>
        <time>2019-09-01T06:30:05Z</time>
      </trkpt>
      <trkpt lat="44.71725" lon="5.18738">
        <ele>366</ele>
        <time>2019-09-01T06:30:06Z</time>
      </trkpt>
      <trkpt lat="44.71725" lon="5.18745">
        <ele>366</ele>
        <time>2019-09-01T06:30:07Z</time>
      </trkpt>
      <trkpt lat="44.71726" lon="5.18752">
        <ele>362</ele>
        <time>2019-09-01T06:30:08Z</time>
      </trkpt>
      <trkpt lat="44.71727" lon="5.18758">
        <ele>362</ele>
        <time>2019-09-01T06:30:09Z</time>
      </trkpt>
      <trkpt lat="44.71727" lon="5.18763">
        <ele>362</ele>
        <time>2019-09-01T06:30:10Z</time>
      </trkpt>
      <trkpt lat="44.71727" lon="5.18767">
        <ele>362</ele>
        <time>2019-09-01T06:30:11Z</time>
      </trkpt>
      <trkpt lat="44.71728" lon="5.18773">
        <ele>362</ele>
        <time>2019-09-01T06:30:13Z</time>
      </trkpt>
      <trkpt lat="44.71728" lon="5.18778">
        <ele>362</ele>
        <time>2019-09-01T06:30:15Z</time>
      </trkpt>
      <trkpt lat="44.71725" lon="5.18783">
        <ele>362</ele>
        <time>2019-09-01T06:30:17Z</time>
      </trkpt>
      <trkpt lat="44.71721" lon="5.18785">
        <ele>362</ele>
        <time>2019-09-01T06:30:19Z</time>
      </trkpt>
      <trkpt lat="44.71718" lon="5.18786">
        <ele>362</ele>
        <time>2019-09-01T06:30:22Z</time>
      </trkpt>
      <trkpt lat="44.71722" lon="5.1879">
        <ele>362</ele>
        <time>2019-09-01T06:31:15Z</time>
      </trkpt>
      <trkpt lat="44.71724" lon="5.18795">
        <ele>362</ele>
        <time>2019-09-01T06:31:17Z</time>
      </trkpt>
      <trkpt lat="44.71723" lon="5.18801">
        <ele>362</ele>
        <time>2019-09-01T06:31:19Z</time>
      </trkpt>
      <trkpt lat="44.71722" lon="5.18806">
        <ele>362</ele>
        <time>2019-09-01T06:31:21Z</time>
      </trkpt>
      <trkpt lat="44.7172" lon="5.18811">
        <ele>362</ele>
        <time>2019-09-01T06:31:23Z</time>
      </trkpt>
      <trkpt lat="44.71717" lon="5.18815">
        <ele>362</ele>
        <time>2019-09-01T06:31:25Z</time>
      </trkpt>
      <trkpt lat="44.71715" lon="5.18819">
        <ele>362</ele>
        <time>2019-09-01T06:31:28Z</time>
      </trkpt>
      <trkpt lat="44.71718" lon="5.18817">
        <ele>362</ele>
        <time>2019-09-01T06:31:36Z</time>
      </trkpt>
      <trkpt lat="44.7172" lon="5.18815">
        <ele>362</ele>
        <time>2019-09-01T06:31:41Z</time>
      </trkpt>
      <trkpt lat="44.71724" lon="5.18813">
        <ele>362</ele>
        <time>2019-09-01T06:31:44Z</time>
      </trkpt>
      <trkpt lat="44.71726" lon="5.18816">
        <ele>362</ele>
        <time>2019-09-01T06:31:46Z</time>
      </trkpt>
      <trkpt lat="44.71727" lon="5.18821">
        <ele>361</ele>
        <time>2019-09-01T06:31:48Z</time>
      </trkpt>
      <trkpt lat="44.71727" lon="5.18826">
        <ele>361</ele>
        <time>2019-09-01T06:31:50Z</time>
      </trkpt>
      <trkpt lat="44.71726" lon="5.18832">
        <ele>361</ele>
        <time>2019-09-01T06:31:52Z</time>
      </trkpt>
      <trkpt lat="44.71725" lon="5.18836">
        <ele>363</ele>
        <time>2019-09-01T06:31:54Z</time>
      </trkpt>
      <trkpt lat="44.71726" lon="5.18842">
        <ele>363</ele>
        <time>2019-09-01T06:31:56Z</time>
      </trkpt>
      <trkpt lat="44.71726" lon="5.18847">
        <ele>363</ele>
        <time>2019-09-01T06:31:58Z</time>
      </trkpt>
      <trkpt lat="44.71725" lon="5.18853">
        <ele>364</ele>
        <time>2019-09-01T06:32:00Z</time>
      </trkpt>
      <trkpt lat="44.71723" lon="5.18858">
        <ele>364</ele>
        <time>2019-09-01T06:32:02Z</time>
      </trkpt>
      <trkpt lat="44.71722" lon="5.18862">
        <ele>364</ele>
        <time>2019-09-01T06:32:04Z</time>
      </trkpt>
      <trkpt lat="44.71721" lon="5.18867">
        <ele>365</ele>
        <time>2019-09-01T06:32:07Z</time>
      </trkpt>
      <trkpt lat="44.71719" lon="5.18873">
        <ele>365</ele>
        <time>2019-09-01T06:32:37Z</time>
      </trkpt>
      <trkpt lat="44.71718" lon="5.18879">
        <ele>365</ele>
        <time>2019-09-01T06:32:43Z</time>
      </trkpt>
      <trkpt lat="44.71716" lon="5.18883">
        <ele>365</ele>
        <time>2019-09-01T06:32:49Z</time>
      </trkpt>
      <trkpt lat="44.71714" lon="5.18887">
        <ele>365</ele>
        <time>2019-09-01T06:32:55Z</time>
      </trkpt>
      <trkpt lat="44.71711" lon="5.18891">
        <ele>365</ele>
        <time>2019-09-01T06:33:02Z</time>
      </trkpt>
      <trkpt lat="44.71711" lon="5.18895">
        <ele>366</ele>
        <time>2019-09-01T06:33:05Z</time>
      </trkpt>
      <trkpt lat="44.71711" lon="5.18899">
        <ele>366</ele>
        <time>2019-09-01T06:33:09Z</time>
      </trkpt>
      <trkpt lat="44.71712" lon="5.18904">
        <ele>366</ele>
        <time>2019-09-01T06:33:19Z</time>
      </trkpt>
      <trkpt lat="44.71714" lon="5.1891">
        <ele>367</ele>
        <time>2019-09-01T06:33:30Z</time>
      </trkpt>
      <trkpt lat="44.71715" lon="5.18915">
        <ele>367</ele>
        <time>2019-09-01T06:33:39Z</time>
      </trkpt>
      <trkpt lat="44.71714" lon="5.1892">
        <ele>373</ele>
        <time>2019-09-01T06:33:45Z</time>
      </trkpt>
      <trkpt lat="44.71714" lon="5.18924">
        <ele>373</ele>
        <time>2019-09-01T06:33:51Z</time>
      </trkpt>
      <trkpt lat="44.71717" lon="5.18925">
        <ele>374</ele>
        <time>2019-09-01T06:34:42Z</time>
      </trkpt>
      <trkpt lat="44.7172" lon="5.18926">
        <ele>374</ele>
        <time>2019-09-01T06:34:45Z</time>
      </trkpt>
      <trkpt lat="44.71723" lon="5.1893">
        <ele>374</ele>
        <time>2019-09-01T06:34:48Z</time>
      </trkpt>
      <trkpt lat="44.71726" lon="5.18932">
        <ele>375</ele>
        <time>2019-09-01T06:34:52Z</time>
      </trkpt>
      <trkpt lat="44.71728" lon="5.18936">
        <ele>375</ele>
        <time>2019-09-01T06:34:55Z</time>
      </trkpt>
      <trkpt lat="44.71731" lon="5.18943">
        <ele>375</ele>
        <time>2019-09-01T06:34:59Z</time>
      </trkpt>
      <trkpt lat="44.71729" lon="5.18949">
        <ele>376</ele>
        <time>2019-09-01T06:35:01Z</time>
      </trkpt>
      <trkpt lat="44.71727" lon="5.18953">
        <ele>376</ele>
        <time>2019-09-01T06:35:03Z</time>
      </trkpt>
      <trkpt lat="44.71724" lon="5.18958">
        <ele>376</ele>
        <time>2019-09-01T06:35:05Z</time>
      </trkpt>
      <trkpt lat="44.71721" lon="5.18961">
        <ele>376</ele>
        <time>2019-09-01T06:35:07Z</time>
      </trkpt>
      <trkpt lat="44.71717" lon="5.18963">
        <ele>376</ele>
        <time>2019-09-01T06:35:10Z</time>
      </trkpt>
      <trkpt lat="44.71714" lon="5.18964">
        <ele>375</ele>
        <time>2019-09-01T06:35:12Z</time>
      </trkpt>
      <trkpt lat="44.71711" lon="5.18964">
        <ele>375</ele>
        <time>2019-09-01T06:35:14Z</time>
      </trkpt>
      <trkpt lat="44.71708" lon="5.18965">
        <ele>375</ele>
        <time>2019-09-01T06:35:16Z</time>
      </trkpt>
      <trkpt lat="44.71705" lon="5.18965">
        <ele>375</ele>
        <time>2019-09-01T06:35:18Z</time>
      </trkpt>
      <trkpt lat="44.71702" lon="5.18964">
        <ele>374</ele>
        <time>2019-09-01T06:35:20Z</time>
      </trkpt>
      <trkpt lat="44.71698" lon="5.18967">
        <ele>374</ele>
        <time>2019-09-01T06:35:22Z</time>
      </trkpt>
      <trkpt lat="44.71695" lon="5.18969">
        <ele>374</ele>
        <time>2019-09-01T06:35:24Z</time>
      </trkpt>
      <trkpt lat="44.71691" lon="5.1897">
        <ele>374</ele>
        <time>2019-09-01T06:35:27Z</time>
      </trkpt>
      <trkpt lat="44.71688" lon="5.18973">
        <ele>374</ele>
        <time>2019-09-01T06:35:29Z</time>
      </trkpt>
      <trkpt lat="44.71685" lon="5.18977">
        <ele>374</ele>
        <time>2019-09-01T06:35:31Z</time>
      </trkpt>
      <trkpt lat="44.71682" lon="5.18979">
        <ele>374</ele>
        <time>2019-09-01T06:35:33Z</time>
      </trkpt>
      <trkpt lat="44.7168" lon="5.18983">
        <ele>374</ele>
        <time>2019-09-01T06:35:35Z</time>
      </trkpt>
      <trkpt lat="44.71677" lon="5.18987">
        <ele>374</ele>
        <time>2019-09-01T06:35:38Z</time>
      </trkpt>
      <trkpt lat="44.71676" lon="5.18991">
        <ele>374</ele>
        <time>2019-09-01T06:35:41Z</time>
      </trkpt>
      <trkpt lat="44.71672" lon="5.18995">
        <ele>373</ele>
        <time>2019-09-01T06:35:44Z</time>
      </trkpt>
      <trkpt lat="44.71669" lon="5.18996">
        <ele>373</ele>
        <time>2019-09-01T06:35:45Z</time>
      </trkpt>
      <trkpt lat="44.71665" lon="5.18998">
        <ele>372</ele>
        <time>2019-09-01T06:35:46Z</time>
      </trkpt>
      <trkpt lat="44.71662" lon="5.18999">
        <ele>371</ele>
        <time>2019-09-01T06:35:47Z</time>
      </trkpt>
      <trkpt lat="44.71659" lon="5.19">
        <ele>371</ele>
        <time>2019-09-01T06:35:48Z</time>
      </trkpt>
      <trkpt lat="44.71655" lon="5.19001">
        <ele>370</ele>
        <time>2019-09-01T06:35:49Z</time>
      </trkpt>
      <trkpt lat="44.71652" lon="5.19004">
        <ele>369</ele>
        <time>2019-09-01T06:35:50Z</time>
      </trkpt>
      <trkpt lat="44.71649" lon="5.19005">
        <ele>369</ele>
        <time>2019-09-01T06:35:51Z</time>
      </trkpt>
      <trkpt lat="44.71646" lon="5.1901">
        <ele>368</ele>
        <time>2019-09-01T06:35:53Z</time>
      </trkpt>
      <trkpt lat="44.71644" lon="5.19013">
        <ele>368</ele>
        <time>2019-09-01T06:35:54Z</time>
      </trkpt>
      <trkpt lat="44.71644" lon="5.19017">
        <ele>368</ele>
        <time>2019-09-01T06:35:55Z</time>
      </trkpt>
      <trkpt lat="44.71644" lon="5.19021">
        <ele>367</ele>
        <time>2019-09-01T06:35:56Z</time>
      </trkpt>
      <trkpt lat="44.71645" lon="5.19027">
        <ele>367</ele>
        <time>2019-09-01T06:35:58Z</time>
      </trkpt>
      <trkpt lat="44.71647" lon="5.19032">
        <ele>367</ele>
        <time>2019-09-01T06:35:59Z</time>
      </trkpt>
      <trkpt lat="44.71649" lon="5.19036">
        <ele>367</ele>
        <time>2019-09-01T06:36:00Z</time>
      </trkpt>
      <trkpt lat="44.71652" lon="5.19041">
        <ele>368</ele>
        <time>2019-09-01T06:36:01Z</time>
      </trkpt>
      <trkpt lat="44.71655" lon="5.19046">
        <ele>368</ele>
        <time>2019-09-01T06:36:02Z</time>
      </trkpt>
      <trkpt lat="44.71659" lon="5.19051">
        <ele>368</ele>
        <time>2019-09-01T06:36:03Z</time>
      </trkpt>
      <trkpt lat="44.71663" lon="5.19057">
        <ele>368</ele>
        <time>2019-09-01T06:36:04Z</time>
      </trkpt>
      <trkpt lat="44.71666" lon="5.19062">
        <ele>369</ele>
        <time>2019-09-01T06:36:05Z</time>
      </trkpt>
      <trkpt lat="44.7167" lon="5.19069">
        <ele>376</ele>
        <time>2019-09-01T06:36:06Z</time>
      </trkpt>
      <trkpt lat="44.71673" lon="5.19075">
        <ele>375</ele>
        <time>2019-09-01T06:36:07Z</time>
      </trkpt>
      <trkpt lat="44.71676" lon="5.19081">
        <ele>375</ele>
        <time>2019-09-01T06:36:08Z</time>
      </trkpt>
      <trkpt lat="44.71679" lon="5.19087">
        <ele>376</ele>
        <time>2019-09-01T06:36:09Z</time>
      </trkpt>
      <trkpt lat="44.71682" lon="5.19093">
        <ele>377</ele>
        <time>2019-09-01T06:36:10Z</time>
      </trkpt>
      <trkpt lat="44.71683" lon="5.19098">
        <ele>378</ele>
        <time>2019-09-01T06:36:11Z</time>
      </trkpt>
      <trkpt lat="44.71685" lon="5.19103">
        <ele>379</ele>
        <time>2019-09-01T06:36:12Z</time>
      </trkpt>
      <trkpt lat="44.71685" lon="5.19109">
        <ele>379</ele>
        <time>2019-09-01T06:36:13Z</time>
      </trkpt>
      <trkpt lat="44.71684" lon="5.19115">
        <ele>380</ele>
        <time>2019-09-01T06:36:14Z</time>
      </trkpt>
      <trkpt lat="44.71685" lon="5.1912">
        <ele>380</ele>
        <time>2019-09-01T06:36:15Z</time>
      </trkpt>
      <trkpt lat="44.71685" lon="5.19125">
        <ele>380</ele>
        <time>2019-09-01T06:36:16Z</time>
      </trkpt>
      <trkpt lat="44.71686" lon="5.19131">
        <ele>380</ele>
        <time>2019-09-01T06:36:17Z</time>
      </trkpt>
      <trkpt lat="44.71687" lon="5.19135">
        <ele>380</ele>
        <time>2019-09-01T06:36:18Z</time>
      </trkpt>
      <trkpt lat="44.71688" lon="5.1914">
        <ele>380</ele>
        <time>2019-09-01T06:36:19Z</time>
      </trkpt>
      <trkpt lat="44.71689" lon="5.19146">
        <ele>380</ele>
        <time>2019-09-01T06:36:20Z</time>
      </trkpt>
      <trkpt lat="44.7169" lon="5.19151">
        <ele>380</ele>
        <time>2019-09-01T06:36:21Z</time>
      </trkpt>
      <trkpt lat="44.71691" lon="5.19156">
        <ele>380</ele>
        <time>2019-09-01T06:36:22Z</time>
      </trkpt>
      <trkpt lat="44.71693" lon="5.19161">
        <ele>380</ele>
        <time>2019-09-01T06:36:23Z</time>
      </trkpt>
      <trkpt lat="44.71694" lon="5.19167">
        <ele>380</ele>
        <time>2019-09-01T06:36:24Z</time>
      </trkpt>
      <trkpt lat="44.71695" lon="5.19172">
        <ele>383</ele>
        <time>2019-09-01T06:36:25Z</time>
      </trkpt>
      <trkpt lat="44.71696" lon="5.19177">
        <ele>384</ele>
        <time>2019-09-01T06:36:26Z</time>
      </trkpt>
      <trkpt lat="44.71698" lon="5.19182">
        <ele>384</ele>
        <time>2019-09-01T06:36:27Z</time>
      </trkpt>
      <trkpt lat="44.717" lon="5.19188">
        <ele>385</ele>
        <time>2019-09-01T06:36:28Z</time>
      </trkpt>
      <trkpt lat="44.71701" lon="5.19192">
        <ele>385</ele>
        <time>2019-09-01T06:36:29Z</time>
      </trkpt>
      <trkpt lat="44.71703" lon="5.19197">
        <ele>386</ele>
        <time>2019-09-01T06:36:30Z</time>
      </trkpt>
      <trkpt lat="44.71704" lon="5.19202">
        <ele>386</ele>
        <time>2019-09-01T06:36:31Z</time>
      </trkpt>
      <trkpt lat="44.71705" lon="5.19207">
        <ele>387</ele>
        <time>2019-09-01T06:36:32Z</time>
      </trkpt>
      <trkpt lat="44.71706" lon="5.19211">
        <ele>387</ele>
        <time>2019-09-01T06:36:33Z</time>
      </trkpt>
      <trkpt lat="44.71701" lon="5.19215">
        <ele>387</ele>
        <time>2019-09-01T06:36:35Z</time>
      </trkpt>
      <trkpt lat="44.71697" lon="5.19215">
        <ele>386</ele>
        <time>2019-09-01T06:36:36Z</time>
      </trkpt>
      <trkpt lat="44.71694" lon="5.19216">
        <ele>386</ele>
        <time>2019-09-01T06:36:37Z</time>
      </trkpt>
      <trkpt lat="44.7169" lon="5.19216">
        <ele>386</ele>
        <time>2019-09-01T06:36:38Z</time>
      </trkpt>
      <trkpt lat="44.71686" lon="5.19216">
        <ele>386</ele>
        <time>2019-09-01T06:36:39Z</time>
      </trkpt>
      <trkpt lat="44.71682" lon="5.19217">
        <ele>385</ele>
        <time>2019-09-01T06:36:40Z</time>
      </trkpt>
      <trkpt lat="44.71678" lon="5.19216">
        <ele>385</ele>
        <time>2019-09-01T06:36:41Z</time>
      </trkpt>
      <trkpt lat="44.71674" lon="5.19216">
        <ele>385</ele>
        <time>2019-09-01T06:36:42Z</time>
      </trkpt>
      <trkpt lat="44.71669" lon="5.19216">
        <ele>385</ele>
        <time>2019-09-01T06:36:43Z</time>
      </trkpt>
      <trkpt lat="44.71664" lon="5.19215">
        <ele>380</ele>
        <time>2019-09-01T06:36:44Z</time>
      </trkpt>
      <trkpt lat="44.71661" lon="5.19215">
        <ele>380</ele>
        <time>2019-09-01T06:36:45Z</time>
      </trkpt>
      <trkpt lat="44.71657" lon="5.19213">
        <ele>380</ele>
        <time>2019-09-01T06:36:46Z</time>
      </trkpt>
      <trkpt lat="44.71654" lon="5.19212">
        <ele>379</ele>
        <time>2019-09-01T06:36:47Z</time>
      </trkpt>
      <trkpt lat="44.7165" lon="5.19211">
        <ele>379</ele>
        <time>2019-09-01T06:36:48Z</time>
      </trkpt>
      <trkpt lat="44.71647" lon="5.1921">
        <ele>379</ele>
        <time>2019-09-01T06:36:49Z</time>
      </trkpt>
      <trkpt lat="44.71643" lon="5.19208">
        <ele>379</ele>
        <time>2019-09-01T06:36:51Z</time>
      </trkpt>
      <trkpt lat="44.71639" lon="5.19207">
        <ele>379</ele>
        <time>2019-09-01T06:36:53Z</time>
      </trkpt>
      <trkpt lat="44.71635" lon="5.19206">
        <ele>379</ele>
        <time>2019-09-01T06:36:55Z</time>
      </trkpt>
      <trkpt lat="44.71631" lon="5.19208">
        <ele>379</ele>
        <time>2019-09-01T06:36:57Z</time>
      </trkpt>
      <trkpt lat="44.71628" lon="5.19212">
        <ele>379</ele>
        <time>2019-09-01T06:36:59Z</time>
      </trkpt>
      <trkpt lat="44.71624" lon="5.19213">
        <ele>379</ele>
        <time>2019-09-01T06:37:02Z</time>
      </trkpt>
      <trkpt lat="44.7162" lon="5.19212">
        <ele>379</ele>
        <time>2019-09-01T06:37:04Z</time>
      </trkpt>
      <trkpt lat="44.71616" lon="5.19212">
        <ele>379</ele>
        <time>2019-09-01T06:37:06Z</time>
      </trkpt>
      <trkpt lat="44.71614" lon="5.19213">
        <ele>379</ele>
        <time>2019-09-01T06:37:08Z</time>
      </trkpt>
      <trkpt lat="44.71611" lon="5.19216">
        <ele>380</ele>
        <time>2019-09-01T06:37:10Z</time>
      </trkpt>
      <trkpt lat="44.71607" lon="5.19219">
        <ele>380</ele>
        <time>2019-09-01T06:37:12Z</time>
      </trkpt>
      <trkpt lat="44.71604" lon="5.1922">
        <ele>380</ele>
        <time>2019-09-01T06:37:13Z</time>
      </trkpt>
      <trkpt lat="44.71601" lon="5.19223">
        <ele>381</ele>
        <time>2019-09-01T06:37:15Z</time>
      </trkpt>
      <trkpt lat="44.71599" lon="5.19225">
        <ele>381</ele>
        <time>2019-09-01T06:37:17Z</time>
      </trkpt>
      <trkpt lat="44.71596" lon="5.19226">
        <ele>381</ele>
        <time>2019-09-01T06:37:19Z</time>
      </trkpt>
      <trkpt lat="44.71592" lon="5.19228">
        <ele>382</ele>
        <time>2019-09-01T06:37:21Z</time>
      </trkpt>
      <trkpt lat="44.71589" lon="5.19231">
        <ele>382</ele>
        <time>2019-09-01T06:37:23Z</time>
      </trkpt>
      <trkpt lat="44.71585" lon="5.19235">
        <ele>383</ele>
        <time>2019-09-01T06:37:26Z</time>
      </trkpt>
      <trkpt lat="44.71582" lon="5.19241">
        <ele>384</ele>
        <time>2019-09-01T06:37:28Z</time>
      </trkpt>
      <trkpt lat="44.7158" lon="5.19244">
        <ele>385</ele>
        <time>2019-09-01T06:37:29Z</time>
      </trkpt>
      <trkpt lat="44.71577" lon="5.19249">
        <ele>385</ele>
        <time>2019-09-01T06:37:31Z</time>
      </trkpt>
      <trkpt lat="44.71574" lon="5.19253">
        <ele>390</ele>
        <time>2019-09-01T06:37:33Z</time>
      </trkpt>
      <trkpt lat="44.7157" lon="5.19256">
        <ele>391</ele>
        <time>2019-09-01T06:37:35Z</time>
      </trkpt>
      <trkpt lat="44.71566" lon="5.19259">
        <ele>392</ele>
        <time>2019-09-01T06:37:37Z</time>
      </trkpt>
      <trkpt lat="44.71562" lon="5.1926">
        <ele>393</ele>
        <time>2019-09-01T06:37:39Z</time>
      </trkpt>
      <trkpt lat="44.71558" lon="5.19261">
        <ele>393</ele>
        <time>2019-09-01T06:37:41Z</time>
      </trkpt>
      <trkpt lat="44.71553" lon="5.19262">
        <ele>393</ele>
        <time>2019-09-01T06:37:43Z</time>
      </trkpt>
      <trkpt lat="44.71549" lon="5.19262">
        <ele>394</ele>
        <time>2019-09-01T06:37:45Z</time>
      </trkpt>
      <trkpt lat="44.71545" lon="5.19261">
        <ele>394</ele>
        <time>2019-09-01T06:37:47Z</time>
      </trkpt>
      <trkpt lat="44.7154" lon="5.19259">
        <ele>394</ele>
        <time>2019-09-01T06:37:49Z</time>
      </trkpt>
      <trkpt lat="44.71535" lon="5.19259">
        <ele>394</ele>
        <time>2019-09-01T06:37:51Z</time>
      </trkpt>
      <trkpt lat="44.7153" lon="5.19259">
        <ele>393</ele>
        <time>2019-09-01T06:37:53Z</time>
      </trkpt>
      <trkpt lat="44.71526" lon="5.19257">
        <ele>393</ele>
        <time>2019-09-01T06:37:55Z</time>
      </trkpt>
      <trkpt lat="44.71523" lon="5.19258">
        <ele>393</ele>
        <time>2019-09-01T06:37:56Z</time>
      </trkpt>
      <trkpt lat="44.7152" lon="5.19258">
        <ele>393</ele>
        <time>2019-09-01T06:37:57Z</time>
      </trkpt>
      <trkpt lat="44.71517" lon="5.19257">
        <ele>392</ele>
        <time>2019-09-01T06:37:58Z</time>
      </trkpt>
      <trkpt lat="44.71512" lon="5.19257">
        <ele>392</ele>
        <time>2019-09-01T06:38:00Z</time>
      </trkpt>
      <trkpt lat="44.71509" lon="5.19258">
        <ele>391</ele>
        <time>2019-09-01T06:38:01Z</time>
      </trkpt>
      <trkpt lat="44.71504" lon="5.19258">
        <ele>391</ele>
        <time>2019-09-01T06:38:03Z</time>
      </trkpt>
      <trkpt lat="44.71499" lon="5.19259">
        <ele>390</ele>
        <time>2019-09-01T06:38:05Z</time>
      </trkpt>
      <trkpt lat="44.71494" lon="5.1926">
        <ele>390</ele>
        <time>2019-09-01T06:38:07Z</time>
      </trkpt>
      <trkpt lat="44.7149" lon="5.19261">
        <ele>390</ele>
        <time>2019-09-01T06:38:09Z</time>
      </trkpt>
      <trkpt lat="44.71487" lon="5.19262">
        <ele>391</ele>
        <time>2019-09-01T06:38:11Z</time>
      </trkpt>
      <trkpt lat="44.71483" lon="5.19265">
        <ele>391</ele>
        <time>2019-09-01T06:38:13Z</time>
      </trkpt>
      <trkpt lat="44.71481" lon="5.19269">
        <ele>391</ele>
        <time>2019-09-01T06:38:15Z</time>
      </trkpt>
      <trkpt lat="44.71478" lon="5.19274">
        <ele>392</ele>
        <time>2019-09-01T06:38:17Z</time>
      </trkpt>
      <trkpt lat="44.71474" lon="5.19278">
        <ele>392</ele>
        <time>2019-09-01T06:38:19Z</time>
      </trkpt>
      <trkpt lat="44.7147" lon="5.19282">
        <ele>393</ele>
        <time>2019-09-01T06:38:21Z</time>
      </trkpt>
      <trkpt lat="44.71467" lon="5.19285">
        <ele>393</ele>
        <time>2019-09-01T06:38:23Z</time>
      </trkpt>
      <trkpt lat="44.71463" lon="5.19288">
        <ele>393</ele>
        <time>2019-09-01T06:38:25Z</time>
      </trkpt>
      <trkpt lat="44.71459" lon="5.19292">
        <ele>393</ele>
        <time>2019-09-01T06:38:27Z</time>
      </trkpt>
      <trkpt lat="44.71455" lon="5.19295">
        <ele>393</ele>
        <time>2019-09-01T06:38:29Z</time>
      </trkpt>
      <trkpt lat="44.71451" lon="5.19298">
        <ele>394</ele>
        <time>2019-09-01T06:38:31Z</time>
      </trkpt>
      <trkpt lat="44.71448" lon="5.19303">
        <ele>394</ele>
        <time>2019-09-01T06:38:33Z</time>
      </trkpt>
      <trkpt lat="44.71444" lon="5.19306">
        <ele>395</ele>
        <time>2019-09-01T06:38:35Z</time>
      </trkpt>
      <trkpt lat="44.7144" lon="5.1931">
        <ele>395</ele>
        <time>2019-09-01T06:38:37Z</time>
      </trkpt>
      <trkpt lat="44.71436" lon="5.19312">
        <ele>395</ele>
        <time>2019-09-01T06:38:39Z</time>
      </trkpt>
      <trkpt lat="44.71431" lon="5.19314">
        <ele>396</ele>
        <time>2019-09-01T06:38:41Z</time>
      </trkpt>
      <trkpt lat="44.71427" lon="5.19314">
        <ele>396</ele>
        <time>2019-09-01T06:38:43Z</time>
      </trkpt>
      <trkpt lat="44.71422" lon="5.19314">
        <ele>396</ele>
        <time>2019-09-01T06:38:45Z</time>
      </trkpt>
      <trkpt lat="44.71417" lon="5.19314">
        <ele>396</ele>
        <time>2019-09-01T06:38:47Z</time>
      </trkpt>
      <trkpt lat="44.71413" lon="5.19314">
        <ele>392</ele>
        <time>2019-09-01T06:38:49Z</time>
      </trkpt>
      <trkpt lat="44.71409" lon="5.19314">
        <ele>392</ele>
        <time>2019-09-01T06:38:51Z</time>
      </trkpt>
      <trkpt lat="44.71404" lon="5.19315">
        <ele>392</ele>
        <time>2019-09-01T06:38:53Z</time>
      </trkpt>
      <trkpt lat="44.71401" lon="5.19316">
        <ele>392</ele>
        <time>2019-09-01T06:38:55Z</time>
      </trkpt>
      <trkpt lat="44.71397" lon="5.19317">
        <ele>391</ele>
        <time>2019-09-01T06:38:57Z</time>
      </trkpt>
      <trkpt lat="44.71392" lon="5.19318">
        <ele>391</ele>
        <time>2019-09-01T06:38:59Z</time>
      </trkpt>
      <trkpt lat="44.71388" lon="5.1932">
        <ele>391</ele>
        <time>2019-09-01T06:39:01Z</time>
      </trkpt>
      <trkpt lat="44.71384" lon="5.19321">
        <ele>390</ele>
        <time>2019-09-01T06:39:03Z</time>
      </trkpt>
      <trkpt lat="44.71379" lon="5.19323">
        <ele>390</ele>
        <time>2019-09-01T06:39:05Z</time>
      </trkpt>
      <trkpt lat="44.71375" lon="5.19325">
        <ele>390</ele>
        <time>2019-09-01T06:39:07Z</time>
      </trkpt>
      <trkpt lat="44.71371" lon="5.19327">
        <ele>390</ele>
        <time>2019-09-01T06:39:09Z</time>
      </trkpt>
      <trkpt lat="44.71367" lon="5.19329">
        <ele>390</ele>
        <time>2019-09-01T06:39:11Z</time>
      </trkpt>
      <trkpt lat="44.71363" lon="5.19331">
        <ele>391</ele>
        <time>2019-09-01T06:39:13Z</time>
      </trkpt>
      <trkpt lat="44.71361" lon="5.19331">
        <ele>391</ele>
        <time>2019-09-01T06:39:14Z</time>
      </trkpt>
      <trkpt lat="44.71356" lon="5.19334">
        <ele>404</ele>
        <time>2019-09-01T06:39:16Z</time>
      </trkpt>
      <trkpt lat="44.71353" lon="5.19334">
        <ele>404</ele>
        <time>2019-09-01T06:39:17Z</time>
      </trkpt>
      <trkpt lat="44.71349" lon="5.19336">
        <ele>403</ele>
        <time>2019-09-01T06:39:19Z</time>
      </trkpt>
      <trkpt lat="44.71345" lon="5.19338">
        <ele>402</ele>
        <time>2019-09-01T06:39:21Z</time>
      </trkpt>
      <trkpt lat="44.71341" lon="5.19339">
        <ele>401</ele>
        <time>2019-09-01T06:39:23Z</time>
      </trkpt>
      <trkpt lat="44.71338" lon="5.19342">
        <ele>401</ele>
        <time>2019-09-01T06:39:25Z</time>
      </trkpt>
      <trkpt lat="44.71334" lon="5.19344">
        <ele>402</ele>
        <time>2019-09-01T06:39:27Z</time>
      </trkpt>
      <trkpt lat="44.7133" lon="5.19345">
        <ele>401</ele>
        <time>2019-09-01T06:39:29Z</time>
      </trkpt>
      <trkpt lat="44.71325" lon="5.19347">
        <ele>402</ele>
        <time>2019-09-01T06:39:31Z</time>
      </trkpt>
      <trkpt lat="44.71321" lon="5.19349">
        <ele>402</ele>
        <time>2019-09-01T06:39:33Z</time>
      </trkpt>
      <trkpt lat="44.71316" lon="5.19351">
        <ele>403</ele>
        <time>2019-09-01T06:39:35Z</time>
      </trkpt>
      <trkpt lat="44.71312" lon="5.19352">
        <ele>403</ele>
        <time>2019-09-01T06:39:37Z</time>
      </trkpt>
      <trkpt lat="44.71308" lon="5.19354">
        <ele>404</ele>
        <time>2019-09-01T06:39:39Z</time>
      </trkpt>
      <trkpt lat="44.71303" lon="5.19356">
        <ele>404</ele>
        <time>2019-09-01T06:39:41Z</time>
      </trkpt>
      <trkpt lat="44.71298" lon="5.19358">
        <ele>404</ele>
        <time>2019-09-01T06:39:43Z</time>
      </trkpt>
      <trkpt lat="44.71294" lon="5.19361">
        <ele>405</ele>
        <time>2019-09-01T06:39:45Z</time>
      </trkpt>
      <trkpt lat="44.7129" lon="5.19363">
        <ele>405</ele>
        <time>2019-09-01T06:39:47Z</time>
      </trkpt>
      <trkpt lat="44.71286" lon="5.19366">
        <ele>405</ele>
        <time>2019-09-01T06:39:49Z</time>
      </trkpt>
      <trkpt lat="44.71282" lon="5.19366">
        <ele>405</ele>
        <time>2019-09-01T06:39:51Z</time>
      </trkpt>
      <trkpt lat="44.71279" lon="5.19367">
        <ele>405</ele>
        <time>2019-09-01T06:39:53Z</time>
      </trkpt>
      <trkpt lat="44.71275" lon="5.19367">
        <ele>405</ele>
        <time>2019-09-01T06:39:56Z</time>
      </trkpt>
      <trkpt lat="44.71273" lon="5.19368">
        <ele>405</ele>
        <time>2019-09-01T06:40:27Z</time>
      </trkpt>
      <trkpt lat="44.71269" lon="5.19369">
        <ele>405</ele>
        <time>2019-09-01T06:40:29Z</time>
      </trkpt>
      <trkpt lat="44.71264" lon="5.19371">
        <ele>405</ele>
        <time>2019-09-01T06:40:31Z</time>
      </trkpt>
      <trkpt lat="44.7126" lon="5.19373">
        <ele>405</ele>
        <time>2019-09-01T06:40:32Z</time>
      </trkpt>
      <trkpt lat="44.71257" lon="5.19375">
        <ele>406</ele>
        <time>2019-09-01T06:40:33Z</time>
      </trkpt>
      <trkpt lat="44.71253" lon="5.19377">
        <ele>406</ele>
        <time>2019-09-01T06:40:34Z</time>
      </trkpt>
      <trkpt lat="44.7125" lon="5.19379">
        <ele>399</ele>
        <time>2019-09-01T06:40:35Z</time>
      </trkpt>
      <trkpt lat="44.71246" lon="5.1938">
        <ele>400</ele>
        <time>2019-09-01T06:40:36Z</time>
      </trkpt>
      <trkpt lat="44.71243" lon="5.19382">
        <ele>400</ele>
        <time>2019-09-01T06:40:37Z</time>
      </trkpt>
      <trkpt lat="44.71239" lon="5.19384">
        <ele>400</ele>
        <time>2019-09-01T06:40:38Z</time>
      </trkpt>
      <trkpt lat="44.71236" lon="5.19385">
        <ele>400</ele>
        <time>2019-09-01T06:40:39Z</time>
      </trkpt>
      <trkpt lat="44.71233" lon="5.19387">
        <ele>400</ele>
        <time>2019-09-01T06:40:40Z</time>
      </trkpt>
      <trkpt lat="44.7123" lon="5.19389">
        <ele>400</ele>
        <time>2019-09-01T06:40:41Z</time>
      </trkpt>
      <trkpt lat="44.71227" lon="5.19391">
        <ele>400</ele>
        <time>2019-09-01T06:40:42Z</time>
      </trkpt>
      <trkpt lat="44.71224" lon="5.19393">
        <ele>400</ele>
        <time>2019-09-01T06:40:43Z</time>
      </trkpt>
      <trkpt lat="44.71221" lon="5.19395">
        <ele>400</ele>
        <time>2019-09-01T06:40:44Z</time>
      </trkpt>
      <trkpt lat="44.71218" lon="5.19397">
        <ele>400</ele>
        <time>2019-09-01T06:40:45Z</time>
      </trkpt>
      <trkpt lat="44.71215" lon="5.19399">
        <ele>400</ele>
        <time>2019-09-01T06:40:46Z</time>
      </trkpt>
      <trkpt lat="44.71213" lon="5.19402">
        <ele>400</ele>
        <time>2019-09-01T06:40:47Z</time>
      </trkpt>
      <trkpt lat="44.7121" lon="5.19404">
        <ele>399</ele>
        <time>2019-09-01T06:40:48Z</time>
      </trkpt>
      <trkpt lat="44.71207" lon="5.19406">
        <ele>399</ele>
        <time>2019-09-01T06:40:49Z</time>
      </trkpt>
      <trkpt lat="44.71204" lon="5.19408">
        <ele>399</ele>
        <time>2019-09-01T06:40:50Z</time>
      </trkpt>
      <trkpt lat="44.71201" lon="5.1941">
        <ele>399</ele>
        <time>2019-09-01T06:40:51Z</time>
      </trkpt>
      <trkpt lat="44.71198" lon="5.19412">
        <ele>398</ele>
        <time>2019-09-01T06:40:52Z</time>
      </trkpt>
      <trkpt lat="44.71195" lon="5.19414">
        <ele>398</ele>
        <time>2019-09-01T06:40:53Z</time>
      </trkpt>
      <trkpt lat="44.7119" lon="5.19417">
        <ele>407</ele>
        <time>2019-09-01T06:40:55Z</time>
      </trkpt>
      <trkpt lat="44.71188" lon="5.19419">
        <ele>407</ele>
        <time>2019-09-01T06:40:56Z</time>
      </trkpt>
      <trkpt lat="44.71185" lon="5.19421">
        <ele>406</ele>
        <time>2019-09-01T06:40:57Z</time>
      </trkpt>
      <trkpt lat="44.71182" lon="5.19426">
        <ele>406</ele>
        <time>2019-09-01T06:40:59Z</time>
      </trkpt>
      <trkpt lat="44.71179" lon="5.19432">
        <ele>406</ele>
        <time>2019-09-01T06:41:01Z</time>
      </trkpt>
      <trkpt lat="44.71178" lon="5.19438">
        <ele>407</ele>
        <time>2019-09-01T06:41:03Z</time>
      </trkpt>
      <trkpt lat="44.71178" lon="5.19444">
        <ele>407</ele>
        <time>2019-09-01T06:41:05Z</time>
      </trkpt>
      <trkpt lat="44.71179" lon="5.19449">
        <ele>408</ele>
        <time>2019-09-01T06:41:07Z</time>
      </trkpt>
      <trkpt lat="44.71181" lon="5.19455">
        <ele>408</ele>
        <time>2019-09-01T06:41:09Z</time>
      </trkpt>
      <trkpt lat="44.71182" lon="5.1946">
        <ele>409</ele>
        <time>2019-09-01T06:41:11Z</time>
      </trkpt>
      <trkpt lat="44.71183" lon="5.19466">
        <ele>409</ele>
        <time>2019-09-01T06:41:13Z</time>
      </trkpt>
      <trkpt lat="44.71185" lon="5.19472">
        <ele>409</ele>
        <time>2019-09-01T06:41:15Z</time>
      </trkpt>
      <trkpt lat="44.71187" lon="5.19478">
        <ele>409</ele>
        <time>2019-09-01T06:41:17Z</time>
      </trkpt>
      <trkpt lat="44.71188" lon="5.19484">
        <ele>409</ele>
        <time>2019-09-01T06:41:19Z</time>
      </trkpt>
      <trkpt lat="44.7119" lon="5.1949">
        <ele>409</ele>
        <time>2019-09-01T06:41:21Z</time>
      </trkpt>
      <trkpt lat="44.71192" lon="5.19496">
        <ele>409</ele>
        <time>2019-09-01T06:41:23Z</time>
      </trkpt>
      <trkpt lat="44.71194" lon="5.19502">
        <ele>409</ele>
        <time>2019-09-01T06:41:25Z</time>
      </trkpt>
      <trkpt lat="44.71196" lon="5.19508">
        <ele>410</ele>
        <time>2019-09-01T06:41:27Z</time>
      </trkpt>
      <trkpt lat="44.71198" lon="5.19514">
        <ele>410</ele>
        <time>2019-09-01T06:41:29Z</time>
      </trkpt>
      <trkpt lat="44.71199" lon="5.19518">
        <ele>410</ele>
        <time>2019-09-01T06:41:30Z</time>
      </trkpt>
      <trkpt lat="44.71201" lon="5.19525">
        <ele>410</ele>
        <time>2019-09-01T06:41:32Z</time>
      </trkpt>
      <trkpt lat="44.71203" lon="5.19531">
        <ele>411</ele>
        <time>2019-09-01T06:41:34Z</time>
      </trkpt>
      <trkpt lat="44.71205" lon="5.19536">
        <ele>411</ele>
        <time>2019-09-01T06:41:36Z</time>
      </trkpt>
      <trkpt lat="44.71207" lon="5.19542">
        <ele>411</ele>
        <time>2019-09-01T06:41:38Z</time>
      </trkpt>
      <trkpt lat="44.71209" lon="5.19547">
        <ele>411</ele>
        <time>2019-09-01T06:41:40Z</time>
      </trkpt>
      <trkpt lat="44.71211" lon="5.19552">
        <ele>411</ele>
        <time>2019-09-01T06:41:42Z</time>
      </trkpt>
      <trkpt lat="44.71212" lon="5.19557">
        <ele>411</ele>
        <time>2019-09-01T06:41:44Z</time>
      </trkpt>
      <trkpt lat="44.71215" lon="5.19562">
        <ele>411</ele>
        <time>2019-09-01T06:41:46Z</time>
      </trkpt>
      <trkpt lat="44.71217" lon="5.19566">
        <ele>412</ele>
        <time>2019-09-01T06:41:48Z</time>
      </trkpt>
      <trkpt lat="44.7122" lon="5.19571">
        <ele>412</ele>
        <time>2019-09-01T06:41:50Z</time>
      </trkpt>
      <trkpt lat="44.71223" lon="5.19575">
        <ele>413</ele>
        <time>2019-09-01T06:41:52Z</time>
      </trkpt>
      <trkpt lat="44.71226" lon="5.19577">
        <ele>413</ele>
        <time>2019-09-01T06:41:54Z</time>
      </trkpt>
      <trkpt lat="44.7123" lon="5.19579">
        <ele>414</ele>
        <time>2019-09-01T06:41:56Z</time>
      </trkpt>
      <trkpt lat="44.71234" lon="5.19579">
        <ele>415</ele>
        <time>2019-09-01T06:41:58Z</time>
      </trkpt>
      <trkpt lat="44.71238" lon="5.19578">
        <ele>416</ele>
        <time>2019-09-01T06:42:00Z</time>
      </trkpt>
      <trkpt lat="44.71243" lon="5.19578">
        <ele>417</ele>
        <time>2019-09-01T06:42:02Z</time>
      </trkpt>
      <trkpt lat="44.71247" lon="5.19577">
        <ele>418</ele>
        <time>2019-09-01T06:42:04Z</time>
      </trkpt>
      <trkpt lat="44.71251" lon="5.19577">
        <ele>423</ele>
        <time>2019-09-01T06:42:06Z</time>
      </trkpt>
      <trkpt lat="44.71255" lon="5.19577">
        <ele>423</ele>
        <time>2019-09-01T06:42:08Z</time>
      </trkpt>
      <trkpt lat="44.71259" lon="5.19577">
        <ele>424</ele>
        <time>2019-09-01T06:42:10Z</time>
      </trkpt>
      <trkpt lat="44.71262" lon="5.19577">
        <ele>425</ele>
        <time>2019-09-01T06:42:12Z</time>
      </trkpt>
      <trkpt lat="44.71266" lon="5.19577">
        <ele>426</ele>
        <time>2019-09-01T06:42:14Z</time>
      </trkpt>
      <trkpt lat="44.71269" lon="5.19576">
        <ele>427</ele>
        <time>2019-09-01T06:42:16Z</time>
      </trkpt>
      <trkpt lat="44.71272" lon="5.19576">
        <ele>427</ele>
        <time>2019-09-01T06:42:18Z</time>
      </trkpt>
      <trkpt lat="44.71275" lon="5.19575">
        <ele>428</ele>
        <time>2019-09-01T06:42:20Z</time>
      </trkpt>
      <trkpt lat="44.71279" lon="5.19575">
        <ele>429</ele>
        <time>2019-09-01T06:42:22Z</time>
      </trkpt>
      <trkpt lat="44.71283" lon="5.19576">
        <ele>429</ele>
        <time>2019-09-01T06:42:24Z</time>
      </trkpt>
      <trkpt lat="44.71287" lon="5.19577">
        <ele>430</ele>
        <time>2019-09-01T06:42:26Z</time>
      </trkpt>
      <trkpt lat="44.71291" lon="5.19577">
        <ele>431</ele>
        <time>2019-09-01T06:42:28Z</time>
      </trkpt>
      <trkpt lat="44.71295" lon="5.19578">
        <ele>431</ele>
        <time>2019-09-01T06:42:30Z</time>
      </trkpt>
      <trkpt lat="44.71299" lon="5.19578">
        <ele>432</ele>
        <time>2019-09-01T06:42:32Z</time>
      </trkpt>
      <trkpt lat="44.71302" lon="5.19579">
        <ele>432</ele>
        <time>2019-09-01T06:42:34Z</time>
      </trkpt>
      <trkpt lat="44.71305" lon="5.19581">
        <ele>433</ele>
        <time>2019-09-01T06:42:36Z</time>
      </trkpt>
      <trkpt lat="44.71309" lon="5.19583">
        <ele>433</ele>
        <time>2019-09-01T06:42:38Z</time>
      </trkpt>
      <trkpt lat="44.71313" lon="5.19585">
        <ele>427</ele>
        <time>2019-09-01T06:42:40Z</time>
      </trkpt>
      <trkpt lat="44.71316" lon="5.19587">
        <ele>428</ele>
        <time>2019-09-01T06:42:42Z</time>
      </trkpt>
      <trkpt lat="44.7132" lon="5.19589">
        <ele>429</ele>
        <time>2019-09-01T06:42:44Z</time>
      </trkpt>
      <trkpt lat="44.71323" lon="5.19593">
        <ele>429</ele>
        <time>2019-09-01T06:42:46Z</time>
      </trkpt>
      <trkpt lat="44.71326" lon="5.19596">
        <ele>429</ele>
        <time>2019-09-01T06:42:48Z</time>
      </trkpt>
      <trkpt lat="44.71328" lon="5.19599">
        <ele>429</ele>
        <time>2019-09-01T06:42:50Z</time>
      </trkpt>
      <trkpt lat="44.71331" lon="5.19601">
        <ele>428</ele>
        <time>2019-09-01T06:42:52Z</time>
      </trkpt>
      <trkpt lat="44.71334" lon="5.19605">
        <ele>438</ele>
        <time>2019-09-01T06:42:54Z</time>
      </trkpt>
      <trkpt lat="44.71337" lon="5.1961">
        <ele>437</ele>
        <time>2019-09-01T06:42:56Z</time>
      </trkpt>
      <trkpt lat="44.71339" lon="5.19615">
        <ele>437</ele>
        <time>2019-09-01T06:42:58Z</time>
      </trkpt>
      <trkpt lat="44.71341" lon="5.19619">
        <ele>437</ele>
        <time>2019-09-01T06:43:00Z</time>
      </trkpt>
      <trkpt lat="44.71343" lon="5.19623">
        <ele>436</ele>
        <time>2019-09-01T06:43:02Z</time>
      </trkpt>
      <trkpt lat="44.71345" lon="5.19628">
        <ele>436</ele>
        <time>2019-09-01T06:43:04Z</time>
      </trkpt>
      <trkpt lat="44.71346" lon="5.19634">
        <ele>435</ele>
        <time>2019-09-01T06:43:06Z</time>
      </trkpt>
      <trkpt lat="44.71348" lon="5.19639">
        <ele>434</ele>
        <time>2019-09-01T06:43:08Z</time>
      </trkpt>
      <trkpt lat="44.71349" lon="5.19643">
        <ele>433</ele>
        <time>2019-09-01T06:43:10Z</time>
      </trkpt>
      <trkpt lat="44.7135" lon="5.19646">
        <ele>433</ele>
        <time>2019-09-01T06:43:12Z</time>
      </trkpt>
      <trkpt lat="44.71352" lon="5.19649">
        <ele>433</ele>
        <time>2019-09-01T06:43:14Z</time>
      </trkpt>
      <trkpt lat="44.71354" lon="5.19653">
        <ele>432</ele>
        <time>2019-09-01T06:43:16Z</time>
      </trkpt>
      <trkpt lat="44.71356" lon="5.19657">
        <ele>432</ele>
        <time>2019-09-01T06:43:18Z</time>
      </trkpt>
      <trkpt lat="44.71359" lon="5.1966">
        <ele>433</ele>
        <time>2019-09-01T06:43:21Z</time>
      </trkpt>
      <trkpt lat="44.71362" lon="5.19663">
        <ele>434</ele>
        <time>2019-09-01T06:43:24Z</time>
      </trkpt>
      <trkpt lat="44.71365" lon="5.19665">
        <ele>434</ele>
        <time>2019-09-01T06:43:26Z</time>
      </trkpt>
      <trkpt lat="44.71368" lon="5.19668">
        <ele>418</ele>
        <time>2019-09-01T06:43:28Z</time>
      </trkpt>
      <trkpt lat="44.71371" lon="5.19671">
        <ele>419</ele>
        <time>2019-09-01T06:43:30Z</time>
      </trkpt>
      <trkpt lat="44.71374" lon="5.19672">
        <ele>419</ele>
        <time>2019-09-01T06:43:32Z</time>
      </trkpt>
      <trkpt lat="44.71377" lon="5.19674">
        <ele>420</ele>
        <time>2019-09-01T06:43:34Z</time>
      </trkpt>
      <trkpt lat="44.71381" lon="5.19677">
        <ele>420</ele>
        <time>2019-09-01T06:43:36Z</time>
      </trkpt>
      <trkpt lat="44.71384" lon="5.19679">
        <ele>421</ele>
        <time>2019-09-01T06:43:38Z</time>
      </trkpt>
      <trkpt lat="44.71388" lon="5.1968">
        <ele>422</ele>
        <time>2019-09-01T06:43:40Z</time>
      </trkpt>
      <trkpt lat="44.71392" lon="5.19681">
        <ele>423</ele>
        <time>2019-09-01T06:43:42Z</time>
      </trkpt>
      <trkpt lat="44.71397" lon="5.19683">
        <ele>425</ele>
        <time>2019-09-01T06:43:44Z</time>
      </trkpt>
      <trkpt lat="44.71401" lon="5.19684">
        <ele>426</ele>
        <time>2019-09-01T06:43:46Z</time>
      </trkpt>
      <trkpt lat="44.71405" lon="5.19685">
        <ele>427</ele>
        <time>2019-09-01T06:43:48Z</time>
      </trkpt>
      <trkpt lat="44.71409" lon="5.19686">
        <ele>427</ele>
        <time>2019-09-01T06:43:50Z</time>
      </trkpt>
      <trkpt lat="44.71412" lon="5.19687">
        <ele>427</ele>
        <time>2019-09-01T06:43:51Z</time>
      </trkpt>
      <trkpt lat="44.71417" lon="5.19689">
        <ele>432</ele>
        <time>2019-09-01T06:43:53Z</time>
      </trkpt>
      <trkpt lat="44.71422" lon="5.1969">
        <ele>432</ele>
        <time>2019-09-01T06:43:55Z</time>
      </trkpt>
      <trkpt lat="44.71424" lon="5.1969">
        <ele>431</ele>
        <time>2019-09-01T06:43:56Z</time>
      </trkpt>
      <trkpt lat="44.71427" lon="5.19692">
        <ele>431</ele>
        <time>2019-09-01T06:43:57Z</time>
      </trkpt>
      <trkpt lat="44.7143" lon="5.19693">
        <ele>430</ele>
        <time>2019-09-01T06:43:58Z</time>
      </trkpt>
      <trkpt lat="44.71436" lon="5.19694">
        <ele>429</ele>
        <time>2019-09-01T06:44:00Z</time>
      </trkpt>
      <trkpt lat="44.71438" lon="5.19695">
        <ele>428</ele>
        <time>2019-09-01T06:44:01Z</time>
      </trkpt>
      <trkpt lat="44.71441" lon="5.19695">
        <ele>428</ele>
        <time>2019-09-01T06:44:02Z</time>
      </trkpt>
      <trkpt lat="44.71444" lon="5.19696">
        <ele>427</ele>
        <time>2019-09-01T06:44:03Z</time>
      </trkpt>
      <trkpt lat="44.71447" lon="5.19695">
        <ele>427</ele>
        <time>2019-09-01T06:44:04Z</time>
      </trkpt>
      <trkpt lat="44.7145" lon="5.19696">
        <ele>427</ele>
        <time>2019-09-01T06:44:05Z</time>
      </trkpt>
      <trkpt lat="44.71453" lon="5.19696">
        <ele>427</ele>
        <time>2019-09-01T06:44:06Z</time>
      </trkpt>
      <trkpt lat="44.71456" lon="5.19696">
        <ele>426</ele>
        <time>2019-09-01T06:44:07Z</time>
      </trkpt>
      <trkpt lat="44.71462" lon="5.19695">
        <ele>426</ele>
        <time>2019-09-01T06:44:09Z</time>
      </trkpt>
      <trkpt lat="44.71464" lon="5.19693">
        <ele>427</ele>
        <time>2019-09-01T06:44:10Z</time>
      </trkpt>
      <trkpt lat="44.71469" lon="5.19691">
        <ele>427</ele>
        <time>2019-09-01T06:44:12Z</time>
      </trkpt>
      <trkpt lat="44.71474" lon="5.19688">
        <ele>428</ele>
        <time>2019-09-01T06:44:14Z</time>
      </trkpt>
      <trkpt lat="44.71478" lon="5.19687">
        <ele>428</ele>
        <time>2019-09-01T06:44:16Z</time>
      </trkpt>
      <trkpt lat="44.71483" lon="5.19683">
        <ele>430</ele>
        <time>2019-09-01T06:44:18Z</time>
      </trkpt>
      <trkpt lat="44.71485" lon="5.1968">
        <ele>431</ele>
        <time>2019-09-01T06:44:19Z</time>
      </trkpt>
      <trkpt lat="44.71488" lon="5.19678">
        <ele>432</ele>
        <time>2019-09-01T06:44:20Z</time>
      </trkpt>
      <trkpt lat="44.7149" lon="5.19675">
        <ele>433</ele>
        <time>2019-09-01T06:44:21Z</time>
      </trkpt>
      <trkpt lat="44.71492" lon="5.19673">
        <ele>435</ele>
        <time>2019-09-01T06:44:22Z</time>
      </trkpt>
      <trkpt lat="44.71495" lon="5.19671">
        <ele>436</ele>
        <time>2019-09-01T06:44:23Z</time>
      </trkpt>
      <trkpt lat="44.71498" lon="5.19669">
        <ele>438</ele>
        <time>2019-09-01T06:44:24Z</time>
      </trkpt>
      <trkpt lat="44.715" lon="5.19668">
        <ele>439</ele>
        <time>2019-09-01T06:44:25Z</time>
      </trkpt>
      <trkpt lat="44.71503" lon="5.19667">
        <ele>440</ele>
        <time>2019-09-01T06:44:26Z</time>
      </trkpt>
      <trkpt lat="44.71506" lon="5.19665">
        <ele>440</ele>
        <time>2019-09-01T06:44:27Z</time>
      </trkpt>
      <trkpt lat="44.71509" lon="5.19663">
        <ele>440</ele>
        <time>2019-09-01T06:44:28Z</time>
      </trkpt>
      <trkpt lat="44.71511" lon="5.19662">
        <ele>440</ele>
        <time>2019-09-01T06:44:29Z</time>
      </trkpt>
      <trkpt lat="44.71514" lon="5.1966">
        <ele>441</ele>
        <time>2019-09-01T06:44:30Z</time>
      </trkpt>
      <trkpt lat="44.71517" lon="5.19658">
        <ele>441</ele>
        <time>2019-09-01T06:44:31Z</time>
      </trkpt>
      <trkpt lat="44.71519" lon="5.19657">
        <ele>441</ele>
        <time>2019-09-01T06:44:32Z</time>
      </trkpt>
      <trkpt lat="44.71522" lon="5.19655">
        <ele>441</ele>
        <time>2019-09-01T06:44:33Z</time>
      </trkpt>
      <trkpt lat="44.71524" lon="5.19653">
        <ele>441</ele>
        <time>2019-09-01T06:44:34Z</time>
      </trkpt>
      <trkpt lat="44.71529" lon="5.1965">
        <ele>440</ele>
        <time>2019-09-01T06:44:36Z</time>
      </trkpt>
      <trkpt lat="44.71532" lon="5.19649">
        <ele>440</ele>
        <time>2019-09-01T06:44:37Z</time>
      </trkpt>
      <trkpt lat="44.71535" lon="5.19648">
        <ele>440</ele>
        <time>2019-09-01T06:44:38Z</time>
      </trkpt>
      <trkpt lat="44.71538" lon="5.19647">
        <ele>440</ele>
        <time>2019-09-01T06:44:39Z</time>
      </trkpt>
      <trkpt lat="44.71541" lon="5.19645">
        <ele>440</ele>
        <time>2019-09-01T06:44:40Z</time>
      </trkpt>
      <trkpt lat="44.71546" lon="5.19643">
        <ele>439</ele>
        <time>2019-09-01T06:44:42Z</time>
      </trkpt>
      <trkpt lat="44.71549" lon="5.19642">
        <ele>439</ele>
        <time>2019-09-01T06:44:43Z</time>
      </trkpt>
      <trkpt lat="44.71552" lon="5.19641">
        <ele>439</ele>
        <time>2019-09-01T06:44:44Z</time>
      </trkpt>
      <trkpt lat="44.71554" lon="5.1964">
        <ele>439</ele>
        <time>2019-09-01T06:44:45Z</time>
      </trkpt>
      <trkpt lat="44.7156" lon="5.19639">
        <ele>438</ele>
        <time>2019-09-01T06:44:47Z</time>
      </trkpt>
      <trkpt lat="44.71565" lon="5.19638">
        <ele>438</ele>
        <time>2019-09-01T06:44:49Z</time>
      </trkpt>
      <trkpt lat="44.71567" lon="5.19637">
        <ele>438</ele>
        <time>2019-09-01T06:44:50Z</time>
      </trkpt>
      <trkpt lat="44.7157" lon="5.19636">
        <ele>438</ele>
        <time>2019-09-01T06:44:51Z</time>
      </trkpt>
      <trkpt lat="44.71573" lon="5.19634">
        <ele>438</ele>
        <time>2019-09-01T06:44:52Z</time>
      </trkpt>
      <trkpt lat="44.71576" lon="5.19633">
        <ele>438</ele>
        <time>2019-09-01T06:44:53Z</time>
      </trkpt>
      <trkpt lat="44.71581" lon="5.19634">
        <ele>438</ele>
        <time>2019-09-01T06:44:55Z</time>
      </trkpt>
      <trkpt lat="44.71583" lon="5.19634">
        <ele>431</ele>
        <time>2019-09-01T06:44:56Z</time>
      </trkpt>
      <trkpt lat="44.71586" lon="5.19634">
        <ele>430</ele>
        <time>2019-09-01T06:44:57Z</time>
      </trkpt>
      <trkpt lat="44.7159" lon="5.19634">
        <ele>430</ele>
        <time>2019-09-01T06:44:58Z</time>
      </trkpt>
      <trkpt lat="44.71593" lon="5.19635">
        <ele>430</ele>
        <time>2019-09-01T06:44:59Z</time>
      </trkpt>
      <trkpt lat="44.71595" lon="5.19635">
        <ele>430</ele>
        <time>2019-09-01T06:45:00Z</time>
      </trkpt>
      <trkpt lat="44.716" lon="5.19635">
        <ele>430</ele>
        <time>2019-09-01T06:45:02Z</time>
      </trkpt>
      <trkpt lat="44.71603" lon="5.19634">
        <ele>430</ele>
        <time>2019-09-01T06:45:03Z</time>
      </trkpt>
      <trkpt lat="44.71607" lon="5.19634">
        <ele>430</ele>
        <time>2019-09-01T06:45:04Z</time>
      </trkpt>
      <trkpt lat="44.71611" lon="5.19635">
        <ele>430</ele>
        <time>2019-09-01T06:45:05Z</time>
      </trkpt>
      <trkpt lat="44.71615" lon="5.19636">
        <ele>429</ele>
        <time>2019-09-01T06:45:06Z</time>
      </trkpt>
      <trkpt lat="44.71619" lon="5.19637">
        <ele>429</ele>
        <time>2019-09-01T06:45:07Z</time>
      </trkpt>
      <trkpt lat="44.71624" lon="5.19638">
        <ele>429</ele>
        <time>2019-09-01T06:45:08Z</time>
      </trkpt>
      <trkpt lat="44.71628" lon="5.19636">
        <ele>428</ele>
        <time>2019-09-01T06:45:09Z</time>
      </trkpt>
      <trkpt lat="44.71632" lon="5.19634">
        <ele>429</ele>
        <time>2019-09-01T06:45:10Z</time>
      </trkpt>
      <trkpt lat="44.71635" lon="5.19633">
        <ele>429</ele>
        <time>2019-09-01T06:45:11Z</time>
      </trkpt>
      <trkpt lat="44.71639" lon="5.1963">
        <ele>429</ele>
        <time>2019-09-01T06:45:12Z</time>
      </trkpt>
      <trkpt lat="44.71643" lon="5.19627">
        <ele>429</ele>
        <time>2019-09-01T06:45:13Z</time>
      </trkpt>
      <trkpt lat="44.71648" lon="5.19623">
        <ele>430</ele>
        <time>2019-09-01T06:45:14Z</time>
      </trkpt>
      <trkpt lat="44.71652" lon="5.19619">
        <ele>431</ele>
        <time>2019-09-01T06:45:15Z</time>
      </trkpt>
      <trkpt lat="44.71657" lon="5.19616">
        <ele>432</ele>
        <time>2019-09-01T06:45:16Z</time>
      </trkpt>
      <trkpt lat="44.71663" lon="5.19613">
        <ele>433</ele>
        <time>2019-09-01T06:45:17Z</time>
      </trkpt>
      <trkpt lat="44.71669" lon="5.1961">
        <ele>426</ele>
        <time>2019-09-01T06:45:18Z</time>
      </trkpt>
      <trkpt lat="44.71675" lon="5.19606">
        <ele>427</ele>
        <time>2019-09-01T06:45:19Z</time>
      </trkpt>
      <trkpt lat="44.71682" lon="5.19602">
        <ele>427</ele>
        <time>2019-09-01T06:45:20Z</time>
      </trkpt>
      <trkpt lat="44.71689" lon="5.19598">
        <ele>426</ele>
        <time>2019-09-01T06:45:21Z</time>
      </trkpt>
      <trkpt lat="44.71697" lon="5.19596">
        <ele>424</ele>
        <time>2019-09-01T06:45:22Z</time>
      </trkpt>
      <trkpt lat="44.71705" lon="5.19593">
        <ele>423</ele>
        <time>2019-09-01T06:45:23Z</time>
      </trkpt>
      <trkpt lat="44.71713" lon="5.1959">
        <ele>422</ele>
        <time>2019-09-01T06:45:24Z</time>
      </trkpt>
      <trkpt lat="44.71722" lon="5.19587">
        <ele>422</ele>
        <time>2019-09-01T06:45:25Z</time>
      </trkpt>
      <trkpt lat="44.7173" lon="5.19585">
        <ele>422</ele>
        <time>2019-09-01T06:45:26Z</time>
      </trkpt>
      <trkpt lat="44.71739" lon="5.19582">
        <ele>430</ele>
        <time>2019-09-01T06:45:27Z</time>
      </trkpt>
      <trkpt lat="44.71748" lon="5.19578">
        <ele>428</ele>
        <time>2019-09-01T06:45:28Z</time>
      </trkpt>
      <trkpt lat="44.71758" lon="5.19574">
        <ele>425</ele>
        <time>2019-09-01T06:45:29Z</time>
      </trkpt>
      <trkpt lat="44.71767" lon="5.19571">
        <ele>425</ele>
        <time>2019-09-01T06:45:30Z</time>
      </trkpt>
      <trkpt lat="44.71776" lon="5.19567">
        <ele>425</ele>
        <time>2019-09-01T06:45:31Z</time>
      </trkpt>
      <trkpt lat="44.71786" lon="5.19562">
        <ele>424</ele>
        <time>2019-09-01T06:45:32Z</time>
      </trkpt>
      <trkpt lat="44.71797" lon="5.19558">
        <ele>423</ele>
        <time>2019-09-01T06:45:33Z</time>
      </trkpt>
      <trkpt lat="44.71806" lon="5.19555">
        <ele>422</ele>
        <time>2019-09-01T06:45:34Z</time>
      </trkpt>
      <trkpt lat="44.71816" lon="5.19553">
        <ele>422</ele>
        <time>2019-09-01T06:45:35Z</time>
      </trkpt>
      <trkpt lat="44.71827" lon="5.19551">
        <ele>421</ele>
        <time>2019-09-01T06:45:36Z</time>
      </trkpt>
      <trkpt lat="44.71837" lon="5.1955">
        <ele>413</ele>
        <time>2019-09-01T06:45:37Z</time>
      </trkpt>
      <trkpt lat="44.71848" lon="5.19548">
        <ele>413</ele>
        <time>2019-09-01T06:45:38Z</time>
      </trkpt>
      <trkpt lat="44.71859" lon="5.19545">
        <ele>414</ele>
        <time>2019-09-01T06:45:39Z</time>
      </trkpt>
      <trkpt lat="44.7187" lon="5.19542">
        <ele>413</ele>
        <time>2019-09-01T06:45:40Z</time>
      </trkpt>
      <trkpt lat="44.7188" lon="5.19539">
        <ele>413</ele>
        <time>2019-09-01T06:45:41Z</time>
      </trkpt>
      <trkpt lat="44.71888" lon="5.19536">
        <ele>413</ele>
        <time>2019-09-01T06:45:42Z</time>
      </trkpt>
      <trkpt lat="44.71894" lon="5.19533">
        <ele>413</ele>
        <time>2019-09-01T06:45:43Z</time>
      </trkpt>
      <trkpt lat="44.71899" lon="5.19531">
        <ele>414</ele>
        <time>2019-09-01T06:45:44Z</time>
      </trkpt>
      <trkpt lat="44.71905" lon="5.19533">
        <ele>413</ele>
        <time>2019-09-01T06:45:45Z</time>
      </trkpt>
      <trkpt lat="44.7191" lon="5.19535">
        <ele>412</ele>
        <time>2019-09-01T06:45:46Z</time>
      </trkpt>
      <trkpt lat="44.71917" lon="5.1954">
        <ele>411</ele>
        <time>2019-09-01T06:45:47Z</time>
      </trkpt>
      <trkpt lat="44.71923" lon="5.19545">
        <ele>403</ele>
        <time>2019-09-01T06:45:48Z</time>
      </trkpt>
      <trkpt lat="44.7193" lon="5.1955">
        <ele>402</ele>
        <time>2019-09-01T06:45:49Z</time>
      </trkpt>
      <trkpt lat="44.71938" lon="5.19555">
        <ele>401</ele>
        <time>2019-09-01T06:45:50Z</time>
      </trkpt>
      <trkpt lat="44.71946" lon="5.19559">
        <ele>400</ele>
        <time>2019-09-01T06:45:51Z</time>
      </trkpt>
      <trkpt lat="44.71953" lon="5.19562">
        <ele>400</ele>
        <time>2019-09-01T06:45:52Z</time>
      </trkpt>
      <trkpt lat="44.7196" lon="5.19562">
        <ele>399</ele>
        <time>2019-09-01T06:45:53Z</time>
      </trkpt>
      <trkpt lat="44.71968" lon="5.19558">
        <ele>399</ele>
        <time>2019-09-01T06:45:54Z</time>
      </trkpt>
      <trkpt lat="44.71976" lon="5.19552">
        <ele>400</ele>
        <time>2019-09-01T06:45:55Z</time>
      </trkpt>
      <trkpt lat="44.71984" lon="5.19546">
        <ele>400</ele>
        <time>2019-09-01T06:45:56Z</time>
      </trkpt>
      <trkpt lat="44.71992" lon="5.19539">
        <ele>402</ele>
        <time>2019-09-01T06:45:57Z</time>
      </trkpt>
      <trkpt lat="44.72" lon="5.19532">
        <ele>403</ele>
        <time>2019-09-01T06:45:58Z</time>
      </trkpt>
      <trkpt lat="44.72007" lon="5.19526">
        <ele>401</ele>
        <time>2019-09-01T06:45:59Z</time>
      </trkpt>
      <trkpt lat="44.72013" lon="5.19523">
        <ele>401</ele>
        <time>2019-09-01T06:46:00Z</time>
      </trkpt>
      <trkpt lat="44.7202" lon="5.1952">
        <ele>401</ele>
        <time>2019-09-01T06:46:01Z</time>
      </trkpt>
      <trkpt lat="44.72026" lon="5.19519">
        <ele>401</ele>
        <time>2019-09-01T06:46:02Z</time>
      </trkpt>
      <trkpt lat="44.72034" lon="5.19518">
        <ele>400</ele>
        <time>2019-09-01T06:46:03Z</time>
      </trkpt>
      <trkpt lat="44.72042" lon="5.19519">
        <ele>399</ele>
        <time>2019-09-01T06:46:04Z</time>
      </trkpt>
      <trkpt lat="44.7205" lon="5.19521">
        <ele>399</ele>
        <time>2019-09-01T06:46:05Z</time>
      </trkpt>
      <trkpt lat="44.72059" lon="5.19521">
        <ele>399</ele>
        <time>2019-09-01T06:46:06Z</time>
      </trkpt>
      <trkpt lat="44.72067" lon="5.19521">
        <ele>399</ele>
        <time>2019-09-01T06:46:07Z</time>
      </trkpt>
      <trkpt lat="44.72075" lon="5.1952">
        <ele>399</ele>
        <time>2019-09-01T06:46:08Z</time>
      </trkpt>
      <trkpt lat="44.72084" lon="5.1952">
        <ele>398</ele>
        <time>2019-09-01T06:46:09Z</time>
      </trkpt>
      <trkpt lat="44.72092" lon="5.19519">
        <ele>398</ele>
        <time>2019-09-01T06:46:10Z</time>
      </trkpt>
      <trkpt lat="44.72101" lon="5.19517">
        <ele>398</ele>
        <time>2019-09-01T06:46:11Z</time>
      </trkpt>
      <trkpt lat="44.7211" lon="5.19516">
        <ele>398</ele>
        <time>2019-09-01T06:46:12Z</time>
      </trkpt>
      <trkpt lat="44.72119" lon="5.19515">
        <ele>398</ele>
        <time>2019-09-01T06:46:13Z</time>
      </trkpt>
      <trkpt lat="44.72126" lon="5.19512">
        <ele>397</ele>
        <time>2019-09-01T06:46:14Z</time>
      </trkpt>
      <trkpt lat="44.72131" lon="5.19509">
        <ele>397</ele>
        <time>2019-09-01T06:46:15Z</time>
      </trkpt>
      <trkpt lat="44.72134" lon="5.19506">
        <ele>397</ele>
        <time>2019-09-01T06:46:16Z</time>
      </trkpt>
      <trkpt lat="44.72137" lon="5.19504">
        <ele>397</ele>
        <time>2019-09-01T06:46:17Z</time>
      </trkpt>
      <trkpt lat="44.7214" lon="5.19505">
        <ele>397</ele>
        <time>2019-09-01T06:46:18Z</time>
      </trkpt>
      <trkpt lat="44.72142" lon="5.1951">
        <ele>397</ele>
        <time>2019-09-01T06:46:19Z</time>
      </trkpt>
      <trkpt lat="44.72143" lon="5.19515">
        <ele>397</ele>
        <time>2019-09-01T06:46:20Z</time>
      </trkpt>
      <trkpt lat="44.72144" lon="5.1952">
        <ele>397</ele>
        <time>2019-09-01T06:46:21Z</time>
      </trkpt>
      <trkpt lat="44.72144" lon="5.19524">
        <ele>397</ele>
        <time>2019-09-01T06:46:22Z</time>
      </trkpt>
      <trkpt lat="44.72143" lon="5.1953">
        <ele>397</ele>
        <time>2019-09-01T06:46:24Z</time>
      </trkpt>
      <trkpt lat="44.7214" lon="5.19536">
        <ele>398</ele>
        <time>2019-09-01T06:46:26Z</time>
      </trkpt>
      <trkpt lat="44.72137" lon="5.19542">
        <ele>398</ele>
        <time>2019-09-01T06:46:28Z</time>
      </trkpt>
      <trkpt lat="44.72133" lon="5.19546">
        <ele>398</ele>
        <time>2019-09-01T06:46:30Z</time>
      </trkpt>
      <trkpt lat="44.7213" lon="5.1955">
        <ele>398</ele>
        <time>2019-09-01T06:46:32Z</time>
      </trkpt>
      <trkpt lat="44.72126" lon="5.19554">
        <ele>398</ele>
        <time>2019-09-01T06:46:34Z</time>
      </trkpt>
      <trkpt lat="44.72124" lon="5.19557">
        <ele>398</ele>
        <time>2019-09-01T06:46:35Z</time>
      </trkpt>
      <trkpt lat="44.72122" lon="5.19559">
        <ele>398</ele>
        <time>2019-09-01T06:46:36Z</time>
      </trkpt>
      <trkpt lat="44.72118" lon="5.19563">
        <ele>398</ele>
        <time>2019-09-01T06:46:38Z</time>
      </trkpt>
      <trkpt lat="44.72114" lon="5.19566">
        <ele>398</ele>
        <time>2019-09-01T06:46:40Z</time>
      </trkpt>
      <trkpt lat="44.72109" lon="5.19568">
        <ele>398</ele>
        <time>2019-09-01T06:46:42Z</time>
      </trkpt>
      <trkpt lat="44.72106" lon="5.19568">
        <ele>398</ele>
        <time>2019-09-01T06:46:43Z</time>
      </trkpt>
      <trkpt lat="44.72103" lon="5.1957">
        <ele>398</ele>
        <time>2019-09-01T06:46:44Z</time>
      </trkpt>
      <trkpt lat="44.72099" lon="5.19573">
        <ele>397</ele>
        <time>2019-09-01T06:46:46Z</time>
      </trkpt>
      <trkpt lat="44.72096" lon="5.19577">
        <ele>397</ele>
        <time>2019-09-01T06:46:48Z</time>
      </trkpt>
      <trkpt lat="44.72092" lon="5.19579">
        <ele>397</ele>
        <time>2019-09-01T06:46:50Z</time>
      </trkpt>
      <trkpt lat="44.72089" lon="5.19583">
        <ele>397</ele>
        <time>2019-09-01T06:46:52Z</time>
      </trkpt>
      <trkpt lat="44.72086" lon="5.19587">
        <ele>399</ele>
        <time>2019-09-01T06:46:54Z</time>
      </trkpt>
      <trkpt lat="44.72081" lon="5.19592">
        <ele>398</ele>
        <time>2019-09-01T06:46:56Z</time>
      </trkpt>
      <trkpt lat="44.72077" lon="5.19595">
        <ele>398</ele>
        <time>2019-09-01T06:46:58Z</time>
      </trkpt>
      <trkpt lat="44.72073" lon="5.19596">
        <ele>399</ele>
        <time>2019-09-01T06:47:00Z</time>
      </trkpt>
      <trkpt lat="44.72069" lon="5.19598">
        <ele>399</ele>
        <time>2019-09-01T06:47:02Z</time>
      </trkpt>
      <trkpt lat="44.72064" lon="5.19599">
        <ele>400</ele>
        <time>2019-09-01T06:47:04Z</time>
      </trkpt>
      <trkpt lat="44.7206" lon="5.19601">
        <ele>400</ele>
        <time>2019-09-01T06:47:06Z</time>
      </trkpt>
      <trkpt lat="44.72056" lon="5.19604">
        <ele>400</ele>
        <time>2019-09-01T06:47:08Z</time>
      </trkpt>
      <trkpt lat="44.72051" lon="5.19607">
        <ele>400</ele>
        <time>2019-09-01T06:47:10Z</time>
      </trkpt>
      <trkpt lat="44.72047" lon="5.1961">
        <ele>400</ele>
        <time>2019-09-01T06:47:12Z</time>
      </trkpt>
      <trkpt lat="44.72044" lon="5.19613">
        <ele>400</ele>
        <time>2019-09-01T06:47:14Z</time>
      </trkpt>
      <trkpt lat="44.7204" lon="5.19618">
        <ele>400</ele>
        <time>2019-09-01T06:47:16Z</time>
      </trkpt>
      <trkpt lat="44.72036" lon="5.19621">
        <ele>401</ele>
        <time>2019-09-01T06:47:18Z</time>
      </trkpt>
      <trkpt lat="44.72032" lon="5.19626">
        <ele>401</ele>
        <time>2019-09-01T06:47:20Z</time>
      </trkpt>
      <trkpt lat="44.7203" lon="5.19631">
        <ele>401</ele>
        <time>2019-09-01T06:47:22Z</time>
      </trkpt>
      <trkpt lat="44.72026" lon="5.19636">
        <ele>402</ele>
        <time>2019-09-01T06:47:24Z</time>
      </trkpt>
      <trkpt lat="44.72022" lon="5.19639">
        <ele>402</ele>
        <time>2019-09-01T06:47:26Z</time>
      </trkpt>
      <trkpt lat="44.72018" lon="5.19643">
        <ele>402</ele>
        <time>2019-09-01T06:47:28Z</time>
      </trkpt>
      <trkpt lat="44.72015" lon="5.19647">
        <ele>402</ele>
        <time>2019-09-01T06:47:30Z</time>
      </trkpt>
      <trkpt lat="44.72012" lon="5.19652">
        <ele>402</ele>
        <time>2019-09-01T06:47:32Z</time>
      </trkpt>
      <trkpt lat="44.72009" lon="5.19656">
        <ele>402</ele>
        <time>2019-09-01T06:47:34Z</time>
      </trkpt>
      <trkpt lat="44.72005" lon="5.19659">
        <ele>403</ele>
        <time>2019-09-01T06:47:36Z</time>
      </trkpt>
      <trkpt lat="44.72003" lon="5.19663">
        <ele>403</ele>
        <time>2019-09-01T06:47:38Z</time>
      </trkpt>
      <trkpt lat="44.72" lon="5.19667">
        <ele>403</ele>
        <time>2019-09-01T06:47:40Z</time>
      </trkpt>
      <trkpt lat="44.71997" lon="5.19671">
        <ele>405</ele>
        <time>2019-09-01T06:47:42Z</time>
      </trkpt>
      <trkpt lat="44.71993" lon="5.19675">
        <ele>407</ele>
        <time>2019-09-01T06:47:44Z</time>
      </trkpt>
      <trkpt lat="44.7199" lon="5.19678">
        <ele>408</ele>
        <time>2019-09-01T06:47:46Z</time>
      </trkpt>
      <trkpt lat="44.71987" lon="5.19681">
        <ele>409</ele>
        <time>2019-09-01T06:47:48Z</time>
      </trkpt>
      <trkpt lat="44.71984" lon="5.19684">
        <ele>410</ele>
        <time>2019-09-01T06:47:50Z</time>
      </trkpt>
      <trkpt lat="44.7198" lon="5.19687">
        <ele>411</ele>
        <time>2019-09-01T06:47:52Z</time>
      </trkpt>
      <trkpt lat="44.71976" lon="5.1969">
        <ele>411</ele>
        <time>2019-09-01T06:47:54Z</time>
      </trkpt>
      <trkpt lat="44.71973" lon="5.19693">
        <ele>412</ele>
        <time>2019-09-01T06:47:56Z</time>
      </trkpt>
      <trkpt lat="44.71968" lon="5.19696">
        <ele>412</ele>
        <time>2019-09-01T06:47:58Z</time>
      </trkpt>
      <trkpt lat="44.71964" lon="5.19697">
        <ele>412</ele>
        <time>2019-09-01T06:48:00Z</time>
      </trkpt>
      <trkpt lat="44.71959" lon="5.19699">
        <ele>412</ele>
        <time>2019-09-01T06:48:02Z</time>
      </trkpt>
      <trkpt lat="44.71954" lon="5.19701">
        <ele>412</ele>
        <time>2019-09-01T06:48:04Z</time>
      </trkpt>
      <trkpt lat="44.7195" lon="5.19701">
        <ele>412</ele>
        <time>2019-09-01T06:48:06Z</time>
      </trkpt>
      <trkpt lat="44.71945" lon="5.19703">
        <ele>411</ele>
        <time>2019-09-01T06:48:08Z</time>
      </trkpt>
      <trkpt lat="44.71939" lon="5.19703">
        <ele>411</ele>
        <time>2019-09-01T06:48:10Z</time>
      </trkpt>
      <trkpt lat="44.71934" lon="5.19704">
        <ele>411</ele>
        <time>2019-09-01T06:48:12Z</time>
      </trkpt>
      <trkpt lat="44.7193" lon="5.19705">
        <ele>411</ele>
        <time>2019-09-01T06:48:14Z</time>
      </trkpt>
      <trkpt lat="44.71926" lon="5.19705">
        <ele>410</ele>
        <time>2019-09-01T06:48:16Z</time>
      </trkpt>
      <trkpt lat="44.71922" lon="5.19705">
        <ele>410</ele>
        <time>2019-09-01T06:48:18Z</time>
      </trkpt>
      <trkpt lat="44.71918" lon="5.19705">
        <ele>410</ele>
        <time>2019-09-01T06:48:20Z</time>
      </trkpt>
      <trkpt lat="44.71913" lon="5.19707">
        <ele>404</ele>
        <time>2019-09-01T06:48:22Z</time>
      </trkpt>
      <trkpt lat="44.7191" lon="5.19708">
        <ele>404</ele>
        <time>2019-09-01T06:48:23Z</time>
      </trkpt>
      <trkpt lat="44.71906" lon="5.1971">
        <ele>405</ele>
        <time>2019-09-01T06:48:25Z</time>
      </trkpt>
      <trkpt lat="44.71902" lon="5.19712">
        <ele>405</ele>
        <time>2019-09-01T06:48:27Z</time>
      </trkpt>
      <trkpt lat="44.71899" lon="5.19714">
        <ele>405</ele>
        <time>2019-09-01T06:48:29Z</time>
      </trkpt>
      <trkpt lat="44.71895" lon="5.19716">
        <ele>406</ele>
        <time>2019-09-01T06:48:31Z</time>
      </trkpt>
      <trkpt lat="44.71892" lon="5.19719">
        <ele>406</ele>
        <time>2019-09-01T06:48:33Z</time>
      </trkpt>
      <trkpt lat="44.7189" lon="5.19721">
        <ele>406</ele>
        <time>2019-09-01T06:48:35Z</time>
      </trkpt>
      <trkpt lat="44.71887" lon="5.19723">
        <ele>406</ele>
        <time>2019-09-01T06:48:37Z</time>
      </trkpt>
      <trkpt lat="44.71882" lon="5.19725">
        <ele>406</ele>
        <time>2019-09-01T06:48:39Z</time>
      </trkpt>
      <trkpt lat="44.71879" lon="5.19726">
        <ele>406</ele>
        <time>2019-09-01T06:48:40Z</time>
      </trkpt>
      <trkpt lat="44.71876" lon="5.19729">
        <ele>406</ele>
        <time>2019-09-01T06:48:42Z</time>
      </trkpt>
      <trkpt lat="44.71871" lon="5.19731">
        <ele>406</ele>
        <time>2019-09-01T06:48:44Z</time>
      </trkpt>
      <trkpt lat="44.71866" lon="5.19735">
        <ele>406</ele>
        <time>2019-09-01T06:48:46Z</time>
      </trkpt>
      <trkpt lat="44.71864" lon="5.19736">
        <ele>406</ele>
        <time>2019-09-01T06:48:47Z</time>
      </trkpt>
      <trkpt lat="44.71861" lon="5.19738">
        <ele>406</ele>
        <time>2019-09-01T06:48:48Z</time>
      </trkpt>
      <trkpt lat="44.71857" lon="5.19741">
        <ele>406</ele>
        <time>2019-09-01T06:48:50Z</time>
      </trkpt>
      <trkpt lat="44.71852" lon="5.19745">
        <ele>407</ele>
        <time>2019-09-01T06:48:52Z</time>
      </trkpt>
      <trkpt lat="44.71848" lon="5.19748">
        <ele>407</ele>
        <time>2019-09-01T06:48:54Z</time>
      </trkpt>
      <trkpt lat="44.71844" lon="5.1975">
        <ele>408</ele>
        <time>2019-09-01T06:48:56Z</time>
      </trkpt>
      <trkpt lat="44.7184" lon="5.19753">
        <ele>414</ele>
        <time>2019-09-01T06:48:58Z</time>
      </trkpt>
      <trkpt lat="44.71835" lon="5.19756">
        <ele>414</ele>
        <time>2019-09-01T06:49:00Z</time>
      </trkpt>
      <trkpt lat="44.71831" lon="5.1976">
        <ele>410</ele>
        <time>2019-09-01T06:49:02Z</time>
      </trkpt>
      <trkpt lat="44.71827" lon="5.19763">
        <ele>410</ele>
        <time>2019-09-01T06:49:04Z</time>
      </trkpt>
      <trkpt lat="44.71822" lon="5.19767">
        <ele>411</ele>
        <time>2019-09-01T06:49:06Z</time>
      </trkpt>
      <trkpt lat="44.71819" lon="5.1977">
        <ele>411</ele>
        <time>2019-09-01T06:49:08Z</time>
      </trkpt>
      <trkpt lat="44.71815" lon="5.19774">
        <ele>411</ele>
        <time>2019-09-01T06:49:10Z</time>
      </trkpt>
      <trkpt lat="44.71812" lon="5.19777">
        <ele>412</ele>
        <time>2019-09-01T06:49:12Z</time>
      </trkpt>
      <trkpt lat="44.71807" lon="5.1978">
        <ele>412</ele>
        <time>2019-09-01T06:49:14Z</time>
      </trkpt>
      <trkpt lat="44.71803" lon="5.19782">
        <ele>411</ele>
        <time>2019-09-01T06:49:16Z</time>
      </trkpt>
      <trkpt lat="44.71799" lon="5.19784">
        <ele>411</ele>
        <time>2019-09-01T06:49:18Z</time>
      </trkpt>
      <trkpt lat="44.71796" lon="5.19788">
        <ele>411</ele>
        <time>2019-09-01T06:49:20Z</time>
      </trkpt>
      <trkpt lat="44.71794" lon="5.1979">
        <ele>411</ele>
        <time>2019-09-01T06:49:21Z</time>
      </trkpt>
      <trkpt lat="44.7179" lon="5.19795">
        <ele>411</ele>
        <time>2019-09-01T06:49:23Z</time>
      </trkpt>
      <trkpt lat="44.71785" lon="5.19799">
        <ele>411</ele>
        <time>2019-09-01T06:49:25Z</time>
      </trkpt>
      <trkpt lat="44.71783" lon="5.19801">
        <ele>411</ele>
        <time>2019-09-01T06:49:26Z</time>
      </trkpt>
      <trkpt lat="44.71779" lon="5.19806">
        <ele>411</ele>
        <time>2019-09-01T06:49:28Z</time>
      </trkpt>
      <trkpt lat="44.71775" lon="5.19812">
        <ele>411</ele>
        <time>2019-09-01T06:49:30Z</time>
      </trkpt>
      <trkpt lat="44.71773" lon="5.19814">
        <ele>411</ele>
        <time>2019-09-01T06:49:31Z</time>
      </trkpt>
      <trkpt lat="44.7177" lon="5.19818">
        <ele>411</ele>
        <time>2019-09-01T06:49:33Z</time>
      </trkpt>
      <trkpt lat="44.71766" lon="5.19823">
        <ele>411</ele>
        <time>2019-09-01T06:49:35Z</time>
      </trkpt>
      <trkpt lat="44.71762" lon="5.19828">
        <ele>410</ele>
        <time>2019-09-01T06:49:37Z</time>
      </trkpt>
      <trkpt lat="44.71759" lon="5.19832">
        <ele>410</ele>
        <time>2019-09-01T06:49:39Z</time>
      </trkpt>
      <trkpt lat="44.71755" lon="5.19838">
        <ele>415</ele>
        <time>2019-09-01T06:49:41Z</time>
      </trkpt>
      <trkpt lat="44.71752" lon="5.19842">
        <ele>416</ele>
        <time>2019-09-01T06:49:43Z</time>
      </trkpt>
      <trkpt lat="44.71748" lon="5.19847">
        <ele>406</ele>
        <time>2019-09-01T06:49:45Z</time>
      </trkpt>
      <trkpt lat="44.71746" lon="5.1985">
        <ele>406</ele>
        <time>2019-09-01T06:49:46Z</time>
      </trkpt>
      <trkpt lat="44.71744" lon="5.19854">
        <ele>406</ele>
        <time>2019-09-01T06:49:47Z</time>
      </trkpt>
      <trkpt lat="44.71743" lon="5.19858">
        <ele>406</ele>
        <time>2019-09-01T06:49:48Z</time>
      </trkpt>
      <trkpt lat="44.71741" lon="5.19862">
        <ele>406</ele>
        <time>2019-09-01T06:49:49Z</time>
      </trkpt>
      <trkpt lat="44.7174" lon="5.19866">
        <ele>406</ele>
        <time>2019-09-01T06:49:50Z</time>
      </trkpt>
      <trkpt lat="44.71737" lon="5.19872">
        <ele>406</ele>
        <time>2019-09-01T06:49:52Z</time>
      </trkpt>
      <trkpt lat="44.71734" lon="5.19875">
        <ele>406</ele>
        <time>2019-09-01T06:49:53Z</time>
      </trkpt>
      <trkpt lat="44.71732" lon="5.19878">
        <ele>406</ele>
        <time>2019-09-01T06:49:54Z</time>
      </trkpt>
      <trkpt lat="44.7173" lon="5.19882">
        <ele>407</ele>
        <time>2019-09-01T06:49:55Z</time>
      </trkpt>
      <trkpt lat="44.71728" lon="5.19885">
        <ele>407</ele>
        <time>2019-09-01T06:49:56Z</time>
      </trkpt>
      <trkpt lat="44.71725" lon="5.19891">
        <ele>407</ele>
        <time>2019-09-01T06:49:58Z</time>
      </trkpt>
      <trkpt lat="44.71721" lon="5.19897">
        <ele>407</ele>
        <time>2019-09-01T06:50:00Z</time>
      </trkpt>
      <trkpt lat="44.71719" lon="5.199">
        <ele>407</ele>
        <time>2019-09-01T06:50:01Z</time>
      </trkpt>
      <trkpt lat="44.71716" lon="5.19907">
        <ele>406</ele>
        <time>2019-09-01T06:50:03Z</time>
      </trkpt>
      <trkpt lat="44.71714" lon="5.1991">
        <ele>406</ele>
        <time>2019-09-01T06:50:04Z</time>
      </trkpt>
      <trkpt lat="44.71712" lon="5.19914">
        <ele>405</ele>
        <time>2019-09-01T06:50:05Z</time>
      </trkpt>
      <trkpt lat="44.71709" lon="5.19917">
        <ele>409</ele>
        <time>2019-09-01T06:50:06Z</time>
      </trkpt>
      <trkpt lat="44.71708" lon="5.1992">
        <ele>408</ele>
        <time>2019-09-01T06:50:07Z</time>
      </trkpt>
      <trkpt lat="44.71706" lon="5.19923">
        <ele>408</ele>
        <time>2019-09-01T06:50:08Z</time>
      </trkpt>
      <trkpt lat="44.71704" lon="5.19927">
        <ele>407</ele>
        <time>2019-09-01T06:50:09Z</time>
      </trkpt>
      <trkpt lat="44.71702" lon="5.1993">
        <ele>406</ele>
        <time>2019-09-01T06:50:10Z</time>
      </trkpt>
      <trkpt lat="44.717" lon="5.19933">
        <ele>406</ele>
        <time>2019-09-01T06:50:11Z</time>
      </trkpt>
      <trkpt lat="44.71698" lon="5.19935">
        <ele>405</ele>
        <time>2019-09-01T06:50:12Z</time>
      </trkpt>
      <trkpt lat="44.71695" lon="5.19939">
        <ele>405</ele>
        <time>2019-09-01T06:50:13Z</time>
      </trkpt>
      <trkpt lat="44.71694" lon="5.19942">
        <ele>405</ele>
        <time>2019-09-01T06:50:14Z</time>
      </trkpt>
      <trkpt lat="44.71692" lon="5.19949">
        <ele>405</ele>
        <time>2019-09-01T06:50:16Z</time>
      </trkpt>
      <trkpt lat="44.7169" lon="5.19955">
        <ele>405</ele>
        <time>2019-09-01T06:50:18Z</time>
      </trkpt>
      <trkpt lat="44.7169" lon="5.1996">
        <ele>405</ele>
        <time>2019-09-01T06:50:21Z</time>
      </trkpt>
      <trkpt lat="44.7169" lon="5.19964">
        <ele>404</ele>
        <time>2019-09-01T06:50:24Z</time>
      </trkpt>
      <trkpt lat="44.7169" lon="5.19969">
        <ele>404</ele>
        <time>2019-09-01T06:50:34Z</time>
      </trkpt>
      <trkpt lat="44.7169" lon="5.19973">
        <ele>404</ele>
        <time>2019-09-01T06:50:38Z</time>
      </trkpt>
      <trkpt lat="44.71687" lon="5.19975">
        <ele>403</ele>
        <time>2019-09-01T06:50:45Z</time>
      </trkpt>
      <trkpt lat="44.71682" lon="5.19975">
        <ele>403</ele>
        <time>2019-09-01T06:50:47Z</time>
      </trkpt>
      <trkpt lat="44.71679" lon="5.19975">
        <ele>402</ele>
        <time>2019-09-01T06:50:48Z</time>
      </trkpt>
      <trkpt lat="44.71677" lon="5.19975">
        <ele>402</ele>
        <time>2019-09-01T06:50:49Z</time>
      </trkpt>
      <trkpt lat="44.71673" lon="5.19973">
        <ele>402</ele>
        <time>2019-09-01T06:50:51Z</time>
      </trkpt>
      <trkpt lat="44.71669" lon="5.19971">
        <ele>401</ele>
        <time>2019-09-01T06:50:53Z</time>
      </trkpt>
      <trkpt lat="44.71666" lon="5.1997">
        <ele>384</ele>
        <time>2019-09-01T06:50:54Z</time>
      </trkpt>
      <trkpt lat="44.71663" lon="5.19967">
        <ele>384</ele>
        <time>2019-09-01T06:50:55Z</time>
      </trkpt>
      <trkpt lat="44.71662" lon="5.19963">
        <ele>384</ele>
        <time>2019-09-01T06:50:56Z</time>
      </trkpt>
      <trkpt lat="44.71659" lon="5.19958">
        <ele>383</ele>
        <time>2019-09-01T06:50:57Z</time>
      </trkpt>
      <trkpt lat="44.71657" lon="5.19953">
        <ele>383</ele>
        <time>2019-09-01T06:50:58Z</time>
      </trkpt>
      <trkpt lat="44.71656" lon="5.19945">
        <ele>383</ele>
        <time>2019-09-01T06:51:00Z</time>
      </trkpt>
      <trkpt lat="44.71657" lon="5.19941">
        <ele>383</ele>
        <time>2019-09-01T06:51:01Z</time>
      </trkpt>
      <trkpt lat="44.71658" lon="5.19936">
        <ele>384</ele>
        <time>2019-09-01T06:51:02Z</time>
      </trkpt>
      <trkpt lat="44.71659" lon="5.19931">
        <ele>385</ele>
        <time>2019-09-01T06:51:03Z</time>
      </trkpt>
      <trkpt lat="44.71659" lon="5.19925">
        <ele>386</ele>
        <time>2019-09-01T06:51:04Z</time>
      </trkpt>
      <trkpt lat="44.7166" lon="5.19919">
        <ele>387</ele>
        <time>2019-09-01T06:51:05Z</time>
      </trkpt>
      <trkpt lat="44.71661" lon="5.19913">
        <ele>385</ele>
        <time>2019-09-01T06:51:06Z</time>
      </trkpt>
      <trkpt lat="44.71662" lon="5.19907">
        <ele>383</ele>
        <time>2019-09-01T06:51:07Z</time>
      </trkpt>
      <trkpt lat="44.71662" lon="5.19901">
        <ele>381</ele>
        <time>2019-09-01T06:51:08Z</time>
      </trkpt>
      <trkpt lat="44.71663" lon="5.19896">
        <ele>379</ele>
        <time>2019-09-01T06:51:09Z</time>
      </trkpt>
      <trkpt lat="44.71665" lon="5.19889">
        <ele>378</ele>
        <time>2019-09-01T06:51:10Z</time>
      </trkpt>
      <trkpt lat="44.71665" lon="5.19884">
        <ele>377</ele>
        <time>2019-09-01T06:51:11Z</time>
      </trkpt>
      <trkpt lat="44.71665" lon="5.19879">
        <ele>376</ele>
        <time>2019-09-01T06:51:12Z</time>
      </trkpt>
      <trkpt lat="44.71665" lon="5.19874">
        <ele>375</ele>
        <time>2019-09-01T06:51:13Z</time>
      </trkpt>
      <trkpt lat="44.71664" lon="5.19869">
        <ele>375</ele>
        <time>2019-09-01T06:51:14Z</time>
      </trkpt>
      <trkpt lat="44.71663" lon="5.19864">
        <ele>374</ele>
        <time>2019-09-01T06:51:15Z</time>
      </trkpt>
      <trkpt lat="44.71664" lon="5.19858">
        <ele>374</ele>
        <time>2019-09-01T06:51:16Z</time>
      </trkpt>
      <trkpt lat="44.71666" lon="5.19852">
        <ele>374</ele>
        <time>2019-09-01T06:51:17Z</time>
      </trkpt>
      <trkpt lat="44.71667" lon="5.19847">
        <ele>386</ele>
        <time>2019-09-01T06:51:18Z</time>
      </trkpt>
      <trkpt lat="44.71668" lon="5.19844">
        <ele>384</ele>
        <time>2019-09-01T06:51:19Z</time>
      </trkpt>
      <trkpt lat="44.71669" lon="5.1984">
        <ele>382</ele>
        <time>2019-09-01T06:51:21Z</time>
      </trkpt>
      <trkpt lat="44.7167" lon="5.19836">
        <ele>380</ele>
        <time>2019-09-01T06:51:23Z</time>
      </trkpt>
      <trkpt lat="44.71667" lon="5.19838">
        <ele>380</ele>
        <time>2019-09-01T06:51:30Z</time>
      </trkpt>
      <trkpt lat="44.71663" lon="5.1984">
        <ele>375</ele>
        <time>2019-09-01T06:51:33Z</time>
      </trkpt>
      <trkpt lat="44.71659" lon="5.19842">
        <ele>374</ele>
        <time>2019-09-01T06:51:35Z</time>
      </trkpt>
      <trkpt lat="44.71655" lon="5.19845">
        <ele>374</ele>
        <time>2019-09-01T06:51:37Z</time>
      </trkpt>
      <trkpt lat="44.71651" lon="5.19845">
        <ele>373</ele>
        <time>2019-09-01T06:51:39Z</time>
      </trkpt>
      <trkpt lat="44.71648" lon="5.19848">
        <ele>373</ele>
        <time>2019-09-01T06:51:41Z</time>
      </trkpt>
      <trkpt lat="44.71645" lon="5.1985">
        <ele>372</ele>
        <time>2019-09-01T06:51:42Z</time>
      </trkpt>
      <trkpt lat="44.71643" lon="5.19853">
        <ele>372</ele>
        <time>2019-09-01T06:51:43Z</time>
      </trkpt>
      <trkpt lat="44.71638" lon="5.19857">
        <ele>372</ele>
        <time>2019-09-01T06:51:45Z</time>
      </trkpt>
      <trkpt lat="44.71635" lon="5.19858">
        <ele>371</ele>
        <time>2019-09-01T06:51:46Z</time>
      </trkpt>
      <trkpt lat="44.71633" lon="5.19861">
        <ele>371</ele>
        <time>2019-09-01T06:51:47Z</time>
      </trkpt>
      <trkpt lat="44.7163" lon="5.19863">
        <ele>371</ele>
        <time>2019-09-01T06:51:48Z</time>
      </trkpt>
      <trkpt lat="44.71627" lon="5.19867">
        <ele>371</ele>
        <time>2019-09-01T06:51:49Z</time>
      </trkpt>
      <trkpt lat="44.71624" lon="5.19873">
        <ele>371</ele>
        <time>2019-09-01T06:51:51Z</time>
      </trkpt>
      <trkpt lat="44.71621" lon="5.1988">
        <ele>370</ele>
        <time>2019-09-01T06:51:53Z</time>
      </trkpt>
      <trkpt lat="44.7162" lon="5.19884">
        <ele>370</ele>
        <time>2019-09-01T06:51:54Z</time>
      </trkpt>
      <trkpt lat="44.71619" lon="5.19889">
        <ele>370</ele>
        <time>2019-09-01T06:51:55Z</time>
      </trkpt>
      <trkpt lat="44.71617" lon="5.19894">
        <ele>370</ele>
        <time>2019-09-01T06:51:56Z</time>
      </trkpt>
      <trkpt lat="44.71615" lon="5.19898">
        <ele>370</ele>
        <time>2019-09-01T06:51:57Z</time>
      </trkpt>
      <trkpt lat="44.71614" lon="5.19902">
        <ele>370</ele>
        <time>2019-09-01T06:51:58Z</time>
      </trkpt>
      <trkpt lat="44.71613" lon="5.19907">
        <ele>369</ele>
        <time>2019-09-01T06:51:59Z</time>
      </trkpt>
      <trkpt lat="44.71611" lon="5.19912">
        <ele>369</ele>
        <time>2019-09-01T06:52:00Z</time>
      </trkpt>
      <trkpt lat="44.71609" lon="5.19917">
        <ele>369</ele>
        <time>2019-09-01T06:52:01Z</time>
      </trkpt>
      <trkpt lat="44.71607" lon="5.19923">
        <ele>373</ele>
        <time>2019-09-01T06:52:03Z</time>
      </trkpt>
      <trkpt lat="44.71604" lon="5.19926">
        <ele>372</ele>
        <time>2019-09-01T06:52:05Z</time>
      </trkpt>
      <trkpt lat="44.71601" lon="5.19925">
        <ele>371</ele>
        <time>2019-09-01T06:52:08Z</time>
      </trkpt>
      <trkpt lat="44.71597" lon="5.19924">
        <ele>369</ele>
        <time>2019-09-01T06:52:12Z</time>
      </trkpt>
      <trkpt lat="44.71594" lon="5.19922">
        <ele>368</ele>
        <time>2019-09-01T06:52:24Z</time>
      </trkpt>
      <trkpt lat="44.71591" lon="5.19918">
        <ele>366</ele>
        <time>2019-09-01T06:52:26Z</time>
      </trkpt>
      <trkpt lat="44.71589" lon="5.19914">
        <ele>363</ele>
        <time>2019-09-01T06:52:28Z</time>
      </trkpt>
      <trkpt lat="44.71585" lon="5.19911">
        <ele>363</ele>
        <time>2019-09-01T06:52:30Z</time>
      </trkpt>
      <trkpt lat="44.71581" lon="5.19908">
        <ele>360</ele>
        <time>2019-09-01T06:52:32Z</time>
      </trkpt>
      <trkpt lat="44.71584" lon="5.19908">
        <ele>364</ele>
        <time>2019-09-01T06:52:38Z</time>
      </trkpt>
      <trkpt lat="44.71583" lon="5.19913">
        <ele>360</ele>
        <time>2019-09-01T06:52:42Z</time>
      </trkpt>
      <trkpt lat="44.71584" lon="5.19917">
        <ele>362</ele>
        <time>2019-09-01T06:52:46Z</time>
      </trkpt>
      <trkpt lat="44.71583" lon="5.19922">
        <ele>364</ele>
        <time>2019-09-01T06:52:49Z</time>
      </trkpt>
      <trkpt lat="44.71585" lon="5.19927">
        <ele>367</ele>
        <time>2019-09-01T06:52:52Z</time>
      </trkpt>
      <trkpt lat="44.71586" lon="5.19931">
        <ele>369</ele>
        <time>2019-09-01T06:52:54Z</time>
      </trkpt>
      <trkpt lat="44.71588" lon="5.19935">
        <ele>370</ele>
        <time>2019-09-01T06:52:57Z</time>
      </trkpt>
      <trkpt lat="44.71589" lon="5.1994">
        <ele>372</ele>
        <time>2019-09-01T06:53:00Z</time>
      </trkpt>
      <trkpt lat="44.71588" lon="5.19945">
        <ele>372</ele>
        <time>2019-09-01T06:53:02Z</time>
      </trkpt>
      <trkpt lat="44.71584" lon="5.19943">
        <ele>372</ele>
        <time>2019-09-01T06:53:05Z</time>
      </trkpt>
      <trkpt lat="44.71582" lon="5.19942">
        <ele>366</ele>
        <time>2019-09-01T06:53:07Z</time>
      </trkpt>
      <trkpt lat="44.71578" lon="5.19939">
        <ele>366</ele>
        <time>2019-09-01T06:53:09Z</time>
      </trkpt>
      <trkpt lat="44.71576" lon="5.19936">
        <ele>365</ele>
        <time>2019-09-01T06:53:11Z</time>
      </trkpt>
      <trkpt lat="44.71573" lon="5.19933">
        <ele>365</ele>
        <time>2019-09-01T06:53:13Z</time>
      </trkpt>
      <trkpt lat="44.7157" lon="5.1993">
        <ele>365</ele>
        <time>2019-09-01T06:53:15Z</time>
      </trkpt>
      <trkpt lat="44.71567" lon="5.19927">
        <ele>365</ele>
        <time>2019-09-01T06:53:17Z</time>
      </trkpt>
      <trkpt lat="44.71564" lon="5.19924">
        <ele>365</ele>
        <time>2019-09-01T06:53:19Z</time>
      </trkpt>
      <trkpt lat="44.71561" lon="5.19921">
        <ele>365</ele>
        <time>2019-09-01T06:53:21Z</time>
      </trkpt>
      <trkpt lat="44.71558" lon="5.19918">
        <ele>365</ele>
        <time>2019-09-01T06:53:24Z</time>
      </trkpt>
      <trkpt lat="44.71556" lon="5.19921">
        <ele>365</ele>
        <time>2019-09-01T06:53:29Z</time>
      </trkpt>
      <trkpt lat="44.71557" lon="5.19925">
        <ele>365</ele>
        <time>2019-09-01T06:53:33Z</time>
      </trkpt>
      <trkpt lat="44.71557" lon="5.1993">
        <ele>366</ele>
        <time>2019-09-01T06:53:35Z</time>
      </trkpt>
      <trkpt lat="44.71555" lon="5.19933">
        <ele>366</ele>
        <time>2019-09-01T06:53:41Z</time>
      </trkpt>
      <trkpt lat="44.71557" lon="5.19936">
        <ele>366</ele>
        <time>2019-09-01T06:53:51Z</time>
      </trkpt>
      <trkpt lat="44.7156" lon="5.1994">
        <ele>367</ele>
        <time>2019-09-01T06:54:06Z</time>
      </trkpt>
      <trkpt lat="44.7156" lon="5.19945">
        <ele>367</ele>
        <time>2019-09-01T06:54:14Z</time>
      </trkpt>
      <trkpt lat="44.71561" lon="5.19949">
        <ele>368</ele>
        <time>2019-09-01T06:54:18Z</time>
      </trkpt>
      <trkpt lat="44.71561" lon="5.19953">
        <ele>368</ele>
        <time>2019-09-01T06:54:22Z</time>
      </trkpt>
      <trkpt lat="44.71559" lon="5.19957">
        <ele>368</ele>
        <time>2019-09-01T06:54:26Z</time>
      </trkpt>
      <trkpt lat="44.71557" lon="5.19955">
        <ele>368</ele>
        <time>2019-09-01T06:54:33Z</time>
      </trkpt>
      <trkpt lat="44.71558" lon="5.19958">
        <ele>369</ele>
        <time>2019-09-01T06:55:26Z</time>
      </trkpt>
      <trkpt lat="44.71559" lon="5.19964">
        <ele>369</ele>
        <time>2019-09-01T06:55:29Z</time>
      </trkpt>
      <trkpt lat="44.71556" lon="5.19963">
        <ele>369</ele>
        <time>2019-09-01T06:55:33Z</time>
      </trkpt>
      <trkpt lat="44.71556" lon="5.19959">
        <ele>369</ele>
        <time>2019-09-01T06:55:35Z</time>
      </trkpt>
      <trkpt lat="44.71557" lon="5.19955">
        <ele>368</ele>
        <time>2019-09-01T06:55:37Z</time>
      </trkpt>
      <trkpt lat="44.71554" lon="5.19949">
        <ele>368</ele>
        <time>2019-09-01T06:55:39Z</time>
      </trkpt>
      <trkpt lat="44.71551" lon="5.19941">
        <ele>367</ele>
        <time>2019-09-01T06:55:41Z</time>
      </trkpt>
      <trkpt lat="44.7155" lon="5.19937">
        <ele>367</ele>
        <time>2019-09-01T06:55:42Z</time>
      </trkpt>
      <trkpt lat="44.71548" lon="5.1993">
        <ele>366</ele>
        <time>2019-09-01T06:55:44Z</time>
      </trkpt>
      <trkpt lat="44.71549" lon="5.19924">
        <ele>365</ele>
        <time>2019-09-01T06:55:46Z</time>
      </trkpt>
      <trkpt lat="44.71551" lon="5.19919">
        <ele>365</ele>
        <time>2019-09-01T06:55:48Z</time>
      </trkpt>
      <trkpt lat="44.71554" lon="5.19919">
        <ele>365</ele>
        <time>2019-09-01T06:56:00Z</time>
      </trkpt>
      <trkpt lat="44.71556" lon="5.19924">
        <ele>365</ele>
        <time>2019-09-01T06:56:03Z</time>
      </trkpt>
      <trkpt lat="44.71558" lon="5.1993">
        <ele>366</ele>
        <time>2019-09-01T06:56:05Z</time>
      </trkpt>
      <trkpt lat="44.71558" lon="5.19935">
        <ele>366</ele>
        <time>2019-09-01T06:56:07Z</time>
      </trkpt>
      <trkpt lat="44.71558" lon="5.1994">
        <ele>367</ele>
        <time>2019-09-01T06:56:10Z</time>
      </trkpt>
      <trkpt lat="44.71559" lon="5.19944">
        <ele>367</ele>
        <time>2019-09-01T06:56:13Z</time>
      </trkpt>
      <trkpt lat="44.71561" lon="5.19947">
        <ele>367</ele>
        <time>2019-09-01T06:56:15Z</time>
      </trkpt>
      <trkpt lat="44.71563" lon="5.19951">
        <ele>368</ele>
        <time>2019-09-01T06:56:17Z</time>
      </trkpt>
      <trkpt lat="44.71563" lon="5.19956">
        <ele>368</ele>
        <time>2019-09-01T06:56:19Z</time>
      </trkpt>
      <trkpt lat="44.71561" lon="5.19959">
        <ele>369</ele>
        <time>2019-09-01T06:56:36Z</time>
      </trkpt>
      <trkpt lat="44.71558" lon="5.19958">
        <ele>369</ele>
        <time>2019-09-01T06:56:45Z</time>
      </trkpt>
      <trkpt lat="44.71558" lon="5.19962">
        <ele>369</ele>
        <time>2019-09-01T06:57:17Z</time>
      </trkpt>
      <trkpt lat="44.71561" lon="5.19965">
        <ele>369</ele>
        <time>2019-09-01T06:57:25Z</time>
      </trkpt>
      <trkpt lat="44.71561" lon="5.19969">
        <ele>370</ele>
        <time>2019-09-01T06:57:27Z</time>
      </trkpt>
      <trkpt lat="44.71563" lon="5.19974">
        <ele>370</ele>
        <time>2019-09-01T06:57:30Z</time>
      </trkpt>
      <trkpt lat="44.71564" lon="5.19978">
        <ele>370</ele>
        <time>2019-09-01T06:57:32Z</time>
      </trkpt>
      <trkpt lat="44.71565" lon="5.19982">
        <ele>370</ele>
        <time>2019-09-01T06:57:34Z</time>
      </trkpt>
      <trkpt lat="44.71567" lon="5.19986">
        <ele>371</ele>
        <time>2019-09-01T06:57:36Z</time>
      </trkpt>
      <trkpt lat="44.71568" lon="5.19991">
        <ele>371</ele>
        <time>2019-09-01T06:57:38Z</time>
      </trkpt>
      <trkpt lat="44.7157" lon="5.19996">
        <ele>371</ele>
        <time>2019-09-01T06:57:41Z</time>
      </trkpt>
      <trkpt lat="44.71571" lon="5.20001">
        <ele>377</ele>
        <time>2019-09-01T06:57:43Z</time>
      </trkpt>
      <trkpt lat="44.71571" lon="5.20006">
        <ele>378</ele>
        <time>2019-09-01T06:57:46Z</time>
      </trkpt>
      <trkpt lat="44.71571" lon="5.20012">
        <ele>379</ele>
        <time>2019-09-01T06:57:48Z</time>
      </trkpt>
      <trkpt lat="44.71571" lon="5.20018">
        <ele>380</ele>
        <time>2019-09-01T06:57:50Z</time>
      </trkpt>
      <trkpt lat="44.71572" lon="5.20024">
        <ele>381</ele>
        <time>2019-09-01T06:57:52Z</time>
      </trkpt>
      <trkpt lat="44.71572" lon="5.2003">
        <ele>382</ele>
        <time>2019-09-01T06:57:54Z</time>
      </trkpt>
      <trkpt lat="44.71573" lon="5.20036">
        <ele>383</ele>
        <time>2019-09-01T06:57:56Z</time>
      </trkpt>
      <trkpt lat="44.71573" lon="5.20042">
        <ele>383</ele>
        <time>2019-09-01T06:57:58Z</time>
      </trkpt>
      <trkpt lat="44.71571" lon="5.20047">
        <ele>383</ele>
        <time>2019-09-01T06:58:00Z</time>
      </trkpt>
      <trkpt lat="44.71571" lon="5.20052">
        <ele>383</ele>
        <time>2019-09-01T06:58:02Z</time>
      </trkpt>
      <trkpt lat="44.71571" lon="5.20058">
        <ele>383</ele>
        <time>2019-09-01T06:58:04Z</time>
      </trkpt>
      <trkpt lat="44.71571" lon="5.20064">
        <ele>382</ele>
        <time>2019-09-01T06:58:06Z</time>
      </trkpt>
      <trkpt lat="44.71572" lon="5.20068">
        <ele>381</ele>
        <time>2019-09-01T06:58:08Z</time>
      </trkpt>
      <trkpt lat="44.71572" lon="5.20072">
        <ele>381</ele>
        <time>2019-09-01T06:58:10Z</time>
      </trkpt>
      <trkpt lat="44.71572" lon="5.20076">
        <ele>380</ele>
        <time>2019-09-01T06:58:12Z</time>
      </trkpt>
      <trkpt lat="44.71573" lon="5.20081">
        <ele>379</ele>
        <time>2019-09-01T06:58:14Z</time>
      </trkpt>
      <trkpt lat="44.71573" lon="5.20088">
        <ele>383</ele>
        <time>2019-09-01T06:58:16Z</time>
      </trkpt>
      <trkpt lat="44.71574" lon="5.20093">
        <ele>385</ele>
        <time>2019-09-01T06:58:18Z</time>
      </trkpt>
      <trkpt lat="44.71574" lon="5.20097">
        <ele>386</ele>
        <time>2019-09-01T06:58:20Z</time>
      </trkpt>
      <trkpt lat="44.71573" lon="5.20104">
        <ele>389</ele>
        <time>2019-09-01T06:58:22Z</time>
      </trkpt>
      <trkpt lat="44.71572" lon="5.2011">
        <ele>391</ele>
        <time>2019-09-01T06:58:24Z</time>
      </trkpt>
      <trkpt lat="44.7157" lon="5.20116">
        <ele>393</ele>
        <time>2019-09-01T06:58:26Z</time>
      </trkpt>
      <trkpt lat="44.7157" lon="5.20123">
        <ele>394</ele>
        <time>2019-09-01T06:58:28Z</time>
      </trkpt>
      <trkpt lat="44.71568" lon="5.20129">
        <ele>395</ele>
        <time>2019-09-01T06:58:30Z</time>
      </trkpt>
      <trkpt lat="44.71567" lon="5.20134">
        <ele>395</ele>
        <time>2019-09-01T06:58:32Z</time>
      </trkpt>
      <trkpt lat="44.71567" lon="5.20139">
        <ele>395</ele>
        <time>2019-09-01T06:58:34Z</time>
      </trkpt>
      <trkpt lat="44.71566" lon="5.20145">
        <ele>395</ele>
        <time>2019-09-01T06:58:36Z</time>
      </trkpt>
      <trkpt lat="44.71564" lon="5.2015">
        <ele>395</ele>
        <time>2019-09-01T06:58:38Z</time>
      </trkpt>
      <trkpt lat="44.71565" lon="5.20155">
        <ele>395</ele>
        <time>2019-09-01T06:58:40Z</time>
      </trkpt>
      <trkpt lat="44.71564" lon="5.2016">
        <ele>394</ele>
        <time>2019-09-01T06:58:42Z</time>
      </trkpt>
      <trkpt lat="44.71564" lon="5.20165">
        <ele>394</ele>
        <time>2019-09-01T06:58:44Z</time>
      </trkpt>
      <trkpt lat="44.71565" lon="5.2017">
        <ele>400</ele>
        <time>2019-09-01T06:58:46Z</time>
      </trkpt>
      <trkpt lat="44.71565" lon="5.20176">
        <ele>401</ele>
        <time>2019-09-01T06:58:48Z</time>
      </trkpt>
      <trkpt lat="44.71564" lon="5.20182">
        <ele>403</ele>
        <time>2019-09-01T06:58:50Z</time>
      </trkpt>
      <trkpt lat="44.71564" lon="5.20187">
        <ele>405</ele>
        <time>2019-09-01T06:58:52Z</time>
      </trkpt>
      <trkpt lat="44.71564" lon="5.20193">
        <ele>406</ele>
        <time>2019-09-01T06:58:54Z</time>
      </trkpt>
      <trkpt lat="44.71565" lon="5.20198">
        <ele>407</ele>
        <time>2019-09-01T06:58:56Z</time>
      </trkpt>
      <trkpt lat="44.71567" lon="5.20203">
        <ele>408</ele>
        <time>2019-09-01T06:58:58Z</time>
      </trkpt>
      <trkpt lat="44.7157" lon="5.20208">
        <ele>408</ele>
        <time>2019-09-01T06:59:00Z</time>
      </trkpt>
      <trkpt lat="44.71573" lon="5.20211">
        <ele>408</ele>
        <time>2019-09-01T06:59:02Z</time>
      </trkpt>
      <trkpt lat="44.71576" lon="5.20213">
        <ele>408</ele>
        <time>2019-09-01T06:59:04Z</time>
      </trkpt>
      <trkpt lat="44.7158" lon="5.20215">
        <ele>408</ele>
        <time>2019-09-01T06:59:06Z</time>
      </trkpt>
      <trkpt lat="44.71583" lon="5.20216">
        <ele>407</ele>
        <time>2019-09-01T06:59:08Z</time>
      </trkpt>
      <trkpt lat="44.71586" lon="5.20217">
        <ele>391</ele>
        <time>2019-09-01T06:59:10Z</time>
      </trkpt>
      <trkpt lat="44.7159" lon="5.20219">
        <ele>392</ele>
        <time>2019-09-01T06:59:12Z</time>
      </trkpt>
      <trkpt lat="44.71593" lon="5.20222">
        <ele>392</ele>
        <time>2019-09-01T06:59:14Z</time>
      </trkpt>
      <trkpt lat="44.71596" lon="5.20225">
        <ele>392</ele>
        <time>2019-09-01T06:59:16Z</time>
      </trkpt>
      <trkpt lat="44.71599" lon="5.20228">
        <ele>393</ele>
        <time>2019-09-01T06:59:18Z</time>
      </trkpt>
      <trkpt lat="44.71603" lon="5.20231">
        <ele>393</ele>
        <time>2019-09-01T06:59:20Z</time>
      </trkpt>
      <trkpt lat="44.71606" lon="5.20234">
        <ele>393</ele>
        <time>2019-09-01T06:59:22Z</time>
      </trkpt>
      <trkpt lat="44.7161" lon="5.20237">
        <ele>393</ele>
        <time>2019-09-01T06:59:24Z</time>
      </trkpt>
      <trkpt lat="44.71613" lon="5.2024">
        <ele>392</ele>
        <time>2019-09-01T06:59:26Z</time>
      </trkpt>
      <trkpt lat="44.71617" lon="5.20244">
        <ele>392</ele>
        <time>2019-09-01T06:59:28Z</time>
      </trkpt>
      <trkpt lat="44.71621" lon="5.20246">
        <ele>391</ele>
        <time>2019-09-01T06:59:30Z</time>
      </trkpt>
      <trkpt lat="44.71625" lon="5.20248">
        <ele>391</ele>
        <time>2019-09-01T06:59:32Z</time>
      </trkpt>
      <trkpt lat="44.71628" lon="5.20249">
        <ele>391</ele>
        <time>2019-09-01T06:59:34Z</time>
      </trkpt>
      <trkpt lat="44.71631" lon="5.20251">
        <ele>410</ele>
        <time>2019-09-01T06:59:36Z</time>
      </trkpt>
      <trkpt lat="44.71635" lon="5.20252">
        <ele>410</ele>
        <time>2019-09-01T06:59:38Z</time>
      </trkpt>
      <trkpt lat="44.71638" lon="5.20252">
        <ele>409</ele>
        <time>2019-09-01T06:59:40Z</time>
      </trkpt>
      <trkpt lat="44.71642" lon="5.20252">
        <ele>408</ele>
        <time>2019-09-01T06:59:42Z</time>
      </trkpt>
      <trkpt lat="44.71646" lon="5.20252">
        <ele>406</ele>
        <time>2019-09-01T06:59:44Z</time>
      </trkpt>
      <trkpt lat="44.7165" lon="5.20253">
        <ele>404</ele>
        <time>2019-09-01T06:59:46Z</time>
      </trkpt>
      <trkpt lat="44.71654" lon="5.20254">
        <ele>402</ele>
        <time>2019-09-01T06:59:48Z</time>
      </trkpt>
      <trkpt lat="44.71657" lon="5.20255">
        <ele>400</ele>
        <time>2019-09-01T06:59:50Z</time>
      </trkpt>
      <trkpt lat="44.71662" lon="5.20255">
        <ele>398</ele>
        <time>2019-09-01T06:59:52Z</time>
      </trkpt>
      <trkpt lat="44.71665" lon="5.20255">
        <ele>396</ele>
        <time>2019-09-01T06:59:54Z</time>
      </trkpt>
      <trkpt lat="44.7167" lon="5.20255">
        <ele>397</ele>
        <time>2019-09-01T06:59:56Z</time>
      </trkpt>
      <trkpt lat="44.71673" lon="5.20254">
        <ele>399</ele>
        <time>2019-09-01T06:59:58Z</time>
      </trkpt>
      <trkpt lat="44.71677" lon="5.20254">
        <ele>402</ele>
        <time>2019-09-01T07:00:00Z</time>
      </trkpt>
      <trkpt lat="44.71681" lon="5.20253">
        <ele>404</ele>
        <time>2019-09-01T07:00:02Z</time>
      </trkpt>
      <trkpt lat="44.71685" lon="5.20252">
        <ele>406</ele>
        <time>2019-09-01T07:00:04Z</time>
      </trkpt>
      <trkpt lat="44.71688" lon="5.2025">
        <ele>407</ele>
        <time>2019-09-01T07:00:06Z</time>
      </trkpt>
      <trkpt lat="44.71691" lon="5.20249">
        <ele>390</ele>
        <time>2019-09-01T07:00:08Z</time>
      </trkpt>
      <trkpt lat="44.71694" lon="5.20248">
        <ele>390</ele>
        <time>2019-09-01T07:00:10Z</time>
      </trkpt>
      <trkpt lat="44.71697" lon="5.20247">
        <ele>390</ele>
        <time>2019-09-01T07:00:12Z</time>
      </trkpt>
      <trkpt lat="44.71701" lon="5.20247">
        <ele>390</ele>
        <time>2019-09-01T07:00:14Z</time>
      </trkpt>
      <trkpt lat="44.71704" lon="5.20245">
        <ele>391</ele>
        <time>2019-09-01T07:00:16Z</time>
      </trkpt>
      <trkpt lat="44.71708" lon="5.20244">
        <ele>391</ele>
        <time>2019-09-01T07:00:18Z</time>
      </trkpt>
      <trkpt lat="44.71711" lon="5.20242">
        <ele>392</ele>
        <time>2019-09-01T07:00:20Z</time>
      </trkpt>
      <trkpt lat="44.71715" lon="5.20241">
        <ele>392</ele>
        <time>2019-09-01T07:00:22Z</time>
      </trkpt>
      <trkpt lat="44.71717" lon="5.20239">
        <ele>392</ele>
        <time>2019-09-01T07:00:24Z</time>
      </trkpt>
      <trkpt lat="44.7172" lon="5.20237">
        <ele>393</ele>
        <time>2019-09-01T07:00:26Z</time>
      </trkpt>
      <trkpt lat="44.71723" lon="5.20233">
        <ele>393</ele>
        <time>2019-09-01T07:00:28Z</time>
      </trkpt>
      <trkpt lat="44.71726" lon="5.20231">
        <ele>393</ele>
        <time>2019-09-01T07:00:30Z</time>
      </trkpt>
      <trkpt lat="44.71729" lon="5.20228">
        <ele>393</ele>
        <time>2019-09-01T07:00:32Z</time>
      </trkpt>
      <trkpt lat="44.71732" lon="5.20226">
        <ele>393</ele>
        <time>2019-09-01T07:00:34Z</time>
      </trkpt>
      <trkpt lat="44.71735" lon="5.20224">
        <ele>393</ele>
        <time>2019-09-01T07:00:36Z</time>
      </trkpt>
      <trkpt lat="44.71737" lon="5.20221">
        <ele>392</ele>
        <time>2019-09-01T07:00:38Z</time>
      </trkpt>
      <trkpt lat="44.7174" lon="5.20219">
        <ele>392</ele>
        <time>2019-09-01T07:00:40Z</time>
      </trkpt>
      <trkpt lat="44.71743" lon="5.20216">
        <ele>391</ele>
        <time>2019-09-01T07:00:42Z</time>
      </trkpt>
      <trkpt lat="44.71745" lon="5.20214">
        <ele>391</ele>
        <time>2019-09-01T07:00:44Z</time>
      </trkpt>
      <trkpt lat="44.71747" lon="5.20212">
        <ele>390</ele>
        <time>2019-09-01T07:00:46Z</time>
      </trkpt>
      <trkpt lat="44.7175" lon="5.20209">
        <ele>390</ele>
        <time>2019-09-01T07:00:48Z</time>
      </trkpt>
      <trkpt lat="44.71753" lon="5.20207">
        <ele>394</ele>
        <time>2019-09-01T07:00:50Z</time>
      </trkpt>
      <trkpt lat="44.71755" lon="5.20204">
        <ele>393</ele>
        <time>2019-09-01T07:00:52Z</time>
      </trkpt>
      <trkpt lat="44.71759" lon="5.20202">
        <ele>393</ele>
        <time>2019-09-01T07:00:54Z</time>
      </trkpt>
      <trkpt lat="44.71761" lon="5.202">
        <ele>392</ele>
        <time>2019-09-01T07:00:56Z</time>
      </trkpt>
      <trkpt lat="44.71763" lon="5.20198">
        <ele>392</ele>
        <time>2019-09-01T07:00:58Z</time>
      </trkpt>
      <trkpt lat="44.71767" lon="5.20195">
        <ele>391</ele>
        <time>2019-09-01T07:01:01Z</time>
      </trkpt>
      <trkpt lat="44.71769" lon="5.20193">
        <ele>391</ele>
        <time>2019-09-01T07:01:03Z</time>
      </trkpt>
      <trkpt lat="44.71773" lon="5.20193">
        <ele>391</ele>
        <time>2019-09-01T07:01:05Z</time>
      </trkpt>
      <trkpt lat="44.71776" lon="5.20193">
        <ele>391</ele>
        <time>2019-09-01T07:01:07Z</time>
      </trkpt>
      <trkpt lat="44.71779" lon="5.20193">
        <ele>392</ele>
        <time>2019-09-01T07:01:09Z</time>
      </trkpt>
      <trkpt lat="44.71782" lon="5.20194">
        <ele>392</ele>
        <time>2019-09-01T07:01:11Z</time>
      </trkpt>
      <trkpt lat="44.71785" lon="5.20196">
        <ele>392</ele>
        <time>2019-09-01T07:01:13Z</time>
      </trkpt>
      <trkpt lat="44.71788" lon="5.20197">
        <ele>393</ele>
        <time>2019-09-01T07:01:15Z</time>
      </trkpt>
      <trkpt lat="44.71791" lon="5.20199">
        <ele>393</ele>
        <time>2019-09-01T07:01:17Z</time>
      </trkpt>
      <trkpt lat="44.71793" lon="5.20203">
        <ele>394</ele>
        <time>2019-09-01T07:01:19Z</time>
      </trkpt>
      <trkpt lat="44.71795" lon="5.20206">
        <ele>394</ele>
        <time>2019-09-01T07:01:21Z</time>
      </trkpt>
      <trkpt lat="44.71798" lon="5.2021">
        <ele>395</ele>
        <time>2019-09-01T07:01:23Z</time>
      </trkpt>
      <trkpt lat="44.718" lon="5.20214">
        <ele>396</ele>
        <time>2019-09-01T07:01:25Z</time>
      </trkpt>
      <trkpt lat="44.71803" lon="5.20218">
        <ele>397</ele>
        <time>2019-09-01T07:01:27Z</time>
      </trkpt>
      <trkpt lat="44.71805" lon="5.20222">
        <ele>398</ele>
        <time>2019-09-01T07:01:29Z</time>
      </trkpt>
      <trkpt lat="44.71808" lon="5.20225">
        <ele>398</ele>
        <time>2019-09-01T07:01:31Z</time>
      </trkpt>
      <trkpt lat="44.7181" lon="5.20229">
        <ele>399</ele>
        <time>2019-09-01T07:01:33Z</time>
      </trkpt>
      <trkpt lat="44.71813" lon="5.20233">
        <ele>400</ele>
        <time>2019-09-01T07:01:35Z</time>
      </trkpt>
      <trkpt lat="44.71815" lon="5.20236">
        <ele>401</ele>
        <time>2019-09-01T07:01:37Z</time>
      </trkpt>
      <trkpt lat="44.71818" lon="5.20238">
        <ele>402</ele>
        <time>2019-09-01T07:01:39Z</time>
      </trkpt>
      <trkpt lat="44.71821" lon="5.20239">
        <ele>403</ele>
        <time>2019-09-01T07:01:41Z</time>
      </trkpt>
      <trkpt lat="44.71825" lon="5.2024">
        <ele>404</ele>
        <time>2019-09-01T07:01:43Z</time>
      </trkpt>
      <trkpt lat="44.71828" lon="5.20241">
        <ele>405</ele>
        <time>2019-09-01T07:01:45Z</time>
      </trkpt>
      <trkpt lat="44.71832" lon="5.20242">
        <ele>407</ele>
        <time>2019-09-01T07:01:47Z</time>
      </trkpt>
      <trkpt lat="44.71836" lon="5.20243">
        <ele>407</ele>
        <time>2019-09-01T07:01:49Z</time>
      </trkpt>
      <trkpt lat="44.71839" lon="5.20244">
        <ele>406</ele>
        <time>2019-09-01T07:01:51Z</time>
      </trkpt>
      <trkpt lat="44.71843" lon="5.20244">
        <ele>405</ele>
        <time>2019-09-01T07:01:53Z</time>
      </trkpt>
      <trkpt lat="44.71847" lon="5.20243">
        <ele>404</ele>
        <time>2019-09-01T07:01:55Z</time>
      </trkpt>
      <trkpt lat="44.71851" lon="5.20243">
        <ele>402</ele>
        <time>2019-09-01T07:01:57Z</time>
      </trkpt>
      <trkpt lat="44.71854" lon="5.20243">
        <ele>402</ele>
        <time>2019-09-01T07:01:59Z</time>
      </trkpt>
      <trkpt lat="44.71858" lon="5.20243">
        <ele>401</ele>
        <time>2019-09-01T07:02:01Z</time>
      </trkpt>
      <trkpt lat="44.71861" lon="5.20244">
        <ele>400</ele>
        <time>2019-09-01T07:02:03Z</time>
      </trkpt>
      <trkpt lat="44.71864" lon="5.20246">
        <ele>400</ele>
        <time>2019-09-01T07:02:05Z</time>
      </trkpt>
      <trkpt lat="44.71868" lon="5.20247">
        <ele>400</ele>
        <time>2019-09-01T07:02:07Z</time>
      </trkpt>
      <trkpt lat="44.71872" lon="5.20248">
        <ele>399</ele>
        <time>2019-09-01T07:02:09Z</time>
      </trkpt>
      <trkpt lat="44.71875" lon="5.2025">
        <ele>399</ele>
        <time>2019-09-01T07:02:11Z</time>
      </trkpt>
      <trkpt lat="44.71879" lon="5.2025">
        <ele>417</ele>
        <time>2019-09-01T07:02:13Z</time>
      </trkpt>
      <trkpt lat="44.71883" lon="5.20252">
        <ele>417</ele>
        <time>2019-09-01T07:02:15Z</time>
      </trkpt>
      <trkpt lat="44.71887" lon="5.20252">
        <ele>416</ele>
        <time>2019-09-01T07:02:17Z</time>
      </trkpt>
      <trkpt lat="44.71891" lon="5.20252">
        <ele>416</ele>
        <time>2019-09-01T07:02:19Z</time>
      </trkpt>
      <trkpt lat="44.71894" lon="5.20254">
        <ele>415</ele>
        <time>2019-09-01T07:02:21Z</time>
      </trkpt>
      <trkpt lat="44.71898" lon="5.20254">
        <ele>414</ele>
        <time>2019-09-01T07:02:23Z</time>
      </trkpt>
      <trkpt lat="44.71901" lon="5.20255">
        <ele>413</ele>
        <time>2019-09-01T07:02:25Z</time>
      </trkpt>
      <trkpt lat="44.71905" lon="5.20257">
        <ele>412</ele>
        <time>2019-09-01T07:02:27Z</time>
      </trkpt>
      <trkpt lat="44.71908" lon="5.2026">
        <ele>411</ele>
        <time>2019-09-01T07:02:29Z</time>
      </trkpt>
      <trkpt lat="44.71911" lon="5.20262">
        <ele>412</ele>
        <time>2019-09-01T07:02:31Z</time>
      </trkpt>
      <trkpt lat="44.71914" lon="5.20264">
        <ele>412</ele>
        <time>2019-09-01T07:02:33Z</time>
      </trkpt>
      <trkpt lat="44.71917" lon="5.20267">
        <ele>412</ele>
        <time>2019-09-01T07:02:35Z</time>
      </trkpt>
      <trkpt lat="44.71921" lon="5.20269">
        <ele>413</ele>
        <time>2019-09-01T07:02:37Z</time>
      </trkpt>
      <trkpt lat="44.71926" lon="5.20272">
        <ele>414</ele>
        <time>2019-09-01T07:02:39Z</time>
      </trkpt>
      <trkpt lat="44.71928" lon="5.20273">
        <ele>415</ele>
        <time>2019-09-01T07:02:40Z</time>
      </trkpt>
      <trkpt lat="44.71931" lon="5.20274">
        <ele>415</ele>
        <time>2019-09-01T07:02:41Z</time>
      </trkpt>
      <trkpt lat="44.71934" lon="5.20275">
        <ele>416</ele>
        <time>2019-09-01T07:02:43Z</time>
      </trkpt>
      <trkpt lat="44.71937" lon="5.20279">
        <ele>417</ele>
        <time>2019-09-01T07:02:45Z</time>
      </trkpt>
      <trkpt lat="44.71936" lon="5.20286">
        <ele>418</ele>
        <time>2019-09-01T07:02:47Z</time>
      </trkpt>
      <trkpt lat="44.71934" lon="5.20289">
        <ele>419</ele>
        <time>2019-09-01T07:02:50Z</time>
      </trkpt>
      <trkpt lat="44.71932" lon="5.20291">
        <ele>419</ele>
        <time>2019-09-01T07:02:54Z</time>
      </trkpt>
      <trkpt lat="44.71929" lon="5.20291">
        <ele>419</ele>
        <time>2019-09-01T07:02:57Z</time>
      </trkpt>
      <trkpt lat="44.71926" lon="5.20293">
        <ele>419</ele>
        <time>2019-09-01T07:02:59Z</time>
      </trkpt>
      <trkpt lat="44.71924" lon="5.20296">
        <ele>420</ele>
        <time>2019-09-01T07:03:02Z</time>
      </trkpt>
      <trkpt lat="44.71924" lon="5.203">
        <ele>421</ele>
        <time>2019-09-01T07:03:06Z</time>
      </trkpt>
      <trkpt lat="44.71925" lon="5.20305">
        <ele>422</ele>
        <time>2019-09-01T07:03:10Z</time>
      </trkpt>
      <trkpt lat="44.71927" lon="5.20308">
        <ele>422</ele>
        <time>2019-09-01T07:03:13Z</time>
      </trkpt>
      <trkpt lat="44.7193" lon="5.20311">
        <ele>423</ele>
        <time>2019-09-01T07:03:16Z</time>
      </trkpt>
      <trkpt lat="44.71932" lon="5.20313">
        <ele>423</ele>
        <time>2019-09-01T07:03:18Z</time>
      </trkpt>
      <trkpt lat="44.71935" lon="5.20315">
        <ele>423</ele>
        <time>2019-09-01T07:03:22Z</time>
      </trkpt>
      <trkpt lat="44.71937" lon="5.20317">
        <ele>424</ele>
        <time>2019-09-01T07:03:24Z</time>
      </trkpt>
      <trkpt lat="44.7194" lon="5.20319">
        <ele>424</ele>
        <time>2019-09-01T07:03:27Z</time>
      </trkpt>
      <trkpt lat="44.71943" lon="5.20322">
        <ele>424</ele>
        <time>2019-09-01T07:03:30Z</time>
      </trkpt>
      <trkpt lat="44.71943" lon="5.20327">
        <ele>424</ele>
        <time>2019-09-01T07:03:32Z</time>
      </trkpt>
      <trkpt lat="44.71944" lon="5.20331">
        <ele>425</ele>
        <time>2019-09-01T07:03:34Z</time>
      </trkpt>
      <trkpt lat="44.71945" lon="5.20334">
        <ele>436</ele>
        <time>2019-09-01T07:03:36Z</time>
      </trkpt>
      <trkpt lat="44.71946" lon="5.2034">
        <ele>437</ele>
        <time>2019-09-01T07:03:38Z</time>
      </trkpt>
      <trkpt lat="44.71946" lon="5.20344">
        <ele>437</ele>
        <time>2019-09-01T07:03:40Z</time>
      </trkpt>
      <trkpt lat="44.71946" lon="5.20349">
        <ele>437</ele>
        <time>2019-09-01T07:03:42Z</time>
      </trkpt>
      <trkpt lat="44.71946" lon="5.20353">
        <ele>438</ele>
        <time>2019-09-01T07:03:44Z</time>
      </trkpt>
      <trkpt lat="44.71946" lon="5.20358">
        <ele>438</ele>
        <time>2019-09-01T07:03:46Z</time>
      </trkpt>
      <trkpt lat="44.71946" lon="5.20362">
        <ele>438</ele>
        <time>2019-09-01T07:03:48Z</time>
      </trkpt>
      <trkpt lat="44.71946" lon="5.20366">
        <ele>439</ele>
        <time>2019-09-01T07:03:51Z</time>
      </trkpt>
      <trkpt lat="44.71945" lon="5.20371">
        <ele>439</ele>
        <time>2019-09-01T07:03:54Z</time>
      </trkpt>
      <trkpt lat="44.71944" lon="5.20375">
        <ele>439</ele>
        <time>2019-09-01T07:03:57Z</time>
      </trkpt>
      <trkpt lat="44.71944" lon="5.20379">
        <ele>440</ele>
        <time>2019-09-01T07:04:00Z</time>
      </trkpt>
      <trkpt lat="44.71943" lon="5.20384">
        <ele>440</ele>
        <time>2019-09-01T07:04:03Z</time>
      </trkpt>
      <trkpt lat="44.7194" lon="5.20388">
        <ele>440</ele>
        <time>2019-09-01T07:04:06Z</time>
      </trkpt>
      <trkpt lat="44.71938" lon="5.20391">
        <ele>440</ele>
        <time>2019-09-01T07:04:09Z</time>
      </trkpt>
      <trkpt lat="44.71937" lon="5.20394">
        <ele>440</ele>
        <time>2019-09-01T07:04:11Z</time>
      </trkpt>
      <trkpt lat="44.71934" lon="5.20398">
        <ele>440</ele>
        <time>2019-09-01T07:04:14Z</time>
      </trkpt>
      <trkpt lat="44.71932" lon="5.20401">
        <ele>440</ele>
        <time>2019-09-01T07:04:17Z</time>
      </trkpt>
      <trkpt lat="44.71929" lon="5.20404">
        <ele>440</ele>
        <time>2019-09-01T07:04:20Z</time>
      </trkpt>
      <trkpt lat="44.71926" lon="5.20407">
        <ele>440</ele>
        <time>2019-09-01T07:04:23Z</time>
      </trkpt>
      <trkpt lat="44.71924" lon="5.2041">
        <ele>440</ele>
        <time>2019-09-01T07:04:25Z</time>
      </trkpt>
      <trkpt lat="44.71922" lon="5.20413">
        <ele>439</ele>
        <time>2019-09-01T07:04:28Z</time>
      </trkpt>
      <trkpt lat="44.71919" lon="5.20416">
        <ele>439</ele>
        <time>2019-09-01T07:04:31Z</time>
      </trkpt>
      <trkpt lat="44.71916" lon="5.2042">
        <ele>441</ele>
        <time>2019-09-01T07:04:34Z</time>
      </trkpt>
      <trkpt lat="44.71913" lon="5.20423">
        <ele>443</ele>
        <time>2019-09-01T07:04:37Z</time>
      </trkpt>
      <trkpt lat="44.71911" lon="5.20425">
        <ele>445</ele>
        <time>2019-09-01T07:04:39Z</time>
      </trkpt>
      <trkpt lat="44.71907" lon="5.20429">
        <ele>447</ele>
        <time>2019-09-01T07:04:42Z</time>
      </trkpt>
      <trkpt lat="44.71904" lon="5.20431">
        <ele>448</ele>
        <time>2019-09-01T07:04:44Z</time>
      </trkpt>
      <trkpt lat="44.719" lon="5.20435">
        <ele>449</ele>
        <time>2019-09-01T07:04:46Z</time>
      </trkpt>
      <trkpt lat="44.71898" lon="5.20439">
        <ele>450</ele>
        <time>2019-09-01T07:04:49Z</time>
      </trkpt>
      <trkpt lat="44.71896" lon="5.20442">
        <ele>451</ele>
        <time>2019-09-01T07:04:51Z</time>
      </trkpt>
      <trkpt lat="44.71892" lon="5.20444">
        <ele>452</ele>
        <time>2019-09-01T07:04:54Z</time>
      </trkpt>
      <trkpt lat="44.71889" lon="5.20446">
        <ele>452</ele>
        <time>2019-09-01T07:04:56Z</time>
      </trkpt>
      <trkpt lat="44.71887" lon="5.20449">
        <ele>453</ele>
        <time>2019-09-01T07:04:59Z</time>
      </trkpt>
      <trkpt lat="44.71885" lon="5.20452">
        <ele>453</ele>
        <time>2019-09-01T07:05:01Z</time>
      </trkpt>
      <trkpt lat="44.71883" lon="5.20456">
        <ele>454</ele>
        <time>2019-09-01T07:05:04Z</time>
      </trkpt>
      <trkpt lat="44.7188" lon="5.2046">
        <ele>454</ele>
        <time>2019-09-01T07:05:07Z</time>
      </trkpt>
      <trkpt lat="44.71878" lon="5.20462">
        <ele>455</ele>
        <time>2019-09-01T07:05:13Z</time>
      </trkpt>
      <trkpt lat="44.71878" lon="5.20458">
        <ele>454</ele>
        <time>2019-09-01T07:05:18Z</time>
      </trkpt>
      <trkpt lat="44.71881" lon="5.20455">
        <ele>454</ele>
        <time>2019-09-01T07:05:21Z</time>
      </trkpt>
      <trkpt lat="44.71884" lon="5.20452">
        <ele>453</ele>
        <time>2019-09-01T07:05:24Z</time>
      </trkpt>
      <trkpt lat="44.71886" lon="5.2045">
        <ele>453</ele>
        <time>2019-09-01T07:05:26Z</time>
      </trkpt>
      <trkpt lat="44.71889" lon="5.20448">
        <ele>453</ele>
        <time>2019-09-01T07:05:28Z</time>
      </trkpt>
      <trkpt lat="44.71892" lon="5.20446">
        <ele>452</ele>
        <time>2019-09-01T07:05:30Z</time>
      </trkpt>
      <trkpt lat="44.71895" lon="5.20444">
        <ele>451</ele>
        <time>2019-09-01T07:05:32Z</time>
      </trkpt>
      <trkpt lat="44.71899" lon="5.20443">
        <ele>451</ele>
        <time>2019-09-01T07:05:34Z</time>
      </trkpt>
      <trkpt lat="44.71902" lon="5.20444">
        <ele>450</ele>
        <time>2019-09-01T07:05:36Z</time>
      </trkpt>
      <trkpt lat="44.71906" lon="5.20446">
        <ele>450</ele>
        <time>2019-09-01T07:05:38Z</time>
      </trkpt>
      <trkpt lat="44.71908" lon="5.2045">
        <ele>451</ele>
        <time>2019-09-01T07:05:40Z</time>
      </trkpt>
      <trkpt lat="44.71911" lon="5.20454">
        <ele>451</ele>
        <time>2019-09-01T07:05:42Z</time>
      </trkpt>
      <trkpt lat="44.71913" lon="5.20459">
        <ele>452</ele>
        <time>2019-09-01T07:05:44Z</time>
      </trkpt>
      <trkpt lat="44.71914" lon="5.20464">
        <ele>452</ele>
        <time>2019-09-01T07:05:46Z</time>
      </trkpt>
      <trkpt lat="44.71915" lon="5.20469">
        <ele>452</ele>
        <time>2019-09-01T07:05:48Z</time>
      </trkpt>
      <trkpt lat="44.71916" lon="5.20475">
        <ele>453</ele>
        <time>2019-09-01T07:05:50Z</time>
      </trkpt>
      <trkpt lat="44.71917" lon="5.2048">
        <ele>453</ele>
        <time>2019-09-01T07:05:52Z</time>
      </trkpt>
      <trkpt lat="44.71918" lon="5.20485">
        <ele>453</ele>
        <time>2019-09-01T07:05:54Z</time>
      </trkpt>
      <trkpt lat="44.71919" lon="5.2049">
        <ele>453</ele>
        <time>2019-09-01T07:05:56Z</time>
      </trkpt>
      <trkpt lat="44.7192" lon="5.20494">
        <ele>453</ele>
        <time>2019-09-01T07:05:58Z</time>
      </trkpt>
      <trkpt lat="44.71921" lon="5.20499">
        <ele>453</ele>
        <time>2019-09-01T07:06:01Z</time>
      </trkpt>
      <trkpt lat="44.71921" lon="5.20503">
        <ele>456</ele>
        <time>2019-09-01T07:06:03Z</time>
      </trkpt>
      <trkpt lat="44.71922" lon="5.20508">
        <ele>457</ele>
        <time>2019-09-01T07:06:05Z</time>
      </trkpt>
      <trkpt lat="44.71923" lon="5.20512">
        <ele>459</ele>
        <time>2019-09-01T07:06:07Z</time>
      </trkpt>
      <trkpt lat="44.71923" lon="5.20517">
        <ele>460</ele>
        <time>2019-09-01T07:06:09Z</time>
      </trkpt>
      <trkpt lat="44.71923" lon="5.20522">
        <ele>461</ele>
        <time>2019-09-01T07:06:11Z</time>
      </trkpt>
      <trkpt lat="44.71923" lon="5.20528">
        <ele>462</ele>
        <time>2019-09-01T07:06:13Z</time>
      </trkpt>
      <trkpt lat="44.71924" lon="5.20531">
        <ele>463</ele>
        <time>2019-09-01T07:06:15Z</time>
      </trkpt>
      <trkpt lat="44.71925" lon="5.20535">
        <ele>463</ele>
        <time>2019-09-01T07:06:17Z</time>
      </trkpt>
      <trkpt lat="44.71926" lon="5.20539">
        <ele>464</ele>
        <time>2019-09-01T07:06:19Z</time>
      </trkpt>
      <trkpt lat="44.71928" lon="5.20544">
        <ele>465</ele>
        <time>2019-09-01T07:06:22Z</time>
      </trkpt>
      <trkpt lat="44.71929" lon="5.20548">
        <ele>465</ele>
        <time>2019-09-01T07:06:24Z</time>
      </trkpt>
      <trkpt lat="44.7193" lon="5.20553">
        <ele>466</ele>
        <time>2019-09-01T07:06:27Z</time>
      </trkpt>
      <trkpt lat="44.71931" lon="5.20557">
        <ele>466</ele>
        <time>2019-09-01T07:06:29Z</time>
      </trkpt>
      <trkpt lat="44.71932" lon="5.20561">
        <ele>466</ele>
        <time>2019-09-01T07:06:31Z</time>
      </trkpt>
      <trkpt lat="44.71933" lon="5.20565">
        <ele>467</ele>
        <time>2019-09-01T07:06:33Z</time>
      </trkpt>
      <trkpt lat="44.71934" lon="5.2057">
        <ele>467</ele>
        <time>2019-09-01T07:06:36Z</time>
      </trkpt>
      <trkpt lat="44.71935" lon="5.20573">
        <ele>467</ele>
        <time>2019-09-01T07:06:38Z</time>
      </trkpt>
      <trkpt lat="44.71937" lon="5.20578">
        <ele>467</ele>
        <time>2019-09-01T07:06:41Z</time>
      </trkpt>
      <trkpt lat="44.71938" lon="5.20582">
        <ele>467</ele>
        <time>2019-09-01T07:06:43Z</time>
      </trkpt>
      <trkpt lat="44.71938" lon="5.20587">
        <ele>473</ele>
        <time>2019-09-01T07:06:45Z</time>
      </trkpt>
      <trkpt lat="44.71939" lon="5.20591">
        <ele>474</ele>
        <time>2019-09-01T07:06:47Z</time>
      </trkpt>
      <trkpt lat="44.71941" lon="5.20597">
        <ele>474</ele>
        <time>2019-09-01T07:06:50Z</time>
      </trkpt>
      <trkpt lat="44.71942" lon="5.20601">
        <ele>475</ele>
        <time>2019-09-01T07:06:52Z</time>
      </trkpt>
      <trkpt lat="44.71942" lon="5.20605">
        <ele>475</ele>
        <time>2019-09-01T07:06:54Z</time>
      </trkpt>
      <trkpt lat="44.71942" lon="5.20609">
        <ele>475</ele>
        <time>2019-09-01T07:06:56Z</time>
      </trkpt>
      <trkpt lat="44.71943" lon="5.20613">
        <ele>476</ele>
        <time>2019-09-01T07:06:58Z</time>
      </trkpt>
      <trkpt lat="44.71942" lon="5.20617">
        <ele>476</ele>
        <time>2019-09-01T07:07:00Z</time>
      </trkpt>
      <trkpt lat="44.71942" lon="5.20621">
        <ele>477</ele>
        <time>2019-09-01T07:07:03Z</time>
      </trkpt>
      <trkpt lat="44.71942" lon="5.20625">
        <ele>477</ele>
        <time>2019-09-01T07:07:06Z</time>
      </trkpt>
      <trkpt lat="44.71943" lon="5.20629">
        <ele>477</ele>
        <time>2019-09-01T07:07:08Z</time>
      </trkpt>
      <trkpt lat="44.71943" lon="5.20633">
        <ele>478</ele>
        <time>2019-09-01T07:07:10Z</time>
      </trkpt>
      <trkpt lat="44.71943" lon="5.20637">
        <ele>478</ele>
        <time>2019-09-01T07:07:13Z</time>
      </trkpt>
      <trkpt lat="44.71944" lon="5.20642">
        <ele>479</ele>
        <time>2019-09-01T07:07:16Z</time>
      </trkpt>
      <trkpt lat="44.71945" lon="5.20647">
        <ele>479</ele>
        <time>2019-09-01T07:07:19Z</time>
      </trkpt>
      <trkpt lat="44.71946" lon="5.20652">
        <ele>479</ele>
        <time>2019-09-01T07:07:22Z</time>
      </trkpt>
      <trkpt lat="44.71946" lon="5.20657">
        <ele>479</ele>
        <time>2019-09-01T07:07:25Z</time>
      </trkpt>
      <trkpt lat="44.71947" lon="5.20661">
        <ele>480</ele>
        <time>2019-09-01T07:07:28Z</time>
      </trkpt>
      <trkpt lat="44.71948" lon="5.20664">
        <ele>480</ele>
        <time>2019-09-01T07:07:31Z</time>
      </trkpt>
      <trkpt lat="44.7195" lon="5.20668">
        <ele>486</ele>
        <time>2019-09-01T07:07:34Z</time>
      </trkpt>
      <trkpt lat="44.71951" lon="5.20673">
        <ele>486</ele>
        <time>2019-09-01T07:07:38Z</time>
      </trkpt>
      <trkpt lat="44.71951" lon="5.20677">
        <ele>486</ele>
        <time>2019-09-01T07:07:41Z</time>
      </trkpt>
      <trkpt lat="44.71952" lon="5.20681">
        <ele>487</ele>
        <time>2019-09-01T07:07:45Z</time>
      </trkpt>
      <trkpt lat="44.71952" lon="5.20685">
        <ele>487</ele>
        <time>2019-09-01T07:07:47Z</time>
      </trkpt>
      <trkpt lat="44.71954" lon="5.20688">
        <ele>487</ele>
        <time>2019-09-01T07:07:49Z</time>
      </trkpt>
      <trkpt lat="44.71954" lon="5.20693">
        <ele>487</ele>
        <time>2019-09-01T07:07:52Z</time>
      </trkpt>
      <trkpt lat="44.71956" lon="5.20697">
        <ele>487</ele>
        <time>2019-09-01T07:07:56Z</time>
      </trkpt>
      <trkpt lat="44.71957" lon="5.20701">
        <ele>488</ele>
        <time>2019-09-01T07:07:58Z</time>
      </trkpt>
      <trkpt lat="44.71958" lon="5.20704">
        <ele>488</ele>
        <time>2019-09-01T07:08:00Z</time>
      </trkpt>
      <trkpt lat="44.71959" lon="5.20709">
        <ele>488</ele>
        <time>2019-09-01T07:08:03Z</time>
      </trkpt>
      <trkpt lat="44.71959" lon="5.20713">
        <ele>488</ele>
        <time>2019-09-01T07:08:05Z</time>
      </trkpt>
      <trkpt lat="44.7196" lon="5.20718">
        <ele>489</ele>
        <time>2019-09-01T07:08:09Z</time>
      </trkpt>
      <trkpt lat="44.7196" lon="5.20724">
        <ele>489</ele>
        <time>2019-09-01T07:08:12Z</time>
      </trkpt>
      <trkpt lat="44.71961" lon="5.20728">
        <ele>489</ele>
        <time>2019-09-01T07:08:15Z</time>
      </trkpt>
      <trkpt lat="44.71961" lon="5.20733">
        <ele>489</ele>
        <time>2019-09-01T07:08:17Z</time>
      </trkpt>
      <trkpt lat="44.71961" lon="5.20737">
        <ele>489</ele>
        <time>2019-09-01T07:08:19Z</time>
      </trkpt>
      <trkpt lat="44.71961" lon="5.20742">
        <ele>490</ele>
        <time>2019-09-01T07:08:22Z</time>
      </trkpt>
      <trkpt lat="44.7196" lon="5.20746">
        <ele>490</ele>
        <time>2019-09-01T07:08:25Z</time>
      </trkpt>
      <trkpt lat="44.71961" lon="5.2075">
        <ele>490</ele>
        <time>2019-09-01T07:08:27Z</time>
      </trkpt>
      <trkpt lat="44.7196" lon="5.20755">
        <ele>495</ele>
        <time>2019-09-01T07:08:29Z</time>
      </trkpt>
      <trkpt lat="44.71961" lon="5.20759">
        <ele>495</ele>
        <time>2019-09-01T07:08:32Z</time>
      </trkpt>
      <trkpt lat="44.7196" lon="5.20764">
        <ele>495</ele>
        <time>2019-09-01T07:08:35Z</time>
      </trkpt>
      <trkpt lat="44.71959" lon="5.2077">
        <ele>495</ele>
        <time>2019-09-01T07:08:38Z</time>
      </trkpt>
      <trkpt lat="44.71958" lon="5.20774">
        <ele>496</ele>
        <time>2019-09-01T07:08:41Z</time>
      </trkpt>
      <trkpt lat="44.71956" lon="5.20778">
        <ele>496</ele>
        <time>2019-09-01T07:08:44Z</time>
      </trkpt>
      <trkpt lat="44.71954" lon="5.20781">
        <ele>496</ele>
        <time>2019-09-01T07:08:46Z</time>
      </trkpt>
      <trkpt lat="44.71953" lon="5.20784">
        <ele>496</ele>
        <time>2019-09-01T07:08:48Z</time>
      </trkpt>
      <trkpt lat="44.71952" lon="5.20788">
        <ele>496</ele>
        <time>2019-09-01T07:08:50Z</time>
      </trkpt>
      <trkpt lat="44.71952" lon="5.20792">
        <ele>496</ele>
        <time>2019-09-01T07:08:53Z</time>
      </trkpt>
      <trkpt lat="44.71949" lon="5.20797">
        <ele>497</ele>
        <time>2019-09-01T07:08:56Z</time>
      </trkpt>
      <trkpt lat="44.71948" lon="5.20802">
        <ele>497</ele>
        <time>2019-09-01T07:08:59Z</time>
      </trkpt>
      <trkpt lat="44.71945" lon="5.20804">
        <ele>497</ele>
        <time>2019-09-01T07:09:01Z</time>
      </trkpt>
      <trkpt lat="44.71942" lon="5.20807">
        <ele>497</ele>
        <time>2019-09-01T07:09:03Z</time>
      </trkpt>
      <trkpt lat="44.71941" lon="5.20811">
        <ele>497</ele>
        <time>2019-09-01T07:09:05Z</time>
      </trkpt>
      <trkpt lat="44.71938" lon="5.20814">
        <ele>498</ele>
        <time>2019-09-01T07:09:08Z</time>
      </trkpt>
      <trkpt lat="44.71936" lon="5.20817">
        <ele>498</ele>
        <time>2019-09-01T07:09:10Z</time>
      </trkpt>
      <trkpt lat="44.71934" lon="5.20821">
        <ele>498</ele>
        <time>2019-09-01T07:09:12Z</time>
      </trkpt>
      <trkpt lat="44.71932" lon="5.20825">
        <ele>498</ele>
        <time>2019-09-01T07:09:14Z</time>
      </trkpt>
      <trkpt lat="44.7193" lon="5.20829">
        <ele>499</ele>
        <time>2019-09-01T07:09:17Z</time>
      </trkpt>
      <trkpt lat="44.71928" lon="5.20832">
        <ele>499</ele>
        <time>2019-09-01T07:09:19Z</time>
      </trkpt>
      <trkpt lat="44.71926" lon="5.20834">
        <ele>501</ele>
        <time>2019-09-01T07:09:21Z</time>
      </trkpt>
      <trkpt lat="44.71925" lon="5.20838">
        <ele>501</ele>
        <time>2019-09-01T07:09:24Z</time>
      </trkpt>
      <trkpt lat="44.71923" lon="5.20843">
        <ele>501</ele>
        <time>2019-09-01T07:09:27Z</time>
      </trkpt>
      <trkpt lat="44.71922" lon="5.20847">
        <ele>501</ele>
        <time>2019-09-01T07:09:31Z</time>
      </trkpt>
      <trkpt lat="44.71919" lon="5.2085">
        <ele>501</ele>
        <time>2019-09-01T07:09:34Z</time>
      </trkpt>
      <trkpt lat="44.71917" lon="5.20854">
        <ele>510</ele>
        <time>2019-09-01T07:09:37Z</time>
      </trkpt>
      <trkpt lat="44.71913" lon="5.20858">
        <ele>511</ele>
        <time>2019-09-01T07:09:40Z</time>
      </trkpt>
      <trkpt lat="44.71912" lon="5.20862">
        <ele>512</ele>
        <time>2019-09-01T07:09:43Z</time>
      </trkpt>
      <trkpt lat="44.71909" lon="5.20865">
        <ele>513</ele>
        <time>2019-09-01T07:09:46Z</time>
      </trkpt>
      <trkpt lat="44.71907" lon="5.20868">
        <ele>514</ele>
        <time>2019-09-01T07:09:48Z</time>
      </trkpt>
      <trkpt lat="44.71904" lon="5.20871">
        <ele>514</ele>
        <time>2019-09-01T07:09:50Z</time>
      </trkpt>
      <trkpt lat="44.71902" lon="5.20874">
        <ele>515</ele>
        <time>2019-09-01T07:09:52Z</time>
      </trkpt>
      <trkpt lat="44.71901" lon="5.20879">
        <ele>515</ele>
        <time>2019-09-01T07:09:55Z</time>
      </trkpt>
      <trkpt lat="44.71903" lon="5.20883">
        <ele>515</ele>
        <time>2019-09-01T07:09:59Z</time>
      </trkpt>
      <trkpt lat="44.71906" lon="5.20882">
        <ele>515</ele>
        <time>2019-09-01T07:10:02Z</time>
      </trkpt>
      <trkpt lat="44.71909" lon="5.2088">
        <ele>514</ele>
        <time>2019-09-01T07:10:05Z</time>
      </trkpt>
      <trkpt lat="44.71912" lon="5.20877">
        <ele>514</ele>
        <time>2019-09-01T07:10:08Z</time>
      </trkpt>
      <trkpt lat="44.71914" lon="5.20875">
        <ele>514</ele>
        <time>2019-09-01T07:10:10Z</time>
      </trkpt>
      <trkpt lat="44.71917" lon="5.20872">
        <ele>503</ele>
        <time>2019-09-01T07:10:12Z</time>
      </trkpt>
      <trkpt lat="44.7192" lon="5.20871">
        <ele>503</ele>
        <time>2019-09-01T07:10:14Z</time>
      </trkpt>
      <trkpt lat="44.71923" lon="5.2087">
        <ele>503</ele>
        <time>2019-09-01T07:10:16Z</time>
      </trkpt>
      <trkpt lat="44.71925" lon="5.20869">
        <ele>503</ele>
        <time>2019-09-01T07:10:18Z</time>
      </trkpt>
      <trkpt lat="44.71928" lon="5.20867">
        <ele>503</ele>
        <time>2019-09-01T07:10:20Z</time>
      </trkpt>
      <trkpt lat="44.71932" lon="5.20866">
        <ele>503</ele>
        <time>2019-09-01T07:10:23Z</time>
      </trkpt>
      <trkpt lat="44.71935" lon="5.20866">
        <ele>502</ele>
        <time>2019-09-01T07:10:25Z</time>
      </trkpt>
      <trkpt lat="44.71938" lon="5.20866">
        <ele>502</ele>
        <time>2019-09-01T07:10:27Z</time>
      </trkpt>
      <trkpt lat="44.71942" lon="5.20866">
        <ele>502</ele>
        <time>2019-09-01T07:10:29Z</time>
      </trkpt>
      <trkpt lat="44.71945" lon="5.20867">
        <ele>502</ele>
        <time>2019-09-01T07:10:31Z</time>
      </trkpt>
      <trkpt lat="44.71949" lon="5.20867">
        <ele>502</ele>
        <time>2019-09-01T07:10:33Z</time>
      </trkpt>
      <trkpt lat="44.71952" lon="5.2087">
        <ele>502</ele>
        <time>2019-09-01T07:10:35Z</time>
      </trkpt>
      <trkpt lat="44.71955" lon="5.20871">
        <ele>502</ele>
        <time>2019-09-01T07:10:37Z</time>
      </trkpt>
      <trkpt lat="44.71958" lon="5.20873">
        <ele>502</ele>
        <time>2019-09-01T07:10:39Z</time>
      </trkpt>
      <trkpt lat="44.71961" lon="5.20873">
        <ele>502</ele>
        <time>2019-09-01T07:10:41Z</time>
      </trkpt>
      <trkpt lat="44.71965" lon="5.20874">
        <ele>502</ele>
        <time>2019-09-01T07:10:43Z</time>
      </trkpt>
      <trkpt lat="44.71968" lon="5.20876">
        <ele>502</ele>
        <time>2019-09-01T07:10:45Z</time>
      </trkpt>
      <trkpt lat="44.71971" lon="5.20878">
        <ele>502</ele>
        <time>2019-09-01T07:10:47Z</time>
      </trkpt>
      <trkpt lat="44.71973" lon="5.2088">
        <ele>502</ele>
        <time>2019-09-01T07:10:49Z</time>
      </trkpt>
      <trkpt lat="44.71975" lon="5.20886">
        <ele>502</ele>
        <time>2019-09-01T07:10:51Z</time>
      </trkpt>
      <trkpt lat="44.71975" lon="5.20893">
        <ele>502</ele>
        <time>2019-09-01T07:10:53Z</time>
      </trkpt>
      <trkpt lat="44.71973" lon="5.20898">
        <ele>502</ele>
        <time>2019-09-01T07:10:55Z</time>
      </trkpt>
      <trkpt lat="44.7197" lon="5.20901">
        <ele>502</ele>
        <time>2019-09-01T07:10:57Z</time>
      </trkpt>
      <trkpt lat="44.71967" lon="5.20902">
        <ele>502</ele>
        <time>2019-09-01T07:10:59Z</time>
      </trkpt>
      <trkpt lat="44.71964" lon="5.20903">
        <ele>503</ele>
        <time>2019-09-01T07:11:02Z</time>
      </trkpt>
      <trkpt lat="44.71961" lon="5.20903">
        <ele>503</ele>
        <time>2019-09-01T07:11:04Z</time>
      </trkpt>
      <trkpt lat="44.71957" lon="5.20905">
        <ele>503</ele>
        <time>2019-09-01T07:11:07Z</time>
      </trkpt>
      <trkpt lat="44.71954" lon="5.20906">
        <ele>504</ele>
        <time>2019-09-01T07:11:09Z</time>
      </trkpt>
      <trkpt lat="44.71952" lon="5.20908">
        <ele>504</ele>
        <time>2019-09-01T07:11:12Z</time>
      </trkpt>
      <trkpt lat="44.71949" lon="5.20909">
        <ele>504</ele>
        <time>2019-09-01T07:11:15Z</time>
      </trkpt>
      <trkpt lat="44.71945" lon="5.20911">
        <ele>505</ele>
        <time>2019-09-01T07:11:18Z</time>
      </trkpt>
      <trkpt lat="44.71942" lon="5.20913">
        <ele>505</ele>
        <time>2019-09-01T07:11:20Z</time>
      </trkpt>
      <trkpt lat="44.71939" lon="5.20916">
        <ele>506</ele>
        <time>2019-09-01T07:11:23Z</time>
      </trkpt>
      <trkpt lat="44.71936" lon="5.20919">
        <ele>510</ele>
        <time>2019-09-01T07:11:26Z</time>
      </trkpt>
      <trkpt lat="44.71933" lon="5.20922">
        <ele>510</ele>
        <time>2019-09-01T07:11:28Z</time>
      </trkpt>
      <trkpt lat="44.7193" lon="5.20925">
        <ele>511</ele>
        <time>2019-09-01T07:11:31Z</time>
      </trkpt>
      <trkpt lat="44.71927" lon="5.20928">
        <ele>511</ele>
        <time>2019-09-01T07:11:34Z</time>
      </trkpt>
      <trkpt lat="44.71924" lon="5.20931">
        <ele>511</ele>
        <time>2019-09-01T07:11:36Z</time>
      </trkpt>
      <trkpt lat="44.71922" lon="5.20934">
        <ele>511</ele>
        <time>2019-09-01T07:11:38Z</time>
      </trkpt>
      <trkpt lat="44.7192" lon="5.20936">
        <ele>511</ele>
        <time>2019-09-01T07:11:40Z</time>
      </trkpt>
      <trkpt lat="44.71917" lon="5.20938">
        <ele>511</ele>
        <time>2019-09-01T07:11:42Z</time>
      </trkpt>
      <trkpt lat="44.71914" lon="5.20941">
        <ele>520</ele>
        <time>2019-09-01T07:11:45Z</time>
      </trkpt>
      <trkpt lat="44.71911" lon="5.20945">
        <ele>521</ele>
        <time>2019-09-01T07:11:48Z</time>
      </trkpt>
      <trkpt lat="44.71908" lon="5.20948">
        <ele>522</ele>
        <time>2019-09-01T07:11:51Z</time>
      </trkpt>
      <trkpt lat="44.71905" lon="5.20951">
        <ele>522</ele>
        <time>2019-09-01T07:11:54Z</time>
      </trkpt>
      <trkpt lat="44.71903" lon="5.20954">
        <ele>523</ele>
        <time>2019-09-01T07:11:56Z</time>
      </trkpt>
      <trkpt lat="44.719" lon="5.20955">
        <ele>523</ele>
        <time>2019-09-01T07:11:58Z</time>
      </trkpt>
      <trkpt lat="44.71896" lon="5.20958">
        <ele>524</ele>
        <time>2019-09-01T07:12:01Z</time>
      </trkpt>
      <trkpt lat="44.71893" lon="5.20959">
        <ele>524</ele>
        <time>2019-09-01T07:12:04Z</time>
      </trkpt>
      <trkpt lat="44.7189" lon="5.2096">
        <ele>524</ele>
        <time>2019-09-01T07:12:06Z</time>
      </trkpt>
      <trkpt lat="44.71887" lon="5.20961">
        <ele>525</ele>
        <time>2019-09-01T07:12:08Z</time>
      </trkpt>
      <trkpt lat="44.71885" lon="5.20962">
        <ele>525</ele>
        <time>2019-09-01T07:12:10Z</time>
      </trkpt>
      <trkpt lat="44.71882" lon="5.20963">
        <ele>525</ele>
        <time>2019-09-01T07:12:12Z</time>
      </trkpt>
      <trkpt lat="44.71879" lon="5.20964">
        <ele>526</ele>
        <time>2019-09-01T07:12:16Z</time>
      </trkpt>
      <trkpt lat="44.71876" lon="5.20966">
        <ele>526</ele>
        <time>2019-09-01T07:12:19Z</time>
      </trkpt>
      <trkpt lat="44.71872" lon="5.20969">
        <ele>526</ele>
        <time>2019-09-01T07:12:22Z</time>
      </trkpt>
      <trkpt lat="44.7187" lon="5.20971">
        <ele>527</ele>
        <time>2019-09-01T07:12:24Z</time>
      </trkpt>
      <trkpt lat="44.71867" lon="5.20972">
        <ele>527</ele>
        <time>2019-09-01T07:12:26Z</time>
      </trkpt>
      <trkpt lat="44.71865" lon="5.20974">
        <ele>527</ele>
        <time>2019-09-01T07:12:29Z</time>
      </trkpt>
      <trkpt lat="44.71862" lon="5.20977">
        <ele>528</ele>
        <time>2019-09-01T07:12:32Z</time>
      </trkpt>
      <trkpt lat="44.71858" lon="5.20979">
        <ele>528</ele>
        <time>2019-09-01T07:12:36Z</time>
      </trkpt>
      <trkpt lat="44.71855" lon="5.20981">
        <ele>529</ele>
        <time>2019-09-01T07:12:39Z</time>
      </trkpt>
      <trkpt lat="44.71852" lon="5.20982">
        <ele>529</ele>
        <time>2019-09-01T07:12:42Z</time>
      </trkpt>
      <trkpt lat="44.71849" lon="5.20984">
        <ele>530</ele>
        <time>2019-09-01T07:12:45Z</time>
      </trkpt>
      <trkpt lat="44.71847" lon="5.20986">
        <ele>530</ele>
        <time>2019-09-01T07:12:47Z</time>
      </trkpt>
      <trkpt lat="44.71843" lon="5.20988">
        <ele>531</ele>
        <time>2019-09-01T07:12:50Z</time>
      </trkpt>
      <trkpt lat="44.7184" lon="5.20991">
        <ele>532</ele>
        <time>2019-09-01T07:12:52Z</time>
      </trkpt>
      <trkpt lat="44.71837" lon="5.20993">
        <ele>533</ele>
        <time>2019-09-01T07:12:55Z</time>
      </trkpt>
      <trkpt lat="44.71835" lon="5.20994">
        <ele>534</ele>
        <time>2019-09-01T07:12:58Z</time>
      </trkpt>
      <trkpt lat="44.71831" lon="5.20996">
        <ele>538</ele>
        <time>2019-09-01T07:13:01Z</time>
      </trkpt>
      <trkpt lat="44.71828" lon="5.20998">
        <ele>538</ele>
        <time>2019-09-01T07:13:04Z</time>
      </trkpt>
      <trkpt lat="44.71825" lon="5.20999">
        <ele>539</ele>
        <time>2019-09-01T07:13:06Z</time>
      </trkpt>
      <trkpt lat="44.71821" lon="5.21001">
        <ele>543</ele>
        <time>2019-09-01T07:13:09Z</time>
      </trkpt>
      <trkpt lat="44.71819" lon="5.21003">
        <ele>544</ele>
        <time>2019-09-01T07:13:11Z</time>
      </trkpt>
      <trkpt lat="44.71815" lon="5.21006">
        <ele>545</ele>
        <time>2019-09-01T07:13:15Z</time>
      </trkpt>
      <trkpt lat="44.71812" lon="5.21007">
        <ele>546</ele>
        <time>2019-09-01T07:13:18Z</time>
      </trkpt>
      <trkpt lat="44.71809" lon="5.21009">
        <ele>548</ele>
        <time>2019-09-01T07:13:21Z</time>
      </trkpt>
      <trkpt lat="44.71806" lon="5.21011">
        <ele>548</ele>
        <time>2019-09-01T07:13:23Z</time>
      </trkpt>
      <trkpt lat="44.71802" lon="5.21012">
        <ele>549</ele>
        <time>2019-09-01T07:13:25Z</time>
      </trkpt>
      <trkpt lat="44.71798" lon="5.21013">
        <ele>550</ele>
        <time>2019-09-01T07:13:27Z</time>
      </trkpt>
      <trkpt lat="44.71794" lon="5.21015">
        <ele>551</ele>
        <time>2019-09-01T07:13:30Z</time>
      </trkpt>
      <trkpt lat="44.71792" lon="5.21017">
        <ele>551</ele>
        <time>2019-09-01T07:13:34Z</time>
      </trkpt>
      <trkpt lat="44.71791" lon="5.21021">
        <ele>552</ele>
        <time>2019-09-01T07:13:41Z</time>
      </trkpt>
      <trkpt lat="44.71794" lon="5.21022">
        <ele>552</ele>
        <time>2019-09-01T07:13:51Z</time>
      </trkpt>
      <trkpt lat="44.71797" lon="5.21023">
        <ele>551</ele>
        <time>2019-09-01T07:13:54Z</time>
      </trkpt>
      <trkpt lat="44.718" lon="5.21023">
        <ele>551</ele>
        <time>2019-09-01T07:13:57Z</time>
      </trkpt>
      <trkpt lat="44.71803" lon="5.21024">
        <ele>550</ele>
        <time>2019-09-01T07:13:59Z</time>
      </trkpt>
      <trkpt lat="44.71806" lon="5.21026">
        <ele>550</ele>
        <time>2019-09-01T07:14:03Z</time>
      </trkpt>
      <trkpt lat="44.7181" lon="5.21028">
        <ele>550</ele>
        <time>2019-09-01T07:14:06Z</time>
      </trkpt>
      <trkpt lat="44.71813" lon="5.21029">
        <ele>550</ele>
        <time>2019-09-01T07:14:09Z</time>
      </trkpt>
      <trkpt lat="44.71815" lon="5.21031">
        <ele>550</ele>
        <time>2019-09-01T07:14:11Z</time>
      </trkpt>
      <trkpt lat="44.71819" lon="5.21033">
        <ele>550</ele>
        <time>2019-09-01T07:14:14Z</time>
      </trkpt>
      <trkpt lat="44.71823" lon="5.21033">
        <ele>550</ele>
        <time>2019-09-01T07:14:17Z</time>
      </trkpt>
      <trkpt lat="44.71825" lon="5.21037">
        <ele>550</ele>
        <time>2019-09-01T07:14:20Z</time>
      </trkpt>
      <trkpt lat="44.71828" lon="5.21038">
        <ele>550</ele>
        <time>2019-09-01T07:14:23Z</time>
      </trkpt>
      <trkpt lat="44.71831" lon="5.2104">
        <ele>550</ele>
        <time>2019-09-01T07:14:26Z</time>
      </trkpt>
      <trkpt lat="44.71834" lon="5.21042">
        <ele>542</ele>
        <time>2019-09-01T07:14:29Z</time>
      </trkpt>
      <trkpt lat="44.71838" lon="5.21043">
        <ele>542</ele>
        <time>2019-09-01T07:14:32Z</time>
      </trkpt>
      <trkpt lat="44.71841" lon="5.21046">
        <ele>542</ele>
        <time>2019-09-01T07:14:35Z</time>
      </trkpt>
      <trkpt lat="44.71843" lon="5.21049">
        <ele>543</ele>
        <time>2019-09-01T07:14:38Z</time>
      </trkpt>
      <trkpt lat="44.71845" lon="5.21054">
        <ele>544</ele>
        <time>2019-09-01T07:14:41Z</time>
      </trkpt>
      <trkpt lat="44.71845" lon="5.21059">
        <ele>545</ele>
        <time>2019-09-01T07:14:43Z</time>
      </trkpt>
      <trkpt lat="44.71845" lon="5.21064">
        <ele>546</ele>
        <time>2019-09-01T07:14:45Z</time>
      </trkpt>
      <trkpt lat="44.71844" lon="5.21067">
        <ele>547</ele>
        <time>2019-09-01T07:14:47Z</time>
      </trkpt>
      <trkpt lat="44.71842" lon="5.21071">
        <ele>548</ele>
        <time>2019-09-01T07:14:50Z</time>
      </trkpt>
      <trkpt lat="44.71842" lon="5.21075">
        <ele>550</ele>
        <time>2019-09-01T07:14:52Z</time>
      </trkpt>
      <trkpt lat="44.71839" lon="5.2108">
        <ele>552</ele>
        <time>2019-09-01T07:14:55Z</time>
      </trkpt>
      <trkpt lat="44.71836" lon="5.21083">
        <ele>554</ele>
        <time>2019-09-01T07:14:58Z</time>
      </trkpt>
      <trkpt lat="44.71834" lon="5.21087">
        <ele>555</ele>
        <time>2019-09-01T07:15:01Z</time>
      </trkpt>
      <trkpt lat="44.71832" lon="5.21091">
        <ele>559</ele>
        <time>2019-09-01T07:15:04Z</time>
      </trkpt>
      <trkpt lat="44.7183" lon="5.21095">
        <ele>560</ele>
        <time>2019-09-01T07:15:07Z</time>
      </trkpt>
      <trkpt lat="44.71828" lon="5.21099">
        <ele>561</ele>
        <time>2019-09-01T07:15:10Z</time>
      </trkpt>
      <trkpt lat="44.71825" lon="5.21102">
        <ele>561</ele>
        <time>2019-09-01T07:15:13Z</time>
      </trkpt>
      <trkpt lat="44.71823" lon="5.21107">
        <ele>562</ele>
        <time>2019-09-01T07:15:16Z</time>
      </trkpt>
      <trkpt lat="44.7182" lon="5.21111">
        <ele>563</ele>
        <time>2019-09-01T07:15:19Z</time>
      </trkpt>
      <trkpt lat="44.71818" lon="5.21115">
        <ele>563</ele>
        <time>2019-09-01T07:15:22Z</time>
      </trkpt>
      <trkpt lat="44.71816" lon="5.21119">
        <ele>564</ele>
        <time>2019-09-01T07:15:25Z</time>
      </trkpt>
      <trkpt lat="44.71814" lon="5.21123">
        <ele>564</ele>
        <time>2019-09-01T07:15:28Z</time>
      </trkpt>
      <trkpt lat="44.71812" lon="5.21126">
        <ele>564</ele>
        <time>2019-09-01T07:15:30Z</time>
      </trkpt>
      <trkpt lat="44.71809" lon="5.2113">
        <ele>565</ele>
        <time>2019-09-01T07:15:33Z</time>
      </trkpt>
      <trkpt lat="44.71807" lon="5.21134">
        <ele>565</ele>
        <time>2019-09-01T07:15:36Z</time>
      </trkpt>
      <trkpt lat="44.71805" lon="5.21137">
        <ele>565</ele>
        <time>2019-09-01T07:15:38Z</time>
      </trkpt>
      <trkpt lat="44.71802" lon="5.21141">
        <ele>566</ele>
        <time>2019-09-01T07:15:41Z</time>
      </trkpt>
      <trkpt lat="44.718" lon="5.21145">
        <ele>566</ele>
        <time>2019-09-01T07:15:44Z</time>
      </trkpt>
      <trkpt lat="44.71797" lon="5.21149">
        <ele>567</ele>
        <time>2019-09-01T07:15:47Z</time>
      </trkpt>
      <trkpt lat="44.71795" lon="5.21153">
        <ele>567</ele>
        <time>2019-09-01T07:15:50Z</time>
      </trkpt>
      <trkpt lat="44.71793" lon="5.21156">
        <ele>568</ele>
        <time>2019-09-01T07:15:53Z</time>
      </trkpt>
      <trkpt lat="44.71791" lon="5.21161">
        <ele>568</ele>
        <time>2019-09-01T07:15:56Z</time>
      </trkpt>
      <trkpt lat="44.71789" lon="5.21164">
        <ele>569</ele>
        <time>2019-09-01T07:15:59Z</time>
      </trkpt>
      <trkpt lat="44.71788" lon="5.21167">
        <ele>575</ele>
        <time>2019-09-01T07:16:03Z</time>
      </trkpt>
      <trkpt lat="44.71786" lon="5.21172">
        <ele>575</ele>
        <time>2019-09-01T07:16:06Z</time>
      </trkpt>
      <trkpt lat="44.71785" lon="5.21177">
        <ele>576</ele>
        <time>2019-09-01T07:16:09Z</time>
      </trkpt>
      <trkpt lat="44.71784" lon="5.21182">
        <ele>576</ele>
        <time>2019-09-01T07:16:12Z</time>
      </trkpt>
      <trkpt lat="44.71783" lon="5.21185">
        <ele>576</ele>
        <time>2019-09-01T07:16:14Z</time>
      </trkpt>
      <trkpt lat="44.71781" lon="5.2119">
        <ele>577</ele>
        <time>2019-09-01T07:16:17Z</time>
      </trkpt>
      <trkpt lat="44.7178" lon="5.21194">
        <ele>577</ele>
        <time>2019-09-01T07:16:19Z</time>
      </trkpt>
      <trkpt lat="44.71779" lon="5.21199">
        <ele>577</ele>
        <time>2019-09-01T07:16:22Z</time>
      </trkpt>
      <trkpt lat="44.71777" lon="5.21203">
        <ele>578</ele>
        <time>2019-09-01T07:16:25Z</time>
      </trkpt>
      <trkpt lat="44.71776" lon="5.21207">
        <ele>578</ele>
        <time>2019-09-01T07:16:27Z</time>
      </trkpt>
      <trkpt lat="44.71775" lon="5.21212">
        <ele>579</ele>
        <time>2019-09-01T07:16:29Z</time>
      </trkpt>
      <trkpt lat="44.71774" lon="5.21217">
        <ele>579</ele>
        <time>2019-09-01T07:16:32Z</time>
      </trkpt>
      <trkpt lat="44.71773" lon="5.21222">
        <ele>580</ele>
        <time>2019-09-01T07:16:35Z</time>
      </trkpt>
      <trkpt lat="44.71772" lon="5.21227">
        <ele>581</ele>
        <time>2019-09-01T07:16:38Z</time>
      </trkpt>
      <trkpt lat="44.71772" lon="5.21231">
        <ele>581</ele>
        <time>2019-09-01T07:16:40Z</time>
      </trkpt>
      <trkpt lat="44.71771" lon="5.21235">
        <ele>582</ele>
        <time>2019-09-01T07:16:43Z</time>
      </trkpt>
      <trkpt lat="44.7177" lon="5.2124">
        <ele>583</ele>
        <time>2019-09-01T07:16:46Z</time>
      </trkpt>
      <trkpt lat="44.71769" lon="5.21246">
        <ele>584</ele>
        <time>2019-09-01T07:16:49Z</time>
      </trkpt>
      <trkpt lat="44.71769" lon="5.21252">
        <ele>585</ele>
        <time>2019-09-01T07:16:52Z</time>
      </trkpt>
      <trkpt lat="44.71768" lon="5.21256">
        <ele>585</ele>
        <time>2019-09-01T07:16:54Z</time>
      </trkpt>
      <trkpt lat="44.71768" lon="5.21261">
        <ele>585</ele>
        <time>2019-09-01T07:16:57Z</time>
      </trkpt>
      <trkpt lat="44.71768" lon="5.21265">
        <ele>584</ele>
        <time>2019-09-01T07:16:59Z</time>
      </trkpt>
      <trkpt lat="44.71768" lon="5.21269">
        <ele>584</ele>
        <time>2019-09-01T07:17:01Z</time>
      </trkpt>
      <trkpt lat="44.71767" lon="5.21273">
        <ele>583</ele>
        <time>2019-09-01T07:17:03Z</time>
      </trkpt>
      <trkpt lat="44.71766" lon="5.21277">
        <ele>583</ele>
        <time>2019-09-01T07:17:05Z</time>
      </trkpt>
      <trkpt lat="44.71767" lon="5.2128">
        <ele>583</ele>
        <time>2019-09-01T07:17:07Z</time>
      </trkpt>
      <trkpt lat="44.71767" lon="5.21287">
        <ele>582</ele>
        <time>2019-09-01T07:17:10Z</time>
      </trkpt>
      <trkpt lat="44.71767" lon="5.21291">
        <ele>582</ele>
        <time>2019-09-01T07:17:12Z</time>
      </trkpt>
      <trkpt lat="44.71767" lon="5.21295">
        <ele>582</ele>
        <time>2019-09-01T07:17:14Z</time>
      </trkpt>
      <trkpt lat="44.71766" lon="5.21299">
        <ele>582</ele>
        <time>2019-09-01T07:17:16Z</time>
      </trkpt>
      <trkpt lat="44.71766" lon="5.21303">
        <ele>582</ele>
        <time>2019-09-01T07:17:18Z</time>
      </trkpt>
      <trkpt lat="44.71765" lon="5.21309">
        <ele>582</ele>
        <time>2019-09-01T07:17:21Z</time>
      </trkpt>
      <trkpt lat="44.71764" lon="5.21314">
        <ele>583</ele>
        <time>2019-09-01T07:17:24Z</time>
      </trkpt>
      <trkpt lat="44.71762" lon="5.21317">
        <ele>583</ele>
        <time>2019-09-01T07:17:26Z</time>
      </trkpt>
      <trkpt lat="44.71759" lon="5.2132">
        <ele>584</ele>
        <time>2019-09-01T07:17:28Z</time>
      </trkpt>
      <trkpt lat="44.71755" lon="5.21321">
        <ele>585</ele>
        <time>2019-09-01T07:17:30Z</time>
      </trkpt>
      <trkpt lat="44.71751" lon="5.21324">
        <ele>585</ele>
        <time>2019-09-01T07:17:33Z</time>
      </trkpt>
      <trkpt lat="44.71748" lon="5.21326">
        <ele>593</ele>
        <time>2019-09-01T07:17:36Z</time>
      </trkpt>
      <trkpt lat="44.71745" lon="5.21329">
        <ele>592</ele>
        <time>2019-09-01T07:17:38Z</time>
      </trkpt>
      <trkpt lat="44.71742" lon="5.21331">
        <ele>593</ele>
        <time>2019-09-01T07:17:40Z</time>
      </trkpt>
      <trkpt lat="44.71739" lon="5.21334">
        <ele>590</ele>
        <time>2019-09-01T07:17:43Z</time>
      </trkpt>
      <trkpt lat="44.71737" lon="5.21337">
        <ele>590</ele>
        <time>2019-09-01T07:17:45Z</time>
      </trkpt>
      <trkpt lat="44.71735" lon="5.2134">
        <ele>590</ele>
        <time>2019-09-01T07:17:47Z</time>
      </trkpt>
      <trkpt lat="44.71732" lon="5.21343">
        <ele>591</ele>
        <time>2019-09-01T07:17:49Z</time>
      </trkpt>
      <trkpt lat="44.71729" lon="5.21345">
        <ele>591</ele>
        <time>2019-09-01T07:17:51Z</time>
      </trkpt>
      <trkpt lat="44.71727" lon="5.21348">
        <ele>591</ele>
        <time>2019-09-01T07:17:53Z</time>
      </trkpt>
      <trkpt lat="44.71723" lon="5.21351">
        <ele>592</ele>
        <time>2019-09-01T07:17:56Z</time>
      </trkpt>
      <trkpt lat="44.7172" lon="5.21354">
        <ele>592</ele>
        <time>2019-09-01T07:17:58Z</time>
      </trkpt>
      <trkpt lat="44.71717" lon="5.21357">
        <ele>592</ele>
        <time>2019-09-01T07:18:00Z</time>
      </trkpt>
      <trkpt lat="44.71712" lon="5.21358">
        <ele>593</ele>
        <time>2019-09-01T07:18:02Z</time>
      </trkpt>
      <trkpt lat="44.71709" lon="5.2136">
        <ele>594</ele>
        <time>2019-09-01T07:18:04Z</time>
      </trkpt>
      <trkpt lat="44.71706" lon="5.21362">
        <ele>594</ele>
        <time>2019-09-01T07:18:06Z</time>
      </trkpt>
      <trkpt lat="44.71702" lon="5.21365">
        <ele>595</ele>
        <time>2019-09-01T07:18:08Z</time>
      </trkpt>
      <trkpt lat="44.71698" lon="5.21367">
        <ele>595</ele>
        <time>2019-09-01T07:18:10Z</time>
      </trkpt>
      <trkpt lat="44.71694" lon="5.2137">
        <ele>595</ele>
        <time>2019-09-01T07:18:12Z</time>
      </trkpt>
      <trkpt lat="44.7169" lon="5.21372">
        <ele>596</ele>
        <time>2019-09-01T07:18:14Z</time>
      </trkpt>
      <trkpt lat="44.71686" lon="5.21375">
        <ele>596</ele>
        <time>2019-09-01T07:18:16Z</time>
      </trkpt>
      <trkpt lat="44.71682" lon="5.21376">
        <ele>596</ele>
        <time>2019-09-01T07:18:18Z</time>
      </trkpt>
      <trkpt lat="44.71678" lon="5.21378">
        <ele>596</ele>
        <time>2019-09-01T07:18:20Z</time>
      </trkpt>
      <trkpt lat="44.71675" lon="5.2138">
        <ele>596</ele>
        <time>2019-09-01T07:18:22Z</time>
      </trkpt>
      <trkpt lat="44.71672" lon="5.21382">
        <ele>596</ele>
        <time>2019-09-01T07:18:23Z</time>
      </trkpt>
      <trkpt lat="44.7167" lon="5.21385">
        <ele>596</ele>
        <time>2019-09-01T07:18:25Z</time>
      </trkpt>
      <trkpt lat="44.71666" lon="5.21388">
        <ele>616</ele>
        <time>2019-09-01T07:18:27Z</time>
      </trkpt>
      <trkpt lat="44.71663" lon="5.2139">
        <ele>615</ele>
        <time>2019-09-01T07:18:29Z</time>
      </trkpt>
      <trkpt lat="44.7166" lon="5.21393">
        <ele>615</ele>
        <time>2019-09-01T07:18:31Z</time>
      </trkpt>
      <trkpt lat="44.71657" lon="5.21397">
        <ele>614</ele>
        <time>2019-09-01T07:18:33Z</time>
      </trkpt>
      <trkpt lat="44.71653" lon="5.214">
        <ele>614</ele>
        <time>2019-09-01T07:18:35Z</time>
      </trkpt>
      <trkpt lat="44.71651" lon="5.21403">
        <ele>613</ele>
        <time>2019-09-01T07:18:37Z</time>
      </trkpt>
      <trkpt lat="44.71648" lon="5.21407">
        <ele>613</ele>
        <time>2019-09-01T07:18:39Z</time>
      </trkpt>
      <trkpt lat="44.71644" lon="5.21411">
        <ele>615</ele>
        <time>2019-09-01T07:18:41Z</time>
      </trkpt>
      <trkpt lat="44.71641" lon="5.21415">
        <ele>616</ele>
        <time>2019-09-01T07:18:43Z</time>
      </trkpt>
      <trkpt lat="44.71637" lon="5.2142">
        <ele>610</ele>
        <time>2019-09-01T07:18:45Z</time>
      </trkpt>
      <trkpt lat="44.71636" lon="5.21425">
        <ele>611</ele>
        <time>2019-09-01T07:18:47Z</time>
      </trkpt>
      <trkpt lat="44.71633" lon="5.21429">
        <ele>612</ele>
        <time>2019-09-01T07:18:49Z</time>
      </trkpt>
      <trkpt lat="44.7163" lon="5.21433">
        <ele>612</ele>
        <time>2019-09-01T07:18:51Z</time>
      </trkpt>
      <trkpt lat="44.71628" lon="5.21437">
        <ele>613</ele>
        <time>2019-09-01T07:18:53Z</time>
      </trkpt>
      <trkpt lat="44.71626" lon="5.21441">
        <ele>614</ele>
        <time>2019-09-01T07:18:55Z</time>
      </trkpt>
      <trkpt lat="44.71624" lon="5.21444">
        <ele>614</ele>
        <time>2019-09-01T07:18:57Z</time>
      </trkpt>
      <trkpt lat="44.71622" lon="5.21449">
        <ele>614</ele>
        <time>2019-09-01T07:18:59Z</time>
      </trkpt>
      <trkpt lat="44.71619" lon="5.21453">
        <ele>615</ele>
        <time>2019-09-01T07:19:01Z</time>
      </trkpt>
      <trkpt lat="44.71616" lon="5.21457">
        <ele>615</ele>
        <time>2019-09-01T07:19:03Z</time>
      </trkpt>
      <trkpt lat="44.71616" lon="5.21462">
        <ele>615</ele>
        <time>2019-09-01T07:19:06Z</time>
      </trkpt>
      <trkpt lat="44.71616" lon="5.21466">
        <ele>615</ele>
        <time>2019-09-01T07:19:08Z</time>
      </trkpt>
      <trkpt lat="44.71617" lon="5.2147">
        <ele>615</ele>
        <time>2019-09-01T07:19:10Z</time>
      </trkpt>
      <trkpt lat="44.71619" lon="5.21475">
        <ele>615</ele>
        <time>2019-09-01T07:19:12Z</time>
      </trkpt>
      <trkpt lat="44.7162" lon="5.21479">
        <ele>614</ele>
        <time>2019-09-01T07:19:14Z</time>
      </trkpt>
      <trkpt lat="44.71621" lon="5.21484">
        <ele>614</ele>
        <time>2019-09-01T07:19:16Z</time>
      </trkpt>
      <trkpt lat="44.71622" lon="5.2149">
        <ele>614</ele>
        <time>2019-09-01T07:19:18Z</time>
      </trkpt>
      <trkpt lat="44.71623" lon="5.21495">
        <ele>613</ele>
        <time>2019-09-01T07:19:20Z</time>
      </trkpt>
      <trkpt lat="44.71625" lon="5.215">
        <ele>616</ele>
        <time>2019-09-01T07:19:22Z</time>
      </trkpt>
      <trkpt lat="44.71625" lon="5.21506">
        <ele>616</ele>
        <time>2019-09-01T07:19:24Z</time>
      </trkpt>
      <trkpt lat="44.71625" lon="5.21511">
        <ele>616</ele>
        <time>2019-09-01T07:19:26Z</time>
      </trkpt>
      <trkpt lat="44.71626" lon="5.21516">
        <ele>616</ele>
        <time>2019-09-01T07:19:28Z</time>
      </trkpt>
      <trkpt lat="44.71627" lon="5.2152">
        <ele>616</ele>
        <time>2019-09-01T07:19:30Z</time>
      </trkpt>
      <trkpt lat="44.71628" lon="5.21524">
        <ele>616</ele>
        <time>2019-09-01T07:19:32Z</time>
      </trkpt>
      <trkpt lat="44.71629" lon="5.21529">
        <ele>616</ele>
        <time>2019-09-01T07:19:34Z</time>
      </trkpt>
      <trkpt lat="44.71631" lon="5.21533">
        <ele>616</ele>
        <time>2019-09-01T07:19:37Z</time>
      </trkpt>
      <trkpt lat="44.71633" lon="5.21536">
        <ele>616</ele>
        <time>2019-09-01T07:19:39Z</time>
      </trkpt>
      <trkpt lat="44.71635" lon="5.21537">
        <ele>616</ele>
        <time>2019-09-01T07:19:41Z</time>
      </trkpt>
      <trkpt lat="44.71638" lon="5.2154">
        <ele>616</ele>
        <time>2019-09-01T07:19:43Z</time>
      </trkpt>
      <trkpt lat="44.7164" lon="5.21543">
        <ele>615</ele>
        <time>2019-09-01T07:19:45Z</time>
      </trkpt>
      <trkpt lat="44.71643" lon="5.21548">
        <ele>615</ele>
        <time>2019-09-01T07:19:47Z</time>
      </trkpt>
      <trkpt lat="44.71645" lon="5.21553">
        <ele>615</ele>
        <time>2019-09-01T07:19:49Z</time>
      </trkpt>
      <trkpt lat="44.71647" lon="5.2156">
        <ele>615</ele>
        <time>2019-09-01T07:19:51Z</time>
      </trkpt>
      <trkpt lat="44.71647" lon="5.21568">
        <ele>615</ele>
        <time>2019-09-01T07:19:53Z</time>
      </trkpt>
      <trkpt lat="44.71646" lon="5.21574">
        <ele>615</ele>
        <time>2019-09-01T07:19:55Z</time>
      </trkpt>
      <trkpt lat="44.71646" lon="5.21581">
        <ele>615</ele>
        <time>2019-09-01T07:19:57Z</time>
      </trkpt>
      <trkpt lat="44.71644" lon="5.21588">
        <ele>621</ele>
        <time>2019-09-01T07:19:59Z</time>
      </trkpt>
      <trkpt lat="44.71644" lon="5.21594">
        <ele>622</ele>
        <time>2019-09-01T07:20:01Z</time>
      </trkpt>
      <trkpt lat="44.71643" lon="5.216">
        <ele>623</ele>
        <time>2019-09-01T07:20:03Z</time>
      </trkpt>
      <trkpt lat="44.71641" lon="5.21606">
        <ele>624</ele>
        <time>2019-09-01T07:20:05Z</time>
      </trkpt>
      <trkpt lat="44.7164" lon="5.21611">
        <ele>625</ele>
        <time>2019-09-01T07:20:07Z</time>
      </trkpt>
      <trkpt lat="44.71638" lon="5.21616">
        <ele>626</ele>
        <time>2019-09-01T07:20:09Z</time>
      </trkpt>
      <trkpt lat="44.71636" lon="5.21622">
        <ele>627</ele>
        <time>2019-09-01T07:20:11Z</time>
      </trkpt>
      <trkpt lat="44.71636" lon="5.21626">
        <ele>627</ele>
        <time>2019-09-01T07:20:13Z</time>
      </trkpt>
      <trkpt lat="44.71636" lon="5.21632">
        <ele>627</ele>
        <time>2019-09-01T07:20:15Z</time>
      </trkpt>
      <trkpt lat="44.71636" lon="5.21637">
        <ele>628</ele>
        <time>2019-09-01T07:20:17Z</time>
      </trkpt>
      <trkpt lat="44.71635" lon="5.21642">
        <ele>628</ele>
        <time>2019-09-01T07:20:19Z</time>
      </trkpt>
      <trkpt lat="44.71636" lon="5.21647">
        <ele>628</ele>
        <time>2019-09-01T07:20:21Z</time>
      </trkpt>
      <trkpt lat="44.71637" lon="5.21652">
        <ele>628</ele>
        <time>2019-09-01T07:20:23Z</time>
      </trkpt>
      <trkpt lat="44.71638" lon="5.21656">
        <ele>628</ele>
        <time>2019-09-01T07:20:25Z</time>
      </trkpt>
      <trkpt lat="44.71637" lon="5.21661">
        <ele>628</ele>
        <time>2019-09-01T07:20:27Z</time>
      </trkpt>
      <trkpt lat="44.71638" lon="5.21666">
        <ele>628</ele>
        <time>2019-09-01T07:20:29Z</time>
      </trkpt>
      <trkpt lat="44.71639" lon="5.2167">
        <ele>634</ele>
        <time>2019-09-01T07:20:31Z</time>
      </trkpt>
      <trkpt lat="44.7164" lon="5.21674">
        <ele>634</ele>
        <time>2019-09-01T07:20:33Z</time>
      </trkpt>
      <trkpt lat="44.71642" lon="5.21678">
        <ele>634</ele>
        <time>2019-09-01T07:20:35Z</time>
      </trkpt>
      <trkpt lat="44.71644" lon="5.21683">
        <ele>634</ele>
        <time>2019-09-01T07:20:37Z</time>
      </trkpt>
      <trkpt lat="44.71646" lon="5.21687">
        <ele>634</ele>
        <time>2019-09-01T07:20:39Z</time>
      </trkpt>
      <trkpt lat="44.71647" lon="5.21691">
        <ele>635</ele>
        <time>2019-09-01T07:20:41Z</time>
      </trkpt>
      <trkpt lat="44.71649" lon="5.21696">
        <ele>635</ele>
        <time>2019-09-01T07:20:44Z</time>
      </trkpt>
      <trkpt lat="44.71651" lon="5.217">
        <ele>635</ele>
        <time>2019-09-01T07:20:46Z</time>
      </trkpt>
      <trkpt lat="44.71654" lon="5.21703">
        <ele>636</ele>
        <time>2019-09-01T07:20:48Z</time>
      </trkpt>
      <trkpt lat="44.71658" lon="5.21706">
        <ele>636</ele>
        <time>2019-09-01T07:20:50Z</time>
      </trkpt>
      <trkpt lat="44.71662" lon="5.21708">
        <ele>636</ele>
        <time>2019-09-01T07:20:52Z</time>
      </trkpt>
      <trkpt lat="44.71665" lon="5.21709">
        <ele>636</ele>
        <time>2019-09-01T07:20:54Z</time>
      </trkpt>
      <trkpt lat="44.71669" lon="5.21712">
        <ele>629</ele>
        <time>2019-09-01T07:20:56Z</time>
      </trkpt>
      <trkpt lat="44.71672" lon="5.21714">
        <ele>629</ele>
        <time>2019-09-01T07:20:58Z</time>
      </trkpt>
      <trkpt lat="44.71676" lon="5.21716">
        <ele>629</ele>
        <time>2019-09-01T07:21:00Z</time>
      </trkpt>
      <trkpt lat="44.7168" lon="5.21717">
        <ele>630</ele>
        <time>2019-09-01T07:21:02Z</time>
      </trkpt>
      <trkpt lat="44.71683" lon="5.21719">
        <ele>630</ele>
        <time>2019-09-01T07:21:04Z</time>
      </trkpt>
      <trkpt lat="44.71687" lon="5.21721">
        <ele>630</ele>
        <time>2019-09-01T07:21:06Z</time>
      </trkpt>
      <trkpt lat="44.7169" lon="5.21723">
        <ele>630</ele>
        <time>2019-09-01T07:21:08Z</time>
      </trkpt>
      <trkpt lat="44.71694" lon="5.21726">
        <ele>630</ele>
        <time>2019-09-01T07:21:10Z</time>
      </trkpt>
      <trkpt lat="44.71697" lon="5.21729">
        <ele>630</ele>
        <time>2019-09-01T07:21:12Z</time>
      </trkpt>
      <trkpt lat="44.71701" lon="5.21731">
        <ele>629</ele>
        <time>2019-09-01T07:21:14Z</time>
      </trkpt>
      <trkpt lat="44.71705" lon="5.21734">
        <ele>629</ele>
        <time>2019-09-01T07:21:16Z</time>
      </trkpt>
      <trkpt lat="44.71709" lon="5.21736">
        <ele>629</ele>
        <time>2019-09-01T07:21:18Z</time>
      </trkpt>
      <trkpt lat="44.71712" lon="5.21738">
        <ele>629</ele>
        <time>2019-09-01T07:21:20Z</time>
      </trkpt>
      <trkpt lat="44.71715" lon="5.21742">
        <ele>629</ele>
        <time>2019-09-01T07:21:22Z</time>
      </trkpt>
      <trkpt lat="44.71718" lon="5.21746">
        <ele>629</ele>
        <time>2019-09-01T07:21:24Z</time>
      </trkpt>
      <trkpt lat="44.7172" lon="5.21752">
        <ele>630</ele>
        <time>2019-09-01T07:21:26Z</time>
      </trkpt>
      <trkpt lat="44.7172" lon="5.21756">
        <ele>630</ele>
        <time>2019-09-01T07:21:27Z</time>
      </trkpt>
      <trkpt lat="44.7172" lon="5.2176">
        <ele>630</ele>
        <time>2019-09-01T07:21:28Z</time>
      </trkpt>
      <trkpt lat="44.71718" lon="5.21766">
        <ele>631</ele>
        <time>2019-09-01T07:21:30Z</time>
      </trkpt>
      <trkpt lat="44.71716" lon="5.21769">
        <ele>631</ele>
        <time>2019-09-01T07:21:32Z</time>
      </trkpt>
      <trkpt lat="44.71713" lon="5.21771">
        <ele>631</ele>
        <time>2019-09-01T07:21:34Z</time>
      </trkpt>
      <trkpt lat="44.7171" lon="5.21774">
        <ele>631</ele>
        <time>2019-09-01T07:21:37Z</time>
      </trkpt>
      <trkpt lat="44.71707" lon="5.21775">
        <ele>632</ele>
        <time>2019-09-01T07:21:39Z</time>
      </trkpt>
      <trkpt lat="44.71704" lon="5.21777">
        <ele>632</ele>
        <time>2019-09-01T07:21:41Z</time>
      </trkpt>
      <trkpt lat="44.71701" lon="5.21779">
        <ele>632</ele>
        <time>2019-09-01T07:21:43Z</time>
      </trkpt>
      <trkpt lat="44.71698" lon="5.2178">
        <ele>632</ele>
        <time>2019-09-01T07:21:46Z</time>
      </trkpt>
      <trkpt lat="44.71695" lon="5.21782">
        <ele>633</ele>
        <time>2019-09-01T07:21:49Z</time>
      </trkpt>
      <trkpt lat="44.71692" lon="5.21784">
        <ele>633</ele>
        <time>2019-09-01T07:21:53Z</time>
      </trkpt>
      <trkpt lat="44.71688" lon="5.21784">
        <ele>633</ele>
        <time>2019-09-01T07:21:56Z</time>
      </trkpt>
      <trkpt lat="44.71685" lon="5.21785">
        <ele>633</ele>
        <time>2019-09-01T07:21:58Z</time>
      </trkpt>
      <trkpt lat="44.71682" lon="5.21787">
        <ele>633</ele>
        <time>2019-09-01T07:22:01Z</time>
      </trkpt>
      <trkpt lat="44.71679" lon="5.21788">
        <ele>634</ele>
        <time>2019-09-01T07:22:04Z</time>
      </trkpt>
      <trkpt lat="44.71676" lon="5.21791">
        <ele>634</ele>
        <time>2019-09-01T07:22:07Z</time>
      </trkpt>
      <trkpt lat="44.71673" lon="5.21794">
        <ele>634</ele>
        <time>2019-09-01T07:22:10Z</time>
      </trkpt>
      <trkpt lat="44.71671" lon="5.21796">
        <ele>634</ele>
        <time>2019-09-01T07:22:12Z</time>
      </trkpt>
      <trkpt lat="44.71668" lon="5.21799">
        <ele>634</ele>
        <time>2019-09-01T07:22:15Z</time>
      </trkpt>
      <trkpt lat="44.71666" lon="5.21802">
        <ele>644</ele>
        <time>2019-09-01T07:22:18Z</time>
      </trkpt>
      <trkpt lat="44.71663" lon="5.21804">
        <ele>644</ele>
        <time>2019-09-01T07:22:21Z</time>
      </trkpt>
      <trkpt lat="44.7166" lon="5.21806">
        <ele>644</ele>
        <time>2019-09-01T07:22:23Z</time>
      </trkpt>
      <trkpt lat="44.71658" lon="5.21809">
        <ele>644</ele>
        <time>2019-09-01T07:22:25Z</time>
      </trkpt>
      <trkpt lat="44.71655" lon="5.21811">
        <ele>644</ele>
        <time>2019-09-01T07:22:27Z</time>
      </trkpt>
      <trkpt lat="44.71653" lon="5.21813">
        <ele>644</ele>
        <time>2019-09-01T07:22:29Z</time>
      </trkpt>
      <trkpt lat="44.71649" lon="5.21815">
        <ele>644</ele>
        <time>2019-09-01T07:22:32Z</time>
      </trkpt>
      <trkpt lat="44.71646" lon="5.21817">
        <ele>645</ele>
        <time>2019-09-01T07:22:35Z</time>
      </trkpt>
      <trkpt lat="44.71643" lon="5.2182">
        <ele>645</ele>
        <time>2019-09-01T07:22:39Z</time>
      </trkpt>
      <trkpt lat="44.71639" lon="5.21822">
        <ele>645</ele>
        <time>2019-09-01T07:22:42Z</time>
      </trkpt>
      <trkpt lat="44.71635" lon="5.21824">
        <ele>646</ele>
        <time>2019-09-01T07:22:44Z</time>
      </trkpt>
      <trkpt lat="44.71631" lon="5.21824">
        <ele>646</ele>
        <time>2019-09-01T07:22:46Z</time>
      </trkpt>
      <trkpt lat="44.71628" lon="5.21827">
        <ele>647</ele>
        <time>2019-09-01T07:22:49Z</time>
      </trkpt>
      <trkpt lat="44.71625" lon="5.21827">
        <ele>647</ele>
        <time>2019-09-01T07:22:51Z</time>
      </trkpt>
      <trkpt lat="44.71623" lon="5.21829">
        <ele>648</ele>
        <time>2019-09-01T07:22:53Z</time>
      </trkpt>
      <trkpt lat="44.7162" lon="5.2183">
        <ele>648</ele>
        <time>2019-09-01T07:22:55Z</time>
      </trkpt>
      <trkpt lat="44.71617" lon="5.21831">
        <ele>649</ele>
        <time>2019-09-01T07:22:57Z</time>
      </trkpt>
      <trkpt lat="44.71614" lon="5.21833">
        <ele>649</ele>
        <time>2019-09-01T07:22:59Z</time>
      </trkpt>
      <trkpt lat="44.71611" lon="5.21835">
        <ele>648</ele>
        <time>2019-09-01T07:23:01Z</time>
      </trkpt>
      <trkpt lat="44.71608" lon="5.21836">
        <ele>649</ele>
        <time>2019-09-01T07:23:03Z</time>
      </trkpt>
      <trkpt lat="44.71605" lon="5.21837">
        <ele>649</ele>
        <time>2019-09-01T07:23:05Z</time>
      </trkpt>
      <trkpt lat="44.71601" lon="5.21838">
        <ele>650</ele>
        <time>2019-09-01T07:23:07Z</time>
      </trkpt>
      <trkpt lat="44.71598" lon="5.2184">
        <ele>651</ele>
        <time>2019-09-01T07:23:09Z</time>
      </trkpt>
      <trkpt lat="44.71593" lon="5.21841">
        <ele>652</ele>
        <time>2019-09-01T07:23:12Z</time>
      </trkpt>
      <trkpt lat="44.71591" lon="5.21842">
        <ele>652</ele>
        <time>2019-09-01T07:23:14Z</time>
      </trkpt>
      <trkpt lat="44.71588" lon="5.21843">
        <ele>653</ele>
        <time>2019-09-01T07:23:16Z</time>
      </trkpt>
      <trkpt lat="44.71585" lon="5.21844">
        <ele>653</ele>
        <time>2019-09-01T07:23:18Z</time>
      </trkpt>
      <trkpt lat="44.71581" lon="5.21845">
        <ele>658</ele>
        <time>2019-09-01T07:23:20Z</time>
      </trkpt>
      <trkpt lat="44.71578" lon="5.21846">
        <ele>658</ele>
        <time>2019-09-01T07:23:22Z</time>
      </trkpt>
      <trkpt lat="44.71575" lon="5.21846">
        <ele>658</ele>
        <time>2019-09-01T07:23:24Z</time>
      </trkpt>
      <trkpt lat="44.71572" lon="5.21848">
        <ele>659</ele>
        <time>2019-09-01T07:23:26Z</time>
      </trkpt>
      <trkpt lat="44.71569" lon="5.21849">
        <ele>659</ele>
        <time>2019-09-01T07:23:28Z</time>
      </trkpt>
      <trkpt lat="44.71565" lon="5.21851">
        <ele>659</ele>
        <time>2019-09-01T07:23:30Z</time>
      </trkpt>
      <trkpt lat="44.71561" lon="5.21852">
        <ele>659</ele>
        <time>2019-09-01T07:23:32Z</time>
      </trkpt>
      <trkpt lat="44.71557" lon="5.21853">
        <ele>660</ele>
        <time>2019-09-01T07:23:34Z</time>
      </trkpt>
      <trkpt lat="44.71554" lon="5.21855">
        <ele>660</ele>
        <time>2019-09-01T07:23:36Z</time>
      </trkpt>
      <trkpt lat="44.71551" lon="5.21857">
        <ele>660</ele>
        <time>2019-09-01T07:23:38Z</time>
      </trkpt>
      <trkpt lat="44.71548" lon="5.21859">
        <ele>660</ele>
        <time>2019-09-01T07:23:40Z</time>
      </trkpt>
      <trkpt lat="44.71544" lon="5.21861">
        <ele>661</ele>
        <time>2019-09-01T07:23:42Z</time>
      </trkpt>
      <trkpt lat="44.71541" lon="5.21861">
        <ele>661</ele>
        <time>2019-09-01T07:23:44Z</time>
      </trkpt>
      <trkpt lat="44.71537" lon="5.21861">
        <ele>661</ele>
        <time>2019-09-01T07:23:46Z</time>
      </trkpt>
      <trkpt lat="44.71534" lon="5.21861">
        <ele>662</ele>
        <time>2019-09-01T07:23:48Z</time>
      </trkpt>
      <trkpt lat="44.7153" lon="5.21862">
        <ele>662</ele>
        <time>2019-09-01T07:23:50Z</time>
      </trkpt>
      <trkpt lat="44.71527" lon="5.21861">
        <ele>663</ele>
        <time>2019-09-01T07:23:52Z</time>
      </trkpt>
      <trkpt lat="44.71524" lon="5.2186">
        <ele>663</ele>
        <time>2019-09-01T07:23:54Z</time>
      </trkpt>
      <trkpt lat="44.71521" lon="5.21859">
        <ele>663</ele>
        <time>2019-09-01T07:23:56Z</time>
      </trkpt>
      <trkpt lat="44.71518" lon="5.21859">
        <ele>664</ele>
        <time>2019-09-01T07:23:58Z</time>
      </trkpt>
      <trkpt lat="44.71514" lon="5.2186">
        <ele>664</ele>
        <time>2019-09-01T07:24:01Z</time>
      </trkpt>
      <trkpt lat="44.7151" lon="5.2186">
        <ele>664</ele>
        <time>2019-09-01T07:24:04Z</time>
      </trkpt>
      <trkpt lat="44.71507" lon="5.21861">
        <ele>664</ele>
        <time>2019-09-01T07:24:06Z</time>
      </trkpt>
      <trkpt lat="44.71504" lon="5.21862">
        <ele>664</ele>
        <time>2019-09-01T07:24:08Z</time>
      </trkpt>
      <trkpt lat="44.715" lon="5.21863">
        <ele>664</ele>
        <time>2019-09-01T07:24:11Z</time>
      </trkpt>
      <trkpt lat="44.71498" lon="5.21863">
        <ele>674</ele>
        <time>2019-09-01T07:24:13Z</time>
      </trkpt>
      <trkpt lat="44.71495" lon="5.21864">
        <ele>675</ele>
        <time>2019-09-01T07:24:15Z</time>
      </trkpt>
      <trkpt lat="44.71491" lon="5.21866">
        <ele>675</ele>
        <time>2019-09-01T07:24:17Z</time>
      </trkpt>
      <trkpt lat="44.71488" lon="5.21866">
        <ele>675</ele>
        <time>2019-09-01T07:24:19Z</time>
      </trkpt>
      <trkpt lat="44.71484" lon="5.21867">
        <ele>675</ele>
        <time>2019-09-01T07:24:21Z</time>
      </trkpt>
      <trkpt lat="44.71482" lon="5.21869">
        <ele>675</ele>
        <time>2019-09-01T07:24:23Z</time>
      </trkpt>
      <trkpt lat="44.71479" lon="5.2187">
        <ele>676</ele>
        <time>2019-09-01T07:24:25Z</time>
      </trkpt>
      <trkpt lat="44.71476" lon="5.21872">
        <ele>676</ele>
        <time>2019-09-01T07:24:28Z</time>
      </trkpt>
      <trkpt lat="44.71473" lon="5.21875">
        <ele>676</ele>
        <time>2019-09-01T07:24:31Z</time>
      </trkpt>
      <trkpt lat="44.7147" lon="5.21878">
        <ele>676</ele>
        <time>2019-09-01T07:24:34Z</time>
      </trkpt>
      <trkpt lat="44.71468" lon="5.21881">
        <ele>676</ele>
        <time>2019-09-01T07:24:36Z</time>
      </trkpt>
      <trkpt lat="44.71465" lon="5.21884">
        <ele>676</ele>
        <time>2019-09-01T07:24:39Z</time>
      </trkpt>
      <trkpt lat="44.71462" lon="5.21887">
        <ele>677</ele>
        <time>2019-09-01T07:24:42Z</time>
      </trkpt>
      <trkpt lat="44.71459" lon="5.21889">
        <ele>677</ele>
        <time>2019-09-01T07:24:44Z</time>
      </trkpt>
      <trkpt lat="44.71457" lon="5.21892">
        <ele>677</ele>
        <time>2019-09-01T07:24:46Z</time>
      </trkpt>
      <trkpt lat="44.71454" lon="5.21895">
        <ele>677</ele>
        <time>2019-09-01T07:24:49Z</time>
      </trkpt>
      <trkpt lat="44.71451" lon="5.21897">
        <ele>678</ele>
        <time>2019-09-01T07:24:51Z</time>
      </trkpt>
      <trkpt lat="44.71448" lon="5.21898">
        <ele>678</ele>
        <time>2019-09-01T07:24:53Z</time>
      </trkpt>
      <trkpt lat="44.71446" lon="5.219">
        <ele>679</ele>
        <time>2019-09-01T07:24:55Z</time>
      </trkpt>
      <trkpt lat="44.71443" lon="5.21902">
        <ele>679</ele>
        <time>2019-09-01T07:24:57Z</time>
      </trkpt>
      <trkpt lat="44.7144" lon="5.21905">
        <ele>680</ele>
        <time>2019-09-01T07:25:00Z</time>
      </trkpt>
      <trkpt lat="44.71436" lon="5.21908">
        <ele>680</ele>
        <time>2019-09-01T07:25:03Z</time>
      </trkpt>
      <trkpt lat="44.71433" lon="5.2191">
        <ele>681</ele>
        <time>2019-09-01T07:25:05Z</time>
      </trkpt>
      <trkpt lat="44.7143" lon="5.21911">
        <ele>682</ele>
        <time>2019-09-01T07:25:07Z</time>
      </trkpt>
      <trkpt lat="44.71427" lon="5.21913">
        <ele>682</ele>
        <time>2019-09-01T07:25:09Z</time>
      </trkpt>
      <trkpt lat="44.71425" lon="5.21915">
        <ele>683</ele>
        <time>2019-09-01T07:25:11Z</time>
      </trkpt>
      <trkpt lat="44.71421" lon="5.21918">
        <ele>683</ele>
        <time>2019-09-01T07:25:14Z</time>
      </trkpt>
      <trkpt lat="44.71417" lon="5.21919">
        <ele>684</ele>
        <time>2019-09-01T07:25:17Z</time>
      </trkpt>
      <trkpt lat="44.71414" lon="5.21921">
        <ele>685</ele>
        <time>2019-09-01T07:25:19Z</time>
      </trkpt>
      <trkpt lat="44.71411" lon="5.21923">
        <ele>685</ele>
        <time>2019-09-01T07:25:21Z</time>
      </trkpt>
      <trkpt lat="44.71408" lon="5.21926">
        <ele>685</ele>
        <time>2019-09-01T07:25:24Z</time>
      </trkpt>
      <trkpt lat="44.71406" lon="5.21928">
        <ele>685</ele>
        <time>2019-09-01T07:25:26Z</time>
      </trkpt>
      <trkpt lat="44.71402" lon="5.21929">
        <ele>686</ele>
        <time>2019-09-01T07:25:28Z</time>
      </trkpt>
      <trkpt lat="44.71399" lon="5.21932">
        <ele>686</ele>
        <time>2019-09-01T07:25:30Z</time>
      </trkpt>
      <trkpt lat="44.71397" lon="5.21934">
        <ele>686</ele>
        <time>2019-09-01T07:25:32Z</time>
      </trkpt>
      <trkpt lat="44.71395" lon="5.21937">
        <ele>686</ele>
        <time>2019-09-01T07:25:34Z</time>
      </trkpt>
      <trkpt lat="44.71392" lon="5.21939">
        <ele>686</ele>
        <time>2019-09-01T07:25:36Z</time>
      </trkpt>
      <trkpt lat="44.71389" lon="5.21941">
        <ele>686</ele>
        <time>2019-09-01T07:25:38Z</time>
      </trkpt>
      <trkpt lat="44.71386" lon="5.21942">
        <ele>686</ele>
        <time>2019-09-01T07:25:40Z</time>
      </trkpt>
      <trkpt lat="44.71382" lon="5.21945">
        <ele>686</ele>
        <time>2019-09-01T07:25:43Z</time>
      </trkpt>
      <trkpt lat="44.7138" lon="5.21948">
        <ele>686</ele>
        <time>2019-09-01T07:25:45Z</time>
      </trkpt>
      <trkpt lat="44.71379" lon="5.21952">
        <ele>686</ele>
        <time>2019-09-01T07:25:48Z</time>
      </trkpt>
      <trkpt lat="44.71377" lon="5.21956">
        <ele>686</ele>
        <time>2019-09-01T07:25:50Z</time>
      </trkpt>
      <trkpt lat="44.71376" lon="5.2196">
        <ele>686</ele>
        <time>2019-09-01T07:25:52Z</time>
      </trkpt>
      <trkpt lat="44.71374" lon="5.21964">
        <ele>686</ele>
        <time>2019-09-01T07:25:54Z</time>
      </trkpt>
      <trkpt lat="44.71373" lon="5.21969">
        <ele>686</ele>
        <time>2019-09-01T07:25:57Z</time>
      </trkpt>
      <trkpt lat="44.71372" lon="5.21973">
        <ele>686</ele>
        <time>2019-09-01T07:25:59Z</time>
      </trkpt>
      <trkpt lat="44.7137" lon="5.21977">
        <ele>685</ele>
        <time>2019-09-01T07:26:01Z</time>
      </trkpt>
      <trkpt lat="44.71369" lon="5.21981">
        <ele>685</ele>
        <time>2019-09-01T07:26:03Z</time>
      </trkpt>
      <trkpt lat="44.71367" lon="5.21985">
        <ele>685</ele>
        <time>2019-09-01T07:26:05Z</time>
      </trkpt>
      <trkpt lat="44.71365" lon="5.21988">
        <ele>685</ele>
        <time>2019-09-01T07:26:07Z</time>
      </trkpt>
      <trkpt lat="44.71363" lon="5.21991">
        <ele>685</ele>
        <time>2019-09-01T07:26:09Z</time>
      </trkpt>
      <trkpt lat="44.7136" lon="5.21994">
        <ele>685</ele>
        <time>2019-09-01T07:26:11Z</time>
      </trkpt>
      <trkpt lat="44.71358" lon="5.21998">
        <ele>685</ele>
        <time>2019-09-01T07:26:14Z</time>
      </trkpt>
      <trkpt lat="44.71357" lon="5.22002">
        <ele>683</ele>
        <time>2019-09-01T07:26:18Z</time>
      </trkpt>
      <trkpt lat="44.71354" lon="5.22004">
        <ele>683</ele>
        <time>2019-09-01T07:26:22Z</time>
      </trkpt>
      <trkpt lat="44.71352" lon="5.22006">
        <ele>683</ele>
        <time>2019-09-01T07:26:31Z</time>
      </trkpt>
      <trkpt lat="44.71352" lon="5.2201">
        <ele>683</ele>
        <time>2019-09-01T07:26:40Z</time>
      </trkpt>
      <trkpt lat="44.71353" lon="5.22014">
        <ele>683</ele>
        <time>2019-09-01T07:26:48Z</time>
      </trkpt>
      <trkpt lat="44.7135" lon="5.22014">
        <ele>683</ele>
        <time>2019-09-01T07:27:10Z</time>
      </trkpt>
      <trkpt lat="44.71348" lon="5.22011">
        <ele>683</ele>
        <time>2019-09-01T07:27:14Z</time>
      </trkpt>
      <trkpt lat="44.71349" lon="5.22017">
        <ele>683</ele>
        <time>2019-09-01T07:27:38Z</time>
      </trkpt>
      <trkpt lat="44.7135" lon="5.22021">
        <ele>682</ele>
        <time>2019-09-01T07:27:48Z</time>
      </trkpt>
      <trkpt lat="44.71349" lon="5.22017">
        <ele>683</ele>
        <time>2019-09-01T07:28:01Z</time>
      </trkpt>
      <trkpt lat="44.71347" lon="5.22014">
        <ele>683</ele>
        <time>2019-09-01T07:28:06Z</time>
      </trkpt>
      <trkpt lat="44.71346" lon="5.2201">
        <ele>683</ele>
        <time>2019-09-01T07:28:09Z</time>
      </trkpt>
      <trkpt lat="44.71347" lon="5.22006">
        <ele>683</ele>
        <time>2019-09-01T07:28:12Z</time>
      </trkpt>
      <trkpt lat="44.71349" lon="5.2201">
        <ele>683</ele>
        <time>2019-09-01T07:28:22Z</time>
      </trkpt>
      <trkpt lat="44.71351" lon="5.22013">
        <ele>683</ele>
        <time>2019-09-01T07:28:30Z</time>
      </trkpt>
      <trkpt lat="44.71351" lon="5.22017">
        <ele>683</ele>
        <time>2019-09-01T07:29:05Z</time>
      </trkpt>
      <trkpt lat="44.71349" lon="5.22019">
        <ele>683</ele>
        <time>2019-09-01T07:30:01Z</time>
      </trkpt>
      <trkpt lat="44.71351" lon="5.22022">
        <ele>682</ele>
        <time>2019-09-01T07:30:38Z</time>
      </trkpt>
      <trkpt lat="44.71348" lon="5.22018">
        <ele>683</ele>
        <time>2019-09-01T07:31:57Z</time>
      </trkpt>
      <trkpt lat="44.71349" lon="5.22023">
        <ele>682</ele>
        <time>2019-09-01T07:34:30Z</time>
      </trkpt>
      <trkpt lat="44.71346" lon="5.22021">
        <ele>682</ele>
        <time>2019-09-01T07:34:50Z</time>
      </trkpt>
      <trkpt lat="44.71345" lon="5.22017">
        <ele>683</ele>
        <time>2019-09-01T07:34:53Z</time>
      </trkpt>
      <trkpt lat="44.71345" lon="5.22013">
        <ele>683</ele>
        <time>2019-09-01T07:34:56Z</time>
      </trkpt>
      <trkpt lat="44.71348" lon="5.22014">
        <ele>683</ele>
        <time>2019-09-01T07:35:29Z</time>
      </trkpt>
      <trkpt lat="44.71347" lon="5.22017">
        <ele>683</ele>
        <time>2019-09-01T07:36:47Z</time>
      </trkpt>
      <trkpt lat="44.71349" lon="5.2202">
        <ele>682</ele>
        <time>2019-09-01T07:37:07Z</time>
      </trkpt>
      <trkpt lat="44.7135" lon="5.22024">
        <ele>682</ele>
        <time>2019-09-01T07:37:09Z</time>
      </trkpt>
      <trkpt lat="44.71353" lon="5.22027">
        <ele>682</ele>
        <time>2019-09-01T07:37:12Z</time>
      </trkpt>
      <trkpt lat="44.71357" lon="5.22031">
        <ele>682</ele>
        <time>2019-09-01T07:37:15Z</time>
      </trkpt>
      <trkpt lat="44.71361" lon="5.22036">
        <ele>682</ele>
        <time>2019-09-01T07:37:17Z</time>
      </trkpt>
      <trkpt lat="44.71363" lon="5.22039">
        <ele>682</ele>
        <time>2019-09-01T07:37:18Z</time>
      </trkpt>
      <trkpt lat="44.71366" lon="5.22042">
        <ele>682</ele>
        <time>2019-09-01T07:37:19Z</time>
      </trkpt>
      <trkpt lat="44.7137" lon="5.22046">
        <ele>682</ele>
        <time>2019-09-01T07:37:21Z</time>
      </trkpt>
      <trkpt lat="44.71373" lon="5.22048">
        <ele>682</ele>
        <time>2019-09-01T07:37:23Z</time>
      </trkpt>
      <trkpt lat="44.71377" lon="5.22052">
        <ele>682</ele>
        <time>2019-09-01T07:37:25Z</time>
      </trkpt>
      <trkpt lat="44.7138" lon="5.22056">
        <ele>682</ele>
        <time>2019-09-01T07:37:27Z</time>
      </trkpt>
      <trkpt lat="44.71383" lon="5.2206">
        <ele>682</ele>
        <time>2019-09-01T07:37:29Z</time>
      </trkpt>
      <trkpt lat="44.71386" lon="5.22063">
        <ele>683</ele>
        <time>2019-09-01T07:37:31Z</time>
      </trkpt>
      <trkpt lat="44.71389" lon="5.22065">
        <ele>683</ele>
        <time>2019-09-01T07:37:33Z</time>
      </trkpt>
      <trkpt lat="44.71392" lon="5.22068">
        <ele>683</ele>
        <time>2019-09-01T07:37:35Z</time>
      </trkpt>
      <trkpt lat="44.71395" lon="5.22073">
        <ele>684</ele>
        <time>2019-09-01T07:37:37Z</time>
      </trkpt>
      <trkpt lat="44.71399" lon="5.22078">
        <ele>684</ele>
        <time>2019-09-01T07:37:39Z</time>
      </trkpt>
      <trkpt lat="44.71401" lon="5.22083">
        <ele>684</ele>
        <time>2019-09-01T07:37:41Z</time>
      </trkpt>
      <trkpt lat="44.71404" lon="5.22089">
        <ele>684</ele>
        <time>2019-09-01T07:37:43Z</time>
      </trkpt>
      <trkpt lat="44.71406" lon="5.22092">
        <ele>684</ele>
        <time>2019-09-01T07:37:44Z</time>
      </trkpt>
      <trkpt lat="44.71408" lon="5.22096">
        <ele>684</ele>
        <time>2019-09-01T07:37:45Z</time>
      </trkpt>
      <trkpt lat="44.7141" lon="5.22102">
        <ele>683</ele>
        <time>2019-09-01T07:37:47Z</time>
      </trkpt>
      <trkpt lat="44.71412" lon="5.22106">
        <ele>683</ele>
        <time>2019-09-01T07:37:48Z</time>
      </trkpt>
      <trkpt lat="44.71414" lon="5.22111">
        <ele>683</ele>
        <time>2019-09-01T07:37:50Z</time>
      </trkpt>
      <trkpt lat="44.71416" lon="5.22116">
        <ele>683</ele>
        <time>2019-09-01T07:37:52Z</time>
      </trkpt>
      <trkpt lat="44.71417" lon="5.22119">
        <ele>684</ele>
        <time>2019-09-01T07:37:53Z</time>
      </trkpt>
      <trkpt lat="44.71418" lon="5.22123">
        <ele>684</ele>
        <time>2019-09-01T07:37:54Z</time>
      </trkpt>
      <trkpt lat="44.71419" lon="5.22129">
        <ele>684</ele>
        <time>2019-09-01T07:37:56Z</time>
      </trkpt>
      <trkpt lat="44.71421" lon="5.22134">
        <ele>684</ele>
        <time>2019-09-01T07:37:58Z</time>
      </trkpt>
      <trkpt lat="44.71423" lon="5.22139">
        <ele>685</ele>
        <time>2019-09-01T07:38:00Z</time>
      </trkpt>
      <trkpt lat="44.71424" lon="5.22144">
        <ele>685</ele>
        <time>2019-09-01T07:38:02Z</time>
      </trkpt>
      <trkpt lat="44.71426" lon="5.22148">
        <ele>685</ele>
        <time>2019-09-01T07:38:04Z</time>
      </trkpt>
      <trkpt lat="44.71427" lon="5.22154">
        <ele>686</ele>
        <time>2019-09-01T07:38:06Z</time>
      </trkpt>
      <trkpt lat="44.71426" lon="5.22161">
        <ele>687</ele>
        <time>2019-09-01T07:38:08Z</time>
      </trkpt>
      <trkpt lat="44.71426" lon="5.22168">
        <ele>689</ele>
        <time>2019-09-01T07:38:10Z</time>
      </trkpt>
      <trkpt lat="44.71424" lon="5.22175">
        <ele>689</ele>
        <time>2019-09-01T07:38:12Z</time>
      </trkpt>
      <trkpt lat="44.71424" lon="5.22179">
        <ele>689</ele>
        <time>2019-09-01T07:38:13Z</time>
      </trkpt>
      <trkpt lat="44.71423" lon="5.22183">
        <ele>689</ele>
        <time>2019-09-01T07:38:14Z</time>
      </trkpt>
      <trkpt lat="44.71423" lon="5.22187">
        <ele>689</ele>
        <time>2019-09-01T07:38:15Z</time>
      </trkpt>
      <trkpt lat="44.71423" lon="5.22192">
        <ele>689</ele>
        <time>2019-09-01T07:38:16Z</time>
      </trkpt>
      <trkpt lat="44.71424" lon="5.22196">
        <ele>689</ele>
        <time>2019-09-01T07:38:17Z</time>
      </trkpt>
      <trkpt lat="44.71423" lon="5.222">
        <ele>690</ele>
        <time>2019-09-01T07:38:18Z</time>
      </trkpt>
      <trkpt lat="44.71422" lon="5.22204">
        <ele>690</ele>
        <time>2019-09-01T07:38:19Z</time>
      </trkpt>
      <trkpt lat="44.71421" lon="5.22208">
        <ele>690</ele>
        <time>2019-09-01T07:38:20Z</time>
      </trkpt>
      <trkpt lat="44.71421" lon="5.22212">
        <ele>690</ele>
        <time>2019-09-01T07:38:21Z</time>
      </trkpt>
      <trkpt lat="44.7142" lon="5.22216">
        <ele>691</ele>
        <time>2019-09-01T07:38:22Z</time>
      </trkpt>
      <trkpt lat="44.71418" lon="5.22223">
        <ele>692</ele>
        <time>2019-09-01T07:38:24Z</time>
      </trkpt>
      <trkpt lat="44.71417" lon="5.22229">
        <ele>690</ele>
        <time>2019-09-01T07:38:26Z</time>
      </trkpt>
      <trkpt lat="44.71414" lon="5.22235">
        <ele>692</ele>
        <time>2019-09-01T07:38:28Z</time>
      </trkpt>
      <trkpt lat="44.71412" lon="5.22238">
        <ele>692</ele>
        <time>2019-09-01T07:38:29Z</time>
      </trkpt>
      <trkpt lat="44.7141" lon="5.22241">
        <ele>693</ele>
        <time>2019-09-01T07:38:30Z</time>
      </trkpt>
      <trkpt lat="44.71408" lon="5.22244">
        <ele>693</ele>
        <time>2019-09-01T07:38:31Z</time>
      </trkpt>
      <trkpt lat="44.71406" lon="5.2225">
        <ele>693</ele>
        <time>2019-09-01T07:38:33Z</time>
      </trkpt>
      <trkpt lat="44.71405" lon="5.22255">
        <ele>697</ele>
        <time>2019-09-01T07:38:35Z</time>
      </trkpt>
      <trkpt lat="44.71402" lon="5.2226">
        <ele>696</ele>
        <time>2019-09-01T07:38:37Z</time>
      </trkpt>
      <trkpt lat="44.71399" lon="5.22266">
        <ele>696</ele>
        <time>2019-09-01T07:38:39Z</time>
      </trkpt>
      <trkpt lat="44.71398" lon="5.2227">
        <ele>696</ele>
        <time>2019-09-01T07:38:40Z</time>
      </trkpt>
      <trkpt lat="44.71396" lon="5.22275">
        <ele>696</ele>
        <time>2019-09-01T07:38:42Z</time>
      </trkpt>
      <trkpt lat="44.71394" lon="5.22279">
        <ele>696</ele>
        <time>2019-09-01T07:38:44Z</time>
      </trkpt>
      <trkpt lat="44.71393" lon="5.22284">
        <ele>696</ele>
        <time>2019-09-01T07:38:46Z</time>
      </trkpt>
      <trkpt lat="44.71389" lon="5.22287">
        <ele>696</ele>
        <time>2019-09-01T07:38:48Z</time>
      </trkpt>
      <trkpt lat="44.71386" lon="5.22291">
        <ele>696</ele>
        <time>2019-09-01T07:38:50Z</time>
      </trkpt>
      <trkpt lat="44.71384" lon="5.22295">
        <ele>696</ele>
        <time>2019-09-01T07:38:52Z</time>
      </trkpt>
      <trkpt lat="44.7138" lon="5.223">
        <ele>696</ele>
        <time>2019-09-01T07:38:54Z</time>
      </trkpt>
      <trkpt lat="44.71377" lon="5.22303">
        <ele>696</ele>
        <time>2019-09-01T07:38:56Z</time>
      </trkpt>
      <trkpt lat="44.71375" lon="5.22307">
        <ele>696</ele>
        <time>2019-09-01T07:38:58Z</time>
      </trkpt>
      <trkpt lat="44.71373" lon="5.2231">
        <ele>696</ele>
        <time>2019-09-01T07:39:00Z</time>
      </trkpt>
      <trkpt lat="44.71369" lon="5.22313">
        <ele>696</ele>
        <time>2019-09-01T07:39:02Z</time>
      </trkpt>
      <trkpt lat="44.71366" lon="5.22317">
        <ele>695</ele>
        <time>2019-09-01T07:39:04Z</time>
      </trkpt>
      <trkpt lat="44.71364" lon="5.2232">
        <ele>695</ele>
        <time>2019-09-01T07:39:06Z</time>
      </trkpt>
      <trkpt lat="44.71361" lon="5.22324">
        <ele>695</ele>
        <time>2019-09-01T07:39:08Z</time>
      </trkpt>
      <trkpt lat="44.71359" lon="5.22328">
        <ele>695</ele>
        <time>2019-09-01T07:39:10Z</time>
      </trkpt>
      <trkpt lat="44.71356" lon="5.22331">
        <ele>695</ele>
        <time>2019-09-01T07:39:12Z</time>
      </trkpt>
      <trkpt lat="44.71354" lon="5.22333">
        <ele>694</ele>
        <time>2019-09-01T07:39:14Z</time>
      </trkpt>
      <trkpt lat="44.71351" lon="5.22336">
        <ele>695</ele>
        <time>2019-09-01T07:39:17Z</time>
      </trkpt>
      <trkpt lat="44.71349" lon="5.2234">
        <ele>695</ele>
        <time>2019-09-01T07:39:21Z</time>
      </trkpt>
      <trkpt lat="44.71349" lon="5.22345">
        <ele>695</ele>
        <time>2019-09-01T07:39:24Z</time>
      </trkpt>
      <trkpt lat="44.71351" lon="5.22349">
        <ele>696</ele>
        <time>2019-09-01T07:39:26Z</time>
      </trkpt>
      <trkpt lat="44.71353" lon="5.22353">
        <ele>696</ele>
        <time>2019-09-01T07:39:28Z</time>
      </trkpt>
      <trkpt lat="44.71355" lon="5.22357">
        <ele>696</ele>
        <time>2019-09-01T07:39:30Z</time>
      </trkpt>
      <trkpt lat="44.71358" lon="5.22361">
        <ele>696</ele>
        <time>2019-09-01T07:39:32Z</time>
      </trkpt>
      <trkpt lat="44.7136" lon="5.22365">
        <ele>697</ele>
        <time>2019-09-01T07:39:34Z</time>
      </trkpt>
      <trkpt lat="44.71362" lon="5.22369">
        <ele>697</ele>
        <time>2019-09-01T07:39:36Z</time>
      </trkpt>
      <trkpt lat="44.71365" lon="5.22375">
        <ele>697</ele>
        <time>2019-09-01T07:39:38Z</time>
      </trkpt>
      <trkpt lat="44.71366" lon="5.22383">
        <ele>697</ele>
        <time>2019-09-01T07:39:40Z</time>
      </trkpt>
      <trkpt lat="44.71367" lon="5.22387">
        <ele>697</ele>
        <time>2019-09-01T07:39:41Z</time>
      </trkpt>
      <trkpt lat="44.7137" lon="5.22393">
        <ele>697</ele>
        <time>2019-09-01T07:39:43Z</time>
      </trkpt>
      <trkpt lat="44.71373" lon="5.224">
        <ele>698</ele>
        <time>2019-09-01T07:39:45Z</time>
      </trkpt>
      <trkpt lat="44.71375" lon="5.22406">
        <ele>698</ele>
        <time>2019-09-01T07:39:46Z</time>
      </trkpt>
      <trkpt lat="44.71376" lon="5.22412">
        <ele>698</ele>
        <time>2019-09-01T07:39:47Z</time>
      </trkpt>
      <trkpt lat="44.71378" lon="5.22417">
        <ele>696</ele>
        <time>2019-09-01T07:39:48Z</time>
      </trkpt>
      <trkpt lat="44.7138" lon="5.22421">
        <ele>696</ele>
        <time>2019-09-01T07:39:49Z</time>
      </trkpt>
      <trkpt lat="44.71381" lon="5.22424">
        <ele>697</ele>
        <time>2019-09-01T07:39:50Z</time>
      </trkpt>
      <trkpt lat="44.71382" lon="5.22428">
        <ele>697</ele>
        <time>2019-09-01T07:39:51Z</time>
      </trkpt>
      <trkpt lat="44.71383" lon="5.22433">
        <ele>697</ele>
        <time>2019-09-01T07:39:52Z</time>
      </trkpt>
      <trkpt lat="44.71385" lon="5.22438">
        <ele>697</ele>
        <time>2019-09-01T07:39:53Z</time>
      </trkpt>
      <trkpt lat="44.71388" lon="5.22443">
        <ele>698</ele>
        <time>2019-09-01T07:39:54Z</time>
      </trkpt>
      <trkpt lat="44.71388" lon="5.22449">
        <ele>697</ele>
        <time>2019-09-01T07:39:55Z</time>
      </trkpt>
      <trkpt lat="44.71389" lon="5.22455">
        <ele>697</ele>
        <time>2019-09-01T07:39:56Z</time>
      </trkpt>
      <trkpt lat="44.71391" lon="5.2246">
        <ele>697</ele>
        <time>2019-09-01T07:39:57Z</time>
      </trkpt>
      <trkpt lat="44.71391" lon="5.22467">
        <ele>697</ele>
        <time>2019-09-01T07:39:58Z</time>
      </trkpt>
      <trkpt lat="44.71392" lon="5.22472">
        <ele>698</ele>
        <time>2019-09-01T07:39:59Z</time>
      </trkpt>
      <trkpt lat="44.71393" lon="5.22478">
        <ele>699</ele>
        <time>2019-09-01T07:40:00Z</time>
      </trkpt>
      <trkpt lat="44.71394" lon="5.22485">
        <ele>699</ele>
        <time>2019-09-01T07:40:01Z</time>
      </trkpt>
      <trkpt lat="44.71394" lon="5.22491">
        <ele>700</ele>
        <time>2019-09-01T07:40:02Z</time>
      </trkpt>
      <trkpt lat="44.71395" lon="5.22497">
        <ele>701</ele>
        <time>2019-09-01T07:40:03Z</time>
      </trkpt>
      <trkpt lat="44.71395" lon="5.22504">
        <ele>700</ele>
        <time>2019-09-01T07:40:04Z</time>
      </trkpt>
      <trkpt lat="44.71397" lon="5.22509">
        <ele>700</ele>
        <time>2019-09-01T07:40:05Z</time>
      </trkpt>
      <trkpt lat="44.71398" lon="5.22515">
        <ele>700</ele>
        <time>2019-09-01T07:40:06Z</time>
      </trkpt>
      <trkpt lat="44.71398" lon="5.22521">
        <ele>699</ele>
        <time>2019-09-01T07:40:07Z</time>
      </trkpt>
      <trkpt lat="44.71398" lon="5.22526">
        <ele>698</ele>
        <time>2019-09-01T07:40:08Z</time>
      </trkpt>
      <trkpt lat="44.71399" lon="5.22532">
        <ele>697</ele>
        <time>2019-09-01T07:40:09Z</time>
      </trkpt>
      <trkpt lat="44.71398" lon="5.22536">
        <ele>697</ele>
        <time>2019-09-01T07:40:10Z</time>
      </trkpt>
      <trkpt lat="44.71399" lon="5.22541">
        <ele>697</ele>
        <time>2019-09-01T07:40:11Z</time>
      </trkpt>
      <trkpt lat="44.71399" lon="5.22546">
        <ele>697</ele>
        <time>2019-09-01T07:40:12Z</time>
      </trkpt>
      <trkpt lat="44.714" lon="5.22551">
        <ele>697</ele>
        <time>2019-09-01T07:40:13Z</time>
      </trkpt>
      <trkpt lat="44.714" lon="5.22556">
        <ele>697</ele>
        <time>2019-09-01T07:40:14Z</time>
      </trkpt>
      <trkpt lat="44.71401" lon="5.22562">
        <ele>698</ele>
        <time>2019-09-01T07:40:16Z</time>
      </trkpt>
      <trkpt lat="44.71401" lon="5.22569">
        <ele>699</ele>
        <time>2019-09-01T07:40:18Z</time>
      </trkpt>
      <trkpt lat="44.71401" lon="5.22576">
        <ele>701</ele>
        <time>2019-09-01T07:40:20Z</time>
      </trkpt>
      <trkpt lat="44.71401" lon="5.22582">
        <ele>701</ele>
        <time>2019-09-01T07:40:22Z</time>
      </trkpt>
      <trkpt lat="44.71403" lon="5.22588">
        <ele>705</ele>
        <time>2019-09-01T07:40:24Z</time>
      </trkpt>
      <trkpt lat="44.71402" lon="5.22594">
        <ele>704</ele>
        <time>2019-09-01T07:40:26Z</time>
      </trkpt>
      <trkpt lat="44.71403" lon="5.22601">
        <ele>703</ele>
        <time>2019-09-01T07:40:28Z</time>
      </trkpt>
      <trkpt lat="44.71403" lon="5.22605">
        <ele>703</ele>
        <time>2019-09-01T07:40:30Z</time>
      </trkpt>
      <trkpt lat="44.71404" lon="5.2261">
        <ele>703</ele>
        <time>2019-09-01T07:40:32Z</time>
      </trkpt>
      <trkpt lat="44.71406" lon="5.22614">
        <ele>703</ele>
        <time>2019-09-01T07:40:35Z</time>
      </trkpt>
      <trkpt lat="44.71405" lon="5.22618">
        <ele>703</ele>
        <time>2019-09-01T07:40:40Z</time>
      </trkpt>
      <trkpt lat="44.71404" lon="5.22623">
        <ele>703</ele>
        <time>2019-09-01T07:40:44Z</time>
      </trkpt>
      <trkpt lat="44.71405" lon="5.22627">
        <ele>703</ele>
        <time>2019-09-01T07:40:50Z</time>
      </trkpt>
      <trkpt lat="44.71406" lon="5.22631">
        <ele>703</ele>
        <time>2019-09-01T07:40:53Z</time>
      </trkpt>
      <trkpt lat="44.71405" lon="5.22634">
        <ele>703</ele>
        <time>2019-09-01T07:40:58Z</time>
      </trkpt>
      <trkpt lat="44.71402" lon="5.22634">
        <ele>703</ele>
        <time>2019-09-01T07:41:05Z</time>
      </trkpt>
      <trkpt lat="44.71399" lon="5.22635">
        <ele>703</ele>
        <time>2019-09-01T07:41:09Z</time>
      </trkpt>
      <trkpt lat="44.71396" lon="5.22636">
        <ele>703</ele>
        <time>2019-09-01T07:41:13Z</time>
      </trkpt>
      <trkpt lat="44.714" lon="5.22636">
        <ele>703</ele>
        <time>2019-09-01T07:41:51Z</time>
      </trkpt>
      <trkpt lat="44.71403" lon="5.22635">
        <ele>703</ele>
        <time>2019-09-01T07:42:20Z</time>
      </trkpt>
      <trkpt lat="44.71405" lon="5.22639">
        <ele>704</ele>
        <time>2019-09-01T07:42:23Z</time>
      </trkpt>
      <trkpt lat="44.71406" lon="5.22646">
        <ele>705</ele>
        <time>2019-09-01T07:42:25Z</time>
      </trkpt>
      <trkpt lat="44.71404" lon="5.22651">
        <ele>705</ele>
        <time>2019-09-01T07:42:28Z</time>
      </trkpt>
      <trkpt lat="44.71401" lon="5.22655">
        <ele>705</ele>
        <time>2019-09-01T07:42:31Z</time>
      </trkpt>
      <trkpt lat="44.71399" lon="5.22658">
        <ele>705</ele>
        <time>2019-09-01T07:42:33Z</time>
      </trkpt>
      <trkpt lat="44.71395" lon="5.22661">
        <ele>704</ele>
        <time>2019-09-01T07:42:35Z</time>
      </trkpt>
      <trkpt lat="44.7139" lon="5.22662">
        <ele>704</ele>
        <time>2019-09-01T07:42:37Z</time>
      </trkpt>
      <trkpt lat="44.71387" lon="5.22665">
        <ele>703</ele>
        <time>2019-09-01T07:42:39Z</time>
      </trkpt>
      <trkpt lat="44.71384" lon="5.22668">
        <ele>718</ele>
        <time>2019-09-01T07:42:41Z</time>
      </trkpt>
      <trkpt lat="44.71381" lon="5.22671">
        <ele>718</ele>
        <time>2019-09-01T07:42:43Z</time>
      </trkpt>
      <trkpt lat="44.71377" lon="5.22673">
        <ele>718</ele>
        <time>2019-09-01T07:42:45Z</time>
      </trkpt>
      <trkpt lat="44.71374" lon="5.22676">
        <ele>718</ele>
        <time>2019-09-01T07:42:47Z</time>
      </trkpt>
      <trkpt lat="44.7137" lon="5.22677">
        <ele>718</ele>
        <time>2019-09-01T07:42:50Z</time>
      </trkpt>
      <trkpt lat="44.71367" lon="5.22679">
        <ele>718</ele>
        <time>2019-09-01T07:42:53Z</time>
      </trkpt>
      <trkpt lat="44.71365" lon="5.22683">
        <ele>718</ele>
        <time>2019-09-01T07:42:55Z</time>
      </trkpt>
      <trkpt lat="44.71361" lon="5.22686">
        <ele>719</ele>
        <time>2019-09-01T07:42:57Z</time>
      </trkpt>
      <trkpt lat="44.71356" lon="5.22686">
        <ele>718</ele>
        <time>2019-09-01T07:42:59Z</time>
      </trkpt>
      <trkpt lat="44.71351" lon="5.22686">
        <ele>717</ele>
        <time>2019-09-01T07:43:01Z</time>
      </trkpt>
      <trkpt lat="44.71349" lon="5.22683">
        <ele>716</ele>
        <time>2019-09-01T07:43:06Z</time>
      </trkpt>
      <trkpt lat="44.71346" lon="5.22682">
        <ele>715</ele>
        <time>2019-09-01T07:44:06Z</time>
      </trkpt>
      <trkpt lat="44.71343" lon="5.22681">
        <ele>714</ele>
        <time>2019-09-01T07:44:09Z</time>
      </trkpt>
      <trkpt lat="44.71339" lon="5.22682">
        <ele>713</ele>
        <time>2019-09-01T07:44:11Z</time>
      </trkpt>
      <trkpt lat="44.71336" lon="5.22681">
        <ele>712</ele>
        <time>2019-09-01T07:44:13Z</time>
      </trkpt>
      <trkpt lat="44.71334" lon="5.2268">
        <ele>711</ele>
        <time>2019-09-01T07:44:15Z</time>
      </trkpt>
      <trkpt lat="44.7133" lon="5.2268">
        <ele>708</ele>
        <time>2019-09-01T07:44:18Z</time>
      </trkpt>
      <trkpt lat="44.71327" lon="5.22679">
        <ele>708</ele>
        <time>2019-09-01T07:44:21Z</time>
      </trkpt>
      <trkpt lat="44.71324" lon="5.22678">
        <ele>708</ele>
        <time>2019-09-01T07:44:23Z</time>
      </trkpt>
      <trkpt lat="44.7132" lon="5.22679">
        <ele>709</ele>
        <time>2019-09-01T07:44:25Z</time>
      </trkpt>
      <trkpt lat="44.71317" lon="5.2268">
        <ele>710</ele>
        <time>2019-09-01T07:44:27Z</time>
      </trkpt>
      <trkpt lat="44.71313" lon="5.22681">
        <ele>710</ele>
        <time>2019-09-01T07:44:30Z</time>
      </trkpt>
      <trkpt lat="44.7131" lon="5.22682">
        <ele>711</ele>
        <time>2019-09-01T07:44:32Z</time>
      </trkpt>
      <trkpt lat="44.71306" lon="5.22684">
        <ele>711</ele>
        <time>2019-09-01T07:44:35Z</time>
      </trkpt>
      <trkpt lat="44.71302" lon="5.22683">
        <ele>711</ele>
        <time>2019-09-01T07:44:42Z</time>
      </trkpt>
      <trkpt lat="44.71299" lon="5.22685">
        <ele>711</ele>
        <time>2019-09-01T07:44:48Z</time>
      </trkpt>
      <trkpt lat="44.71295" lon="5.22686">
        <ele>711</ele>
        <time>2019-09-01T07:44:53Z</time>
      </trkpt>
      <trkpt lat="44.71292" lon="5.22687">
        <ele>711</ele>
        <time>2019-09-01T07:44:56Z</time>
      </trkpt>
      <trkpt lat="44.7129" lon="5.2269">
        <ele>712</ele>
        <time>2019-09-01T07:44:58Z</time>
      </trkpt>
      <trkpt lat="44.71287" lon="5.22692">
        <ele>712</ele>
        <time>2019-09-01T07:45:00Z</time>
      </trkpt>
      <trkpt lat="44.71284" lon="5.22692">
        <ele>712</ele>
        <time>2019-09-01T07:45:04Z</time>
      </trkpt>
      <trkpt lat="44.71281" lon="5.22698">
        <ele>713</ele>
        <time>2019-09-01T07:45:11Z</time>
      </trkpt>
      <trkpt lat="44.71278" lon="5.22701">
        <ele>713</ele>
        <time>2019-09-01T07:45:14Z</time>
      </trkpt>
      <trkpt lat="44.71276" lon="5.22703">
        <ele>713</ele>
        <time>2019-09-01T07:45:17Z</time>
      </trkpt>
      <trkpt lat="44.71273" lon="5.22706">
        <ele>714</ele>
        <time>2019-09-01T07:45:20Z</time>
      </trkpt>
      <trkpt lat="44.71272" lon="5.2271">
        <ele>715</ele>
        <time>2019-09-01T07:45:23Z</time>
      </trkpt>
      <trkpt lat="44.71268" lon="5.22713">
        <ele>715</ele>
        <time>2019-09-01T07:45:26Z</time>
      </trkpt>
      <trkpt lat="44.71267" lon="5.22717">
        <ele>716</ele>
        <time>2019-09-01T07:45:29Z</time>
      </trkpt>
      <trkpt lat="44.71264" lon="5.22718">
        <ele>716</ele>
        <time>2019-09-01T07:45:31Z</time>
      </trkpt>
      <trkpt lat="44.71262" lon="5.22721">
        <ele>717</ele>
        <time>2019-09-01T07:45:33Z</time>
      </trkpt>
      <trkpt lat="44.71261" lon="5.22725">
        <ele>718</ele>
        <time>2019-09-01T07:45:35Z</time>
      </trkpt>
      <trkpt lat="44.71258" lon="5.22727">
        <ele>718</ele>
        <time>2019-09-01T07:45:38Z</time>
      </trkpt>
      <trkpt lat="44.71256" lon="5.2273">
        <ele>719</ele>
        <time>2019-09-01T07:45:46Z</time>
      </trkpt>
      <trkpt lat="44.71255" lon="5.22734">
        <ele>720</ele>
        <time>2019-09-01T07:45:50Z</time>
      </trkpt>
      <trkpt lat="44.71253" lon="5.22739">
        <ele>721</ele>
        <time>2019-09-01T07:45:56Z</time>
      </trkpt>
      <trkpt lat="44.71252" lon="5.22745">
        <ele>723</ele>
        <time>2019-09-01T07:46:02Z</time>
      </trkpt>
      <trkpt lat="44.7125" lon="5.22751">
        <ele>726</ele>
        <time>2019-09-01T07:46:08Z</time>
      </trkpt>
      <trkpt lat="44.71249" lon="5.22755">
        <ele>725</ele>
        <time>2019-09-01T07:46:11Z</time>
      </trkpt>
      <trkpt lat="44.71246" lon="5.22758">
        <ele>725</ele>
        <time>2019-09-01T07:46:15Z</time>
      </trkpt>
      <trkpt lat="44.71245" lon="5.22762">
        <ele>725</ele>
        <time>2019-09-01T07:46:31Z</time>
      </trkpt>
      <trkpt lat="44.71242" lon="5.22768">
        <ele>725</ele>
        <time>2019-09-01T07:46:37Z</time>
      </trkpt>
      <trkpt lat="44.71241" lon="5.22773">
        <ele>726</ele>
        <time>2019-09-01T07:46:42Z</time>
      </trkpt>
      <trkpt lat="44.7124" lon="5.22777">
        <ele>726</ele>
        <time>2019-09-01T07:46:46Z</time>
      </trkpt>
      <trkpt lat="44.71239" lon="5.22782">
        <ele>727</ele>
        <time>2019-09-01T07:46:52Z</time>
      </trkpt>
      <trkpt lat="44.71237" lon="5.22786">
        <ele>727</ele>
        <time>2019-09-01T07:47:14Z</time>
      </trkpt>
      <trkpt lat="44.71236" lon="5.22789">
        <ele>727</ele>
        <time>2019-09-01T07:47:25Z</time>
      </trkpt>
      <trkpt lat="44.71235" lon="5.22793">
        <ele>728</ele>
        <time>2019-09-01T07:47:31Z</time>
      </trkpt>
      <trkpt lat="44.71232" lon="5.22795">
        <ele>728</ele>
        <time>2019-09-01T07:48:22Z</time>
      </trkpt>
      <trkpt lat="44.71232" lon="5.22799">
        <ele>729</ele>
        <time>2019-09-01T07:48:29Z</time>
      </trkpt>
      <trkpt lat="44.71232" lon="5.22804">
        <ele>730</ele>
        <time>2019-09-01T07:48:32Z</time>
      </trkpt>
      <trkpt lat="44.71233" lon="5.22809">
        <ele>731</ele>
        <time>2019-09-01T07:48:35Z</time>
      </trkpt>
      <trkpt lat="44.71234" lon="5.22813">
        <ele>732</ele>
        <time>2019-09-01T07:48:37Z</time>
      </trkpt>
      <trkpt lat="44.71234" lon="5.22819">
        <ele>733</ele>
        <time>2019-09-01T07:48:39Z</time>
      </trkpt>
      <trkpt lat="44.71235" lon="5.22825">
        <ele>735</ele>
        <time>2019-09-01T07:48:42Z</time>
      </trkpt>
      <trkpt lat="44.71236" lon="5.22829">
        <ele>736</ele>
        <time>2019-09-01T07:48:44Z</time>
      </trkpt>
      <trkpt lat="44.71238" lon="5.22833">
        <ele>737</ele>
        <time>2019-09-01T07:48:47Z</time>
      </trkpt>
      <trkpt lat="44.7124" lon="5.22837">
        <ele>745</ele>
        <time>2019-09-01T07:48:49Z</time>
      </trkpt>
      <trkpt lat="44.71242" lon="5.22842">
        <ele>745</ele>
        <time>2019-09-01T07:48:51Z</time>
      </trkpt>
      <trkpt lat="44.71243" lon="5.22848">
        <ele>745</ele>
        <time>2019-09-01T07:48:53Z</time>
      </trkpt>
      <trkpt lat="44.71244" lon="5.22854">
        <ele>746</ele>
        <time>2019-09-01T07:48:55Z</time>
      </trkpt>
      <trkpt lat="44.71243" lon="5.22859">
        <ele>746</ele>
        <time>2019-09-01T07:48:57Z</time>
      </trkpt>
      <trkpt lat="44.7124" lon="5.22863">
        <ele>746</ele>
        <time>2019-09-01T07:48:59Z</time>
      </trkpt>
      <trkpt lat="44.71235" lon="5.22865">
        <ele>747</ele>
        <time>2019-09-01T07:49:01Z</time>
      </trkpt>
      <trkpt lat="44.71233" lon="5.22866">
        <ele>747</ele>
        <time>2019-09-01T07:49:02Z</time>
      </trkpt>
      <trkpt lat="44.7123" lon="5.22867">
        <ele>747</ele>
        <time>2019-09-01T07:49:03Z</time>
      </trkpt>
      <trkpt lat="44.71227" lon="5.22868">
        <ele>747</ele>
        <time>2019-09-01T07:49:04Z</time>
      </trkpt>
      <trkpt lat="44.71223" lon="5.2287">
        <ele>747</ele>
        <time>2019-09-01T07:49:06Z</time>
      </trkpt>
      <trkpt lat="44.71219" lon="5.22873">
        <ele>747</ele>
        <time>2019-09-01T07:49:08Z</time>
      </trkpt>
      <trkpt lat="44.71216" lon="5.22875">
        <ele>747</ele>
        <time>2019-09-01T07:49:10Z</time>
      </trkpt>
      <trkpt lat="44.71211" lon="5.22877">
        <ele>747</ele>
        <time>2019-09-01T07:49:12Z</time>
      </trkpt>
      <trkpt lat="44.71206" lon="5.22878">
        <ele>747</ele>
        <time>2019-09-01T07:49:14Z</time>
      </trkpt>
      <trkpt lat="44.71203" lon="5.22879">
        <ele>746</ele>
        <time>2019-09-01T07:49:16Z</time>
      </trkpt>
      <trkpt lat="44.71198" lon="5.2288">
        <ele>746</ele>
        <time>2019-09-01T07:49:18Z</time>
      </trkpt>
      <trkpt lat="44.71195" lon="5.22883">
        <ele>746</ele>
        <time>2019-09-01T07:49:20Z</time>
      </trkpt>
      <trkpt lat="44.71192" lon="5.22884">
        <ele>746</ele>
        <time>2019-09-01T07:49:21Z</time>
      </trkpt>
      <trkpt lat="44.71188" lon="5.22885">
        <ele>747</ele>
        <time>2019-09-01T07:49:22Z</time>
      </trkpt>
      <trkpt lat="44.71185" lon="5.22886">
        <ele>747</ele>
        <time>2019-09-01T07:49:23Z</time>
      </trkpt>
      <trkpt lat="44.71181" lon="5.22888">
        <ele>747</ele>
        <time>2019-09-01T07:49:24Z</time>
      </trkpt>
      <trkpt lat="44.71178" lon="5.22889">
        <ele>747</ele>
        <time>2019-09-01T07:49:25Z</time>
      </trkpt>
      <trkpt lat="44.71174" lon="5.22889">
        <ele>747</ele>
        <time>2019-09-01T07:49:26Z</time>
      </trkpt>
      <trkpt lat="44.71169" lon="5.22887">
        <ele>747</ele>
        <time>2019-09-01T07:49:27Z</time>
      </trkpt>
      <trkpt lat="44.71165" lon="5.22886">
        <ele>748</ele>
        <time>2019-09-01T07:49:28Z</time>
      </trkpt>
      <trkpt lat="44.71162" lon="5.22885">
        <ele>747</ele>
        <time>2019-09-01T07:49:29Z</time>
      </trkpt>
      <trkpt lat="44.71159" lon="5.22883">
        <ele>747</ele>
        <time>2019-09-01T07:49:30Z</time>
      </trkpt>
      <trkpt lat="44.71156" lon="5.22881">
        <ele>747</ele>
        <time>2019-09-01T07:49:31Z</time>
      </trkpt>
      <trkpt lat="44.71152" lon="5.22879">
        <ele>747</ele>
        <time>2019-09-01T07:49:33Z</time>
      </trkpt>
      <trkpt lat="44.71148" lon="5.22877">
        <ele>747</ele>
        <time>2019-09-01T07:49:35Z</time>
      </trkpt>
      <trkpt lat="44.71145" lon="5.22876">
        <ele>747</ele>
        <time>2019-09-01T07:49:37Z</time>
      </trkpt>
      <trkpt lat="44.71141" lon="5.22874">
        <ele>747</ele>
        <time>2019-09-01T07:49:39Z</time>
      </trkpt>
      <trkpt lat="44.71138" lon="5.22873">
        <ele>747</ele>
        <time>2019-09-01T07:49:41Z</time>
      </trkpt>
      <trkpt lat="44.71135" lon="5.22872">
        <ele>747</ele>
        <time>2019-09-01T07:49:43Z</time>
      </trkpt>
      <trkpt lat="44.71132" lon="5.22871">
        <ele>747</ele>
        <time>2019-09-01T07:49:45Z</time>
      </trkpt>
      <trkpt lat="44.71128" lon="5.22872">
        <ele>747</ele>
        <time>2019-09-01T07:49:47Z</time>
      </trkpt>
      <trkpt lat="44.71125" lon="5.22868">
        <ele>747</ele>
        <time>2019-09-01T07:49:49Z</time>
      </trkpt>
      <trkpt lat="44.7112" lon="5.22866">
        <ele>747</ele>
        <time>2019-09-01T07:49:51Z</time>
      </trkpt>
      <trkpt lat="44.71116" lon="5.22862">
        <ele>747</ele>
        <time>2019-09-01T07:49:53Z</time>
      </trkpt>
      <trkpt lat="44.71113" lon="5.22859">
        <ele>747</ele>
        <time>2019-09-01T07:49:54Z</time>
      </trkpt>
      <trkpt lat="44.7111" lon="5.22855">
        <ele>747</ele>
        <time>2019-09-01T07:49:56Z</time>
      </trkpt>
      <trkpt lat="44.71106" lon="5.22853">
        <ele>747</ele>
        <time>2019-09-01T07:49:58Z</time>
      </trkpt>
      <trkpt lat="44.71102" lon="5.2285">
        <ele>746</ele>
        <time>2019-09-01T07:50:00Z</time>
      </trkpt>
      <trkpt lat="44.71098" lon="5.22847">
        <ele>746</ele>
        <time>2019-09-01T07:50:02Z</time>
      </trkpt>
      <trkpt lat="44.71094" lon="5.22845">
        <ele>746</ele>
        <time>2019-09-01T07:50:04Z</time>
      </trkpt>
      <trkpt lat="44.7109" lon="5.22843">
        <ele>746</ele>
        <time>2019-09-01T07:50:06Z</time>
      </trkpt>
      <trkpt lat="44.71087" lon="5.22841">
        <ele>745</ele>
        <time>2019-09-01T07:50:08Z</time>
      </trkpt>
      <trkpt lat="44.71085" lon="5.22839">
        <ele>745</ele>
        <time>2019-09-01T07:50:10Z</time>
      </trkpt>
      <trkpt lat="44.71082" lon="5.22835">
        <ele>745</ele>
        <time>2019-09-01T07:50:12Z</time>
      </trkpt>
      <trkpt lat="44.71079" lon="5.22833">
        <ele>742</ele>
        <time>2019-09-01T07:50:14Z</time>
      </trkpt>
      <trkpt lat="44.71076" lon="5.22832">
        <ele>741</ele>
        <time>2019-09-01T07:50:16Z</time>
      </trkpt>
      <trkpt lat="44.71072" lon="5.22833">
        <ele>741</ele>
        <time>2019-09-01T07:50:20Z</time>
      </trkpt>
      <trkpt lat="44.7107" lon="5.22835">
        <ele>748</ele>
        <time>2019-09-01T07:50:23Z</time>
      </trkpt>
      <trkpt lat="44.71067" lon="5.22836">
        <ele>749</ele>
        <time>2019-09-01T07:50:25Z</time>
      </trkpt>
      <trkpt lat="44.71063" lon="5.22837">
        <ele>750</ele>
        <time>2019-09-01T07:50:28Z</time>
      </trkpt>
      <trkpt lat="44.7106" lon="5.22838">
        <ele>750</ele>
        <time>2019-09-01T07:50:30Z</time>
      </trkpt>
      <trkpt lat="44.71056" lon="5.2284">
        <ele>751</ele>
        <time>2019-09-01T07:50:32Z</time>
      </trkpt>
      <trkpt lat="44.71053" lon="5.2284">
        <ele>751</ele>
        <time>2019-09-01T07:50:34Z</time>
      </trkpt>
      <trkpt lat="44.7105" lon="5.22841">
        <ele>751</ele>
        <time>2019-09-01T07:50:36Z</time>
      </trkpt>
      <trkpt lat="44.71047" lon="5.22842">
        <ele>752</ele>
        <time>2019-09-01T07:50:38Z</time>
      </trkpt>
      <trkpt lat="44.71043" lon="5.22843">
        <ele>752</ele>
        <time>2019-09-01T07:50:40Z</time>
      </trkpt>
      <trkpt lat="44.7104" lon="5.22844">
        <ele>752</ele>
        <time>2019-09-01T07:50:43Z</time>
      </trkpt>
      <trkpt lat="44.71037" lon="5.22845">
        <ele>752</ele>
        <time>2019-09-01T07:50:45Z</time>
      </trkpt>
      <trkpt lat="44.71033" lon="5.22847">
        <ele>752</ele>
        <time>2019-09-01T07:50:47Z</time>
      </trkpt>
      <trkpt lat="44.71031" lon="5.22849">
        <ele>752</ele>
        <time>2019-09-01T07:50:49Z</time>
      </trkpt>
      <trkpt lat="44.71028" lon="5.22851">
        <ele>752</ele>
        <time>2019-09-01T07:50:51Z</time>
      </trkpt>
      <trkpt lat="44.71025" lon="5.22853">
        <ele>752</ele>
        <time>2019-09-01T07:50:53Z</time>
      </trkpt>
      <trkpt lat="44.71021" lon="5.22855">
        <ele>752</ele>
        <time>2019-09-01T07:50:55Z</time>
      </trkpt>
      <trkpt lat="44.71018" lon="5.22857">
        <ele>752</ele>
        <time>2019-09-01T07:50:57Z</time>
      </trkpt>
      <trkpt lat="44.71014" lon="5.2286">
        <ele>753</ele>
        <time>2019-09-01T07:50:59Z</time>
      </trkpt>
      <trkpt lat="44.71011" lon="5.22861">
        <ele>753</ele>
        <time>2019-09-01T07:51:01Z</time>
      </trkpt>
      <trkpt lat="44.71009" lon="5.22863">
        <ele>753</ele>
        <time>2019-09-01T07:51:03Z</time>
      </trkpt>
      <trkpt lat="44.71006" lon="5.22866">
        <ele>754</ele>
        <time>2019-09-01T07:51:05Z</time>
      </trkpt>
      <trkpt lat="44.71003" lon="5.22869">
        <ele>754</ele>
        <time>2019-09-01T07:51:07Z</time>
      </trkpt>
      <trkpt lat="44.70999" lon="5.22873">
        <ele>752</ele>
        <time>2019-09-01T07:51:09Z</time>
      </trkpt>
      <trkpt lat="44.70996" lon="5.22877">
        <ele>753</ele>
        <time>2019-09-01T07:51:11Z</time>
      </trkpt>
      <trkpt lat="44.70992" lon="5.22879">
        <ele>753</ele>
        <time>2019-09-01T07:51:13Z</time>
      </trkpt>
      <trkpt lat="44.7099" lon="5.22882">
        <ele>753</ele>
        <time>2019-09-01T07:51:15Z</time>
      </trkpt>
      <trkpt lat="44.70987" lon="5.22885">
        <ele>754</ele>
        <time>2019-09-01T07:51:17Z</time>
      </trkpt>
      <trkpt lat="44.70984" lon="5.22888">
        <ele>754</ele>
        <time>2019-09-01T07:51:19Z</time>
      </trkpt>
      <trkpt lat="44.70982" lon="5.22892">
        <ele>754</ele>
        <time>2019-09-01T07:51:21Z</time>
      </trkpt>
      <trkpt lat="44.70979" lon="5.22896">
        <ele>755</ele>
        <time>2019-09-01T07:51:23Z</time>
      </trkpt>
      <trkpt lat="44.70976" lon="5.22898">
        <ele>755</ele>
        <time>2019-09-01T07:51:25Z</time>
      </trkpt>
      <trkpt lat="44.70973" lon="5.22901">
        <ele>755</ele>
        <time>2019-09-01T07:51:27Z</time>
      </trkpt>
      <trkpt lat="44.7097" lon="5.22904">
        <ele>755</ele>
        <time>2019-09-01T07:51:29Z</time>
      </trkpt>
      <trkpt lat="44.70966" lon="5.22906">
        <ele>754</ele>
        <time>2019-09-01T07:51:31Z</time>
      </trkpt>
      <trkpt lat="44.70963" lon="5.2291">
        <ele>754</ele>
        <time>2019-09-01T07:51:33Z</time>
      </trkpt>
      <trkpt lat="44.70961" lon="5.22914">
        <ele>754</ele>
        <time>2019-09-01T07:51:35Z</time>
      </trkpt>
      <trkpt lat="44.7096" lon="5.22918">
        <ele>766</ele>
        <time>2019-09-01T07:51:37Z</time>
      </trkpt>
      <trkpt lat="44.70957" lon="5.22921">
        <ele>766</ele>
        <time>2019-09-01T07:51:39Z</time>
      </trkpt>
      <trkpt lat="44.70953" lon="5.22924">
        <ele>765</ele>
        <time>2019-09-01T07:51:41Z</time>
      </trkpt>
      <trkpt lat="44.7095" lon="5.22924">
        <ele>765</ele>
        <time>2019-09-01T07:51:42Z</time>
      </trkpt>
      <trkpt lat="44.70948" lon="5.22925">
        <ele>765</ele>
        <time>2019-09-01T07:51:43Z</time>
      </trkpt>
      <trkpt lat="44.70944" lon="5.22925">
        <ele>764</ele>
        <time>2019-09-01T07:51:44Z</time>
      </trkpt>
      <trkpt lat="44.7094" lon="5.22925">
        <ele>764</ele>
        <time>2019-09-01T07:51:46Z</time>
      </trkpt>
      <trkpt lat="44.70936" lon="5.22927">
        <ele>763</ele>
        <time>2019-09-01T07:51:48Z</time>
      </trkpt>
      <trkpt lat="44.70933" lon="5.2293">
        <ele>763</ele>
        <time>2019-09-01T07:51:50Z</time>
      </trkpt>
      <trkpt lat="44.70928" lon="5.2293">
        <ele>762</ele>
        <time>2019-09-01T07:51:52Z</time>
      </trkpt>
      <trkpt lat="44.70924" lon="5.2293">
        <ele>762</ele>
        <time>2019-09-01T07:51:53Z</time>
      </trkpt>
      <trkpt lat="44.7092" lon="5.2293">
        <ele>761</ele>
        <time>2019-09-01T07:51:54Z</time>
      </trkpt>
      <trkpt lat="44.70918" lon="5.22933">
        <ele>762</ele>
        <time>2019-09-01T07:51:56Z</time>
      </trkpt>
      <trkpt lat="44.70913" lon="5.22934">
        <ele>758</ele>
        <time>2019-09-01T07:51:58Z</time>
      </trkpt>
      <trkpt lat="44.7091" lon="5.22935">
        <ele>758</ele>
        <time>2019-09-01T07:51:59Z</time>
      </trkpt>
      <trkpt lat="44.70906" lon="5.22934">
        <ele>758</ele>
        <time>2019-09-01T07:52:00Z</time>
      </trkpt>
      <trkpt lat="44.70903" lon="5.22935">
        <ele>759</ele>
        <time>2019-09-01T07:52:01Z</time>
      </trkpt>
      <trkpt lat="44.709" lon="5.22935">
        <ele>759</ele>
        <time>2019-09-01T07:52:02Z</time>
      </trkpt>
      <trkpt lat="44.70897" lon="5.22934">
        <ele>758</ele>
        <time>2019-09-01T07:52:03Z</time>
      </trkpt>
      <trkpt lat="44.70895" lon="5.22934">
        <ele>758</ele>
        <time>2019-09-01T07:52:04Z</time>
      </trkpt>
      <trkpt lat="44.70892" lon="5.22934">
        <ele>758</ele>
        <time>2019-09-01T07:52:05Z</time>
      </trkpt>
      <trkpt lat="44.70889" lon="5.22933">
        <ele>758</ele>
        <time>2019-09-01T07:52:06Z</time>
      </trkpt>
      <trkpt lat="44.70885" lon="5.22933">
        <ele>758</ele>
        <time>2019-09-01T07:52:07Z</time>
      </trkpt>
      <trkpt lat="44.70881" lon="5.22932">
        <ele>758</ele>
        <time>2019-09-01T07:52:09Z</time>
      </trkpt>
      <trkpt lat="44.70877" lon="5.22933">
        <ele>758</ele>
        <time>2019-09-01T07:52:11Z</time>
      </trkpt>
      <trkpt lat="44.70874" lon="5.22932">
        <ele>757</ele>
        <time>2019-09-01T07:52:12Z</time>
      </trkpt>
      <trkpt lat="44.70868" lon="5.2293">
        <ele>757</ele>
        <time>2019-09-01T07:52:14Z</time>
      </trkpt>
      <trkpt lat="44.70865" lon="5.2293">
        <ele>756</ele>
        <time>2019-09-01T07:52:15Z</time>
      </trkpt>
      <trkpt lat="44.7086" lon="5.2293">
        <ele>756</ele>
        <time>2019-09-01T07:52:17Z</time>
      </trkpt>
      <trkpt lat="44.70858" lon="5.22925">
        <ele>755</ele>
        <time>2019-09-01T07:52:19Z</time>
      </trkpt>
      <trkpt lat="44.70856" lon="5.22921">
        <ele>754</ele>
        <time>2019-09-01T07:52:21Z</time>
      </trkpt>
      <trkpt lat="44.70854" lon="5.22917">
        <ele>753</ele>
        <time>2019-09-01T07:52:23Z</time>
      </trkpt>
      <trkpt lat="44.70854" lon="5.22911">
        <ele>742</ele>
        <time>2019-09-01T07:52:25Z</time>
      </trkpt>
      <trkpt lat="44.70855" lon="5.22908">
        <ele>742</ele>
        <time>2019-09-01T07:52:26Z</time>
      </trkpt>
      <trkpt lat="44.70856" lon="5.229">
        <ele>741</ele>
        <time>2019-09-01T07:52:28Z</time>
      </trkpt>
      <trkpt lat="44.70856" lon="5.22896">
        <ele>740</ele>
        <time>2019-09-01T07:52:29Z</time>
      </trkpt>
      <trkpt lat="44.70856" lon="5.2289">
        <ele>739</ele>
        <time>2019-09-01T07:52:30Z</time>
      </trkpt>
      <trkpt lat="44.70856" lon="5.22884">
        <ele>738</ele>
        <time>2019-09-01T07:52:31Z</time>
      </trkpt>
      <trkpt lat="44.70857" lon="5.22877">
        <ele>737</ele>
        <time>2019-09-01T07:52:32Z</time>
      </trkpt>
      <trkpt lat="44.70857" lon="5.22873">
        <ele>736</ele>
        <time>2019-09-01T07:52:33Z</time>
      </trkpt>
      <trkpt lat="44.70858" lon="5.22869">
        <ele>736</ele>
        <time>2019-09-01T07:52:34Z</time>
      </trkpt>
      <trkpt lat="44.70859" lon="5.22865">
        <ele>735</ele>
        <time>2019-09-01T07:52:35Z</time>
      </trkpt>
      <trkpt lat="44.7086" lon="5.22861">
        <ele>734</ele>
        <time>2019-09-01T07:52:36Z</time>
      </trkpt>
      <trkpt lat="44.70861" lon="5.22858">
        <ele>734</ele>
        <time>2019-09-01T07:52:37Z</time>
      </trkpt>
      <trkpt lat="44.70862" lon="5.22853">
        <ele>733</ele>
        <time>2019-09-01T07:52:38Z</time>
      </trkpt>
      <trkpt lat="44.70862" lon="5.22849">
        <ele>733</ele>
        <time>2019-09-01T07:52:39Z</time>
      </trkpt>
      <trkpt lat="44.70864" lon="5.22844">
        <ele>732</ele>
        <time>2019-09-01T07:52:41Z</time>
      </trkpt>
      <trkpt lat="44.70864" lon="5.22838">
        <ele>732</ele>
        <time>2019-09-01T07:52:44Z</time>
      </trkpt>
      <trkpt lat="44.70862" lon="5.22832">
        <ele>717</ele>
        <time>2019-09-01T07:52:46Z</time>
      </trkpt>
      <trkpt lat="44.70861" lon="5.22828">
        <ele>717</ele>
        <time>2019-09-01T07:52:47Z</time>
      </trkpt>
      <trkpt lat="44.70861" lon="5.22824">
        <ele>717</ele>
        <time>2019-09-01T07:52:48Z</time>
      </trkpt>
      <trkpt lat="44.7086" lon="5.22819">
        <ele>716</ele>
        <time>2019-09-01T07:52:50Z</time>
      </trkpt>
      <trkpt lat="44.70857" lon="5.22818">
        <ele>716</ele>
        <time>2019-09-01T07:52:53Z</time>
      </trkpt>
      <trkpt lat="44.70854" lon="5.22817">
        <ele>716</ele>
        <time>2019-09-01T07:52:57Z</time>
      </trkpt>
      <trkpt lat="44.70851" lon="5.22817">
        <ele>715</ele>
        <time>2019-09-01T07:52:59Z</time>
      </trkpt>
      <trkpt lat="44.70848" lon="5.22815">
        <ele>715</ele>
        <time>2019-09-01T07:53:01Z</time>
      </trkpt>
      <trkpt lat="44.70845" lon="5.22813">
        <ele>715</ele>
        <time>2019-09-01T07:53:03Z</time>
      </trkpt>
      <trkpt lat="44.70842" lon="5.22812">
        <ele>715</ele>
        <time>2019-09-01T07:53:06Z</time>
      </trkpt>
      <trkpt lat="44.70843" lon="5.22808">
        <ele>714</ele>
        <time>2019-09-01T07:53:19Z</time>
      </trkpt>
      <trkpt lat="44.70844" lon="5.22803">
        <ele>714</ele>
        <time>2019-09-01T07:53:26Z</time>
      </trkpt>
      <trkpt lat="44.70844" lon="5.22799">
        <ele>713</ele>
        <time>2019-09-01T07:53:37Z</time>
      </trkpt>
      <trkpt lat="44.70844" lon="5.22804">
        <ele>714</ele>
        <time>2019-09-01T07:56:59Z</time>
      </trkpt>
      <trkpt lat="44.70847" lon="5.22805">
        <ele>714</ele>
        <time>2019-09-01T07:57:31Z</time>
      </trkpt>
      <trkpt lat="44.70845" lon="5.22808">
        <ele>714</ele>
        <time>2019-09-01T07:57:36Z</time>
      </trkpt>
      <trkpt lat="44.70845" lon="5.22813">
        <ele>715</ele>
        <time>2019-09-01T07:57:56Z</time>
      </trkpt>
      <trkpt lat="44.70844" lon="5.2282">
        <ele>715</ele>
        <time>2019-09-01T07:57:58Z</time>
      </trkpt>
      <trkpt lat="44.7084" lon="5.22824">
        <ele>716</ele>
        <time>2019-09-01T07:58:00Z</time>
      </trkpt>
      <trkpt lat="44.70837" lon="5.22825">
        <ele>716</ele>
        <time>2019-09-01T07:58:01Z</time>
      </trkpt>
      <trkpt lat="44.70833" lon="5.22828">
        <ele>712</ele>
        <time>2019-09-01T07:58:03Z</time>
      </trkpt>
      <trkpt lat="44.7083" lon="5.22832">
        <ele>713</ele>
        <time>2019-09-01T07:58:05Z</time>
      </trkpt>
      <trkpt lat="44.70826" lon="5.22835">
        <ele>718</ele>
        <time>2019-09-01T07:58:07Z</time>
      </trkpt>
      <trkpt lat="44.70823" lon="5.22836">
        <ele>718</ele>
        <time>2019-09-01T07:58:09Z</time>
      </trkpt>
      <trkpt lat="44.7082" lon="5.22841">
        <ele>719</ele>
        <time>2019-09-01T07:58:12Z</time>
      </trkpt>
      <trkpt lat="44.70817" lon="5.22842">
        <ele>720</ele>
        <time>2019-09-01T07:58:14Z</time>
      </trkpt>
      <trkpt lat="44.70812" lon="5.22842">
        <ele>720</ele>
        <time>2019-09-01T07:58:16Z</time>
      </trkpt>
      <trkpt lat="44.70808" lon="5.22842">
        <ele>720</ele>
        <time>2019-09-01T07:58:18Z</time>
      </trkpt>
      <trkpt lat="44.70804" lon="5.2284">
        <ele>720</ele>
        <time>2019-09-01T07:58:20Z</time>
      </trkpt>
      <trkpt lat="44.708" lon="5.2284">
        <ele>719</ele>
        <time>2019-09-01T07:58:22Z</time>
      </trkpt>
      <trkpt lat="44.70796" lon="5.22841">
        <ele>719</ele>
        <time>2019-09-01T07:58:24Z</time>
      </trkpt>
      <trkpt lat="44.70792" lon="5.22841">
        <ele>719</ele>
        <time>2019-09-01T07:58:26Z</time>
      </trkpt>
      <trkpt lat="44.70788" lon="5.22842">
        <ele>718</ele>
        <time>2019-09-01T07:58:28Z</time>
      </trkpt>
      <trkpt lat="44.70785" lon="5.22844">
        <ele>718</ele>
        <time>2019-09-01T07:58:30Z</time>
      </trkpt>
      <trkpt lat="44.70782" lon="5.22843">
        <ele>717</ele>
        <time>2019-09-01T07:58:33Z</time>
      </trkpt>
      <trkpt lat="44.70778" lon="5.22843">
        <ele>716</ele>
        <time>2019-09-01T07:58:35Z</time>
      </trkpt>
      <trkpt lat="44.70775" lon="5.22842">
        <ele>715</ele>
        <time>2019-09-01T07:58:36Z</time>
      </trkpt>
      <trkpt lat="44.70772" lon="5.22843">
        <ele>715</ele>
        <time>2019-09-01T07:58:38Z</time>
      </trkpt>
      <trkpt lat="44.70768" lon="5.22843">
        <ele>713</ele>
        <time>2019-09-01T07:58:41Z</time>
      </trkpt>
      <trkpt lat="44.70763" lon="5.22843">
        <ele>712</ele>
        <time>2019-09-01T07:58:43Z</time>
      </trkpt>
      <trkpt lat="44.7076" lon="5.22844">
        <ele>711</ele>
        <time>2019-09-01T07:58:45Z</time>
      </trkpt>
      <trkpt lat="44.70756" lon="5.22846">
        <ele>711</ele>
        <time>2019-09-01T07:58:47Z</time>
      </trkpt>
      <trkpt lat="44.70753" lon="5.22849">
        <ele>712</ele>
        <time>2019-09-01T07:58:49Z</time>
      </trkpt>
      <trkpt lat="44.7075" lon="5.22852">
        <ele>713</ele>
        <time>2019-09-01T07:58:51Z</time>
      </trkpt>
      <trkpt lat="44.70747" lon="5.22854">
        <ele>709</ele>
        <time>2019-09-01T07:58:53Z</time>
      </trkpt>
      <trkpt lat="44.70744" lon="5.22856">
        <ele>709</ele>
        <time>2019-09-01T07:58:55Z</time>
      </trkpt>
      <trkpt lat="44.7074" lon="5.22859">
        <ele>710</ele>
        <time>2019-09-01T07:58:57Z</time>
      </trkpt>
      <trkpt lat="44.70737" lon="5.22862">
        <ele>711</ele>
        <time>2019-09-01T07:58:59Z</time>
      </trkpt>
      <trkpt lat="44.70735" lon="5.22865">
        <ele>712</ele>
        <time>2019-09-01T07:59:01Z</time>
      </trkpt>
      <trkpt lat="44.70731" lon="5.22869">
        <ele>713</ele>
        <time>2019-09-01T07:59:03Z</time>
      </trkpt>
      <trkpt lat="44.70727" lon="5.22871">
        <ele>713</ele>
        <time>2019-09-01T07:59:05Z</time>
      </trkpt>
      <trkpt lat="44.70724" lon="5.22872">
        <ele>713</ele>
        <time>2019-09-01T07:59:07Z</time>
      </trkpt>
      <trkpt lat="44.70721" lon="5.22875">
        <ele>714</ele>
        <time>2019-09-01T07:59:09Z</time>
      </trkpt>
      <trkpt lat="44.70718" lon="5.22878">
        <ele>714</ele>
        <time>2019-09-01T07:59:11Z</time>
      </trkpt>
      <trkpt lat="44.70713" lon="5.2288">
        <ele>715</ele>
        <time>2019-09-01T07:59:13Z</time>
      </trkpt>
      <trkpt lat="44.7071" lon="5.22881">
        <ele>715</ele>
        <time>2019-09-01T07:59:15Z</time>
      </trkpt>
      <trkpt lat="44.70705" lon="5.22881">
        <ele>714</ele>
        <time>2019-09-01T07:59:17Z</time>
      </trkpt>
      <trkpt lat="44.707" lon="5.22882">
        <ele>714</ele>
        <time>2019-09-01T07:59:19Z</time>
      </trkpt>
      <trkpt lat="44.70695" lon="5.22883">
        <ele>714</ele>
        <time>2019-09-01T07:59:21Z</time>
      </trkpt>
      <trkpt lat="44.70691" lon="5.22883">
        <ele>714</ele>
        <time>2019-09-01T07:59:23Z</time>
      </trkpt>
      <trkpt lat="44.70687" lon="5.22884">
        <ele>715</ele>
        <time>2019-09-01T07:59:25Z</time>
      </trkpt>
      <trkpt lat="44.70682" lon="5.22885">
        <ele>715</ele>
        <time>2019-09-01T07:59:27Z</time>
      </trkpt>
      <trkpt lat="44.70678" lon="5.22885">
        <ele>715</ele>
        <time>2019-09-01T07:59:29Z</time>
      </trkpt>
      <trkpt lat="44.70675" lon="5.22886">
        <ele>715</ele>
        <time>2019-09-01T07:59:31Z</time>
      </trkpt>
      <trkpt lat="44.70672" lon="5.22887">
        <ele>715</ele>
        <time>2019-09-01T07:59:33Z</time>
      </trkpt>
      <trkpt lat="44.70668" lon="5.22887">
        <ele>715</ele>
        <time>2019-09-01T07:59:35Z</time>
      </trkpt>
      <trkpt lat="44.70665" lon="5.22888">
        <ele>711</ele>
        <time>2019-09-01T07:59:37Z</time>
      </trkpt>
      <trkpt lat="44.70662" lon="5.22889">
        <ele>711</ele>
        <time>2019-09-01T07:59:39Z</time>
      </trkpt>
      <trkpt lat="44.70658" lon="5.22891">
        <ele>712</ele>
        <time>2019-09-01T07:59:41Z</time>
      </trkpt>
      <trkpt lat="44.70655" lon="5.22893">
        <ele>712</ele>
        <time>2019-09-01T07:59:43Z</time>
      </trkpt>
      <trkpt lat="44.70652" lon="5.22895">
        <ele>713</ele>
        <time>2019-09-01T07:59:45Z</time>
      </trkpt>
      <trkpt lat="44.70649" lon="5.22898">
        <ele>713</ele>
        <time>2019-09-01T07:59:47Z</time>
      </trkpt>
      <trkpt lat="44.70647" lon="5.22901">
        <ele>713</ele>
        <time>2019-09-01T07:59:49Z</time>
      </trkpt>
      <trkpt lat="44.70643" lon="5.22902">
        <ele>713</ele>
        <time>2019-09-01T07:59:51Z</time>
      </trkpt>
      <trkpt lat="44.7064" lon="5.22903">
        <ele>712</ele>
        <time>2019-09-01T07:59:53Z</time>
      </trkpt>
      <trkpt lat="44.70636" lon="5.22905">
        <ele>712</ele>
        <time>2019-09-01T07:59:55Z</time>
      </trkpt>
      <trkpt lat="44.70633" lon="5.22908">
        <ele>712</ele>
        <time>2019-09-01T07:59:57Z</time>
      </trkpt>
      <trkpt lat="44.7063" lon="5.2291">
        <ele>712</ele>
        <time>2019-09-01T07:59:59Z</time>
      </trkpt>
      <trkpt lat="44.70626" lon="5.22913">
        <ele>712</ele>
        <time>2019-09-01T08:00:01Z</time>
      </trkpt>
      <trkpt lat="44.70622" lon="5.22915">
        <ele>712</ele>
        <time>2019-09-01T08:00:03Z</time>
      </trkpt>
      <trkpt lat="44.70618" lon="5.22918">
        <ele>729</ele>
        <time>2019-09-01T08:00:05Z</time>
      </trkpt>
      <trkpt lat="44.70614" lon="5.2292">
        <ele>729</ele>
        <time>2019-09-01T08:00:07Z</time>
      </trkpt>
      <trkpt lat="44.70611" lon="5.2292">
        <ele>728</ele>
        <time>2019-09-01T08:00:09Z</time>
      </trkpt>
      <trkpt lat="44.70607" lon="5.22923">
        <ele>728</ele>
        <time>2019-09-01T08:00:11Z</time>
      </trkpt>
      <trkpt lat="44.70603" lon="5.22925">
        <ele>727</ele>
        <time>2019-09-01T08:00:13Z</time>
      </trkpt>
      <trkpt lat="44.70599" lon="5.22926">
        <ele>726</ele>
        <time>2019-09-01T08:00:15Z</time>
      </trkpt>
      <trkpt lat="44.70596" lon="5.22928">
        <ele>726</ele>
        <time>2019-09-01T08:00:17Z</time>
      </trkpt>
      <trkpt lat="44.70593" lon="5.22931">
        <ele>726</ele>
        <time>2019-09-01T08:00:19Z</time>
      </trkpt>
      <trkpt lat="44.70589" lon="5.22933">
        <ele>726</ele>
        <time>2019-09-01T08:00:21Z</time>
      </trkpt>
      <trkpt lat="44.70586" lon="5.22934">
        <ele>726</ele>
        <time>2019-09-01T08:00:23Z</time>
      </trkpt>
      <trkpt lat="44.70583" lon="5.22934">
        <ele>717</ele>
        <time>2019-09-01T08:00:25Z</time>
      </trkpt>
      <trkpt lat="44.70579" lon="5.22936">
        <ele>717</ele>
        <time>2019-09-01T08:00:28Z</time>
      </trkpt>
      <trkpt lat="44.70577" lon="5.22938">
        <ele>717</ele>
        <time>2019-09-01T08:00:30Z</time>
      </trkpt>
      <trkpt lat="44.70574" lon="5.2294">
        <ele>717</ele>
        <time>2019-09-01T08:00:32Z</time>
      </trkpt>
      <trkpt lat="44.70571" lon="5.22941">
        <ele>717</ele>
        <time>2019-09-01T08:00:34Z</time>
      </trkpt>
      <trkpt lat="44.70568" lon="5.22942">
        <ele>717</ele>
        <time>2019-09-01T08:00:36Z</time>
      </trkpt>
      <trkpt lat="44.70564" lon="5.22943">
        <ele>716</ele>
        <time>2019-09-01T08:00:39Z</time>
      </trkpt>
      <trkpt lat="44.7056" lon="5.22946">
        <ele>716</ele>
        <time>2019-09-01T08:00:42Z</time>
      </trkpt>
      <trkpt lat="44.70557" lon="5.22947">
        <ele>716</ele>
        <time>2019-09-01T08:00:44Z</time>
      </trkpt>
      <trkpt lat="44.70555" lon="5.2295">
        <ele>716</ele>
        <time>2019-09-01T08:00:46Z</time>
      </trkpt>
      <trkpt lat="44.70552" lon="5.22954">
        <ele>716</ele>
        <time>2019-09-01T08:00:49Z</time>
      </trkpt>
      <trkpt lat="44.7055" lon="5.22958">
        <ele>716</ele>
        <time>2019-09-01T08:00:51Z</time>
      </trkpt>
      <trkpt lat="44.70548" lon="5.22961">
        <ele>716</ele>
        <time>2019-09-01T08:00:53Z</time>
      </trkpt>
      <trkpt lat="44.70548" lon="5.22966">
        <ele>716</ele>
        <time>2019-09-01T08:00:55Z</time>
      </trkpt>
      <trkpt lat="44.70547" lon="5.2297">
        <ele>716</ele>
        <time>2019-09-01T08:00:57Z</time>
      </trkpt>
      <trkpt lat="44.70546" lon="5.22974">
        <ele>717</ele>
        <time>2019-09-01T08:00:59Z</time>
      </trkpt>
      <trkpt lat="44.70546" lon="5.2298">
        <ele>717</ele>
        <time>2019-09-01T08:01:01Z</time>
      </trkpt>
      <trkpt lat="44.70547" lon="5.22984">
        <ele>718</ele>
        <time>2019-09-01T08:01:03Z</time>
      </trkpt>
      <trkpt lat="44.70548" lon="5.22988">
        <ele>718</ele>
        <time>2019-09-01T08:01:05Z</time>
      </trkpt>
      <trkpt lat="44.70549" lon="5.22993">
        <ele>719</ele>
        <time>2019-09-01T08:01:07Z</time>
      </trkpt>
      <trkpt lat="44.7055" lon="5.22997">
        <ele>720</ele>
        <time>2019-09-01T08:01:10Z</time>
      </trkpt>
      <trkpt lat="44.70551" lon="5.23001">
        <ele>728</ele>
        <time>2019-09-01T08:01:12Z</time>
      </trkpt>
      <trkpt lat="44.70552" lon="5.23007">
        <ele>728</ele>
        <time>2019-09-01T08:01:14Z</time>
      </trkpt>
      <trkpt lat="44.70553" lon="5.23011">
        <ele>729</ele>
        <time>2019-09-01T08:01:16Z</time>
      </trkpt>
      <trkpt lat="44.70553" lon="5.23018">
        <ele>729</ele>
        <time>2019-09-01T08:01:19Z</time>
      </trkpt>
      <trkpt lat="44.70554" lon="5.23024">
        <ele>729</ele>
        <time>2019-09-01T08:01:21Z</time>
      </trkpt>
      <trkpt lat="44.70555" lon="5.2303">
        <ele>729</ele>
        <time>2019-09-01T08:01:23Z</time>
      </trkpt>
      <trkpt lat="44.70556" lon="5.23036">
        <ele>729</ele>
        <time>2019-09-01T08:01:25Z</time>
      </trkpt>
      <trkpt lat="44.70557" lon="5.2304">
        <ele>730</ele>
        <time>2019-09-01T08:01:26Z</time>
      </trkpt>
      <trkpt lat="44.70557" lon="5.23045">
        <ele>730</ele>
        <time>2019-09-01T08:01:28Z</time>
      </trkpt>
      <trkpt lat="44.70557" lon="5.23051">
        <ele>731</ele>
        <time>2019-09-01T08:01:30Z</time>
      </trkpt>
      <trkpt lat="44.70557" lon="5.23056">
        <ele>731</ele>
        <time>2019-09-01T08:01:32Z</time>
      </trkpt>
      <trkpt lat="44.70556" lon="5.23063">
        <ele>732</ele>
        <time>2019-09-01T08:01:34Z</time>
      </trkpt>
      <trkpt lat="44.70556" lon="5.23068">
        <ele>732</ele>
        <time>2019-09-01T08:01:36Z</time>
      </trkpt>
      <trkpt lat="44.70555" lon="5.23074">
        <ele>733</ele>
        <time>2019-09-01T08:01:38Z</time>
      </trkpt>
      <trkpt lat="44.70555" lon="5.23079">
        <ele>733</ele>
        <time>2019-09-01T08:01:40Z</time>
      </trkpt>
      <trkpt lat="44.70554" lon="5.23084">
        <ele>738</ele>
        <time>2019-09-01T08:01:42Z</time>
      </trkpt>
      <trkpt lat="44.70553" lon="5.2309">
        <ele>737</ele>
        <time>2019-09-01T08:01:44Z</time>
      </trkpt>
      <trkpt lat="44.70552" lon="5.23096">
        <ele>737</ele>
        <time>2019-09-01T08:01:46Z</time>
      </trkpt>
      <trkpt lat="44.7055" lon="5.23101">
        <ele>736</ele>
        <time>2019-09-01T08:01:48Z</time>
      </trkpt>
      <trkpt lat="44.70549" lon="5.23107">
        <ele>736</ele>
        <time>2019-09-01T08:01:50Z</time>
      </trkpt>
      <trkpt lat="44.70548" lon="5.23112">
        <ele>736</ele>
        <time>2019-09-01T08:01:52Z</time>
      </trkpt>
      <trkpt lat="44.70547" lon="5.23116">
        <ele>736</ele>
        <time>2019-09-01T08:01:54Z</time>
      </trkpt>
      <trkpt lat="44.70546" lon="5.23122">
        <ele>736</ele>
        <time>2019-09-01T08:01:56Z</time>
      </trkpt>
      <trkpt lat="44.70544" lon="5.23127">
        <ele>736</ele>
        <time>2019-09-01T08:01:58Z</time>
      </trkpt>
      <trkpt lat="44.70543" lon="5.23131">
        <ele>736</ele>
        <time>2019-09-01T08:02:00Z</time>
      </trkpt>
      <trkpt lat="44.70543" lon="5.23135">
        <ele>736</ele>
        <time>2019-09-01T08:02:02Z</time>
      </trkpt>
      <trkpt lat="44.70543" lon="5.2314">
        <ele>736</ele>
        <time>2019-09-01T08:02:04Z</time>
      </trkpt>
      <trkpt lat="44.70542" lon="5.23145">
        <ele>736</ele>
        <time>2019-09-01T08:02:06Z</time>
      </trkpt>
      <trkpt lat="44.70541" lon="5.2315">
        <ele>736</ele>
        <time>2019-09-01T08:02:08Z</time>
      </trkpt>
      <trkpt lat="44.70542" lon="5.23156">
        <ele>736</ele>
        <time>2019-09-01T08:02:10Z</time>
      </trkpt>
      <trkpt lat="44.70541" lon="5.23162">
        <ele>736</ele>
        <time>2019-09-01T08:02:12Z</time>
      </trkpt>
      <trkpt lat="44.70541" lon="5.23167">
        <ele>729</ele>
        <time>2019-09-01T08:02:14Z</time>
      </trkpt>
      <trkpt lat="44.70541" lon="5.23172">
        <ele>728</ele>
        <time>2019-09-01T08:02:16Z</time>
      </trkpt>
      <trkpt lat="44.70541" lon="5.23177">
        <ele>728</ele>
        <time>2019-09-01T08:02:18Z</time>
      </trkpt>
      <trkpt lat="44.70541" lon="5.23182">
        <ele>727</ele>
        <time>2019-09-01T08:02:20Z</time>
      </trkpt>
      <trkpt lat="44.70541" lon="5.23186">
        <ele>727</ele>
        <time>2019-09-01T08:02:23Z</time>
      </trkpt>
      <trkpt lat="44.70541" lon="5.2319">
        <ele>726</ele>
        <time>2019-09-01T08:02:26Z</time>
      </trkpt>
      <trkpt lat="44.70544" lon="5.23191">
        <ele>726</ele>
        <time>2019-09-01T08:03:05Z</time>
      </trkpt>
      <trkpt lat="44.70546" lon="5.23196">
        <ele>725</ele>
        <time>2019-09-01T08:03:17Z</time>
      </trkpt>
      <trkpt lat="44.70547" lon="5.23199">
        <ele>725</ele>
        <time>2019-09-01T08:03:25Z</time>
      </trkpt>
      <trkpt lat="44.7055" lon="5.23201">
        <ele>725</ele>
        <time>2019-09-01T08:03:40Z</time>
      </trkpt>
      <trkpt lat="44.70547" lon="5.23201">
        <ele>725</ele>
        <time>2019-09-01T08:03:59Z</time>
      </trkpt>
      <trkpt lat="44.70548" lon="5.23198">
        <ele>725</ele>
        <time>2019-09-01T08:04:22Z</time>
      </trkpt>
      <trkpt lat="44.70551" lon="5.23197">
        <ele>726</ele>
        <time>2019-09-01T08:05:09Z</time>
      </trkpt>
      <trkpt lat="44.70553" lon="5.23194">
        <ele>727</ele>
        <time>2019-09-01T08:05:16Z</time>
      </trkpt>
      <trkpt lat="44.70557" lon="5.23191">
        <ele>728</ele>
        <time>2019-09-01T08:05:20Z</time>
      </trkpt>
      <trkpt lat="44.70561" lon="5.23188">
        <ele>729</ele>
        <time>2019-09-01T08:05:23Z</time>
      </trkpt>
      <trkpt lat="44.70564" lon="5.23187">
        <ele>730</ele>
        <time>2019-09-01T08:05:25Z</time>
      </trkpt>
      <trkpt lat="44.70567" lon="5.23184">
        <ele>732</ele>
        <time>2019-09-01T08:05:27Z</time>
      </trkpt>
      <trkpt lat="44.70571" lon="5.23183">
        <ele>733</ele>
        <time>2019-09-01T08:05:29Z</time>
      </trkpt>
      <trkpt lat="44.70574" lon="5.23181">
        <ele>735</ele>
        <time>2019-09-01T08:05:31Z</time>
      </trkpt>
      <trkpt lat="44.70577" lon="5.2318">
        <ele>737</ele>
        <time>2019-09-01T08:05:33Z</time>
      </trkpt>
      <trkpt lat="44.7058" lon="5.23178">
        <ele>738</ele>
        <time>2019-09-01T08:05:35Z</time>
      </trkpt>
      <trkpt lat="44.70583" lon="5.23176">
        <ele>740</ele>
        <time>2019-09-01T08:05:37Z</time>
      </trkpt>
      <trkpt lat="44.70586" lon="5.23175">
        <ele>744</ele>
        <time>2019-09-01T08:05:39Z</time>
      </trkpt>
      <trkpt lat="44.7059" lon="5.23175">
        <ele>744</ele>
        <time>2019-09-01T08:05:41Z</time>
      </trkpt>
      <trkpt lat="44.70594" lon="5.23175">
        <ele>743</ele>
        <time>2019-09-01T08:05:43Z</time>
      </trkpt>
      <trkpt lat="44.70599" lon="5.23176">
        <ele>742</ele>
        <time>2019-09-01T08:05:45Z</time>
      </trkpt>
      <trkpt lat="44.70602" lon="5.23177">
        <ele>742</ele>
        <time>2019-09-01T08:05:47Z</time>
      </trkpt>
      <trkpt lat="44.70607" lon="5.23178">
        <ele>741</ele>
        <time>2019-09-01T08:05:49Z</time>
      </trkpt>
      <trkpt lat="44.7061" lon="5.2318">
        <ele>741</ele>
        <time>2019-09-01T08:05:51Z</time>
      </trkpt>
      <trkpt lat="44.70615" lon="5.23181">
        <ele>741</ele>
        <time>2019-09-01T08:05:53Z</time>
      </trkpt>
      <trkpt lat="44.70619" lon="5.23183">
        <ele>741</ele>
        <time>2019-09-01T08:05:55Z</time>
      </trkpt>
      <trkpt lat="44.70623" lon="5.23185">
        <ele>741</ele>
        <time>2019-09-01T08:05:57Z</time>
      </trkpt>
      <trkpt lat="44.70626" lon="5.23186">
        <ele>741</ele>
        <time>2019-09-01T08:05:59Z</time>
      </trkpt>
      <trkpt lat="44.7063" lon="5.23187">
        <ele>741</ele>
        <time>2019-09-01T08:06:01Z</time>
      </trkpt>
      <trkpt lat="44.70634" lon="5.23187">
        <ele>742</ele>
        <time>2019-09-01T08:06:03Z</time>
      </trkpt>
      <trkpt lat="44.70638" lon="5.23187">
        <ele>742</ele>
        <time>2019-09-01T08:06:05Z</time>
      </trkpt>
      <trkpt lat="44.70642" lon="5.23186">
        <ele>743</ele>
        <time>2019-09-01T08:06:07Z</time>
      </trkpt>
      <trkpt lat="44.70646" lon="5.23186">
        <ele>744</ele>
        <time>2019-09-01T08:06:09Z</time>
      </trkpt>
      <trkpt lat="44.70651" lon="5.23185">
        <ele>745</ele>
        <time>2019-09-01T08:06:11Z</time>
      </trkpt>
      <trkpt lat="44.70656" lon="5.23184">
        <ele>747</ele>
        <time>2019-09-01T08:06:13Z</time>
      </trkpt>
      <trkpt lat="44.7066" lon="5.23183">
        <ele>748</ele>
        <time>2019-09-01T08:06:15Z</time>
      </trkpt>
      <trkpt lat="44.70665" lon="5.23181">
        <ele>750</ele>
        <time>2019-09-01T08:06:17Z</time>
      </trkpt>
      <trkpt lat="44.7067" lon="5.23181">
        <ele>755</ele>
        <time>2019-09-01T08:06:19Z</time>
      </trkpt>
      <trkpt lat="44.70675" lon="5.23182">
        <ele>755</ele>
        <time>2019-09-01T08:06:21Z</time>
      </trkpt>
      <trkpt lat="44.7068" lon="5.23181">
        <ele>754</ele>
        <time>2019-09-01T08:06:23Z</time>
      </trkpt>
      <trkpt lat="44.70685" lon="5.23182">
        <ele>754</ele>
        <time>2019-09-01T08:06:25Z</time>
      </trkpt>
      <trkpt lat="44.70688" lon="5.23183">
        <ele>754</ele>
        <time>2019-09-01T08:06:27Z</time>
      </trkpt>
      <trkpt lat="44.70693" lon="5.23185">
        <ele>753</ele>
        <time>2019-09-01T08:06:29Z</time>
      </trkpt>
      <trkpt lat="44.70697" lon="5.23186">
        <ele>753</ele>
        <time>2019-09-01T08:06:31Z</time>
      </trkpt>
      <trkpt lat="44.707" lon="5.23191">
        <ele>752</ele>
        <time>2019-09-01T08:06:33Z</time>
      </trkpt>
      <trkpt lat="44.70704" lon="5.23195">
        <ele>752</ele>
        <time>2019-09-01T08:06:35Z</time>
      </trkpt>
      <trkpt lat="44.70707" lon="5.23198">
        <ele>752</ele>
        <time>2019-09-01T08:06:37Z</time>
      </trkpt>
      <trkpt lat="44.70711" lon="5.23201">
        <ele>752</ele>
        <time>2019-09-01T08:06:39Z</time>
      </trkpt>
      <trkpt lat="44.70715" lon="5.23203">
        <ele>751</ele>
        <time>2019-09-01T08:06:41Z</time>
      </trkpt>
      <trkpt lat="44.70718" lon="5.23206">
        <ele>751</ele>
        <time>2019-09-01T08:06:43Z</time>
      </trkpt>
      <trkpt lat="44.70721" lon="5.23207">
        <ele>751</ele>
        <time>2019-09-01T08:06:45Z</time>
      </trkpt>
      <trkpt lat="44.70725" lon="5.23207">
        <ele>751</ele>
        <time>2019-09-01T08:06:47Z</time>
      </trkpt>
      <trkpt lat="44.70728" lon="5.23209">
        <ele>751</ele>
        <time>2019-09-01T08:06:49Z</time>
      </trkpt>
      <trkpt lat="44.70732" lon="5.23211">
        <ele>751</ele>
        <time>2019-09-01T08:06:51Z</time>
      </trkpt>
      <trkpt lat="44.70736" lon="5.23212">
        <ele>751</ele>
        <time>2019-09-01T08:06:53Z</time>
      </trkpt>
      <trkpt lat="44.7074" lon="5.23214">
        <ele>751</ele>
        <time>2019-09-01T08:06:55Z</time>
      </trkpt>
      <trkpt lat="44.70744" lon="5.23215">
        <ele>751</ele>
        <time>2019-09-01T08:06:57Z</time>
      </trkpt>
      <trkpt lat="44.70747" lon="5.23216">
        <ele>751</ele>
        <time>2019-09-01T08:06:59Z</time>
      </trkpt>
      <trkpt lat="44.70751" lon="5.23217">
        <ele>760</ele>
        <time>2019-09-01T08:07:01Z</time>
      </trkpt>
      <trkpt lat="44.70755" lon="5.23218">
        <ele>760</ele>
        <time>2019-09-01T08:07:03Z</time>
      </trkpt>
      <trkpt lat="44.7076" lon="5.2322">
        <ele>760</ele>
        <time>2019-09-01T08:07:05Z</time>
      </trkpt>
      <trkpt lat="44.70764" lon="5.23221">
        <ele>760</ele>
        <time>2019-09-01T08:07:07Z</time>
      </trkpt>
      <trkpt lat="44.70768" lon="5.23222">
        <ele>760</ele>
        <time>2019-09-01T08:07:09Z</time>
      </trkpt>
      <trkpt lat="44.70771" lon="5.23224">
        <ele>760</ele>
        <time>2019-09-01T08:07:11Z</time>
      </trkpt>
      <trkpt lat="44.70774" lon="5.23226">
        <ele>760</ele>
        <time>2019-09-01T08:07:13Z</time>
      </trkpt>
      <trkpt lat="44.70777" lon="5.23226">
        <ele>761</ele>
        <time>2019-09-01T08:07:15Z</time>
      </trkpt>
      <trkpt lat="44.70781" lon="5.23226">
        <ele>761</ele>
        <time>2019-09-01T08:07:17Z</time>
      </trkpt>
      <trkpt lat="44.70785" lon="5.23228">
        <ele>762</ele>
        <time>2019-09-01T08:07:19Z</time>
      </trkpt>
      <trkpt lat="44.70788" lon="5.2323">
        <ele>762</ele>
        <time>2019-09-01T08:07:21Z</time>
      </trkpt>
      <trkpt lat="44.70791" lon="5.23233">
        <ele>762</ele>
        <time>2019-09-01T08:07:23Z</time>
      </trkpt>
      <trkpt lat="44.70794" lon="5.23235">
        <ele>762</ele>
        <time>2019-09-01T08:07:25Z</time>
      </trkpt>
      <trkpt lat="44.70799" lon="5.23236">
        <ele>762</ele>
        <time>2019-09-01T08:07:27Z</time>
      </trkpt>
      <trkpt lat="44.70803" lon="5.23237">
        <ele>763</ele>
        <time>2019-09-01T08:07:29Z</time>
      </trkpt>
      <trkpt lat="44.70807" lon="5.23239">
        <ele>763</ele>
        <time>2019-09-01T08:07:31Z</time>
      </trkpt>
      <trkpt lat="44.70811" lon="5.23241">
        <ele>763</ele>
        <time>2019-09-01T08:07:33Z</time>
      </trkpt>
      <trkpt lat="44.70816" lon="5.23244">
        <ele>763</ele>
        <time>2019-09-01T08:07:35Z</time>
      </trkpt>
      <trkpt lat="44.70818" lon="5.23245">
        <ele>763</ele>
        <time>2019-09-01T08:07:36Z</time>
      </trkpt>
      <trkpt lat="44.70823" lon="5.23247">
        <ele>762</ele>
        <time>2019-09-01T08:07:38Z</time>
      </trkpt>
      <trkpt lat="44.70828" lon="5.23249">
        <ele>762</ele>
        <time>2019-09-01T08:07:40Z</time>
      </trkpt>
      <trkpt lat="44.70831" lon="5.23251">
        <ele>758</ele>
        <time>2019-09-01T08:07:42Z</time>
      </trkpt>
      <trkpt lat="44.70835" lon="5.23253">
        <ele>760</ele>
        <time>2019-09-01T08:07:44Z</time>
      </trkpt>
      <trkpt lat="44.70838" lon="5.23256">
        <ele>758</ele>
        <time>2019-09-01T08:07:46Z</time>
      </trkpt>
      <trkpt lat="44.70842" lon="5.23259">
        <ele>757</ele>
        <time>2019-09-01T08:07:48Z</time>
      </trkpt>
      <trkpt lat="44.70845" lon="5.23263">
        <ele>756</ele>
        <time>2019-09-01T08:07:50Z</time>
      </trkpt>
      <trkpt lat="44.70849" lon="5.23266">
        <ele>755</ele>
        <time>2019-09-01T08:07:52Z</time>
      </trkpt>
      <trkpt lat="44.70853" lon="5.23268">
        <ele>754</ele>
        <time>2019-09-01T08:07:54Z</time>
      </trkpt>
      <trkpt lat="44.70856" lon="5.2327">
        <ele>754</ele>
        <time>2019-09-01T08:07:56Z</time>
      </trkpt>
      <trkpt lat="44.70858" lon="5.23272">
        <ele>754</ele>
        <time>2019-09-01T08:07:58Z</time>
      </trkpt>
      <trkpt lat="44.70862" lon="5.23272">
        <ele>754</ele>
        <time>2019-09-01T08:08:01Z</time>
      </trkpt>
      <trkpt lat="44.70866" lon="5.23275">
        <ele>754</ele>
        <time>2019-09-01T08:08:03Z</time>
      </trkpt>
      <trkpt lat="44.70869" lon="5.23279">
        <ele>753</ele>
        <time>2019-09-01T08:08:05Z</time>
      </trkpt>
      <trkpt lat="44.70873" lon="5.2328">
        <ele>753</ele>
        <time>2019-09-01T08:08:07Z</time>
      </trkpt>
      <trkpt lat="44.70876" lon="5.23282">
        <ele>754</ele>
        <time>2019-09-01T08:08:09Z</time>
      </trkpt>
      <trkpt lat="44.70879" lon="5.23284">
        <ele>754</ele>
        <time>2019-09-01T08:08:10Z</time>
      </trkpt>
      <trkpt lat="44.70883" lon="5.23286">
        <ele>754</ele>
        <time>2019-09-01T08:08:12Z</time>
      </trkpt>
      <trkpt lat="44.70887" lon="5.23288">
        <ele>754</ele>
        <time>2019-09-01T08:08:14Z</time>
      </trkpt>
      <trkpt lat="44.7089" lon="5.2329">
        <ele>754</ele>
        <time>2019-09-01T08:08:17Z</time>
      </trkpt>
      <trkpt lat="44.70892" lon="5.23294">
        <ele>753</ele>
        <time>2019-09-01T08:08:21Z</time>
      </trkpt>
      <trkpt lat="44.70894" lon="5.23296">
        <ele>752</ele>
        <time>2019-09-01T08:08:25Z</time>
      </trkpt>
      <trkpt lat="44.70897" lon="5.23297">
        <ele>752</ele>
        <time>2019-09-01T08:08:36Z</time>
      </trkpt>
      <trkpt lat="44.70899" lon="5.23301">
        <ele>751</ele>
        <time>2019-09-01T08:09:04Z</time>
      </trkpt>
      <trkpt lat="44.70895" lon="5.233">
        <ele>751</ele>
        <time>2019-09-01T08:10:22Z</time>
      </trkpt>
      <trkpt lat="44.70891" lon="5.23298">
        <ele>751</ele>
        <time>2019-09-01T08:10:28Z</time>
      </trkpt>
      <trkpt lat="44.70887" lon="5.23296">
        <ele>751</ele>
        <time>2019-09-01T08:10:30Z</time>
      </trkpt>
      <trkpt lat="44.70883" lon="5.23294">
        <ele>751</ele>
        <time>2019-09-01T08:10:32Z</time>
      </trkpt>
      <trkpt lat="44.70879" lon="5.23291">
        <ele>751</ele>
        <time>2019-09-01T08:10:34Z</time>
      </trkpt>
      <trkpt lat="44.70874" lon="5.23289">
        <ele>752</ele>
        <time>2019-09-01T08:10:36Z</time>
      </trkpt>
      <trkpt lat="44.70871" lon="5.23286">
        <ele>752</ele>
        <time>2019-09-01T08:10:38Z</time>
      </trkpt>
      <trkpt lat="44.70868" lon="5.23282">
        <ele>752</ele>
        <time>2019-09-01T08:10:40Z</time>
      </trkpt>
      <trkpt lat="44.70866" lon="5.23279">
        <ele>753</ele>
        <time>2019-09-01T08:10:41Z</time>
      </trkpt>
      <trkpt lat="44.70862" lon="5.23274">
        <ele>754</ele>
        <time>2019-09-01T08:10:43Z</time>
      </trkpt>
      <trkpt lat="44.7086" lon="5.2327">
        <ele>754</ele>
        <time>2019-09-01T08:10:45Z</time>
      </trkpt>
      <trkpt lat="44.70857" lon="5.23268">
        <ele>755</ele>
        <time>2019-09-01T08:10:47Z</time>
      </trkpt>
      <trkpt lat="44.70854" lon="5.23264">
        <ele>755</ele>
        <time>2019-09-01T08:10:49Z</time>
      </trkpt>
      <trkpt lat="44.70851" lon="5.23261">
        <ele>756</ele>
        <time>2019-09-01T08:10:51Z</time>
      </trkpt>
      <trkpt lat="44.70848" lon="5.23258">
        <ele>757</ele>
        <time>2019-09-01T08:10:53Z</time>
      </trkpt>
      <trkpt lat="44.70845" lon="5.23256">
        <ele>757</ele>
        <time>2019-09-01T08:10:55Z</time>
      </trkpt>
      <trkpt lat="44.70842" lon="5.23253">
        <ele>758</ele>
        <time>2019-09-01T08:10:57Z</time>
      </trkpt>
      <trkpt lat="44.70839" lon="5.23249">
        <ele>766</ele>
        <time>2019-09-01T08:10:59Z</time>
      </trkpt>
      <trkpt lat="44.70836" lon="5.23245">
        <ele>766</ele>
        <time>2019-09-01T08:11:01Z</time>
      </trkpt>
      <trkpt lat="44.70834" lon="5.23243">
        <ele>767</ele>
        <time>2019-09-01T08:11:03Z</time>
      </trkpt>
      <trkpt lat="44.70831" lon="5.2324">
        <ele>763</ele>
        <time>2019-09-01T08:11:05Z</time>
      </trkpt>
      <trkpt lat="44.70829" lon="5.23236">
        <ele>763</ele>
        <time>2019-09-01T08:11:07Z</time>
      </trkpt>
      <trkpt lat="44.70826" lon="5.23234">
        <ele>764</ele>
        <time>2019-09-01T08:11:09Z</time>
      </trkpt>
      <trkpt lat="44.70824" lon="5.23231">
        <ele>764</ele>
        <time>2019-09-01T08:11:11Z</time>
      </trkpt>
      <trkpt lat="44.70821" lon="5.23229">
        <ele>764</ele>
        <time>2019-09-01T08:11:13Z</time>
      </trkpt>
      <trkpt lat="44.70818" lon="5.23227">
        <ele>765</ele>
        <time>2019-09-01T08:11:15Z</time>
      </trkpt>
      <trkpt lat="44.70815" lon="5.23226">
        <ele>765</ele>
        <time>2019-09-01T08:11:17Z</time>
      </trkpt>
      <trkpt lat="44.70812" lon="5.23223">
        <ele>765</ele>
        <time>2019-09-01T08:11:19Z</time>
      </trkpt>
      <trkpt lat="44.7081" lon="5.23221">
        <ele>765</ele>
        <time>2019-09-01T08:11:21Z</time>
      </trkpt>
      <trkpt lat="44.70807" lon="5.23217">
        <ele>766</ele>
        <time>2019-09-01T08:11:23Z</time>
      </trkpt>
      <trkpt lat="44.70805" lon="5.23215">
        <ele>766</ele>
        <time>2019-09-01T08:11:25Z</time>
      </trkpt>
      <trkpt lat="44.70802" lon="5.23211">
        <ele>766</ele>
        <time>2019-09-01T08:11:27Z</time>
      </trkpt>
      <trkpt lat="44.708" lon="5.23206">
        <ele>767</ele>
        <time>2019-09-01T08:11:29Z</time>
      </trkpt>
      <trkpt lat="44.70798" lon="5.23203">
        <ele>767</ele>
        <time>2019-09-01T08:11:31Z</time>
      </trkpt>
      <trkpt lat="44.70795" lon="5.23199">
        <ele>767</ele>
        <time>2019-09-01T08:11:33Z</time>
      </trkpt>
      <trkpt lat="44.70792" lon="5.23197">
        <ele>767</ele>
        <time>2019-09-01T08:11:35Z</time>
      </trkpt>
      <trkpt lat="44.70789" lon="5.23196">
        <ele>767</ele>
        <time>2019-09-01T08:11:37Z</time>
      </trkpt>
      <trkpt lat="44.70786" lon="5.23195">
        <ele>767</ele>
        <time>2019-09-01T08:11:39Z</time>
      </trkpt>
      <trkpt lat="44.70783" lon="5.23193">
        <ele>767</ele>
        <time>2019-09-01T08:11:41Z</time>
      </trkpt>
      <trkpt lat="44.70781" lon="5.23189">
        <ele>767</ele>
        <time>2019-09-01T08:11:43Z</time>
      </trkpt>
      <trkpt lat="44.70779" lon="5.23184">
        <ele>767</ele>
        <time>2019-09-01T08:11:45Z</time>
      </trkpt>
      <trkpt lat="44.70776" lon="5.2318">
        <ele>768</ele>
        <time>2019-09-01T08:11:47Z</time>
      </trkpt>
      <trkpt lat="44.70774" lon="5.23177">
        <ele>768</ele>
        <time>2019-09-01T08:11:49Z</time>
      </trkpt>
      <trkpt lat="44.70771" lon="5.23175">
        <ele>768</ele>
        <time>2019-09-01T08:11:51Z</time>
      </trkpt>
      <trkpt lat="44.70768" lon="5.23173">
        <ele>768</ele>
        <time>2019-09-01T08:11:53Z</time>
      </trkpt>
      <trkpt lat="44.70765" lon="5.23171">
        <ele>768</ele>
        <time>2019-09-01T08:11:55Z</time>
      </trkpt>
      <trkpt lat="44.70763" lon="5.23168">
        <ele>768</ele>
        <time>2019-09-01T08:11:57Z</time>
      </trkpt>
      <trkpt lat="44.7076" lon="5.23165">
        <ele>772</ele>
        <time>2019-09-01T08:11:59Z</time>
      </trkpt>
      <trkpt lat="44.70758" lon="5.23163">
        <ele>772</ele>
        <time>2019-09-01T08:12:01Z</time>
      </trkpt>
      <trkpt lat="44.70755" lon="5.2316">
        <ele>772</ele>
        <time>2019-09-01T08:12:03Z</time>
      </trkpt>
      <trkpt lat="44.70753" lon="5.23157">
        <ele>772</ele>
        <time>2019-09-01T08:12:05Z</time>
      </trkpt>
      <trkpt lat="44.70749" lon="5.23153">
        <ele>769</ele>
        <time>2019-09-01T08:12:07Z</time>
      </trkpt>
      <trkpt lat="44.70747" lon="5.2315">
        <ele>769</ele>
        <time>2019-09-01T08:12:09Z</time>
      </trkpt>
      <trkpt lat="44.70745" lon="5.23147">
        <ele>769</ele>
        <time>2019-09-01T08:12:11Z</time>
      </trkpt>
      <trkpt lat="44.70742" lon="5.23143">
        <ele>769</ele>
        <time>2019-09-01T08:12:13Z</time>
      </trkpt>
      <trkpt lat="44.70741" lon="5.23138">
        <ele>769</ele>
        <time>2019-09-01T08:12:15Z</time>
      </trkpt>
      <trkpt lat="44.70741" lon="5.23132">
        <ele>769</ele>
        <time>2019-09-01T08:12:17Z</time>
      </trkpt>
      <trkpt lat="44.70742" lon="5.23128">
        <ele>769</ele>
        <time>2019-09-01T08:12:18Z</time>
      </trkpt>
      <trkpt lat="44.70744" lon="5.23125">
        <ele>769</ele>
        <time>2019-09-01T08:12:19Z</time>
      </trkpt>
      <trkpt lat="44.70749" lon="5.23122">
        <ele>770</ele>
        <time>2019-09-01T08:12:21Z</time>
      </trkpt>
      <trkpt lat="44.70753" lon="5.2312">
        <ele>776</ele>
        <time>2019-09-01T08:12:23Z</time>
      </trkpt>
      <trkpt lat="44.70755" lon="5.23118">
        <ele>777</ele>
        <time>2019-09-01T08:12:25Z</time>
      </trkpt>
      <trkpt lat="44.70758" lon="5.23116">
        <ele>777</ele>
        <time>2019-09-01T08:12:27Z</time>
      </trkpt>
      <trkpt lat="44.70762" lon="5.23115">
        <ele>777</ele>
        <time>2019-09-01T08:12:29Z</time>
      </trkpt>
      <trkpt lat="44.70765" lon="5.23115">
        <ele>777</ele>
        <time>2019-09-01T08:12:32Z</time>
      </trkpt>
      <trkpt lat="44.70768" lon="5.23114">
        <ele>777</ele>
        <time>2019-09-01T08:12:34Z</time>
      </trkpt>
      <trkpt lat="44.70771" lon="5.23114">
        <ele>777</ele>
        <time>2019-09-01T08:12:36Z</time>
      </trkpt>
      <trkpt lat="44.70774" lon="5.23114">
        <ele>778</ele>
        <time>2019-09-01T08:12:38Z</time>
      </trkpt>
      <trkpt lat="44.70778" lon="5.23115">
        <ele>778</ele>
        <time>2019-09-01T08:12:41Z</time>
      </trkpt>
      <trkpt lat="44.70782" lon="5.23117">
        <ele>778</ele>
        <time>2019-09-01T08:12:44Z</time>
      </trkpt>
      <trkpt lat="44.70786" lon="5.23116">
        <ele>778</ele>
        <time>2019-09-01T08:12:47Z</time>
      </trkpt>
      <trkpt lat="44.70789" lon="5.23117">
        <ele>779</ele>
        <time>2019-09-01T08:12:49Z</time>
      </trkpt>
      <trkpt lat="44.70793" lon="5.23118">
        <ele>779</ele>
        <time>2019-09-01T08:12:52Z</time>
      </trkpt>
      <trkpt lat="44.70796" lon="5.23117">
        <ele>779</ele>
        <time>2019-09-01T08:12:54Z</time>
      </trkpt>
      <trkpt lat="44.708" lon="5.23119">
        <ele>779</ele>
        <time>2019-09-01T08:12:56Z</time>
      </trkpt>
      <trkpt lat="44.70803" lon="5.2312">
        <ele>780</ele>
        <time>2019-09-01T08:12:58Z</time>
      </trkpt>
      <trkpt lat="44.70806" lon="5.23123">
        <ele>780</ele>
        <time>2019-09-01T08:13:01Z</time>
      </trkpt>
      <trkpt lat="44.70809" lon="5.23124">
        <ele>780</ele>
        <time>2019-09-01T08:13:03Z</time>
      </trkpt>
      <trkpt lat="44.70812" lon="5.23126">
        <ele>780</ele>
        <time>2019-09-01T08:13:05Z</time>
      </trkpt>
      <trkpt lat="44.70815" lon="5.23127">
        <ele>781</ele>
        <time>2019-09-01T08:13:07Z</time>
      </trkpt>
      <trkpt lat="44.70818" lon="5.23129">
        <ele>781</ele>
        <time>2019-09-01T08:13:09Z</time>
      </trkpt>
      <trkpt lat="44.70821" lon="5.2313">
        <ele>781</ele>
        <time>2019-09-01T08:13:12Z</time>
      </trkpt>
      <trkpt lat="44.70825" lon="5.23132">
        <ele>781</ele>
        <time>2019-09-01T08:13:14Z</time>
      </trkpt>
      <trkpt lat="44.70828" lon="5.23133">
        <ele>782</ele>
        <time>2019-09-01T08:13:16Z</time>
      </trkpt>
      <trkpt lat="44.70831" lon="5.23133">
        <ele>782</ele>
        <time>2019-09-01T08:13:18Z</time>
      </trkpt>
      <trkpt lat="44.70834" lon="5.23134">
        <ele>790</ele>
        <time>2019-09-01T08:13:20Z</time>
      </trkpt>
      <trkpt lat="44.70837" lon="5.23135">
        <ele>790</ele>
        <time>2019-09-01T08:13:22Z</time>
      </trkpt>
      <trkpt lat="44.7084" lon="5.23135">
        <ele>790</ele>
        <time>2019-09-01T08:13:24Z</time>
      </trkpt>
      <trkpt lat="44.70843" lon="5.23137">
        <ele>790</ele>
        <time>2019-09-01T08:13:26Z</time>
      </trkpt>
      <trkpt lat="44.70847" lon="5.23137">
        <ele>790</ele>
        <time>2019-09-01T08:13:29Z</time>
      </trkpt>
      <trkpt lat="44.70851" lon="5.23139">
        <ele>791</ele>
        <time>2019-09-01T08:13:32Z</time>
      </trkpt>
      <trkpt lat="44.70854" lon="5.23142">
        <ele>791</ele>
        <time>2019-09-01T08:13:34Z</time>
      </trkpt>
      <trkpt lat="44.70858" lon="5.23142">
        <ele>791</ele>
        <time>2019-09-01T08:13:38Z</time>
      </trkpt>
      <trkpt lat="44.70861" lon="5.23142">
        <ele>791</ele>
        <time>2019-09-01T08:13:40Z</time>
      </trkpt>
      <trkpt lat="44.70864" lon="5.23142">
        <ele>792</ele>
        <time>2019-09-01T08:13:42Z</time>
      </trkpt>
      <trkpt lat="44.70868" lon="5.23143">
        <ele>792</ele>
        <time>2019-09-01T08:13:44Z</time>
      </trkpt>
      <trkpt lat="44.70871" lon="5.23143">
        <ele>792</ele>
        <time>2019-09-01T08:13:46Z</time>
      </trkpt>
      <trkpt lat="44.70874" lon="5.23143">
        <ele>793</ele>
        <time>2019-09-01T08:13:48Z</time>
      </trkpt>
      <trkpt lat="44.70877" lon="5.23144">
        <ele>793</ele>
        <time>2019-09-01T08:13:50Z</time>
      </trkpt>
      <trkpt lat="44.7088" lon="5.23142">
        <ele>793</ele>
        <time>2019-09-01T08:13:53Z</time>
      </trkpt>
      <trkpt lat="44.70883" lon="5.23141">
        <ele>794</ele>
        <time>2019-09-01T08:13:55Z</time>
      </trkpt>
      <trkpt lat="44.70886" lon="5.2314">
        <ele>794</ele>
        <time>2019-09-01T08:13:57Z</time>
      </trkpt>
      <trkpt lat="44.7089" lon="5.2314">
        <ele>794</ele>
        <time>2019-09-01T08:13:59Z</time>
      </trkpt>
      <trkpt lat="44.70892" lon="5.23139">
        <ele>794</ele>
        <time>2019-09-01T08:14:01Z</time>
      </trkpt>
      <trkpt lat="44.70895" lon="5.2314">
        <ele>795</ele>
        <time>2019-09-01T08:14:03Z</time>
      </trkpt>
      <trkpt lat="44.70898" lon="5.23141">
        <ele>795</ele>
        <time>2019-09-01T08:14:05Z</time>
      </trkpt>
      <trkpt lat="44.70901" lon="5.23139">
        <ele>795</ele>
        <time>2019-09-01T08:14:08Z</time>
      </trkpt>
      <trkpt lat="44.70904" lon="5.23138">
        <ele>795</ele>
        <time>2019-09-01T08:14:10Z</time>
      </trkpt>
      <trkpt lat="44.70908" lon="5.23137">
        <ele>795</ele>
        <time>2019-09-01T08:14:12Z</time>
      </trkpt>
      <trkpt lat="44.70911" lon="5.23135">
        <ele>795</ele>
        <time>2019-09-01T08:14:14Z</time>
      </trkpt>
      <trkpt lat="44.70916" lon="5.23133">
        <ele>795</ele>
        <time>2019-09-01T08:14:16Z</time>
      </trkpt>
      <trkpt lat="44.7092" lon="5.23131">
        <ele>803</ele>
        <time>2019-09-01T08:14:18Z</time>
      </trkpt>
      <trkpt lat="44.70925" lon="5.23129">
        <ele>803</ele>
        <time>2019-09-01T08:14:20Z</time>
      </trkpt>
      <trkpt lat="44.7093" lon="5.23127">
        <ele>803</ele>
        <time>2019-09-01T08:14:22Z</time>
      </trkpt>
      <trkpt lat="44.70934" lon="5.23127">
        <ele>803</ele>
        <time>2019-09-01T08:14:24Z</time>
      </trkpt>
      <trkpt lat="44.70937" lon="5.23126">
        <ele>803</ele>
        <time>2019-09-01T08:14:26Z</time>
      </trkpt>
      <trkpt lat="44.7094" lon="5.23125">
        <ele>803</ele>
        <time>2019-09-01T08:14:28Z</time>
      </trkpt>
      <trkpt lat="44.70944" lon="5.23123">
        <ele>803</ele>
        <time>2019-09-01T08:14:30Z</time>
      </trkpt>
      <trkpt lat="44.70947" lon="5.23123">
        <ele>804</ele>
        <time>2019-09-01T08:14:33Z</time>
      </trkpt>
      <trkpt lat="44.70951" lon="5.23123">
        <ele>804</ele>
        <time>2019-09-01T08:14:36Z</time>
      </trkpt>
      <trkpt lat="44.70954" lon="5.23123">
        <ele>804</ele>
        <time>2019-09-01T08:14:40Z</time>
      </trkpt>
      <trkpt lat="44.70957" lon="5.23123">
        <ele>804</ele>
        <time>2019-09-01T08:14:43Z</time>
      </trkpt>
      <trkpt lat="44.70961" lon="5.2312">
        <ele>804</ele>
        <time>2019-09-01T08:14:46Z</time>
      </trkpt>
      <trkpt lat="44.70965" lon="5.23117">
        <ele>804</ele>
        <time>2019-09-01T08:14:48Z</time>
      </trkpt>
      <trkpt lat="44.70969" lon="5.23116">
        <ele>804</ele>
        <time>2019-09-01T08:14:50Z</time>
      </trkpt>
      <trkpt lat="44.70974" lon="5.23114">
        <ele>804</ele>
        <time>2019-09-01T08:14:52Z</time>
      </trkpt>
      <trkpt lat="44.70978" lon="5.23111">
        <ele>804</ele>
        <time>2019-09-01T08:14:54Z</time>
      </trkpt>
      <trkpt lat="44.70981" lon="5.23109">
        <ele>804</ele>
        <time>2019-09-01T08:14:56Z</time>
      </trkpt>
      <trkpt lat="44.70985" lon="5.23106">
        <ele>804</ele>
        <time>2019-09-01T08:14:58Z</time>
      </trkpt>
      <trkpt lat="44.70988" lon="5.23104">
        <ele>804</ele>
        <time>2019-09-01T08:15:00Z</time>
      </trkpt>
      <trkpt lat="44.70992" lon="5.23103">
        <ele>804</ele>
        <time>2019-09-01T08:15:02Z</time>
      </trkpt>
      <trkpt lat="44.70995" lon="5.23102">
        <ele>804</ele>
        <time>2019-09-01T08:15:04Z</time>
      </trkpt>
      <trkpt lat="44.70997" lon="5.231">
        <ele>804</ele>
        <time>2019-09-01T08:15:06Z</time>
      </trkpt>
      <trkpt lat="44.70999" lon="5.23098">
        <ele>804</ele>
        <time>2019-09-01T08:15:08Z</time>
      </trkpt>
      <trkpt lat="44.71002" lon="5.23094">
        <ele>807</ele>
        <time>2019-09-01T08:15:10Z</time>
      </trkpt>
      <trkpt lat="44.71006" lon="5.23092">
        <ele>807</ele>
        <time>2019-09-01T08:15:12Z</time>
      </trkpt>
      <trkpt lat="44.71011" lon="5.23091">
        <ele>807</ele>
        <time>2019-09-01T08:15:14Z</time>
      </trkpt>
      <trkpt lat="44.71015" lon="5.23089">
        <ele>808</ele>
        <time>2019-09-01T08:15:16Z</time>
      </trkpt>
      <trkpt lat="44.71019" lon="5.23087">
        <ele>809</ele>
        <time>2019-09-01T08:15:18Z</time>
      </trkpt>
      <trkpt lat="44.71022" lon="5.23085">
        <ele>809</ele>
        <time>2019-09-01T08:15:20Z</time>
      </trkpt>
      <trkpt lat="44.71026" lon="5.23086">
        <ele>810</ele>
        <time>2019-09-01T08:15:22Z</time>
      </trkpt>
      <trkpt lat="44.71029" lon="5.23085">
        <ele>811</ele>
        <time>2019-09-01T08:15:24Z</time>
      </trkpt>
      <trkpt lat="44.71033" lon="5.23084">
        <ele>811</ele>
        <time>2019-09-01T08:15:26Z</time>
      </trkpt>
      <trkpt lat="44.71037" lon="5.23082">
        <ele>800</ele>
        <time>2019-09-01T08:15:28Z</time>
      </trkpt>
      <trkpt lat="44.71041" lon="5.2308">
        <ele>800</ele>
        <time>2019-09-01T08:15:30Z</time>
      </trkpt>
      <trkpt lat="44.71045" lon="5.23079">
        <ele>801</ele>
        <time>2019-09-01T08:15:32Z</time>
      </trkpt>
      <trkpt lat="44.7105" lon="5.23079">
        <ele>801</ele>
        <time>2019-09-01T08:15:34Z</time>
      </trkpt>
      <trkpt lat="44.71054" lon="5.23077">
        <ele>802</ele>
        <time>2019-09-01T08:15:36Z</time>
      </trkpt>
      <trkpt lat="44.71059" lon="5.23075">
        <ele>802</ele>
        <time>2019-09-01T08:15:38Z</time>
      </trkpt>
      <trkpt lat="44.71062" lon="5.23075">
        <ele>803</ele>
        <time>2019-09-01T08:15:40Z</time>
      </trkpt>
      <trkpt lat="44.71067" lon="5.23074">
        <ele>804</ele>
        <time>2019-09-01T08:15:42Z</time>
      </trkpt>
      <trkpt lat="44.71071" lon="5.23073">
        <ele>805</ele>
        <time>2019-09-01T08:15:44Z</time>
      </trkpt>
      <trkpt lat="44.71077" lon="5.23073">
        <ele>806</ele>
        <time>2019-09-01T08:15:46Z</time>
      </trkpt>
      <trkpt lat="44.7108" lon="5.23074">
        <ele>807</ele>
        <time>2019-09-01T08:15:47Z</time>
      </trkpt>
      <trkpt lat="44.71084" lon="5.23075">
        <ele>808</ele>
        <time>2019-09-01T08:15:49Z</time>
      </trkpt>
      <trkpt lat="44.71088" lon="5.23077">
        <ele>808</ele>
        <time>2019-09-01T08:15:51Z</time>
      </trkpt>
      <trkpt lat="44.71092" lon="5.23078">
        <ele>808</ele>
        <time>2019-09-01T08:15:53Z</time>
      </trkpt>
      <trkpt lat="44.71096" lon="5.23078">
        <ele>807</ele>
        <time>2019-09-01T08:15:55Z</time>
      </trkpt>
      <trkpt lat="44.711" lon="5.23078">
        <ele>806</ele>
        <time>2019-09-01T08:15:57Z</time>
      </trkpt>
      <trkpt lat="44.71104" lon="5.23079">
        <ele>805</ele>
        <time>2019-09-01T08:15:59Z</time>
      </trkpt>
      <trkpt lat="44.71109" lon="5.23079">
        <ele>805</ele>
        <time>2019-09-01T08:16:01Z</time>
      </trkpt>
      <trkpt lat="44.71114" lon="5.2308">
        <ele>804</ele>
        <time>2019-09-01T08:16:03Z</time>
      </trkpt>
      <trkpt lat="44.71118" lon="5.23081">
        <ele>804</ele>
        <time>2019-09-01T08:16:05Z</time>
      </trkpt>
      <trkpt lat="44.71122" lon="5.23082">
        <ele>804</ele>
        <time>2019-09-01T08:16:07Z</time>
      </trkpt>
      <trkpt lat="44.71128" lon="5.23082">
        <ele>804</ele>
        <time>2019-09-01T08:16:09Z</time>
      </trkpt>
      <trkpt lat="44.71133" lon="5.23083">
        <ele>804</ele>
        <time>2019-09-01T08:16:11Z</time>
      </trkpt>
      <trkpt lat="44.71137" lon="5.23084">
        <ele>817</ele>
        <time>2019-09-01T08:16:12Z</time>
      </trkpt>
      <trkpt lat="44.7114" lon="5.23084">
        <ele>817</ele>
        <time>2019-09-01T08:16:13Z</time>
      </trkpt>
      <trkpt lat="44.71143" lon="5.23085">
        <ele>816</ele>
        <time>2019-09-01T08:16:14Z</time>
      </trkpt>
      <trkpt lat="44.71148" lon="5.23084">
        <ele>816</ele>
        <time>2019-09-01T08:16:16Z</time>
      </trkpt>
      <trkpt lat="44.71151" lon="5.23084">
        <ele>815</ele>
        <time>2019-09-01T08:16:17Z</time>
      </trkpt>
      <trkpt lat="44.71155" lon="5.23085">
        <ele>815</ele>
        <time>2019-09-01T08:16:18Z</time>
      </trkpt>
      <trkpt lat="44.71158" lon="5.23085">
        <ele>814</ele>
        <time>2019-09-01T08:16:19Z</time>
      </trkpt>
      <trkpt lat="44.71161" lon="5.23085">
        <ele>813</ele>
        <time>2019-09-01T08:16:20Z</time>
      </trkpt>
      <trkpt lat="44.71165" lon="5.23085">
        <ele>812</ele>
        <time>2019-09-01T08:16:21Z</time>
      </trkpt>
      <trkpt lat="44.71168" lon="5.23085">
        <ele>812</ele>
        <time>2019-09-01T08:16:22Z</time>
      </trkpt>
      <trkpt lat="44.71172" lon="5.23086">
        <ele>813</ele>
        <time>2019-09-01T08:16:23Z</time>
      </trkpt>
      <trkpt lat="44.71175" lon="5.23086">
        <ele>814</ele>
        <time>2019-09-01T08:16:24Z</time>
      </trkpt>
      <trkpt lat="44.71178" lon="5.23087">
        <ele>815</ele>
        <time>2019-09-01T08:16:25Z</time>
      </trkpt>
      <trkpt lat="44.71181" lon="5.23088">
        <ele>816</ele>
        <time>2019-09-01T08:16:26Z</time>
      </trkpt>
      <trkpt lat="44.71184" lon="5.23089">
        <ele>817</ele>
        <time>2019-09-01T08:16:27Z</time>
      </trkpt>
      <trkpt lat="44.71188" lon="5.2309">
        <ele>817</ele>
        <time>2019-09-01T08:16:28Z</time>
      </trkpt>
      <trkpt lat="44.71191" lon="5.23089">
        <ele>818</ele>
        <time>2019-09-01T08:16:29Z</time>
      </trkpt>
      <trkpt lat="44.71194" lon="5.23089">
        <ele>818</ele>
        <time>2019-09-01T08:16:30Z</time>
      </trkpt>
      <trkpt lat="44.71197" lon="5.2309">
        <ele>818</ele>
        <time>2019-09-01T08:16:31Z</time>
      </trkpt>
      <trkpt lat="44.712" lon="5.2309">
        <ele>818</ele>
        <time>2019-09-01T08:16:32Z</time>
      </trkpt>
      <trkpt lat="44.71203" lon="5.23091">
        <ele>819</ele>
        <time>2019-09-01T08:16:33Z</time>
      </trkpt>
      <trkpt lat="44.71206" lon="5.23092">
        <ele>819</ele>
        <time>2019-09-01T08:16:34Z</time>
      </trkpt>
      <trkpt lat="44.71209" lon="5.23092">
        <ele>819</ele>
        <time>2019-09-01T08:16:35Z</time>
      </trkpt>
      <trkpt lat="44.71213" lon="5.23093">
        <ele>819</ele>
        <time>2019-09-01T08:16:36Z</time>
      </trkpt>
      <trkpt lat="44.71215" lon="5.23093">
        <ele>819</ele>
        <time>2019-09-01T08:16:37Z</time>
      </trkpt>
      <trkpt lat="44.7122" lon="5.23093">
        <ele>819</ele>
        <time>2019-09-01T08:16:39Z</time>
      </trkpt>
      <trkpt lat="44.71223" lon="5.23094">
        <ele>819</ele>
        <time>2019-09-01T08:16:40Z</time>
      </trkpt>
      <trkpt lat="44.71226" lon="5.23094">
        <ele>818</ele>
        <time>2019-09-01T08:16:41Z</time>
      </trkpt>
      <trkpt lat="44.7123" lon="5.23095">
        <ele>818</ele>
        <time>2019-09-01T08:16:43Z</time>
      </trkpt>
      <trkpt lat="44.71235" lon="5.23095">
        <ele>818</ele>
        <time>2019-09-01T08:16:45Z</time>
      </trkpt>
      <trkpt lat="44.71239" lon="5.23095">
        <ele>817</ele>
        <time>2019-09-01T08:16:47Z</time>
      </trkpt>
      <trkpt lat="44.71243" lon="5.23094">
        <ele>816</ele>
        <time>2019-09-01T08:16:49Z</time>
      </trkpt>
      <trkpt lat="44.71248" lon="5.23094">
        <ele>816</ele>
        <time>2019-09-01T08:16:51Z</time>
      </trkpt>
      <trkpt lat="44.71252" lon="5.23094">
        <ele>817</ele>
        <time>2019-09-01T08:16:53Z</time>
      </trkpt>
      <trkpt lat="44.71256" lon="5.23092">
        <ele>817</ele>
        <time>2019-09-01T08:16:55Z</time>
      </trkpt>
      <trkpt lat="44.71259" lon="5.23092">
        <ele>818</ele>
        <time>2019-09-01T08:16:56Z</time>
      </trkpt>
      <trkpt lat="44.71263" lon="5.23092">
        <ele>819</ele>
        <time>2019-09-01T08:16:57Z</time>
      </trkpt>
      <trkpt lat="44.71266" lon="5.23092">
        <ele>819</ele>
        <time>2019-09-01T08:16:58Z</time>
      </trkpt>
      <trkpt lat="44.71269" lon="5.23091">
        <ele>820</ele>
        <time>2019-09-01T08:16:59Z</time>
      </trkpt>
      <trkpt lat="44.71272" lon="5.23091">
        <ele>821</ele>
        <time>2019-09-01T08:17:00Z</time>
      </trkpt>
      <trkpt lat="44.71275" lon="5.23092">
        <ele>821</ele>
        <time>2019-09-01T08:17:01Z</time>
      </trkpt>
      <trkpt lat="44.71277" lon="5.23091">
        <ele>821</ele>
        <time>2019-09-01T08:17:02Z</time>
      </trkpt>
      <trkpt lat="44.7128" lon="5.23091">
        <ele>822</ele>
        <time>2019-09-01T08:17:03Z</time>
      </trkpt>
      <trkpt lat="44.71283" lon="5.2309">
        <ele>822</ele>
        <time>2019-09-01T08:17:04Z</time>
      </trkpt>
      <trkpt lat="44.71286" lon="5.23089">
        <ele>822</ele>
        <time>2019-09-01T08:17:05Z</time>
      </trkpt>
      <trkpt lat="44.71289" lon="5.23088">
        <ele>823</ele>
        <time>2019-09-01T08:17:06Z</time>
      </trkpt>
      <trkpt lat="44.71294" lon="5.23087">
        <ele>823</ele>
        <time>2019-09-01T08:17:08Z</time>
      </trkpt>
      <trkpt lat="44.71299" lon="5.23086">
        <ele>823</ele>
        <time>2019-09-01T08:17:10Z</time>
      </trkpt>
      <trkpt lat="44.71304" lon="5.23085">
        <ele>823</ele>
        <time>2019-09-01T08:17:12Z</time>
      </trkpt>
      <trkpt lat="44.71309" lon="5.23084">
        <ele>823</ele>
        <time>2019-09-01T08:17:14Z</time>
      </trkpt>
      <trkpt lat="44.71314" lon="5.23083">
        <ele>811</ele>
        <time>2019-09-01T08:17:16Z</time>
      </trkpt>
      <trkpt lat="44.71319" lon="5.23082">
        <ele>812</ele>
        <time>2019-09-01T08:17:18Z</time>
      </trkpt>
      <trkpt lat="44.71322" lon="5.23082">
        <ele>813</ele>
        <time>2019-09-01T08:17:19Z</time>
      </trkpt>
      <trkpt lat="44.71328" lon="5.23082">
        <ele>816</ele>
        <time>2019-09-01T08:17:21Z</time>
      </trkpt>
      <trkpt lat="44.7133" lon="5.23082">
        <ele>817</ele>
        <time>2019-09-01T08:17:22Z</time>
      </trkpt>
      <trkpt lat="44.71333" lon="5.23082">
        <ele>818</ele>
        <time>2019-09-01T08:17:23Z</time>
      </trkpt>
      <trkpt lat="44.71338" lon="5.23081">
        <ele>819</ele>
        <time>2019-09-01T08:17:25Z</time>
      </trkpt>
      <trkpt lat="44.71343" lon="5.2308">
        <ele>818</ele>
        <time>2019-09-01T08:17:27Z</time>
      </trkpt>
      <trkpt lat="44.71347" lon="5.23079">
        <ele>818</ele>
        <time>2019-09-01T08:17:29Z</time>
      </trkpt>
      <trkpt lat="44.71352" lon="5.23076">
        <ele>818</ele>
        <time>2019-09-01T08:17:31Z</time>
      </trkpt>
      <trkpt lat="44.71357" lon="5.23074">
        <ele>818</ele>
        <time>2019-09-01T08:17:33Z</time>
      </trkpt>
      <trkpt lat="44.71361" lon="5.23072">
        <ele>819</ele>
        <time>2019-09-01T08:17:35Z</time>
      </trkpt>
      <trkpt lat="44.71366" lon="5.23071">
        <ele>819</ele>
        <time>2019-09-01T08:17:37Z</time>
      </trkpt>
      <trkpt lat="44.71371" lon="5.23069">
        <ele>819</ele>
        <time>2019-09-01T08:17:39Z</time>
      </trkpt>
      <trkpt lat="44.71375" lon="5.23068">
        <ele>820</ele>
        <time>2019-09-01T08:17:41Z</time>
      </trkpt>
      <trkpt lat="44.71379" lon="5.23066">
        <ele>820</ele>
        <time>2019-09-01T08:17:43Z</time>
      </trkpt>
      <trkpt lat="44.71383" lon="5.23064">
        <ele>820</ele>
        <time>2019-09-01T08:17:45Z</time>
      </trkpt>
      <trkpt lat="44.71388" lon="5.23064">
        <ele>821</ele>
        <time>2019-09-01T08:17:47Z</time>
      </trkpt>
      <trkpt lat="44.71392" lon="5.23064">
        <ele>822</ele>
        <time>2019-09-01T08:17:49Z</time>
      </trkpt>
      <trkpt lat="44.71395" lon="5.23063">
        <ele>822</ele>
        <time>2019-09-01T08:17:51Z</time>
      </trkpt>
      <trkpt lat="44.71399" lon="5.23064">
        <ele>823</ele>
        <time>2019-09-01T08:17:53Z</time>
      </trkpt>
      <trkpt lat="44.71403" lon="5.23063">
        <ele>823</ele>
        <time>2019-09-01T08:17:55Z</time>
      </trkpt>
      <trkpt lat="44.71406" lon="5.23062">
        <ele>824</ele>
        <time>2019-09-01T08:17:57Z</time>
      </trkpt>
      <trkpt lat="44.7141" lon="5.23062">
        <ele>824</ele>
        <time>2019-09-01T08:17:59Z</time>
      </trkpt>
      <trkpt lat="44.71413" lon="5.23062">
        <ele>825</ele>
        <time>2019-09-01T08:18:01Z</time>
      </trkpt>
      <trkpt lat="44.71417" lon="5.23062">
        <ele>825</ele>
        <time>2019-09-01T08:18:03Z</time>
      </trkpt>
      <trkpt lat="44.71419" lon="5.23062">
        <ele>833</ele>
        <time>2019-09-01T08:18:05Z</time>
      </trkpt>
      <trkpt lat="44.71422" lon="5.23061">
        <ele>833</ele>
        <time>2019-09-01T08:18:07Z</time>
      </trkpt>
      <trkpt lat="44.71426" lon="5.23061">
        <ele>833</ele>
        <time>2019-09-01T08:18:09Z</time>
      </trkpt>
      <trkpt lat="44.71429" lon="5.23061">
        <ele>833</ele>
        <time>2019-09-01T08:18:12Z</time>
      </trkpt>
      <trkpt lat="44.71432" lon="5.23059">
        <ele>833</ele>
        <time>2019-09-01T08:18:15Z</time>
      </trkpt>
      <trkpt lat="44.71436" lon="5.2306">
        <ele>833</ele>
        <time>2019-09-01T08:18:17Z</time>
      </trkpt>
      <trkpt lat="44.71438" lon="5.23062">
        <ele>833</ele>
        <time>2019-09-01T08:18:19Z</time>
      </trkpt>
      <trkpt lat="44.71441" lon="5.23067">
        <ele>834</ele>
        <time>2019-09-01T08:18:21Z</time>
      </trkpt>
      <trkpt lat="44.71443" lon="5.2307">
        <ele>834</ele>
        <time>2019-09-01T08:18:22Z</time>
      </trkpt>
      <trkpt lat="44.71445" lon="5.23075">
        <ele>834</ele>
        <time>2019-09-01T08:18:24Z</time>
      </trkpt>
      <trkpt lat="44.71444" lon="5.2308">
        <ele>834</ele>
        <time>2019-09-01T08:18:26Z</time>
      </trkpt>
      <trkpt lat="44.71444" lon="5.23085">
        <ele>843</ele>
        <time>2019-09-01T08:18:28Z</time>
      </trkpt>
      <trkpt lat="44.71444" lon="5.23089">
        <ele>843</ele>
        <time>2019-09-01T08:18:30Z</time>
      </trkpt>
      <trkpt lat="44.71443" lon="5.23094">
        <ele>843</ele>
        <time>2019-09-01T08:18:33Z</time>
      </trkpt>
      <trkpt lat="44.71442" lon="5.23099">
        <ele>843</ele>
        <time>2019-09-01T08:18:36Z</time>
      </trkpt>
      <trkpt lat="44.71441" lon="5.23103">
        <ele>844</ele>
        <time>2019-09-01T08:18:38Z</time>
      </trkpt>
      <trkpt lat="44.71441" lon="5.23107">
        <ele>844</ele>
        <time>2019-09-01T08:18:40Z</time>
      </trkpt>
      <trkpt lat="44.71439" lon="5.23111">
        <ele>845</ele>
        <time>2019-09-01T08:18:42Z</time>
      </trkpt>
      <trkpt lat="44.71438" lon="5.23114">
        <ele>845</ele>
        <time>2019-09-01T08:18:44Z</time>
      </trkpt>
      <trkpt lat="44.71435" lon="5.23115">
        <ele>845</ele>
        <time>2019-09-01T08:18:49Z</time>
      </trkpt>
      <trkpt lat="44.71435" lon="5.2312">
        <ele>845</ele>
        <time>2019-09-01T08:18:55Z</time>
      </trkpt>
      <trkpt lat="44.71437" lon="5.23123">
        <ele>846</ele>
        <time>2019-09-01T08:18:58Z</time>
      </trkpt>
      <trkpt lat="44.71439" lon="5.23125">
        <ele>846</ele>
        <time>2019-09-01T08:19:02Z</time>
      </trkpt>
      <trkpt lat="44.71442" lon="5.23126">
        <ele>847</ele>
        <time>2019-09-01T08:19:05Z</time>
      </trkpt>
      <trkpt lat="44.71445" lon="5.23126">
        <ele>847</ele>
        <time>2019-09-01T08:19:07Z</time>
      </trkpt>
      <trkpt lat="44.71448" lon="5.23126">
        <ele>847</ele>
        <time>2019-09-01T08:19:09Z</time>
      </trkpt>
      <trkpt lat="44.71452" lon="5.23126">
        <ele>847</ele>
        <time>2019-09-01T08:19:11Z</time>
      </trkpt>
      <trkpt lat="44.71455" lon="5.23126">
        <ele>847</ele>
        <time>2019-09-01T08:19:13Z</time>
      </trkpt>
      <trkpt lat="44.71458" lon="5.23126">
        <ele>848</ele>
        <time>2019-09-01T08:19:15Z</time>
      </trkpt>
      <trkpt lat="44.71461" lon="5.23126">
        <ele>848</ele>
        <time>2019-09-01T08:19:18Z</time>
      </trkpt>
      <trkpt lat="44.71464" lon="5.23126">
        <ele>848</ele>
        <time>2019-09-01T08:19:20Z</time>
      </trkpt>
      <trkpt lat="44.71467" lon="5.23126">
        <ele>848</ele>
        <time>2019-09-01T08:19:23Z</time>
      </trkpt>
      <trkpt lat="44.71472" lon="5.23126">
        <ele>848</ele>
        <time>2019-09-01T08:19:26Z</time>
      </trkpt>
      <trkpt lat="44.71475" lon="5.23127">
        <ele>849</ele>
        <time>2019-09-01T08:19:28Z</time>
      </trkpt>
      <trkpt lat="44.71479" lon="5.23127">
        <ele>849</ele>
        <time>2019-09-01T08:19:31Z</time>
      </trkpt>
      <trkpt lat="44.71482" lon="5.23126">
        <ele>849</ele>
        <time>2019-09-01T08:19:34Z</time>
      </trkpt>
      <trkpt lat="44.71485" lon="5.23125">
        <ele>849</ele>
        <time>2019-09-01T08:19:36Z</time>
      </trkpt>
      <trkpt lat="44.71489" lon="5.23125">
        <ele>849</ele>
        <time>2019-09-01T08:19:39Z</time>
      </trkpt>
      <trkpt lat="44.71492" lon="5.23123">
        <ele>849</ele>
        <time>2019-09-01T08:19:42Z</time>
      </trkpt>
      <trkpt lat="44.71495" lon="5.23122">
        <ele>849</ele>
        <time>2019-09-01T08:19:45Z</time>
      </trkpt>
      <trkpt lat="44.71498" lon="5.23121">
        <ele>849</ele>
        <time>2019-09-01T08:19:48Z</time>
      </trkpt>
      <trkpt lat="44.71502" lon="5.2312">
        <ele>856</ele>
        <time>2019-09-01T08:19:51Z</time>
      </trkpt>
      <trkpt lat="44.71505" lon="5.2312">
        <ele>856</ele>
        <time>2019-09-01T08:19:53Z</time>
      </trkpt>
      <trkpt lat="44.71508" lon="5.23118">
        <ele>856</ele>
        <time>2019-09-01T08:19:55Z</time>
      </trkpt>
      <trkpt lat="44.7151" lon="5.23117">
        <ele>856</ele>
        <time>2019-09-01T08:19:57Z</time>
      </trkpt>
      <trkpt lat="44.71514" lon="5.23117">
        <ele>856</ele>
        <time>2019-09-01T08:20:00Z</time>
      </trkpt>
      <trkpt lat="44.71518" lon="5.23116">
        <ele>856</ele>
        <time>2019-09-01T08:20:02Z</time>
      </trkpt>
      <trkpt lat="44.71522" lon="5.23114">
        <ele>856</ele>
        <time>2019-09-01T08:20:04Z</time>
      </trkpt>
      <trkpt lat="44.71525" lon="5.23114">
        <ele>856</ele>
        <time>2019-09-01T08:20:06Z</time>
      </trkpt>
      <trkpt lat="44.71528" lon="5.23111">
        <ele>856</ele>
        <time>2019-09-01T08:20:08Z</time>
      </trkpt>
      <trkpt lat="44.71532" lon="5.23109">
        <ele>856</ele>
        <time>2019-09-01T08:20:10Z</time>
      </trkpt>
      <trkpt lat="44.71535" lon="5.23108">
        <ele>857</ele>
        <time>2019-09-01T08:20:13Z</time>
      </trkpt>
      <trkpt lat="44.71538" lon="5.23105">
        <ele>857</ele>
        <time>2019-09-01T08:20:15Z</time>
      </trkpt>
      <trkpt lat="44.71541" lon="5.23103">
        <ele>857</ele>
        <time>2019-09-01T08:20:17Z</time>
      </trkpt>
      <trkpt lat="44.71544" lon="5.231">
        <ele>857</ele>
        <time>2019-09-01T08:20:19Z</time>
      </trkpt>
      <trkpt lat="44.71547" lon="5.23098">
        <ele>857</ele>
        <time>2019-09-01T08:20:21Z</time>
      </trkpt>
      <trkpt lat="44.71552" lon="5.23096">
        <ele>857</ele>
        <time>2019-09-01T08:20:23Z</time>
      </trkpt>
      <trkpt lat="44.71555" lon="5.23095">
        <ele>857</ele>
        <time>2019-09-01T08:20:25Z</time>
      </trkpt>
      <trkpt lat="44.71559" lon="5.23092">
        <ele>858</ele>
        <time>2019-09-01T08:20:27Z</time>
      </trkpt>
      <trkpt lat="44.71563" lon="5.2309">
        <ele>858</ele>
        <time>2019-09-01T08:20:29Z</time>
      </trkpt>
      <trkpt lat="44.71566" lon="5.23088">
        <ele>858</ele>
        <time>2019-09-01T08:20:31Z</time>
      </trkpt>
      <trkpt lat="44.7157" lon="5.23086">
        <ele>858</ele>
        <time>2019-09-01T08:20:33Z</time>
      </trkpt>
      <trkpt lat="44.71575" lon="5.23084">
        <ele>858</ele>
        <time>2019-09-01T08:20:35Z</time>
      </trkpt>
      <trkpt lat="44.71578" lon="5.23083">
        <ele>855</ele>
        <time>2019-09-01T08:20:36Z</time>
      </trkpt>
      <trkpt lat="44.7158" lon="5.23082">
        <ele>856</ele>
        <time>2019-09-01T08:20:37Z</time>
      </trkpt>
      <trkpt lat="44.71583" lon="5.2308">
        <ele>856</ele>
        <time>2019-09-01T08:20:38Z</time>
      </trkpt>
      <trkpt lat="44.71586" lon="5.23079">
        <ele>857</ele>
        <time>2019-09-01T08:20:39Z</time>
      </trkpt>
      <trkpt lat="44.71589" lon="5.23079">
        <ele>856</ele>
        <time>2019-09-01T08:20:40Z</time>
      </trkpt>
      <trkpt lat="44.71592" lon="5.23078">
        <ele>856</ele>
        <time>2019-09-01T08:20:41Z</time>
      </trkpt>
      <trkpt lat="44.71595" lon="5.23077">
        <ele>855</ele>
        <time>2019-09-01T08:20:42Z</time>
      </trkpt>
      <trkpt lat="44.71599" lon="5.23076">
        <ele>855</ele>
        <time>2019-09-01T08:20:43Z</time>
      </trkpt>
      <trkpt lat="44.71604" lon="5.23076">
        <ele>854</ele>
        <time>2019-09-01T08:20:44Z</time>
      </trkpt>
      <trkpt lat="44.71609" lon="5.23077">
        <ele>854</ele>
        <time>2019-09-01T08:20:45Z</time>
      </trkpt>
      <trkpt lat="44.71612" lon="5.23077">
        <ele>854</ele>
        <time>2019-09-01T08:20:46Z</time>
      </trkpt>
      <trkpt lat="44.71616" lon="5.23077">
        <ele>854</ele>
        <time>2019-09-01T08:20:47Z</time>
      </trkpt>
      <trkpt lat="44.71619" lon="5.23078">
        <ele>854</ele>
        <time>2019-09-01T08:20:48Z</time>
      </trkpt>
      <trkpt lat="44.71624" lon="5.23079">
        <ele>854</ele>
        <time>2019-09-01T08:20:50Z</time>
      </trkpt>
      <trkpt lat="44.71628" lon="5.2308">
        <ele>854</ele>
        <time>2019-09-01T08:20:51Z</time>
      </trkpt>
      <trkpt lat="44.71631" lon="5.23081">
        <ele>854</ele>
        <time>2019-09-01T08:20:52Z</time>
      </trkpt>
      <trkpt lat="44.71634" lon="5.23081">
        <ele>854</ele>
        <time>2019-09-01T08:20:53Z</time>
      </trkpt>
      <trkpt lat="44.71638" lon="5.23081">
        <ele>855</ele>
        <time>2019-09-01T08:20:55Z</time>
      </trkpt>
      <trkpt lat="44.71641" lon="5.2308">
        <ele>855</ele>
        <time>2019-09-01T08:20:57Z</time>
      </trkpt>
      <trkpt lat="44.71645" lon="5.2308">
        <ele>855</ele>
        <time>2019-09-01T08:20:59Z</time>
      </trkpt>
      <trkpt lat="44.71651" lon="5.23078">
        <ele>856</ele>
        <time>2019-09-01T08:21:01Z</time>
      </trkpt>
      <trkpt lat="44.71654" lon="5.23077">
        <ele>856</ele>
        <time>2019-09-01T08:21:02Z</time>
      </trkpt>
      <trkpt lat="44.71658" lon="5.23075">
        <ele>857</ele>
        <time>2019-09-01T08:21:04Z</time>
      </trkpt>
      <trkpt lat="44.71663" lon="5.23074">
        <ele>857</ele>
        <time>2019-09-01T08:21:06Z</time>
      </trkpt>
      <trkpt lat="44.71667" lon="5.23073">
        <ele>858</ele>
        <time>2019-09-01T08:21:08Z</time>
      </trkpt>
      <trkpt lat="44.71672" lon="5.2307">
        <ele>857</ele>
        <time>2019-09-01T08:21:10Z</time>
      </trkpt>
      <trkpt lat="44.71675" lon="5.23069">
        <ele>856</ele>
        <time>2019-09-01T08:21:11Z</time>
      </trkpt>
      <trkpt lat="44.7168" lon="5.23068">
        <ele>856</ele>
        <time>2019-09-01T08:21:13Z</time>
      </trkpt>
      <trkpt lat="44.71684" lon="5.23066">
        <ele>855</ele>
        <time>2019-09-01T08:21:15Z</time>
      </trkpt>
      <trkpt lat="44.71689" lon="5.23063">
        <ele>855</ele>
        <time>2019-09-01T08:21:17Z</time>
      </trkpt>
      <trkpt lat="44.71691" lon="5.23062">
        <ele>855</ele>
        <time>2019-09-01T08:21:18Z</time>
      </trkpt>
      <trkpt lat="44.71695" lon="5.2306">
        <ele>854</ele>
        <time>2019-09-01T08:21:19Z</time>
      </trkpt>
      <trkpt lat="44.71698" lon="5.23059">
        <ele>854</ele>
        <time>2019-09-01T08:21:20Z</time>
      </trkpt>
      <trkpt lat="44.71702" lon="5.23058">
        <ele>854</ele>
        <time>2019-09-01T08:21:21Z</time>
      </trkpt>
      <trkpt lat="44.71704" lon="5.23057">
        <ele>854</ele>
        <time>2019-09-01T08:21:22Z</time>
      </trkpt>
      <trkpt lat="44.7171" lon="5.23055">
        <ele>854</ele>
        <time>2019-09-01T08:21:24Z</time>
      </trkpt>
      <trkpt lat="44.71714" lon="5.23053">
        <ele>854</ele>
        <time>2019-09-01T08:21:26Z</time>
      </trkpt>
      <trkpt lat="44.71719" lon="5.23051">
        <ele>854</ele>
        <time>2019-09-01T08:21:28Z</time>
      </trkpt>
      <trkpt lat="44.71723" lon="5.2305">
        <ele>854</ele>
        <time>2019-09-01T08:21:30Z</time>
      </trkpt>
      <trkpt lat="44.71728" lon="5.23049">
        <ele>854</ele>
        <time>2019-09-01T08:21:32Z</time>
      </trkpt>
      <trkpt lat="44.71731" lon="5.2305">
        <ele>854</ele>
        <time>2019-09-01T08:21:33Z</time>
      </trkpt>
      <trkpt lat="44.71734" lon="5.23051">
        <ele>854</ele>
        <time>2019-09-01T08:21:34Z</time>
      </trkpt>
      <trkpt lat="44.7174" lon="5.23049">
        <ele>854</ele>
        <time>2019-09-01T08:21:36Z</time>
      </trkpt>
      <trkpt lat="44.71744" lon="5.23049">
        <ele>854</ele>
        <time>2019-09-01T08:21:37Z</time>
      </trkpt>
      <trkpt lat="44.71747" lon="5.23049">
        <ele>854</ele>
        <time>2019-09-01T08:21:38Z</time>
      </trkpt>
      <trkpt lat="44.7175" lon="5.2305">
        <ele>854</ele>
        <time>2019-09-01T08:21:39Z</time>
      </trkpt>
      <trkpt lat="44.71753" lon="5.2305">
        <ele>854</ele>
        <time>2019-09-01T08:21:40Z</time>
      </trkpt>
      <trkpt lat="44.71756" lon="5.23051">
        <ele>854</ele>
        <time>2019-09-01T08:21:41Z</time>
      </trkpt>
      <trkpt lat="44.71759" lon="5.2305">
        <ele>854</ele>
        <time>2019-09-01T08:21:42Z</time>
      </trkpt>
      <trkpt lat="44.71762" lon="5.23051">
        <ele>854</ele>
        <time>2019-09-01T08:21:43Z</time>
      </trkpt>
      <trkpt lat="44.71765" lon="5.23052">
        <ele>855</ele>
        <time>2019-09-01T08:21:44Z</time>
      </trkpt>
      <trkpt lat="44.71769" lon="5.23053">
        <ele>855</ele>
        <time>2019-09-01T08:21:45Z</time>
      </trkpt>
      <trkpt lat="44.71773" lon="5.23055">
        <ele>855</ele>
        <time>2019-09-01T08:21:46Z</time>
      </trkpt>
      <trkpt lat="44.71778" lon="5.23057">
        <ele>855</ele>
        <time>2019-09-01T08:21:47Z</time>
      </trkpt>
      <trkpt lat="44.71782" lon="5.23059">
        <ele>855</ele>
        <time>2019-09-01T08:21:48Z</time>
      </trkpt>
      <trkpt lat="44.71787" lon="5.23061">
        <ele>855</ele>
        <time>2019-09-01T08:21:49Z</time>
      </trkpt>
      <trkpt lat="44.71791" lon="5.23063">
        <ele>855</ele>
        <time>2019-09-01T08:21:50Z</time>
      </trkpt>
      <trkpt lat="44.71794" lon="5.23064">
        <ele>855</ele>
        <time>2019-09-01T08:21:51Z</time>
      </trkpt>
      <trkpt lat="44.71797" lon="5.23065">
        <ele>855</ele>
        <time>2019-09-01T08:21:52Z</time>
      </trkpt>
      <trkpt lat="44.71802" lon="5.23063">
        <ele>856</ele>
        <time>2019-09-01T08:21:54Z</time>
      </trkpt>
      <trkpt lat="44.71807" lon="5.23063">
        <ele>856</ele>
        <time>2019-09-01T08:21:56Z</time>
      </trkpt>
      <trkpt lat="44.7181" lon="5.23063">
        <ele>856</ele>
        <time>2019-09-01T08:21:57Z</time>
      </trkpt>
      <trkpt lat="44.71815" lon="5.23064">
        <ele>856</ele>
        <time>2019-09-01T08:21:59Z</time>
      </trkpt>
      <trkpt lat="44.7182" lon="5.23063">
        <ele>856</ele>
        <time>2019-09-01T08:22:01Z</time>
      </trkpt>
      <trkpt lat="44.71825" lon="5.23062">
        <ele>856</ele>
        <time>2019-09-01T08:22:03Z</time>
      </trkpt>
      <trkpt lat="44.7183" lon="5.23062">
        <ele>857</ele>
        <time>2019-09-01T08:22:05Z</time>
      </trkpt>
      <trkpt lat="44.71832" lon="5.23061">
        <ele>857</ele>
        <time>2019-09-01T08:22:06Z</time>
      </trkpt>
      <trkpt lat="44.71837" lon="5.23061">
        <ele>859</ele>
        <time>2019-09-01T08:22:08Z</time>
      </trkpt>
      <trkpt lat="44.71841" lon="5.23061">
        <ele>859</ele>
        <time>2019-09-01T08:22:10Z</time>
      </trkpt>
      <trkpt lat="44.71845" lon="5.23061">
        <ele>859</ele>
        <time>2019-09-01T08:22:12Z</time>
      </trkpt>
      <trkpt lat="44.71849" lon="5.2306">
        <ele>859</ele>
        <time>2019-09-01T08:22:14Z</time>
      </trkpt>
      <trkpt lat="44.71853" lon="5.2306">
        <ele>859</ele>
        <time>2019-09-01T08:22:16Z</time>
      </trkpt>
      <trkpt lat="44.71857" lon="5.2306">
        <ele>859</ele>
        <time>2019-09-01T08:22:18Z</time>
      </trkpt>
      <trkpt lat="44.7186" lon="5.2306">
        <ele>860</ele>
        <time>2019-09-01T08:22:20Z</time>
      </trkpt>
      <trkpt lat="44.71863" lon="5.2306">
        <ele>860</ele>
        <time>2019-09-01T08:22:22Z</time>
      </trkpt>
      <trkpt lat="44.71867" lon="5.23061">
        <ele>860</ele>
        <time>2019-09-01T08:22:24Z</time>
      </trkpt>
      <trkpt lat="44.7187" lon="5.23059">
        <ele>860</ele>
        <time>2019-09-01T08:22:26Z</time>
      </trkpt>
      <trkpt lat="44.71874" lon="5.2306">
        <ele>860</ele>
        <time>2019-09-01T08:22:28Z</time>
      </trkpt>
      <trkpt lat="44.71877" lon="5.23062">
        <ele>861</ele>
        <time>2019-09-01T08:22:30Z</time>
      </trkpt>
      <trkpt lat="44.71881" lon="5.23063">
        <ele>861</ele>
        <time>2019-09-01T08:22:32Z</time>
      </trkpt>
      <trkpt lat="44.71884" lon="5.23064">
        <ele>862</ele>
        <time>2019-09-01T08:22:35Z</time>
      </trkpt>
      <trkpt lat="44.71888" lon="5.23064">
        <ele>862</ele>
        <time>2019-09-01T08:22:38Z</time>
      </trkpt>
      <trkpt lat="44.71892" lon="5.23064">
        <ele>862</ele>
        <time>2019-09-01T08:22:41Z</time>
      </trkpt>
      <trkpt lat="44.71895" lon="5.23065">
        <ele>863</ele>
        <time>2019-09-01T08:22:45Z</time>
      </trkpt>
      <trkpt lat="44.71898" lon="5.23063">
        <ele>863</ele>
        <time>2019-09-01T08:22:48Z</time>
      </trkpt>
      <trkpt lat="44.71901" lon="5.23062">
        <ele>863</ele>
        <time>2019-09-01T08:22:50Z</time>
      </trkpt>
      <trkpt lat="44.71905" lon="5.23062">
        <ele>863</ele>
        <time>2019-09-01T08:22:52Z</time>
      </trkpt>
      <trkpt lat="44.71909" lon="5.23064">
        <ele>864</ele>
        <time>2019-09-01T08:22:56Z</time>
      </trkpt>
      <trkpt lat="44.71912" lon="5.23064">
        <ele>865</ele>
        <time>2019-09-01T08:22:59Z</time>
      </trkpt>
      <trkpt lat="44.71915" lon="5.23067">
        <ele>865</ele>
        <time>2019-09-01T08:23:02Z</time>
      </trkpt>
      <trkpt lat="44.71918" lon="5.23068">
        <ele>869</ele>
        <time>2019-09-01T08:23:05Z</time>
      </trkpt>
      <trkpt lat="44.71922" lon="5.23067">
        <ele>869</ele>
        <time>2019-09-01T08:23:07Z</time>
      </trkpt>
      <trkpt lat="44.71925" lon="5.23067">
        <ele>869</ele>
        <time>2019-09-01T08:23:09Z</time>
      </trkpt>
      <trkpt lat="44.71929" lon="5.23068">
        <ele>869</ele>
        <time>2019-09-01T08:23:12Z</time>
      </trkpt>
      <trkpt lat="44.71933" lon="5.23066">
        <ele>869</ele>
        <time>2019-09-01T08:23:14Z</time>
      </trkpt>
      <trkpt lat="44.71936" lon="5.23065">
        <ele>869</ele>
        <time>2019-09-01T08:23:16Z</time>
      </trkpt>
      <trkpt lat="44.71939" lon="5.23064">
        <ele>868</ele>
        <time>2019-09-01T08:23:18Z</time>
      </trkpt>
      <trkpt lat="44.71943" lon="5.23065">
        <ele>869</ele>
        <time>2019-09-01T08:23:20Z</time>
      </trkpt>
      <trkpt lat="44.71945" lon="5.23066">
        <ele>869</ele>
        <time>2019-09-01T08:23:22Z</time>
      </trkpt>
      <trkpt lat="44.71948" lon="5.23065">
        <ele>869</ele>
        <time>2019-09-01T08:23:24Z</time>
      </trkpt>
      <trkpt lat="44.71952" lon="5.23063">
        <ele>869</ele>
        <time>2019-09-01T08:23:26Z</time>
      </trkpt>
      <trkpt lat="44.71956" lon="5.23062">
        <ele>869</ele>
        <time>2019-09-01T08:23:28Z</time>
      </trkpt>
      <trkpt lat="44.7196" lon="5.23061">
        <ele>869</ele>
        <time>2019-09-01T08:23:30Z</time>
      </trkpt>
      <trkpt lat="44.71964" lon="5.23062">
        <ele>869</ele>
        <time>2019-09-01T08:23:32Z</time>
      </trkpt>
      <trkpt lat="44.71968" lon="5.23062">
        <ele>870</ele>
        <time>2019-09-01T08:23:34Z</time>
      </trkpt>
      <trkpt lat="44.71971" lon="5.23061">
        <ele>870</ele>
        <time>2019-09-01T08:23:36Z</time>
      </trkpt>
      <trkpt lat="44.71976" lon="5.23059">
        <ele>870</ele>
        <time>2019-09-01T08:23:38Z</time>
      </trkpt>
      <trkpt lat="44.7198" lon="5.23059">
        <ele>870</ele>
        <time>2019-09-01T08:23:40Z</time>
      </trkpt>
      <trkpt lat="44.71984" lon="5.23058">
        <ele>871</ele>
        <time>2019-09-01T08:23:42Z</time>
      </trkpt>
      <trkpt lat="44.71989" lon="5.23059">
        <ele>871</ele>
        <time>2019-09-01T08:23:44Z</time>
      </trkpt>
      <trkpt lat="44.71992" lon="5.23059">
        <ele>871</ele>
        <time>2019-09-01T08:23:45Z</time>
      </trkpt>
      <trkpt lat="44.71995" lon="5.2306">
        <ele>872</ele>
        <time>2019-09-01T08:23:46Z</time>
      </trkpt>
      <trkpt lat="44.71999" lon="5.23061">
        <ele>872</ele>
        <time>2019-09-01T08:23:48Z</time>
      </trkpt>
      <trkpt lat="44.72003" lon="5.23062">
        <ele>875</ele>
        <time>2019-09-01T08:23:50Z</time>
      </trkpt>
      <trkpt lat="44.72006" lon="5.23062">
        <ele>874</ele>
        <time>2019-09-01T08:23:52Z</time>
      </trkpt>
      <trkpt lat="44.72011" lon="5.23061">
        <ele>874</ele>
        <time>2019-09-01T08:23:54Z</time>
      </trkpt>
      <trkpt lat="44.72015" lon="5.23061">
        <ele>874</ele>
        <time>2019-09-01T08:23:56Z</time>
      </trkpt>
      <trkpt lat="44.7202" lon="5.23061">
        <ele>874</ele>
        <time>2019-09-01T08:23:58Z</time>
      </trkpt>
      <trkpt lat="44.72024" lon="5.23062">
        <ele>874</ele>
        <time>2019-09-01T08:24:00Z</time>
      </trkpt>
      <trkpt lat="44.72027" lon="5.23062">
        <ele>874</ele>
        <time>2019-09-01T08:24:01Z</time>
      </trkpt>
      <trkpt lat="44.7203" lon="5.23063">
        <ele>874</ele>
        <time>2019-09-01T08:24:02Z</time>
      </trkpt>
      <trkpt lat="44.72032" lon="5.23063">
        <ele>874</ele>
        <time>2019-09-01T08:24:03Z</time>
      </trkpt>
      <trkpt lat="44.72036" lon="5.23063">
        <ele>873</ele>
        <time>2019-09-01T08:24:04Z</time>
      </trkpt>
      <trkpt lat="44.72039" lon="5.23063">
        <ele>873</ele>
        <time>2019-09-01T08:24:05Z</time>
      </trkpt>
      <trkpt lat="44.72042" lon="5.23064">
        <ele>874</ele>
        <time>2019-09-01T08:24:06Z</time>
      </trkpt>
      <trkpt lat="44.72047" lon="5.23066">
        <ele>874</ele>
        <time>2019-09-01T08:24:08Z</time>
      </trkpt>
      <trkpt lat="44.7205" lon="5.23067">
        <ele>874</ele>
        <time>2019-09-01T08:24:09Z</time>
      </trkpt>
      <trkpt lat="44.72052" lon="5.23067">
        <ele>874</ele>
        <time>2019-09-01T08:24:10Z</time>
      </trkpt>
      <trkpt lat="44.72057" lon="5.23067">
        <ele>874</ele>
        <time>2019-09-01T08:24:12Z</time>
      </trkpt>
      <trkpt lat="44.72061" lon="5.23068">
        <ele>875</ele>
        <time>2019-09-01T08:24:14Z</time>
      </trkpt>
      <trkpt lat="44.72066" lon="5.2307">
        <ele>875</ele>
        <time>2019-09-01T08:24:16Z</time>
      </trkpt>
      <trkpt lat="44.72069" lon="5.23072">
        <ele>876</ele>
        <time>2019-09-01T08:24:18Z</time>
      </trkpt>
      <trkpt lat="44.72074" lon="5.23074">
        <ele>877</ele>
        <time>2019-09-01T08:24:20Z</time>
      </trkpt>
      <trkpt lat="44.72079" lon="5.23076">
        <ele>878</ele>
        <time>2019-09-01T08:24:22Z</time>
      </trkpt>
      <trkpt lat="44.72083" lon="5.23078">
        <ele>879</ele>
        <time>2019-09-01T08:24:24Z</time>
      </trkpt>
      <trkpt lat="44.72087" lon="5.23079">
        <ele>880</ele>
        <time>2019-09-01T08:24:26Z</time>
      </trkpt>
      <trkpt lat="44.72092" lon="5.2308">
        <ele>880</ele>
        <time>2019-09-01T08:24:28Z</time>
      </trkpt>
      <trkpt lat="44.72096" lon="5.23081">
        <ele>880</ele>
        <time>2019-09-01T08:24:30Z</time>
      </trkpt>
      <trkpt lat="44.72102" lon="5.2308">
        <ele>879</ele>
        <time>2019-09-01T08:24:32Z</time>
      </trkpt>
      <trkpt lat="44.72105" lon="5.2308">
        <ele>879</ele>
        <time>2019-09-01T08:24:33Z</time>
      </trkpt>
      <trkpt lat="44.72109" lon="5.23081">
        <ele>880</ele>
        <time>2019-09-01T08:24:34Z</time>
      </trkpt>
      <trkpt lat="44.72111" lon="5.23082">
        <ele>880</ele>
        <time>2019-09-01T08:24:35Z</time>
      </trkpt>
      <trkpt lat="44.72114" lon="5.23083">
        <ele>880</ele>
        <time>2019-09-01T08:24:36Z</time>
      </trkpt>
      <trkpt lat="44.72117" lon="5.23084">
        <ele>883</ele>
        <time>2019-09-01T08:24:37Z</time>
      </trkpt>
      <trkpt lat="44.72122" lon="5.23088">
        <ele>883</ele>
        <time>2019-09-01T08:24:39Z</time>
      </trkpt>
      <trkpt lat="44.72126" lon="5.23091">
        <ele>883</ele>
        <time>2019-09-01T08:24:41Z</time>
      </trkpt>
      <trkpt lat="44.72129" lon="5.23093">
        <ele>883</ele>
        <time>2019-09-01T08:24:44Z</time>
      </trkpt>
      <trkpt lat="44.72135" lon="5.23092">
        <ele>884</ele>
        <time>2019-09-01T08:24:50Z</time>
      </trkpt>
      <trkpt lat="44.72139" lon="5.2309">
        <ele>885</ele>
        <time>2019-09-01T08:24:53Z</time>
      </trkpt>
      <trkpt lat="44.72141" lon="5.23089">
        <ele>885</ele>
        <time>2019-09-01T08:24:55Z</time>
      </trkpt>
      <trkpt lat="44.72143" lon="5.23086">
        <ele>885</ele>
        <time>2019-09-01T08:24:57Z</time>
      </trkpt>
      <trkpt lat="44.72146" lon="5.23082">
        <ele>884</ele>
        <time>2019-09-01T08:24:59Z</time>
      </trkpt>
      <trkpt lat="44.72148" lon="5.23079">
        <ele>884</ele>
        <time>2019-09-01T08:25:01Z</time>
      </trkpt>
      <trkpt lat="44.72151" lon="5.23076">
        <ele>884</ele>
        <time>2019-09-01T08:25:03Z</time>
      </trkpt>
      <trkpt lat="44.72153" lon="5.23073">
        <ele>885</ele>
        <time>2019-09-01T08:25:05Z</time>
      </trkpt>
      <trkpt lat="44.72156" lon="5.2307">
        <ele>885</ele>
        <time>2019-09-01T08:25:07Z</time>
      </trkpt>
      <trkpt lat="44.7216" lon="5.23068">
        <ele>885</ele>
        <time>2019-09-01T08:25:09Z</time>
      </trkpt>
      <trkpt lat="44.72164" lon="5.23065">
        <ele>884</ele>
        <time>2019-09-01T08:25:13Z</time>
      </trkpt>
      <trkpt lat="44.72166" lon="5.23063">
        <ele>884</ele>
        <time>2019-09-01T08:25:15Z</time>
      </trkpt>
      <trkpt lat="44.72169" lon="5.23062">
        <ele>890</ele>
        <time>2019-09-01T08:25:17Z</time>
      </trkpt>
      <trkpt lat="44.72172" lon="5.23059">
        <ele>890</ele>
        <time>2019-09-01T08:25:19Z</time>
      </trkpt>
      <trkpt lat="44.72176" lon="5.23058">
        <ele>889</ele>
        <time>2019-09-01T08:25:21Z</time>
      </trkpt>
      <trkpt lat="44.72179" lon="5.2306">
        <ele>890</ele>
        <time>2019-09-01T08:25:24Z</time>
      </trkpt>
      <trkpt lat="44.72182" lon="5.23061">
        <ele>890</ele>
        <time>2019-09-01T08:25:31Z</time>
      </trkpt>
      <trkpt lat="44.72185" lon="5.23061">
        <ele>890</ele>
        <time>2019-09-01T08:25:34Z</time>
      </trkpt>
      <trkpt lat="44.72187" lon="5.23061">
        <ele>890</ele>
        <time>2019-09-01T08:25:38Z</time>
      </trkpt>
      <trkpt lat="44.72191" lon="5.23061">
        <ele>890</ele>
        <time>2019-09-01T08:25:44Z</time>
      </trkpt>
      <trkpt lat="44.72196" lon="5.23061">
        <ele>891</ele>
        <time>2019-09-01T08:25:54Z</time>
      </trkpt>
      <trkpt lat="44.72199" lon="5.23059">
        <ele>891</ele>
        <time>2019-09-01T08:25:57Z</time>
      </trkpt>
      <trkpt lat="44.72202" lon="5.23059">
        <ele>891</ele>
        <time>2019-09-01T08:26:00Z</time>
      </trkpt>
      <trkpt lat="44.72205" lon="5.2306">
        <ele>891</ele>
        <time>2019-09-01T08:26:04Z</time>
      </trkpt>
      <trkpt lat="44.72208" lon="5.2306">
        <ele>891</ele>
        <time>2019-09-01T08:26:08Z</time>
      </trkpt>
      <trkpt lat="44.72211" lon="5.23061">
        <ele>892</ele>
        <time>2019-09-01T08:26:13Z</time>
      </trkpt>
      <trkpt lat="44.72214" lon="5.23062">
        <ele>892</ele>
        <time>2019-09-01T08:26:16Z</time>
      </trkpt>
      <trkpt lat="44.72217" lon="5.23063">
        <ele>893</ele>
        <time>2019-09-01T08:26:20Z</time>
      </trkpt>
      <trkpt lat="44.72219" lon="5.23066">
        <ele>893</ele>
        <time>2019-09-01T08:26:25Z</time>
      </trkpt>
      <trkpt lat="44.72222" lon="5.23067">
        <ele>894</ele>
        <time>2019-09-01T08:26:35Z</time>
      </trkpt>
      <trkpt lat="44.72226" lon="5.23067">
        <ele>894</ele>
        <time>2019-09-01T08:26:38Z</time>
      </trkpt>
      <trkpt lat="44.72229" lon="5.23067">
        <ele>895</ele>
        <time>2019-09-01T08:26:41Z</time>
      </trkpt>
      <trkpt lat="44.72232" lon="5.23067">
        <ele>895</ele>
        <time>2019-09-01T08:26:46Z</time>
      </trkpt>
      <trkpt lat="44.72235" lon="5.23067">
        <ele>896</ele>
        <time>2019-09-01T08:26:49Z</time>
      </trkpt>
      <trkpt lat="44.72239" lon="5.23069">
        <ele>897</ele>
        <time>2019-09-01T08:26:56Z</time>
      </trkpt>
      <trkpt lat="44.72243" lon="5.2307">
        <ele>898</ele>
        <time>2019-09-01T08:27:02Z</time>
      </trkpt>
      <trkpt lat="44.72246" lon="5.23072">
        <ele>899</ele>
        <time>2019-09-01T08:27:06Z</time>
      </trkpt>
      <trkpt lat="44.72247" lon="5.23076">
        <ele>900</ele>
        <time>2019-09-01T08:27:24Z</time>
      </trkpt>
      <trkpt lat="44.7225" lon="5.23075">
        <ele>904</ele>
        <time>2019-09-01T08:28:18Z</time>
      </trkpt>
      <trkpt lat="44.72253" lon="5.23072">
        <ele>903</ele>
        <time>2019-09-01T08:29:21Z</time>
      </trkpt>
      <trkpt lat="44.72256" lon="5.2307">
        <ele>903</ele>
        <time>2019-09-01T08:29:23Z</time>
      </trkpt>
      <trkpt lat="44.7226" lon="5.23069">
        <ele>903</ele>
        <time>2019-09-01T08:29:25Z</time>
      </trkpt>
      <trkpt lat="44.72263" lon="5.23069">
        <ele>903</ele>
        <time>2019-09-01T08:29:27Z</time>
      </trkpt>
      <trkpt lat="44.72266" lon="5.23068">
        <ele>903</ele>
        <time>2019-09-01T08:29:29Z</time>
      </trkpt>
      <trkpt lat="44.7227" lon="5.23067">
        <ele>904</ele>
        <time>2019-09-01T08:29:31Z</time>
      </trkpt>
      <trkpt lat="44.72274" lon="5.23067">
        <ele>904</ele>
        <time>2019-09-01T08:29:33Z</time>
      </trkpt>
      <trkpt lat="44.72278" lon="5.23067">
        <ele>904</ele>
        <time>2019-09-01T08:29:36Z</time>
      </trkpt>
      <trkpt lat="44.7228" lon="5.23067">
        <ele>904</ele>
        <time>2019-09-01T08:29:38Z</time>
      </trkpt>
      <trkpt lat="44.72283" lon="5.23067">
        <ele>904</ele>
        <time>2019-09-01T08:29:40Z</time>
      </trkpt>
      <trkpt lat="44.72286" lon="5.23067">
        <ele>904</ele>
        <time>2019-09-01T08:29:43Z</time>
      </trkpt>
      <trkpt lat="44.72291" lon="5.23068">
        <ele>905</ele>
        <time>2019-09-01T08:29:46Z</time>
      </trkpt>
      <trkpt lat="44.72293" lon="5.23068">
        <ele>905</ele>
        <time>2019-09-01T08:29:49Z</time>
      </trkpt>
      <trkpt lat="44.72297" lon="5.23067">
        <ele>905</ele>
        <time>2019-09-01T08:29:52Z</time>
      </trkpt>
      <trkpt lat="44.723" lon="5.23066">
        <ele>906</ele>
        <time>2019-09-01T08:29:55Z</time>
      </trkpt>
      <trkpt lat="44.72304" lon="5.23065">
        <ele>906</ele>
        <time>2019-09-01T08:29:57Z</time>
      </trkpt>
      <trkpt lat="44.72307" lon="5.23065">
        <ele>906</ele>
        <time>2019-09-01T08:30:00Z</time>
      </trkpt>
      <trkpt lat="44.7231" lon="5.23065">
        <ele>907</ele>
        <time>2019-09-01T08:30:03Z</time>
      </trkpt>
      <trkpt lat="44.72313" lon="5.23067">
        <ele>907</ele>
        <time>2019-09-01T08:30:06Z</time>
      </trkpt>
      <trkpt lat="44.72316" lon="5.23066">
        <ele>907</ele>
        <time>2019-09-01T08:30:11Z</time>
      </trkpt>
      <trkpt lat="44.7232" lon="5.23065">
        <ele>908</ele>
        <time>2019-09-01T08:30:14Z</time>
      </trkpt>
      <trkpt lat="44.72323" lon="5.23064">
        <ele>908</ele>
        <time>2019-09-01T08:30:17Z</time>
      </trkpt>
      <trkpt lat="44.72325" lon="5.23061">
        <ele>908</ele>
        <time>2019-09-01T08:30:19Z</time>
      </trkpt>
      <trkpt lat="44.72328" lon="5.2306">
        <ele>908</ele>
        <time>2019-09-01T08:30:21Z</time>
      </trkpt>
      <trkpt lat="44.72332" lon="5.2306">
        <ele>908</ele>
        <time>2019-09-01T08:30:23Z</time>
      </trkpt>
      <trkpt lat="44.72335" lon="5.2306">
        <ele>914</ele>
        <time>2019-09-01T08:30:26Z</time>
      </trkpt>
      <trkpt lat="44.72338" lon="5.23059">
        <ele>914</ele>
        <time>2019-09-01T08:30:28Z</time>
      </trkpt>
      <trkpt lat="44.72341" lon="5.23058">
        <ele>914</ele>
        <time>2019-09-01T08:30:30Z</time>
      </trkpt>
      <trkpt lat="44.72344" lon="5.23059">
        <ele>914</ele>
        <time>2019-09-01T08:30:34Z</time>
      </trkpt>
      <trkpt lat="44.72347" lon="5.23056">
        <ele>914</ele>
        <time>2019-09-01T08:30:37Z</time>
      </trkpt>
      <trkpt lat="44.72351" lon="5.23054">
        <ele>914</ele>
        <time>2019-09-01T08:30:40Z</time>
      </trkpt>
      <trkpt lat="44.72354" lon="5.23052">
        <ele>914</ele>
        <time>2019-09-01T08:30:43Z</time>
      </trkpt>
      <trkpt lat="44.72356" lon="5.2305">
        <ele>914</ele>
        <time>2019-09-01T08:30:45Z</time>
      </trkpt>
      <trkpt lat="44.72359" lon="5.23048">
        <ele>914</ele>
        <time>2019-09-01T08:30:47Z</time>
      </trkpt>
      <trkpt lat="44.72362" lon="5.23047">
        <ele>914</ele>
        <time>2019-09-01T08:30:49Z</time>
      </trkpt>
      <trkpt lat="44.72365" lon="5.23044">
        <ele>914</ele>
        <time>2019-09-01T08:30:51Z</time>
      </trkpt>
      <trkpt lat="44.72368" lon="5.23039">
        <ele>914</ele>
        <time>2019-09-01T08:30:53Z</time>
      </trkpt>
      <trkpt lat="44.72371" lon="5.23036">
        <ele>915</ele>
        <time>2019-09-01T08:30:55Z</time>
      </trkpt>
      <trkpt lat="44.72375" lon="5.23034">
        <ele>915</ele>
        <time>2019-09-01T08:30:57Z</time>
      </trkpt>
      <trkpt lat="44.72378" lon="5.23032">
        <ele>915</ele>
        <time>2019-09-01T08:30:59Z</time>
      </trkpt>
      <trkpt lat="44.72382" lon="5.2303">
        <ele>915</ele>
        <time>2019-09-01T08:31:01Z</time>
      </trkpt>
      <trkpt lat="44.72385" lon="5.23028">
        <ele>916</ele>
        <time>2019-09-01T08:31:03Z</time>
      </trkpt>
      <trkpt lat="44.72389" lon="5.23026">
        <ele>916</ele>
        <time>2019-09-01T08:31:06Z</time>
      </trkpt>
      <trkpt lat="44.72392" lon="5.23027">
        <ele>916</ele>
        <time>2019-09-01T08:31:08Z</time>
      </trkpt>
      <trkpt lat="44.72395" lon="5.23026">
        <ele>916</ele>
        <time>2019-09-01T08:31:10Z</time>
      </trkpt>
      <trkpt lat="44.72399" lon="5.23026">
        <ele>917</ele>
        <time>2019-09-01T08:31:12Z</time>
      </trkpt>
      <trkpt lat="44.72402" lon="5.23026">
        <ele>917</ele>
        <time>2019-09-01T08:31:14Z</time>
      </trkpt>
      <trkpt lat="44.72405" lon="5.23028">
        <ele>917</ele>
        <time>2019-09-01T08:31:17Z</time>
      </trkpt>
      <trkpt lat="44.72408" lon="5.2303">
        <ele>917</ele>
        <time>2019-09-01T08:31:20Z</time>
      </trkpt>
      <trkpt lat="44.72412" lon="5.23031">
        <ele>917</ele>
        <time>2019-09-01T08:31:23Z</time>
      </trkpt>
      <trkpt lat="44.72415" lon="5.23032">
        <ele>917</ele>
        <time>2019-09-01T08:31:26Z</time>
      </trkpt>
      <trkpt lat="44.72417" lon="5.23033">
        <ele>923</ele>
        <time>2019-09-01T08:31:30Z</time>
      </trkpt>
      <trkpt lat="44.72421" lon="5.23031">
        <ele>923</ele>
        <time>2019-09-01T08:31:34Z</time>
      </trkpt>
      <trkpt lat="44.72424" lon="5.2303">
        <ele>923</ele>
        <time>2019-09-01T08:31:36Z</time>
      </trkpt>
      <trkpt lat="44.72426" lon="5.23029">
        <ele>923</ele>
        <time>2019-09-01T08:31:38Z</time>
      </trkpt>
      <trkpt lat="44.7243" lon="5.23029">
        <ele>923</ele>
        <time>2019-09-01T08:31:41Z</time>
      </trkpt>
      <trkpt lat="44.72433" lon="5.23027">
        <ele>923</ele>
        <time>2019-09-01T08:31:43Z</time>
      </trkpt>
      <trkpt lat="44.72437" lon="5.23026">
        <ele>923</ele>
        <time>2019-09-01T08:31:45Z</time>
      </trkpt>
      <trkpt lat="44.72441" lon="5.23025">
        <ele>923</ele>
        <time>2019-09-01T08:31:47Z</time>
      </trkpt>
      <trkpt lat="44.72444" lon="5.23025">
        <ele>923</ele>
        <time>2019-09-01T08:31:49Z</time>
      </trkpt>
      <trkpt lat="44.72449" lon="5.23024">
        <ele>924</ele>
        <time>2019-09-01T08:31:51Z</time>
      </trkpt>
      <trkpt lat="44.72452" lon="5.23024">
        <ele>924</ele>
        <time>2019-09-01T08:31:53Z</time>
      </trkpt>
      <trkpt lat="44.72456" lon="5.23024">
        <ele>924</ele>
        <time>2019-09-01T08:31:55Z</time>
      </trkpt>
      <trkpt lat="44.72461" lon="5.23023">
        <ele>924</ele>
        <time>2019-09-01T08:31:57Z</time>
      </trkpt>
      <trkpt lat="44.72465" lon="5.23023">
        <ele>924</ele>
        <time>2019-09-01T08:31:59Z</time>
      </trkpt>
      <trkpt lat="44.72468" lon="5.23022">
        <ele>925</ele>
        <time>2019-09-01T08:32:01Z</time>
      </trkpt>
      <trkpt lat="44.72471" lon="5.23022">
        <ele>925</ele>
        <time>2019-09-01T08:32:03Z</time>
      </trkpt>
      <trkpt lat="44.72475" lon="5.23021">
        <ele>925</ele>
        <time>2019-09-01T08:32:05Z</time>
      </trkpt>
      <trkpt lat="44.72479" lon="5.23022">
        <ele>925</ele>
        <time>2019-09-01T08:32:07Z</time>
      </trkpt>
      <trkpt lat="44.72482" lon="5.23023">
        <ele>925</ele>
        <time>2019-09-01T08:32:09Z</time>
      </trkpt>
      <trkpt lat="44.72484" lon="5.23025">
        <ele>925</ele>
        <time>2019-09-01T08:32:11Z</time>
      </trkpt>
      <trkpt lat="44.72488" lon="5.23025">
        <ele>925</ele>
        <time>2019-09-01T08:32:14Z</time>
      </trkpt>
      <trkpt lat="44.72491" lon="5.23025">
        <ele>926</ele>
        <time>2019-09-01T08:32:17Z</time>
      </trkpt>
      <trkpt lat="44.72495" lon="5.23027">
        <ele>926</ele>
        <time>2019-09-01T08:32:20Z</time>
      </trkpt>
      <trkpt lat="44.72499" lon="5.2303">
        <ele>926</ele>
        <time>2019-09-01T08:32:28Z</time>
      </trkpt>
      <trkpt lat="44.72501" lon="5.23034">
        <ele>933</ele>
        <time>2019-09-01T08:33:21Z</time>
      </trkpt>
      <trkpt lat="44.725" lon="5.23041">
        <ele>925</ele>
        <time>2019-09-01T08:33:23Z</time>
      </trkpt>
      <trkpt lat="44.72499" lon="5.23045">
        <ele>925</ele>
        <time>2019-09-01T08:33:24Z</time>
      </trkpt>
      <trkpt lat="44.72497" lon="5.2305">
        <ele>925</ele>
        <time>2019-09-01T08:33:26Z</time>
      </trkpt>
      <trkpt lat="44.72496" lon="5.23055">
        <ele>925</ele>
        <time>2019-09-01T08:33:28Z</time>
      </trkpt>
      <trkpt lat="44.72495" lon="5.23059">
        <ele>925</ele>
        <time>2019-09-01T08:33:29Z</time>
      </trkpt>
      <trkpt lat="44.72494" lon="5.23062">
        <ele>925</ele>
        <time>2019-09-01T08:33:30Z</time>
      </trkpt>
      <trkpt lat="44.72492" lon="5.23067">
        <ele>926</ele>
        <time>2019-09-01T08:33:32Z</time>
      </trkpt>
      <trkpt lat="44.72492" lon="5.23071">
        <ele>926</ele>
        <time>2019-09-01T08:33:34Z</time>
      </trkpt>
      <trkpt lat="44.72496" lon="5.23076">
        <ele>926</ele>
        <time>2019-09-01T08:33:36Z</time>
      </trkpt>
      <trkpt lat="44.72497" lon="5.2308">
        <ele>927</ele>
        <time>2019-09-01T08:33:37Z</time>
      </trkpt>
      <trkpt lat="44.72499" lon="5.23084">
        <ele>926</ele>
        <time>2019-09-01T08:33:38Z</time>
      </trkpt>
      <trkpt lat="44.72501" lon="5.23088">
        <ele>927</ele>
        <time>2019-09-01T08:33:39Z</time>
      </trkpt>
      <trkpt lat="44.72503" lon="5.23092">
        <ele>927</ele>
        <time>2019-09-01T08:33:40Z</time>
      </trkpt>
      <trkpt lat="44.72505" lon="5.23096">
        <ele>926</ele>
        <time>2019-09-01T08:33:41Z</time>
      </trkpt>
      <trkpt lat="44.72506" lon="5.23099">
        <ele>926</ele>
        <time>2019-09-01T08:33:42Z</time>
      </trkpt>
      <trkpt lat="44.72508" lon="5.23103">
        <ele>926</ele>
        <time>2019-09-01T08:33:43Z</time>
      </trkpt>
      <trkpt lat="44.72511" lon="5.23107">
        <ele>925</ele>
        <time>2019-09-01T08:33:45Z</time>
      </trkpt>
      <trkpt lat="44.72514" lon="5.23112">
        <ele>925</ele>
        <time>2019-09-01T08:33:47Z</time>
      </trkpt>
      <trkpt lat="44.72518" lon="5.23118">
        <ele>924</ele>
        <time>2019-09-01T08:33:49Z</time>
      </trkpt>
      <trkpt lat="44.72521" lon="5.23122">
        <ele>924</ele>
        <time>2019-09-01T08:33:50Z</time>
      </trkpt>
      <trkpt lat="44.72523" lon="5.23126">
        <ele>923</ele>
        <time>2019-09-01T08:33:51Z</time>
      </trkpt>
      <trkpt lat="44.72525" lon="5.2313">
        <ele>923</ele>
        <time>2019-09-01T08:33:52Z</time>
      </trkpt>
      <trkpt lat="44.72528" lon="5.23132">
        <ele>923</ele>
        <time>2019-09-01T08:33:53Z</time>
      </trkpt>
      <trkpt lat="44.7253" lon="5.23136">
        <ele>922</ele>
        <time>2019-09-01T08:33:54Z</time>
      </trkpt>
      <trkpt lat="44.72532" lon="5.23141">
        <ele>922</ele>
        <time>2019-09-01T08:33:55Z</time>
      </trkpt>
      <trkpt lat="44.72533" lon="5.23145">
        <ele>921</ele>
        <time>2019-09-01T08:33:56Z</time>
      </trkpt>
      <trkpt lat="44.72534" lon="5.23149">
        <ele>921</ele>
        <time>2019-09-01T08:33:57Z</time>
      </trkpt>
      <trkpt lat="44.72537" lon="5.23156">
        <ele>920</ele>
        <time>2019-09-01T08:33:59Z</time>
      </trkpt>
      <trkpt lat="44.72538" lon="5.2316">
        <ele>920</ele>
        <time>2019-09-01T08:34:00Z</time>
      </trkpt>
      <trkpt lat="44.72539" lon="5.23163">
        <ele>920</ele>
        <time>2019-09-01T08:34:01Z</time>
      </trkpt>
      <trkpt lat="44.72541" lon="5.23169">
        <ele>902</ele>
        <time>2019-09-01T08:34:03Z</time>
      </trkpt>
      <trkpt lat="44.72538" lon="5.23172">
        <ele>901</ele>
        <time>2019-09-01T08:34:06Z</time>
      </trkpt>
      <trkpt lat="44.72537" lon="5.23177">
        <ele>900</ele>
        <time>2019-09-01T08:34:12Z</time>
      </trkpt>
      <trkpt lat="44.72535" lon="5.23173">
        <ele>900</ele>
        <time>2019-09-01T08:37:06Z</time>
      </trkpt>
      <trkpt lat="44.72536" lon="5.23177">
        <ele>900</ele>
        <time>2019-09-01T08:37:34Z</time>
      </trkpt>
      <trkpt lat="44.72533" lon="5.2318">
        <ele>899</ele>
        <time>2019-09-01T08:37:46Z</time>
      </trkpt>
      <trkpt lat="44.72527" lon="5.2318">
        <ele>898</ele>
        <time>2019-09-01T08:37:48Z</time>
      </trkpt>
      <trkpt lat="44.72521" lon="5.23177">
        <ele>898</ele>
        <time>2019-09-01T08:37:50Z</time>
      </trkpt>
      <trkpt lat="44.72518" lon="5.23174">
        <ele>898</ele>
        <time>2019-09-01T08:37:51Z</time>
      </trkpt>
      <trkpt lat="44.72515" lon="5.23173">
        <ele>898</ele>
        <time>2019-09-01T08:37:53Z</time>
      </trkpt>
      <trkpt lat="44.72518" lon="5.23174">
        <ele>898</ele>
        <time>2019-09-01T08:37:55Z</time>
      </trkpt>
      <trkpt lat="44.72524" lon="5.23176">
        <ele>898</ele>
        <time>2019-09-01T08:37:57Z</time>
      </trkpt>
      <trkpt lat="44.72527" lon="5.23178">
        <ele>898</ele>
        <time>2019-09-01T08:37:58Z</time>
      </trkpt>
      <trkpt lat="44.72529" lon="5.23179">
        <ele>899</ele>
        <time>2019-09-01T08:37:59Z</time>
      </trkpt>
      <trkpt lat="44.72532" lon="5.2318">
        <ele>899</ele>
        <time>2019-09-01T08:38:00Z</time>
      </trkpt>
      <trkpt lat="44.72536" lon="5.23182">
        <ele>899</ele>
        <time>2019-09-01T08:38:01Z</time>
      </trkpt>
      <trkpt lat="44.72539" lon="5.23185">
        <ele>900</ele>
        <time>2019-09-01T08:38:02Z</time>
      </trkpt>
      <trkpt lat="44.72542" lon="5.23188">
        <ele>900</ele>
        <time>2019-09-01T08:38:03Z</time>
      </trkpt>
      <trkpt lat="44.72545" lon="5.23192">
        <ele>900</ele>
        <time>2019-09-01T08:38:04Z</time>
      </trkpt>
      <trkpt lat="44.7255" lon="5.23198">
        <ele>900</ele>
        <time>2019-09-01T08:38:05Z</time>
      </trkpt>
      <trkpt lat="44.72554" lon="5.23203">
        <ele>899</ele>
        <time>2019-09-01T08:38:06Z</time>
      </trkpt>
      <trkpt lat="44.72557" lon="5.23209">
        <ele>898</ele>
        <time>2019-09-01T08:38:07Z</time>
      </trkpt>
      <trkpt lat="44.72561" lon="5.23215">
        <ele>898</ele>
        <time>2019-09-01T08:38:08Z</time>
      </trkpt>
      <trkpt lat="44.72565" lon="5.23222">
        <ele>897</ele>
        <time>2019-09-01T08:38:09Z</time>
      </trkpt>
      <trkpt lat="44.72569" lon="5.23229">
        <ele>896</ele>
        <time>2019-09-01T08:38:10Z</time>
      </trkpt>
      <trkpt lat="44.72574" lon="5.23236">
        <ele>896</ele>
        <time>2019-09-01T08:38:11Z</time>
      </trkpt>
      <trkpt lat="44.72577" lon="5.23244">
        <ele>895</ele>
        <time>2019-09-01T08:38:12Z</time>
      </trkpt>
      <trkpt lat="44.72582" lon="5.23252">
        <ele>893</ele>
        <time>2019-09-01T08:38:13Z</time>
      </trkpt>
      <trkpt lat="44.72587" lon="5.23261">
        <ele>898</ele>
        <time>2019-09-01T08:38:14Z</time>
      </trkpt>
      <trkpt lat="44.72592" lon="5.23271">
        <ele>899</ele>
        <time>2019-09-01T08:38:15Z</time>
      </trkpt>
      <trkpt lat="44.72598" lon="5.23282">
        <ele>899</ele>
        <time>2019-09-01T08:38:16Z</time>
      </trkpt>
      <trkpt lat="44.72602" lon="5.23291">
        <ele>899</ele>
        <time>2019-09-01T08:38:17Z</time>
      </trkpt>
      <trkpt lat="44.72606" lon="5.233">
        <ele>898</ele>
        <time>2019-09-01T08:38:18Z</time>
      </trkpt>
      <trkpt lat="44.7261" lon="5.23311">
        <ele>896</ele>
        <time>2019-09-01T08:38:19Z</time>
      </trkpt>
      <trkpt lat="44.72614" lon="5.23323">
        <ele>896</ele>
        <time>2019-09-01T08:38:20Z</time>
      </trkpt>
      <trkpt lat="44.72619" lon="5.23335">
        <ele>882</ele>
        <time>2019-09-01T08:38:21Z</time>
      </trkpt>
      <trkpt lat="44.72622" lon="5.23344">
        <ele>882</ele>
        <time>2019-09-01T08:38:22Z</time>
      </trkpt>
      <trkpt lat="44.72624" lon="5.23349">
        <ele>882</ele>
        <time>2019-09-01T08:38:23Z</time>
      </trkpt>
      <trkpt lat="44.72625" lon="5.23355">
        <ele>882</ele>
        <time>2019-09-01T08:38:24Z</time>
      </trkpt>
      <trkpt lat="44.72623" lon="5.23362">
        <ele>880</ele>
        <time>2019-09-01T08:38:25Z</time>
      </trkpt>
      <trkpt lat="44.7262" lon="5.23366">
        <ele>879</ele>
        <time>2019-09-01T08:38:26Z</time>
      </trkpt>
      <trkpt lat="44.72616" lon="5.23367">
        <ele>878</ele>
        <time>2019-09-01T08:38:27Z</time>
      </trkpt>
      <trkpt lat="44.72612" lon="5.23365">
        <ele>877</ele>
        <time>2019-09-01T08:38:28Z</time>
      </trkpt>
      <trkpt lat="44.72608" lon="5.23362">
        <ele>877</ele>
        <time>2019-09-01T08:38:29Z</time>
      </trkpt>
      <trkpt lat="44.72602" lon="5.2336">
        <ele>876</ele>
        <time>2019-09-01T08:38:30Z</time>
      </trkpt>
      <trkpt lat="44.72595" lon="5.23357">
        <ele>875</ele>
        <time>2019-09-01T08:38:31Z</time>
      </trkpt>
      <trkpt lat="44.72589" lon="5.23353">
        <ele>875</ele>
        <time>2019-09-01T08:38:32Z</time>
      </trkpt>
      <trkpt lat="44.72582" lon="5.23349">
        <ele>859</ele>
        <time>2019-09-01T08:38:33Z</time>
      </trkpt>
      <trkpt lat="44.72576" lon="5.23343">
        <ele>862</ele>
        <time>2019-09-01T08:38:34Z</time>
      </trkpt>
      <trkpt lat="44.72569" lon="5.23336">
        <ele>860</ele>
        <time>2019-09-01T08:38:35Z</time>
      </trkpt>
      <trkpt lat="44.72562" lon="5.2333">
        <ele>869</ele>
        <time>2019-09-01T08:38:36Z</time>
      </trkpt>
      <trkpt lat="44.72555" lon="5.23325">
        <ele>867</ele>
        <time>2019-09-01T08:38:37Z</time>
      </trkpt>
      <trkpt lat="44.72547" lon="5.23318">
        <ele>866</ele>
        <time>2019-09-01T08:38:38Z</time>
      </trkpt>
      <trkpt lat="44.7254" lon="5.23312">
        <ele>864</ele>
        <time>2019-09-01T08:38:39Z</time>
      </trkpt>
      <trkpt lat="44.72532" lon="5.23307">
        <ele>863</ele>
        <time>2019-09-01T08:38:40Z</time>
      </trkpt>
      <trkpt lat="44.72524" lon="5.23301">
        <ele>863</ele>
        <time>2019-09-01T08:38:41Z</time>
      </trkpt>
      <trkpt lat="44.72517" lon="5.23296">
        <ele>862</ele>
        <time>2019-09-01T08:38:42Z</time>
      </trkpt>
      <trkpt lat="44.7251" lon="5.23291">
        <ele>863</ele>
        <time>2019-09-01T08:38:43Z</time>
      </trkpt>
      <trkpt lat="44.72504" lon="5.23287">
        <ele>863</ele>
        <time>2019-09-01T08:38:44Z</time>
      </trkpt>
      <trkpt lat="44.72496" lon="5.23283">
        <ele>846</ele>
        <time>2019-09-01T08:38:45Z</time>
      </trkpt>
      <trkpt lat="44.72488" lon="5.23279">
        <ele>847</ele>
        <time>2019-09-01T08:38:46Z</time>
      </trkpt>
      <trkpt lat="44.7248" lon="5.23274">
        <ele>847</ele>
        <time>2019-09-01T08:38:47Z</time>
      </trkpt>
      <trkpt lat="44.72473" lon="5.23268">
        <ele>846</ele>
        <time>2019-09-01T08:38:48Z</time>
      </trkpt>
      <trkpt lat="44.72467" lon="5.23263">
        <ele>846</ele>
        <time>2019-09-01T08:38:49Z</time>
      </trkpt>
      <trkpt lat="44.72462" lon="5.23259">
        <ele>845</ele>
        <time>2019-09-01T08:38:50Z</time>
      </trkpt>
      <trkpt lat="44.7246" lon="5.23255">
        <ele>845</ele>
        <time>2019-09-01T08:38:51Z</time>
      </trkpt>
      <trkpt lat="44.72461" lon="5.23251">
        <ele>846</ele>
        <time>2019-09-01T08:38:54Z</time>
      </trkpt>
      <trkpt lat="44.72468" lon="5.23254">
        <ele>847</ele>
        <time>2019-09-01T08:38:56Z</time>
      </trkpt>
      <trkpt lat="44.72472" lon="5.23258">
        <ele>848</ele>
        <time>2019-09-01T08:38:57Z</time>
      </trkpt>
      <trkpt lat="44.72477" lon="5.23261">
        <ele>849</ele>
        <time>2019-09-01T08:38:58Z</time>
      </trkpt>
      <trkpt lat="44.72482" lon="5.23265">
        <ele>850</ele>
        <time>2019-09-01T08:38:59Z</time>
      </trkpt>
      <trkpt lat="44.72487" lon="5.2327">
        <ele>849</ele>
        <time>2019-09-01T08:39:00Z</time>
      </trkpt>
      <trkpt lat="44.72492" lon="5.23275">
        <ele>848</ele>
        <time>2019-09-01T08:39:01Z</time>
      </trkpt>
      <trkpt lat="44.72497" lon="5.2328">
        <ele>847</ele>
        <time>2019-09-01T08:39:02Z</time>
      </trkpt>
      <trkpt lat="44.72501" lon="5.23285">
        <ele>863</ele>
        <time>2019-09-01T08:39:03Z</time>
      </trkpt>
      <trkpt lat="44.72505" lon="5.23291">
        <ele>862</ele>
        <time>2019-09-01T08:39:04Z</time>
      </trkpt>
      <trkpt lat="44.72509" lon="5.23298">
        <ele>861</ele>
        <time>2019-09-01T08:39:05Z</time>
      </trkpt>
      <trkpt lat="44.72514" lon="5.23306">
        <ele>859</ele>
        <time>2019-09-01T08:39:06Z</time>
      </trkpt>
      <trkpt lat="44.72518" lon="5.23313">
        <ele>858</ele>
        <time>2019-09-01T08:39:07Z</time>
      </trkpt>
      <trkpt lat="44.72523" lon="5.23319">
        <ele>858</ele>
        <time>2019-09-01T08:39:08Z</time>
      </trkpt>
      <trkpt lat="44.72527" lon="5.23327">
        <ele>858</ele>
        <time>2019-09-01T08:39:09Z</time>
      </trkpt>
      <trkpt lat="44.72532" lon="5.23333">
        <ele>845</ele>
        <time>2019-09-01T08:39:10Z</time>
      </trkpt>
      <trkpt lat="44.72537" lon="5.23343">
        <ele>846</ele>
        <time>2019-09-01T08:39:11Z</time>
      </trkpt>
      <trkpt lat="44.72541" lon="5.23352">
        <ele>846</ele>
        <time>2019-09-01T08:39:12Z</time>
      </trkpt>
      <trkpt lat="44.72546" lon="5.23363">
        <ele>846</ele>
        <time>2019-09-01T08:39:13Z</time>
      </trkpt>
      <trkpt lat="44.72551" lon="5.23374">
        <ele>845</ele>
        <time>2019-09-01T08:39:14Z</time>
      </trkpt>
      <trkpt lat="44.72555" lon="5.23384">
        <ele>844</ele>
        <time>2019-09-01T08:39:15Z</time>
      </trkpt>
      <trkpt lat="44.72559" lon="5.23393">
        <ele>844</ele>
        <time>2019-09-01T08:39:16Z</time>
      </trkpt>
      <trkpt lat="44.72562" lon="5.23401">
        <ele>844</ele>
        <time>2019-09-01T08:39:17Z</time>
      </trkpt>
      <trkpt lat="44.72566" lon="5.23407">
        <ele>844</ele>
        <time>2019-09-01T08:39:18Z</time>
      </trkpt>
      <trkpt lat="44.72568" lon="5.23414">
        <ele>844</ele>
        <time>2019-09-01T08:39:19Z</time>
      </trkpt>
      <trkpt lat="44.72568" lon="5.2342">
        <ele>838</ele>
        <time>2019-09-01T08:39:20Z</time>
      </trkpt>
      <trkpt lat="44.72565" lon="5.23423">
        <ele>837</ele>
        <time>2019-09-01T08:39:21Z</time>
      </trkpt>
      <trkpt lat="44.72559" lon="5.23421">
        <ele>835</ele>
        <time>2019-09-01T08:39:22Z</time>
      </trkpt>
      <trkpt lat="44.72555" lon="5.23419">
        <ele>833</ele>
        <time>2019-09-01T08:39:23Z</time>
      </trkpt>
      <trkpt lat="44.72549" lon="5.23416">
        <ele>840</ele>
        <time>2019-09-01T08:39:24Z</time>
      </trkpt>
      <trkpt lat="44.72543" lon="5.23414">
        <ele>839</ele>
        <time>2019-09-01T08:39:25Z</time>
      </trkpt>
      <trkpt lat="44.72536" lon="5.2341">
        <ele>837</ele>
        <time>2019-09-01T08:39:26Z</time>
      </trkpt>
      <trkpt lat="44.72528" lon="5.23407">
        <ele>835</ele>
        <time>2019-09-01T08:39:27Z</time>
      </trkpt>
      <trkpt lat="44.72521" lon="5.23403">
        <ele>833</ele>
        <time>2019-09-01T08:39:28Z</time>
      </trkpt>
      <trkpt lat="44.72515" lon="5.23399">
        <ele>831</ele>
        <time>2019-09-01T08:39:29Z</time>
      </trkpt>
      <trkpt lat="44.7251" lon="5.23395">
        <ele>832</ele>
        <time>2019-09-01T08:39:30Z</time>
      </trkpt>
      <trkpt lat="44.72506" lon="5.2339">
        <ele>833</ele>
        <time>2019-09-01T08:39:31Z</time>
      </trkpt>
      <trkpt lat="44.72501" lon="5.23386">
        <ele>834</ele>
        <time>2019-09-01T08:39:32Z</time>
      </trkpt>
      <trkpt lat="44.72495" lon="5.23382">
        <ele>815</ele>
        <time>2019-09-01T08:39:33Z</time>
      </trkpt>
      <trkpt lat="44.72489" lon="5.23378">
        <ele>815</ele>
        <time>2019-09-01T08:39:34Z</time>
      </trkpt>
      <trkpt lat="44.72482" lon="5.23373">
        <ele>815</ele>
        <time>2019-09-01T08:39:35Z</time>
      </trkpt>
      <trkpt lat="44.72476" lon="5.2337">
        <ele>815</ele>
        <time>2019-09-01T08:39:36Z</time>
      </trkpt>
      <trkpt lat="44.72468" lon="5.23366">
        <ele>814</ele>
        <time>2019-09-01T08:39:37Z</time>
      </trkpt>
      <trkpt lat="44.72459" lon="5.23363">
        <ele>813</ele>
        <time>2019-09-01T08:39:38Z</time>
      </trkpt>
      <trkpt lat="44.72451" lon="5.23359">
        <ele>812</ele>
        <time>2019-09-01T08:39:39Z</time>
      </trkpt>
      <trkpt lat="44.72442" lon="5.23355">
        <ele>811</ele>
        <time>2019-09-01T08:39:40Z</time>
      </trkpt>
      <trkpt lat="44.72435" lon="5.23351">
        <ele>811</ele>
        <time>2019-09-01T08:39:41Z</time>
      </trkpt>
      <trkpt lat="44.72429" lon="5.23347">
        <ele>810</ele>
        <time>2019-09-01T08:39:42Z</time>
      </trkpt>
      <trkpt lat="44.72423" lon="5.23345">
        <ele>810</ele>
        <time>2019-09-01T08:39:43Z</time>
      </trkpt>
      <trkpt lat="44.72418" lon="5.23345">
        <ele>810</ele>
        <time>2019-09-01T08:39:44Z</time>
      </trkpt>
      <trkpt lat="44.72412" lon="5.23345">
        <ele>803</ele>
        <time>2019-09-01T08:39:45Z</time>
      </trkpt>
      <trkpt lat="44.72405" lon="5.23346">
        <ele>801</ele>
        <time>2019-09-01T08:39:46Z</time>
      </trkpt>
      <trkpt lat="44.72398" lon="5.23346">
        <ele>799</ele>
        <time>2019-09-01T08:39:47Z</time>
      </trkpt>
      <trkpt lat="44.7239" lon="5.23346">
        <ele>798</ele>
        <time>2019-09-01T08:39:48Z</time>
      </trkpt>
      <trkpt lat="44.72382" lon="5.23346">
        <ele>797</ele>
        <time>2019-09-01T08:39:49Z</time>
      </trkpt>
      <trkpt lat="44.72374" lon="5.23347">
        <ele>796</ele>
        <time>2019-09-01T08:39:50Z</time>
      </trkpt>
      <trkpt lat="44.72365" lon="5.23348">
        <ele>796</ele>
        <time>2019-09-01T08:39:51Z</time>
      </trkpt>
      <trkpt lat="44.72357" lon="5.23349">
        <ele>796</ele>
        <time>2019-09-01T08:39:52Z</time>
      </trkpt>
      <trkpt lat="44.7235" lon="5.2335">
        <ele>796</ele>
        <time>2019-09-01T08:39:53Z</time>
      </trkpt>
      <trkpt lat="44.72341" lon="5.2335">
        <ele>796</ele>
        <time>2019-09-01T08:39:54Z</time>
      </trkpt>
      <trkpt lat="44.72332" lon="5.23351">
        <ele>792</ele>
        <time>2019-09-01T08:39:55Z</time>
      </trkpt>
      <trkpt lat="44.72323" lon="5.23351">
        <ele>791</ele>
        <time>2019-09-01T08:39:56Z</time>
      </trkpt>
      <trkpt lat="44.72314" lon="5.23351">
        <ele>789</ele>
        <time>2019-09-01T08:39:57Z</time>
      </trkpt>
      <trkpt lat="44.72305" lon="5.23352">
        <ele>787</ele>
        <time>2019-09-01T08:39:58Z</time>
      </trkpt>
      <trkpt lat="44.72297" lon="5.23353">
        <ele>786</ele>
        <time>2019-09-01T08:39:59Z</time>
      </trkpt>
      <trkpt lat="44.72291" lon="5.23352">
        <ele>785</ele>
        <time>2019-09-01T08:40:00Z</time>
      </trkpt>
      <trkpt lat="44.72286" lon="5.2335">
        <ele>785</ele>
        <time>2019-09-01T08:40:01Z</time>
      </trkpt>
      <trkpt lat="44.72282" lon="5.2335">
        <ele>785</ele>
        <time>2019-09-01T08:40:02Z</time>
      </trkpt>
      <trkpt lat="44.72276" lon="5.2335">
        <ele>785</ele>
        <time>2019-09-01T08:40:03Z</time>
      </trkpt>
      <trkpt lat="44.72269" lon="5.2335">
        <ele>785</ele>
        <time>2019-09-01T08:40:04Z</time>
      </trkpt>
      <trkpt lat="44.72262" lon="5.23349">
        <ele>786</ele>
        <time>2019-09-01T08:40:05Z</time>
      </trkpt>
      <trkpt lat="44.72254" lon="5.2335">
        <ele>786</ele>
        <time>2019-09-01T08:40:06Z</time>
      </trkpt>
      <trkpt lat="44.72245" lon="5.23352">
        <ele>781</ele>
        <time>2019-09-01T08:40:07Z</time>
      </trkpt>
      <trkpt lat="44.72235" lon="5.23353">
        <ele>779</ele>
        <time>2019-09-01T08:40:08Z</time>
      </trkpt>
      <trkpt lat="44.72224" lon="5.23353">
        <ele>778</ele>
        <time>2019-09-01T08:40:09Z</time>
      </trkpt>
      <trkpt lat="44.72214" lon="5.23353">
        <ele>776</ele>
        <time>2019-09-01T08:40:10Z</time>
      </trkpt>
      <trkpt lat="44.72204" lon="5.23354">
        <ele>776</ele>
        <time>2019-09-01T08:40:11Z</time>
      </trkpt>
      <trkpt lat="44.72197" lon="5.23357">
        <ele>775</ele>
        <time>2019-09-01T08:40:12Z</time>
      </trkpt>
      <trkpt lat="44.72192" lon="5.23357">
        <ele>775</ele>
        <time>2019-09-01T08:40:13Z</time>
      </trkpt>
      <trkpt lat="44.72198" lon="5.23355">
        <ele>776</ele>
        <time>2019-09-01T08:40:18Z</time>
      </trkpt>
      <trkpt lat="44.72202" lon="5.23352">
        <ele>776</ele>
        <time>2019-09-01T08:40:19Z</time>
      </trkpt>
      <trkpt lat="44.72208" lon="5.23351">
        <ele>776</ele>
        <time>2019-09-01T08:40:20Z</time>
      </trkpt>
      <trkpt lat="44.72214" lon="5.23351">
        <ele>777</ele>
        <time>2019-09-01T08:40:21Z</time>
      </trkpt>
      <trkpt lat="44.72221" lon="5.23352">
        <ele>777</ele>
        <time>2019-09-01T08:40:22Z</time>
      </trkpt>
      <trkpt lat="44.72227" lon="5.23355">
        <ele>778</ele>
        <time>2019-09-01T08:40:23Z</time>
      </trkpt>
      <trkpt lat="44.72235" lon="5.23358">
        <ele>778</ele>
        <time>2019-09-01T08:40:24Z</time>
      </trkpt>
      <trkpt lat="44.72241" lon="5.2336">
        <ele>778</ele>
        <time>2019-09-01T08:40:25Z</time>
      </trkpt>
      <trkpt lat="44.72248" lon="5.23362">
        <ele>778</ele>
        <time>2019-09-01T08:40:26Z</time>
      </trkpt>
      <trkpt lat="44.72254" lon="5.23364">
        <ele>782</ele>
        <time>2019-09-01T08:40:27Z</time>
      </trkpt>
      <trkpt lat="44.7226" lon="5.23368">
        <ele>781</ele>
        <time>2019-09-01T08:40:28Z</time>
      </trkpt>
      <trkpt lat="44.72265" lon="5.23373">
        <ele>780</ele>
        <time>2019-09-01T08:40:29Z</time>
      </trkpt>
      <trkpt lat="44.72271" lon="5.23378">
        <ele>779</ele>
        <time>2019-09-01T08:40:30Z</time>
      </trkpt>
      <trkpt lat="44.72279" lon="5.23385">
        <ele>778</ele>
        <time>2019-09-01T08:40:31Z</time>
      </trkpt>
      <trkpt lat="44.72287" lon="5.2339">
        <ele>778</ele>
        <time>2019-09-01T08:40:32Z</time>
      </trkpt>
      <trkpt lat="44.72295" lon="5.23393">
        <ele>778</ele>
        <time>2019-09-01T08:40:33Z</time>
      </trkpt>
      <trkpt lat="44.72304" lon="5.23396">
        <ele>778</ele>
        <time>2019-09-01T08:40:34Z</time>
      </trkpt>
      <trkpt lat="44.72312" lon="5.234">
        <ele>777</ele>
        <time>2019-09-01T08:40:35Z</time>
      </trkpt>
      <trkpt lat="44.72319" lon="5.23404">
        <ele>776</ele>
        <time>2019-09-01T08:40:36Z</time>
      </trkpt>
      <trkpt lat="44.72328" lon="5.23409">
        <ele>774</ele>
        <time>2019-09-01T08:40:37Z</time>
      </trkpt>
      <trkpt lat="44.72337" lon="5.23414">
        <ele>773</ele>
        <time>2019-09-01T08:40:38Z</time>
      </trkpt>
      <trkpt lat="44.72345" lon="5.2342">
        <ele>768</ele>
        <time>2019-09-01T08:40:39Z</time>
      </trkpt>
      <trkpt lat="44.72352" lon="5.23423">
        <ele>768</ele>
        <time>2019-09-01T08:40:40Z</time>
      </trkpt>
      <trkpt lat="44.72358" lon="5.23427">
        <ele>768</ele>
        <time>2019-09-01T08:40:41Z</time>
      </trkpt>
      <trkpt lat="44.72363" lon="5.23431">
        <ele>768</ele>
        <time>2019-09-01T08:40:42Z</time>
      </trkpt>
      <trkpt lat="44.72367" lon="5.23437">
        <ele>768</ele>
        <time>2019-09-01T08:40:43Z</time>
      </trkpt>
      <trkpt lat="44.72367" lon="5.23444">
        <ele>767</ele>
        <time>2019-09-01T08:40:44Z</time>
      </trkpt>
      <trkpt lat="44.72365" lon="5.23451">
        <ele>766</ele>
        <time>2019-09-01T08:40:45Z</time>
      </trkpt>
      <trkpt lat="44.72363" lon="5.23456">
        <ele>765</ele>
        <time>2019-09-01T08:40:46Z</time>
      </trkpt>
      <trkpt lat="44.7236" lon="5.23462">
        <ele>764</ele>
        <time>2019-09-01T08:40:47Z</time>
      </trkpt>
      <trkpt lat="44.72355" lon="5.23468">
        <ele>762</ele>
        <time>2019-09-01T08:40:48Z</time>
      </trkpt>
      <trkpt lat="44.72349" lon="5.23472">
        <ele>760</ele>
        <time>2019-09-01T08:40:49Z</time>
      </trkpt>
      <trkpt lat="44.72341" lon="5.23476">
        <ele>758</ele>
        <time>2019-09-01T08:40:50Z</time>
      </trkpt>
      <trkpt lat="44.72333" lon="5.23478">
        <ele>749</ele>
        <time>2019-09-01T08:40:51Z</time>
      </trkpt>
      <trkpt lat="44.72324" lon="5.2348">
        <ele>749</ele>
        <time>2019-09-01T08:40:52Z</time>
      </trkpt>
      <trkpt lat="44.72315" lon="5.23482">
        <ele>749</ele>
        <time>2019-09-01T08:40:53Z</time>
      </trkpt>
      <trkpt lat="44.72306" lon="5.23485">
        <ele>748</ele>
        <time>2019-09-01T08:40:54Z</time>
      </trkpt>
      <trkpt lat="44.72296" lon="5.23486">
        <ele>748</ele>
        <time>2019-09-01T08:40:55Z</time>
      </trkpt>
      <trkpt lat="44.72285" lon="5.23487">
        <ele>747</ele>
        <time>2019-09-01T08:40:56Z</time>
      </trkpt>
      <trkpt lat="44.72276" lon="5.23488">
        <ele>745</ele>
        <time>2019-09-01T08:40:57Z</time>
      </trkpt>
      <trkpt lat="44.72268" lon="5.23489">
        <ele>743</ele>
        <time>2019-09-01T08:40:58Z</time>
      </trkpt>
      <trkpt lat="44.72259" lon="5.23489">
        <ele>741</ele>
        <time>2019-09-01T08:40:59Z</time>
      </trkpt>
      <trkpt lat="44.72251" lon="5.2349">
        <ele>739</ele>
        <time>2019-09-01T08:41:00Z</time>
      </trkpt>
      <trkpt lat="44.72244" lon="5.2349">
        <ele>737</ele>
        <time>2019-09-01T08:41:01Z</time>
      </trkpt>
      <trkpt lat="44.72237" lon="5.23491">
        <ele>737</ele>
        <time>2019-09-01T08:41:02Z</time>
      </trkpt>
      <trkpt lat="44.72229" lon="5.23493">
        <ele>738</ele>
        <time>2019-09-01T08:41:03Z</time>
      </trkpt>
      <trkpt lat="44.7222" lon="5.23495">
        <ele>738</ele>
        <time>2019-09-01T08:41:04Z</time>
      </trkpt>
      <trkpt lat="44.72211" lon="5.23496">
        <ele>737</ele>
        <time>2019-09-01T08:41:05Z</time>
      </trkpt>
      <trkpt lat="44.72203" lon="5.23499">
        <ele>736</ele>
        <time>2019-09-01T08:41:06Z</time>
      </trkpt>
      <trkpt lat="44.72195" lon="5.23501">
        <ele>722</ele>
        <time>2019-09-01T08:41:07Z</time>
      </trkpt>
      <trkpt lat="44.72187" lon="5.23504">
        <ele>722</ele>
        <time>2019-09-01T08:41:08Z</time>
      </trkpt>
      <trkpt lat="44.72179" lon="5.23507">
        <ele>722</ele>
        <time>2019-09-01T08:41:09Z</time>
      </trkpt>
      <trkpt lat="44.72171" lon="5.23509">
        <ele>722</ele>
        <time>2019-09-01T08:41:10Z</time>
      </trkpt>
      <trkpt lat="44.72164" lon="5.23511">
        <ele>717</ele>
        <time>2019-09-01T08:41:11Z</time>
      </trkpt>
      <trkpt lat="44.72156" lon="5.23512">
        <ele>716</ele>
        <time>2019-09-01T08:41:12Z</time>
      </trkpt>
      <trkpt lat="44.72148" lon="5.23513">
        <ele>714</ele>
        <time>2019-09-01T08:41:13Z</time>
      </trkpt>
      <trkpt lat="44.72139" lon="5.23513">
        <ele>712</ele>
        <time>2019-09-01T08:41:14Z</time>
      </trkpt>
      <trkpt lat="44.72131" lon="5.23513">
        <ele>711</ele>
        <time>2019-09-01T08:41:15Z</time>
      </trkpt>
      <trkpt lat="44.72125" lon="5.23514">
        <ele>711</ele>
        <time>2019-09-01T08:41:16Z</time>
      </trkpt>
      <trkpt lat="44.7212" lon="5.23514">
        <ele>710</ele>
        <time>2019-09-01T08:41:17Z</time>
      </trkpt>
      <trkpt lat="44.72118" lon="5.23513">
        <ele>710</ele>
        <time>2019-09-01T08:41:19Z</time>
      </trkpt>
      <trkpt lat="44.72122" lon="5.2351">
        <ele>711</ele>
        <time>2019-09-01T08:41:22Z</time>
      </trkpt>
      <trkpt lat="44.72125" lon="5.23511">
        <ele>711</ele>
        <time>2019-09-01T08:41:23Z</time>
      </trkpt>
      <trkpt lat="44.7213" lon="5.2351">
        <ele>711</ele>
        <time>2019-09-01T08:41:24Z</time>
      </trkpt>
      <trkpt lat="44.72135" lon="5.23511">
        <ele>712</ele>
        <time>2019-09-01T08:41:25Z</time>
      </trkpt>
      <trkpt lat="44.7214" lon="5.23514">
        <ele>712</ele>
        <time>2019-09-01T08:41:26Z</time>
      </trkpt>
      <trkpt lat="44.72145" lon="5.23518">
        <ele>712</ele>
        <time>2019-09-01T08:41:27Z</time>
      </trkpt>
      <trkpt lat="44.7215" lon="5.23522">
        <ele>712</ele>
        <time>2019-09-01T08:41:28Z</time>
      </trkpt>
      <trkpt lat="44.72156" lon="5.23524">
        <ele>713</ele>
        <time>2019-09-01T08:41:29Z</time>
      </trkpt>
      <trkpt lat="44.72163" lon="5.23525">
        <ele>713</ele>
        <time>2019-09-01T08:41:30Z</time>
      </trkpt>
      <trkpt lat="44.72169" lon="5.23526">
        <ele>720</ele>
        <time>2019-09-01T08:41:31Z</time>
      </trkpt>
      <trkpt lat="44.72177" lon="5.23527">
        <ele>720</ele>
        <time>2019-09-01T08:41:32Z</time>
      </trkpt>
      <trkpt lat="44.72185" lon="5.23528">
        <ele>720</ele>
        <time>2019-09-01T08:41:33Z</time>
      </trkpt>
      <trkpt lat="44.72193" lon="5.2353">
        <ele>720</ele>
        <time>2019-09-01T08:41:34Z</time>
      </trkpt>
      <trkpt lat="44.72201" lon="5.23532">
        <ele>720</ele>
        <time>2019-09-01T08:41:35Z</time>
      </trkpt>
      <trkpt lat="44.72209" lon="5.23534">
        <ele>721</ele>
        <time>2019-09-01T08:41:36Z</time>
      </trkpt>
      <trkpt lat="44.72216" lon="5.23536">
        <ele>721</ele>
        <time>2019-09-01T08:41:37Z</time>
      </trkpt>
      <trkpt lat="44.72223" lon="5.23538">
        <ele>721</ele>
        <time>2019-09-01T08:41:38Z</time>
      </trkpt>
      <trkpt lat="44.72228" lon="5.23541">
        <ele>721</ele>
        <time>2019-09-01T08:41:39Z</time>
      </trkpt>
      <trkpt lat="44.72232" lon="5.23545">
        <ele>721</ele>
        <time>2019-09-01T08:41:40Z</time>
      </trkpt>
      <trkpt lat="44.72233" lon="5.23551">
        <ele>721</ele>
        <time>2019-09-01T08:41:41Z</time>
      </trkpt>
      <trkpt lat="44.72233" lon="5.23557">
        <ele>720</ele>
        <time>2019-09-01T08:41:42Z</time>
      </trkpt>
      <trkpt lat="44.72232" lon="5.23563">
        <ele>720</ele>
        <time>2019-09-01T08:41:43Z</time>
      </trkpt>
      <trkpt lat="44.7223" lon="5.23569">
        <ele>720</ele>
        <time>2019-09-01T08:41:44Z</time>
      </trkpt>
      <trkpt lat="44.72228" lon="5.23576">
        <ele>719</ele>
        <time>2019-09-01T08:41:45Z</time>
      </trkpt>
      <trkpt lat="44.72225" lon="5.23584">
        <ele>717</ele>
        <time>2019-09-01T08:41:46Z</time>
      </trkpt>
      <trkpt lat="44.72221" lon="5.23591">
        <ele>716</ele>
        <time>2019-09-01T08:41:47Z</time>
      </trkpt>
      <trkpt lat="44.72217" lon="5.23597">
        <ele>715</ele>
        <time>2019-09-01T08:41:48Z</time>
      </trkpt>
      <trkpt lat="44.72213" lon="5.23603">
        <ele>715</ele>
        <time>2019-09-01T08:41:49Z</time>
      </trkpt>
      <trkpt lat="44.72208" lon="5.23608">
        <ele>714</ele>
        <time>2019-09-01T08:41:50Z</time>
      </trkpt>
      <trkpt lat="44.72202" lon="5.23615">
        <ele>713</ele>
        <time>2019-09-01T08:41:51Z</time>
      </trkpt>
      <trkpt lat="44.72195" lon="5.23621">
        <ele>713</ele>
        <time>2019-09-01T08:41:52Z</time>
      </trkpt>
      <trkpt lat="44.72189" lon="5.23629">
        <ele>712</ele>
        <time>2019-09-01T08:41:53Z</time>
      </trkpt>
      <trkpt lat="44.72184" lon="5.23637">
        <ele>711</ele>
        <time>2019-09-01T08:41:54Z</time>
      </trkpt>
      <trkpt lat="44.72178" lon="5.23646">
        <ele>709</ele>
        <time>2019-09-01T08:41:55Z</time>
      </trkpt>
      <trkpt lat="44.72171" lon="5.23654">
        <ele>706</ele>
        <time>2019-09-01T08:41:56Z</time>
      </trkpt>
      <trkpt lat="44.72164" lon="5.2366">
        <ele>697</ele>
        <time>2019-09-01T08:41:57Z</time>
      </trkpt>
      <trkpt lat="44.72158" lon="5.23665">
        <ele>697</ele>
        <time>2019-09-01T08:41:58Z</time>
      </trkpt>
      <trkpt lat="44.72154" lon="5.23671">
        <ele>696</ele>
        <time>2019-09-01T08:41:59Z</time>
      </trkpt>
      <trkpt lat="44.72151" lon="5.23678">
        <ele>695</ele>
        <time>2019-09-01T08:42:00Z</time>
      </trkpt>
      <trkpt lat="44.72147" lon="5.23685">
        <ele>694</ele>
        <time>2019-09-01T08:42:01Z</time>
      </trkpt>
      <trkpt lat="44.72143" lon="5.2369">
        <ele>694</ele>
        <time>2019-09-01T08:42:02Z</time>
      </trkpt>
      <trkpt lat="44.72139" lon="5.23696">
        <ele>693</ele>
        <time>2019-09-01T08:42:03Z</time>
      </trkpt>
      <trkpt lat="44.72135" lon="5.23703">
        <ele>693</ele>
        <time>2019-09-01T08:42:04Z</time>
      </trkpt>
      <trkpt lat="44.72131" lon="5.2371">
        <ele>692</ele>
        <time>2019-09-01T08:42:05Z</time>
      </trkpt>
      <trkpt lat="44.72126" lon="5.23717">
        <ele>692</ele>
        <time>2019-09-01T08:42:06Z</time>
      </trkpt>
      <trkpt lat="44.72122" lon="5.23723">
        <ele>691</ele>
        <time>2019-09-01T08:42:07Z</time>
      </trkpt>
      <trkpt lat="44.72117" lon="5.23729">
        <ele>690</ele>
        <time>2019-09-01T08:42:08Z</time>
      </trkpt>
      <trkpt lat="44.72113" lon="5.23736">
        <ele>689</ele>
        <time>2019-09-01T08:42:09Z</time>
      </trkpt>
      <trkpt lat="44.72109" lon="5.23741">
        <ele>688</ele>
        <time>2019-09-01T08:42:10Z</time>
      </trkpt>
      <trkpt lat="44.72104" lon="5.23748">
        <ele>686</ele>
        <time>2019-09-01T08:42:11Z</time>
      </trkpt>
      <trkpt lat="44.721" lon="5.23755">
        <ele>695</ele>
        <time>2019-09-01T08:42:12Z</time>
      </trkpt>
      <trkpt lat="44.72095" lon="5.23762">
        <ele>695</ele>
        <time>2019-09-01T08:42:13Z</time>
      </trkpt>
      <trkpt lat="44.72087" lon="5.23768">
        <ele>696</ele>
        <time>2019-09-01T08:42:14Z</time>
      </trkpt>
      <trkpt lat="44.72079" lon="5.23773">
        <ele>680</ele>
        <time>2019-09-01T08:42:15Z</time>
      </trkpt>
      <trkpt lat="44.72071" lon="5.23778">
        <ele>681</ele>
        <time>2019-09-01T08:42:16Z</time>
      </trkpt>
      <trkpt lat="44.72062" lon="5.23782">
        <ele>681</ele>
        <time>2019-09-01T08:42:17Z</time>
      </trkpt>
      <trkpt lat="44.72056" lon="5.23784">
        <ele>681</ele>
        <time>2019-09-01T08:42:18Z</time>
      </trkpt>
      <trkpt lat="44.72049" lon="5.23783">
        <ele>680</ele>
        <time>2019-09-01T08:42:19Z</time>
      </trkpt>
      <trkpt lat="44.72044" lon="5.2378">
        <ele>678</ele>
        <time>2019-09-01T08:42:20Z</time>
      </trkpt>
      <trkpt lat="44.72041" lon="5.23777">
        <ele>677</ele>
        <time>2019-09-01T08:42:21Z</time>
      </trkpt>
      <trkpt lat="44.72042" lon="5.23772">
        <ele>676</ele>
        <time>2019-09-01T08:42:23Z</time>
      </trkpt>
      <trkpt lat="44.72043" lon="5.23768">
        <ele>676</ele>
        <time>2019-09-01T08:42:24Z</time>
      </trkpt>
      <trkpt lat="44.72044" lon="5.23763">
        <ele>675</ele>
        <time>2019-09-01T08:42:25Z</time>
      </trkpt>
      <trkpt lat="44.72046" lon="5.23755">
        <ele>675</ele>
        <time>2019-09-01T08:42:26Z</time>
      </trkpt>
      <trkpt lat="44.72047" lon="5.23747">
        <ele>663</ele>
        <time>2019-09-01T08:42:27Z</time>
      </trkpt>
      <trkpt lat="44.72048" lon="5.23741">
        <ele>663</ele>
        <time>2019-09-01T08:42:28Z</time>
      </trkpt>
      <trkpt lat="44.72048" lon="5.23735">
        <ele>663</ele>
        <time>2019-09-01T08:42:29Z</time>
      </trkpt>
      <trkpt lat="44.72047" lon="5.23727">
        <ele>662</ele>
        <time>2019-09-01T08:42:30Z</time>
      </trkpt>
      <trkpt lat="44.72047" lon="5.23723">
        <ele>662</ele>
        <time>2019-09-01T08:42:31Z</time>
      </trkpt>
      <trkpt lat="44.72048" lon="5.23727">
        <ele>663</ele>
        <time>2019-09-01T08:42:33Z</time>
      </trkpt>
      <trkpt lat="44.72049" lon="5.23731">
        <ele>663</ele>
        <time>2019-09-01T08:42:34Z</time>
      </trkpt>
      <trkpt lat="44.7205" lon="5.23735">
        <ele>663</ele>
        <time>2019-09-01T08:42:35Z</time>
      </trkpt>
      <trkpt lat="44.72049" lon="5.2374">
        <ele>663</ele>
        <time>2019-09-01T08:42:36Z</time>
      </trkpt>
      <trkpt lat="44.72045" lon="5.23745">
        <ele>663</ele>
        <time>2019-09-01T08:42:37Z</time>
      </trkpt>
      <trkpt lat="44.72041" lon="5.2375">
        <ele>673</ele>
        <time>2019-09-01T08:42:38Z</time>
      </trkpt>
      <trkpt lat="44.72035" lon="5.23754">
        <ele>672</ele>
        <time>2019-09-01T08:42:39Z</time>
      </trkpt>
      <trkpt lat="44.7203" lon="5.23757">
        <ele>671</ele>
        <time>2019-09-01T08:42:40Z</time>
      </trkpt>
      <trkpt lat="44.72025" lon="5.23759">
        <ele>669</ele>
        <time>2019-09-01T08:42:41Z</time>
      </trkpt>
      <trkpt lat="44.72022" lon="5.2376">
        <ele>668</ele>
        <time>2019-09-01T08:42:42Z</time>
      </trkpt>
      <trkpt lat="44.72019" lon="5.23762">
        <ele>667</ele>
        <time>2019-09-01T08:42:43Z</time>
      </trkpt>
      <trkpt lat="44.72015" lon="5.23761">
        <ele>666</ele>
        <time>2019-09-01T08:42:44Z</time>
      </trkpt>
      <trkpt lat="44.72012" lon="5.23758">
        <ele>662</ele>
        <time>2019-09-01T08:42:46Z</time>
      </trkpt>
      <trkpt lat="44.72011" lon="5.23754">
        <ele>661</ele>
        <time>2019-09-01T08:42:48Z</time>
      </trkpt>
      <trkpt lat="44.72011" lon="5.23749">
        <ele>653</ele>
        <time>2019-09-01T08:42:54Z</time>
      </trkpt>
      <trkpt lat="44.72011" lon="5.23745">
        <ele>654</ele>
        <time>2019-09-01T08:43:00Z</time>
      </trkpt>
      <trkpt lat="44.72013" lon="5.23742">
        <ele>655</ele>
        <time>2019-09-01T08:43:03Z</time>
      </trkpt>
      <trkpt lat="44.72017" lon="5.23739">
        <ele>656</ele>
        <time>2019-09-01T08:43:07Z</time>
      </trkpt>
      <trkpt lat="44.72018" lon="5.23735">
        <ele>657</ele>
        <time>2019-09-01T08:44:11Z</time>
      </trkpt>
      <trkpt lat="44.7202" lon="5.23732">
        <ele>657</ele>
        <time>2019-09-01T08:44:13Z</time>
      </trkpt>
      <trkpt lat="44.72022" lon="5.23728">
        <ele>658</ele>
        <time>2019-09-01T08:44:16Z</time>
      </trkpt>
      <trkpt lat="44.72025" lon="5.23725">
        <ele>659</ele>
        <time>2019-09-01T08:44:19Z</time>
      </trkpt>
      <trkpt lat="44.72027" lon="5.23721">
        <ele>659</ele>
        <time>2019-09-01T08:44:21Z</time>
      </trkpt>
      <trkpt lat="44.72029" lon="5.23716">
        <ele>660</ele>
        <time>2019-09-01T08:44:23Z</time>
      </trkpt>
      <trkpt lat="44.7203" lon="5.23712">
        <ele>660</ele>
        <time>2019-09-01T08:44:25Z</time>
      </trkpt>
      <trkpt lat="44.72033" lon="5.23707">
        <ele>660</ele>
        <time>2019-09-01T08:44:27Z</time>
      </trkpt>
      <trkpt lat="44.72035" lon="5.23703">
        <ele>660</ele>
        <time>2019-09-01T08:44:29Z</time>
      </trkpt>
      <trkpt lat="44.72037" lon="5.23699">
        <ele>661</ele>
        <time>2019-09-01T08:44:31Z</time>
      </trkpt>
      <trkpt lat="44.7204" lon="5.23695">
        <ele>661</ele>
        <time>2019-09-01T08:44:33Z</time>
      </trkpt>
      <trkpt lat="44.72043" lon="5.23691">
        <ele>661</ele>
        <time>2019-09-01T08:44:35Z</time>
      </trkpt>
      <trkpt lat="44.72044" lon="5.23686">
        <ele>661</ele>
        <time>2019-09-01T08:44:38Z</time>
      </trkpt>
      <trkpt lat="44.72045" lon="5.23682">
        <ele>661</ele>
        <time>2019-09-01T08:44:40Z</time>
      </trkpt>
      <trkpt lat="44.72046" lon="5.23678">
        <ele>661</ele>
        <time>2019-09-01T08:44:43Z</time>
      </trkpt>
      <trkpt lat="44.72043" lon="5.23678">
        <ele>661</ele>
        <time>2019-09-01T08:44:50Z</time>
      </trkpt>
      <trkpt lat="44.72041" lon="5.23681">
        <ele>661</ele>
        <time>2019-09-01T08:44:53Z</time>
      </trkpt>
      <trkpt lat="44.72038" lon="5.23683">
        <ele>660</ele>
        <time>2019-09-01T08:44:57Z</time>
      </trkpt>
      <trkpt lat="44.72034" lon="5.23684">
        <ele>660</ele>
        <time>2019-09-01T08:44:59Z</time>
      </trkpt>
      <trkpt lat="44.72029" lon="5.23682">
        <ele>659</ele>
        <time>2019-09-01T08:45:01Z</time>
      </trkpt>
      <trkpt lat="44.72025" lon="5.2368">
        <ele>658</ele>
        <time>2019-09-01T08:45:03Z</time>
      </trkpt>
      <trkpt lat="44.72022" lon="5.23677">
        <ele>658</ele>
        <time>2019-09-01T08:45:05Z</time>
      </trkpt>
      <trkpt lat="44.72018" lon="5.23674">
        <ele>657</ele>
        <time>2019-09-01T08:45:07Z</time>
      </trkpt>
      <trkpt lat="44.72015" lon="5.23671">
        <ele>656</ele>
        <time>2019-09-01T08:45:09Z</time>
      </trkpt>
      <trkpt lat="44.72011" lon="5.23669">
        <ele>655</ele>
        <time>2019-09-01T08:45:11Z</time>
      </trkpt>
      <trkpt lat="44.72008" lon="5.23665">
        <ele>657</ele>
        <time>2019-09-01T08:45:13Z</time>
      </trkpt>
      <trkpt lat="44.72006" lon="5.23661">
        <ele>657</ele>
        <time>2019-09-01T08:45:15Z</time>
      </trkpt>
      <trkpt lat="44.72003" lon="5.23659">
        <ele>658</ele>
        <time>2019-09-01T08:45:17Z</time>
      </trkpt>
      <trkpt lat="44.72001" lon="5.23655">
        <ele>659</ele>
        <time>2019-09-01T08:45:19Z</time>
      </trkpt>
      <trkpt lat="44.71999" lon="5.23652">
        <ele>656</ele>
        <time>2019-09-01T08:45:21Z</time>
      </trkpt>
      <trkpt lat="44.71995" lon="5.23649">
        <ele>656</ele>
        <time>2019-09-01T08:45:23Z</time>
      </trkpt>
      <trkpt lat="44.71991" lon="5.23646">
        <ele>657</ele>
        <time>2019-09-01T08:45:25Z</time>
      </trkpt>
      <trkpt lat="44.71988" lon="5.23643">
        <ele>658</ele>
        <time>2019-09-01T08:45:27Z</time>
      </trkpt>
      <trkpt lat="44.71985" lon="5.2364">
        <ele>658</ele>
        <time>2019-09-01T08:45:29Z</time>
      </trkpt>
      <trkpt lat="44.71982" lon="5.23637">
        <ele>659</ele>
        <time>2019-09-01T08:45:31Z</time>
      </trkpt>
      <trkpt lat="44.71979" lon="5.23635">
        <ele>659</ele>
        <time>2019-09-01T08:45:33Z</time>
      </trkpt>
      <trkpt lat="44.71976" lon="5.23633">
        <ele>659</ele>
        <time>2019-09-01T08:45:35Z</time>
      </trkpt>
      <trkpt lat="44.71973" lon="5.23631">
        <ele>659</ele>
        <time>2019-09-01T08:45:37Z</time>
      </trkpt>
      <trkpt lat="44.71969" lon="5.2363">
        <ele>659</ele>
        <time>2019-09-01T08:45:39Z</time>
      </trkpt>
      <trkpt lat="44.71967" lon="5.23629">
        <ele>659</ele>
        <time>2019-09-01T08:45:41Z</time>
      </trkpt>
      <trkpt lat="44.71964" lon="5.23629">
        <ele>659</ele>
        <time>2019-09-01T08:45:43Z</time>
      </trkpt>
      <trkpt lat="44.7196" lon="5.23629">
        <ele>659</ele>
        <time>2019-09-01T08:45:45Z</time>
      </trkpt>
      <trkpt lat="44.71957" lon="5.23628">
        <ele>659</ele>
        <time>2019-09-01T08:45:47Z</time>
      </trkpt>
      <trkpt lat="44.71953" lon="5.23627">
        <ele>659</ele>
        <time>2019-09-01T08:45:49Z</time>
      </trkpt>
      <trkpt lat="44.71949" lon="5.23627">
        <ele>659</ele>
        <time>2019-09-01T08:45:51Z</time>
      </trkpt>
      <trkpt lat="44.71945" lon="5.23626">
        <ele>659</ele>
        <time>2019-09-01T08:45:53Z</time>
      </trkpt>
      <trkpt lat="44.71942" lon="5.23625">
        <ele>659</ele>
        <time>2019-09-01T08:45:55Z</time>
      </trkpt>
      <trkpt lat="44.71937" lon="5.23624">
        <ele>659</ele>
        <time>2019-09-01T08:45:57Z</time>
      </trkpt>
      <trkpt lat="44.71933" lon="5.23625">
        <ele>658</ele>
        <time>2019-09-01T08:45:59Z</time>
      </trkpt>
      <trkpt lat="44.71929" lon="5.23624">
        <ele>658</ele>
        <time>2019-09-01T08:46:01Z</time>
      </trkpt>
      <trkpt lat="44.71925" lon="5.23623">
        <ele>658</ele>
        <time>2019-09-01T08:46:03Z</time>
      </trkpt>
      <trkpt lat="44.71922" lon="5.23623">
        <ele>658</ele>
        <time>2019-09-01T08:46:05Z</time>
      </trkpt>
      <trkpt lat="44.71917" lon="5.23623">
        <ele>658</ele>
        <time>2019-09-01T08:46:07Z</time>
      </trkpt>
      <trkpt lat="44.71913" lon="5.2362">
        <ele>652</ele>
        <time>2019-09-01T08:46:09Z</time>
      </trkpt>
      <trkpt lat="44.71909" lon="5.23618">
        <ele>652</ele>
        <time>2019-09-01T08:46:11Z</time>
      </trkpt>
      <trkpt lat="44.71905" lon="5.23616">
        <ele>652</ele>
        <time>2019-09-01T08:46:13Z</time>
      </trkpt>
      <trkpt lat="44.71901" lon="5.23615">
        <ele>652</ele>
        <time>2019-09-01T08:46:15Z</time>
      </trkpt>
      <trkpt lat="44.71898" lon="5.23613">
        <ele>652</ele>
        <time>2019-09-01T08:46:17Z</time>
      </trkpt>
      <trkpt lat="44.71895" lon="5.23611">
        <ele>652</ele>
        <time>2019-09-01T08:46:18Z</time>
      </trkpt>
      <trkpt lat="44.71891" lon="5.23608">
        <ele>652</ele>
        <time>2019-09-01T08:46:20Z</time>
      </trkpt>
      <trkpt lat="44.71887" lon="5.23606">
        <ele>652</ele>
        <time>2019-09-01T08:46:22Z</time>
      </trkpt>
      <trkpt lat="44.71885" lon="5.23602">
        <ele>653</ele>
        <time>2019-09-01T08:46:24Z</time>
      </trkpt>
      <trkpt lat="44.71882" lon="5.23599">
        <ele>653</ele>
        <time>2019-09-01T08:46:26Z</time>
      </trkpt>
      <trkpt lat="44.71879" lon="5.23597">
        <ele>652</ele>
        <time>2019-09-01T08:46:28Z</time>
      </trkpt>
      <trkpt lat="44.71874" lon="5.23595">
        <ele>652</ele>
        <time>2019-09-01T08:46:30Z</time>
      </trkpt>
      <trkpt lat="44.71871" lon="5.23593">
        <ele>652</ele>
        <time>2019-09-01T08:46:32Z</time>
      </trkpt>
      <trkpt lat="44.71868" lon="5.2359">
        <ele>652</ele>
        <time>2019-09-01T08:46:34Z</time>
      </trkpt>
      <trkpt lat="44.71865" lon="5.23586">
        <ele>652</ele>
        <time>2019-09-01T08:46:36Z</time>
      </trkpt>
      <trkpt lat="44.71861" lon="5.23582">
        <ele>665</ele>
        <time>2019-09-01T08:46:38Z</time>
      </trkpt>
      <trkpt lat="44.71857" lon="5.23579">
        <ele>665</ele>
        <time>2019-09-01T08:46:40Z</time>
      </trkpt>
      <trkpt lat="44.71855" lon="5.23577">
        <ele>664</ele>
        <time>2019-09-01T08:46:41Z</time>
      </trkpt>
      <trkpt lat="44.71853" lon="5.23575">
        <ele>664</ele>
        <time>2019-09-01T08:46:42Z</time>
      </trkpt>
      <trkpt lat="44.71848" lon="5.23572">
        <ele>664</ele>
        <time>2019-09-01T08:46:44Z</time>
      </trkpt>
      <trkpt lat="44.71847" lon="5.23569">
        <ele>664</ele>
        <time>2019-09-01T08:46:45Z</time>
      </trkpt>
      <trkpt lat="44.71844" lon="5.23563">
        <ele>665</ele>
        <time>2019-09-01T08:46:47Z</time>
      </trkpt>
      <trkpt lat="44.71843" lon="5.2356">
        <ele>665</ele>
        <time>2019-09-01T08:46:48Z</time>
      </trkpt>
      <trkpt lat="44.71839" lon="5.23556">
        <ele>666</ele>
        <time>2019-09-01T08:46:50Z</time>
      </trkpt>
      <trkpt lat="44.71837" lon="5.23553">
        <ele>666</ele>
        <time>2019-09-01T08:46:52Z</time>
      </trkpt>
      <trkpt lat="44.71833" lon="5.23554">
        <ele>661</ele>
        <time>2019-09-01T08:46:55Z</time>
      </trkpt>
      <trkpt lat="44.7183" lon="5.23553">
        <ele>661</ele>
        <time>2019-09-01T08:46:57Z</time>
      </trkpt>
      <trkpt lat="44.71826" lon="5.23551">
        <ele>661</ele>
        <time>2019-09-01T08:46:59Z</time>
      </trkpt>
      <trkpt lat="44.71822" lon="5.23548">
        <ele>661</ele>
        <time>2019-09-01T08:47:01Z</time>
      </trkpt>
      <trkpt lat="44.71818" lon="5.23544">
        <ele>662</ele>
        <time>2019-09-01T08:47:03Z</time>
      </trkpt>
      <trkpt lat="44.71815" lon="5.23539">
        <ele>663</ele>
        <time>2019-09-01T08:47:05Z</time>
      </trkpt>
      <trkpt lat="44.71811" lon="5.23535">
        <ele>663</ele>
        <time>2019-09-01T08:47:07Z</time>
      </trkpt>
      <trkpt lat="44.71809" lon="5.23529">
        <ele>664</ele>
        <time>2019-09-01T08:47:09Z</time>
      </trkpt>
      <trkpt lat="44.71806" lon="5.23524">
        <ele>664</ele>
        <time>2019-09-01T08:47:11Z</time>
      </trkpt>
      <trkpt lat="44.71804" lon="5.23521">
        <ele>665</ele>
        <time>2019-09-01T08:47:13Z</time>
      </trkpt>
      <trkpt lat="44.718" lon="5.23518">
        <ele>665</ele>
        <time>2019-09-01T08:47:15Z</time>
      </trkpt>
      <trkpt lat="44.71797" lon="5.23516">
        <ele>665</ele>
        <time>2019-09-01T08:47:17Z</time>
      </trkpt>
      <trkpt lat="44.71794" lon="5.23513">
        <ele>665</ele>
        <time>2019-09-01T08:47:19Z</time>
      </trkpt>
      <trkpt lat="44.71791" lon="5.23509">
        <ele>665</ele>
        <time>2019-09-01T08:47:21Z</time>
      </trkpt>
      <trkpt lat="44.71788" lon="5.23506">
        <ele>665</ele>
        <time>2019-09-01T08:47:23Z</time>
      </trkpt>
      <trkpt lat="44.71784" lon="5.23502">
        <ele>665</ele>
        <time>2019-09-01T08:47:25Z</time>
      </trkpt>
      <trkpt lat="44.71781" lon="5.23498">
        <ele>681</ele>
        <time>2019-09-01T08:47:27Z</time>
      </trkpt>
      <trkpt lat="44.71778" lon="5.23496">
        <ele>681</ele>
        <time>2019-09-01T08:47:29Z</time>
      </trkpt>
      <trkpt lat="44.71774" lon="5.23495">
        <ele>680</ele>
        <time>2019-09-01T08:47:32Z</time>
      </trkpt>
      <trkpt lat="44.71771" lon="5.23497">
        <ele>679</ele>
        <time>2019-09-01T08:47:34Z</time>
      </trkpt>
      <trkpt lat="44.71768" lon="5.23499">
        <ele>678</ele>
        <time>2019-09-01T08:47:36Z</time>
      </trkpt>
      <trkpt lat="44.71765" lon="5.23501">
        <ele>666</ele>
        <time>2019-09-01T08:47:38Z</time>
      </trkpt>
      <trkpt lat="44.71761" lon="5.23501">
        <ele>666</ele>
        <time>2019-09-01T08:47:40Z</time>
      </trkpt>
      <trkpt lat="44.71757" lon="5.23503">
        <ele>667</ele>
        <time>2019-09-01T08:47:42Z</time>
      </trkpt>
      <trkpt lat="44.71753" lon="5.23503">
        <ele>668</ele>
        <time>2019-09-01T08:47:44Z</time>
      </trkpt>
      <trkpt lat="44.71749" lon="5.23503">
        <ele>668</ele>
        <time>2019-09-01T08:47:46Z</time>
      </trkpt>
      <trkpt lat="44.71744" lon="5.23503">
        <ele>668</ele>
        <time>2019-09-01T08:47:48Z</time>
      </trkpt>
      <trkpt lat="44.71742" lon="5.23503">
        <ele>667</ele>
        <time>2019-09-01T08:47:49Z</time>
      </trkpt>
      <trkpt lat="44.71737" lon="5.23505">
        <ele>667</ele>
        <time>2019-09-01T08:47:51Z</time>
      </trkpt>
      <trkpt lat="44.71732" lon="5.23506">
        <ele>666</ele>
        <time>2019-09-01T08:47:53Z</time>
      </trkpt>
      <trkpt lat="44.71727" lon="5.23507">
        <ele>666</ele>
        <time>2019-09-01T08:47:55Z</time>
      </trkpt>
      <trkpt lat="44.71723" lon="5.23507">
        <ele>666</ele>
        <time>2019-09-01T08:47:57Z</time>
      </trkpt>
      <trkpt lat="44.71718" lon="5.23507">
        <ele>666</ele>
        <time>2019-09-01T08:47:59Z</time>
      </trkpt>
      <trkpt lat="44.71713" lon="5.23506">
        <ele>667</ele>
        <time>2019-09-01T08:48:01Z</time>
      </trkpt>
      <trkpt lat="44.71709" lon="5.23507">
        <ele>667</ele>
        <time>2019-09-01T08:48:03Z</time>
      </trkpt>
      <trkpt lat="44.71705" lon="5.23509">
        <ele>667</ele>
        <time>2019-09-01T08:48:05Z</time>
      </trkpt>
      <trkpt lat="44.71701" lon="5.23509">
        <ele>668</ele>
        <time>2019-09-01T08:48:07Z</time>
      </trkpt>
      <trkpt lat="44.71697" lon="5.23509">
        <ele>668</ele>
        <time>2019-09-01T08:48:09Z</time>
      </trkpt>
      <trkpt lat="44.71693" lon="5.2351">
        <ele>669</ele>
        <time>2019-09-01T08:48:11Z</time>
      </trkpt>
      <trkpt lat="44.71688" lon="5.23511">
        <ele>670</ele>
        <time>2019-09-01T08:48:13Z</time>
      </trkpt>
      <trkpt lat="44.71684" lon="5.23512">
        <ele>671</ele>
        <time>2019-09-01T08:48:15Z</time>
      </trkpt>
      <trkpt lat="44.7168" lon="5.23513">
        <ele>671</ele>
        <time>2019-09-01T08:48:17Z</time>
      </trkpt>
      <trkpt lat="44.71675" lon="5.23514">
        <ele>672</ele>
        <time>2019-09-01T08:48:19Z</time>
      </trkpt>
      <trkpt lat="44.7167" lon="5.23515">
        <ele>673</ele>
        <time>2019-09-01T08:48:21Z</time>
      </trkpt>
      <trkpt lat="44.71667" lon="5.23517">
        <ele>677</ele>
        <time>2019-09-01T08:48:23Z</time>
      </trkpt>
      <trkpt lat="44.71662" lon="5.23518">
        <ele>677</ele>
        <time>2019-09-01T08:48:25Z</time>
      </trkpt>
      <trkpt lat="44.71657" lon="5.2352">
        <ele>676</ele>
        <time>2019-09-01T08:48:27Z</time>
      </trkpt>
      <trkpt lat="44.71653" lon="5.23522">
        <ele>676</ele>
        <time>2019-09-01T08:48:29Z</time>
      </trkpt>
      <trkpt lat="44.7165" lon="5.23523">
        <ele>676</ele>
        <time>2019-09-01T08:48:30Z</time>
      </trkpt>
      <trkpt lat="44.71645" lon="5.23525">
        <ele>675</ele>
        <time>2019-09-01T08:48:32Z</time>
      </trkpt>
      <trkpt lat="44.71641" lon="5.23526">
        <ele>675</ele>
        <time>2019-09-01T08:48:34Z</time>
      </trkpt>
      <trkpt lat="44.71636" lon="5.23528">
        <ele>675</ele>
        <time>2019-09-01T08:48:36Z</time>
      </trkpt>
      <trkpt lat="44.71633" lon="5.23529">
        <ele>675</ele>
        <time>2019-09-01T08:48:37Z</time>
      </trkpt>
      <trkpt lat="44.71629" lon="5.23532">
        <ele>675</ele>
        <time>2019-09-01T08:48:39Z</time>
      </trkpt>
      <trkpt lat="44.71625" lon="5.23533">
        <ele>675</ele>
        <time>2019-09-01T08:48:41Z</time>
      </trkpt>
      <trkpt lat="44.71622" lon="5.23536">
        <ele>675</ele>
        <time>2019-09-01T08:48:43Z</time>
      </trkpt>
      <trkpt lat="44.71618" lon="5.23537">
        <ele>675</ele>
        <time>2019-09-01T08:48:45Z</time>
      </trkpt>
      <trkpt lat="44.71614" lon="5.23538">
        <ele>675</ele>
        <time>2019-09-01T08:48:47Z</time>
      </trkpt>
      <trkpt lat="44.71609" lon="5.23538">
        <ele>675</ele>
        <time>2019-09-01T08:48:49Z</time>
      </trkpt>
      <trkpt lat="44.71606" lon="5.23538">
        <ele>676</ele>
        <time>2019-09-01T08:48:50Z</time>
      </trkpt>
      <trkpt lat="44.71603" lon="5.23538">
        <ele>676</ele>
        <time>2019-09-01T08:48:51Z</time>
      </trkpt>
      <trkpt lat="44.71601" lon="5.23537">
        <ele>676</ele>
        <time>2019-09-01T08:48:52Z</time>
      </trkpt>
      <trkpt lat="44.71596" lon="5.23537">
        <ele>676</ele>
        <time>2019-09-01T08:48:54Z</time>
      </trkpt>
      <trkpt lat="44.71593" lon="5.23537">
        <ele>676</ele>
        <time>2019-09-01T08:48:55Z</time>
      </trkpt>
      <trkpt lat="44.7159" lon="5.23538">
        <ele>676</ele>
        <time>2019-09-01T08:48:56Z</time>
      </trkpt>
      <trkpt lat="44.71587" lon="5.23538">
        <ele>677</ele>
        <time>2019-09-01T08:48:57Z</time>
      </trkpt>
      <trkpt lat="44.71584" lon="5.23537">
        <ele>677</ele>
        <time>2019-09-01T08:48:58Z</time>
      </trkpt>
      <trkpt lat="44.71581" lon="5.23537">
        <ele>682</ele>
        <time>2019-09-01T08:48:59Z</time>
      </trkpt>
      <trkpt lat="44.71576" lon="5.23537">
        <ele>682</ele>
        <time>2019-09-01T08:49:01Z</time>
      </trkpt>
      <trkpt lat="44.71573" lon="5.23537">
        <ele>682</ele>
        <time>2019-09-01T08:49:03Z</time>
      </trkpt>
      <trkpt lat="44.71569" lon="5.23538">
        <ele>682</ele>
        <time>2019-09-01T08:49:05Z</time>
      </trkpt>
      <trkpt lat="44.71566" lon="5.23539">
        <ele>681</ele>
        <time>2019-09-01T08:49:07Z</time>
      </trkpt>
      <trkpt lat="44.71563" lon="5.2354">
        <ele>681</ele>
        <time>2019-09-01T08:49:09Z</time>
      </trkpt>
      <trkpt lat="44.71558" lon="5.2354">
        <ele>681</ele>
        <time>2019-09-01T08:49:11Z</time>
      </trkpt>
      <trkpt lat="44.71555" lon="5.2354">
        <ele>681</ele>
        <time>2019-09-01T08:49:12Z</time>
      </trkpt>
      <trkpt lat="44.71552" lon="5.2354">
        <ele>681</ele>
        <time>2019-09-01T08:49:13Z</time>
      </trkpt>
      <trkpt lat="44.71549" lon="5.23539">
        <ele>682</ele>
        <time>2019-09-01T08:49:14Z</time>
      </trkpt>
      <trkpt lat="44.71546" lon="5.23538">
        <ele>682</ele>
        <time>2019-09-01T08:49:15Z</time>
      </trkpt>
      <trkpt lat="44.71543" lon="5.23538">
        <ele>682</ele>
        <time>2019-09-01T08:49:16Z</time>
      </trkpt>
      <trkpt lat="44.7154" lon="5.23537">
        <ele>682</ele>
        <time>2019-09-01T08:49:17Z</time>
      </trkpt>
      <trkpt lat="44.71535" lon="5.23536">
        <ele>683</ele>
        <time>2019-09-01T08:49:19Z</time>
      </trkpt>
      <trkpt lat="44.7153" lon="5.23535">
        <ele>683</ele>
        <time>2019-09-01T08:49:21Z</time>
      </trkpt>
      <trkpt lat="44.71526" lon="5.23534">
        <ele>683</ele>
        <time>2019-09-01T08:49:23Z</time>
      </trkpt>
      <trkpt lat="44.71521" lon="5.23535">
        <ele>683</ele>
        <time>2019-09-01T08:49:25Z</time>
      </trkpt>
      <trkpt lat="44.71517" lon="5.23535">
        <ele>684</ele>
        <time>2019-09-01T08:49:27Z</time>
      </trkpt>
      <trkpt lat="44.71514" lon="5.23533">
        <ele>684</ele>
        <time>2019-09-01T08:49:29Z</time>
      </trkpt>
      <trkpt lat="44.7151" lon="5.23532">
        <ele>685</ele>
        <time>2019-09-01T08:49:31Z</time>
      </trkpt>
      <trkpt lat="44.71506" lon="5.23531">
        <ele>685</ele>
        <time>2019-09-01T08:49:33Z</time>
      </trkpt>
      <trkpt lat="44.71503" lon="5.2353">
        <ele>686</ele>
        <time>2019-09-01T08:49:35Z</time>
      </trkpt>
      <trkpt lat="44.71499" lon="5.2353">
        <ele>690</ele>
        <time>2019-09-01T08:49:37Z</time>
      </trkpt>
      <trkpt lat="44.71495" lon="5.23533">
        <ele>689</ele>
        <time>2019-09-01T08:49:40Z</time>
      </trkpt>
      <trkpt lat="44.71491" lon="5.23534">
        <ele>689</ele>
        <time>2019-09-01T08:49:42Z</time>
      </trkpt>
      <trkpt lat="44.71487" lon="5.23537">
        <ele>688</ele>
        <time>2019-09-01T08:49:44Z</time>
      </trkpt>
      <trkpt lat="44.71484" lon="5.23537">
        <ele>688</ele>
        <time>2019-09-01T08:49:45Z</time>
      </trkpt>
      <trkpt lat="44.7148" lon="5.2354">
        <ele>687</ele>
        <time>2019-09-01T08:49:47Z</time>
      </trkpt>
      <trkpt lat="44.71476" lon="5.23542">
        <ele>687</ele>
        <time>2019-09-01T08:49:49Z</time>
      </trkpt>
      <trkpt lat="44.71473" lon="5.23543">
        <ele>687</ele>
        <time>2019-09-01T08:49:50Z</time>
      </trkpt>
      <trkpt lat="44.7147" lon="5.23543">
        <ele>687</ele>
        <time>2019-09-01T08:49:51Z</time>
      </trkpt>
      <trkpt lat="44.71468" lon="5.23543">
        <ele>687</ele>
        <time>2019-09-01T08:49:52Z</time>
      </trkpt>
      <trkpt lat="44.71464" lon="5.23543">
        <ele>687</ele>
        <time>2019-09-01T08:49:53Z</time>
      </trkpt>
      <trkpt lat="44.71459" lon="5.23544">
        <ele>687</ele>
        <time>2019-09-01T08:49:55Z</time>
      </trkpt>
      <trkpt lat="44.71454" lon="5.23546">
        <ele>687</ele>
        <time>2019-09-01T08:49:57Z</time>
      </trkpt>
      <trkpt lat="44.71449" lon="5.23546">
        <ele>688</ele>
        <time>2019-09-01T08:49:59Z</time>
      </trkpt>
      <trkpt lat="44.71445" lon="5.23546">
        <ele>688</ele>
        <time>2019-09-01T08:50:01Z</time>
      </trkpt>
      <trkpt lat="44.71441" lon="5.23545">
        <ele>688</ele>
        <time>2019-09-01T08:50:03Z</time>
      </trkpt>
      <trkpt lat="44.71436" lon="5.23545">
        <ele>688</ele>
        <time>2019-09-01T08:50:05Z</time>
      </trkpt>
      <trkpt lat="44.71431" lon="5.23545">
        <ele>688</ele>
        <time>2019-09-01T08:50:07Z</time>
      </trkpt>
      <trkpt lat="44.71427" lon="5.23545">
        <ele>689</ele>
        <time>2019-09-01T08:50:09Z</time>
      </trkpt>
      <trkpt lat="44.71423" lon="5.23544">
        <ele>689</ele>
        <time>2019-09-01T08:50:11Z</time>
      </trkpt>
      <trkpt lat="44.71419" lon="5.23544">
        <ele>689</ele>
        <time>2019-09-01T08:50:13Z</time>
      </trkpt>
      <trkpt lat="44.71415" lon="5.23545">
        <ele>693</ele>
        <time>2019-09-01T08:50:15Z</time>
      </trkpt>
      <trkpt lat="44.71412" lon="5.23545">
        <ele>693</ele>
        <time>2019-09-01T08:50:17Z</time>
      </trkpt>
      <trkpt lat="44.71407" lon="5.23545">
        <ele>693</ele>
        <time>2019-09-01T08:50:19Z</time>
      </trkpt>
      <trkpt lat="44.71402" lon="5.23546">
        <ele>692</ele>
        <time>2019-09-01T08:50:21Z</time>
      </trkpt>
      <trkpt lat="44.71398" lon="5.23548">
        <ele>692</ele>
        <time>2019-09-01T08:50:23Z</time>
      </trkpt>
      <trkpt lat="44.71395" lon="5.23548">
        <ele>692</ele>
        <time>2019-09-01T08:50:24Z</time>
      </trkpt>
      <trkpt lat="44.7139" lon="5.23548">
        <ele>692</ele>
        <time>2019-09-01T08:50:26Z</time>
      </trkpt>
      <trkpt lat="44.71385" lon="5.23547">
        <ele>693</ele>
        <time>2019-09-01T08:50:28Z</time>
      </trkpt>
      <trkpt lat="44.71381" lon="5.23546">
        <ele>693</ele>
        <time>2019-09-01T08:50:30Z</time>
      </trkpt>
      <trkpt lat="44.71377" lon="5.23545">
        <ele>693</ele>
        <time>2019-09-01T08:50:32Z</time>
      </trkpt>
      <trkpt lat="44.71374" lon="5.23545">
        <ele>694</ele>
        <time>2019-09-01T08:50:33Z</time>
      </trkpt>
      <trkpt lat="44.71369" lon="5.23545">
        <ele>694</ele>
        <time>2019-09-01T08:50:35Z</time>
      </trkpt>
      <trkpt lat="44.71365" lon="5.23544">
        <ele>694</ele>
        <time>2019-09-01T08:50:37Z</time>
      </trkpt>
      <trkpt lat="44.71362" lon="5.23543">
        <ele>694</ele>
        <time>2019-09-01T08:50:38Z</time>
      </trkpt>
      <trkpt lat="44.71357" lon="5.23543">
        <ele>694</ele>
        <time>2019-09-01T08:50:40Z</time>
      </trkpt>
      <trkpt lat="44.71352" lon="5.23543">
        <ele>694</ele>
        <time>2019-09-01T08:50:42Z</time>
      </trkpt>
      <trkpt lat="44.71347" lon="5.23542">
        <ele>695</ele>
        <time>2019-09-01T08:50:44Z</time>
      </trkpt>
      <trkpt lat="44.71343" lon="5.23542">
        <ele>695</ele>
        <time>2019-09-01T08:50:46Z</time>
      </trkpt>
      <trkpt lat="44.71337" lon="5.23542">
        <ele>695</ele>
        <time>2019-09-01T08:50:48Z</time>
      </trkpt>
      <trkpt lat="44.71334" lon="5.23542">
        <ele>695</ele>
        <time>2019-09-01T08:50:49Z</time>
      </trkpt>
      <trkpt lat="44.71329" lon="5.23541">
        <ele>694</ele>
        <time>2019-09-01T08:50:51Z</time>
      </trkpt>
      <trkpt lat="44.71324" lon="5.2354">
        <ele>695</ele>
        <time>2019-09-01T08:50:53Z</time>
      </trkpt>
      <trkpt lat="44.7132" lon="5.2354">
        <ele>694</ele>
        <time>2019-09-01T08:50:55Z</time>
      </trkpt>
      <trkpt lat="44.71316" lon="5.23539">
        <ele>695</ele>
        <time>2019-09-01T08:50:57Z</time>
      </trkpt>
      <trkpt lat="44.71312" lon="5.23538">
        <ele>695</ele>
        <time>2019-09-01T08:50:59Z</time>
      </trkpt>
      <trkpt lat="44.71307" lon="5.23537">
        <ele>695</ele>
        <time>2019-09-01T08:51:01Z</time>
      </trkpt>
      <trkpt lat="44.71304" lon="5.23536">
        <ele>695</ele>
        <time>2019-09-01T08:51:03Z</time>
      </trkpt>
      <trkpt lat="44.71301" lon="5.23534">
        <ele>695</ele>
        <time>2019-09-01T08:51:05Z</time>
      </trkpt>
      <trkpt lat="44.71296" lon="5.23534">
        <ele>695</ele>
        <time>2019-09-01T08:51:07Z</time>
      </trkpt>
      <trkpt lat="44.71291" lon="5.23533">
        <ele>695</ele>
        <time>2019-09-01T08:51:09Z</time>
      </trkpt>
      <trkpt lat="44.71288" lon="5.23533">
        <ele>695</ele>
        <time>2019-09-01T08:51:10Z</time>
      </trkpt>
      <trkpt lat="44.71285" lon="5.23533">
        <ele>695</ele>
        <time>2019-09-01T08:51:11Z</time>
      </trkpt>
      <trkpt lat="44.71281" lon="5.23532">
        <ele>695</ele>
        <time>2019-09-01T08:51:13Z</time>
      </trkpt>
      <trkpt lat="44.71276" lon="5.2353">
        <ele>695</ele>
        <time>2019-09-01T08:51:15Z</time>
      </trkpt>
      <trkpt lat="44.71273" lon="5.2353">
        <ele>695</ele>
        <time>2019-09-01T08:51:16Z</time>
      </trkpt>
      <trkpt lat="44.71269" lon="5.23527">
        <ele>696</ele>
        <time>2019-09-01T08:51:18Z</time>
      </trkpt>
      <trkpt lat="44.71265" lon="5.23525">
        <ele>696</ele>
        <time>2019-09-01T08:51:20Z</time>
      </trkpt>
      <trkpt lat="44.71261" lon="5.23525">
        <ele>697</ele>
        <time>2019-09-01T08:51:22Z</time>
      </trkpt>
      <trkpt lat="44.71256" lon="5.23523">
        <ele>698</ele>
        <time>2019-09-01T08:51:24Z</time>
      </trkpt>
      <trkpt lat="44.71252" lon="5.2352">
        <ele>699</ele>
        <time>2019-09-01T08:51:26Z</time>
      </trkpt>
      <trkpt lat="44.71249" lon="5.23518">
        <ele>693</ele>
        <time>2019-09-01T08:51:27Z</time>
      </trkpt>
      <trkpt lat="44.71245" lon="5.23515">
        <ele>694</ele>
        <time>2019-09-01T08:51:29Z</time>
      </trkpt>
      <trkpt lat="44.71241" lon="5.23512">
        <ele>694</ele>
        <time>2019-09-01T08:51:31Z</time>
      </trkpt>
      <trkpt lat="44.71237" lon="5.23508">
        <ele>694</ele>
        <time>2019-09-01T08:51:33Z</time>
      </trkpt>
      <trkpt lat="44.71234" lon="5.23504">
        <ele>693</ele>
        <time>2019-09-01T08:51:35Z</time>
      </trkpt>
      <trkpt lat="44.7123" lon="5.23501">
        <ele>692</ele>
        <time>2019-09-01T08:51:37Z</time>
      </trkpt>
      <trkpt lat="44.71225" lon="5.23499">
        <ele>711</ele>
        <time>2019-09-01T08:51:39Z</time>
      </trkpt>
      <trkpt lat="44.71221" lon="5.23496">
        <ele>711</ele>
        <time>2019-09-01T08:51:41Z</time>
      </trkpt>
      <trkpt lat="44.71217" lon="5.23494">
        <ele>711</ele>
        <time>2019-09-01T08:51:43Z</time>
      </trkpt>
      <trkpt lat="44.71213" lon="5.23491">
        <ele>711</ele>
        <time>2019-09-01T08:51:45Z</time>
      </trkpt>
      <trkpt lat="44.71209" lon="5.23489">
        <ele>711</ele>
        <time>2019-09-01T08:51:47Z</time>
      </trkpt>
      <trkpt lat="44.71205" lon="5.23487">
        <ele>710</ele>
        <time>2019-09-01T08:51:49Z</time>
      </trkpt>
      <trkpt lat="44.71201" lon="5.23486">
        <ele>709</ele>
        <time>2019-09-01T08:51:51Z</time>
      </trkpt>
      <trkpt lat="44.71197" lon="5.23483">
        <ele>709</ele>
        <time>2019-09-01T08:51:53Z</time>
      </trkpt>
      <trkpt lat="44.71193" lon="5.23481">
        <ele>709</ele>
        <time>2019-09-01T08:51:55Z</time>
      </trkpt>
      <trkpt lat="44.71189" lon="5.23479">
        <ele>708</ele>
        <time>2019-09-01T08:51:57Z</time>
      </trkpt>
      <trkpt lat="44.71184" lon="5.23476">
        <ele>708</ele>
        <time>2019-09-01T08:51:59Z</time>
      </trkpt>
      <trkpt lat="44.7118" lon="5.23473">
        <ele>709</ele>
        <time>2019-09-01T08:52:01Z</time>
      </trkpt>
      <trkpt lat="44.71178" lon="5.23471">
        <ele>709</ele>
        <time>2019-09-01T08:52:02Z</time>
      </trkpt>
      <trkpt lat="44.71173" lon="5.23468">
        <ele>710</ele>
        <time>2019-09-01T08:52:04Z</time>
      </trkpt>
      <trkpt lat="44.71169" lon="5.23467">
        <ele>711</ele>
        <time>2019-09-01T08:52:06Z</time>
      </trkpt>
      <trkpt lat="44.71165" lon="5.23466">
        <ele>705</ele>
        <time>2019-09-01T08:52:08Z</time>
      </trkpt>
      <trkpt lat="44.71162" lon="5.23465">
        <ele>705</ele>
        <time>2019-09-01T08:52:10Z</time>
      </trkpt>
      <trkpt lat="44.71157" lon="5.23464">
        <ele>705</ele>
        <time>2019-09-01T08:52:12Z</time>
      </trkpt>
      <trkpt lat="44.71153" lon="5.23464">
        <ele>705</ele>
        <time>2019-09-01T08:52:14Z</time>
      </trkpt>
      <trkpt lat="44.71149" lon="5.23462">
        <ele>706</ele>
        <time>2019-09-01T08:52:16Z</time>
      </trkpt>
      <trkpt lat="44.71145" lon="5.2346">
        <ele>707</ele>
        <time>2019-09-01T08:52:18Z</time>
      </trkpt>
      <trkpt lat="44.71141" lon="5.2346">
        <ele>707</ele>
        <time>2019-09-01T08:52:20Z</time>
      </trkpt>
      <trkpt lat="44.71136" lon="5.23458">
        <ele>707</ele>
        <time>2019-09-01T08:52:22Z</time>
      </trkpt>
      <trkpt lat="44.71132" lon="5.23456">
        <ele>708</ele>
        <time>2019-09-01T08:52:24Z</time>
      </trkpt>
      <trkpt lat="44.71128" lon="5.23454">
        <ele>708</ele>
        <time>2019-09-01T08:52:26Z</time>
      </trkpt>
      <trkpt lat="44.71124" lon="5.23454">
        <ele>708</ele>
        <time>2019-09-01T08:52:28Z</time>
      </trkpt>
      <trkpt lat="44.7112" lon="5.23453">
        <ele>708</ele>
        <time>2019-09-01T08:52:30Z</time>
      </trkpt>
      <trkpt lat="44.71115" lon="5.23451">
        <ele>709</ele>
        <time>2019-09-01T08:52:32Z</time>
      </trkpt>
      <trkpt lat="44.7111" lon="5.23449">
        <ele>710</ele>
        <time>2019-09-01T08:52:34Z</time>
      </trkpt>
      <trkpt lat="44.71105" lon="5.23447">
        <ele>711</ele>
        <time>2019-09-01T08:52:36Z</time>
      </trkpt>
      <trkpt lat="44.71101" lon="5.23444">
        <ele>712</ele>
        <time>2019-09-01T08:52:38Z</time>
      </trkpt>
      <trkpt lat="44.71096" lon="5.23442">
        <ele>713</ele>
        <time>2019-09-01T08:52:40Z</time>
      </trkpt>
      <trkpt lat="44.71092" lon="5.2344">
        <ele>714</ele>
        <time>2019-09-01T08:52:42Z</time>
      </trkpt>
      <trkpt lat="44.71089" lon="5.23439">
        <ele>715</ele>
        <time>2019-09-01T08:52:44Z</time>
      </trkpt>
      <trkpt lat="44.71086" lon="5.23438">
        <ele>715</ele>
        <time>2019-09-01T08:52:46Z</time>
      </trkpt>
      <trkpt lat="44.71086" lon="5.23434">
        <ele>717</ele>
        <time>2019-09-01T08:52:50Z</time>
      </trkpt>
      <trkpt lat="44.71087" lon="5.2343">
        <ele>719</ele>
        <time>2019-09-01T08:53:22Z</time>
      </trkpt>
      <trkpt lat="44.71088" lon="5.23427">
        <ele>721</ele>
        <time>2019-09-01T08:53:45Z</time>
      </trkpt>
      <trkpt lat="44.71085" lon="5.23427">
        <ele>721</ele>
        <time>2019-09-01T08:54:10Z</time>
      </trkpt>
      <trkpt lat="44.71082" lon="5.23427">
        <ele>720</ele>
        <time>2019-09-01T08:54:12Z</time>
      </trkpt>
      <trkpt lat="44.71079" lon="5.23428">
        <ele>719</ele>
        <time>2019-09-01T08:54:13Z</time>
      </trkpt>
      <trkpt lat="44.71076" lon="5.23428">
        <ele>719</ele>
        <time>2019-09-01T08:54:14Z</time>
      </trkpt>
      <trkpt lat="44.71073" lon="5.23429">
        <ele>717</ele>
        <time>2019-09-01T08:54:15Z</time>
      </trkpt>
      <trkpt lat="44.71068" lon="5.2343">
        <ele>715</ele>
        <time>2019-09-01T08:54:17Z</time>
      </trkpt>
      <trkpt lat="44.71065" lon="5.23432">
        <ele>714</ele>
        <time>2019-09-01T08:54:18Z</time>
      </trkpt>
      <trkpt lat="44.7106" lon="5.23431">
        <ele>713</ele>
        <time>2019-09-01T08:54:20Z</time>
      </trkpt>
      <trkpt lat="44.71056" lon="5.2343">
        <ele>713</ele>
        <time>2019-09-01T08:54:22Z</time>
      </trkpt>
      <trkpt lat="44.71052" lon="5.23429">
        <ele>712</ele>
        <time>2019-09-01T08:54:24Z</time>
      </trkpt>
      <trkpt lat="44.71048" lon="5.23431">
        <ele>712</ele>
        <time>2019-09-01T08:54:26Z</time>
      </trkpt>
      <trkpt lat="44.71044" lon="5.23431">
        <ele>711</ele>
        <time>2019-09-01T08:54:28Z</time>
      </trkpt>
      <trkpt lat="44.71039" lon="5.23431">
        <ele>711</ele>
        <time>2019-09-01T08:54:30Z</time>
      </trkpt>
      <trkpt lat="44.71036" lon="5.23431">
        <ele>711</ele>
        <time>2019-09-01T08:54:31Z</time>
      </trkpt>
      <trkpt lat="44.71033" lon="5.23432">
        <ele>711</ele>
        <time>2019-09-01T08:54:32Z</time>
      </trkpt>
      <trkpt lat="44.71028" lon="5.23432">
        <ele>712</ele>
        <time>2019-09-01T08:54:34Z</time>
      </trkpt>
      <trkpt lat="44.71025" lon="5.23432">
        <ele>712</ele>
        <time>2019-09-01T08:54:35Z</time>
      </trkpt>
      <trkpt lat="44.7102" lon="5.2343">
        <ele>713</ele>
        <time>2019-09-01T08:54:37Z</time>
      </trkpt>
      <trkpt lat="44.71016" lon="5.23429">
        <ele>714</ele>
        <time>2019-09-01T08:54:39Z</time>
      </trkpt>
      <trkpt lat="44.71012" lon="5.23429">
        <ele>715</ele>
        <time>2019-09-01T08:54:41Z</time>
      </trkpt>
      <trkpt lat="44.71008" lon="5.23429">
        <ele>716</ele>
        <time>2019-09-01T08:54:43Z</time>
      </trkpt>
      <trkpt lat="44.71004" lon="5.23427">
        <ele>717</ele>
        <time>2019-09-01T08:54:45Z</time>
      </trkpt>
      <trkpt lat="44.71" lon="5.23426">
        <ele>718</ele>
        <time>2019-09-01T08:54:47Z</time>
      </trkpt>
      <trkpt lat="44.70995" lon="5.23425">
        <ele>715</ele>
        <time>2019-09-01T08:54:49Z</time>
      </trkpt>
      <trkpt lat="44.7099" lon="5.23424">
        <ele>713</ele>
        <time>2019-09-01T08:54:51Z</time>
      </trkpt>
      <trkpt lat="44.70986" lon="5.23423">
        <ele>711</ele>
        <time>2019-09-01T08:54:53Z</time>
      </trkpt>
      <trkpt lat="44.70982" lon="5.23422">
        <ele>709</ele>
        <time>2019-09-01T08:54:55Z</time>
      </trkpt>
      <trkpt lat="44.70977" lon="5.2342">
        <ele>708</ele>
        <time>2019-09-01T08:54:57Z</time>
      </trkpt>
      <trkpt lat="44.70972" lon="5.23418">
        <ele>706</ele>
        <time>2019-09-01T08:54:59Z</time>
      </trkpt>
      <trkpt lat="44.70969" lon="5.23414">
        <ele>727</ele>
        <time>2019-09-01T08:55:01Z</time>
      </trkpt>
      <trkpt lat="44.70967" lon="5.23411">
        <ele>727</ele>
        <time>2019-09-01T08:55:02Z</time>
      </trkpt>
      <trkpt lat="44.70963" lon="5.23407">
        <ele>727</ele>
        <time>2019-09-01T08:55:04Z</time>
      </trkpt>
      <trkpt lat="44.7096" lon="5.23405">
        <ele>727</ele>
        <time>2019-09-01T08:55:06Z</time>
      </trkpt>
      <trkpt lat="44.70957" lon="5.23403">
        <ele>727</ele>
        <time>2019-09-01T08:55:08Z</time>
      </trkpt>
      <trkpt lat="44.70954" lon="5.23401">
        <ele>726</ele>
        <time>2019-09-01T08:55:10Z</time>
      </trkpt>
      <trkpt lat="44.70952" lon="5.23397">
        <ele>727</ele>
        <time>2019-09-01T08:55:12Z</time>
      </trkpt>
      <trkpt lat="44.70949" lon="5.23394">
        <ele>727</ele>
        <time>2019-09-01T08:55:14Z</time>
      </trkpt>
      <trkpt lat="44.70945" lon="5.2339">
        <ele>727</ele>
        <time>2019-09-01T08:55:16Z</time>
      </trkpt>
      <trkpt lat="44.70942" lon="5.23386">
        <ele>728</ele>
        <time>2019-09-01T08:55:18Z</time>
      </trkpt>
      <trkpt lat="44.7094" lon="5.23382">
        <ele>728</ele>
        <time>2019-09-01T08:55:20Z</time>
      </trkpt>
      <trkpt lat="44.70937" lon="5.23378">
        <ele>729</ele>
        <time>2019-09-01T08:55:22Z</time>
      </trkpt>
      <trkpt lat="44.70935" lon="5.23374">
        <ele>730</ele>
        <time>2019-09-01T08:55:24Z</time>
      </trkpt>
      <trkpt lat="44.70933" lon="5.23369">
        <ele>732</ele>
        <time>2019-09-01T08:55:26Z</time>
      </trkpt>
      <trkpt lat="44.70932" lon="5.23366">
        <ele>733</ele>
        <time>2019-09-01T08:55:28Z</time>
      </trkpt>
      <trkpt lat="44.7093" lon="5.23362">
        <ele>734</ele>
        <time>2019-09-01T08:55:30Z</time>
      </trkpt>
      <trkpt lat="44.70929" lon="5.23357">
        <ele>735</ele>
        <time>2019-09-01T08:55:32Z</time>
      </trkpt>
      <trkpt lat="44.7093" lon="5.23353">
        <ele>736</ele>
        <time>2019-09-01T08:55:34Z</time>
      </trkpt>
      <trkpt lat="44.70933" lon="5.23352">
        <ele>736</ele>
        <time>2019-09-01T08:55:36Z</time>
      </trkpt>
      <trkpt lat="44.70936" lon="5.23352">
        <ele>736</ele>
        <time>2019-09-01T08:55:38Z</time>
      </trkpt>
      <trkpt lat="44.7094" lon="5.23352">
        <ele>736</ele>
        <time>2019-09-01T08:55:41Z</time>
      </trkpt>
      <trkpt lat="44.70944" lon="5.23353">
        <ele>736</ele>
        <time>2019-09-01T08:55:44Z</time>
      </trkpt>
      <trkpt lat="44.70947" lon="5.23354">
        <ele>736</ele>
        <time>2019-09-01T08:55:46Z</time>
      </trkpt>
      <trkpt lat="44.70951" lon="5.23355">
        <ele>737</ele>
        <time>2019-09-01T08:55:49Z</time>
      </trkpt>
      <trkpt lat="44.70954" lon="5.23357">
        <ele>737</ele>
        <time>2019-09-01T08:55:52Z</time>
      </trkpt>
      <trkpt lat="44.70956" lon="5.23358">
        <ele>737</ele>
        <time>2019-09-01T08:55:54Z</time>
      </trkpt>
      <trkpt lat="44.70959" lon="5.23359">
        <ele>737</ele>
        <time>2019-09-01T08:55:57Z</time>
      </trkpt>
      <trkpt lat="44.70963" lon="5.2336">
        <ele>737</ele>
        <time>2019-09-01T08:56:00Z</time>
      </trkpt>
      <trkpt lat="44.70965" lon="5.23362">
        <ele>737</ele>
        <time>2019-09-01T08:56:02Z</time>
      </trkpt>
      <trkpt lat="44.70968" lon="5.23363">
        <ele>737</ele>
        <time>2019-09-01T08:56:04Z</time>
      </trkpt>
      <trkpt lat="44.70971" lon="5.23365">
        <ele>738</ele>
        <time>2019-09-01T08:56:07Z</time>
      </trkpt>
      <trkpt lat="44.70974" lon="5.23365">
        <ele>738</ele>
        <time>2019-09-01T08:56:09Z</time>
      </trkpt>
      <trkpt lat="44.70977" lon="5.23366">
        <ele>738</ele>
        <time>2019-09-01T08:56:11Z</time>
      </trkpt>
      <trkpt lat="44.7098" lon="5.23367">
        <ele>738</ele>
        <time>2019-09-01T08:56:13Z</time>
      </trkpt>
      <trkpt lat="44.70983" lon="5.23368">
        <ele>739</ele>
        <time>2019-09-01T08:56:15Z</time>
      </trkpt>
      <trkpt lat="44.70986" lon="5.23368">
        <ele>739</ele>
        <time>2019-09-01T08:56:18Z</time>
      </trkpt>
      <trkpt lat="44.70989" lon="5.23369">
        <ele>739</ele>
        <time>2019-09-01T08:56:20Z</time>
      </trkpt>
      <trkpt lat="44.70993" lon="5.2337">
        <ele>739</ele>
        <time>2019-09-01T08:56:23Z</time>
      </trkpt>
      <trkpt lat="44.70997" lon="5.23371">
        <ele>739</ele>
        <time>2019-09-01T08:56:26Z</time>
      </trkpt>
      <trkpt lat="44.71" lon="5.23371">
        <ele>739</ele>
        <time>2019-09-01T08:56:28Z</time>
      </trkpt>
      <trkpt lat="44.71003" lon="5.23371">
        <ele>749</ele>
        <time>2019-09-01T08:56:31Z</time>
      </trkpt>
      <trkpt lat="44.71" lon="5.23374">
        <ele>748</ele>
        <time>2019-09-01T08:56:36Z</time>
      </trkpt>
      <trkpt lat="44.70997" lon="5.23374">
        <ele>738</ele>
        <time>2019-09-01T08:56:39Z</time>
      </trkpt>
      <trkpt lat="44.70994" lon="5.23375">
        <ele>737</ele>
        <time>2019-09-01T08:56:41Z</time>
      </trkpt>
      <trkpt lat="44.70991" lon="5.23375">
        <ele>737</ele>
        <time>2019-09-01T08:56:43Z</time>
      </trkpt>
      <trkpt lat="44.70988" lon="5.23373">
        <ele>737</ele>
        <time>2019-09-01T08:56:45Z</time>
      </trkpt>
      <trkpt lat="44.70985" lon="5.23372">
        <ele>737</ele>
        <time>2019-09-01T08:56:47Z</time>
      </trkpt>
      <trkpt lat="44.70982" lon="5.23371">
        <ele>737</ele>
        <time>2019-09-01T08:56:49Z</time>
      </trkpt>
      <trkpt lat="44.70979" lon="5.23368">
        <ele>738</ele>
        <time>2019-09-01T08:56:51Z</time>
      </trkpt>
      <trkpt lat="44.70977" lon="5.23365">
        <ele>738</ele>
        <time>2019-09-01T08:56:53Z</time>
      </trkpt>
      <trkpt lat="44.70974" lon="5.23362">
        <ele>739</ele>
        <time>2019-09-01T08:56:55Z</time>
      </trkpt>
      <trkpt lat="44.70972" lon="5.23358">
        <ele>740</ele>
        <time>2019-09-01T08:56:57Z</time>
      </trkpt>
      <trkpt lat="44.70969" lon="5.23356">
        <ele>739</ele>
        <time>2019-09-01T08:56:59Z</time>
      </trkpt>
      <trkpt lat="44.70966" lon="5.23354">
        <ele>739</ele>
        <time>2019-09-01T08:57:01Z</time>
      </trkpt>
      <trkpt lat="44.70963" lon="5.23352">
        <ele>739</ele>
        <time>2019-09-01T08:57:03Z</time>
      </trkpt>
      <trkpt lat="44.7096" lon="5.23349">
        <ele>739</ele>
        <time>2019-09-01T08:57:05Z</time>
      </trkpt>
      <trkpt lat="44.70957" lon="5.23347">
        <ele>739</ele>
        <time>2019-09-01T08:57:07Z</time>
      </trkpt>
      <trkpt lat="44.70954" lon="5.23343">
        <ele>739</ele>
        <time>2019-09-01T08:57:09Z</time>
      </trkpt>
      <trkpt lat="44.70952" lon="5.2334">
        <ele>739</ele>
        <time>2019-09-01T08:57:11Z</time>
      </trkpt>
      <trkpt lat="44.7095" lon="5.23337">
        <ele>739</ele>
        <time>2019-09-01T08:57:13Z</time>
      </trkpt>
      <trkpt lat="44.70947" lon="5.23333">
        <ele>764</ele>
        <time>2019-09-01T08:57:15Z</time>
      </trkpt>
      <trkpt lat="44.70944" lon="5.23331">
        <ele>764</ele>
        <time>2019-09-01T08:57:17Z</time>
      </trkpt>
      <trkpt lat="44.70941" lon="5.23327">
        <ele>763</ele>
        <time>2019-09-01T08:57:19Z</time>
      </trkpt>
      <trkpt lat="44.70939" lon="5.23325">
        <ele>763</ele>
        <time>2019-09-01T08:57:21Z</time>
      </trkpt>
      <trkpt lat="44.70936" lon="5.23323">
        <ele>762</ele>
        <time>2019-09-01T08:57:23Z</time>
      </trkpt>
      <trkpt lat="44.70932" lon="5.23321">
        <ele>761</ele>
        <time>2019-09-01T08:57:25Z</time>
      </trkpt>
      <trkpt lat="44.70929" lon="5.23319">
        <ele>760</ele>
        <time>2019-09-01T08:57:27Z</time>
      </trkpt>
      <trkpt lat="44.70926" lon="5.23316">
        <ele>761</ele>
        <time>2019-09-01T08:57:29Z</time>
      </trkpt>
      <trkpt lat="44.70923" lon="5.23313">
        <ele>762</ele>
        <time>2019-09-01T08:57:31Z</time>
      </trkpt>
      <trkpt lat="44.7092" lon="5.2331">
        <ele>763</ele>
        <time>2019-09-01T08:57:33Z</time>
      </trkpt>
      <trkpt lat="44.70917" lon="5.23308">
        <ele>750</ele>
        <time>2019-09-01T08:57:36Z</time>
      </trkpt>
      <trkpt lat="44.70914" lon="5.23309">
        <ele>750</ele>
        <time>2019-09-01T08:57:39Z</time>
      </trkpt>
      <trkpt lat="44.70911" lon="5.23309">
        <ele>749</ele>
        <time>2019-09-01T08:57:42Z</time>
      </trkpt>
      <trkpt lat="44.70907" lon="5.2331">
        <ele>749</ele>
        <time>2019-09-01T08:57:45Z</time>
      </trkpt>
      <trkpt lat="44.70904" lon="5.23309">
        <ele>749</ele>
        <time>2019-09-01T08:57:48Z</time>
      </trkpt>
      <trkpt lat="44.70901" lon="5.23307">
        <ele>750</ele>
        <time>2019-09-01T08:57:54Z</time>
      </trkpt>
      <trkpt lat="44.70899" lon="5.23306">
        <ele>750</ele>
        <time>2019-09-01T08:58:00Z</time>
      </trkpt>
      <trkpt lat="44.70902" lon="5.23304">
        <ele>751</ele>
        <time>2019-09-01T08:58:19Z</time>
      </trkpt>
      <trkpt lat="44.70905" lon="5.23304">
        <ele>751</ele>
        <time>2019-09-01T08:58:25Z</time>
      </trkpt>
      <trkpt lat="44.70907" lon="5.23305">
        <ele>751</ele>
        <time>2019-09-01T08:58:36Z</time>
      </trkpt>
      <trkpt lat="44.70905" lon="5.23307">
        <ele>750</ele>
        <time>2019-09-01T08:59:15Z</time>
      </trkpt>
      <trkpt lat="44.70907" lon="5.23305">
        <ele>751</ele>
        <time>2019-09-01T08:59:36Z</time>
      </trkpt>
      <trkpt lat="44.70905" lon="5.23306">
        <ele>750</ele>
        <time>2019-09-01T09:00:13Z</time>
      </trkpt>
      <trkpt lat="44.70902" lon="5.23307">
        <ele>750</ele>
        <time>2019-09-01T09:00:57Z</time>
      </trkpt>
      <trkpt lat="44.70899" lon="5.23305">
        <ele>750</ele>
        <time>2019-09-01T09:01:02Z</time>
      </trkpt>
      <trkpt lat="44.709" lon="5.23301">
        <ele>751</ele>
        <time>2019-09-01T09:01:11Z</time>
      </trkpt>
      <trkpt lat="44.70902" lon="5.23302">
        <ele>751</ele>
        <time>2019-09-01T09:02:18Z</time>
      </trkpt>
      <trkpt lat="44.70899" lon="5.23303">
        <ele>751</ele>
        <time>2019-09-01T09:02:37Z</time>
      </trkpt>
      <trkpt lat="44.70896" lon="5.23302">
        <ele>751</ele>
        <time>2019-09-01T09:02:41Z</time>
      </trkpt>
      <trkpt lat="44.70893" lon="5.23302">
        <ele>751</ele>
        <time>2019-09-01T09:02:50Z</time>
      </trkpt>
      <trkpt lat="44.7089" lon="5.23299">
        <ele>751</ele>
        <time>2019-09-01T09:03:08Z</time>
      </trkpt>
      <trkpt lat="44.70887" lon="5.23298">
        <ele>751</ele>
        <time>2019-09-01T09:03:11Z</time>
      </trkpt>
      <trkpt lat="44.70883" lon="5.23296">
        <ele>751</ele>
        <time>2019-09-01T09:03:14Z</time>
      </trkpt>
      <trkpt lat="44.7088" lon="5.23294">
        <ele>751</ele>
        <time>2019-09-01T09:03:16Z</time>
      </trkpt>
      <trkpt lat="44.70877" lon="5.23292">
        <ele>751</ele>
        <time>2019-09-01T09:03:18Z</time>
      </trkpt>
      <trkpt lat="44.70874" lon="5.23289">
        <ele>751</ele>
        <time>2019-09-01T09:03:20Z</time>
      </trkpt>
      <trkpt lat="44.70871" lon="5.23286">
        <ele>752</ele>
        <time>2019-09-01T09:03:22Z</time>
      </trkpt>
      <trkpt lat="44.70869" lon="5.23283">
        <ele>752</ele>
        <time>2019-09-01T09:03:24Z</time>
      </trkpt>
      <trkpt lat="44.70866" lon="5.2328">
        <ele>753</ele>
        <time>2019-09-01T09:03:26Z</time>
      </trkpt>
      <trkpt lat="44.70863" lon="5.23277">
        <ele>753</ele>
        <time>2019-09-01T09:03:28Z</time>
      </trkpt>
      <trkpt lat="44.70861" lon="5.23274">
        <ele>754</ele>
        <time>2019-09-01T09:03:30Z</time>
      </trkpt>
      <trkpt lat="44.70858" lon="5.2327">
        <ele>754</ele>
        <time>2019-09-01T09:03:33Z</time>
      </trkpt>
      <trkpt lat="44.70855" lon="5.23266">
        <ele>755</ele>
        <time>2019-09-01T09:03:35Z</time>
      </trkpt>
      <trkpt lat="44.70852" lon="5.23261">
        <ele>756</ele>
        <time>2019-09-01T09:03:37Z</time>
      </trkpt>
      <trkpt lat="44.70849" lon="5.23258">
        <ele>756</ele>
        <time>2019-09-01T09:03:39Z</time>
      </trkpt>
      <trkpt lat="44.70846" lon="5.23257">
        <ele>757</ele>
        <time>2019-09-01T09:03:41Z</time>
      </trkpt>
      <trkpt lat="44.70843" lon="5.23254">
        <ele>758</ele>
        <time>2019-09-01T09:03:43Z</time>
      </trkpt>
      <trkpt lat="44.7084" lon="5.23251">
        <ele>759</ele>
        <time>2019-09-01T09:03:45Z</time>
      </trkpt>
      <trkpt lat="44.70837" lon="5.23247">
        <ele>765</ele>
        <time>2019-09-01T09:03:47Z</time>
      </trkpt>
      <trkpt lat="44.70834" lon="5.23244">
        <ele>767</ele>
        <time>2019-09-01T09:03:49Z</time>
      </trkpt>
      <trkpt lat="44.70832" lon="5.23241">
        <ele>763</ele>
        <time>2019-09-01T09:03:51Z</time>
      </trkpt>
      <trkpt lat="44.70829" lon="5.23238">
        <ele>763</ele>
        <time>2019-09-01T09:03:53Z</time>
      </trkpt>
      <trkpt lat="44.70827" lon="5.23235">
        <ele>764</ele>
        <time>2019-09-01T09:03:55Z</time>
      </trkpt>
      <trkpt lat="44.70824" lon="5.23233">
        <ele>764</ele>
        <time>2019-09-01T09:03:57Z</time>
      </trkpt>
      <trkpt lat="44.70821" lon="5.2323">
        <ele>764</ele>
        <time>2019-09-01T09:03:59Z</time>
      </trkpt>
      <trkpt lat="44.70819" lon="5.23226">
        <ele>765</ele>
        <time>2019-09-01T09:04:01Z</time>
      </trkpt>
      <trkpt lat="44.70815" lon="5.23224">
        <ele>765</ele>
        <time>2019-09-01T09:04:03Z</time>
      </trkpt>
      <trkpt lat="44.70813" lon="5.23222">
        <ele>765</ele>
        <time>2019-09-01T09:04:05Z</time>
      </trkpt>
      <trkpt lat="44.7081" lon="5.23218">
        <ele>766</ele>
        <time>2019-09-01T09:04:07Z</time>
      </trkpt>
      <trkpt lat="44.70808" lon="5.23215">
        <ele>766</ele>
        <time>2019-09-01T09:04:09Z</time>
      </trkpt>
      <trkpt lat="44.70805" lon="5.23212">
        <ele>766</ele>
        <time>2019-09-01T09:04:11Z</time>
      </trkpt>
      <trkpt lat="44.70802" lon="5.2321">
        <ele>766</ele>
        <time>2019-09-01T09:04:13Z</time>
      </trkpt>
      <trkpt lat="44.708" lon="5.23208">
        <ele>766</ele>
        <time>2019-09-01T09:04:15Z</time>
      </trkpt>
      <trkpt lat="44.70798" lon="5.23205">
        <ele>767</ele>
        <time>2019-09-01T09:04:17Z</time>
      </trkpt>
      <trkpt lat="44.70795" lon="5.23201">
        <ele>767</ele>
        <time>2019-09-01T09:04:19Z</time>
      </trkpt>
      <trkpt lat="44.70792" lon="5.23198">
        <ele>767</ele>
        <time>2019-09-01T09:04:21Z</time>
      </trkpt>
      <trkpt lat="44.70789" lon="5.23195">
        <ele>767</ele>
        <time>2019-09-01T09:04:23Z</time>
      </trkpt>
      <trkpt lat="44.70786" lon="5.23193">
        <ele>767</ele>
        <time>2019-09-01T09:04:25Z</time>
      </trkpt>
      <trkpt lat="44.70783" lon="5.23191">
        <ele>767</ele>
        <time>2019-09-01T09:04:27Z</time>
      </trkpt>
      <trkpt lat="44.7078" lon="5.23189">
        <ele>767</ele>
        <time>2019-09-01T09:04:29Z</time>
      </trkpt>
      <trkpt lat="44.70778" lon="5.23185">
        <ele>767</ele>
        <time>2019-09-01T09:04:31Z</time>
      </trkpt>
      <trkpt lat="44.70775" lon="5.23182">
        <ele>767</ele>
        <time>2019-09-01T09:04:33Z</time>
      </trkpt>
      <trkpt lat="44.70773" lon="5.23178">
        <ele>768</ele>
        <time>2019-09-01T09:04:35Z</time>
      </trkpt>
      <trkpt lat="44.7077" lon="5.23175">
        <ele>768</ele>
        <time>2019-09-01T09:04:37Z</time>
      </trkpt>
      <trkpt lat="44.70768" lon="5.23172">
        <ele>768</ele>
        <time>2019-09-01T09:04:39Z</time>
      </trkpt>
      <trkpt lat="44.70765" lon="5.23169">
        <ele>768</ele>
        <time>2019-09-01T09:04:41Z</time>
      </trkpt>
      <trkpt lat="44.70763" lon="5.23166">
        <ele>773</ele>
        <time>2019-09-01T09:04:43Z</time>
      </trkpt>
      <trkpt lat="44.7076" lon="5.23164">
        <ele>773</ele>
        <time>2019-09-01T09:04:45Z</time>
      </trkpt>
      <trkpt lat="44.70757" lon="5.2316">
        <ele>772</ele>
        <time>2019-09-01T09:04:47Z</time>
      </trkpt>
      <trkpt lat="44.70754" lon="5.23157">
        <ele>772</ele>
        <time>2019-09-01T09:04:49Z</time>
      </trkpt>
      <trkpt lat="44.70751" lon="5.23154">
        <ele>773</ele>
        <time>2019-09-01T09:04:51Z</time>
      </trkpt>
      <trkpt lat="44.70749" lon="5.23152">
        <ele>769</ele>
        <time>2019-09-01T09:04:53Z</time>
      </trkpt>
      <trkpt lat="44.70746" lon="5.23148">
        <ele>769</ele>
        <time>2019-09-01T09:04:55Z</time>
      </trkpt>
      <trkpt lat="44.70745" lon="5.23145">
        <ele>769</ele>
        <time>2019-09-01T09:04:57Z</time>
      </trkpt>
      <trkpt lat="44.70743" lon="5.2314">
        <ele>769</ele>
        <time>2019-09-01T09:04:59Z</time>
      </trkpt>
      <trkpt lat="44.70742" lon="5.23136">
        <ele>769</ele>
        <time>2019-09-01T09:05:01Z</time>
      </trkpt>
      <trkpt lat="44.70741" lon="5.23131">
        <ele>769</ele>
        <time>2019-09-01T09:05:03Z</time>
      </trkpt>
      <trkpt lat="44.70742" lon="5.23127">
        <ele>769</ele>
        <time>2019-09-01T09:05:05Z</time>
      </trkpt>
      <trkpt lat="44.70743" lon="5.23123">
        <ele>769</ele>
        <time>2019-09-01T09:05:07Z</time>
      </trkpt>
      <trkpt lat="44.70745" lon="5.23118">
        <ele>770</ele>
        <time>2019-09-01T09:05:10Z</time>
      </trkpt>
      <trkpt lat="44.70747" lon="5.23116">
        <ele>770</ele>
        <time>2019-09-01T09:05:18Z</time>
      </trkpt>
      <trkpt lat="44.70749" lon="5.23112">
        <ele>770</ele>
        <time>2019-09-01T09:05:24Z</time>
      </trkpt>
      <trkpt lat="44.70751" lon="5.2311">
        <ele>777</ele>
        <time>2019-09-01T09:05:26Z</time>
      </trkpt>
      <trkpt lat="44.70754" lon="5.23109">
        <ele>777</ele>
        <time>2019-09-01T09:05:28Z</time>
      </trkpt>
      <trkpt lat="44.70758" lon="5.23107">
        <ele>777</ele>
        <time>2019-09-01T09:05:31Z</time>
      </trkpt>
      <trkpt lat="44.7076" lon="5.23106">
        <ele>777</ele>
        <time>2019-09-01T09:05:34Z</time>
      </trkpt>
      <trkpt lat="44.70763" lon="5.23106">
        <ele>777</ele>
        <time>2019-09-01T09:05:37Z</time>
      </trkpt>
      <trkpt lat="44.70766" lon="5.23104">
        <ele>777</ele>
        <time>2019-09-01T09:05:39Z</time>
      </trkpt>
      <trkpt lat="44.70769" lon="5.23102">
        <ele>777</ele>
        <time>2019-09-01T09:05:41Z</time>
      </trkpt>
      <trkpt lat="44.70775" lon="5.23099">
        <ele>778</ele>
        <time>2019-09-01T09:05:43Z</time>
      </trkpt>
      <trkpt lat="44.7078" lon="5.23096">
        <ele>778</ele>
        <time>2019-09-01T09:05:45Z</time>
      </trkpt>
      <trkpt lat="44.70785" lon="5.23094">
        <ele>778</ele>
        <time>2019-09-01T09:05:47Z</time>
      </trkpt>
      <trkpt lat="44.7079" lon="5.2309">
        <ele>779</ele>
        <time>2019-09-01T09:05:49Z</time>
      </trkpt>
      <trkpt lat="44.70792" lon="5.23088">
        <ele>779</ele>
        <time>2019-09-01T09:05:50Z</time>
      </trkpt>
      <trkpt lat="44.70795" lon="5.23086">
        <ele>779</ele>
        <time>2019-09-01T09:05:51Z</time>
      </trkpt>
      <trkpt lat="44.70797" lon="5.23083">
        <ele>775</ele>
        <time>2019-09-01T09:05:52Z</time>
      </trkpt>
      <trkpt lat="44.708" lon="5.23083">
        <ele>775</ele>
        <time>2019-09-01T09:05:53Z</time>
      </trkpt>
      <trkpt lat="44.70804" lon="5.23082">
        <ele>776</ele>
        <time>2019-09-01T09:05:54Z</time>
      </trkpt>
      <trkpt lat="44.70806" lon="5.2308">
        <ele>776</ele>
        <time>2019-09-01T09:05:55Z</time>
      </trkpt>
      <trkpt lat="44.7081" lon="5.23079">
        <ele>776</ele>
        <time>2019-09-01T09:05:56Z</time>
      </trkpt>
      <trkpt lat="44.70813" lon="5.23078">
        <ele>777</ele>
        <time>2019-09-01T09:05:57Z</time>
      </trkpt>
      <trkpt lat="44.70818" lon="5.23076">
        <ele>777</ele>
        <time>2019-09-01T09:05:59Z</time>
      </trkpt>
      <trkpt lat="44.70821" lon="5.23073">
        <ele>778</ele>
        <time>2019-09-01T09:06:00Z</time>
      </trkpt>
      <trkpt lat="44.70825" lon="5.23072">
        <ele>778</ele>
        <time>2019-09-01T09:06:02Z</time>
      </trkpt>
      <trkpt lat="44.7083" lon="5.2307">
        <ele>778</ele>
        <time>2019-09-01T09:06:04Z</time>
      </trkpt>
      <trkpt lat="44.70833" lon="5.23069">
        <ele>778</ele>
        <time>2019-09-01T09:06:05Z</time>
      </trkpt>
      <trkpt lat="44.70837" lon="5.23068">
        <ele>781</ele>
        <time>2019-09-01T09:06:06Z</time>
      </trkpt>
      <trkpt lat="44.7084" lon="5.23066">
        <ele>781</ele>
        <time>2019-09-01T09:06:07Z</time>
      </trkpt>
      <trkpt lat="44.70843" lon="5.23065">
        <ele>781</ele>
        <time>2019-09-01T09:06:08Z</time>
      </trkpt>
      <trkpt lat="44.70847" lon="5.23064">
        <ele>780</ele>
        <time>2019-09-01T09:06:09Z</time>
      </trkpt>
      <trkpt lat="44.70851" lon="5.23062">
        <ele>780</ele>
        <time>2019-09-01T09:06:10Z</time>
      </trkpt>
      <trkpt lat="44.70855" lon="5.2306">
        <ele>780</ele>
        <time>2019-09-01T09:06:11Z</time>
      </trkpt>
      <trkpt lat="44.70858" lon="5.23059">
        <ele>780</ele>
        <time>2019-09-01T09:06:12Z</time>
      </trkpt>
      <trkpt lat="44.70861" lon="5.23058">
        <ele>780</ele>
        <time>2019-09-01T09:06:13Z</time>
      </trkpt>
      <trkpt lat="44.70864" lon="5.23057">
        <ele>780</ele>
        <time>2019-09-01T09:06:14Z</time>
      </trkpt>
      <trkpt lat="44.70869" lon="5.23056">
        <ele>780</ele>
        <time>2019-09-01T09:06:16Z</time>
      </trkpt>
      <trkpt lat="44.70872" lon="5.23055">
        <ele>780</ele>
        <time>2019-09-01T09:06:17Z</time>
      </trkpt>
      <trkpt lat="44.70875" lon="5.23053">
        <ele>780</ele>
        <time>2019-09-01T09:06:18Z</time>
      </trkpt>
      <trkpt lat="44.70879" lon="5.23052">
        <ele>780</ele>
        <time>2019-09-01T09:06:19Z</time>
      </trkpt>
      <trkpt lat="44.70882" lon="5.23051">
        <ele>780</ele>
        <time>2019-09-01T09:06:20Z</time>
      </trkpt>
      <trkpt lat="44.70886" lon="5.2305">
        <ele>781</ele>
        <time>2019-09-01T09:06:21Z</time>
      </trkpt>
      <trkpt lat="44.70889" lon="5.23049">
        <ele>781</ele>
        <time>2019-09-01T09:06:22Z</time>
      </trkpt>
      <trkpt lat="44.70894" lon="5.23046">
        <ele>780</ele>
        <time>2019-09-01T09:06:23Z</time>
      </trkpt>
      <trkpt lat="44.70899" lon="5.23046">
        <ele>781</ele>
        <time>2019-09-01T09:06:24Z</time>
      </trkpt>
      <trkpt lat="44.70904" lon="5.23045">
        <ele>781</ele>
        <time>2019-09-01T09:06:25Z</time>
      </trkpt>
      <trkpt lat="44.70908" lon="5.23045">
        <ele>781</ele>
        <time>2019-09-01T09:06:26Z</time>
      </trkpt>
      <trkpt lat="44.70913" lon="5.23043">
        <ele>780</ele>
        <time>2019-09-01T09:06:27Z</time>
      </trkpt>
      <trkpt lat="44.70917" lon="5.23042">
        <ele>786</ele>
        <time>2019-09-01T09:06:28Z</time>
      </trkpt>
      <trkpt lat="44.70922" lon="5.2304">
        <ele>785</ele>
        <time>2019-09-01T09:06:29Z</time>
      </trkpt>
      <trkpt lat="44.70926" lon="5.23037">
        <ele>785</ele>
        <time>2019-09-01T09:06:30Z</time>
      </trkpt>
      <trkpt lat="44.7093" lon="5.23035">
        <ele>785</ele>
        <time>2019-09-01T09:06:31Z</time>
      </trkpt>
      <trkpt lat="44.70935" lon="5.23034">
        <ele>785</ele>
        <time>2019-09-01T09:06:32Z</time>
      </trkpt>
      <trkpt lat="44.70938" lon="5.23033">
        <ele>785</ele>
        <time>2019-09-01T09:06:33Z</time>
      </trkpt>
      <trkpt lat="44.70941" lon="5.23033">
        <ele>785</ele>
        <time>2019-09-01T09:06:34Z</time>
      </trkpt>
      <trkpt lat="44.70944" lon="5.23032">
        <ele>785</ele>
        <time>2019-09-01T09:06:35Z</time>
      </trkpt>
      <trkpt lat="44.70948" lon="5.2303">
        <ele>785</ele>
        <time>2019-09-01T09:06:36Z</time>
      </trkpt>
      <trkpt lat="44.70951" lon="5.23029">
        <ele>785</ele>
        <time>2019-09-01T09:06:37Z</time>
      </trkpt>
      <trkpt lat="44.70954" lon="5.23029">
        <ele>786</ele>
        <time>2019-09-01T09:06:38Z</time>
      </trkpt>
      <trkpt lat="44.70958" lon="5.23028">
        <ele>786</ele>
        <time>2019-09-01T09:06:39Z</time>
      </trkpt>
      <trkpt lat="44.7096" lon="5.23028">
        <ele>786</ele>
        <time>2019-09-01T09:06:40Z</time>
      </trkpt>
      <trkpt lat="44.70963" lon="5.23028">
        <ele>786</ele>
        <time>2019-09-01T09:06:41Z</time>
      </trkpt>
      <trkpt lat="44.70966" lon="5.23027">
        <ele>786</ele>
        <time>2019-09-01T09:06:42Z</time>
      </trkpt>
      <trkpt lat="44.7097" lon="5.23026">
        <ele>786</ele>
        <time>2019-09-01T09:06:43Z</time>
      </trkpt>
      <trkpt lat="44.70973" lon="5.23024">
        <ele>786</ele>
        <time>2019-09-01T09:06:44Z</time>
      </trkpt>
      <trkpt lat="44.70975" lon="5.23022">
        <ele>786</ele>
        <time>2019-09-01T09:06:45Z</time>
      </trkpt>
      <trkpt lat="44.70979" lon="5.2302">
        <ele>786</ele>
        <time>2019-09-01T09:06:46Z</time>
      </trkpt>
      <trkpt lat="44.70982" lon="5.23018">
        <ele>786</ele>
        <time>2019-09-01T09:06:47Z</time>
      </trkpt>
      <trkpt lat="44.70986" lon="5.23017">
        <ele>786</ele>
        <time>2019-09-01T09:06:48Z</time>
      </trkpt>
      <trkpt lat="44.70989" lon="5.23016">
        <ele>786</ele>
        <time>2019-09-01T09:06:49Z</time>
      </trkpt>
      <trkpt lat="44.70992" lon="5.23014">
        <ele>785</ele>
        <time>2019-09-01T09:06:50Z</time>
      </trkpt>
      <trkpt lat="44.70995" lon="5.23013">
        <ele>785</ele>
        <time>2019-09-01T09:06:51Z</time>
      </trkpt>
      <trkpt lat="44.71" lon="5.23011">
        <ele>785</ele>
        <time>2019-09-01T09:06:53Z</time>
      </trkpt>
      <trkpt lat="44.71004" lon="5.23008">
        <ele>787</ele>
        <time>2019-09-01T09:06:55Z</time>
      </trkpt>
      <trkpt lat="44.71009" lon="5.23006">
        <ele>788</ele>
        <time>2019-09-01T09:06:57Z</time>
      </trkpt>
      <trkpt lat="44.71014" lon="5.23004">
        <ele>789</ele>
        <time>2019-09-01T09:06:59Z</time>
      </trkpt>
      <trkpt lat="44.71018" lon="5.23003">
        <ele>790</ele>
        <time>2019-09-01T09:07:01Z</time>
      </trkpt>
      <trkpt lat="44.71022" lon="5.23002">
        <ele>790</ele>
        <time>2019-09-01T09:07:03Z</time>
      </trkpt>
      <trkpt lat="44.71026" lon="5.23">
        <ele>791</ele>
        <time>2019-09-01T09:07:05Z</time>
      </trkpt>
      <trkpt lat="44.7103" lon="5.22999">
        <ele>779</ele>
        <time>2019-09-01T09:07:07Z</time>
      </trkpt>
      <trkpt lat="44.71034" lon="5.22999">
        <ele>780</ele>
        <time>2019-09-01T09:07:09Z</time>
      </trkpt>
      <trkpt lat="44.71037" lon="5.22998">
        <ele>780</ele>
        <time>2019-09-01T09:07:11Z</time>
      </trkpt>
      <trkpt lat="44.7104" lon="5.22996">
        <ele>780</ele>
        <time>2019-09-01T09:07:13Z</time>
      </trkpt>
      <trkpt lat="44.71044" lon="5.22996">
        <ele>780</ele>
        <time>2019-09-01T09:07:15Z</time>
      </trkpt>
      <trkpt lat="44.71047" lon="5.22995">
        <ele>780</ele>
        <time>2019-09-01T09:07:16Z</time>
      </trkpt>
      <trkpt lat="44.71052" lon="5.22995">
        <ele>780</ele>
        <time>2019-09-01T09:07:18Z</time>
      </trkpt>
      <trkpt lat="44.71056" lon="5.22994">
        <ele>781</ele>
        <time>2019-09-01T09:07:20Z</time>
      </trkpt>
      <trkpt lat="44.71061" lon="5.22994">
        <ele>782</ele>
        <time>2019-09-01T09:07:22Z</time>
      </trkpt>
      <trkpt lat="44.71064" lon="5.22994">
        <ele>782</ele>
        <time>2019-09-01T09:07:23Z</time>
      </trkpt>
      <trkpt lat="44.71067" lon="5.22995">
        <ele>783</ele>
        <time>2019-09-01T09:07:24Z</time>
      </trkpt>
      <trkpt lat="44.71071" lon="5.22995">
        <ele>784</ele>
        <time>2019-09-01T09:07:26Z</time>
      </trkpt>
      <trkpt lat="44.71075" lon="5.22995">
        <ele>786</ele>
        <time>2019-09-01T09:07:28Z</time>
      </trkpt>
      <trkpt lat="44.7108" lon="5.22996">
        <ele>787</ele>
        <time>2019-09-01T09:07:30Z</time>
      </trkpt>
      <trkpt lat="44.71084" lon="5.22997">
        <ele>788</ele>
        <time>2019-09-01T09:07:32Z</time>
      </trkpt>
      <trkpt lat="44.71089" lon="5.22999">
        <ele>787</ele>
        <time>2019-09-01T09:07:34Z</time>
      </trkpt>
      <trkpt lat="44.71093" lon="5.23002">
        <ele>793</ele>
        <time>2019-09-01T09:07:36Z</time>
      </trkpt>
      <trkpt lat="44.71098" lon="5.23004">
        <ele>794</ele>
        <time>2019-09-01T09:07:38Z</time>
      </trkpt>
      <trkpt lat="44.71101" lon="5.23005">
        <ele>794</ele>
        <time>2019-09-01T09:07:39Z</time>
      </trkpt>
      <trkpt lat="44.71103" lon="5.23006">
        <ele>795</ele>
        <time>2019-09-01T09:07:40Z</time>
      </trkpt>
      <trkpt lat="44.71106" lon="5.23007">
        <ele>795</ele>
        <time>2019-09-01T09:07:41Z</time>
      </trkpt>
      <trkpt lat="44.71111" lon="5.23009">
        <ele>795</ele>
        <time>2019-09-01T09:07:43Z</time>
      </trkpt>
      <trkpt lat="44.71116" lon="5.23011">
        <ele>796</ele>
        <time>2019-09-01T09:07:45Z</time>
      </trkpt>
      <trkpt lat="44.71121" lon="5.23013">
        <ele>796</ele>
        <time>2019-09-01T09:07:47Z</time>
      </trkpt>
      <trkpt lat="44.71124" lon="5.23015">
        <ele>796</ele>
        <time>2019-09-01T09:07:48Z</time>
      </trkpt>
      <trkpt lat="44.71128" lon="5.23016">
        <ele>796</ele>
        <time>2019-09-01T09:07:49Z</time>
      </trkpt>
      <trkpt lat="44.71131" lon="5.23017">
        <ele>796</ele>
        <time>2019-09-01T09:07:50Z</time>
      </trkpt>
      <trkpt lat="44.71134" lon="5.23018">
        <ele>795</ele>
        <time>2019-09-01T09:07:51Z</time>
      </trkpt>
      <trkpt lat="44.71137" lon="5.23019">
        <ele>795</ele>
        <time>2019-09-01T09:07:52Z</time>
      </trkpt>
      <trkpt lat="44.7114" lon="5.23021">
        <ele>795</ele>
        <time>2019-09-01T09:07:53Z</time>
      </trkpt>
      <trkpt lat="44.71144" lon="5.23023">
        <ele>795</ele>
        <time>2019-09-01T09:07:54Z</time>
      </trkpt>
      <trkpt lat="44.71147" lon="5.23023">
        <ele>795</ele>
        <time>2019-09-01T09:07:55Z</time>
      </trkpt>
      <trkpt lat="44.7115" lon="5.23025">
        <ele>795</ele>
        <time>2019-09-01T09:07:56Z</time>
      </trkpt>
      <trkpt lat="44.71153" lon="5.23026">
        <ele>795</ele>
        <time>2019-09-01T09:07:57Z</time>
      </trkpt>
      <trkpt lat="44.71157" lon="5.23026">
        <ele>795</ele>
        <time>2019-09-01T09:07:58Z</time>
      </trkpt>
      <trkpt lat="44.71161" lon="5.23027">
        <ele>795</ele>
        <time>2019-09-01T09:07:59Z</time>
      </trkpt>
      <trkpt lat="44.71165" lon="5.23028">
        <ele>795</ele>
        <time>2019-09-01T09:08:00Z</time>
      </trkpt>
      <trkpt lat="44.71168" lon="5.23028">
        <ele>794</ele>
        <time>2019-09-01T09:08:01Z</time>
      </trkpt>
      <trkpt lat="44.71171" lon="5.23029">
        <ele>795</ele>
        <time>2019-09-01T09:08:02Z</time>
      </trkpt>
      <trkpt lat="44.71174" lon="5.23029">
        <ele>795</ele>
        <time>2019-09-01T09:08:03Z</time>
      </trkpt>
      <trkpt lat="44.71177" lon="5.23029">
        <ele>795</ele>
        <time>2019-09-01T09:08:04Z</time>
      </trkpt>
      <trkpt lat="44.7118" lon="5.23029">
        <ele>795</ele>
        <time>2019-09-01T09:08:05Z</time>
      </trkpt>
      <trkpt lat="44.71183" lon="5.23029">
        <ele>795</ele>
        <time>2019-09-01T09:08:06Z</time>
      </trkpt>
      <trkpt lat="44.71186" lon="5.23029">
        <ele>795</ele>
        <time>2019-09-01T09:08:07Z</time>
      </trkpt>
      <trkpt lat="44.71191" lon="5.23028">
        <ele>795</ele>
        <time>2019-09-01T09:08:09Z</time>
      </trkpt>
      <trkpt lat="44.71196" lon="5.23027">
        <ele>795</ele>
        <time>2019-09-01T09:08:11Z</time>
      </trkpt>
      <trkpt lat="44.71199" lon="5.23028">
        <ele>795</ele>
        <time>2019-09-01T09:08:12Z</time>
      </trkpt>
      <trkpt lat="44.71201" lon="5.23028">
        <ele>795</ele>
        <time>2019-09-01T09:08:13Z</time>
      </trkpt>
      <trkpt lat="44.71205" lon="5.23028">
        <ele>795</ele>
        <time>2019-09-01T09:08:14Z</time>
      </trkpt>
      <trkpt lat="44.71208" lon="5.23028">
        <ele>795</ele>
        <time>2019-09-01T09:08:15Z</time>
      </trkpt>
      <trkpt lat="44.71211" lon="5.23028">
        <ele>796</ele>
        <time>2019-09-01T09:08:16Z</time>
      </trkpt>
      <trkpt lat="44.71214" lon="5.23029">
        <ele>796</ele>
        <time>2019-09-01T09:08:17Z</time>
      </trkpt>
      <trkpt lat="44.71217" lon="5.23029">
        <ele>796</ele>
        <time>2019-09-01T09:08:18Z</time>
      </trkpt>
      <trkpt lat="44.7122" lon="5.23029">
        <ele>796</ele>
        <time>2019-09-01T09:08:19Z</time>
      </trkpt>
      <trkpt lat="44.71223" lon="5.23029">
        <ele>795</ele>
        <time>2019-09-01T09:08:20Z</time>
      </trkpt>
      <trkpt lat="44.71226" lon="5.23029">
        <ele>795</ele>
        <time>2019-09-01T09:08:21Z</time>
      </trkpt>
      <trkpt lat="44.71229" lon="5.23029">
        <ele>795</ele>
        <time>2019-09-01T09:08:22Z</time>
      </trkpt>
      <trkpt lat="44.71232" lon="5.23029">
        <ele>795</ele>
        <time>2019-09-01T09:08:23Z</time>
      </trkpt>
      <trkpt lat="44.71235" lon="5.23028">
        <ele>795</ele>
        <time>2019-09-01T09:08:24Z</time>
      </trkpt>
      <trkpt lat="44.71238" lon="5.23028">
        <ele>795</ele>
        <time>2019-09-01T09:08:25Z</time>
      </trkpt>
      <trkpt lat="44.71241" lon="5.23028">
        <ele>794</ele>
        <time>2019-09-01T09:08:26Z</time>
      </trkpt>
      <trkpt lat="44.71246" lon="5.23027">
        <ele>794</ele>
        <time>2019-09-01T09:08:28Z</time>
      </trkpt>
      <trkpt lat="44.7125" lon="5.23026">
        <ele>794</ele>
        <time>2019-09-01T09:08:29Z</time>
      </trkpt>
      <trkpt lat="44.71254" lon="5.23024">
        <ele>796</ele>
        <time>2019-09-01T09:08:30Z</time>
      </trkpt>
      <trkpt lat="44.71257" lon="5.23023">
        <ele>796</ele>
        <time>2019-09-01T09:08:31Z</time>
      </trkpt>
      <trkpt lat="44.71263" lon="5.23022">
        <ele>796</ele>
        <time>2019-09-01T09:08:32Z</time>
      </trkpt>
      <trkpt lat="44.71267" lon="5.23021">
        <ele>797</ele>
        <time>2019-09-01T09:08:33Z</time>
      </trkpt>
      <trkpt lat="44.71272" lon="5.2302">
        <ele>798</ele>
        <time>2019-09-01T09:08:34Z</time>
      </trkpt>
      <trkpt lat="44.71277" lon="5.23019">
        <ele>798</ele>
        <time>2019-09-01T09:08:35Z</time>
      </trkpt>
      <trkpt lat="44.71282" lon="5.23017">
        <ele>799</ele>
        <time>2019-09-01T09:08:36Z</time>
      </trkpt>
      <trkpt lat="44.71287" lon="5.23016">
        <ele>799</ele>
        <time>2019-09-01T09:08:37Z</time>
      </trkpt>
      <trkpt lat="44.71292" lon="5.23014">
        <ele>799</ele>
        <time>2019-09-01T09:08:38Z</time>
      </trkpt>
      <trkpt lat="44.71296" lon="5.23012">
        <ele>800</ele>
        <time>2019-09-01T09:08:39Z</time>
      </trkpt>
      <trkpt lat="44.71301" lon="5.23009">
        <ele>800</ele>
        <time>2019-09-01T09:08:40Z</time>
      </trkpt>
      <trkpt lat="44.71306" lon="5.23006">
        <ele>800</ele>
        <time>2019-09-01T09:08:41Z</time>
      </trkpt>
      <trkpt lat="44.71311" lon="5.23003">
        <ele>799</ele>
        <time>2019-09-01T09:08:42Z</time>
      </trkpt>
      <trkpt lat="44.71317" lon="5.23">
        <ele>789</ele>
        <time>2019-09-01T09:08:43Z</time>
      </trkpt>
      <trkpt lat="44.71322" lon="5.22996">
        <ele>791</ele>
        <time>2019-09-01T09:08:44Z</time>
      </trkpt>
      <trkpt lat="44.71327" lon="5.22993">
        <ele>792</ele>
        <time>2019-09-01T09:08:45Z</time>
      </trkpt>
      <trkpt lat="44.71332" lon="5.22989">
        <ele>791</ele>
        <time>2019-09-01T09:08:46Z</time>
      </trkpt>
      <trkpt lat="44.71337" lon="5.22986">
        <ele>798</ele>
        <time>2019-09-01T09:08:47Z</time>
      </trkpt>
      <trkpt lat="44.71342" lon="5.22983">
        <ele>798</ele>
        <time>2019-09-01T09:08:48Z</time>
      </trkpt>
      <trkpt lat="44.71347" lon="5.22979">
        <ele>798</ele>
        <time>2019-09-01T09:08:49Z</time>
      </trkpt>
      <trkpt lat="44.71351" lon="5.22975">
        <ele>799</ele>
        <time>2019-09-01T09:08:50Z</time>
      </trkpt>
      <trkpt lat="44.71355" lon="5.2297">
        <ele>799</ele>
        <time>2019-09-01T09:08:51Z</time>
      </trkpt>
      <trkpt lat="44.71358" lon="5.22964">
        <ele>798</ele>
        <time>2019-09-01T09:08:52Z</time>
      </trkpt>
      <trkpt lat="44.71362" lon="5.22959">
        <ele>798</ele>
        <time>2019-09-01T09:08:53Z</time>
      </trkpt>
      <trkpt lat="44.71365" lon="5.22954">
        <ele>798</ele>
        <time>2019-09-01T09:08:54Z</time>
      </trkpt>
      <trkpt lat="44.71366" lon="5.22949">
        <ele>798</ele>
        <time>2019-09-01T09:08:55Z</time>
      </trkpt>
      <trkpt lat="44.71367" lon="5.22945">
        <ele>798</ele>
        <time>2019-09-01T09:08:56Z</time>
      </trkpt>
      <trkpt lat="44.71368" lon="5.22941">
        <ele>797</ele>
        <time>2019-09-01T09:08:57Z</time>
      </trkpt>
      <trkpt lat="44.71369" lon="5.22938">
        <ele>797</ele>
        <time>2019-09-01T09:08:58Z</time>
      </trkpt>
      <trkpt lat="44.71371" lon="5.2293">
        <ele>797</ele>
        <time>2019-09-01T09:09:00Z</time>
      </trkpt>
      <trkpt lat="44.71374" lon="5.22926">
        <ele>797</ele>
        <time>2019-09-01T09:09:01Z</time>
      </trkpt>
      <trkpt lat="44.71378" lon="5.22923">
        <ele>798</ele>
        <time>2019-09-01T09:09:02Z</time>
      </trkpt>
      <trkpt lat="44.71381" lon="5.2292">
        <ele>798</ele>
        <time>2019-09-01T09:09:03Z</time>
      </trkpt>
      <trkpt lat="44.71385" lon="5.22916">
        <ele>789</ele>
        <time>2019-09-01T09:09:04Z</time>
      </trkpt>
      <trkpt lat="44.71388" lon="5.22912">
        <ele>789</ele>
        <time>2019-09-01T09:09:05Z</time>
      </trkpt>
      <trkpt lat="44.71392" lon="5.22907">
        <ele>790</ele>
        <time>2019-09-01T09:09:06Z</time>
      </trkpt>
      <trkpt lat="44.71395" lon="5.22905">
        <ele>790</ele>
        <time>2019-09-01T09:09:07Z</time>
      </trkpt>
      <trkpt lat="44.71399" lon="5.22902">
        <ele>791</ele>
        <time>2019-09-01T09:09:08Z</time>
      </trkpt>
      <trkpt lat="44.71404" lon="5.22899">
        <ele>791</ele>
        <time>2019-09-01T09:09:09Z</time>
      </trkpt>
      <trkpt lat="44.71409" lon="5.22896">
        <ele>791</ele>
        <time>2019-09-01T09:09:10Z</time>
      </trkpt>
      <trkpt lat="44.71414" lon="5.22894">
        <ele>791</ele>
        <time>2019-09-01T09:09:11Z</time>
      </trkpt>
      <trkpt lat="44.71418" lon="5.22893">
        <ele>798</ele>
        <time>2019-09-01T09:09:12Z</time>
      </trkpt>
      <trkpt lat="44.71423" lon="5.22892">
        <ele>798</ele>
        <time>2019-09-01T09:09:13Z</time>
      </trkpt>
      <trkpt lat="44.71428" lon="5.22891">
        <ele>798</ele>
        <time>2019-09-01T09:09:14Z</time>
      </trkpt>
      <trkpt lat="44.71433" lon="5.22889">
        <ele>797</ele>
        <time>2019-09-01T09:09:15Z</time>
      </trkpt>
      <trkpt lat="44.71437" lon="5.22888">
        <ele>797</ele>
        <time>2019-09-01T09:09:16Z</time>
      </trkpt>
      <trkpt lat="44.71441" lon="5.22886">
        <ele>797</ele>
        <time>2019-09-01T09:09:17Z</time>
      </trkpt>
      <trkpt lat="44.71445" lon="5.22884">
        <ele>797</ele>
        <time>2019-09-01T09:09:18Z</time>
      </trkpt>
      <trkpt lat="44.71449" lon="5.22882">
        <ele>797</ele>
        <time>2019-09-01T09:09:19Z</time>
      </trkpt>
      <trkpt lat="44.71452" lon="5.22879">
        <ele>796</ele>
        <time>2019-09-01T09:09:20Z</time>
      </trkpt>
      <trkpt lat="44.71456" lon="5.22875">
        <ele>796</ele>
        <time>2019-09-01T09:09:21Z</time>
      </trkpt>
      <trkpt lat="44.71461" lon="5.22872">
        <ele>796</ele>
        <time>2019-09-01T09:09:22Z</time>
      </trkpt>
      <trkpt lat="44.71466" lon="5.22869">
        <ele>796</ele>
        <time>2019-09-01T09:09:23Z</time>
      </trkpt>
      <trkpt lat="44.71471" lon="5.22865">
        <ele>796</ele>
        <time>2019-09-01T09:09:24Z</time>
      </trkpt>
      <trkpt lat="44.71475" lon="5.22862">
        <ele>795</ele>
        <time>2019-09-01T09:09:25Z</time>
      </trkpt>
      <trkpt lat="44.7148" lon="5.22859">
        <ele>795</ele>
        <time>2019-09-01T09:09:26Z</time>
      </trkpt>
      <trkpt lat="44.71485" lon="5.22856">
        <ele>795</ele>
        <time>2019-09-01T09:09:27Z</time>
      </trkpt>
      <trkpt lat="44.7149" lon="5.22853">
        <ele>794</ele>
        <time>2019-09-01T09:09:28Z</time>
      </trkpt>
      <trkpt lat="44.71496" lon="5.22849">
        <ele>794</ele>
        <time>2019-09-01T09:09:29Z</time>
      </trkpt>
      <trkpt lat="44.71501" lon="5.22845">
        <ele>797</ele>
        <time>2019-09-01T09:09:30Z</time>
      </trkpt>
      <trkpt lat="44.71506" lon="5.22842">
        <ele>797</ele>
        <time>2019-09-01T09:09:31Z</time>
      </trkpt>
      <trkpt lat="44.71512" lon="5.22838">
        <ele>798</ele>
        <time>2019-09-01T09:09:32Z</time>
      </trkpt>
      <trkpt lat="44.71517" lon="5.22836">
        <ele>799</ele>
        <time>2019-09-01T09:09:33Z</time>
      </trkpt>
      <trkpt lat="44.71522" lon="5.22833">
        <ele>790</ele>
        <time>2019-09-01T09:09:34Z</time>
      </trkpt>
      <trkpt lat="44.71526" lon="5.2283">
        <ele>790</ele>
        <time>2019-09-01T09:09:35Z</time>
      </trkpt>
      <trkpt lat="44.7153" lon="5.22826">
        <ele>790</ele>
        <time>2019-09-01T09:09:36Z</time>
      </trkpt>
      <trkpt lat="44.71535" lon="5.22824">
        <ele>790</ele>
        <time>2019-09-01T09:09:37Z</time>
      </trkpt>
      <trkpt lat="44.71539" lon="5.22822">
        <ele>791</ele>
        <time>2019-09-01T09:09:38Z</time>
      </trkpt>
      <trkpt lat="44.71543" lon="5.22821">
        <ele>791</ele>
        <time>2019-09-01T09:09:39Z</time>
      </trkpt>
      <trkpt lat="44.71547" lon="5.22818">
        <ele>791</ele>
        <time>2019-09-01T09:09:40Z</time>
      </trkpt>
      <trkpt lat="44.71551" lon="5.22816">
        <ele>792</ele>
        <time>2019-09-01T09:09:41Z</time>
      </trkpt>
      <trkpt lat="44.71555" lon="5.22813">
        <ele>792</ele>
        <time>2019-09-01T09:09:42Z</time>
      </trkpt>
      <trkpt lat="44.71559" lon="5.22811">
        <ele>792</ele>
        <time>2019-09-01T09:09:43Z</time>
      </trkpt>
      <trkpt lat="44.71562" lon="5.22808">
        <ele>792</ele>
        <time>2019-09-01T09:09:44Z</time>
      </trkpt>
      <trkpt lat="44.71565" lon="5.22806">
        <ele>792</ele>
        <time>2019-09-01T09:09:45Z</time>
      </trkpt>
      <trkpt lat="44.71568" lon="5.22803">
        <ele>792</ele>
        <time>2019-09-01T09:09:46Z</time>
      </trkpt>
      <trkpt lat="44.71572" lon="5.228">
        <ele>792</ele>
        <time>2019-09-01T09:09:47Z</time>
      </trkpt>
      <trkpt lat="44.71575" lon="5.22796">
        <ele>791</ele>
        <time>2019-09-01T09:09:48Z</time>
      </trkpt>
      <trkpt lat="44.71578" lon="5.22792">
        <ele>791</ele>
        <time>2019-09-01T09:09:49Z</time>
      </trkpt>
      <trkpt lat="44.71581" lon="5.22789">
        <ele>790</ele>
        <time>2019-09-01T09:09:50Z</time>
      </trkpt>
      <trkpt lat="44.71584" lon="5.22786">
        <ele>799</ele>
        <time>2019-09-01T09:09:51Z</time>
      </trkpt>
      <trkpt lat="44.71587" lon="5.22784">
        <ele>798</ele>
        <time>2019-09-01T09:09:52Z</time>
      </trkpt>
      <trkpt lat="44.7159" lon="5.22781">
        <ele>798</ele>
        <time>2019-09-01T09:09:53Z</time>
      </trkpt>
      <trkpt lat="44.71593" lon="5.22777">
        <ele>798</ele>
        <time>2019-09-01T09:09:54Z</time>
      </trkpt>
      <trkpt lat="44.71596" lon="5.22773">
        <ele>797</ele>
        <time>2019-09-01T09:09:55Z</time>
      </trkpt>
      <trkpt lat="44.716" lon="5.22768">
        <ele>797</ele>
        <time>2019-09-01T09:09:56Z</time>
      </trkpt>
      <trkpt lat="44.71604" lon="5.22761">
        <ele>796</ele>
        <time>2019-09-01T09:09:57Z</time>
      </trkpt>
      <trkpt lat="44.71607" lon="5.22755">
        <ele>796</ele>
        <time>2019-09-01T09:09:58Z</time>
      </trkpt>
      <trkpt lat="44.71609" lon="5.22746">
        <ele>789</ele>
        <time>2019-09-01T09:09:59Z</time>
      </trkpt>
      <trkpt lat="44.71611" lon="5.22739">
        <ele>789</ele>
        <time>2019-09-01T09:10:00Z</time>
      </trkpt>
      <trkpt lat="44.71612" lon="5.22733">
        <ele>789</ele>
        <time>2019-09-01T09:10:01Z</time>
      </trkpt>
      <trkpt lat="44.71614" lon="5.22726">
        <ele>788</ele>
        <time>2019-09-01T09:10:02Z</time>
      </trkpt>
      <trkpt lat="44.71618" lon="5.22717">
        <ele>788</ele>
        <time>2019-09-01T09:10:03Z</time>
      </trkpt>
      <trkpt lat="44.7162" lon="5.22709">
        <ele>788</ele>
        <time>2019-09-01T09:10:04Z</time>
      </trkpt>
      <trkpt lat="44.71623" lon="5.22701">
        <ele>788</ele>
        <time>2019-09-01T09:10:05Z</time>
      </trkpt>
      <trkpt lat="44.71626" lon="5.22693">
        <ele>787</ele>
        <time>2019-09-01T09:10:06Z</time>
      </trkpt>
      <trkpt lat="44.71629" lon="5.22686">
        <ele>787</ele>
        <time>2019-09-01T09:10:07Z</time>
      </trkpt>
      <trkpt lat="44.71631" lon="5.22681">
        <ele>787</ele>
        <time>2019-09-01T09:10:08Z</time>
      </trkpt>
      <trkpt lat="44.71626" lon="5.22683">
        <ele>787</ele>
        <time>2019-09-01T09:10:11Z</time>
      </trkpt>
      <trkpt lat="44.71624" lon="5.22684">
        <ele>787</ele>
        <time>2019-09-01T09:10:12Z</time>
      </trkpt>
      <trkpt lat="44.71619" lon="5.2268">
        <ele>786</ele>
        <time>2019-09-01T09:10:13Z</time>
      </trkpt>
      <trkpt lat="44.71614" lon="5.22675">
        <ele>785</ele>
        <time>2019-09-01T09:10:14Z</time>
      </trkpt>
      <trkpt lat="44.71608" lon="5.22669">
        <ele>784</ele>
        <time>2019-09-01T09:10:15Z</time>
      </trkpt>
      <trkpt lat="44.716" lon="5.22663">
        <ele>777</ele>
        <time>2019-09-01T09:10:16Z</time>
      </trkpt>
      <trkpt lat="44.71592" lon="5.22657">
        <ele>777</ele>
        <time>2019-09-01T09:10:17Z</time>
      </trkpt>
      <trkpt lat="44.71584" lon="5.2265">
        <ele>777</ele>
        <time>2019-09-01T09:10:18Z</time>
      </trkpt>
      <trkpt lat="44.71576" lon="5.22643">
        <ele>767</ele>
        <time>2019-09-01T09:10:19Z</time>
      </trkpt>
      <trkpt lat="44.71569" lon="5.22638">
        <ele>765</ele>
        <time>2019-09-01T09:10:20Z</time>
      </trkpt>
      <trkpt lat="44.71561" lon="5.22633">
        <ele>764</ele>
        <time>2019-09-01T09:10:21Z</time>
      </trkpt>
      <trkpt lat="44.71555" lon="5.22626">
        <ele>763</ele>
        <time>2019-09-01T09:10:22Z</time>
      </trkpt>
      <trkpt lat="44.7155" lon="5.22621">
        <ele>762</ele>
        <time>2019-09-01T09:10:23Z</time>
      </trkpt>
      <trkpt lat="44.71544" lon="5.22617">
        <ele>761</ele>
        <time>2019-09-01T09:10:24Z</time>
      </trkpt>
      <trkpt lat="44.71538" lon="5.22612">
        <ele>760</ele>
        <time>2019-09-01T09:10:25Z</time>
      </trkpt>
      <trkpt lat="44.71534" lon="5.22605">
        <ele>760</ele>
        <time>2019-09-01T09:10:26Z</time>
      </trkpt>
      <trkpt lat="44.7153" lon="5.226">
        <ele>759</ele>
        <time>2019-09-01T09:10:27Z</time>
      </trkpt>
      <trkpt lat="44.71528" lon="5.22592">
        <ele>758</ele>
        <time>2019-09-01T09:10:28Z</time>
      </trkpt>
      <trkpt lat="44.71526" lon="5.22587">
        <ele>757</ele>
        <time>2019-09-01T09:10:29Z</time>
      </trkpt>
      <trkpt lat="44.71522" lon="5.22584">
        <ele>757</ele>
        <time>2019-09-01T09:10:31Z</time>
      </trkpt>
      <trkpt lat="44.7152" lon="5.22581">
        <ele>754</ele>
        <time>2019-09-01T09:10:32Z</time>
      </trkpt>
      <trkpt lat="44.71517" lon="5.22577">
        <ele>753</ele>
        <time>2019-09-01T09:10:33Z</time>
      </trkpt>
      <trkpt lat="44.71514" lon="5.22573">
        <ele>753</ele>
        <time>2019-09-01T09:10:34Z</time>
      </trkpt>
      <trkpt lat="44.71511" lon="5.22567">
        <ele>753</ele>
        <time>2019-09-01T09:10:35Z</time>
      </trkpt>
      <trkpt lat="44.71508" lon="5.22562">
        <ele>753</ele>
        <time>2019-09-01T09:10:36Z</time>
      </trkpt>
      <trkpt lat="44.71505" lon="5.22556">
        <ele>753</ele>
        <time>2019-09-01T09:10:37Z</time>
      </trkpt>
      <trkpt lat="44.71502" lon="5.22551">
        <ele>753</ele>
        <time>2019-09-01T09:10:38Z</time>
      </trkpt>
      <trkpt lat="44.71498" lon="5.22545">
        <ele>738</ele>
        <time>2019-09-01T09:10:39Z</time>
      </trkpt>
      <trkpt lat="44.71495" lon="5.22539">
        <ele>738</ele>
        <time>2019-09-01T09:10:40Z</time>
      </trkpt>
      <trkpt lat="44.71492" lon="5.22533">
        <ele>738</ele>
        <time>2019-09-01T09:10:41Z</time>
      </trkpt>
      <trkpt lat="44.71491" lon="5.22527">
        <ele>738</ele>
        <time>2019-09-01T09:10:42Z</time>
      </trkpt>
      <trkpt lat="44.7149" lon="5.22522">
        <ele>739</ele>
        <time>2019-09-01T09:10:43Z</time>
      </trkpt>
      <trkpt lat="44.71488" lon="5.22518">
        <ele>739</ele>
        <time>2019-09-01T09:10:44Z</time>
      </trkpt>
      <trkpt lat="44.71487" lon="5.22513">
        <ele>740</ele>
        <time>2019-09-01T09:10:45Z</time>
      </trkpt>
      <trkpt lat="44.71484" lon="5.22507">
        <ele>740</ele>
        <time>2019-09-01T09:10:46Z</time>
      </trkpt>
      <trkpt lat="44.71482" lon="5.22504">
        <ele>740</ele>
        <time>2019-09-01T09:10:47Z</time>
      </trkpt>
      <trkpt lat="44.71478" lon="5.225">
        <ele>736</ele>
        <time>2019-09-01T09:10:48Z</time>
      </trkpt>
      <trkpt lat="44.71473" lon="5.22494">
        <ele>734</ele>
        <time>2019-09-01T09:10:49Z</time>
      </trkpt>
      <trkpt lat="44.71469" lon="5.22487">
        <ele>732</ele>
        <time>2019-09-01T09:10:50Z</time>
      </trkpt>
      <trkpt lat="44.71466" lon="5.22481">
        <ele>731</ele>
        <time>2019-09-01T09:10:51Z</time>
      </trkpt>
      <trkpt lat="44.71464" lon="5.22475">
        <ele>730</ele>
        <time>2019-09-01T09:10:52Z</time>
      </trkpt>
      <trkpt lat="44.71462" lon="5.22471">
        <ele>729</ele>
        <time>2019-09-01T09:10:53Z</time>
      </trkpt>
      <trkpt lat="44.71459" lon="5.22467">
        <ele>729</ele>
        <time>2019-09-01T09:10:54Z</time>
      </trkpt>
      <trkpt lat="44.71455" lon="5.2246">
        <ele>728</ele>
        <time>2019-09-01T09:10:55Z</time>
      </trkpt>
      <trkpt lat="44.71451" lon="5.22454">
        <ele>727</ele>
        <time>2019-09-01T09:10:56Z</time>
      </trkpt>
      <trkpt lat="44.71448" lon="5.22448">
        <ele>726</ele>
        <time>2019-09-01T09:10:57Z</time>
      </trkpt>
      <trkpt lat="44.71444" lon="5.22443">
        <ele>726</ele>
        <time>2019-09-01T09:10:58Z</time>
      </trkpt>
      <trkpt lat="44.71441" lon="5.22438">
        <ele>725</ele>
        <time>2019-09-01T09:10:59Z</time>
      </trkpt>
      <trkpt lat="44.71439" lon="5.22435">
        <ele>725</ele>
        <time>2019-09-01T09:11:00Z</time>
      </trkpt>
      <trkpt lat="44.71436" lon="5.2243">
        <ele>724</ele>
        <time>2019-09-01T09:11:02Z</time>
      </trkpt>
      <trkpt lat="44.71432" lon="5.22424">
        <ele>723</ele>
        <time>2019-09-01T09:11:04Z</time>
      </trkpt>
      <trkpt lat="44.71429" lon="5.22421">
        <ele>722</ele>
        <time>2019-09-01T09:11:05Z</time>
      </trkpt>
      <trkpt lat="44.71426" lon="5.22416">
        <ele>718</ele>
        <time>2019-09-01T09:11:06Z</time>
      </trkpt>
      <trkpt lat="44.71424" lon="5.2241">
        <ele>718</ele>
        <time>2019-09-01T09:11:07Z</time>
      </trkpt>
      <trkpt lat="44.71421" lon="5.22406">
        <ele>717</ele>
        <time>2019-09-01T09:11:08Z</time>
      </trkpt>
      <trkpt lat="44.71418" lon="5.22402">
        <ele>717</ele>
        <time>2019-09-01T09:11:09Z</time>
      </trkpt>
      <trkpt lat="44.71413" lon="5.22396">
        <ele>708</ele>
        <time>2019-09-01T09:11:10Z</time>
      </trkpt>
      <trkpt lat="44.71408" lon="5.2239">
        <ele>705</ele>
        <time>2019-09-01T09:11:11Z</time>
      </trkpt>
      <trkpt lat="44.71403" lon="5.22384">
        <ele>704</ele>
        <time>2019-09-01T09:11:12Z</time>
      </trkpt>
      <trkpt lat="44.71398" lon="5.22378">
        <ele>703</ele>
        <time>2019-09-01T09:11:13Z</time>
      </trkpt>
      <trkpt lat="44.71395" lon="5.22372">
        <ele>702</ele>
        <time>2019-09-01T09:11:14Z</time>
      </trkpt>
      <trkpt lat="44.71392" lon="5.22367">
        <ele>702</ele>
        <time>2019-09-01T09:11:15Z</time>
      </trkpt>
      <trkpt lat="44.7139" lon="5.22363">
        <ele>701</ele>
        <time>2019-09-01T09:11:16Z</time>
      </trkpt>
      <trkpt lat="44.71388" lon="5.22359">
        <ele>701</ele>
        <time>2019-09-01T09:11:17Z</time>
      </trkpt>
      <trkpt lat="44.71386" lon="5.22352">
        <ele>701</ele>
        <time>2019-09-01T09:11:19Z</time>
      </trkpt>
      <trkpt lat="44.71385" lon="5.22347">
        <ele>701</ele>
        <time>2019-09-01T09:11:20Z</time>
      </trkpt>
      <trkpt lat="44.71385" lon="5.2234">
        <ele>701</ele>
        <time>2019-09-01T09:11:21Z</time>
      </trkpt>
      <trkpt lat="44.71386" lon="5.22334">
        <ele>702</ele>
        <time>2019-09-01T09:11:22Z</time>
      </trkpt>
      <trkpt lat="44.71388" lon="5.22327">
        <ele>700</ele>
        <time>2019-09-01T09:11:23Z</time>
      </trkpt>
      <trkpt lat="44.7139" lon="5.22322">
        <ele>699</ele>
        <time>2019-09-01T09:11:24Z</time>
      </trkpt>
      <trkpt lat="44.71391" lon="5.22316">
        <ele>699</ele>
        <time>2019-09-01T09:11:25Z</time>
      </trkpt>
      <trkpt lat="44.71392" lon="5.22311">
        <ele>699</ele>
        <time>2019-09-01T09:11:26Z</time>
      </trkpt>
      <trkpt lat="44.71394" lon="5.22304">
        <ele>698</ele>
        <time>2019-09-01T09:11:27Z</time>
      </trkpt>
      <trkpt lat="44.71396" lon="5.22298">
        <ele>698</ele>
        <time>2019-09-01T09:11:28Z</time>
      </trkpt>
      <trkpt lat="44.71398" lon="5.22291">
        <ele>697</ele>
        <time>2019-09-01T09:11:29Z</time>
      </trkpt>
      <trkpt lat="44.71401" lon="5.22285">
        <ele>697</ele>
        <time>2019-09-01T09:11:30Z</time>
      </trkpt>
      <trkpt lat="44.71404" lon="5.22282">
        <ele>697</ele>
        <time>2019-09-01T09:11:31Z</time>
      </trkpt>
      <trkpt lat="44.71406" lon="5.22276">
        <ele>697</ele>
        <time>2019-09-01T09:11:32Z</time>
      </trkpt>
      <trkpt lat="44.71407" lon="5.2227">
        <ele>697</ele>
        <time>2019-09-01T09:11:33Z</time>
      </trkpt>
      <trkpt lat="44.71407" lon="5.22264">
        <ele>697</ele>
        <time>2019-09-01T09:11:34Z</time>
      </trkpt>
      <trkpt lat="44.71408" lon="5.22257">
        <ele>697</ele>
        <time>2019-09-01T09:11:35Z</time>
      </trkpt>
      <trkpt lat="44.71408" lon="5.22249">
        <ele>694</ele>
        <time>2019-09-01T09:11:36Z</time>
      </trkpt>
      <trkpt lat="44.71408" lon="5.2224">
        <ele>692</ele>
        <time>2019-09-01T09:11:37Z</time>
      </trkpt>
      <trkpt lat="44.7141" lon="5.22231">
        <ele>690</ele>
        <time>2019-09-01T09:11:38Z</time>
      </trkpt>
      <trkpt lat="44.71412" lon="5.22221">
        <ele>689</ele>
        <time>2019-09-01T09:11:39Z</time>
      </trkpt>
      <trkpt lat="44.71413" lon="5.22211">
        <ele>688</ele>
        <time>2019-09-01T09:11:40Z</time>
      </trkpt>
      <trkpt lat="44.71415" lon="5.222">
        <ele>687</ele>
        <time>2019-09-01T09:11:41Z</time>
      </trkpt>
      <trkpt lat="44.71417" lon="5.22189">
        <ele>687</ele>
        <time>2019-09-01T09:11:42Z</time>
      </trkpt>
      <trkpt lat="44.71418" lon="5.22179">
        <ele>689</ele>
        <time>2019-09-01T09:11:43Z</time>
      </trkpt>
      <trkpt lat="44.71417" lon="5.22173">
        <ele>690</ele>
        <time>2019-09-01T09:11:44Z</time>
      </trkpt>
      <trkpt lat="44.71416" lon="5.22168">
        <ele>690</ele>
        <time>2019-09-01T09:11:46Z</time>
      </trkpt>
      <trkpt lat="44.71415" lon="5.22163">
        <ele>688</ele>
        <time>2019-09-01T09:11:48Z</time>
      </trkpt>
      <trkpt lat="44.71412" lon="5.22159">
        <ele>687</ele>
        <time>2019-09-01T09:11:50Z</time>
      </trkpt>
      <trkpt lat="44.7141" lon="5.22152">
        <ele>685</ele>
        <time>2019-09-01T09:11:52Z</time>
      </trkpt>
      <trkpt lat="44.71409" lon="5.22146">
        <ele>684</ele>
        <time>2019-09-01T09:11:53Z</time>
      </trkpt>
      <trkpt lat="44.71408" lon="5.22142">
        <ele>683</ele>
        <time>2019-09-01T09:11:54Z</time>
      </trkpt>
      <trkpt lat="44.71409" lon="5.22139">
        <ele>683</ele>
        <time>2019-09-01T09:11:57Z</time>
      </trkpt>
      <trkpt lat="44.71408" lon="5.22133">
        <ele>682</ele>
        <time>2019-09-01T09:12:01Z</time>
      </trkpt>
      <trkpt lat="44.71406" lon="5.22129">
        <ele>682</ele>
        <time>2019-09-01T09:12:02Z</time>
      </trkpt>
      <trkpt lat="44.71404" lon="5.22125">
        <ele>682</ele>
        <time>2019-09-01T09:12:03Z</time>
      </trkpt>
      <trkpt lat="44.71402" lon="5.22121">
        <ele>682</ele>
        <time>2019-09-01T09:12:04Z</time>
      </trkpt>
      <trkpt lat="44.71401" lon="5.22117">
        <ele>682</ele>
        <time>2019-09-01T09:12:05Z</time>
      </trkpt>
      <trkpt lat="44.71399" lon="5.22114">
        <ele>682</ele>
        <time>2019-09-01T09:12:06Z</time>
      </trkpt>
      <trkpt lat="44.71397" lon="5.2211">
        <ele>682</ele>
        <time>2019-09-01T09:12:07Z</time>
      </trkpt>
      <trkpt lat="44.71394" lon="5.22107">
        <ele>681</ele>
        <time>2019-09-01T09:12:08Z</time>
      </trkpt>
      <trkpt lat="44.71392" lon="5.22104">
        <ele>681</ele>
        <time>2019-09-01T09:12:09Z</time>
      </trkpt>
      <trkpt lat="44.7139" lon="5.22099">
        <ele>681</ele>
        <time>2019-09-01T09:12:10Z</time>
      </trkpt>
      <trkpt lat="44.71388" lon="5.22095">
        <ele>681</ele>
        <time>2019-09-01T09:12:11Z</time>
      </trkpt>
      <trkpt lat="44.71386" lon="5.2209">
        <ele>681</ele>
        <time>2019-09-01T09:12:12Z</time>
      </trkpt>
      <trkpt lat="44.71383" lon="5.22086">
        <ele>681</ele>
        <time>2019-09-01T09:12:13Z</time>
      </trkpt>
      <trkpt lat="44.7138" lon="5.22081">
        <ele>682</ele>
        <time>2019-09-01T09:12:14Z</time>
      </trkpt>
      <trkpt lat="44.71377" lon="5.22076">
        <ele>682</ele>
        <time>2019-09-01T09:12:15Z</time>
      </trkpt>
      <trkpt lat="44.71374" lon="5.22073">
        <ele>681</ele>
        <time>2019-09-01T09:12:16Z</time>
      </trkpt>
      <trkpt lat="44.7137" lon="5.2207">
        <ele>681</ele>
        <time>2019-09-01T09:12:17Z</time>
      </trkpt>
      <trkpt lat="44.71366" lon="5.22066">
        <ele>681</ele>
        <time>2019-09-01T09:12:18Z</time>
      </trkpt>
      <trkpt lat="44.71362" lon="5.22062">
        <ele>681</ele>
        <time>2019-09-01T09:12:19Z</time>
      </trkpt>
      <trkpt lat="44.71358" lon="5.22057">
        <ele>681</ele>
        <time>2019-09-01T09:12:20Z</time>
      </trkpt>
      <trkpt lat="44.71356" lon="5.22053">
        <ele>681</ele>
        <time>2019-09-01T09:12:21Z</time>
      </trkpt>
      <trkpt lat="44.71353" lon="5.2205">
        <ele>681</ele>
        <time>2019-09-01T09:12:22Z</time>
      </trkpt>
      <trkpt lat="44.71351" lon="5.22045">
        <ele>681</ele>
        <time>2019-09-01T09:12:24Z</time>
      </trkpt>
      <trkpt lat="44.71349" lon="5.2204">
        <ele>681</ele>
        <time>2019-09-01T09:12:26Z</time>
      </trkpt>
      <trkpt lat="44.71347" lon="5.22035">
        <ele>682</ele>
        <time>2019-09-01T09:12:29Z</time>
      </trkpt>
      <trkpt lat="44.71347" lon="5.22031">
        <ele>682</ele>
        <time>2019-09-01T09:12:33Z</time>
      </trkpt>
      <trkpt lat="44.71347" lon="5.22027">
        <ele>682</ele>
        <time>2019-09-01T09:13:19Z</time>
      </trkpt>
      <trkpt lat="44.71349" lon="5.22024">
        <ele>682</ele>
        <time>2019-09-01T09:13:22Z</time>
      </trkpt>
      <trkpt lat="44.71352" lon="5.22024">
        <ele>682</ele>
        <time>2019-09-01T09:14:01Z</time>
      </trkpt>
      <trkpt lat="44.71349" lon="5.22023">
        <ele>682</ele>
        <time>2019-09-01T09:14:56Z</time>
      </trkpt>
      <trkpt lat="44.71348" lon="5.22019">
        <ele>683</ele>
        <time>2019-09-01T09:15:01Z</time>
      </trkpt>
      <trkpt lat="44.71348" lon="5.22015">
        <ele>683</ele>
        <time>2019-09-01T09:15:12Z</time>
      </trkpt>
      <trkpt lat="44.71351" lon="5.2202">
        <ele>682</ele>
        <time>2019-09-01T09:15:28Z</time>
      </trkpt>
      <trkpt lat="44.71352" lon="5.22024">
        <ele>682</ele>
        <time>2019-09-01T09:15:42Z</time>
      </trkpt>
      <trkpt lat="44.7135" lon="5.22021">
        <ele>682</ele>
        <time>2019-09-01T09:16:31Z</time>
      </trkpt>
      <trkpt lat="44.7135" lon="5.22025">
        <ele>682</ele>
        <time>2019-09-01T09:17:41Z</time>
      </trkpt>
      <trkpt lat="44.71349" lon="5.22021">
        <ele>682</ele>
        <time>2019-09-01T09:17:52Z</time>
      </trkpt>
      <trkpt lat="44.71349" lon="5.22026">
        <ele>682</ele>
        <time>2019-09-01T09:18:43Z</time>
      </trkpt>
      <trkpt lat="44.71348" lon="5.22022">
        <ele>682</ele>
        <time>2019-09-01T09:21:08Z</time>
      </trkpt>
      <trkpt lat="44.71347" lon="5.22018">
        <ele>683</ele>
        <time>2019-09-01T09:21:38Z</time>
      </trkpt>
      <trkpt lat="44.71346" lon="5.22014">
        <ele>683</ele>
        <time>2019-09-01T09:21:42Z</time>
      </trkpt>
      <trkpt lat="44.71345" lon="5.2201">
        <ele>683</ele>
        <time>2019-09-01T09:21:46Z</time>
      </trkpt>
      <trkpt lat="44.71344" lon="5.22005">
        <ele>683</ele>
        <time>2019-09-01T09:22:11Z</time>
      </trkpt>
      <trkpt lat="44.71344" lon="5.22001">
        <ele>683</ele>
        <time>2019-09-01T09:22:40Z</time>
      </trkpt>
      <trkpt lat="44.71345" lon="5.21997">
        <ele>685</ele>
        <time>2019-09-01T09:22:42Z</time>
      </trkpt>
      <trkpt lat="44.71345" lon="5.21992">
        <ele>685</ele>
        <time>2019-09-01T09:22:44Z</time>
      </trkpt>
      <trkpt lat="44.71345" lon="5.21988">
        <ele>685</ele>
        <time>2019-09-01T09:22:45Z</time>
      </trkpt>
      <trkpt lat="44.71344" lon="5.21981">
        <ele>685</ele>
        <time>2019-09-01T09:22:47Z</time>
      </trkpt>
      <trkpt lat="44.71342" lon="5.21973">
        <ele>685</ele>
        <time>2019-09-01T09:22:49Z</time>
      </trkpt>
      <trkpt lat="44.71341" lon="5.21966">
        <ele>686</ele>
        <time>2019-09-01T09:22:51Z</time>
      </trkpt>
      <trkpt lat="44.71341" lon="5.2196">
        <ele>686</ele>
        <time>2019-09-01T09:22:53Z</time>
      </trkpt>
      <trkpt lat="44.71342" lon="5.21954">
        <ele>686</ele>
        <time>2019-09-01T09:22:55Z</time>
      </trkpt>
      <trkpt lat="44.71342" lon="5.21948">
        <ele>686</ele>
        <time>2019-09-01T09:22:57Z</time>
      </trkpt>
      <trkpt lat="44.71342" lon="5.21943">
        <ele>687</ele>
        <time>2019-09-01T09:22:59Z</time>
      </trkpt>
      <trkpt lat="44.71343" lon="5.21937">
        <ele>687</ele>
        <time>2019-09-01T09:23:01Z</time>
      </trkpt>
      <trkpt lat="44.71343" lon="5.21932">
        <ele>687</ele>
        <time>2019-09-01T09:23:03Z</time>
      </trkpt>
      <trkpt lat="44.71343" lon="5.21928">
        <ele>687</ele>
        <time>2019-09-01T09:23:05Z</time>
      </trkpt>
      <trkpt lat="44.71342" lon="5.21924">
        <ele>688</ele>
        <time>2019-09-01T09:23:07Z</time>
      </trkpt>
      <trkpt lat="44.7134" lon="5.21918">
        <ele>688</ele>
        <time>2019-09-01T09:23:09Z</time>
      </trkpt>
      <trkpt lat="44.71338" lon="5.21913">
        <ele>690</ele>
        <time>2019-09-01T09:23:11Z</time>
      </trkpt>
      <trkpt lat="44.71336" lon="5.21907">
        <ele>690</ele>
        <time>2019-09-01T09:23:13Z</time>
      </trkpt>
      <trkpt lat="44.71334" lon="5.21902">
        <ele>690</ele>
        <time>2019-09-01T09:23:15Z</time>
      </trkpt>
      <trkpt lat="44.71331" lon="5.21899">
        <ele>692</ele>
        <time>2019-09-01T09:23:17Z</time>
      </trkpt>
      <trkpt lat="44.71328" lon="5.21896">
        <ele>692</ele>
        <time>2019-09-01T09:23:19Z</time>
      </trkpt>
      <trkpt lat="44.71325" lon="5.21894">
        <ele>692</ele>
        <time>2019-09-01T09:23:21Z</time>
      </trkpt>
      <trkpt lat="44.71322" lon="5.21892">
        <ele>692</ele>
        <time>2019-09-01T09:23:23Z</time>
      </trkpt>
      <trkpt lat="44.71319" lon="5.21891">
        <ele>693</ele>
        <time>2019-09-01T09:23:25Z</time>
      </trkpt>
      <trkpt lat="44.71316" lon="5.21889">
        <ele>693</ele>
        <time>2019-09-01T09:23:27Z</time>
      </trkpt>
      <trkpt lat="44.71313" lon="5.21886">
        <ele>693</ele>
        <time>2019-09-01T09:23:30Z</time>
      </trkpt>
      <trkpt lat="44.71309" lon="5.21882">
        <ele>693</ele>
        <time>2019-09-01T09:23:32Z</time>
      </trkpt>
      <trkpt lat="44.71306" lon="5.2188">
        <ele>694</ele>
        <time>2019-09-01T09:23:34Z</time>
      </trkpt>
      <trkpt lat="44.71303" lon="5.21877">
        <ele>694</ele>
        <time>2019-09-01T09:23:36Z</time>
      </trkpt>
      <trkpt lat="44.713" lon="5.21875">
        <ele>694</ele>
        <time>2019-09-01T09:23:38Z</time>
      </trkpt>
      <trkpt lat="44.71297" lon="5.21872">
        <ele>694</ele>
        <time>2019-09-01T09:23:40Z</time>
      </trkpt>
      <trkpt lat="44.71294" lon="5.2187">
        <ele>694</ele>
        <time>2019-09-01T09:23:42Z</time>
      </trkpt>
      <trkpt lat="44.71291" lon="5.21868">
        <ele>694</ele>
        <time>2019-09-01T09:23:44Z</time>
      </trkpt>
      <trkpt lat="44.71289" lon="5.21865">
        <ele>694</ele>
        <time>2019-09-01T09:23:46Z</time>
      </trkpt>
      <trkpt lat="44.71286" lon="5.21863">
        <ele>695</ele>
        <time>2019-09-01T09:23:48Z</time>
      </trkpt>
      <trkpt lat="44.71283" lon="5.2186">
        <ele>695</ele>
        <time>2019-09-01T09:23:50Z</time>
      </trkpt>
      <trkpt lat="44.71279" lon="5.21857">
        <ele>695</ele>
        <time>2019-09-01T09:23:53Z</time>
      </trkpt>
      <trkpt lat="44.71276" lon="5.21855">
        <ele>695</ele>
        <time>2019-09-01T09:23:55Z</time>
      </trkpt>
      <trkpt lat="44.71274" lon="5.21853">
        <ele>696</ele>
        <time>2019-09-01T09:23:57Z</time>
      </trkpt>
      <trkpt lat="44.7127" lon="5.21851">
        <ele>696</ele>
        <time>2019-09-01T09:24:00Z</time>
      </trkpt>
      <trkpt lat="44.71267" lon="5.2185">
        <ele>696</ele>
        <time>2019-09-01T09:24:03Z</time>
      </trkpt>
      <trkpt lat="44.71264" lon="5.21849">
        <ele>696</ele>
        <time>2019-09-01T09:24:05Z</time>
      </trkpt>
      <trkpt lat="44.71261" lon="5.21848">
        <ele>697</ele>
        <time>2019-09-01T09:24:08Z</time>
      </trkpt>
      <trkpt lat="44.71258" lon="5.21846">
        <ele>697</ele>
        <time>2019-09-01T09:24:10Z</time>
      </trkpt>
      <trkpt lat="44.71255" lon="5.21843">
        <ele>698</ele>
        <time>2019-09-01T09:24:12Z</time>
      </trkpt>
      <trkpt lat="44.71252" lon="5.21841">
        <ele>698</ele>
        <time>2019-09-01T09:24:15Z</time>
      </trkpt>
      <trkpt lat="44.71249" lon="5.21839">
        <ele>698</ele>
        <time>2019-09-01T09:24:18Z</time>
      </trkpt>
      <trkpt lat="44.71246" lon="5.21838">
        <ele>698</ele>
        <time>2019-09-01T09:24:20Z</time>
      </trkpt>
      <trkpt lat="44.71243" lon="5.21837">
        <ele>697</ele>
        <time>2019-09-01T09:24:23Z</time>
      </trkpt>
      <trkpt lat="44.7124" lon="5.21835">
        <ele>697</ele>
        <time>2019-09-01T09:24:25Z</time>
      </trkpt>
      <trkpt lat="44.71237" lon="5.21833">
        <ele>704</ele>
        <time>2019-09-01T09:24:27Z</time>
      </trkpt>
      <trkpt lat="44.71234" lon="5.21832">
        <ele>705</ele>
        <time>2019-09-01T09:24:29Z</time>
      </trkpt>
      <trkpt lat="44.71231" lon="5.2183">
        <ele>706</ele>
        <time>2019-09-01T09:24:32Z</time>
      </trkpt>
      <trkpt lat="44.71228" lon="5.21829">
        <ele>706</ele>
        <time>2019-09-01T09:24:34Z</time>
      </trkpt>
      <trkpt lat="44.71225" lon="5.21827">
        <ele>706</ele>
        <time>2019-09-01T09:24:36Z</time>
      </trkpt>
      <trkpt lat="44.71222" lon="5.21825">
        <ele>707</ele>
        <time>2019-09-01T09:24:39Z</time>
      </trkpt>
      <trkpt lat="44.71219" lon="5.21823">
        <ele>707</ele>
        <time>2019-09-01T09:24:41Z</time>
      </trkpt>
      <trkpt lat="44.71217" lon="5.21821">
        <ele>707</ele>
        <time>2019-09-01T09:24:44Z</time>
      </trkpt>
      <trkpt lat="44.71214" lon="5.21819">
        <ele>708</ele>
        <time>2019-09-01T09:24:46Z</time>
      </trkpt>
      <trkpt lat="44.71212" lon="5.21817">
        <ele>708</ele>
        <time>2019-09-01T09:24:48Z</time>
      </trkpt>
      <trkpt lat="44.71208" lon="5.21816">
        <ele>708</ele>
        <time>2019-09-01T09:24:51Z</time>
      </trkpt>
      <trkpt lat="44.71204" lon="5.21814">
        <ele>708</ele>
        <time>2019-09-01T09:24:54Z</time>
      </trkpt>
      <trkpt lat="44.71201" lon="5.21814">
        <ele>708</ele>
        <time>2019-09-01T09:24:56Z</time>
      </trkpt>
      <trkpt lat="44.71197" lon="5.21812">
        <ele>708</ele>
        <time>2019-09-01T09:24:59Z</time>
      </trkpt>
      <trkpt lat="44.71194" lon="5.21811">
        <ele>708</ele>
        <time>2019-09-01T09:25:01Z</time>
      </trkpt>
      <trkpt lat="44.71191" lon="5.21811">
        <ele>707</ele>
        <time>2019-09-01T09:25:03Z</time>
      </trkpt>
      <trkpt lat="44.71188" lon="5.21809">
        <ele>707</ele>
        <time>2019-09-01T09:25:05Z</time>
      </trkpt>
      <trkpt lat="44.71185" lon="5.21809">
        <ele>707</ele>
        <time>2019-09-01T09:25:07Z</time>
      </trkpt>
      <trkpt lat="44.71182" lon="5.21807">
        <ele>707</ele>
        <time>2019-09-01T09:25:09Z</time>
      </trkpt>
      <trkpt lat="44.71178" lon="5.21806">
        <ele>707</ele>
        <time>2019-09-01T09:25:11Z</time>
      </trkpt>
      <trkpt lat="44.71176" lon="5.21804">
        <ele>708</ele>
        <time>2019-09-01T09:25:13Z</time>
      </trkpt>
      <trkpt lat="44.71173" lon="5.21802">
        <ele>708</ele>
        <time>2019-09-01T09:25:15Z</time>
      </trkpt>
      <trkpt lat="44.7117" lon="5.218">
        <ele>709</ele>
        <time>2019-09-01T09:25:17Z</time>
      </trkpt>
      <trkpt lat="44.71167" lon="5.21797">
        <ele>710</ele>
        <time>2019-09-01T09:25:19Z</time>
      </trkpt>
      <trkpt lat="44.71164" lon="5.21795">
        <ele>706</ele>
        <time>2019-09-01T09:25:21Z</time>
      </trkpt>
      <trkpt lat="44.71161" lon="5.21793">
        <ele>707</ele>
        <time>2019-09-01T09:25:23Z</time>
      </trkpt>
      <trkpt lat="44.71158" lon="5.21791">
        <ele>707</ele>
        <time>2019-09-01T09:25:25Z</time>
      </trkpt>
      <trkpt lat="44.71156" lon="5.21788">
        <ele>708</ele>
        <time>2019-09-01T09:25:27Z</time>
      </trkpt>
      <trkpt lat="44.71152" lon="5.21786">
        <ele>708</ele>
        <time>2019-09-01T09:25:29Z</time>
      </trkpt>
      <trkpt lat="44.71149" lon="5.21783">
        <ele>709</ele>
        <time>2019-09-01T09:25:31Z</time>
      </trkpt>
      <trkpt lat="44.71146" lon="5.21781">
        <ele>709</ele>
        <time>2019-09-01T09:25:33Z</time>
      </trkpt>
      <trkpt lat="44.71143" lon="5.21778">
        <ele>709</ele>
        <time>2019-09-01T09:25:35Z</time>
      </trkpt>
      <trkpt lat="44.7114" lon="5.21775">
        <ele>709</ele>
        <time>2019-09-01T09:25:37Z</time>
      </trkpt>
      <trkpt lat="44.71137" lon="5.21773">
        <ele>710</ele>
        <time>2019-09-01T09:25:39Z</time>
      </trkpt>
      <trkpt lat="44.71133" lon="5.2177">
        <ele>710</ele>
        <time>2019-09-01T09:25:41Z</time>
      </trkpt>
      <trkpt lat="44.71129" lon="5.21768">
        <ele>710</ele>
        <time>2019-09-01T09:25:43Z</time>
      </trkpt>
      <trkpt lat="44.71127" lon="5.21766">
        <ele>710</ele>
        <time>2019-09-01T09:25:45Z</time>
      </trkpt>
      <trkpt lat="44.71124" lon="5.21764">
        <ele>710</ele>
        <time>2019-09-01T09:25:47Z</time>
      </trkpt>
      <trkpt lat="44.71121" lon="5.21763">
        <ele>710</ele>
        <time>2019-09-01T09:25:49Z</time>
      </trkpt>
      <trkpt lat="44.71118" lon="5.21762">
        <ele>710</ele>
        <time>2019-09-01T09:25:51Z</time>
      </trkpt>
      <trkpt lat="44.71114" lon="5.21761">
        <ele>710</ele>
        <time>2019-09-01T09:25:53Z</time>
      </trkpt>
      <trkpt lat="44.7111" lon="5.21759">
        <ele>710</ele>
        <time>2019-09-01T09:25:55Z</time>
      </trkpt>
      <trkpt lat="44.71107" lon="5.21758">
        <ele>710</ele>
        <time>2019-09-01T09:25:57Z</time>
      </trkpt>
      <trkpt lat="44.71103" lon="5.21757">
        <ele>711</ele>
        <time>2019-09-01T09:25:59Z</time>
      </trkpt>
      <trkpt lat="44.71101" lon="5.21756">
        <ele>711</ele>
        <time>2019-09-01T09:26:01Z</time>
      </trkpt>
      <trkpt lat="44.71098" lon="5.21756">
        <ele>712</ele>
        <time>2019-09-01T09:26:03Z</time>
      </trkpt>
      <trkpt lat="44.71094" lon="5.21754">
        <ele>712</ele>
        <time>2019-09-01T09:26:06Z</time>
      </trkpt>
      <trkpt lat="44.71091" lon="5.21754">
        <ele>713</ele>
        <time>2019-09-01T09:26:08Z</time>
      </trkpt>
      <trkpt lat="44.71088" lon="5.21753">
        <ele>714</ele>
        <time>2019-09-01T09:26:11Z</time>
      </trkpt>
      <trkpt lat="44.71085" lon="5.21752">
        <ele>715</ele>
        <time>2019-09-01T09:26:13Z</time>
      </trkpt>
      <trkpt lat="44.71082" lon="5.2175">
        <ele>716</ele>
        <time>2019-09-01T09:26:15Z</time>
      </trkpt>
      <trkpt lat="44.71079" lon="5.21749">
        <ele>716</ele>
        <time>2019-09-01T09:26:17Z</time>
      </trkpt>
      <trkpt lat="44.71076" lon="5.21748">
        <ele>716</ele>
        <time>2019-09-01T09:26:19Z</time>
      </trkpt>
      <trkpt lat="44.71073" lon="5.21747">
        <ele>716</ele>
        <time>2019-09-01T09:26:22Z</time>
      </trkpt>
      <trkpt lat="44.7107" lon="5.21747">
        <ele>716</ele>
        <time>2019-09-01T09:26:24Z</time>
      </trkpt>
      <trkpt lat="44.71067" lon="5.21746">
        <ele>715</ele>
        <time>2019-09-01T09:26:26Z</time>
      </trkpt>
      <trkpt lat="44.71064" lon="5.21745">
        <ele>715</ele>
        <time>2019-09-01T09:26:28Z</time>
      </trkpt>
      <trkpt lat="44.71061" lon="5.21744">
        <ele>715</ele>
        <time>2019-09-01T09:26:30Z</time>
      </trkpt>
      <trkpt lat="44.71057" lon="5.21742">
        <ele>715</ele>
        <time>2019-09-01T09:26:32Z</time>
      </trkpt>
      <trkpt lat="44.71053" lon="5.21741">
        <ele>714</ele>
        <time>2019-09-01T09:26:34Z</time>
      </trkpt>
      <trkpt lat="44.71049" lon="5.21739">
        <ele>714</ele>
        <time>2019-09-01T09:26:36Z</time>
      </trkpt>
      <trkpt lat="44.71045" lon="5.21737">
        <ele>713</ele>
        <time>2019-09-01T09:26:38Z</time>
      </trkpt>
      <trkpt lat="44.71042" lon="5.21735">
        <ele>713</ele>
        <time>2019-09-01T09:26:40Z</time>
      </trkpt>
      <trkpt lat="44.71039" lon="5.21733">
        <ele>712</ele>
        <time>2019-09-01T09:26:42Z</time>
      </trkpt>
      <trkpt lat="44.71036" lon="5.21729">
        <ele>712</ele>
        <time>2019-09-01T09:26:44Z</time>
      </trkpt>
      <trkpt lat="44.71033" lon="5.21725">
        <ele>712</ele>
        <time>2019-09-01T09:26:46Z</time>
      </trkpt>
      <trkpt lat="44.71032" lon="5.21721">
        <ele>713</ele>
        <time>2019-09-01T09:26:48Z</time>
      </trkpt>
      <trkpt lat="44.7103" lon="5.21717">
        <ele>713</ele>
        <time>2019-09-01T09:26:50Z</time>
      </trkpt>
      <trkpt lat="44.71027" lon="5.21713">
        <ele>713</ele>
        <time>2019-09-01T09:26:52Z</time>
      </trkpt>
      <trkpt lat="44.71026" lon="5.21709">
        <ele>713</ele>
        <time>2019-09-01T09:26:54Z</time>
      </trkpt>
      <trkpt lat="44.71024" lon="5.21704">
        <ele>714</ele>
        <time>2019-09-01T09:26:56Z</time>
      </trkpt>
      <trkpt lat="44.71023" lon="5.21699">
        <ele>714</ele>
        <time>2019-09-01T09:26:58Z</time>
      </trkpt>
      <trkpt lat="44.71021" lon="5.21695">
        <ele>714</ele>
        <time>2019-09-01T09:27:00Z</time>
      </trkpt>
      <trkpt lat="44.71019" lon="5.21691">
        <ele>715</ele>
        <time>2019-09-01T09:27:02Z</time>
      </trkpt>
      <trkpt lat="44.71018" lon="5.21686">
        <ele>715</ele>
        <time>2019-09-01T09:27:04Z</time>
      </trkpt>
      <trkpt lat="44.71017" lon="5.21681">
        <ele>715</ele>
        <time>2019-09-01T09:27:06Z</time>
      </trkpt>
      <trkpt lat="44.71017" lon="5.21675">
        <ele>715</ele>
        <time>2019-09-01T09:27:08Z</time>
      </trkpt>
      <trkpt lat="44.71015" lon="5.21671">
        <ele>715</ele>
        <time>2019-09-01T09:27:10Z</time>
      </trkpt>
      <trkpt lat="44.71013" lon="5.21667">
        <ele>714</ele>
        <time>2019-09-01T09:27:12Z</time>
      </trkpt>
      <trkpt lat="44.71012" lon="5.21662">
        <ele>720</ele>
        <time>2019-09-01T09:27:14Z</time>
      </trkpt>
      <trkpt lat="44.71011" lon="5.21657">
        <ele>721</ele>
        <time>2019-09-01T09:27:16Z</time>
      </trkpt>
      <trkpt lat="44.7101" lon="5.21651">
        <ele>723</ele>
        <time>2019-09-01T09:27:18Z</time>
      </trkpt>
      <trkpt lat="44.71008" lon="5.21644">
        <ele>725</ele>
        <time>2019-09-01T09:27:20Z</time>
      </trkpt>
      <trkpt lat="44.71007" lon="5.21638">
        <ele>726</ele>
        <time>2019-09-01T09:27:22Z</time>
      </trkpt>
      <trkpt lat="44.71005" lon="5.2163">
        <ele>727</ele>
        <time>2019-09-01T09:27:24Z</time>
      </trkpt>
      <trkpt lat="44.71004" lon="5.21626">
        <ele>728</ele>
        <time>2019-09-01T09:27:25Z</time>
      </trkpt>
      <trkpt lat="44.71003" lon="5.21623">
        <ele>728</ele>
        <time>2019-09-01T09:27:26Z</time>
      </trkpt>
      <trkpt lat="44.71002" lon="5.21617">
        <ele>728</ele>
        <time>2019-09-01T09:27:28Z</time>
      </trkpt>
      <trkpt lat="44.71" lon="5.21612">
        <ele>729</ele>
        <time>2019-09-01T09:27:30Z</time>
      </trkpt>
      <trkpt lat="44.70998" lon="5.21605">
        <ele>716</ele>
        <time>2019-09-01T09:27:32Z</time>
      </trkpt>
      <trkpt lat="44.70997" lon="5.21598">
        <ele>718</ele>
        <time>2019-09-01T09:27:34Z</time>
      </trkpt>
      <trkpt lat="44.70995" lon="5.21593">
        <ele>720</ele>
        <time>2019-09-01T09:27:36Z</time>
      </trkpt>
      <trkpt lat="44.70994" lon="5.21588">
        <ele>722</ele>
        <time>2019-09-01T09:27:39Z</time>
      </trkpt>
      <trkpt lat="44.70992" lon="5.21584">
        <ele>722</ele>
        <time>2019-09-01T09:27:42Z</time>
      </trkpt>
      <trkpt lat="44.70991" lon="5.2158">
        <ele>726</ele>
        <time>2019-09-01T09:27:45Z</time>
      </trkpt>
      <trkpt lat="44.70992" lon="5.21574">
        <ele>727</ele>
        <time>2019-09-01T09:27:50Z</time>
      </trkpt>
      <trkpt lat="44.70992" lon="5.21568">
        <ele>727</ele>
        <time>2019-09-01T09:27:52Z</time>
      </trkpt>
      <trkpt lat="44.70996" lon="5.21566">
        <ele>727</ele>
        <time>2019-09-01T09:28:01Z</time>
      </trkpt>
      <trkpt lat="44.70997" lon="5.2157">
        <ele>727</ele>
        <time>2019-09-01T09:28:19Z</time>
      </trkpt>
      <trkpt lat="44.70999" lon="5.21573">
        <ele>727</ele>
        <time>2019-09-01T09:28:26Z</time>
      </trkpt>
      <trkpt lat="44.70997" lon="5.21573">
        <ele>727</ele>
        <time>2019-09-01T09:28:42Z</time>
      </trkpt>
      <trkpt lat="44.70995" lon="5.21568">
        <ele>727</ele>
        <time>2019-09-01T09:28:45Z</time>
      </trkpt>
      <trkpt lat="44.70994" lon="5.21565">
        <ele>727</ele>
        <time>2019-09-01T09:28:48Z</time>
      </trkpt>
      <trkpt lat="44.70992" lon="5.21561">
        <ele>728</ele>
        <time>2019-09-01T09:28:56Z</time>
      </trkpt>
      <trkpt lat="44.70994" lon="5.21558">
        <ele>728</ele>
        <time>2019-09-01T09:28:58Z</time>
      </trkpt>
      <trkpt lat="44.70996" lon="5.21556">
        <ele>728</ele>
        <time>2019-09-01T09:29:02Z</time>
      </trkpt>
      <trkpt lat="44.70995" lon="5.21553">
        <ele>728</ele>
        <time>2019-09-01T09:29:11Z</time>
      </trkpt>
      <trkpt lat="44.70995" lon="5.21549">
        <ele>729</ele>
        <time>2019-09-01T09:29:19Z</time>
      </trkpt>
      <trkpt lat="44.70996" lon="5.21545">
        <ele>729</ele>
        <time>2019-09-01T09:29:25Z</time>
      </trkpt>
      <trkpt lat="44.70998" lon="5.21539">
        <ele>730</ele>
        <time>2019-09-01T09:29:28Z</time>
      </trkpt>
      <trkpt lat="44.70999" lon="5.21534">
        <ele>730</ele>
        <time>2019-09-01T09:29:35Z</time>
      </trkpt>
      <trkpt lat="44.71" lon="5.21529">
        <ele>731</ele>
        <time>2019-09-01T09:29:37Z</time>
      </trkpt>
      <trkpt lat="44.71003" lon="5.21525">
        <ele>739</ele>
        <time>2019-09-01T09:29:39Z</time>
      </trkpt>
      <trkpt lat="44.71006" lon="5.21522">
        <ele>739</ele>
        <time>2019-09-01T09:29:41Z</time>
      </trkpt>
      <trkpt lat="44.71008" lon="5.2152">
        <ele>739</ele>
        <time>2019-09-01T09:29:43Z</time>
      </trkpt>
      <trkpt lat="44.71011" lon="5.21516">
        <ele>739</ele>
        <time>2019-09-01T09:29:45Z</time>
      </trkpt>
      <trkpt lat="44.71013" lon="5.21514">
        <ele>740</ele>
        <time>2019-09-01T09:29:47Z</time>
      </trkpt>
      <trkpt lat="44.71015" lon="5.21511">
        <ele>740</ele>
        <time>2019-09-01T09:29:49Z</time>
      </trkpt>
      <trkpt lat="44.71018" lon="5.21509">
        <ele>740</ele>
        <time>2019-09-01T09:29:51Z</time>
      </trkpt>
      <trkpt lat="44.71021" lon="5.21507">
        <ele>740</ele>
        <time>2019-09-01T09:29:53Z</time>
      </trkpt>
      <trkpt lat="44.71025" lon="5.21506">
        <ele>741</ele>
        <time>2019-09-01T09:29:56Z</time>
      </trkpt>
      <trkpt lat="44.71028" lon="5.21503">
        <ele>741</ele>
        <time>2019-09-01T09:29:59Z</time>
      </trkpt>
      <trkpt lat="44.71031" lon="5.215">
        <ele>741</ele>
        <time>2019-09-01T09:30:02Z</time>
      </trkpt>
      <trkpt lat="44.71034" lon="5.21497">
        <ele>747</ele>
        <time>2019-09-01T09:30:05Z</time>
      </trkpt>
      <trkpt lat="44.71037" lon="5.21494">
        <ele>748</ele>
        <time>2019-09-01T09:30:08Z</time>
      </trkpt>
      <trkpt lat="44.71039" lon="5.21491">
        <ele>748</ele>
        <time>2019-09-01T09:30:11Z</time>
      </trkpt>
      <trkpt lat="44.71042" lon="5.21489">
        <ele>748</ele>
        <time>2019-09-01T09:30:15Z</time>
      </trkpt>
      <trkpt lat="44.71043" lon="5.21485">
        <ele>749</ele>
        <time>2019-09-01T09:30:19Z</time>
      </trkpt>
      <trkpt lat="44.71045" lon="5.2148">
        <ele>749</ele>
        <time>2019-09-01T09:30:22Z</time>
      </trkpt>
      <trkpt lat="44.71047" lon="5.21475">
        <ele>749</ele>
        <time>2019-09-01T09:30:25Z</time>
      </trkpt>
      <trkpt lat="44.71049" lon="5.21472">
        <ele>749</ele>
        <time>2019-09-01T09:30:27Z</time>
      </trkpt>
      <trkpt lat="44.71051" lon="5.21468">
        <ele>750</ele>
        <time>2019-09-01T09:30:29Z</time>
      </trkpt>
      <trkpt lat="44.71053" lon="5.21466">
        <ele>750</ele>
        <time>2019-09-01T09:30:32Z</time>
      </trkpt>
      <trkpt lat="44.71056" lon="5.21464">
        <ele>750</ele>
        <time>2019-09-01T09:30:34Z</time>
      </trkpt>
      <trkpt lat="44.71058" lon="5.2146">
        <ele>750</ele>
        <time>2019-09-01T09:30:37Z</time>
      </trkpt>
      <trkpt lat="44.71061" lon="5.21457">
        <ele>751</ele>
        <time>2019-09-01T09:30:40Z</time>
      </trkpt>
      <trkpt lat="44.71063" lon="5.21454">
        <ele>751</ele>
        <time>2019-09-01T09:30:42Z</time>
      </trkpt>
      <trkpt lat="44.71065" lon="5.2145">
        <ele>751</ele>
        <time>2019-09-01T09:30:45Z</time>
      </trkpt>
      <trkpt lat="44.71067" lon="5.21447">
        <ele>751</ele>
        <time>2019-09-01T09:30:47Z</time>
      </trkpt>
      <trkpt lat="44.71069" lon="5.21444">
        <ele>751</ele>
        <time>2019-09-01T09:30:49Z</time>
      </trkpt>
      <trkpt lat="44.71071" lon="5.21441">
        <ele>752</ele>
        <time>2019-09-01T09:30:52Z</time>
      </trkpt>
      <trkpt lat="44.71073" lon="5.21438">
        <ele>752</ele>
        <time>2019-09-01T09:30:55Z</time>
      </trkpt>
      <trkpt lat="44.71076" lon="5.21435">
        <ele>752</ele>
        <time>2019-09-01T09:30:58Z</time>
      </trkpt>
      <trkpt lat="44.71078" lon="5.2143">
        <ele>752</ele>
        <time>2019-09-01T09:31:01Z</time>
      </trkpt>
      <trkpt lat="44.7108" lon="5.21428">
        <ele>753</ele>
        <time>2019-09-01T09:31:03Z</time>
      </trkpt>
      <trkpt lat="44.71083" lon="5.21425">
        <ele>753</ele>
        <time>2019-09-01T09:31:05Z</time>
      </trkpt>
      <trkpt lat="44.71085" lon="5.21422">
        <ele>755</ele>
        <time>2019-09-01T09:31:07Z</time>
      </trkpt>
      <trkpt lat="44.71089" lon="5.21421">
        <ele>755</ele>
        <time>2019-09-01T09:31:10Z</time>
      </trkpt>
      <trkpt lat="44.71092" lon="5.21418">
        <ele>755</ele>
        <time>2019-09-01T09:31:13Z</time>
      </trkpt>
      <trkpt lat="44.71094" lon="5.21414">
        <ele>756</ele>
        <time>2019-09-01T09:31:17Z</time>
      </trkpt>
      <trkpt lat="44.71095" lon="5.21411">
        <ele>756</ele>
        <time>2019-09-01T09:31:21Z</time>
      </trkpt>
      <trkpt lat="44.71095" lon="5.21405">
        <ele>756</ele>
        <time>2019-09-01T09:31:25Z</time>
      </trkpt>
      <trkpt lat="44.71094" lon="5.21401">
        <ele>757</ele>
        <time>2019-09-01T09:31:28Z</time>
      </trkpt>
      <trkpt lat="44.71093" lon="5.21396">
        <ele>757</ele>
        <time>2019-09-01T09:31:31Z</time>
      </trkpt>
      <trkpt lat="44.71091" lon="5.21392">
        <ele>757</ele>
        <time>2019-09-01T09:31:34Z</time>
      </trkpt>
      <trkpt lat="44.7109" lon="5.21389">
        <ele>758</ele>
        <time>2019-09-01T09:31:37Z</time>
      </trkpt>
      <trkpt lat="44.71091" lon="5.21383">
        <ele>758</ele>
        <time>2019-09-01T09:31:40Z</time>
      </trkpt>
      <trkpt lat="44.71093" lon="5.2138">
        <ele>758</ele>
        <time>2019-09-01T09:31:42Z</time>
      </trkpt>
      <trkpt lat="44.71095" lon="5.21376">
        <ele>758</ele>
        <time>2019-09-01T09:31:44Z</time>
      </trkpt>
      <trkpt lat="44.71096" lon="5.21372">
        <ele>759</ele>
        <time>2019-09-01T09:31:46Z</time>
      </trkpt>
      <trkpt lat="44.71098" lon="5.21367">
        <ele>759</ele>
        <time>2019-09-01T09:31:48Z</time>
      </trkpt>
      <trkpt lat="44.711" lon="5.21362">
        <ele>759</ele>
        <time>2019-09-01T09:31:50Z</time>
      </trkpt>
      <trkpt lat="44.71104" lon="5.21357">
        <ele>759</ele>
        <time>2019-09-01T09:31:52Z</time>
      </trkpt>
      <trkpt lat="44.71107" lon="5.21354">
        <ele>759</ele>
        <time>2019-09-01T09:31:54Z</time>
      </trkpt>
      <trkpt lat="44.7111" lon="5.2135">
        <ele>759</ele>
        <time>2019-09-01T09:31:56Z</time>
      </trkpt>
      <trkpt lat="44.71112" lon="5.21347">
        <ele>759</ele>
        <time>2019-09-01T09:31:58Z</time>
      </trkpt>
      <trkpt lat="44.71115" lon="5.21342">
        <ele>759</ele>
        <time>2019-09-01T09:32:01Z</time>
      </trkpt>
      <trkpt lat="44.71118" lon="5.21339">
        <ele>759</ele>
        <time>2019-09-01T09:32:03Z</time>
      </trkpt>
      <trkpt lat="44.7112" lon="5.21337">
        <ele>759</ele>
        <time>2019-09-01T09:32:05Z</time>
      </trkpt>
      <trkpt lat="44.71123" lon="5.21334">
        <ele>759</ele>
        <time>2019-09-01T09:32:07Z</time>
      </trkpt>
      <trkpt lat="44.71125" lon="5.21332">
        <ele>758</ele>
        <time>2019-09-01T09:32:09Z</time>
      </trkpt>
      <trkpt lat="44.71128" lon="5.21328">
        <ele>758</ele>
        <time>2019-09-01T09:32:11Z</time>
      </trkpt>
      <trkpt lat="44.7113" lon="5.21324">
        <ele>758</ele>
        <time>2019-09-01T09:32:13Z</time>
      </trkpt>
      <trkpt lat="44.71132" lon="5.21321">
        <ele>758</ele>
        <time>2019-09-01T09:32:15Z</time>
      </trkpt>
      <trkpt lat="44.71135" lon="5.21317">
        <ele>758</ele>
        <time>2019-09-01T09:32:17Z</time>
      </trkpt>
      <trkpt lat="44.71138" lon="5.21314">
        <ele>758</ele>
        <time>2019-09-01T09:32:19Z</time>
      </trkpt>
      <trkpt lat="44.71139" lon="5.2131">
        <ele>758</ele>
        <time>2019-09-01T09:32:24Z</time>
      </trkpt>
      <trkpt lat="44.7114" lon="5.21306">
        <ele>757</ele>
        <time>2019-09-01T09:32:48Z</time>
      </trkpt>
      <trkpt lat="44.71143" lon="5.21305">
        <ele>757</ele>
        <time>2019-09-01T09:33:02Z</time>
      </trkpt>
      <trkpt lat="44.71145" lon="5.21301">
        <ele>757</ele>
        <time>2019-09-01T09:33:06Z</time>
      </trkpt>
      <trkpt lat="44.71146" lon="5.21297">
        <ele>757</ele>
        <time>2019-09-01T09:33:08Z</time>
      </trkpt>
      <trkpt lat="44.71148" lon="5.21291">
        <ele>757</ele>
        <time>2019-09-01T09:33:10Z</time>
      </trkpt>
      <trkpt lat="44.7115" lon="5.21284">
        <ele>756</ele>
        <time>2019-09-01T09:33:12Z</time>
      </trkpt>
      <trkpt lat="44.71149" lon="5.2128">
        <ele>756</ele>
        <time>2019-09-01T09:33:13Z</time>
      </trkpt>
      <trkpt lat="44.71149" lon="5.21275">
        <ele>755</ele>
        <time>2019-09-01T09:33:14Z</time>
      </trkpt>
      <trkpt lat="44.7115" lon="5.21268">
        <ele>755</ele>
        <time>2019-09-01T09:33:15Z</time>
      </trkpt>
      <trkpt lat="44.71152" lon="5.21262">
        <ele>754</ele>
        <time>2019-09-01T09:33:16Z</time>
      </trkpt>
      <trkpt lat="44.71157" lon="5.21254">
        <ele>753</ele>
        <time>2019-09-01T09:33:17Z</time>
      </trkpt>
      <trkpt lat="44.7116" lon="5.21248">
        <ele>749</ele>
        <time>2019-09-01T09:33:18Z</time>
      </trkpt>
      <trkpt lat="44.71159" lon="5.21242">
        <ele>749</ele>
        <time>2019-09-01T09:33:20Z</time>
      </trkpt>
      <trkpt lat="44.71157" lon="5.21239">
        <ele>748</ele>
        <time>2019-09-01T09:33:21Z</time>
      </trkpt>
      <trkpt lat="44.71153" lon="5.21235">
        <ele>748</ele>
        <time>2019-09-01T09:33:22Z</time>
      </trkpt>
      <trkpt lat="44.71149" lon="5.21231">
        <ele>748</ele>
        <time>2019-09-01T09:33:23Z</time>
      </trkpt>
      <trkpt lat="44.71145" lon="5.21227">
        <ele>747</ele>
        <time>2019-09-01T09:33:24Z</time>
      </trkpt>
      <trkpt lat="44.71141" lon="5.21223">
        <ele>747</ele>
        <time>2019-09-01T09:33:25Z</time>
      </trkpt>
      <trkpt lat="44.71139" lon="5.21216">
        <ele>746</ele>
        <time>2019-09-01T09:33:27Z</time>
      </trkpt>
      <trkpt lat="44.71138" lon="5.21212">
        <ele>746</ele>
        <time>2019-09-01T09:33:28Z</time>
      </trkpt>
      <trkpt lat="44.71134" lon="5.21208">
        <ele>746</ele>
        <time>2019-09-01T09:33:29Z</time>
      </trkpt>
      <trkpt lat="44.71131" lon="5.21202">
        <ele>745</ele>
        <time>2019-09-01T09:33:30Z</time>
      </trkpt>
      <trkpt lat="44.71128" lon="5.21196">
        <ele>745</ele>
        <time>2019-09-01T09:33:31Z</time>
      </trkpt>
      <trkpt lat="44.71126" lon="5.21192">
        <ele>745</ele>
        <time>2019-09-01T09:33:32Z</time>
      </trkpt>
      <trkpt lat="44.71124" lon="5.21188">
        <ele>744</ele>
        <time>2019-09-01T09:33:33Z</time>
      </trkpt>
      <trkpt lat="44.71121" lon="5.21184">
        <ele>744</ele>
        <time>2019-09-01T09:33:34Z</time>
      </trkpt>
      <trkpt lat="44.7112" lon="5.21177">
        <ele>744</ele>
        <time>2019-09-01T09:33:36Z</time>
      </trkpt>
      <trkpt lat="44.71121" lon="5.21173">
        <ele>744</ele>
        <time>2019-09-01T09:33:37Z</time>
      </trkpt>
      <trkpt lat="44.7112" lon="5.21169">
        <ele>743</ele>
        <time>2019-09-01T09:33:38Z</time>
      </trkpt>
      <trkpt lat="44.71119" lon="5.21164">
        <ele>730</ele>
        <time>2019-09-01T09:33:39Z</time>
      </trkpt>
      <trkpt lat="44.71119" lon="5.21158">
        <ele>730</ele>
        <time>2019-09-01T09:33:40Z</time>
      </trkpt>
      <trkpt lat="44.71119" lon="5.21152">
        <ele>729</ele>
        <time>2019-09-01T09:33:41Z</time>
      </trkpt>
      <trkpt lat="44.71118" lon="5.21146">
        <ele>729</ele>
        <time>2019-09-01T09:33:42Z</time>
      </trkpt>
      <trkpt lat="44.71117" lon="5.21139">
        <ele>728</ele>
        <time>2019-09-01T09:33:43Z</time>
      </trkpt>
      <trkpt lat="44.71116" lon="5.21132">
        <ele>727</ele>
        <time>2019-09-01T09:33:44Z</time>
      </trkpt>
      <trkpt lat="44.71116" lon="5.21125">
        <ele>726</ele>
        <time>2019-09-01T09:33:45Z</time>
      </trkpt>
      <trkpt lat="44.71116" lon="5.2112">
        <ele>725</ele>
        <time>2019-09-01T09:33:46Z</time>
      </trkpt>
      <trkpt lat="44.71116" lon="5.21115">
        <ele>724</ele>
        <time>2019-09-01T09:33:47Z</time>
      </trkpt>
      <trkpt lat="44.71114" lon="5.2111">
        <ele>723</ele>
        <time>2019-09-01T09:33:48Z</time>
      </trkpt>
      <trkpt lat="44.71112" lon="5.21103">
        <ele>723</ele>
        <time>2019-09-01T09:33:49Z</time>
      </trkpt>
      <trkpt lat="44.71111" lon="5.21095">
        <ele>722</ele>
        <time>2019-09-01T09:33:50Z</time>
      </trkpt>
      <trkpt lat="44.71109" lon="5.21087">
        <ele>721</ele>
        <time>2019-09-01T09:33:51Z</time>
      </trkpt>
      <trkpt lat="44.71108" lon="5.21081">
        <ele>707</ele>
        <time>2019-09-01T09:33:52Z</time>
      </trkpt>
      <trkpt lat="44.71106" lon="5.21077">
        <ele>707</ele>
        <time>2019-09-01T09:33:53Z</time>
      </trkpt>
      <trkpt lat="44.71105" lon="5.21074">
        <ele>706</ele>
        <time>2019-09-01T09:33:54Z</time>
      </trkpt>
      <trkpt lat="44.71103" lon="5.2107">
        <ele>706</ele>
        <time>2019-09-01T09:33:55Z</time>
      </trkpt>
      <trkpt lat="44.71103" lon="5.21066">
        <ele>705</ele>
        <time>2019-09-01T09:33:56Z</time>
      </trkpt>
      <trkpt lat="44.71103" lon="5.21062">
        <ele>705</ele>
        <time>2019-09-01T09:33:57Z</time>
      </trkpt>
      <trkpt lat="44.71103" lon="5.21057">
        <ele>704</ele>
        <time>2019-09-01T09:33:58Z</time>
      </trkpt>
      <trkpt lat="44.71103" lon="5.21053">
        <ele>703</ele>
        <time>2019-09-01T09:33:59Z</time>
      </trkpt>
      <trkpt lat="44.71103" lon="5.21049">
        <ele>702</ele>
        <time>2019-09-01T09:34:00Z</time>
      </trkpt>
      <trkpt lat="44.71102" lon="5.21045">
        <ele>701</ele>
        <time>2019-09-01T09:34:01Z</time>
      </trkpt>
      <trkpt lat="44.71102" lon="5.2104">
        <ele>700</ele>
        <time>2019-09-01T09:34:02Z</time>
      </trkpt>
      <trkpt lat="44.71102" lon="5.21036">
        <ele>699</ele>
        <time>2019-09-01T09:34:03Z</time>
      </trkpt>
      <trkpt lat="44.711" lon="5.21029">
        <ele>698</ele>
        <time>2019-09-01T09:34:05Z</time>
      </trkpt>
      <trkpt lat="44.71101" lon="5.21024">
        <ele>696</ele>
        <time>2019-09-01T09:34:06Z</time>
      </trkpt>
      <trkpt lat="44.71102" lon="5.21019">
        <ele>696</ele>
        <time>2019-09-01T09:34:07Z</time>
      </trkpt>
      <trkpt lat="44.71102" lon="5.21013">
        <ele>695</ele>
        <time>2019-09-01T09:34:08Z</time>
      </trkpt>
      <trkpt lat="44.71103" lon="5.21007">
        <ele>694</ele>
        <time>2019-09-01T09:34:09Z</time>
      </trkpt>
      <trkpt lat="44.71105" lon="5.21002">
        <ele>694</ele>
        <time>2019-09-01T09:34:10Z</time>
      </trkpt>
      <trkpt lat="44.71106" lon="5.20996">
        <ele>680</ele>
        <time>2019-09-01T09:34:11Z</time>
      </trkpt>
      <trkpt lat="44.71107" lon="5.20988">
        <ele>679</ele>
        <time>2019-09-01T09:34:12Z</time>
      </trkpt>
      <trkpt lat="44.71108" lon="5.2098">
        <ele>678</ele>
        <time>2019-09-01T09:34:13Z</time>
      </trkpt>
      <trkpt lat="44.71109" lon="5.20975">
        <ele>677</ele>
        <time>2019-09-01T09:34:14Z</time>
      </trkpt>
      <trkpt lat="44.7111" lon="5.20969">
        <ele>676</ele>
        <time>2019-09-01T09:34:15Z</time>
      </trkpt>
      <trkpt lat="44.71113" lon="5.20964">
        <ele>676</ele>
        <time>2019-09-01T09:34:16Z</time>
      </trkpt>
      <trkpt lat="44.71114" lon="5.20959">
        <ele>675</ele>
        <time>2019-09-01T09:34:17Z</time>
      </trkpt>
      <trkpt lat="44.71116" lon="5.20954">
        <ele>674</ele>
        <time>2019-09-01T09:34:18Z</time>
      </trkpt>
      <trkpt lat="44.71117" lon="5.20949">
        <ele>673</ele>
        <time>2019-09-01T09:34:19Z</time>
      </trkpt>
      <trkpt lat="44.71118" lon="5.20944">
        <ele>673</ele>
        <time>2019-09-01T09:34:20Z</time>
      </trkpt>
      <trkpt lat="44.71119" lon="5.2094">
        <ele>672</ele>
        <time>2019-09-01T09:34:21Z</time>
      </trkpt>
      <trkpt lat="44.7112" lon="5.20935">
        <ele>672</ele>
        <time>2019-09-01T09:34:22Z</time>
      </trkpt>
      <trkpt lat="44.71121" lon="5.2093">
        <ele>671</ele>
        <time>2019-09-01T09:34:23Z</time>
      </trkpt>
      <trkpt lat="44.71122" lon="5.20925">
        <ele>671</ele>
        <time>2019-09-01T09:34:24Z</time>
      </trkpt>
      <trkpt lat="44.71123" lon="5.2092">
        <ele>671</ele>
        <time>2019-09-01T09:34:25Z</time>
      </trkpt>
      <trkpt lat="44.71124" lon="5.20915">
        <ele>657</ele>
        <time>2019-09-01T09:34:26Z</time>
      </trkpt>
      <trkpt lat="44.71125" lon="5.20907">
        <ele>656</ele>
        <time>2019-09-01T09:34:27Z</time>
      </trkpt>
      <trkpt lat="44.71127" lon="5.209">
        <ele>656</ele>
        <time>2019-09-01T09:34:28Z</time>
      </trkpt>
      <trkpt lat="44.71129" lon="5.20894">
        <ele>655</ele>
        <time>2019-09-01T09:34:29Z</time>
      </trkpt>
      <trkpt lat="44.7113" lon="5.20889">
        <ele>655</ele>
        <time>2019-09-01T09:34:30Z</time>
      </trkpt>
      <trkpt lat="44.71133" lon="5.20884">
        <ele>654</ele>
        <time>2019-09-01T09:34:31Z</time>
      </trkpt>
      <trkpt lat="44.71134" lon="5.20879">
        <ele>654</ele>
        <time>2019-09-01T09:34:32Z</time>
      </trkpt>
      <trkpt lat="44.71135" lon="5.20875">
        <ele>653</ele>
        <time>2019-09-01T09:34:33Z</time>
      </trkpt>
      <trkpt lat="44.71137" lon="5.20868">
        <ele>653</ele>
        <time>2019-09-01T09:34:35Z</time>
      </trkpt>
      <trkpt lat="44.71138" lon="5.20863">
        <ele>652</ele>
        <time>2019-09-01T09:34:36Z</time>
      </trkpt>
      <trkpt lat="44.71139" lon="5.20858">
        <ele>652</ele>
        <time>2019-09-01T09:34:37Z</time>
      </trkpt>
      <trkpt lat="44.71139" lon="5.20853">
        <ele>651</ele>
        <time>2019-09-01T09:34:38Z</time>
      </trkpt>
      <trkpt lat="44.7114" lon="5.20847">
        <ele>651</ele>
        <time>2019-09-01T09:34:39Z</time>
      </trkpt>
      <trkpt lat="44.7114" lon="5.20841">
        <ele>650</ele>
        <time>2019-09-01T09:34:40Z</time>
      </trkpt>
      <trkpt lat="44.71141" lon="5.20835">
        <ele>650</ele>
        <time>2019-09-01T09:34:42Z</time>
      </trkpt>
      <trkpt lat="44.71142" lon="5.20831">
        <ele>639</ele>
        <time>2019-09-01T09:34:43Z</time>
      </trkpt>
      <trkpt lat="44.71144" lon="5.20827">
        <ele>639</ele>
        <time>2019-09-01T09:34:44Z</time>
      </trkpt>
      <trkpt lat="44.71145" lon="5.20823">
        <ele>639</ele>
        <time>2019-09-01T09:34:45Z</time>
      </trkpt>
      <trkpt lat="44.71145" lon="5.20818">
        <ele>638</ele>
        <time>2019-09-01T09:34:46Z</time>
      </trkpt>
      <trkpt lat="44.71148" lon="5.20811">
        <ele>638</ele>
        <time>2019-09-01T09:34:48Z</time>
      </trkpt>
      <trkpt lat="44.7115" lon="5.20807">
        <ele>637</ele>
        <time>2019-09-01T09:34:49Z</time>
      </trkpt>
      <trkpt lat="44.71153" lon="5.20803">
        <ele>637</ele>
        <time>2019-09-01T09:34:50Z</time>
      </trkpt>
      <trkpt lat="44.71155" lon="5.208">
        <ele>636</ele>
        <time>2019-09-01T09:34:51Z</time>
      </trkpt>
      <trkpt lat="44.71157" lon="5.20796">
        <ele>636</ele>
        <time>2019-09-01T09:34:52Z</time>
      </trkpt>
      <trkpt lat="44.71157" lon="5.20792">
        <ele>635</ele>
        <time>2019-09-01T09:34:53Z</time>
      </trkpt>
      <trkpt lat="44.71156" lon="5.20788">
        <ele>635</ele>
        <time>2019-09-01T09:34:54Z</time>
      </trkpt>
      <trkpt lat="44.71155" lon="5.20782">
        <ele>634</ele>
        <time>2019-09-01T09:34:56Z</time>
      </trkpt>
      <trkpt lat="44.71156" lon="5.20778">
        <ele>633</ele>
        <time>2019-09-01T09:34:57Z</time>
      </trkpt>
      <trkpt lat="44.71158" lon="5.20773">
        <ele>633</ele>
        <time>2019-09-01T09:34:58Z</time>
      </trkpt>
      <trkpt lat="44.71158" lon="5.20768">
        <ele>633</ele>
        <time>2019-09-01T09:34:59Z</time>
      </trkpt>
      <trkpt lat="44.71158" lon="5.20764">
        <ele>633</ele>
        <time>2019-09-01T09:35:00Z</time>
      </trkpt>
      <trkpt lat="44.71159" lon="5.20758">
        <ele>633</ele>
        <time>2019-09-01T09:35:01Z</time>
      </trkpt>
      <trkpt lat="44.71161" lon="5.20752">
        <ele>633</ele>
        <time>2019-09-01T09:35:02Z</time>
      </trkpt>
      <trkpt lat="44.71163" lon="5.20746">
        <ele>629</ele>
        <time>2019-09-01T09:35:03Z</time>
      </trkpt>
      <trkpt lat="44.71166" lon="5.20741">
        <ele>627</ele>
        <time>2019-09-01T09:35:04Z</time>
      </trkpt>
      <trkpt lat="44.71169" lon="5.20736">
        <ele>629</ele>
        <time>2019-09-01T09:35:05Z</time>
      </trkpt>
      <trkpt lat="44.71173" lon="5.2073">
        <ele>627</ele>
        <time>2019-09-01T09:35:06Z</time>
      </trkpt>
      <trkpt lat="44.71175" lon="5.20726">
        <ele>627</ele>
        <time>2019-09-01T09:35:07Z</time>
      </trkpt>
      <trkpt lat="44.71176" lon="5.20723">
        <ele>626</ele>
        <time>2019-09-01T09:35:08Z</time>
      </trkpt>
      <trkpt lat="44.71178" lon="5.20718">
        <ele>625</ele>
        <time>2019-09-01T09:35:09Z</time>
      </trkpt>
      <trkpt lat="44.71179" lon="5.20714">
        <ele>625</ele>
        <time>2019-09-01T09:35:10Z</time>
      </trkpt>
      <trkpt lat="44.71179" lon="5.20709">
        <ele>624</ele>
        <time>2019-09-01T09:35:11Z</time>
      </trkpt>
      <trkpt lat="44.7118" lon="5.20704">
        <ele>624</ele>
        <time>2019-09-01T09:35:12Z</time>
      </trkpt>
      <trkpt lat="44.71178" lon="5.20699">
        <ele>623</ele>
        <time>2019-09-01T09:35:13Z</time>
      </trkpt>
      <trkpt lat="44.71176" lon="5.20695">
        <ele>623</ele>
        <time>2019-09-01T09:35:14Z</time>
      </trkpt>
      <trkpt lat="44.71174" lon="5.20692">
        <ele>622</ele>
        <time>2019-09-01T09:35:15Z</time>
      </trkpt>
      <trkpt lat="44.71173" lon="5.20683">
        <ele>621</ele>
        <time>2019-09-01T09:35:17Z</time>
      </trkpt>
      <trkpt lat="44.71174" lon="5.20675">
        <ele>620</ele>
        <time>2019-09-01T09:35:18Z</time>
      </trkpt>
      <trkpt lat="44.71174" lon="5.20667">
        <ele>619</ele>
        <time>2019-09-01T09:35:19Z</time>
      </trkpt>
      <trkpt lat="44.71175" lon="5.20662">
        <ele>615</ele>
        <time>2019-09-01T09:35:20Z</time>
      </trkpt>
      <trkpt lat="44.71176" lon="5.20657">
        <ele>615</ele>
        <time>2019-09-01T09:35:21Z</time>
      </trkpt>
      <trkpt lat="44.71174" lon="5.2065">
        <ele>614</ele>
        <time>2019-09-01T09:35:23Z</time>
      </trkpt>
      <trkpt lat="44.71173" lon="5.20646">
        <ele>613</ele>
        <time>2019-09-01T09:35:24Z</time>
      </trkpt>
      <trkpt lat="44.71174" lon="5.20641">
        <ele>612</ele>
        <time>2019-09-01T09:35:25Z</time>
      </trkpt>
      <trkpt lat="44.71175" lon="5.20636">
        <ele>611</ele>
        <time>2019-09-01T09:35:26Z</time>
      </trkpt>
      <trkpt lat="44.71175" lon="5.20631">
        <ele>611</ele>
        <time>2019-09-01T09:35:27Z</time>
      </trkpt>
      <trkpt lat="44.71176" lon="5.20624">
        <ele>610</ele>
        <time>2019-09-01T09:35:28Z</time>
      </trkpt>
      <trkpt lat="44.71176" lon="5.20618">
        <ele>609</ele>
        <time>2019-09-01T09:35:29Z</time>
      </trkpt>
      <trkpt lat="44.71177" lon="5.20611">
        <ele>608</ele>
        <time>2019-09-01T09:35:30Z</time>
      </trkpt>
      <trkpt lat="44.71178" lon="5.20604">
        <ele>607</ele>
        <time>2019-09-01T09:35:31Z</time>
      </trkpt>
      <trkpt lat="44.71178" lon="5.20597">
        <ele>606</ele>
        <time>2019-09-01T09:35:32Z</time>
      </trkpt>
      <trkpt lat="44.71178" lon="5.20591">
        <ele>605</ele>
        <time>2019-09-01T09:35:33Z</time>
      </trkpt>
      <trkpt lat="44.71177" lon="5.20586">
        <ele>604</ele>
        <time>2019-09-01T09:35:34Z</time>
      </trkpt>
      <trkpt lat="44.71176" lon="5.20582">
        <ele>599</ele>
        <time>2019-09-01T09:35:35Z</time>
      </trkpt>
      <trkpt lat="44.71176" lon="5.20576">
        <ele>599</ele>
        <time>2019-09-01T09:35:37Z</time>
      </trkpt>
      <trkpt lat="44.71175" lon="5.20571">
        <ele>598</ele>
        <time>2019-09-01T09:35:39Z</time>
      </trkpt>
      <trkpt lat="44.71172" lon="5.20568">
        <ele>598</ele>
        <time>2019-09-01T09:35:40Z</time>
      </trkpt>
      <trkpt lat="44.7117" lon="5.20563">
        <ele>597</ele>
        <time>2019-09-01T09:35:41Z</time>
      </trkpt>
      <trkpt lat="44.71168" lon="5.20559">
        <ele>596</ele>
        <time>2019-09-01T09:35:42Z</time>
      </trkpt>
      <trkpt lat="44.71167" lon="5.20555">
        <ele>589</ele>
        <time>2019-09-01T09:35:43Z</time>
      </trkpt>
      <trkpt lat="44.71165" lon="5.20551">
        <ele>588</ele>
        <time>2019-09-01T09:35:44Z</time>
      </trkpt>
      <trkpt lat="44.71163" lon="5.20546">
        <ele>587</ele>
        <time>2019-09-01T09:35:45Z</time>
      </trkpt>
      <trkpt lat="44.71161" lon="5.2054">
        <ele>586</ele>
        <time>2019-09-01T09:35:46Z</time>
      </trkpt>
      <trkpt lat="44.71159" lon="5.20533">
        <ele>585</ele>
        <time>2019-09-01T09:35:47Z</time>
      </trkpt>
      <trkpt lat="44.71157" lon="5.20529">
        <ele>585</ele>
        <time>2019-09-01T09:35:48Z</time>
      </trkpt>
      <trkpt lat="44.71156" lon="5.20525">
        <ele>584</ele>
        <time>2019-09-01T09:35:49Z</time>
      </trkpt>
      <trkpt lat="44.71154" lon="5.20519">
        <ele>584</ele>
        <time>2019-09-01T09:35:51Z</time>
      </trkpt>
      <trkpt lat="44.71151" lon="5.20516">
        <ele>584</ele>
        <time>2019-09-01T09:35:52Z</time>
      </trkpt>
      <trkpt lat="44.71149" lon="5.2051">
        <ele>584</ele>
        <time>2019-09-01T09:35:53Z</time>
      </trkpt>
      <trkpt lat="44.71147" lon="5.20507">
        <ele>583</ele>
        <time>2019-09-01T09:35:54Z</time>
      </trkpt>
      <trkpt lat="44.71144" lon="5.20505">
        <ele>583</ele>
        <time>2019-09-01T09:35:55Z</time>
      </trkpt>
      <trkpt lat="44.71143" lon="5.20497">
        <ele>575</ele>
        <time>2019-09-01T09:35:57Z</time>
      </trkpt>
      <trkpt lat="44.71143" lon="5.20492">
        <ele>575</ele>
        <time>2019-09-01T09:35:58Z</time>
      </trkpt>
      <trkpt lat="44.71143" lon="5.20488">
        <ele>574</ele>
        <time>2019-09-01T09:35:59Z</time>
      </trkpt>
      <trkpt lat="44.71141" lon="5.20483">
        <ele>573</ele>
        <time>2019-09-01T09:36:00Z</time>
      </trkpt>
      <trkpt lat="44.71139" lon="5.20476">
        <ele>571</ele>
        <time>2019-09-01T09:36:01Z</time>
      </trkpt>
      <trkpt lat="44.71137" lon="5.20469">
        <ele>570</ele>
        <time>2019-09-01T09:36:02Z</time>
      </trkpt>
      <trkpt lat="44.71134" lon="5.20464">
        <ele>569</ele>
        <time>2019-09-01T09:36:03Z</time>
      </trkpt>
      <trkpt lat="44.71131" lon="5.2046">
        <ele>569</ele>
        <time>2019-09-01T09:36:04Z</time>
      </trkpt>
      <trkpt lat="44.71129" lon="5.20455">
        <ele>568</ele>
        <time>2019-09-01T09:36:06Z</time>
      </trkpt>
      <trkpt lat="44.7113" lon="5.20447">
        <ele>568</ele>
        <time>2019-09-01T09:36:08Z</time>
      </trkpt>
      <trkpt lat="44.71132" lon="5.20443">
        <ele>568</ele>
        <time>2019-09-01T09:36:09Z</time>
      </trkpt>
      <trkpt lat="44.71134" lon="5.20439">
        <ele>568</ele>
        <time>2019-09-01T09:36:10Z</time>
      </trkpt>
      <trkpt lat="44.71136" lon="5.20435">
        <ele>568</ele>
        <time>2019-09-01T09:36:11Z</time>
      </trkpt>
      <trkpt lat="44.71139" lon="5.20431">
        <ele>568</ele>
        <time>2019-09-01T09:36:12Z</time>
      </trkpt>
      <trkpt lat="44.71142" lon="5.20426">
        <ele>568</ele>
        <time>2019-09-01T09:36:13Z</time>
      </trkpt>
      <trkpt lat="44.71145" lon="5.20421">
        <ele>568</ele>
        <time>2019-09-01T09:36:14Z</time>
      </trkpt>
      <trkpt lat="44.71149" lon="5.20414">
        <ele>563</ele>
        <time>2019-09-01T09:36:15Z</time>
      </trkpt>
      <trkpt lat="44.71153" lon="5.20409">
        <ele>563</ele>
        <time>2019-09-01T09:36:16Z</time>
      </trkpt>
      <trkpt lat="44.71158" lon="5.20404">
        <ele>564</ele>
        <time>2019-09-01T09:36:17Z</time>
      </trkpt>
      <trkpt lat="44.71162" lon="5.20401">
        <ele>563</ele>
        <time>2019-09-01T09:36:18Z</time>
      </trkpt>
      <trkpt lat="44.71165" lon="5.20398">
        <ele>563</ele>
        <time>2019-09-01T09:36:19Z</time>
      </trkpt>
      <trkpt lat="44.71167" lon="5.20395">
        <ele>563</ele>
        <time>2019-09-01T09:36:20Z</time>
      </trkpt>
      <trkpt lat="44.7117" lon="5.20392">
        <ele>562</ele>
        <time>2019-09-01T09:36:21Z</time>
      </trkpt>
      <trkpt lat="44.71174" lon="5.2039">
        <ele>562</ele>
        <time>2019-09-01T09:36:22Z</time>
      </trkpt>
      <trkpt lat="44.71177" lon="5.20387">
        <ele>561</ele>
        <time>2019-09-01T09:36:23Z</time>
      </trkpt>
      <trkpt lat="44.71182" lon="5.20382">
        <ele>560</ele>
        <time>2019-09-01T09:36:24Z</time>
      </trkpt>
      <trkpt lat="44.71186" lon="5.20378">
        <ele>559</ele>
        <time>2019-09-01T09:36:25Z</time>
      </trkpt>
      <trkpt lat="44.71191" lon="5.20375">
        <ele>559</ele>
        <time>2019-09-01T09:36:26Z</time>
      </trkpt>
      <trkpt lat="44.71197" lon="5.20371">
        <ele>558</ele>
        <time>2019-09-01T09:36:27Z</time>
      </trkpt>
      <trkpt lat="44.71202" lon="5.20369">
        <ele>557</ele>
        <time>2019-09-01T09:36:28Z</time>
      </trkpt>
      <trkpt lat="44.71206" lon="5.20366">
        <ele>557</ele>
        <time>2019-09-01T09:36:29Z</time>
      </trkpt>
      <trkpt lat="44.71209" lon="5.20365">
        <ele>557</ele>
        <time>2019-09-01T09:36:30Z</time>
      </trkpt>
      <trkpt lat="44.71211" lon="5.20364">
        <ele>556</ele>
        <time>2019-09-01T09:36:32Z</time>
      </trkpt>
      <trkpt lat="44.71207" lon="5.20364">
        <ele>557</ele>
        <time>2019-09-01T09:36:36Z</time>
      </trkpt>
      <trkpt lat="44.71204" lon="5.20364">
        <ele>557</ele>
        <time>2019-09-01T09:36:42Z</time>
      </trkpt>
      <trkpt lat="44.71202" lon="5.20363">
        <ele>557</ele>
        <time>2019-09-01T09:37:41Z</time>
      </trkpt>
      <trkpt lat="44.71199" lon="5.20362">
        <ele>557</ele>
        <time>2019-09-01T09:37:43Z</time>
      </trkpt>
      <trkpt lat="44.71195" lon="5.2036">
        <ele>557</ele>
        <time>2019-09-01T09:37:45Z</time>
      </trkpt>
      <trkpt lat="44.7119" lon="5.20359">
        <ele>557</ele>
        <time>2019-09-01T09:37:47Z</time>
      </trkpt>
      <trkpt lat="44.71187" lon="5.20358">
        <ele>557</ele>
        <time>2019-09-01T09:37:48Z</time>
      </trkpt>
      <trkpt lat="44.71181" lon="5.20358">
        <ele>557</ele>
        <time>2019-09-01T09:37:50Z</time>
      </trkpt>
      <trkpt lat="44.71178" lon="5.20356">
        <ele>557</ele>
        <time>2019-09-01T09:37:51Z</time>
      </trkpt>
      <trkpt lat="44.71175" lon="5.20355">
        <ele>556</ele>
        <time>2019-09-01T09:37:52Z</time>
      </trkpt>
      <trkpt lat="44.71172" lon="5.20355">
        <ele>556</ele>
        <time>2019-09-01T09:37:53Z</time>
      </trkpt>
      <trkpt lat="44.71169" lon="5.20355">
        <ele>556</ele>
        <time>2019-09-01T09:37:54Z</time>
      </trkpt>
      <trkpt lat="44.71166" lon="5.20354">
        <ele>555</ele>
        <time>2019-09-01T09:37:55Z</time>
      </trkpt>
      <trkpt lat="44.71163" lon="5.20354">
        <ele>555</ele>
        <time>2019-09-01T09:37:56Z</time>
      </trkpt>
      <trkpt lat="44.71159" lon="5.20353">
        <ele>555</ele>
        <time>2019-09-01T09:37:57Z</time>
      </trkpt>
      <trkpt lat="44.71154" lon="5.20351">
        <ele>555</ele>
        <time>2019-09-01T09:37:58Z</time>
      </trkpt>
      <trkpt lat="44.7115" lon="5.2035">
        <ele>555</ele>
        <time>2019-09-01T09:37:59Z</time>
      </trkpt>
      <trkpt lat="44.71145" lon="5.20349">
        <ele>554</ele>
        <time>2019-09-01T09:38:00Z</time>
      </trkpt>
      <trkpt lat="44.71139" lon="5.20344">
        <ele>554</ele>
        <time>2019-09-01T09:38:01Z</time>
      </trkpt>
      <trkpt lat="44.71132" lon="5.20339">
        <ele>554</ele>
        <time>2019-09-01T09:38:02Z</time>
      </trkpt>
      <trkpt lat="44.71125" lon="5.20335">
        <ele>553</ele>
        <time>2019-09-01T09:38:03Z</time>
      </trkpt>
      <trkpt lat="44.71119" lon="5.20332">
        <ele>542</ele>
        <time>2019-09-01T09:38:04Z</time>
      </trkpt>
      <trkpt lat="44.71115" lon="5.2033">
        <ele>542</ele>
        <time>2019-09-01T09:38:05Z</time>
      </trkpt>
      <trkpt lat="44.71109" lon="5.20328">
        <ele>541</ele>
        <time>2019-09-01T09:38:06Z</time>
      </trkpt>
      <trkpt lat="44.71103" lon="5.20322">
        <ele>541</ele>
        <time>2019-09-01T09:38:07Z</time>
      </trkpt>
      <trkpt lat="44.711" lon="5.20319">
        <ele>541</ele>
        <time>2019-09-01T09:38:08Z</time>
      </trkpt>
      <trkpt lat="44.71096" lon="5.20317">
        <ele>541</ele>
        <time>2019-09-01T09:38:09Z</time>
      </trkpt>
      <trkpt lat="44.71092" lon="5.20317">
        <ele>541</ele>
        <time>2019-09-01T09:38:10Z</time>
      </trkpt>
      <trkpt lat="44.71089" lon="5.20316">
        <ele>541</ele>
        <time>2019-09-01T09:38:11Z</time>
      </trkpt>
      <trkpt lat="44.71085" lon="5.20316">
        <ele>541</ele>
        <time>2019-09-01T09:38:12Z</time>
      </trkpt>
      <trkpt lat="44.71081" lon="5.20316">
        <ele>535</ele>
        <time>2019-09-01T09:38:13Z</time>
      </trkpt>
      <trkpt lat="44.71077" lon="5.20314">
        <ele>534</ele>
        <time>2019-09-01T09:38:14Z</time>
      </trkpt>
      <trkpt lat="44.71073" lon="5.20312">
        <ele>533</ele>
        <time>2019-09-01T09:38:15Z</time>
      </trkpt>
      <trkpt lat="44.71068" lon="5.20309">
        <ele>531</ele>
        <time>2019-09-01T09:38:16Z</time>
      </trkpt>
      <trkpt lat="44.71064" lon="5.20306">
        <ele>530</ele>
        <time>2019-09-01T09:38:17Z</time>
      </trkpt>
      <trkpt lat="44.71059" lon="5.20304">
        <ele>529</ele>
        <time>2019-09-01T09:38:18Z</time>
      </trkpt>
      <trkpt lat="44.71052" lon="5.20299">
        <ele>528</ele>
        <time>2019-09-01T09:38:19Z</time>
      </trkpt>
      <trkpt lat="44.71047" lon="5.20295">
        <ele>527</ele>
        <time>2019-09-01T09:38:20Z</time>
      </trkpt>
      <trkpt lat="44.71043" lon="5.20292">
        <ele>526</ele>
        <time>2019-09-01T09:38:21Z</time>
      </trkpt>
      <trkpt lat="44.71038" lon="5.20293">
        <ele>525</ele>
        <time>2019-09-01T09:38:23Z</time>
      </trkpt>
      <trkpt lat="44.71036" lon="5.20296">
        <ele>525</ele>
        <time>2019-09-01T09:38:24Z</time>
      </trkpt>
      <trkpt lat="44.71033" lon="5.20299">
        <ele>525</ele>
        <time>2019-09-01T09:38:25Z</time>
      </trkpt>
      <trkpt lat="44.71032" lon="5.20303">
        <ele>525</ele>
        <time>2019-09-01T09:38:26Z</time>
      </trkpt>
      <trkpt lat="44.71029" lon="5.20308">
        <ele>525</ele>
        <time>2019-09-01T09:38:28Z</time>
      </trkpt>
      <trkpt lat="44.71026" lon="5.20313">
        <ele>525</ele>
        <time>2019-09-01T09:38:30Z</time>
      </trkpt>
      <trkpt lat="44.71024" lon="5.20319">
        <ele>524</ele>
        <time>2019-09-01T09:38:32Z</time>
      </trkpt>
      <trkpt lat="44.71022" lon="5.20324">
        <ele>524</ele>
        <time>2019-09-01T09:38:33Z</time>
      </trkpt>
      <trkpt lat="44.71021" lon="5.20327">
        <ele>523</ele>
        <time>2019-09-01T09:38:34Z</time>
      </trkpt>
      <trkpt lat="44.71019" lon="5.20332">
        <ele>523</ele>
        <time>2019-09-01T09:38:35Z</time>
      </trkpt>
      <trkpt lat="44.71017" lon="5.20337">
        <ele>527</ele>
        <time>2019-09-01T09:38:36Z</time>
      </trkpt>
      <trkpt lat="44.71016" lon="5.20342">
        <ele>527</ele>
        <time>2019-09-01T09:38:37Z</time>
      </trkpt>
      <trkpt lat="44.71013" lon="5.20348">
        <ele>527</ele>
        <time>2019-09-01T09:38:39Z</time>
      </trkpt>
      <trkpt lat="44.71012" lon="5.20352">
        <ele>528</ele>
        <time>2019-09-01T09:38:40Z</time>
      </trkpt>
      <trkpt lat="44.71011" lon="5.20355">
        <ele>528</ele>
        <time>2019-09-01T09:38:41Z</time>
      </trkpt>
      <trkpt lat="44.71007" lon="5.2036">
        <ele>528</ele>
        <time>2019-09-01T09:38:43Z</time>
      </trkpt>
      <trkpt lat="44.71005" lon="5.20362">
        <ele>529</ele>
        <time>2019-09-01T09:38:44Z</time>
      </trkpt>
      <trkpt lat="44.71002" lon="5.20365">
        <ele>529</ele>
        <time>2019-09-01T09:38:58Z</time>
      </trkpt>
      <trkpt lat="44.70999" lon="5.20366">
        <ele>520</ele>
        <time>2019-09-01T09:39:02Z</time>
      </trkpt>
      <trkpt lat="44.70997" lon="5.20369">
        <ele>521</ele>
        <time>2019-09-01T09:39:05Z</time>
      </trkpt>
      <trkpt lat="44.70996" lon="5.20374">
        <ele>521</ele>
        <time>2019-09-01T09:39:13Z</time>
      </trkpt>
      <trkpt lat="44.70995" lon="5.20378">
        <ele>521</ele>
        <time>2019-09-01T09:39:15Z</time>
      </trkpt>
      <trkpt lat="44.70995" lon="5.20384">
        <ele>522</ele>
        <time>2019-09-01T09:39:17Z</time>
      </trkpt>
      <trkpt lat="44.70994" lon="5.20388">
        <ele>522</ele>
        <time>2019-09-01T09:39:19Z</time>
      </trkpt>
      <trkpt lat="44.70993" lon="5.20392">
        <ele>522</ele>
        <time>2019-09-01T09:39:21Z</time>
      </trkpt>
      <trkpt lat="44.7099" lon="5.20393">
        <ele>522</ele>
        <time>2019-09-01T09:39:22Z</time>
      </trkpt>
      <trkpt lat="44.70987" lon="5.20395">
        <ele>522</ele>
        <time>2019-09-01T09:39:23Z</time>
      </trkpt>
      <trkpt lat="44.70983" lon="5.20394">
        <ele>522</ele>
        <time>2019-09-01T09:39:24Z</time>
      </trkpt>
      <trkpt lat="44.7098" lon="5.20393">
        <ele>522</ele>
        <time>2019-09-01T09:39:25Z</time>
      </trkpt>
      <trkpt lat="44.70977" lon="5.20392">
        <ele>522</ele>
        <time>2019-09-01T09:39:26Z</time>
      </trkpt>
      <trkpt lat="44.70974" lon="5.20388">
        <ele>522</ele>
        <time>2019-09-01T09:39:27Z</time>
      </trkpt>
      <trkpt lat="44.70972" lon="5.20384">
        <ele>521</ele>
        <time>2019-09-01T09:39:28Z</time>
      </trkpt>
      <trkpt lat="44.7097" lon="5.20381">
        <ele>521</ele>
        <time>2019-09-01T09:39:29Z</time>
      </trkpt>
      <trkpt lat="44.70966" lon="5.2038">
        <ele>521</ele>
        <time>2019-09-01T09:39:34Z</time>
      </trkpt>
      <trkpt lat="44.70961" lon="5.20375">
        <ele>521</ele>
        <time>2019-09-01T09:39:36Z</time>
      </trkpt>
      <trkpt lat="44.70958" lon="5.20372">
        <ele>521</ele>
        <time>2019-09-01T09:39:37Z</time>
      </trkpt>
      <trkpt lat="44.70955" lon="5.20369">
        <ele>521</ele>
        <time>2019-09-01T09:39:38Z</time>
      </trkpt>
      <trkpt lat="44.70952" lon="5.20365">
        <ele>520</ele>
        <time>2019-09-01T09:39:39Z</time>
      </trkpt>
      <trkpt lat="44.7095" lon="5.20361">
        <ele>520</ele>
        <time>2019-09-01T09:39:40Z</time>
      </trkpt>
      <trkpt lat="44.70947" lon="5.20357">
        <ele>520</ele>
        <time>2019-09-01T09:39:41Z</time>
      </trkpt>
      <trkpt lat="44.70945" lon="5.20353">
        <ele>520</ele>
        <time>2019-09-01T09:39:42Z</time>
      </trkpt>
      <trkpt lat="44.70942" lon="5.20349">
        <ele>519</ele>
        <time>2019-09-01T09:39:43Z</time>
      </trkpt>
      <trkpt lat="44.70939" lon="5.20346">
        <ele>519</ele>
        <time>2019-09-01T09:39:44Z</time>
      </trkpt>
      <trkpt lat="44.70936" lon="5.20342">
        <ele>519</ele>
        <time>2019-09-01T09:39:45Z</time>
      </trkpt>
      <trkpt lat="44.70932" lon="5.20337">
        <ele>518</ele>
        <time>2019-09-01T09:39:46Z</time>
      </trkpt>
      <trkpt lat="44.7093" lon="5.20331">
        <ele>514</ele>
        <time>2019-09-01T09:39:47Z</time>
      </trkpt>
      <trkpt lat="44.70927" lon="5.20324">
        <ele>513</ele>
        <time>2019-09-01T09:39:48Z</time>
      </trkpt>
      <trkpt lat="44.70923" lon="5.20318">
        <ele>513</ele>
        <time>2019-09-01T09:39:49Z</time>
      </trkpt>
      <trkpt lat="44.7092" lon="5.20313">
        <ele>512</ele>
        <time>2019-09-01T09:39:50Z</time>
      </trkpt>
      <trkpt lat="44.70917" lon="5.20308">
        <ele>514</ele>
        <time>2019-09-01T09:39:51Z</time>
      </trkpt>
      <trkpt lat="44.70913" lon="5.20302">
        <ele>513</ele>
        <time>2019-09-01T09:39:52Z</time>
      </trkpt>
      <trkpt lat="44.7091" lon="5.20297">
        <ele>513</ele>
        <time>2019-09-01T09:39:53Z</time>
      </trkpt>
      <trkpt lat="44.70906" lon="5.20292">
        <ele>512</ele>
        <time>2019-09-01T09:39:54Z</time>
      </trkpt>
      <trkpt lat="44.70902" lon="5.20286">
        <ele>511</ele>
        <time>2019-09-01T09:39:55Z</time>
      </trkpt>
      <trkpt lat="44.70898" lon="5.20279">
        <ele>510</ele>
        <time>2019-09-01T09:39:56Z</time>
      </trkpt>
      <trkpt lat="44.70894" lon="5.20273">
        <ele>510</ele>
        <time>2019-09-01T09:39:57Z</time>
      </trkpt>
      <trkpt lat="44.7089" lon="5.20266">
        <ele>509</ele>
        <time>2019-09-01T09:39:58Z</time>
      </trkpt>
      <trkpt lat="44.70886" lon="5.2026">
        <ele>510</ele>
        <time>2019-09-01T09:39:59Z</time>
      </trkpt>
      <trkpt lat="44.70883" lon="5.20254">
        <ele>510</ele>
        <time>2019-09-01T09:40:00Z</time>
      </trkpt>
      <trkpt lat="44.7088" lon="5.20248">
        <ele>496</ele>
        <time>2019-09-01T09:40:01Z</time>
      </trkpt>
      <trkpt lat="44.70877" lon="5.20241">
        <ele>496</ele>
        <time>2019-09-01T09:40:02Z</time>
      </trkpt>
      <trkpt lat="44.70874" lon="5.20234">
        <ele>496</ele>
        <time>2019-09-01T09:40:03Z</time>
      </trkpt>
      <trkpt lat="44.70872" lon="5.20226">
        <ele>495</ele>
        <time>2019-09-01T09:40:04Z</time>
      </trkpt>
      <trkpt lat="44.7087" lon="5.20218">
        <ele>494</ele>
        <time>2019-09-01T09:40:05Z</time>
      </trkpt>
      <trkpt lat="44.70869" lon="5.20211">
        <ele>493</ele>
        <time>2019-09-01T09:40:06Z</time>
      </trkpt>
      <trkpt lat="44.70867" lon="5.20203">
        <ele>492</ele>
        <time>2019-09-01T09:40:07Z</time>
      </trkpt>
      <trkpt lat="44.70866" lon="5.20196">
        <ele>491</ele>
        <time>2019-09-01T09:40:08Z</time>
      </trkpt>
      <trkpt lat="44.70866" lon="5.20188">
        <ele>490</ele>
        <time>2019-09-01T09:40:09Z</time>
      </trkpt>
      <trkpt lat="44.70865" lon="5.20182">
        <ele>490</ele>
        <time>2019-09-01T09:40:10Z</time>
      </trkpt>
      <trkpt lat="44.70863" lon="5.20174">
        <ele>489</ele>
        <time>2019-09-01T09:40:11Z</time>
      </trkpt>
      <trkpt lat="44.70862" lon="5.20168">
        <ele>489</ele>
        <time>2019-09-01T09:40:12Z</time>
      </trkpt>
      <trkpt lat="44.70859" lon="5.20161">
        <ele>473</ele>
        <time>2019-09-01T09:40:14Z</time>
      </trkpt>
      <trkpt lat="44.70856" lon="5.20156">
        <ele>473</ele>
        <time>2019-09-01T09:40:16Z</time>
      </trkpt>
      <trkpt lat="44.70853" lon="5.20151">
        <ele>473</ele>
        <time>2019-09-01T09:40:18Z</time>
      </trkpt>
      <trkpt lat="44.7085" lon="5.20142">
        <ele>471</ele>
        <time>2019-09-01T09:40:20Z</time>
      </trkpt>
      <trkpt lat="44.70849" lon="5.20135">
        <ele>469</ele>
        <time>2019-09-01T09:40:21Z</time>
      </trkpt>
      <trkpt lat="44.70847" lon="5.20128">
        <ele>468</ele>
        <time>2019-09-01T09:40:22Z</time>
      </trkpt>
      <trkpt lat="44.70845" lon="5.20121">
        <ele>467</ele>
        <time>2019-09-01T09:40:23Z</time>
      </trkpt>
      <trkpt lat="44.70843" lon="5.20114">
        <ele>465</ele>
        <time>2019-09-01T09:40:24Z</time>
      </trkpt>
      <trkpt lat="44.7084" lon="5.20109">
        <ele>465</ele>
        <time>2019-09-01T09:40:25Z</time>
      </trkpt>
      <trkpt lat="44.70838" lon="5.20105">
        <ele>464</ele>
        <time>2019-09-01T09:40:26Z</time>
      </trkpt>
      <trkpt lat="44.70835" lon="5.20101">
        <ele>464</ele>
        <time>2019-09-01T09:40:27Z</time>
      </trkpt>
      <trkpt lat="44.70833" lon="5.20096">
        <ele>465</ele>
        <time>2019-09-01T09:40:28Z</time>
      </trkpt>
      <trkpt lat="44.7083" lon="5.20089">
        <ele>464</ele>
        <time>2019-09-01T09:40:29Z</time>
      </trkpt>
      <trkpt lat="44.70827" lon="5.20084">
        <ele>464</ele>
        <time>2019-09-01T09:40:30Z</time>
      </trkpt>
      <trkpt lat="44.70824" lon="5.20079">
        <ele>455</ele>
        <time>2019-09-01T09:40:31Z</time>
      </trkpt>
      <trkpt lat="44.70821" lon="5.20076">
        <ele>453</ele>
        <time>2019-09-01T09:40:32Z</time>
      </trkpt>
      <trkpt lat="44.70819" lon="5.20074">
        <ele>452</ele>
        <time>2019-09-01T09:40:33Z</time>
      </trkpt>
      <trkpt lat="44.70815" lon="5.20072">
        <ele>450</ele>
        <time>2019-09-01T09:40:35Z</time>
      </trkpt>
      <trkpt lat="44.70812" lon="5.20071">
        <ele>449</ele>
        <time>2019-09-01T09:40:37Z</time>
      </trkpt>
      <trkpt lat="44.70808" lon="5.20069">
        <ele>448</ele>
        <time>2019-09-01T09:40:39Z</time>
      </trkpt>
      <trkpt lat="44.70805" lon="5.20068">
        <ele>447</ele>
        <time>2019-09-01T09:40:41Z</time>
      </trkpt>
      <trkpt lat="44.70806" lon="5.20065">
        <ele>446</ele>
        <time>2019-09-01T09:40:43Z</time>
      </trkpt>
      <trkpt lat="44.70809" lon="5.2006">
        <ele>446</ele>
        <time>2019-09-01T09:40:45Z</time>
      </trkpt>
      <trkpt lat="44.7081" lon="5.20055">
        <ele>445</ele>
        <time>2019-09-01T09:40:48Z</time>
      </trkpt>
      <trkpt lat="44.70808" lon="5.20051">
        <ele>444</ele>
        <time>2019-09-01T09:40:59Z</time>
      </trkpt>
      <trkpt lat="44.70811" lon="5.20049">
        <ele>443</ele>
        <time>2019-09-01T09:41:10Z</time>
      </trkpt>
      <trkpt lat="44.70814" lon="5.20051">
        <ele>444</ele>
        <time>2019-09-01T09:42:14Z</time>
      </trkpt>
      <trkpt lat="44.70813" lon="5.20055">
        <ele>445</ele>
        <time>2019-09-01T09:43:47Z</time>
      </trkpt>
      <trkpt lat="44.70809" lon="5.20053">
        <ele>444</ele>
        <time>2019-09-01T09:43:50Z</time>
      </trkpt>
      <trkpt lat="44.70808" lon="5.20049">
        <ele>443</ele>
        <time>2019-09-01T09:43:57Z</time>
      </trkpt>
      <trkpt lat="44.70812" lon="5.2005">
        <ele>444</ele>
        <time>2019-09-01T09:44:03Z</time>
      </trkpt>
      <trkpt lat="44.70814" lon="5.20053">
        <ele>445</ele>
        <time>2019-09-01T09:44:07Z</time>
      </trkpt>
      <trkpt lat="44.70814" lon="5.20058">
        <ele>446</ele>
        <time>2019-09-01T09:44:11Z</time>
      </trkpt>
      <trkpt lat="44.70815" lon="5.20062">
        <ele>447</ele>
        <time>2019-09-01T09:44:23Z</time>
      </trkpt>
      <trkpt lat="44.70811" lon="5.20064">
        <ele>447</ele>
        <time>2019-09-01T09:44:33Z</time>
      </trkpt>
      <trkpt lat="44.70808" lon="5.20063">
        <ele>446</ele>
        <time>2019-09-01T09:44:35Z</time>
      </trkpt>
      <trkpt lat="44.7081" lon="5.20059">
        <ele>446</ele>
        <time>2019-09-01T09:44:37Z</time>
      </trkpt>
      <trkpt lat="44.70808" lon="5.20056">
        <ele>445</ele>
        <time>2019-09-01T09:44:42Z</time>
      </trkpt>
      <trkpt lat="44.70805" lon="5.20056">
        <ele>444</ele>
        <time>2019-09-01T09:44:44Z</time>
      </trkpt>
      <trkpt lat="44.70805" lon="5.20051">
        <ele>443</ele>
        <time>2019-09-01T09:44:51Z</time>
      </trkpt>
      <trkpt lat="44.70807" lon="5.20053">
        <ele>444</ele>
        <time>2019-09-01T09:46:11Z</time>
      </trkpt>
      <trkpt lat="44.70804" lon="5.20054">
        <ele>444</ele>
        <time>2019-09-01T09:46:18Z</time>
      </trkpt>
      <trkpt lat="44.70805" lon="5.20049">
        <ele>443</ele>
        <time>2019-09-01T09:46:21Z</time>
      </trkpt>
      <trkpt lat="44.70807" lon="5.20046">
        <ele>442</ele>
        <time>2019-09-01T09:46:22Z</time>
      </trkpt>
      <trkpt lat="44.70809" lon="5.20043">
        <ele>442</ele>
        <time>2019-09-01T09:46:23Z</time>
      </trkpt>
      <trkpt lat="44.70811" lon="5.2004">
        <ele>441</ele>
        <time>2019-09-01T09:46:24Z</time>
      </trkpt>
      <trkpt lat="44.70814" lon="5.20037">
        <ele>440</ele>
        <time>2019-09-01T09:46:25Z</time>
      </trkpt>
      <trkpt lat="44.70816" lon="5.20033">
        <ele>439</ele>
        <time>2019-09-01T09:46:26Z</time>
      </trkpt>
      <trkpt lat="44.70819" lon="5.20031">
        <ele>439</ele>
        <time>2019-09-01T09:46:27Z</time>
      </trkpt>
      <trkpt lat="44.70822" lon="5.20028">
        <ele>438</ele>
        <time>2019-09-01T09:46:28Z</time>
      </trkpt>
      <trkpt lat="44.70825" lon="5.20026">
        <ele>437</ele>
        <time>2019-09-01T09:46:29Z</time>
      </trkpt>
      <trkpt lat="44.70827" lon="5.20023">
        <ele>436</ele>
        <time>2019-09-01T09:46:30Z</time>
      </trkpt>
      <trkpt lat="44.70831" lon="5.20021">
        <ele>435</ele>
        <time>2019-09-01T09:46:32Z</time>
      </trkpt>
      <trkpt lat="44.70829" lon="5.20018">
        <ele>434</ele>
        <time>2019-09-01T09:46:36Z</time>
      </trkpt>
      <trkpt lat="44.70825" lon="5.20018">
        <ele>435</ele>
        <time>2019-09-01T09:46:38Z</time>
      </trkpt>
      <trkpt lat="44.70821" lon="5.20017">
        <ele>435</ele>
        <time>2019-09-01T09:46:41Z</time>
      </trkpt>
      <trkpt lat="44.70823" lon="5.20012">
        <ele>433</ele>
        <time>2019-09-01T09:46:43Z</time>
      </trkpt>
      <trkpt lat="44.70826" lon="5.20008">
        <ele>431</ele>
        <time>2019-09-01T09:46:44Z</time>
      </trkpt>
      <trkpt lat="44.70829" lon="5.20006">
        <ele>430</ele>
        <time>2019-09-01T09:46:45Z</time>
      </trkpt>
      <trkpt lat="44.70832" lon="5.20005">
        <ele>429</ele>
        <time>2019-09-01T09:46:46Z</time>
      </trkpt>
      <trkpt lat="44.70835" lon="5.20003">
        <ele>427</ele>
        <time>2019-09-01T09:46:47Z</time>
      </trkpt>
      <trkpt lat="44.70838" lon="5.20001">
        <ele>427</ele>
        <time>2019-09-01T09:46:49Z</time>
      </trkpt>
      <trkpt lat="44.70835" lon="5.19998">
        <ele>424</ele>
        <time>2019-09-01T09:46:51Z</time>
      </trkpt>
      <trkpt lat="44.70832" lon="5.19998">
        <ele>425</ele>
        <time>2019-09-01T09:46:52Z</time>
      </trkpt>
      <trkpt lat="44.70829" lon="5.19996">
        <ele>423</ele>
        <time>2019-09-01T09:46:53Z</time>
      </trkpt>
      <trkpt lat="44.70825" lon="5.19994">
        <ele>421</ele>
        <time>2019-09-01T09:46:54Z</time>
      </trkpt>
      <trkpt lat="44.70822" lon="5.19992">
        <ele>420</ele>
        <time>2019-09-01T09:46:55Z</time>
      </trkpt>
      <trkpt lat="44.70817" lon="5.19992">
        <ele>419</ele>
        <time>2019-09-01T09:46:57Z</time>
      </trkpt>
      <trkpt lat="44.70813" lon="5.19991">
        <ele>418</ele>
        <time>2019-09-01T09:46:59Z</time>
      </trkpt>
      <trkpt lat="44.70808" lon="5.19991">
        <ele>418</ele>
        <time>2019-09-01T09:47:01Z</time>
      </trkpt>
      <trkpt lat="44.70804" lon="5.19991">
        <ele>417</ele>
        <time>2019-09-01T09:47:03Z</time>
      </trkpt>
      <trkpt lat="44.708" lon="5.19993">
        <ele>417</ele>
        <time>2019-09-01T09:47:05Z</time>
      </trkpt>
      <trkpt lat="44.70799" lon="5.19996">
        <ele>417</ele>
        <time>2019-09-01T09:47:07Z</time>
      </trkpt>
      <trkpt lat="44.70795" lon="5.19999">
        <ele>417</ele>
        <time>2019-09-01T09:47:09Z</time>
      </trkpt>
      <trkpt lat="44.70792" lon="5.20001">
        <ele>435</ele>
        <time>2019-09-01T09:47:10Z</time>
      </trkpt>
      <trkpt lat="44.70789" lon="5.20004">
        <ele>435</ele>
        <time>2019-09-01T09:47:11Z</time>
      </trkpt>
      <trkpt lat="44.70785" lon="5.20004">
        <ele>435</ele>
        <time>2019-09-01T09:47:12Z</time>
      </trkpt>
      <trkpt lat="44.70781" lon="5.20004">
        <ele>434</ele>
        <time>2019-09-01T09:47:13Z</time>
      </trkpt>
      <trkpt lat="44.70778" lon="5.20005">
        <ele>434</ele>
        <time>2019-09-01T09:47:14Z</time>
      </trkpt>
      <trkpt lat="44.70774" lon="5.20006">
        <ele>434</ele>
        <time>2019-09-01T09:47:15Z</time>
      </trkpt>
      <trkpt lat="44.70771" lon="5.20005">
        <ele>433</ele>
        <time>2019-09-01T09:47:17Z</time>
      </trkpt>
      <trkpt lat="44.70768" lon="5.20006">
        <ele>433</ele>
        <time>2019-09-01T09:47:20Z</time>
      </trkpt>
      <trkpt lat="44.70766" lon="5.20002">
        <ele>432</ele>
        <time>2019-09-01T09:48:37Z</time>
      </trkpt>
      <trkpt lat="44.70763" lon="5.20003">
        <ele>431</ele>
        <time>2019-09-01T09:50:30Z</time>
      </trkpt>
      <trkpt lat="44.7076" lon="5.20002">
        <ele>430</ele>
        <time>2019-09-01T09:50:32Z</time>
      </trkpt>
      <trkpt lat="44.70757" lon="5.2">
        <ele>429</ele>
        <time>2019-09-01T09:50:34Z</time>
      </trkpt>
      <trkpt lat="44.70754" lon="5.19999">
        <ele>423</ele>
        <time>2019-09-01T09:50:36Z</time>
      </trkpt>
      <trkpt lat="44.70749" lon="5.19996">
        <ele>423</ele>
        <time>2019-09-01T09:50:38Z</time>
      </trkpt>
      <trkpt lat="44.70747" lon="5.19995">
        <ele>422</ele>
        <time>2019-09-01T09:50:39Z</time>
      </trkpt>
      <trkpt lat="44.70744" lon="5.19992">
        <ele>421</ele>
        <time>2019-09-01T09:50:40Z</time>
      </trkpt>
      <trkpt lat="44.70741" lon="5.1999">
        <ele>419</ele>
        <time>2019-09-01T09:50:41Z</time>
      </trkpt>
      <trkpt lat="44.70737" lon="5.19988">
        <ele>418</ele>
        <time>2019-09-01T09:50:42Z</time>
      </trkpt>
      <trkpt lat="44.70733" lon="5.19987">
        <ele>417</ele>
        <time>2019-09-01T09:50:43Z</time>
      </trkpt>
      <trkpt lat="44.70729" lon="5.19984">
        <ele>417</ele>
        <time>2019-09-01T09:50:44Z</time>
      </trkpt>
      <trkpt lat="44.70724" lon="5.19982">
        <ele>416</ele>
        <time>2019-09-01T09:50:45Z</time>
      </trkpt>
      <trkpt lat="44.7072" lon="5.1998">
        <ele>415</ele>
        <time>2019-09-01T09:50:46Z</time>
      </trkpt>
      <trkpt lat="44.70716" lon="5.19979">
        <ele>415</ele>
        <time>2019-09-01T09:50:47Z</time>
      </trkpt>
      <trkpt lat="44.70713" lon="5.19979">
        <ele>415</ele>
        <time>2019-09-01T09:50:48Z</time>
      </trkpt>
      <trkpt lat="44.7071" lon="5.19979">
        <ele>415</ele>
        <time>2019-09-01T09:50:49Z</time>
      </trkpt>
      <trkpt lat="44.70707" lon="5.19979">
        <ele>415</ele>
        <time>2019-09-01T09:50:50Z</time>
      </trkpt>
      <trkpt lat="44.70702" lon="5.19981">
        <ele>415</ele>
        <time>2019-09-01T09:50:52Z</time>
      </trkpt>
      <trkpt lat="44.70697" lon="5.19982">
        <ele>416</ele>
        <time>2019-09-01T09:50:54Z</time>
      </trkpt>
      <trkpt lat="44.70694" lon="5.19983">
        <ele>416</ele>
        <time>2019-09-01T09:50:55Z</time>
      </trkpt>
      <trkpt lat="44.7069" lon="5.19983">
        <ele>416</ele>
        <time>2019-09-01T09:50:56Z</time>
      </trkpt>
      <trkpt lat="44.70688" lon="5.19984">
        <ele>417</ele>
        <time>2019-09-01T09:50:57Z</time>
      </trkpt>
      <trkpt lat="44.70683" lon="5.19987">
        <ele>418</ele>
        <time>2019-09-01T09:50:59Z</time>
      </trkpt>
      <trkpt lat="44.70678" lon="5.19988">
        <ele>419</ele>
        <time>2019-09-01T09:51:01Z</time>
      </trkpt>
      <trkpt lat="44.70673" lon="5.19989">
        <ele>420</ele>
        <time>2019-09-01T09:51:03Z</time>
      </trkpt>
      <trkpt lat="44.70669" lon="5.19989">
        <ele>420</ele>
        <time>2019-09-01T09:51:04Z</time>
      </trkpt>
      <trkpt lat="44.70666" lon="5.19989">
        <ele>418</ele>
        <time>2019-09-01T09:51:05Z</time>
      </trkpt>
      <trkpt lat="44.70662" lon="5.19989">
        <ele>418</ele>
        <time>2019-09-01T09:51:06Z</time>
      </trkpt>
      <trkpt lat="44.70659" lon="5.19991">
        <ele>418</ele>
        <time>2019-09-01T09:51:07Z</time>
      </trkpt>
      <trkpt lat="44.70656" lon="5.19995">
        <ele>418</ele>
        <time>2019-09-01T09:51:08Z</time>
      </trkpt>
      <trkpt lat="44.70651" lon="5.19995">
        <ele>416</ele>
        <time>2019-09-01T09:51:09Z</time>
      </trkpt>
      <trkpt lat="44.70646" lon="5.19995">
        <ele>415</ele>
        <time>2019-09-01T09:51:10Z</time>
      </trkpt>
      <trkpt lat="44.7064" lon="5.19994">
        <ele>413</ele>
        <time>2019-09-01T09:51:11Z</time>
      </trkpt>
      <trkpt lat="44.70635" lon="5.19995">
        <ele>412</ele>
        <time>2019-09-01T09:51:12Z</time>
      </trkpt>
      <trkpt lat="44.70631" lon="5.19997">
        <ele>412</ele>
        <time>2019-09-01T09:51:13Z</time>
      </trkpt>
      <trkpt lat="44.70627" lon="5.19998">
        <ele>411</ele>
        <time>2019-09-01T09:51:14Z</time>
      </trkpt>
      <trkpt lat="44.70621" lon="5.19999">
        <ele>411</ele>
        <time>2019-09-01T09:51:15Z</time>
      </trkpt>
      <trkpt lat="44.70617" lon="5.20001">
        <ele>423</ele>
        <time>2019-09-01T09:51:16Z</time>
      </trkpt>
      <trkpt lat="44.70611" lon="5.20003">
        <ele>423</ele>
        <time>2019-09-01T09:51:17Z</time>
      </trkpt>
      <trkpt lat="44.70606" lon="5.20005">
        <ele>422</ele>
        <time>2019-09-01T09:51:18Z</time>
      </trkpt>
      <trkpt lat="44.70601" lon="5.20009">
        <ele>421</ele>
        <time>2019-09-01T09:51:19Z</time>
      </trkpt>
      <trkpt lat="44.70597" lon="5.20013">
        <ele>421</ele>
        <time>2019-09-01T09:51:20Z</time>
      </trkpt>
      <trkpt lat="44.70594" lon="5.20018">
        <ele>421</ele>
        <time>2019-09-01T09:51:21Z</time>
      </trkpt>
      <trkpt lat="44.70589" lon="5.20022">
        <ele>422</ele>
        <time>2019-09-01T09:51:22Z</time>
      </trkpt>
      <trkpt lat="44.70585" lon="5.20025">
        <ele>422</ele>
        <time>2019-09-01T09:51:23Z</time>
      </trkpt>
      <trkpt lat="44.7058" lon="5.2003">
        <ele>416</ele>
        <time>2019-09-01T09:51:24Z</time>
      </trkpt>
      <trkpt lat="44.70575" lon="5.20034">
        <ele>416</ele>
        <time>2019-09-01T09:51:25Z</time>
      </trkpt>
      <trkpt lat="44.70571" lon="5.20038">
        <ele>416</ele>
        <time>2019-09-01T09:51:26Z</time>
      </trkpt>
      <trkpt lat="44.70567" lon="5.20042">
        <ele>417</ele>
        <time>2019-09-01T09:51:27Z</time>
      </trkpt>
      <trkpt lat="44.70563" lon="5.20044">
        <ele>417</ele>
        <time>2019-09-01T09:51:28Z</time>
      </trkpt>
      <trkpt lat="44.70558" lon="5.20045">
        <ele>416</ele>
        <time>2019-09-01T09:51:29Z</time>
      </trkpt>
      <trkpt lat="44.70553" lon="5.20046">
        <ele>416</ele>
        <time>2019-09-01T09:51:30Z</time>
      </trkpt>
      <trkpt lat="44.70548" lon="5.20048">
        <ele>416</ele>
        <time>2019-09-01T09:51:31Z</time>
      </trkpt>
      <trkpt lat="44.70544" lon="5.20052">
        <ele>416</ele>
        <time>2019-09-01T09:51:32Z</time>
      </trkpt>
      <trkpt lat="44.70539" lon="5.20056">
        <ele>416</ele>
        <time>2019-09-01T09:51:33Z</time>
      </trkpt>
      <trkpt lat="44.70534" lon="5.20059">
        <ele>416</ele>
        <time>2019-09-01T09:51:34Z</time>
      </trkpt>
      <trkpt lat="44.70528" lon="5.20061">
        <ele>416</ele>
        <time>2019-09-01T09:51:35Z</time>
      </trkpt>
      <trkpt lat="44.70522" lon="5.20063">
        <ele>416</ele>
        <time>2019-09-01T09:51:36Z</time>
      </trkpt>
      <trkpt lat="44.70518" lon="5.20065">
        <ele>417</ele>
        <time>2019-09-01T09:51:37Z</time>
      </trkpt>
      <trkpt lat="44.70513" lon="5.20067">
        <ele>417</ele>
        <time>2019-09-01T09:51:38Z</time>
      </trkpt>
      <trkpt lat="44.70509" lon="5.20068">
        <ele>417</ele>
        <time>2019-09-01T09:51:39Z</time>
      </trkpt>
      <trkpt lat="44.70505" lon="5.20069">
        <ele>418</ele>
        <time>2019-09-01T09:51:40Z</time>
      </trkpt>
      <trkpt lat="44.705" lon="5.20069">
        <ele>412</ele>
        <time>2019-09-01T09:51:41Z</time>
      </trkpt>
      <trkpt lat="44.70494" lon="5.20072">
        <ele>413</ele>
        <time>2019-09-01T09:51:42Z</time>
      </trkpt>
      <trkpt lat="44.70487" lon="5.20075">
        <ele>412</ele>
        <time>2019-09-01T09:51:43Z</time>
      </trkpt>
      <trkpt lat="44.7048" lon="5.20079">
        <ele>411</ele>
        <time>2019-09-01T09:51:44Z</time>
      </trkpt>
      <trkpt lat="44.70473" lon="5.20082">
        <ele>409</ele>
        <time>2019-09-01T09:51:45Z</time>
      </trkpt>
      <trkpt lat="44.70466" lon="5.20084">
        <ele>425</ele>
        <time>2019-09-01T09:51:46Z</time>
      </trkpt>
      <trkpt lat="44.70461" lon="5.20086">
        <ele>425</ele>
        <time>2019-09-01T09:51:47Z</time>
      </trkpt>
      <trkpt lat="44.70456" lon="5.20089">
        <ele>425</ele>
        <time>2019-09-01T09:51:48Z</time>
      </trkpt>
      <trkpt lat="44.70454" lon="5.20093">
        <ele>425</ele>
        <time>2019-09-01T09:51:49Z</time>
      </trkpt>
      <trkpt lat="44.70452" lon="5.20097">
        <ele>425</ele>
        <time>2019-09-01T09:51:50Z</time>
      </trkpt>
      <trkpt lat="44.70449" lon="5.20102">
        <ele>426</ele>
        <time>2019-09-01T09:51:51Z</time>
      </trkpt>
      <trkpt lat="44.70447" lon="5.20105">
        <ele>426</ele>
        <time>2019-09-01T09:51:52Z</time>
      </trkpt>
      <trkpt lat="44.70441" lon="5.20105">
        <ele>426</ele>
        <time>2019-09-01T09:51:54Z</time>
      </trkpt>
      <trkpt lat="44.70438" lon="5.20102">
        <ele>424</ele>
        <time>2019-09-01T09:51:55Z</time>
      </trkpt>
      <trkpt lat="44.70434" lon="5.20096">
        <ele>422</ele>
        <time>2019-09-01T09:51:56Z</time>
      </trkpt>
      <trkpt lat="44.70429" lon="5.20089">
        <ele>419</ele>
        <time>2019-09-01T09:51:57Z</time>
      </trkpt>
      <trkpt lat="44.70423" lon="5.20081">
        <ele>409</ele>
        <time>2019-09-01T09:51:58Z</time>
      </trkpt>
      <trkpt lat="44.70418" lon="5.20074">
        <ele>408</ele>
        <time>2019-09-01T09:51:59Z</time>
      </trkpt>
      <trkpt lat="44.70412" lon="5.20066">
        <ele>403</ele>
        <time>2019-09-01T09:52:00Z</time>
      </trkpt>
      <trkpt lat="44.70407" lon="5.20061">
        <ele>400</ele>
        <time>2019-09-01T09:52:01Z</time>
      </trkpt>
      <trkpt lat="44.70403" lon="5.20056">
        <ele>398</ele>
        <time>2019-09-01T09:52:02Z</time>
      </trkpt>
      <trkpt lat="44.704" lon="5.20052">
        <ele>397</ele>
        <time>2019-09-01T09:52:03Z</time>
      </trkpt>
      <trkpt lat="44.70397" lon="5.2005">
        <ele>396</ele>
        <time>2019-09-01T09:52:04Z</time>
      </trkpt>
      <trkpt lat="44.70394" lon="5.20046">
        <ele>395</ele>
        <time>2019-09-01T09:52:05Z</time>
      </trkpt>
      <trkpt lat="44.70389" lon="5.2004">
        <ele>394</ele>
        <time>2019-09-01T09:52:06Z</time>
      </trkpt>
      <trkpt lat="44.70385" lon="5.20036">
        <ele>393</ele>
        <time>2019-09-01T09:52:07Z</time>
      </trkpt>
      <trkpt lat="44.70381" lon="5.20031">
        <ele>392</ele>
        <time>2019-09-01T09:52:08Z</time>
      </trkpt>
      <trkpt lat="44.70377" lon="5.20027">
        <ele>391</ele>
        <time>2019-09-01T09:52:09Z</time>
      </trkpt>
      <trkpt lat="44.70372" lon="5.20023">
        <ele>390</ele>
        <time>2019-09-01T09:52:10Z</time>
      </trkpt>
      <trkpt lat="44.70367" lon="5.2002">
        <ele>390</ele>
        <time>2019-09-01T09:52:11Z</time>
      </trkpt>
      <trkpt lat="44.70362" lon="5.20016">
        <ele>389</ele>
        <time>2019-09-01T09:52:12Z</time>
      </trkpt>
      <trkpt lat="44.70359" lon="5.20012">
        <ele>388</ele>
        <time>2019-09-01T09:52:13Z</time>
      </trkpt>
      <trkpt lat="44.70356" lon="5.20009">
        <ele>387</ele>
        <time>2019-09-01T09:52:14Z</time>
      </trkpt>
      <trkpt lat="44.70353" lon="5.20005">
        <ele>386</ele>
        <time>2019-09-01T09:52:15Z</time>
      </trkpt>
      <trkpt lat="44.70349" lon="5.20003">
        <ele>384</ele>
        <time>2019-09-01T09:52:16Z</time>
      </trkpt>
      <trkpt lat="44.70343" lon="5.2">
        <ele>382</ele>
        <time>2019-09-01T09:52:17Z</time>
      </trkpt>
      <trkpt lat="44.70339" lon="5.19997">
        <ele>373</ele>
        <time>2019-09-01T09:52:18Z</time>
      </trkpt>
      <trkpt lat="44.70334" lon="5.19994">
        <ele>373</ele>
        <time>2019-09-01T09:52:19Z</time>
      </trkpt>
      <trkpt lat="44.70329" lon="5.1999">
        <ele>370</ele>
        <time>2019-09-01T09:52:20Z</time>
      </trkpt>
      <trkpt lat="44.70323" lon="5.19986">
        <ele>367</ele>
        <time>2019-09-01T09:52:21Z</time>
      </trkpt>
      <trkpt lat="44.70317" lon="5.19982">
        <ele>364</ele>
        <time>2019-09-01T09:52:22Z</time>
      </trkpt>
      <trkpt lat="44.70313" lon="5.19979">
        <ele>362</ele>
        <time>2019-09-01T09:52:23Z</time>
      </trkpt>
      <trkpt lat="44.70308" lon="5.19976">
        <ele>361</ele>
        <time>2019-09-01T09:52:24Z</time>
      </trkpt>
      <trkpt lat="44.70303" lon="5.19973">
        <ele>360</ele>
        <time>2019-09-01T09:52:25Z</time>
      </trkpt>
      <trkpt lat="44.70299" lon="5.19971">
        <ele>359</ele>
        <time>2019-09-01T09:52:26Z</time>
      </trkpt>
      <trkpt lat="44.70295" lon="5.19968">
        <ele>358</ele>
        <time>2019-09-01T09:52:27Z</time>
      </trkpt>
      <trkpt lat="44.70291" lon="5.19966">
        <ele>358</ele>
        <time>2019-09-01T09:52:28Z</time>
      </trkpt>
      <trkpt lat="44.70287" lon="5.19963">
        <ele>357</ele>
        <time>2019-09-01T09:52:29Z</time>
      </trkpt>
      <trkpt lat="44.70282" lon="5.19961">
        <ele>356</ele>
        <time>2019-09-01T09:52:30Z</time>
      </trkpt>
      <trkpt lat="44.70278" lon="5.19959">
        <ele>356</ele>
        <time>2019-09-01T09:52:31Z</time>
      </trkpt>
      <trkpt lat="44.70273" lon="5.19958">
        <ele>355</ele>
        <time>2019-09-01T09:52:32Z</time>
      </trkpt>
      <trkpt lat="44.70269" lon="5.19957">
        <ele>355</ele>
        <time>2019-09-01T09:52:33Z</time>
      </trkpt>
      <trkpt lat="44.70265" lon="5.19956">
        <ele>354</ele>
        <time>2019-09-01T09:52:34Z</time>
      </trkpt>
      <trkpt lat="44.70261" lon="5.19954">
        <ele>354</ele>
        <time>2019-09-01T09:52:35Z</time>
      </trkpt>
      <trkpt lat="44.70258" lon="5.19953">
        <ele>353</ele>
        <time>2019-09-01T09:52:36Z</time>
      </trkpt>
      <trkpt lat="44.70255" lon="5.19952">
        <ele>353</ele>
        <time>2019-09-01T09:52:37Z</time>
      </trkpt>
      <trkpt lat="44.70252" lon="5.19953">
        <ele>353</ele>
        <time>2019-09-01T09:52:38Z</time>
      </trkpt>
      <trkpt lat="44.70248" lon="5.19954">
        <ele>346</ele>
        <time>2019-09-01T09:52:39Z</time>
      </trkpt>
      <trkpt lat="44.70244" lon="5.19954">
        <ele>346</ele>
        <time>2019-09-01T09:52:40Z</time>
      </trkpt>
      <trkpt lat="44.70239" lon="5.19954">
        <ele>346</ele>
        <time>2019-09-01T09:52:41Z</time>
      </trkpt>
      <trkpt lat="44.70235" lon="5.19956">
        <ele>346</ele>
        <time>2019-09-01T09:52:42Z</time>
      </trkpt>
      <trkpt lat="44.70231" lon="5.19957">
        <ele>346</ele>
        <time>2019-09-01T09:52:43Z</time>
      </trkpt>
      <trkpt lat="44.70227" lon="5.19958">
        <ele>346</ele>
        <time>2019-09-01T09:52:44Z</time>
      </trkpt>
      <trkpt lat="44.70222" lon="5.19958">
        <ele>346</ele>
        <time>2019-09-01T09:52:45Z</time>
      </trkpt>
      <trkpt lat="44.70218" lon="5.19958">
        <ele>345</ele>
        <time>2019-09-01T09:52:46Z</time>
      </trkpt>
      <trkpt lat="44.70214" lon="5.19959">
        <ele>345</ele>
        <time>2019-09-01T09:52:47Z</time>
      </trkpt>
      <trkpt lat="44.7021" lon="5.1996">
        <ele>345</ele>
        <time>2019-09-01T09:52:48Z</time>
      </trkpt>
      <trkpt lat="44.70205" lon="5.19959">
        <ele>344</ele>
        <time>2019-09-01T09:52:49Z</time>
      </trkpt>
      <trkpt lat="44.70201" lon="5.19958">
        <ele>344</ele>
        <time>2019-09-01T09:52:50Z</time>
      </trkpt>
      <trkpt lat="44.70197" lon="5.19958">
        <ele>343</ele>
        <time>2019-09-01T09:52:51Z</time>
      </trkpt>
      <trkpt lat="44.70192" lon="5.19957">
        <ele>343</ele>
        <time>2019-09-01T09:52:52Z</time>
      </trkpt>
      <trkpt lat="44.70187" lon="5.19958">
        <ele>342</ele>
        <time>2019-09-01T09:52:53Z</time>
      </trkpt>
      <trkpt lat="44.70183" lon="5.19958">
        <ele>342</ele>
        <time>2019-09-01T09:52:54Z</time>
      </trkpt>
      <trkpt lat="44.70179" lon="5.19959">
        <ele>342</ele>
        <time>2019-09-01T09:52:55Z</time>
      </trkpt>
      <trkpt lat="44.70176" lon="5.19961">
        <ele>342</ele>
        <time>2019-09-01T09:52:56Z</time>
      </trkpt>
      <trkpt lat="44.70171" lon="5.19963">
        <ele>342</ele>
        <time>2019-09-01T09:52:57Z</time>
      </trkpt>
      <trkpt lat="44.70167" lon="5.19965">
        <ele>343</ele>
        <time>2019-09-01T09:52:58Z</time>
      </trkpt>
      <trkpt lat="44.70163" lon="5.19967">
        <ele>336</ele>
        <time>2019-09-01T09:52:59Z</time>
      </trkpt>
      <trkpt lat="44.70159" lon="5.19968">
        <ele>336</ele>
        <time>2019-09-01T09:53:00Z</time>
      </trkpt>
      <trkpt lat="44.70154" lon="5.19969">
        <ele>336</ele>
        <time>2019-09-01T09:53:01Z</time>
      </trkpt>
      <trkpt lat="44.7015" lon="5.19969">
        <ele>336</ele>
        <time>2019-09-01T09:53:02Z</time>
      </trkpt>
      <trkpt lat="44.70145" lon="5.19966">
        <ele>335</ele>
        <time>2019-09-01T09:53:03Z</time>
      </trkpt>
      <trkpt lat="44.7014" lon="5.19964">
        <ele>334</ele>
        <time>2019-09-01T09:53:04Z</time>
      </trkpt>
      <trkpt lat="44.70133" lon="5.19961">
        <ele>334</ele>
        <time>2019-09-01T09:53:05Z</time>
      </trkpt>
      <trkpt lat="44.70127" lon="5.19959">
        <ele>333</ele>
        <time>2019-09-01T09:53:06Z</time>
      </trkpt>
      <trkpt lat="44.70122" lon="5.19956">
        <ele>332</ele>
        <time>2019-09-01T09:53:07Z</time>
      </trkpt>
      <trkpt lat="44.70116" lon="5.19951">
        <ele>331</ele>
        <time>2019-09-01T09:53:08Z</time>
      </trkpt>
      <trkpt lat="44.7011" lon="5.19947">
        <ele>331</ele>
        <time>2019-09-01T09:53:09Z</time>
      </trkpt>
      <trkpt lat="44.70104" lon="5.19942">
        <ele>329</ele>
        <time>2019-09-01T09:53:10Z</time>
      </trkpt>
      <trkpt lat="44.70098" lon="5.19935">
        <ele>328</ele>
        <time>2019-09-01T09:53:11Z</time>
      </trkpt>
      <trkpt lat="44.70092" lon="5.19928">
        <ele>326</ele>
        <time>2019-09-01T09:53:12Z</time>
      </trkpt>
      <trkpt lat="44.70085" lon="5.19922">
        <ele>323</ele>
        <time>2019-09-01T09:53:13Z</time>
      </trkpt>
      <trkpt lat="44.70079" lon="5.19916">
        <ele>318</ele>
        <time>2019-09-01T09:53:14Z</time>
      </trkpt>
      <trkpt lat="44.70073" lon="5.1991">
        <ele>315</ele>
        <time>2019-09-01T09:53:15Z</time>
      </trkpt>
      <trkpt lat="44.70067" lon="5.19904">
        <ele>312</ele>
        <time>2019-09-01T09:53:16Z</time>
      </trkpt>
      <trkpt lat="44.70062" lon="5.199">
        <ele>311</ele>
        <time>2019-09-01T09:53:17Z</time>
      </trkpt>
      <trkpt lat="44.70057" lon="5.19894">
        <ele>310</ele>
        <time>2019-09-01T09:53:18Z</time>
      </trkpt>
      <trkpt lat="44.70053" lon="5.19888">
        <ele>308</ele>
        <time>2019-09-01T09:53:19Z</time>
      </trkpt>
      <trkpt lat="44.70049" lon="5.19885">
        <ele>308</ele>
        <time>2019-09-01T09:53:20Z</time>
      </trkpt>
      <trkpt lat="44.70045" lon="5.19882">
        <ele>307</ele>
        <time>2019-09-01T09:53:21Z</time>
      </trkpt>
      <trkpt lat="44.70041" lon="5.1988">
        <ele>307</ele>
        <time>2019-09-01T09:53:22Z</time>
      </trkpt>
      <trkpt lat="44.70038" lon="5.19878">
        <ele>307</ele>
        <time>2019-09-01T09:53:23Z</time>
      </trkpt>
      <trkpt lat="44.70035" lon="5.19876">
        <ele>306</ele>
        <time>2019-09-01T09:53:24Z</time>
      </trkpt>
      <trkpt lat="44.70031" lon="5.19874">
        <ele>306</ele>
        <time>2019-09-01T09:53:25Z</time>
      </trkpt>
      <trkpt lat="44.70028" lon="5.19871">
        <ele>306</ele>
        <time>2019-09-01T09:53:26Z</time>
      </trkpt>
      <trkpt lat="44.70026" lon="5.19869">
        <ele>305</ele>
        <time>2019-09-01T09:53:27Z</time>
      </trkpt>
      <trkpt lat="44.70023" lon="5.19867">
        <ele>305</ele>
        <time>2019-09-01T09:53:28Z</time>
      </trkpt>
      <trkpt lat="44.7002" lon="5.19864">
        <ele>304</ele>
        <time>2019-09-01T09:53:29Z</time>
      </trkpt>
      <trkpt lat="44.70015" lon="5.1986">
        <ele>304</ele>
        <time>2019-09-01T09:53:30Z</time>
      </trkpt>
      <trkpt lat="44.7001" lon="5.19856">
        <ele>303</ele>
        <time>2019-09-01T09:53:31Z</time>
      </trkpt>
      <trkpt lat="44.70006" lon="5.19852">
        <ele>302</ele>
        <time>2019-09-01T09:53:32Z</time>
      </trkpt>
      <trkpt lat="44.70004" lon="5.19849">
        <ele>301</ele>
        <time>2019-09-01T09:53:33Z</time>
      </trkpt>
      <trkpt lat="44.70001" lon="5.19846">
        <ele>301</ele>
        <time>2019-09-01T09:53:34Z</time>
      </trkpt>
      <trkpt lat="44.69998" lon="5.19844">
        <ele>297</ele>
        <time>2019-09-01T09:53:35Z</time>
      </trkpt>
      <trkpt lat="44.69996" lon="5.19842">
        <ele>297</ele>
        <time>2019-09-01T09:53:36Z</time>
      </trkpt>
      <trkpt lat="44.69993" lon="5.19839">
        <ele>297</ele>
        <time>2019-09-01T09:53:37Z</time>
      </trkpt>
      <trkpt lat="44.69991" lon="5.19835">
        <ele>297</ele>
        <time>2019-09-01T09:53:38Z</time>
      </trkpt>
      <trkpt lat="44.69989" lon="5.19831">
        <ele>293</ele>
        <time>2019-09-01T09:53:39Z</time>
      </trkpt>
      <trkpt lat="44.69987" lon="5.19827">
        <ele>292</ele>
        <time>2019-09-01T09:53:40Z</time>
      </trkpt>
      <trkpt lat="44.69984" lon="5.19823">
        <ele>291</ele>
        <time>2019-09-01T09:53:41Z</time>
      </trkpt>
      <trkpt lat="44.69981" lon="5.19818">
        <ele>290</ele>
        <time>2019-09-01T09:53:42Z</time>
      </trkpt>
      <trkpt lat="44.69978" lon="5.19814">
        <ele>290</ele>
        <time>2019-09-01T09:53:43Z</time>
      </trkpt>
      <trkpt lat="44.69976" lon="5.19811">
        <ele>289</ele>
        <time>2019-09-01T09:53:44Z</time>
      </trkpt>
      <trkpt lat="44.69973" lon="5.19809">
        <ele>289</ele>
        <time>2019-09-01T09:53:45Z</time>
      </trkpt>
      <trkpt lat="44.6997" lon="5.19804">
        <ele>288</ele>
        <time>2019-09-01T09:53:47Z</time>
      </trkpt>
      <trkpt lat="44.69968" lon="5.198">
        <ele>287</ele>
        <time>2019-09-01T09:53:48Z</time>
      </trkpt>
      <trkpt lat="44.69965" lon="5.19794">
        <ele>287</ele>
        <time>2019-09-01T09:53:50Z</time>
      </trkpt>
      <trkpt lat="44.69962" lon="5.19791">
        <ele>287</ele>
        <time>2019-09-01T09:53:52Z</time>
      </trkpt>
      <trkpt lat="44.69962" lon="5.19783">
        <ele>286</ele>
        <time>2019-09-01T09:53:54Z</time>
      </trkpt>
      <trkpt lat="44.69962" lon="5.19779">
        <ele>286</ele>
        <time>2019-09-01T09:53:55Z</time>
      </trkpt>
      <trkpt lat="44.69965" lon="5.19775">
        <ele>286</ele>
        <time>2019-09-01T09:54:00Z</time>
      </trkpt>
      <trkpt lat="44.69963" lon="5.19778">
        <ele>286</ele>
        <time>2019-09-01T09:55:21Z</time>
      </trkpt>
      <trkpt lat="44.6996" lon="5.19779">
        <ele>286</ele>
        <time>2019-09-01T09:56:02Z</time>
      </trkpt>
      <trkpt lat="44.69957" lon="5.19777">
        <ele>286</ele>
        <time>2019-09-01T09:56:05Z</time>
      </trkpt>
      <trkpt lat="44.69955" lon="5.19773">
        <ele>285</ele>
        <time>2019-09-01T09:56:07Z</time>
      </trkpt>
      <trkpt lat="44.69953" lon="5.19769">
        <ele>285</ele>
        <time>2019-09-01T09:56:11Z</time>
      </trkpt>
      <trkpt lat="44.6995" lon="5.19766">
        <ele>285</ele>
        <time>2019-09-01T09:56:13Z</time>
      </trkpt>
      <trkpt lat="44.69946" lon="5.19761">
        <ele>284</ele>
        <time>2019-09-01T09:56:15Z</time>
      </trkpt>
      <trkpt lat="44.69944" lon="5.19758">
        <ele>284</ele>
        <time>2019-09-01T09:56:16Z</time>
      </trkpt>
      <trkpt lat="44.69941" lon="5.19754">
        <ele>284</ele>
        <time>2019-09-01T09:56:17Z</time>
      </trkpt>
      <trkpt lat="44.69938" lon="5.1975">
        <ele>279</ele>
        <time>2019-09-01T09:56:18Z</time>
      </trkpt>
      <trkpt lat="44.69936" lon="5.19745">
        <ele>279</ele>
        <time>2019-09-01T09:56:19Z</time>
      </trkpt>
      <trkpt lat="44.69933" lon="5.1974">
        <ele>279</ele>
        <time>2019-09-01T09:56:20Z</time>
      </trkpt>
      <trkpt lat="44.69931" lon="5.19735">
        <ele>278</ele>
        <time>2019-09-01T09:56:21Z</time>
      </trkpt>
      <trkpt lat="44.69927" lon="5.19731">
        <ele>278</ele>
        <time>2019-09-01T09:56:22Z</time>
      </trkpt>
      <trkpt lat="44.69924" lon="5.19728">
        <ele>278</ele>
        <time>2019-09-01T09:56:23Z</time>
      </trkpt>
      <trkpt lat="44.69919" lon="5.19726">
        <ele>278</ele>
        <time>2019-09-01T09:56:24Z</time>
      </trkpt>
      <trkpt lat="44.69913" lon="5.19724">
        <ele>276</ele>
        <time>2019-09-01T09:56:25Z</time>
      </trkpt>
      <trkpt lat="44.69908" lon="5.19724">
        <ele>276</ele>
        <time>2019-09-01T09:56:26Z</time>
      </trkpt>
      <trkpt lat="44.69902" lon="5.19726">
        <ele>276</ele>
        <time>2019-09-01T09:56:27Z</time>
      </trkpt>
      <trkpt lat="44.69896" lon="5.19728">
        <ele>275</ele>
        <time>2019-09-01T09:56:28Z</time>
      </trkpt>
      <trkpt lat="44.69892" lon="5.1973">
        <ele>275</ele>
        <time>2019-09-01T09:56:29Z</time>
      </trkpt>
      <trkpt lat="44.69889" lon="5.19732">
        <ele>275</ele>
        <time>2019-09-01T09:56:30Z</time>
      </trkpt>
      <trkpt lat="44.69885" lon="5.19732">
        <ele>275</ele>
        <time>2019-09-01T09:56:32Z</time>
      </trkpt>
      <trkpt lat="44.69882" lon="5.19731">
        <ele>275</ele>
        <time>2019-09-01T09:56:33Z</time>
      </trkpt>
      <trkpt lat="44.69879" lon="5.19732">
        <ele>275</ele>
        <time>2019-09-01T09:56:34Z</time>
      </trkpt>
      <trkpt lat="44.69876" lon="5.19732">
        <ele>274</ele>
        <time>2019-09-01T09:56:35Z</time>
      </trkpt>
      <trkpt lat="44.69873" lon="5.19732">
        <ele>274</ele>
        <time>2019-09-01T09:56:36Z</time>
      </trkpt>
      <trkpt lat="44.69869" lon="5.19731">
        <ele>274</ele>
        <time>2019-09-01T09:56:37Z</time>
      </trkpt>
      <trkpt lat="44.69864" lon="5.1973">
        <ele>274</ele>
        <time>2019-09-01T09:56:38Z</time>
      </trkpt>
      <trkpt lat="44.69859" lon="5.19728">
        <ele>274</ele>
        <time>2019-09-01T09:56:39Z</time>
      </trkpt>
      <trkpt lat="44.69854" lon="5.19724">
        <ele>273</ele>
        <time>2019-09-01T09:56:40Z</time>
      </trkpt>
      <trkpt lat="44.69848" lon="5.19721">
        <ele>273</ele>
        <time>2019-09-01T09:56:41Z</time>
      </trkpt>
      <trkpt lat="44.69842" lon="5.19718">
        <ele>273</ele>
        <time>2019-09-01T09:56:42Z</time>
      </trkpt>
      <trkpt lat="44.69836" lon="5.19715">
        <ele>273</ele>
        <time>2019-09-01T09:56:43Z</time>
      </trkpt>
      <trkpt lat="44.6983" lon="5.19713">
        <ele>270</ele>
        <time>2019-09-01T09:56:44Z</time>
      </trkpt>
      <trkpt lat="44.69823" lon="5.1971">
        <ele>270</ele>
        <time>2019-09-01T09:56:45Z</time>
      </trkpt>
      <trkpt lat="44.69816" lon="5.19706">
        <ele>270</ele>
        <time>2019-09-01T09:56:46Z</time>
      </trkpt>
      <trkpt lat="44.69809" lon="5.19703">
        <ele>270</ele>
        <time>2019-09-01T09:56:47Z</time>
      </trkpt>
      <trkpt lat="44.69803" lon="5.19703">
        <ele>270</ele>
        <time>2019-09-01T09:56:48Z</time>
      </trkpt>
      <trkpt lat="44.69797" lon="5.19703">
        <ele>270</ele>
        <time>2019-09-01T09:56:49Z</time>
      </trkpt>
      <trkpt lat="44.69793" lon="5.19703">
        <ele>270</ele>
        <time>2019-09-01T09:56:50Z</time>
      </trkpt>
      <trkpt lat="44.69787" lon="5.19703">
        <ele>269</ele>
        <time>2019-09-01T09:56:51Z</time>
      </trkpt>
      <trkpt lat="44.69783" lon="5.19705">
        <ele>269</ele>
        <time>2019-09-01T09:56:52Z</time>
      </trkpt>
      <trkpt lat="44.69779" lon="5.19707">
        <ele>270</ele>
        <time>2019-09-01T09:56:53Z</time>
      </trkpt>
      <trkpt lat="44.69775" lon="5.19711">
        <ele>270</ele>
        <time>2019-09-01T09:56:55Z</time>
      </trkpt>
      <trkpt lat="44.6977" lon="5.19714">
        <ele>270</ele>
        <time>2019-09-01T09:56:57Z</time>
      </trkpt>
      <trkpt lat="44.69766" lon="5.19716">
        <ele>270</ele>
        <time>2019-09-01T09:56:59Z</time>
      </trkpt>
      <trkpt lat="44.69764" lon="5.19711">
        <ele>270</ele>
        <time>2019-09-01T09:57:01Z</time>
      </trkpt>
      <trkpt lat="44.69764" lon="5.19707">
        <ele>269</ele>
        <time>2019-09-01T09:57:02Z</time>
      </trkpt>
      <trkpt lat="44.69763" lon="5.19701">
        <ele>269</ele>
        <time>2019-09-01T09:57:03Z</time>
      </trkpt>
      <trkpt lat="44.69762" lon="5.19693">
        <ele>268</ele>
        <time>2019-09-01T09:57:04Z</time>
      </trkpt>
      <trkpt lat="44.6976" lon="5.19685">
        <ele>268</ele>
        <time>2019-09-01T09:57:05Z</time>
      </trkpt>
      <trkpt lat="44.69758" lon="5.19678">
        <ele>267</ele>
        <time>2019-09-01T09:57:06Z</time>
      </trkpt>
      <trkpt lat="44.69754" lon="5.1967">
        <ele>266</ele>
        <time>2019-09-01T09:57:07Z</time>
      </trkpt>
      <trkpt lat="44.69749" lon="5.19661">
        <ele>265</ele>
        <time>2019-09-01T09:57:08Z</time>
      </trkpt>
      <trkpt lat="44.69744" lon="5.19654">
        <ele>264</ele>
        <time>2019-09-01T09:57:09Z</time>
      </trkpt>
      <trkpt lat="44.69741" lon="5.19646">
        <ele>264</ele>
        <time>2019-09-01T09:57:10Z</time>
      </trkpt>
      <trkpt lat="44.69738" lon="5.19642">
        <ele>264</ele>
        <time>2019-09-01T09:57:11Z</time>
      </trkpt>
      <trkpt lat="44.69736" lon="5.19636">
        <ele>264</ele>
        <time>2019-09-01T09:57:13Z</time>
      </trkpt>
      <trkpt lat="44.69737" lon="5.19632">
        <ele>264</ele>
        <time>2019-09-01T09:57:14Z</time>
      </trkpt>
      <trkpt lat="44.69737" lon="5.19628">
        <ele>263</ele>
        <time>2019-09-01T09:57:15Z</time>
      </trkpt>
      <trkpt lat="44.69736" lon="5.19624">
        <ele>263</ele>
        <time>2019-09-01T09:57:17Z</time>
      </trkpt>
      <trkpt lat="44.69733" lon="5.19622">
        <ele>263</ele>
        <time>2019-09-01T09:57:19Z</time>
      </trkpt>
      <trkpt lat="44.69729" lon="5.19621">
        <ele>263</ele>
        <time>2019-09-01T09:57:21Z</time>
      </trkpt>
      <trkpt lat="44.69724" lon="5.19619">
        <ele>263</ele>
        <time>2019-09-01T09:57:23Z</time>
      </trkpt>
      <trkpt lat="44.69721" lon="5.19617">
        <ele>263</ele>
        <time>2019-09-01T09:57:25Z</time>
      </trkpt>
      <trkpt lat="44.69716" lon="5.19616">
        <ele>263</ele>
        <time>2019-09-01T09:57:27Z</time>
      </trkpt>
      <trkpt lat="44.69711" lon="5.19614">
        <ele>263</ele>
        <time>2019-09-01T09:57:29Z</time>
      </trkpt>
      <trkpt lat="44.69707" lon="5.19612">
        <ele>263</ele>
        <time>2019-09-01T09:57:31Z</time>
      </trkpt>
      <trkpt lat="44.69702" lon="5.1961">
        <ele>263</ele>
        <time>2019-09-01T09:57:33Z</time>
      </trkpt>
      <trkpt lat="44.69697" lon="5.19606">
        <ele>263</ele>
        <time>2019-09-01T09:57:35Z</time>
      </trkpt>
      <trkpt lat="44.69695" lon="5.19603">
        <ele>263</ele>
        <time>2019-09-01T09:57:36Z</time>
      </trkpt>
      <trkpt lat="44.69691" lon="5.19602">
        <ele>263</ele>
        <time>2019-09-01T09:57:37Z</time>
      </trkpt>
      <trkpt lat="44.69688" lon="5.196">
        <ele>263</ele>
        <time>2019-09-01T09:57:38Z</time>
      </trkpt>
      <trkpt lat="44.69686" lon="5.19596">
        <ele>263</ele>
        <time>2019-09-01T09:57:39Z</time>
      </trkpt>
      <trkpt lat="44.69682" lon="5.19594">
        <ele>263</ele>
        <time>2019-09-01T09:57:40Z</time>
      </trkpt>
      <trkpt lat="44.6968" lon="5.19591">
        <ele>263</ele>
        <time>2019-09-01T09:57:41Z</time>
      </trkpt>
      <trkpt lat="44.69677" lon="5.19587">
        <ele>263</ele>
        <time>2019-09-01T09:57:42Z</time>
      </trkpt>
      <trkpt lat="44.69674" lon="5.19584">
        <ele>263</ele>
        <time>2019-09-01T09:57:43Z</time>
      </trkpt>
      <trkpt lat="44.69672" lon="5.19581">
        <ele>263</ele>
        <time>2019-09-01T09:57:44Z</time>
      </trkpt>
      <trkpt lat="44.69669" lon="5.19578">
        <ele>263</ele>
        <time>2019-09-01T09:57:45Z</time>
      </trkpt>
      <trkpt lat="44.69667" lon="5.19576">
        <ele>263</ele>
        <time>2019-09-01T09:57:46Z</time>
      </trkpt>
      <trkpt lat="44.69664" lon="5.19574">
        <ele>262</ele>
        <time>2019-09-01T09:57:48Z</time>
      </trkpt>
      <trkpt lat="44.69661" lon="5.19574">
        <ele>262</ele>
        <time>2019-09-01T09:57:50Z</time>
      </trkpt>
      <trkpt lat="44.69663" lon="5.19572">
        <ele>262</ele>
        <time>2019-09-01T09:58:04Z</time>
      </trkpt>
      <trkpt lat="44.69663" lon="5.19568">
        <ele>262</ele>
        <time>2019-09-01T09:58:07Z</time>
      </trkpt>
      <trkpt lat="44.69661" lon="5.19565">
        <ele>262</ele>
        <time>2019-09-01T09:58:10Z</time>
      </trkpt>
      <trkpt lat="44.69656" lon="5.19567">
        <ele>262</ele>
        <time>2019-09-01T09:58:13Z</time>
      </trkpt>
      <trkpt lat="44.69654" lon="5.19566">
        <ele>262</ele>
        <time>2019-09-01T09:58:15Z</time>
      </trkpt>
      <trkpt lat="44.6965" lon="5.19566">
        <ele>262</ele>
        <time>2019-09-01T09:58:24Z</time>
      </trkpt>
      <trkpt lat="44.69647" lon="5.19564">
        <ele>262</ele>
        <time>2019-09-01T09:58:26Z</time>
      </trkpt>
      <trkpt lat="44.69643" lon="5.19561">
        <ele>262</ele>
        <time>2019-09-01T09:58:29Z</time>
      </trkpt>
      <trkpt lat="44.6964" lon="5.1956">
        <ele>262</ele>
        <time>2019-09-01T09:58:32Z</time>
      </trkpt>
      <trkpt lat="44.69637" lon="5.19558">
        <ele>262</ele>
        <time>2019-09-01T09:58:33Z</time>
      </trkpt>
      <trkpt lat="44.69634" lon="5.19557">
        <ele>261</ele>
        <time>2019-09-01T09:58:34Z</time>
      </trkpt>
      <trkpt lat="44.69631" lon="5.19555">
        <ele>261</ele>
        <time>2019-09-01T09:58:35Z</time>
      </trkpt>
      <trkpt lat="44.69627" lon="5.19551">
        <ele>261</ele>
        <time>2019-09-01T09:58:37Z</time>
      </trkpt>
      <trkpt lat="44.69625" lon="5.19548">
        <ele>261</ele>
        <time>2019-09-01T09:58:38Z</time>
      </trkpt>
      <trkpt lat="44.69623" lon="5.19545">
        <ele>261</ele>
        <time>2019-09-01T09:58:39Z</time>
      </trkpt>
      <trkpt lat="44.6962" lon="5.1954">
        <ele>261</ele>
        <time>2019-09-01T09:58:41Z</time>
      </trkpt>
      <trkpt lat="44.69616" lon="5.19535">
        <ele>261</ele>
        <time>2019-09-01T09:58:43Z</time>
      </trkpt>
      <trkpt lat="44.69612" lon="5.19532">
        <ele>261</ele>
        <time>2019-09-01T09:58:45Z</time>
      </trkpt>
      <trkpt lat="44.69607" lon="5.1953">
        <ele>261</ele>
        <time>2019-09-01T09:58:47Z</time>
      </trkpt>
      <trkpt lat="44.69604" lon="5.19529">
        <ele>261</ele>
        <time>2019-09-01T09:58:49Z</time>
      </trkpt>
      <trkpt lat="44.69601" lon="5.19528">
        <ele>261</ele>
        <time>2019-09-01T09:58:51Z</time>
      </trkpt>
      <trkpt lat="44.69597" lon="5.19528">
        <ele>261</ele>
        <time>2019-09-01T09:58:53Z</time>
      </trkpt>
      <trkpt lat="44.69593" lon="5.19525">
        <ele>261</ele>
        <time>2019-09-01T09:58:55Z</time>
      </trkpt>
      <trkpt lat="44.6959" lon="5.19523">
        <ele>261</ele>
        <time>2019-09-01T09:58:58Z</time>
      </trkpt>
      <trkpt lat="44.69587" lon="5.19522">
        <ele>261</ele>
        <time>2019-09-01T09:59:00Z</time>
      </trkpt>
      <trkpt lat="44.69584" lon="5.1952">
        <ele>261</ele>
        <time>2019-09-01T09:59:03Z</time>
      </trkpt>
      <trkpt lat="44.69581" lon="5.19519">
        <ele>262</ele>
        <time>2019-09-01T09:59:05Z</time>
      </trkpt>
      <trkpt lat="44.69578" lon="5.19518">
        <ele>262</ele>
        <time>2019-09-01T09:59:06Z</time>
      </trkpt>
      <trkpt lat="44.69574" lon="5.19513">
        <ele>261</ele>
        <time>2019-09-01T09:59:08Z</time>
      </trkpt>
      <trkpt lat="44.69569" lon="5.19511">
        <ele>262</ele>
        <time>2019-09-01T09:59:10Z</time>
      </trkpt>
      <trkpt lat="44.69566" lon="5.19511">
        <ele>262</ele>
        <time>2019-09-01T09:59:11Z</time>
      </trkpt>
      <trkpt lat="44.69563" lon="5.19511">
        <ele>262</ele>
        <time>2019-09-01T09:59:12Z</time>
      </trkpt>
      <trkpt lat="44.69558" lon="5.19509">
        <ele>262</ele>
        <time>2019-09-01T09:59:14Z</time>
      </trkpt>
      <trkpt lat="44.69554" lon="5.19505">
        <ele>262</ele>
        <time>2019-09-01T09:59:16Z</time>
      </trkpt>
      <trkpt lat="44.69552" lon="5.19502">
        <ele>262</ele>
        <time>2019-09-01T09:59:17Z</time>
      </trkpt>
      <trkpt lat="44.69549" lon="5.19498">
        <ele>262</ele>
        <time>2019-09-01T09:59:18Z</time>
      </trkpt>
      <trkpt lat="44.69547" lon="5.19495">
        <ele>262</ele>
        <time>2019-09-01T09:59:19Z</time>
      </trkpt>
      <trkpt lat="44.69545" lon="5.19492">
        <ele>262</ele>
        <time>2019-09-01T09:59:20Z</time>
      </trkpt>
      <trkpt lat="44.69543" lon="5.19489">
        <ele>262</ele>
        <time>2019-09-01T09:59:21Z</time>
      </trkpt>
      <trkpt lat="44.6954" lon="5.19483">
        <ele>262</ele>
        <time>2019-09-01T09:59:23Z</time>
      </trkpt>
      <trkpt lat="44.69538" lon="5.19479">
        <ele>262</ele>
        <time>2019-09-01T09:59:25Z</time>
      </trkpt>
      <trkpt lat="44.69536" lon="5.19474">
        <ele>262</ele>
        <time>2019-09-01T09:59:27Z</time>
      </trkpt>
      <trkpt lat="44.69534" lon="5.1947">
        <ele>263</ele>
        <time>2019-09-01T09:59:29Z</time>
      </trkpt>
      <trkpt lat="44.69532" lon="5.19466">
        <ele>263</ele>
        <time>2019-09-01T09:59:31Z</time>
      </trkpt>
      <trkpt lat="44.69532" lon="5.19461">
        <ele>263</ele>
        <time>2019-09-01T09:59:33Z</time>
      </trkpt>
      <trkpt lat="44.69532" lon="5.19455">
        <ele>262</ele>
        <time>2019-09-01T09:59:35Z</time>
      </trkpt>
      <trkpt lat="44.69532" lon="5.19448">
        <ele>262</ele>
        <time>2019-09-01T09:59:37Z</time>
      </trkpt>
      <trkpt lat="44.69532" lon="5.19445">
        <ele>262</ele>
        <time>2019-09-01T09:59:38Z</time>
      </trkpt>
      <trkpt lat="44.69532" lon="5.19438">
        <ele>262</ele>
        <time>2019-09-01T09:59:40Z</time>
      </trkpt>
      <trkpt lat="44.69532" lon="5.19432">
        <ele>263</ele>
        <time>2019-09-01T09:59:42Z</time>
      </trkpt>
      <trkpt lat="44.6953" lon="5.19427">
        <ele>263</ele>
        <time>2019-09-01T09:59:44Z</time>
      </trkpt>
      <trkpt lat="44.69529" lon="5.19422">
        <ele>263</ele>
        <time>2019-09-01T09:59:46Z</time>
      </trkpt>
      <trkpt lat="44.69529" lon="5.19416">
        <ele>262</ele>
        <time>2019-09-01T09:59:48Z</time>
      </trkpt>
      <trkpt lat="44.69528" lon="5.1941">
        <ele>262</ele>
        <time>2019-09-01T09:59:50Z</time>
      </trkpt>
      <trkpt lat="44.69527" lon="5.19404">
        <ele>262</ele>
        <time>2019-09-01T09:59:52Z</time>
      </trkpt>
      <trkpt lat="44.69525" lon="5.19396">
        <ele>262</ele>
        <time>2019-09-01T09:59:54Z</time>
      </trkpt>
      <trkpt lat="44.69524" lon="5.1939">
        <ele>262</ele>
        <time>2019-09-01T09:59:56Z</time>
      </trkpt>
      <trkpt lat="44.69523" lon="5.19386">
        <ele>262</ele>
        <time>2019-09-01T09:59:57Z</time>
      </trkpt>
      <trkpt lat="44.69523" lon="5.19382">
        <ele>261</ele>
        <time>2019-09-01T09:59:58Z</time>
      </trkpt>
      <trkpt lat="44.69521" lon="5.19374">
        <ele>261</ele>
        <time>2019-09-01T10:00:00Z</time>
      </trkpt>
      <trkpt lat="44.69521" lon="5.1937">
        <ele>261</ele>
        <time>2019-09-01T10:00:01Z</time>
      </trkpt>
      <trkpt lat="44.6952" lon="5.19366">
        <ele>261</ele>
        <time>2019-09-01T10:00:02Z</time>
      </trkpt>
      <trkpt lat="44.69519" lon="5.19362">
        <ele>261</ele>
        <time>2019-09-01T10:00:03Z</time>
      </trkpt>
      <trkpt lat="44.69519" lon="5.19357">
        <ele>261</ele>
        <time>2019-09-01T10:00:04Z</time>
      </trkpt>
      <trkpt lat="44.69518" lon="5.19353">
        <ele>261</ele>
        <time>2019-09-01T10:00:05Z</time>
      </trkpt>
      <trkpt lat="44.69517" lon="5.19349">
        <ele>261</ele>
        <time>2019-09-01T10:00:06Z</time>
      </trkpt>
      <trkpt lat="44.69517" lon="5.19344">
        <ele>261</ele>
        <time>2019-09-01T10:00:07Z</time>
      </trkpt>
      <trkpt lat="44.69516" lon="5.1934">
        <ele>261</ele>
        <time>2019-09-01T10:00:08Z</time>
      </trkpt>
      <trkpt lat="44.69516" lon="5.19335">
        <ele>261</ele>
        <time>2019-09-01T10:00:09Z</time>
      </trkpt>
      <trkpt lat="44.69515" lon="5.19331">
        <ele>260</ele>
        <time>2019-09-01T10:00:10Z</time>
      </trkpt>
      <trkpt lat="44.69514" lon="5.19327">
        <ele>260</ele>
        <time>2019-09-01T10:00:11Z</time>
      </trkpt>
      <trkpt lat="44.69513" lon="5.19323">
        <ele>260</ele>
        <time>2019-09-01T10:00:12Z</time>
      </trkpt>
      <trkpt lat="44.69513" lon="5.19318">
        <ele>260</ele>
        <time>2019-09-01T10:00:13Z</time>
      </trkpt>
      <trkpt lat="44.69512" lon="5.19314">
        <ele>260</ele>
        <time>2019-09-01T10:00:14Z</time>
      </trkpt>
      <trkpt lat="44.69511" lon="5.1931">
        <ele>260</ele>
        <time>2019-09-01T10:00:16Z</time>
      </trkpt>
      <trkpt lat="44.69514" lon="5.19306">
        <ele>260</ele>
        <time>2019-09-01T10:00:21Z</time>
      </trkpt>
      <trkpt lat="44.69517" lon="5.19305">
        <ele>260</ele>
        <time>2019-09-01T10:00:23Z</time>
      </trkpt>
      <trkpt lat="44.69515" lon="5.19311">
        <ele>260</ele>
        <time>2019-09-01T10:00:26Z</time>
      </trkpt>
      <trkpt lat="44.6951" lon="5.19312">
        <ele>260</ele>
        <time>2019-09-01T10:00:28Z</time>
      </trkpt>
      <trkpt lat="44.69507" lon="5.19313">
        <ele>260</ele>
        <time>2019-09-01T10:00:29Z</time>
      </trkpt>
      <trkpt lat="44.69504" lon="5.19313">
        <ele>260</ele>
        <time>2019-09-01T10:00:30Z</time>
      </trkpt>
      <trkpt lat="44.69501" lon="5.19312">
        <ele>260</ele>
        <time>2019-09-01T10:00:31Z</time>
      </trkpt>
      <trkpt lat="44.69499" lon="5.1931">
        <ele>264</ele>
        <time>2019-09-01T10:00:32Z</time>
      </trkpt>
      <trkpt lat="44.69496" lon="5.19309">
        <ele>264</ele>
        <time>2019-09-01T10:00:34Z</time>
      </trkpt>
      <trkpt lat="44.69497" lon="5.19305">
        <ele>264</ele>
        <time>2019-09-01T10:00:41Z</time>
      </trkpt>
      <trkpt lat="44.69495" lon="5.19302">
        <ele>264</ele>
        <time>2019-09-01T10:01:03Z</time>
      </trkpt>
      <trkpt lat="44.69498" lon="5.19299">
        <ele>264</ele>
        <time>2019-09-01T10:01:39Z</time>
      </trkpt>
      <trkpt lat="44.69501" lon="5.193">
        <ele>260</ele>
        <time>2019-09-01T10:01:44Z</time>
      </trkpt>
      <trkpt lat="44.69503" lon="5.19303">
        <ele>260</ele>
        <time>2019-09-01T10:01:47Z</time>
      </trkpt>
      <trkpt lat="44.69504" lon="5.19307">
        <ele>260</ele>
        <time>2019-09-01T10:02:15Z</time>
      </trkpt>
      <trkpt lat="44.69507" lon="5.19308">
        <ele>260</ele>
        <time>2019-09-01T10:02:25Z</time>
      </trkpt>
      <trkpt lat="44.6951" lon="5.19304">
        <ele>260</ele>
        <time>2019-09-01T10:02:32Z</time>
      </trkpt>
      <trkpt lat="44.69512" lon="5.19301">
        <ele>260</ele>
        <time>2019-09-01T10:02:35Z</time>
      </trkpt>
      <trkpt lat="44.69514" lon="5.19299">
        <ele>259</ele>
        <time>2019-09-01T10:02:40Z</time>
      </trkpt>
      <trkpt lat="44.69513" lon="5.19296">
        <ele>259</ele>
        <time>2019-09-01T10:02:43Z</time>
      </trkpt>
      <trkpt lat="44.69511" lon="5.19291">
        <ele>259</ele>
        <time>2019-09-01T10:02:46Z</time>
      </trkpt>
      <trkpt lat="44.6951" lon="5.19287">
        <ele>259</ele>
        <time>2019-09-01T10:02:48Z</time>
      </trkpt>
      <trkpt lat="44.69509" lon="5.19282">
        <ele>259</ele>
        <time>2019-09-01T10:02:51Z</time>
      </trkpt>
      <trkpt lat="44.6951" lon="5.19277">
        <ele>259</ele>
        <time>2019-09-01T10:03:06Z</time>
      </trkpt>
      <trkpt lat="44.69513" lon="5.19273">
        <ele>259</ele>
        <time>2019-09-01T10:03:12Z</time>
      </trkpt>
      <trkpt lat="44.69511" lon="5.19268">
        <ele>259</ele>
        <time>2019-09-01T10:03:45Z</time>
      </trkpt>
      <trkpt lat="44.6951" lon="5.19262">
        <ele>259</ele>
        <time>2019-09-01T10:03:47Z</time>
      </trkpt>
      <trkpt lat="44.69506" lon="5.19257">
        <ele>258</ele>
        <time>2019-09-01T10:03:49Z</time>
      </trkpt>
      <trkpt lat="44.69503" lon="5.19255">
        <ele>258</ele>
        <time>2019-09-01T10:03:50Z</time>
      </trkpt>
      <trkpt lat="44.69501" lon="5.19253">
        <ele>258</ele>
        <time>2019-09-01T10:03:51Z</time>
      </trkpt>
      <trkpt lat="44.69498" lon="5.19248">
        <ele>259</ele>
        <time>2019-09-01T10:03:53Z</time>
      </trkpt>
      <trkpt lat="44.69497" lon="5.19241">
        <ele>260</ele>
        <time>2019-09-01T10:03:55Z</time>
      </trkpt>
      <trkpt lat="44.69497" lon="5.19233">
        <ele>261</ele>
        <time>2019-09-01T10:03:57Z</time>
      </trkpt>
      <trkpt lat="44.69497" lon="5.19229">
        <ele>261</ele>
        <time>2019-09-01T10:03:58Z</time>
      </trkpt>
      <trkpt lat="44.69497" lon="5.19225">
        <ele>261</ele>
        <time>2019-09-01T10:03:59Z</time>
      </trkpt>
      <trkpt lat="44.69496" lon="5.19217">
        <ele>262</ele>
        <time>2019-09-01T10:04:01Z</time>
      </trkpt>
      <trkpt lat="44.69495" lon="5.19213">
        <ele>262</ele>
        <time>2019-09-01T10:04:02Z</time>
      </trkpt>
      <trkpt lat="44.69494" lon="5.19208">
        <ele>262</ele>
        <time>2019-09-01T10:04:03Z</time>
      </trkpt>
      <trkpt lat="44.69494" lon="5.19203">
        <ele>262</ele>
        <time>2019-09-01T10:04:04Z</time>
      </trkpt>
      <trkpt lat="44.69494" lon="5.19199">
        <ele>262</ele>
        <time>2019-09-01T10:04:05Z</time>
      </trkpt>
      <trkpt lat="44.69494" lon="5.19195">
        <ele>262</ele>
        <time>2019-09-01T10:04:06Z</time>
      </trkpt>
      <trkpt lat="44.69493" lon="5.19191">
        <ele>262</ele>
        <time>2019-09-01T10:04:07Z</time>
      </trkpt>
      <trkpt lat="44.69492" lon="5.19185">
        <ele>261</ele>
        <time>2019-09-01T10:04:08Z</time>
      </trkpt>
      <trkpt lat="44.69493" lon="5.19176">
        <ele>261</ele>
        <time>2019-09-01T10:04:09Z</time>
      </trkpt>
      <trkpt lat="44.69495" lon="5.19168">
        <ele>260</ele>
        <time>2019-09-01T10:04:10Z</time>
      </trkpt>
      <trkpt lat="44.69496" lon="5.19161">
        <ele>260</ele>
        <time>2019-09-01T10:04:11Z</time>
      </trkpt>
      <trkpt lat="44.69497" lon="5.19154">
        <ele>260</ele>
        <time>2019-09-01T10:04:12Z</time>
      </trkpt>
      <trkpt lat="44.69497" lon="5.1915">
        <ele>260</ele>
        <time>2019-09-01T10:04:13Z</time>
      </trkpt>
      <trkpt lat="44.69498" lon="5.19146">
        <ele>260</ele>
        <time>2019-09-01T10:04:14Z</time>
      </trkpt>
      <trkpt lat="44.69499" lon="5.19142">
        <ele>260</ele>
        <time>2019-09-01T10:04:15Z</time>
      </trkpt>
      <trkpt lat="44.69499" lon="5.19138">
        <ele>260</ele>
        <time>2019-09-01T10:04:16Z</time>
      </trkpt>
      <trkpt lat="44.69499" lon="5.19133">
        <ele>260</ele>
        <time>2019-09-01T10:04:17Z</time>
      </trkpt>
      <trkpt lat="44.69498" lon="5.19126">
        <ele>260</ele>
        <time>2019-09-01T10:04:19Z</time>
      </trkpt>
      <trkpt lat="44.695" lon="5.19122">
        <ele>260</ele>
        <time>2019-09-01T10:04:20Z</time>
      </trkpt>
      <trkpt lat="44.69501" lon="5.19118">
        <ele>260</ele>
        <time>2019-09-01T10:04:21Z</time>
      </trkpt>
      <trkpt lat="44.69501" lon="5.19114">
        <ele>260</ele>
        <time>2019-09-01T10:04:22Z</time>
      </trkpt>
      <trkpt lat="44.69501" lon="5.19107">
        <ele>260</ele>
        <time>2019-09-01T10:04:24Z</time>
      </trkpt>
      <trkpt lat="44.695" lon="5.19103">
        <ele>260</ele>
        <time>2019-09-01T10:04:25Z</time>
      </trkpt>
      <trkpt lat="44.695" lon="5.19098">
        <ele>260</ele>
        <time>2019-09-01T10:04:26Z</time>
      </trkpt>
      <trkpt lat="44.695" lon="5.19094">
        <ele>260</ele>
        <time>2019-09-01T10:04:27Z</time>
      </trkpt>
      <trkpt lat="44.695" lon="5.19089">
        <ele>259</ele>
        <time>2019-09-01T10:04:28Z</time>
      </trkpt>
      <trkpt lat="44.69499" lon="5.19084">
        <ele>259</ele>
        <time>2019-09-01T10:04:29Z</time>
      </trkpt>
      <trkpt lat="44.69498" lon="5.1908">
        <ele>259</ele>
        <time>2019-09-01T10:04:30Z</time>
      </trkpt>
      <trkpt lat="44.69498" lon="5.19076">
        <ele>259</ele>
        <time>2019-09-01T10:04:31Z</time>
      </trkpt>
      <trkpt lat="44.69498" lon="5.19071">
        <ele>259</ele>
        <time>2019-09-01T10:04:32Z</time>
      </trkpt>
      <trkpt lat="44.69499" lon="5.19066">
        <ele>259</ele>
        <time>2019-09-01T10:04:33Z</time>
      </trkpt>
      <trkpt lat="44.69501" lon="5.19063">
        <ele>260</ele>
        <time>2019-09-01T10:04:34Z</time>
      </trkpt>
      <trkpt lat="44.69505" lon="5.19059">
        <ele>260</ele>
        <time>2019-09-01T10:04:36Z</time>
      </trkpt>
      <trkpt lat="44.6951" lon="5.19055">
        <ele>260</ele>
        <time>2019-09-01T10:04:38Z</time>
      </trkpt>
      <trkpt lat="44.69513" lon="5.19053">
        <ele>261</ele>
        <time>2019-09-01T10:04:39Z</time>
      </trkpt>
      <trkpt lat="44.69517" lon="5.19051">
        <ele>261</ele>
        <time>2019-09-01T10:04:40Z</time>
      </trkpt>
      <trkpt lat="44.69519" lon="5.19049">
        <ele>261</ele>
        <time>2019-09-01T10:04:41Z</time>
      </trkpt>
      <trkpt lat="44.69523" lon="5.19048">
        <ele>261</ele>
        <time>2019-09-01T10:04:43Z</time>
      </trkpt>
      <trkpt lat="44.69527" lon="5.19046">
        <ele>261</ele>
        <time>2019-09-01T10:04:45Z</time>
      </trkpt>
      <trkpt lat="44.6953" lon="5.19048">
        <ele>261</ele>
        <time>2019-09-01T10:04:47Z</time>
      </trkpt>
      <trkpt lat="44.69534" lon="5.19049">
        <ele>261</ele>
        <time>2019-09-01T10:04:49Z</time>
      </trkpt>
      <trkpt lat="44.69536" lon="5.19051">
        <ele>261</ele>
        <time>2019-09-01T10:04:50Z</time>
      </trkpt>
      <trkpt lat="44.69539" lon="5.19053">
        <ele>261</ele>
        <time>2019-09-01T10:04:51Z</time>
      </trkpt>
      <trkpt lat="44.69541" lon="5.19056">
        <ele>261</ele>
        <time>2019-09-01T10:04:52Z</time>
      </trkpt>
      <trkpt lat="44.69544" lon="5.19059">
        <ele>261</ele>
        <time>2019-09-01T10:04:54Z</time>
      </trkpt>
      <trkpt lat="44.69547" lon="5.1906">
        <ele>261</ele>
        <time>2019-09-01T10:04:57Z</time>
      </trkpt>
      <trkpt lat="44.69546" lon="5.19056">
        <ele>261</ele>
        <time>2019-09-01T10:05:02Z</time>
      </trkpt>
      <trkpt lat="44.69545" lon="5.19051">
        <ele>261</ele>
        <time>2019-09-01T10:05:04Z</time>
      </trkpt>
      <trkpt lat="44.69543" lon="5.19047">
        <ele>261</ele>
        <time>2019-09-01T10:05:06Z</time>
      </trkpt>
      <trkpt lat="44.69542" lon="5.19039">
        <ele>261</ele>
        <time>2019-09-01T10:05:08Z</time>
      </trkpt>
      <trkpt lat="44.6954" lon="5.19033">
        <ele>261</ele>
        <time>2019-09-01T10:05:10Z</time>
      </trkpt>
      <trkpt lat="44.69538" lon="5.19027">
        <ele>261</ele>
        <time>2019-09-01T10:05:12Z</time>
      </trkpt>
      <trkpt lat="44.69537" lon="5.1902">
        <ele>261</ele>
        <time>2019-09-01T10:05:14Z</time>
      </trkpt>
      <trkpt lat="44.69534" lon="5.19013">
        <ele>261</ele>
        <time>2019-09-01T10:05:16Z</time>
      </trkpt>
      <trkpt lat="44.69533" lon="5.19009">
        <ele>261</ele>
        <time>2019-09-01T10:05:17Z</time>
      </trkpt>
      <trkpt lat="44.69531" lon="5.19005">
        <ele>261</ele>
        <time>2019-09-01T10:05:18Z</time>
      </trkpt>
      <trkpt lat="44.69529" lon="5.19001">
        <ele>261</ele>
        <time>2019-09-01T10:05:19Z</time>
      </trkpt>
      <trkpt lat="44.69527" lon="5.18997">
        <ele>260</ele>
        <time>2019-09-01T10:05:20Z</time>
      </trkpt>
      <trkpt lat="44.69526" lon="5.18993">
        <ele>260</ele>
        <time>2019-09-01T10:05:21Z</time>
      </trkpt>
      <trkpt lat="44.69524" lon="5.18989">
        <ele>260</ele>
        <time>2019-09-01T10:05:22Z</time>
      </trkpt>
      <trkpt lat="44.69522" lon="5.18984">
        <ele>260</ele>
        <time>2019-09-01T10:05:23Z</time>
      </trkpt>
      <trkpt lat="44.69521" lon="5.18979">
        <ele>260</ele>
        <time>2019-09-01T10:05:24Z</time>
      </trkpt>
      <trkpt lat="44.69519" lon="5.18974">
        <ele>260</ele>
        <time>2019-09-01T10:05:25Z</time>
      </trkpt>
      <trkpt lat="44.69518" lon="5.18969">
        <ele>260</ele>
        <time>2019-09-01T10:05:26Z</time>
      </trkpt>
      <trkpt lat="44.69517" lon="5.18964">
        <ele>260</ele>
        <time>2019-09-01T10:05:27Z</time>
      </trkpt>
      <trkpt lat="44.69516" lon="5.18958">
        <ele>260</ele>
        <time>2019-09-01T10:05:28Z</time>
      </trkpt>
      <trkpt lat="44.69515" lon="5.1895">
        <ele>259</ele>
        <time>2019-09-01T10:05:29Z</time>
      </trkpt>
      <trkpt lat="44.69514" lon="5.18945">
        <ele>259</ele>
        <time>2019-09-01T10:05:30Z</time>
      </trkpt>
      <trkpt lat="44.69513" lon="5.1894">
        <ele>259</ele>
        <time>2019-09-01T10:05:31Z</time>
      </trkpt>
      <trkpt lat="44.69512" lon="5.18934">
        <ele>259</ele>
        <time>2019-09-01T10:05:32Z</time>
      </trkpt>
      <trkpt lat="44.69512" lon="5.18928">
        <ele>258</ele>
        <time>2019-09-01T10:05:33Z</time>
      </trkpt>
      <trkpt lat="44.69511" lon="5.18922">
        <ele>258</ele>
        <time>2019-09-01T10:05:34Z</time>
      </trkpt>
      <trkpt lat="44.6951" lon="5.18917">
        <ele>258</ele>
        <time>2019-09-01T10:05:35Z</time>
      </trkpt>
      <trkpt lat="44.6951" lon="5.1891">
        <ele>257</ele>
        <time>2019-09-01T10:05:36Z</time>
      </trkpt>
      <trkpt lat="44.69509" lon="5.18904">
        <ele>258</ele>
        <time>2019-09-01T10:05:37Z</time>
      </trkpt>
      <trkpt lat="44.69509" lon="5.18898">
        <ele>258</ele>
        <time>2019-09-01T10:05:38Z</time>
      </trkpt>
      <trkpt lat="44.69509" lon="5.18892">
        <ele>258</ele>
        <time>2019-09-01T10:05:39Z</time>
      </trkpt>
      <trkpt lat="44.69508" lon="5.18886">
        <ele>258</ele>
        <time>2019-09-01T10:05:40Z</time>
      </trkpt>
      <trkpt lat="44.69508" lon="5.18881">
        <ele>258</ele>
        <time>2019-09-01T10:05:41Z</time>
      </trkpt>
      <trkpt lat="44.69507" lon="5.18875">
        <ele>258</ele>
        <time>2019-09-01T10:05:42Z</time>
      </trkpt>
      <trkpt lat="44.69507" lon="5.1887">
        <ele>258</ele>
        <time>2019-09-01T10:05:43Z</time>
      </trkpt>
      <trkpt lat="44.69506" lon="5.18866">
        <ele>258</ele>
        <time>2019-09-01T10:05:44Z</time>
      </trkpt>
      <trkpt lat="44.69506" lon="5.1886">
        <ele>258</ele>
        <time>2019-09-01T10:05:45Z</time>
      </trkpt>
      <trkpt lat="44.69505" lon="5.18855">
        <ele>258</ele>
        <time>2019-09-01T10:05:46Z</time>
      </trkpt>
      <trkpt lat="44.69504" lon="5.1885">
        <ele>258</ele>
        <time>2019-09-01T10:05:47Z</time>
      </trkpt>
      <trkpt lat="44.69504" lon="5.18845">
        <ele>257</ele>
        <time>2019-09-01T10:05:48Z</time>
      </trkpt>
      <trkpt lat="44.69503" lon="5.1884">
        <ele>257</ele>
        <time>2019-09-01T10:05:49Z</time>
      </trkpt>
      <trkpt lat="44.69502" lon="5.18835">
        <ele>256</ele>
        <time>2019-09-01T10:05:50Z</time>
      </trkpt>
      <trkpt lat="44.69501" lon="5.1883">
        <ele>256</ele>
        <time>2019-09-01T10:05:51Z</time>
      </trkpt>
      <trkpt lat="44.695" lon="5.18825">
        <ele>256</ele>
        <time>2019-09-01T10:05:52Z</time>
      </trkpt>
      <trkpt lat="44.69499" lon="5.18821">
        <ele>256</ele>
        <time>2019-09-01T10:05:53Z</time>
      </trkpt>
      <trkpt lat="44.69497" lon="5.18815">
        <ele>256</ele>
        <time>2019-09-01T10:05:54Z</time>
      </trkpt>
      <trkpt lat="44.69496" lon="5.18811">
        <ele>255</ele>
        <time>2019-09-01T10:05:55Z</time>
      </trkpt>
      <trkpt lat="44.69495" lon="5.18806">
        <ele>255</ele>
        <time>2019-09-01T10:05:56Z</time>
      </trkpt>
      <trkpt lat="44.69494" lon="5.18802">
        <ele>255</ele>
        <time>2019-09-01T10:05:57Z</time>
      </trkpt>
      <trkpt lat="44.69492" lon="5.18798">
        <ele>255</ele>
        <time>2019-09-01T10:05:58Z</time>
      </trkpt>
      <trkpt lat="44.69491" lon="5.18794">
        <ele>255</ele>
        <time>2019-09-01T10:05:59Z</time>
      </trkpt>
      <trkpt lat="44.69489" lon="5.18788">
        <ele>255</ele>
        <time>2019-09-01T10:06:01Z</time>
      </trkpt>
      <trkpt lat="44.69487" lon="5.18785">
        <ele>255</ele>
        <time>2019-09-01T10:06:02Z</time>
      </trkpt>
      <trkpt lat="44.69486" lon="5.18781">
        <ele>255</ele>
        <time>2019-09-01T10:06:03Z</time>
      </trkpt>
      <trkpt lat="44.69484" lon="5.18776">
        <ele>255</ele>
        <time>2019-09-01T10:06:04Z</time>
      </trkpt>
      <trkpt lat="44.69483" lon="5.18771">
        <ele>255</ele>
        <time>2019-09-01T10:06:05Z</time>
      </trkpt>
      <trkpt lat="44.69482" lon="5.18767">
        <ele>255</ele>
        <time>2019-09-01T10:06:06Z</time>
      </trkpt>
      <trkpt lat="44.69482" lon="5.18761">
        <ele>255</ele>
        <time>2019-09-01T10:06:07Z</time>
      </trkpt>
      <trkpt lat="44.69481" lon="5.18757">
        <ele>255</ele>
        <time>2019-09-01T10:06:08Z</time>
      </trkpt>
      <trkpt lat="44.6948" lon="5.18753">
        <ele>255</ele>
        <time>2019-09-01T10:06:09Z</time>
      </trkpt>
      <trkpt lat="44.69478" lon="5.18748">
        <ele>255</ele>
        <time>2019-09-01T10:06:10Z</time>
      </trkpt>
      <trkpt lat="44.69477" lon="5.18743">
        <ele>255</ele>
        <time>2019-09-01T10:06:11Z</time>
      </trkpt>
      <trkpt lat="44.69475" lon="5.18739">
        <ele>255</ele>
        <time>2019-09-01T10:06:12Z</time>
      </trkpt>
      <trkpt lat="44.69473" lon="5.18735">
        <ele>255</ele>
        <time>2019-09-01T10:06:13Z</time>
      </trkpt>
      <trkpt lat="44.69472" lon="5.1873">
        <ele>255</ele>
        <time>2019-09-01T10:06:14Z</time>
      </trkpt>
      <trkpt lat="44.6947" lon="5.18726">
        <ele>255</ele>
        <time>2019-09-01T10:06:15Z</time>
      </trkpt>
      <trkpt lat="44.69468" lon="5.18721">
        <ele>255</ele>
        <time>2019-09-01T10:06:16Z</time>
      </trkpt>
      <trkpt lat="44.69466" lon="5.18716">
        <ele>255</ele>
        <time>2019-09-01T10:06:17Z</time>
      </trkpt>
      <trkpt lat="44.69464" lon="5.18711">
        <ele>255</ele>
        <time>2019-09-01T10:06:18Z</time>
      </trkpt>
      <trkpt lat="44.69462" lon="5.18707">
        <ele>255</ele>
        <time>2019-09-01T10:06:19Z</time>
      </trkpt>
      <trkpt lat="44.69461" lon="5.18703">
        <ele>255</ele>
        <time>2019-09-01T10:06:20Z</time>
      </trkpt>
      <trkpt lat="44.69459" lon="5.18698">
        <ele>255</ele>
        <time>2019-09-01T10:06:21Z</time>
      </trkpt>
      <trkpt lat="44.69457" lon="5.18693">
        <ele>255</ele>
        <time>2019-09-01T10:06:22Z</time>
      </trkpt>
      <trkpt lat="44.69456" lon="5.18688">
        <ele>255</ele>
        <time>2019-09-01T10:06:23Z</time>
      </trkpt>
      <trkpt lat="44.69455" lon="5.18682">
        <ele>255</ele>
        <time>2019-09-01T10:06:24Z</time>
      </trkpt>
      <trkpt lat="44.69454" lon="5.18676">
        <ele>255</ele>
        <time>2019-09-01T10:06:25Z</time>
      </trkpt>
      <trkpt lat="44.69454" lon="5.18668">
        <ele>255</ele>
        <time>2019-09-01T10:06:26Z</time>
      </trkpt>
      <trkpt lat="44.69454" lon="5.1866">
        <ele>255</ele>
        <time>2019-09-01T10:06:27Z</time>
      </trkpt>
      <trkpt lat="44.69454" lon="5.18652">
        <ele>255</ele>
        <time>2019-09-01T10:06:28Z</time>
      </trkpt>
      <trkpt lat="44.69454" lon="5.18645">
        <ele>255</ele>
        <time>2019-09-01T10:06:29Z</time>
      </trkpt>
      <trkpt lat="44.69454" lon="5.1864">
        <ele>255</ele>
        <time>2019-09-01T10:06:30Z</time>
      </trkpt>
      <trkpt lat="44.69454" lon="5.18634">
        <ele>255</ele>
        <time>2019-09-01T10:06:31Z</time>
      </trkpt>
      <trkpt lat="44.69453" lon="5.18629">
        <ele>255</ele>
        <time>2019-09-01T10:06:32Z</time>
      </trkpt>
      <trkpt lat="44.69452" lon="5.18624">
        <ele>255</ele>
        <time>2019-09-01T10:06:33Z</time>
      </trkpt>
      <trkpt lat="44.69451" lon="5.18618">
        <ele>255</ele>
        <time>2019-09-01T10:06:34Z</time>
      </trkpt>
      <trkpt lat="44.69451" lon="5.18612">
        <ele>255</ele>
        <time>2019-09-01T10:06:35Z</time>
      </trkpt>
      <trkpt lat="44.6945" lon="5.18605">
        <ele>255</ele>
        <time>2019-09-01T10:06:36Z</time>
      </trkpt>
      <trkpt lat="44.69449" lon="5.18599">
        <ele>255</ele>
        <time>2019-09-01T10:06:37Z</time>
      </trkpt>
      <trkpt lat="44.69449" lon="5.18592">
        <ele>255</ele>
        <time>2019-09-01T10:06:38Z</time>
      </trkpt>
      <trkpt lat="44.69449" lon="5.18585">
        <ele>255</ele>
        <time>2019-09-01T10:06:39Z</time>
      </trkpt>
      <trkpt lat="44.69448" lon="5.18577">
        <ele>255</ele>
        <time>2019-09-01T10:06:40Z</time>
      </trkpt>
      <trkpt lat="44.69447" lon="5.1857">
        <ele>255</ele>
        <time>2019-09-01T10:06:41Z</time>
      </trkpt>
      <trkpt lat="44.69446" lon="5.18562">
        <ele>255</ele>
        <time>2019-09-01T10:06:42Z</time>
      </trkpt>
      <trkpt lat="44.69445" lon="5.18553">
        <ele>255</ele>
        <time>2019-09-01T10:06:43Z</time>
      </trkpt>
      <trkpt lat="44.69445" lon="5.18544">
        <ele>255</ele>
        <time>2019-09-01T10:06:44Z</time>
      </trkpt>
      <trkpt lat="44.69444" lon="5.18534">
        <ele>255</ele>
        <time>2019-09-01T10:06:45Z</time>
      </trkpt>
      <trkpt lat="44.69443" lon="5.18524">
        <ele>255</ele>
        <time>2019-09-01T10:06:46Z</time>
      </trkpt>
      <trkpt lat="44.69443" lon="5.18513">
        <ele>255</ele>
        <time>2019-09-01T10:06:47Z</time>
      </trkpt>
      <trkpt lat="44.69443" lon="5.18502">
        <ele>255</ele>
        <time>2019-09-01T10:06:48Z</time>
      </trkpt>
      <trkpt lat="44.69444" lon="5.18491">
        <ele>255</ele>
        <time>2019-09-01T10:06:49Z</time>
      </trkpt>
      <trkpt lat="44.69445" lon="5.1848">
        <ele>255</ele>
        <time>2019-09-01T10:06:50Z</time>
      </trkpt>
      <trkpt lat="44.69447" lon="5.18471">
        <ele>256</ele>
        <time>2019-09-01T10:06:51Z</time>
      </trkpt>
      <trkpt lat="44.69448" lon="5.18462">
        <ele>256</ele>
        <time>2019-09-01T10:06:52Z</time>
      </trkpt>
      <trkpt lat="44.69449" lon="5.18454">
        <ele>256</ele>
        <time>2019-09-01T10:06:53Z</time>
      </trkpt>
      <trkpt lat="44.69451" lon="5.18447">
        <ele>256</ele>
        <time>2019-09-01T10:06:54Z</time>
      </trkpt>
      <trkpt lat="44.69453" lon="5.18439">
        <ele>256</ele>
        <time>2019-09-01T10:06:55Z</time>
      </trkpt>
      <trkpt lat="44.69455" lon="5.18432">
        <ele>256</ele>
        <time>2019-09-01T10:06:56Z</time>
      </trkpt>
      <trkpt lat="44.69458" lon="5.18425">
        <ele>256</ele>
        <time>2019-09-01T10:06:57Z</time>
      </trkpt>
      <trkpt lat="44.69461" lon="5.18417">
        <ele>256</ele>
        <time>2019-09-01T10:06:58Z</time>
      </trkpt>
      <trkpt lat="44.69463" lon="5.18411">
        <ele>256</ele>
        <time>2019-09-01T10:06:59Z</time>
      </trkpt>
      <trkpt lat="44.69464" lon="5.18406">
        <ele>256</ele>
        <time>2019-09-01T10:07:00Z</time>
      </trkpt>
      <trkpt lat="44.69466" lon="5.18401">
        <ele>256</ele>
        <time>2019-09-01T10:07:02Z</time>
      </trkpt>
      <trkpt lat="44.69468" lon="5.18397">
        <ele>256</ele>
        <time>2019-09-01T10:07:05Z</time>
      </trkpt>
      <trkpt lat="44.6947" lon="5.18393">
        <ele>256</ele>
        <time>2019-09-01T10:07:22Z</time>
      </trkpt>
      <trkpt lat="44.69471" lon="5.1839">
        <ele>256</ele>
        <time>2019-09-01T10:07:24Z</time>
      </trkpt>
      <trkpt lat="44.69473" lon="5.18386">
        <ele>256</ele>
        <time>2019-09-01T10:07:26Z</time>
      </trkpt>
      <trkpt lat="44.69475" lon="5.18384">
        <ele>256</ele>
        <time>2019-09-01T10:07:28Z</time>
      </trkpt>
      <trkpt lat="44.69476" lon="5.1838">
        <ele>256</ele>
        <time>2019-09-01T10:07:30Z</time>
      </trkpt>
      <trkpt lat="44.69478" lon="5.18376">
        <ele>256</ele>
        <time>2019-09-01T10:07:32Z</time>
      </trkpt>
      <trkpt lat="44.69479" lon="5.1837">
        <ele>256</ele>
        <time>2019-09-01T10:07:34Z</time>
      </trkpt>
      <trkpt lat="44.69479" lon="5.18366">
        <ele>256</ele>
        <time>2019-09-01T10:07:36Z</time>
      </trkpt>
      <trkpt lat="44.69476" lon="5.1836">
        <ele>256</ele>
        <time>2019-09-01T10:07:38Z</time>
      </trkpt>
      <trkpt lat="44.69475" lon="5.18357">
        <ele>256</ele>
        <time>2019-09-01T10:07:39Z</time>
      </trkpt>
      <trkpt lat="44.69473" lon="5.18354">
        <ele>256</ele>
        <time>2019-09-01T10:07:40Z</time>
      </trkpt>
      <trkpt lat="44.69472" lon="5.1835">
        <ele>256</ele>
        <time>2019-09-01T10:07:41Z</time>
      </trkpt>
      <trkpt lat="44.6947" lon="5.18347">
        <ele>256</ele>
        <time>2019-09-01T10:07:42Z</time>
      </trkpt>
      <trkpt lat="44.69468" lon="5.18343">
        <ele>256</ele>
        <time>2019-09-01T10:07:43Z</time>
      </trkpt>
      <trkpt lat="44.69464" lon="5.18338">
        <ele>256</ele>
        <time>2019-09-01T10:07:45Z</time>
      </trkpt>
      <trkpt lat="44.69461" lon="5.18336">
        <ele>255</ele>
        <time>2019-09-01T10:07:47Z</time>
      </trkpt>
      <trkpt lat="44.69457" lon="5.18333">
        <ele>254</ele>
        <time>2019-09-01T10:07:49Z</time>
      </trkpt>
      <trkpt lat="44.69454" lon="5.1833">
        <ele>254</ele>
        <time>2019-09-01T10:07:50Z</time>
      </trkpt>
      <trkpt lat="44.6945" lon="5.18328">
        <ele>254</ele>
        <time>2019-09-01T10:07:51Z</time>
      </trkpt>
      <trkpt lat="44.69447" lon="5.18326">
        <ele>254</ele>
        <time>2019-09-01T10:07:52Z</time>
      </trkpt>
      <trkpt lat="44.69445" lon="5.18325">
        <ele>254</ele>
        <time>2019-09-01T10:07:53Z</time>
      </trkpt>
      <trkpt lat="44.69441" lon="5.18321">
        <ele>254</ele>
        <time>2019-09-01T10:07:55Z</time>
      </trkpt>
      <trkpt lat="44.69439" lon="5.18315">
        <ele>254</ele>
        <time>2019-09-01T10:07:57Z</time>
      </trkpt>
      <trkpt lat="44.69437" lon="5.18309">
        <ele>254</ele>
        <time>2019-09-01T10:07:59Z</time>
      </trkpt>
      <trkpt lat="44.69437" lon="5.18304">
        <ele>254</ele>
        <time>2019-09-01T10:08:00Z</time>
      </trkpt>
      <trkpt lat="44.69438" lon="5.18298">
        <ele>254</ele>
        <time>2019-09-01T10:08:02Z</time>
      </trkpt>
      <trkpt lat="44.69438" lon="5.18294">
        <ele>254</ele>
        <time>2019-09-01T10:08:03Z</time>
      </trkpt>
      <trkpt lat="44.69439" lon="5.18291">
        <ele>254</ele>
        <time>2019-09-01T10:08:04Z</time>
      </trkpt>
      <trkpt lat="44.69439" lon="5.18285">
        <ele>254</ele>
        <time>2019-09-01T10:08:06Z</time>
      </trkpt>
      <trkpt lat="44.69441" lon="5.18281">
        <ele>254</ele>
        <time>2019-09-01T10:08:15Z</time>
      </trkpt>
      <trkpt lat="44.69442" lon="5.18284">
        <ele>254</ele>
        <time>2019-09-01T10:09:06Z</time>
      </trkpt>
    </trkseg>
  </trk>
</gpx>